<?xml version="1.0" encoding="UTF-8" standalone="no" ?>
<gpx xmlns="http://www.topografix.com/GPX/1/1" xmlns:xsi="http://www.w3.org/2001/XMLSchema-instance" xsi:schemaLocation="http://www.topografix.com/GPX/1/1 http://www.topografix.com/GPX/1/1/gpx.xsd" version="1.1" creator="VisuGPX - https://www.visugpx.com">
  <metadata>
    <name>Loire sur Rhône</name>
    <desc><![CDATA[Rando des châtaignes télécharchée sur Utagawvtt. 
]]></desc>
  </metadata>
  <trk>
    <name><![CDATA[26/10/2013 9:33]]></name>
    <trkseg>
      <trkpt lat="45.56259" lon="4.80588">
        <ele>159</ele>
        <time>2013-10-26T07:35:24Z</time>
      </trkpt>
      <trkpt lat="45.56259" lon="4.80596">
        <ele>159</ele>
        <time>2013-10-26T07:35:28Z</time>
      </trkpt>
      <trkpt lat="45.56255" lon="4.80601">
        <ele>159</ele>
        <time>2013-10-26T07:35:29Z</time>
      </trkpt>
      <trkpt lat="45.56253" lon="4.80604">
        <ele>159</ele>
        <time>2013-10-26T07:35:30Z</time>
      </trkpt>
      <trkpt lat="45.56247" lon="4.80607">
        <ele>159</ele>
        <time>2013-10-26T07:35:31Z</time>
      </trkpt>
      <trkpt lat="45.5624" lon="4.80613">
        <ele>159</ele>
        <time>2013-10-26T07:35:33Z</time>
      </trkpt>
      <trkpt lat="45.56236" lon="4.80616">
        <ele>159</ele>
        <time>2013-10-26T07:35:34Z</time>
      </trkpt>
      <trkpt lat="45.56229" lon="4.80619">
        <ele>159</ele>
        <time>2013-10-26T07:35:36Z</time>
      </trkpt>
      <trkpt lat="45.56224" lon="4.80623">
        <ele>159</ele>
        <time>2013-10-26T07:35:37Z</time>
      </trkpt>
      <trkpt lat="45.56219" lon="4.80627">
        <ele>159</ele>
        <time>2013-10-26T07:35:39Z</time>
      </trkpt>
      <trkpt lat="45.56216" lon="4.80629">
        <ele>159</ele>
        <time>2013-10-26T07:35:40Z</time>
      </trkpt>
      <trkpt lat="45.56215" lon="4.8064">
        <ele>159</ele>
        <time>2013-10-26T07:35:42Z</time>
      </trkpt>
      <trkpt lat="45.56211" lon="4.80648">
        <ele>159</ele>
        <time>2013-10-26T07:35:43Z</time>
      </trkpt>
      <trkpt lat="45.56205" lon="4.80657">
        <ele>158</ele>
        <time>2013-10-26T07:35:45Z</time>
      </trkpt>
      <trkpt lat="45.56203" lon="4.8066">
        <ele>158</ele>
        <time>2013-10-26T07:35:46Z</time>
      </trkpt>
      <trkpt lat="45.56198" lon="4.80666">
        <ele>158</ele>
        <time>2013-10-26T07:35:48Z</time>
      </trkpt>
      <trkpt lat="45.56195" lon="4.80671">
        <ele>158</ele>
        <time>2013-10-26T07:35:49Z</time>
      </trkpt>
      <trkpt lat="45.56188" lon="4.80679">
        <ele>158</ele>
        <time>2013-10-26T07:35:51Z</time>
      </trkpt>
      <trkpt lat="45.56186" lon="4.80682">
        <ele>158</ele>
        <time>2013-10-26T07:35:52Z</time>
      </trkpt>
      <trkpt lat="45.5618" lon="4.80686">
        <ele>158</ele>
        <time>2013-10-26T07:35:54Z</time>
      </trkpt>
      <trkpt lat="45.56177" lon="4.8069">
        <ele>158</ele>
        <time>2013-10-26T07:35:55Z</time>
      </trkpt>
      <trkpt lat="45.56172" lon="4.80697">
        <ele>158</ele>
        <time>2013-10-26T07:35:57Z</time>
      </trkpt>
      <trkpt lat="45.5617" lon="4.807">
        <ele>158</ele>
        <time>2013-10-26T07:35:58Z</time>
      </trkpt>
      <trkpt lat="45.56167" lon="4.80705">
        <ele>158</ele>
        <time>2013-10-26T07:35:59Z</time>
      </trkpt>
      <trkpt lat="45.56164" lon="4.8071">
        <ele>158</ele>
        <time>2013-10-26T07:36:00Z</time>
      </trkpt>
      <trkpt lat="45.56159" lon="4.80716">
        <ele>158</ele>
        <time>2013-10-26T07:36:02Z</time>
      </trkpt>
      <trkpt lat="45.56156" lon="4.80722">
        <ele>158</ele>
        <time>2013-10-26T07:36:03Z</time>
      </trkpt>
      <trkpt lat="45.56151" lon="4.80727">
        <ele>158</ele>
        <time>2013-10-26T07:36:05Z</time>
      </trkpt>
      <trkpt lat="45.56148" lon="4.80731">
        <ele>158</ele>
        <time>2013-10-26T07:36:06Z</time>
      </trkpt>
      <trkpt lat="45.56142" lon="4.80737">
        <ele>158</ele>
        <time>2013-10-26T07:36:08Z</time>
      </trkpt>
      <trkpt lat="45.56139" lon="4.80738">
        <ele>158</ele>
        <time>2013-10-26T07:36:09Z</time>
      </trkpt>
      <trkpt lat="45.56133" lon="4.80742">
        <ele>158</ele>
        <time>2013-10-26T07:36:11Z</time>
      </trkpt>
      <trkpt lat="45.5613" lon="4.80743">
        <ele>158</ele>
        <time>2013-10-26T07:36:12Z</time>
      </trkpt>
      <trkpt lat="45.56123" lon="4.80748">
        <ele>158</ele>
        <time>2013-10-26T07:36:14Z</time>
      </trkpt>
      <trkpt lat="45.5612" lon="4.8075">
        <ele>157</ele>
        <time>2013-10-26T07:36:15Z</time>
      </trkpt>
      <trkpt lat="45.56116" lon="4.80754">
        <ele>157</ele>
        <time>2013-10-26T07:36:16Z</time>
      </trkpt>
      <trkpt lat="45.56113" lon="4.80759">
        <ele>157</ele>
        <time>2013-10-26T07:36:17Z</time>
      </trkpt>
      <trkpt lat="45.56108" lon="4.80769">
        <ele>157</ele>
        <time>2013-10-26T07:36:19Z</time>
      </trkpt>
      <trkpt lat="45.56103" lon="4.80772">
        <ele>157</ele>
        <time>2013-10-26T07:36:20Z</time>
      </trkpt>
      <trkpt lat="45.56095" lon="4.80776">
        <ele>157</ele>
        <time>2013-10-26T07:36:22Z</time>
      </trkpt>
      <trkpt lat="45.56094" lon="4.80781">
        <ele>157</ele>
        <time>2013-10-26T07:36:23Z</time>
      </trkpt>
      <trkpt lat="45.5609" lon="4.80792">
        <ele>157</ele>
        <time>2013-10-26T07:36:25Z</time>
      </trkpt>
      <trkpt lat="45.56088" lon="4.80797">
        <ele>157</ele>
        <time>2013-10-26T07:36:26Z</time>
      </trkpt>
      <trkpt lat="45.56085" lon="4.808">
        <ele>157</ele>
        <time>2013-10-26T07:36:27Z</time>
      </trkpt>
      <trkpt lat="45.56081" lon="4.80806">
        <ele>157</ele>
        <time>2013-10-26T07:36:28Z</time>
      </trkpt>
      <trkpt lat="45.56075" lon="4.80813">
        <ele>157</ele>
        <time>2013-10-26T07:36:30Z</time>
      </trkpt>
      <trkpt lat="45.56073" lon="4.80817">
        <ele>157</ele>
        <time>2013-10-26T07:36:31Z</time>
      </trkpt>
      <trkpt lat="45.56065" lon="4.8082">
        <ele>157</ele>
        <time>2013-10-26T07:36:33Z</time>
      </trkpt>
      <trkpt lat="45.56063" lon="4.80823">
        <ele>157</ele>
        <time>2013-10-26T07:36:34Z</time>
      </trkpt>
      <trkpt lat="45.56058" lon="4.8083">
        <ele>157</ele>
        <time>2013-10-26T07:36:36Z</time>
      </trkpt>
      <trkpt lat="45.56056" lon="4.80833">
        <ele>157</ele>
        <time>2013-10-26T07:36:37Z</time>
      </trkpt>
      <trkpt lat="45.5605" lon="4.80839">
        <ele>157</ele>
        <time>2013-10-26T07:36:39Z</time>
      </trkpt>
      <trkpt lat="45.56048" lon="4.8084">
        <ele>157</ele>
        <time>2013-10-26T07:36:40Z</time>
      </trkpt>
      <trkpt lat="45.56047" lon="4.80841">
        <ele>157</ele>
        <time>2013-10-26T07:36:49Z</time>
      </trkpt>
      <trkpt lat="45.56041" lon="4.80852">
        <ele>157</ele>
        <time>2013-10-26T07:36:50Z</time>
      </trkpt>
      <trkpt lat="45.56042" lon="4.80862">
        <ele>157</ele>
        <time>2013-10-26T07:36:52Z</time>
      </trkpt>
      <trkpt lat="45.56046" lon="4.80871">
        <ele>157</ele>
        <time>2013-10-26T07:36:53Z</time>
      </trkpt>
      <trkpt lat="45.56051" lon="4.80879">
        <ele>157</ele>
        <time>2013-10-26T07:36:55Z</time>
      </trkpt>
      <trkpt lat="45.56051" lon="4.80883">
        <ele>157</ele>
        <time>2013-10-26T07:36:56Z</time>
      </trkpt>
      <trkpt lat="45.56055" lon="4.8089">
        <ele>157</ele>
        <time>2013-10-26T07:36:58Z</time>
      </trkpt>
      <trkpt lat="45.56057" lon="4.80894">
        <ele>157</ele>
        <time>2013-10-26T07:36:59Z</time>
      </trkpt>
      <trkpt lat="45.56062" lon="4.80902">
        <ele>157</ele>
        <time>2013-10-26T07:37:01Z</time>
      </trkpt>
      <trkpt lat="45.56065" lon="4.80906">
        <ele>157</ele>
        <time>2013-10-26T07:37:02Z</time>
      </trkpt>
      <trkpt lat="45.5607" lon="4.80913">
        <ele>157</ele>
        <time>2013-10-26T07:37:05Z</time>
      </trkpt>
      <trkpt lat="45.56073" lon="4.80919">
        <ele>156</ele>
        <time>2013-10-26T07:37:06Z</time>
      </trkpt>
      <trkpt lat="45.56079" lon="4.80922">
        <ele>157</ele>
        <time>2013-10-26T07:37:09Z</time>
      </trkpt>
      <trkpt lat="45.56079" lon="4.80923">
        <ele>157</ele>
        <time>2013-10-26T07:37:10Z</time>
      </trkpt>
      <trkpt lat="45.5608" lon="4.80924">
        <ele>157</ele>
        <time>2013-10-26T07:37:11Z</time>
      </trkpt>
      <trkpt lat="45.56087" lon="4.80929">
        <ele>157</ele>
        <time>2013-10-26T07:37:26Z</time>
      </trkpt>
      <trkpt lat="45.56087" lon="4.80931">
        <ele>157</ele>
        <time>2013-10-26T07:37:27Z</time>
      </trkpt>
      <trkpt lat="45.5609" lon="4.80938">
        <ele>157</ele>
        <time>2013-10-26T07:37:30Z</time>
      </trkpt>
      <trkpt lat="45.5609" lon="4.80944">
        <ele>157</ele>
        <time>2013-10-26T07:37:31Z</time>
      </trkpt>
      <trkpt lat="45.56095" lon="4.80951">
        <ele>156</ele>
        <time>2013-10-26T07:37:32Z</time>
      </trkpt>
      <trkpt lat="45.56096" lon="4.80957">
        <ele>156</ele>
        <time>2013-10-26T07:37:33Z</time>
      </trkpt>
      <trkpt lat="45.56094" lon="4.80969">
        <ele>156</ele>
        <time>2013-10-26T07:37:34Z</time>
      </trkpt>
      <trkpt lat="45.56095" lon="4.80978">
        <ele>156</ele>
        <time>2013-10-26T07:37:35Z</time>
      </trkpt>
      <trkpt lat="45.56098" lon="4.80988">
        <ele>156</ele>
        <time>2013-10-26T07:37:36Z</time>
      </trkpt>
      <trkpt lat="45.56098" lon="4.80996">
        <ele>156</ele>
        <time>2013-10-26T07:37:37Z</time>
      </trkpt>
      <trkpt lat="45.56099" lon="4.81004">
        <ele>155</ele>
        <time>2013-10-26T07:37:38Z</time>
      </trkpt>
      <trkpt lat="45.56099" lon="4.81012">
        <ele>155</ele>
        <time>2013-10-26T07:37:39Z</time>
      </trkpt>
      <trkpt lat="45.56098" lon="4.81019">
        <ele>155</ele>
        <time>2013-10-26T07:37:40Z</time>
      </trkpt>
      <trkpt lat="45.56098" lon="4.81027">
        <ele>155</ele>
        <time>2013-10-26T07:37:41Z</time>
      </trkpt>
      <trkpt lat="45.56095" lon="4.81038">
        <ele>155</ele>
        <time>2013-10-26T07:37:43Z</time>
      </trkpt>
      <trkpt lat="45.56094" lon="4.81045">
        <ele>155</ele>
        <time>2013-10-26T07:37:44Z</time>
      </trkpt>
      <trkpt lat="45.56095" lon="4.81052">
        <ele>154</ele>
        <time>2013-10-26T07:37:45Z</time>
      </trkpt>
      <trkpt lat="45.56095" lon="4.81058">
        <ele>154</ele>
        <time>2013-10-26T07:37:46Z</time>
      </trkpt>
      <trkpt lat="45.56097" lon="4.81068">
        <ele>154</ele>
        <time>2013-10-26T07:37:48Z</time>
      </trkpt>
      <trkpt lat="45.56097" lon="4.81071">
        <ele>154</ele>
        <time>2013-10-26T07:37:49Z</time>
      </trkpt>
      <trkpt lat="45.56099" lon="4.8108">
        <ele>154</ele>
        <time>2013-10-26T07:37:52Z</time>
      </trkpt>
      <trkpt lat="45.561" lon="4.81085">
        <ele>153</ele>
        <time>2013-10-26T07:37:53Z</time>
      </trkpt>
      <trkpt lat="45.56104" lon="4.81094">
        <ele>153</ele>
        <time>2013-10-26T07:37:55Z</time>
      </trkpt>
      <trkpt lat="45.56106" lon="4.81097">
        <ele>153</ele>
        <time>2013-10-26T07:37:56Z</time>
      </trkpt>
      <trkpt lat="45.56107" lon="4.81105">
        <ele>154</ele>
        <time>2013-10-26T07:37:58Z</time>
      </trkpt>
      <trkpt lat="45.56109" lon="4.8111">
        <ele>154</ele>
        <time>2013-10-26T07:37:59Z</time>
      </trkpt>
      <trkpt lat="45.56111" lon="4.81123">
        <ele>154</ele>
        <time>2013-10-26T07:38:02Z</time>
      </trkpt>
      <trkpt lat="45.56112" lon="4.81126">
        <ele>154</ele>
        <time>2013-10-26T07:38:03Z</time>
      </trkpt>
      <trkpt lat="45.56114" lon="4.81134">
        <ele>154</ele>
        <time>2013-10-26T07:38:05Z</time>
      </trkpt>
      <trkpt lat="45.56115" lon="4.81138">
        <ele>154</ele>
        <time>2013-10-26T07:38:06Z</time>
      </trkpt>
      <trkpt lat="45.56116" lon="4.81149">
        <ele>154</ele>
        <time>2013-10-26T07:38:09Z</time>
      </trkpt>
      <trkpt lat="45.56116" lon="4.81151">
        <ele>154</ele>
        <time>2013-10-26T07:38:10Z</time>
      </trkpt>
      <trkpt lat="45.56122" lon="4.81153">
        <ele>154</ele>
        <time>2013-10-26T07:38:12Z</time>
      </trkpt>
      <trkpt lat="45.56125" lon="4.81153">
        <ele>154</ele>
        <time>2013-10-26T07:38:13Z</time>
      </trkpt>
      <trkpt lat="45.56132" lon="4.81159">
        <ele>154</ele>
        <time>2013-10-26T07:38:19Z</time>
      </trkpt>
      <trkpt lat="45.56134" lon="4.81159">
        <ele>154</ele>
        <time>2013-10-26T07:38:20Z</time>
      </trkpt>
      <trkpt lat="45.56141" lon="4.81156">
        <ele>154</ele>
        <time>2013-10-26T07:38:22Z</time>
      </trkpt>
      <trkpt lat="45.56142" lon="4.81152">
        <ele>154</ele>
        <time>2013-10-26T07:38:23Z</time>
      </trkpt>
      <trkpt lat="45.56143" lon="4.8114">
        <ele>154</ele>
        <time>2013-10-26T07:38:27Z</time>
      </trkpt>
      <trkpt lat="45.56142" lon="4.81136">
        <ele>154</ele>
        <time>2013-10-26T07:38:28Z</time>
      </trkpt>
      <trkpt lat="45.56141" lon="4.81127">
        <ele>154</ele>
        <time>2013-10-26T07:38:30Z</time>
      </trkpt>
      <trkpt lat="45.56139" lon="4.81121">
        <ele>154</ele>
        <time>2013-10-26T07:38:31Z</time>
      </trkpt>
      <trkpt lat="45.56121" lon="4.81021">
        <ele>155</ele>
        <time>2013-10-26T07:39:06Z</time>
      </trkpt>
      <trkpt lat="45.56123" lon="4.8103">
        <ele>155</ele>
        <time>2013-10-26T07:39:09Z</time>
      </trkpt>
      <trkpt lat="45.56129" lon="4.81028">
        <ele>155</ele>
        <time>2013-10-26T07:39:10Z</time>
      </trkpt>
      <trkpt lat="45.56136" lon="4.8103">
        <ele>155</ele>
        <time>2013-10-26T07:39:13Z</time>
      </trkpt>
      <trkpt lat="45.56137" lon="4.81031">
        <ele>155</ele>
        <time>2013-10-26T07:39:14Z</time>
      </trkpt>
      <trkpt lat="45.56143" lon="4.8104">
        <ele>156</ele>
        <time>2013-10-26T07:39:18Z</time>
      </trkpt>
      <trkpt lat="45.56144" lon="4.81044">
        <ele>156</ele>
        <time>2013-10-26T07:39:19Z</time>
      </trkpt>
      <trkpt lat="45.56151" lon="4.81046">
        <ele>156</ele>
        <time>2013-10-26T07:39:22Z</time>
      </trkpt>
      <trkpt lat="45.56153" lon="4.81046">
        <ele>156</ele>
        <time>2013-10-26T07:39:23Z</time>
      </trkpt>
      <trkpt lat="45.56159" lon="4.81045">
        <ele>156</ele>
        <time>2013-10-26T07:39:26Z</time>
      </trkpt>
      <trkpt lat="45.56162" lon="4.81044">
        <ele>156</ele>
        <time>2013-10-26T07:39:27Z</time>
      </trkpt>
      <trkpt lat="45.56169" lon="4.81041">
        <ele>157</ele>
        <time>2013-10-26T07:39:30Z</time>
      </trkpt>
      <trkpt lat="45.56171" lon="4.8104">
        <ele>157</ele>
        <time>2013-10-26T07:39:31Z</time>
      </trkpt>
      <trkpt lat="45.56177" lon="4.81033">
        <ele>157</ele>
        <time>2013-10-26T07:39:34Z</time>
      </trkpt>
      <trkpt lat="45.56178" lon="4.81029">
        <ele>157</ele>
        <time>2013-10-26T07:39:35Z</time>
      </trkpt>
      <trkpt lat="45.56169" lon="4.81027">
        <ele>157</ele>
        <time>2013-10-26T07:39:42Z</time>
      </trkpt>
      <trkpt lat="45.56168" lon="4.81028">
        <ele>157</ele>
        <time>2013-10-26T07:39:43Z</time>
      </trkpt>
      <trkpt lat="45.56174" lon="4.81031">
        <ele>157</ele>
        <time>2013-10-26T07:39:48Z</time>
      </trkpt>
      <trkpt lat="45.56177" lon="4.8103">
        <ele>157</ele>
        <time>2013-10-26T07:39:49Z</time>
      </trkpt>
      <trkpt lat="45.56184" lon="4.8103">
        <ele>157</ele>
        <time>2013-10-26T07:39:51Z</time>
      </trkpt>
      <trkpt lat="45.56188" lon="4.8103">
        <ele>157</ele>
        <time>2013-10-26T07:39:52Z</time>
      </trkpt>
      <trkpt lat="45.56196" lon="4.81029">
        <ele>157</ele>
        <time>2013-10-26T07:39:54Z</time>
      </trkpt>
      <trkpt lat="45.562" lon="4.81029">
        <ele>157</ele>
        <time>2013-10-26T07:39:55Z</time>
      </trkpt>
      <trkpt lat="45.56208" lon="4.81027">
        <ele>157</ele>
        <time>2013-10-26T07:39:57Z</time>
      </trkpt>
      <trkpt lat="45.56212" lon="4.81026">
        <ele>157</ele>
        <time>2013-10-26T07:39:58Z</time>
      </trkpt>
      <trkpt lat="45.56217" lon="4.81025">
        <ele>157</ele>
        <time>2013-10-26T07:39:59Z</time>
      </trkpt>
      <trkpt lat="45.56221" lon="4.81022">
        <ele>158</ele>
        <time>2013-10-26T07:40:00Z</time>
      </trkpt>
      <trkpt lat="45.56229" lon="4.81019">
        <ele>158</ele>
        <time>2013-10-26T07:40:02Z</time>
      </trkpt>
      <trkpt lat="45.56232" lon="4.81016">
        <ele>158</ele>
        <time>2013-10-26T07:40:03Z</time>
      </trkpt>
      <trkpt lat="45.5624" lon="4.81012">
        <ele>158</ele>
        <time>2013-10-26T07:40:06Z</time>
      </trkpt>
      <trkpt lat="45.56241" lon="4.81011">
        <ele>158</ele>
        <time>2013-10-26T07:40:07Z</time>
      </trkpt>
      <trkpt lat="45.56235" lon="4.81002">
        <ele>158</ele>
        <time>2013-10-26T07:40:15Z</time>
      </trkpt>
      <trkpt lat="45.56233" lon="4.81002">
        <ele>158</ele>
        <time>2013-10-26T07:40:16Z</time>
      </trkpt>
      <trkpt lat="45.56227" lon="4.81005">
        <ele>158</ele>
        <time>2013-10-26T07:40:18Z</time>
      </trkpt>
      <trkpt lat="45.56224" lon="4.81007">
        <ele>158</ele>
        <time>2013-10-26T07:40:19Z</time>
      </trkpt>
      <trkpt lat="45.56219" lon="4.81011">
        <ele>157</ele>
        <time>2013-10-26T07:40:20Z</time>
      </trkpt>
      <trkpt lat="45.56216" lon="4.81013">
        <ele>157</ele>
        <time>2013-10-26T07:40:21Z</time>
      </trkpt>
      <trkpt lat="45.56211" lon="4.81016">
        <ele>157</ele>
        <time>2013-10-26T07:40:22Z</time>
      </trkpt>
      <trkpt lat="45.56205" lon="4.81018">
        <ele>157</ele>
        <time>2013-10-26T07:40:23Z</time>
      </trkpt>
      <trkpt lat="45.56197" lon="4.81018">
        <ele>157</ele>
        <time>2013-10-26T07:40:25Z</time>
      </trkpt>
      <trkpt lat="45.56193" lon="4.81021">
        <ele>157</ele>
        <time>2013-10-26T07:40:26Z</time>
      </trkpt>
      <trkpt lat="45.56184" lon="4.81024">
        <ele>157</ele>
        <time>2013-10-26T07:40:28Z</time>
      </trkpt>
      <trkpt lat="45.56179" lon="4.81025">
        <ele>157</ele>
        <time>2013-10-26T07:40:29Z</time>
      </trkpt>
      <trkpt lat="45.56175" lon="4.81026">
        <ele>157</ele>
        <time>2013-10-26T07:40:30Z</time>
      </trkpt>
      <trkpt lat="45.5617" lon="4.81026">
        <ele>157</ele>
        <time>2013-10-26T07:40:31Z</time>
      </trkpt>
      <trkpt lat="45.56165" lon="4.81028">
        <ele>156</ele>
        <time>2013-10-26T07:40:32Z</time>
      </trkpt>
      <trkpt lat="45.5616" lon="4.81028">
        <ele>156</ele>
        <time>2013-10-26T07:40:33Z</time>
      </trkpt>
      <trkpt lat="45.56153" lon="4.81032">
        <ele>156</ele>
        <time>2013-10-26T07:40:35Z</time>
      </trkpt>
      <trkpt lat="45.56146" lon="4.81038">
        <ele>156</ele>
        <time>2013-10-26T07:40:36Z</time>
      </trkpt>
      <trkpt lat="45.56141" lon="4.81046">
        <ele>156</ele>
        <time>2013-10-26T07:40:38Z</time>
      </trkpt>
      <trkpt lat="45.56139" lon="4.81054">
        <ele>156</ele>
        <time>2013-10-26T07:40:39Z</time>
      </trkpt>
      <trkpt lat="45.56137" lon="4.8106">
        <ele>156</ele>
        <time>2013-10-26T07:40:40Z</time>
      </trkpt>
      <trkpt lat="45.56136" lon="4.81068">
        <ele>156</ele>
        <time>2013-10-26T07:40:41Z</time>
      </trkpt>
      <trkpt lat="45.56135" lon="4.81075">
        <ele>156</ele>
        <time>2013-10-26T07:40:42Z</time>
      </trkpt>
      <trkpt lat="45.56135" lon="4.81086">
        <ele>155</ele>
        <time>2013-10-26T07:40:43Z</time>
      </trkpt>
      <trkpt lat="45.56135" lon="4.81095">
        <ele>155</ele>
        <time>2013-10-26T07:40:44Z</time>
      </trkpt>
      <trkpt lat="45.56136" lon="4.81102">
        <ele>155</ele>
        <time>2013-10-26T07:40:45Z</time>
      </trkpt>
      <trkpt lat="45.56138" lon="4.81111">
        <ele>155</ele>
        <time>2013-10-26T07:40:46Z</time>
      </trkpt>
      <trkpt lat="45.5614" lon="4.81119">
        <ele>154</ele>
        <time>2013-10-26T07:40:47Z</time>
      </trkpt>
      <trkpt lat="45.56142" lon="4.81128">
        <ele>154</ele>
        <time>2013-10-26T07:40:48Z</time>
      </trkpt>
      <trkpt lat="45.56146" lon="4.81135">
        <ele>154</ele>
        <time>2013-10-26T07:40:49Z</time>
      </trkpt>
      <trkpt lat="45.56148" lon="4.81143">
        <ele>154</ele>
        <time>2013-10-26T07:40:50Z</time>
      </trkpt>
      <trkpt lat="45.56153" lon="4.81149">
        <ele>154</ele>
        <time>2013-10-26T07:40:51Z</time>
      </trkpt>
      <trkpt lat="45.56158" lon="4.81155">
        <ele>154</ele>
        <time>2013-10-26T07:40:52Z</time>
      </trkpt>
      <trkpt lat="45.56161" lon="4.8116">
        <ele>154</ele>
        <time>2013-10-26T07:40:53Z</time>
      </trkpt>
      <trkpt lat="45.56166" lon="4.81164">
        <ele>154</ele>
        <time>2013-10-26T07:40:54Z</time>
      </trkpt>
      <trkpt lat="45.56171" lon="4.81168">
        <ele>155</ele>
        <time>2013-10-26T07:40:55Z</time>
      </trkpt>
      <trkpt lat="45.56179" lon="4.81169">
        <ele>155</ele>
        <time>2013-10-26T07:40:56Z</time>
      </trkpt>
      <trkpt lat="45.56184" lon="4.81171">
        <ele>156</ele>
        <time>2013-10-26T07:40:57Z</time>
      </trkpt>
      <trkpt lat="45.5619" lon="4.81172">
        <ele>156</ele>
        <time>2013-10-26T07:40:58Z</time>
      </trkpt>
      <trkpt lat="45.56195" lon="4.81173">
        <ele>156</ele>
        <time>2013-10-26T07:40:59Z</time>
      </trkpt>
      <trkpt lat="45.562" lon="4.81174">
        <ele>156</ele>
        <time>2013-10-26T07:41:00Z</time>
      </trkpt>
      <trkpt lat="45.56205" lon="4.81174">
        <ele>157</ele>
        <time>2013-10-26T07:41:01Z</time>
      </trkpt>
      <trkpt lat="45.56211" lon="4.81178">
        <ele>157</ele>
        <time>2013-10-26T07:41:03Z</time>
      </trkpt>
      <trkpt lat="45.56215" lon="4.81179">
        <ele>157</ele>
        <time>2013-10-26T07:41:04Z</time>
      </trkpt>
      <trkpt lat="45.56224" lon="4.81179">
        <ele>157</ele>
        <time>2013-10-26T07:41:09Z</time>
      </trkpt>
      <trkpt lat="45.56224" lon="4.81179">
        <ele>157</ele>
        <time>2013-10-26T07:41:10Z</time>
      </trkpt>
      <trkpt lat="45.56223" lon="4.81179">
        <ele>157</ele>
        <time>2013-10-26T07:41:11Z</time>
      </trkpt>
      <trkpt lat="45.56214" lon="4.81181">
        <ele>157</ele>
        <time>2013-10-26T07:41:17Z</time>
      </trkpt>
      <trkpt lat="45.56211" lon="4.81183">
        <ele>157</ele>
        <time>2013-10-26T07:41:18Z</time>
      </trkpt>
      <trkpt lat="45.56203" lon="4.81188">
        <ele>157</ele>
        <time>2013-10-26T07:41:20Z</time>
      </trkpt>
      <trkpt lat="45.56199" lon="4.81191">
        <ele>157</ele>
        <time>2013-10-26T07:41:21Z</time>
      </trkpt>
      <trkpt lat="45.56194" lon="4.81193">
        <ele>157</ele>
        <time>2013-10-26T07:41:22Z</time>
      </trkpt>
      <trkpt lat="45.5619" lon="4.81194">
        <ele>156</ele>
        <time>2013-10-26T07:41:23Z</time>
      </trkpt>
      <trkpt lat="45.56185" lon="4.81188">
        <ele>156</ele>
        <time>2013-10-26T07:41:24Z</time>
      </trkpt>
      <trkpt lat="45.56181" lon="4.81186">
        <ele>156</ele>
        <time>2013-10-26T07:41:25Z</time>
      </trkpt>
      <trkpt lat="45.56173" lon="4.81182">
        <ele>156</ele>
        <time>2013-10-26T07:41:27Z</time>
      </trkpt>
      <trkpt lat="45.56168" lon="4.81181">
        <ele>155</ele>
        <time>2013-10-26T07:41:28Z</time>
      </trkpt>
      <trkpt lat="45.56163" lon="4.81179">
        <ele>154</ele>
        <time>2013-10-26T07:41:29Z</time>
      </trkpt>
      <trkpt lat="45.56159" lon="4.81179">
        <ele>154</ele>
        <time>2013-10-26T07:41:30Z</time>
      </trkpt>
      <trkpt lat="45.56155" lon="4.81181">
        <ele>154</ele>
        <time>2013-10-26T07:41:31Z</time>
      </trkpt>
      <trkpt lat="45.5615" lon="4.81186">
        <ele>154</ele>
        <time>2013-10-26T07:41:32Z</time>
      </trkpt>
      <trkpt lat="45.56145" lon="4.81195">
        <ele>155</ele>
        <time>2013-10-26T07:41:34Z</time>
      </trkpt>
      <trkpt lat="45.56143" lon="4.81199">
        <ele>155</ele>
        <time>2013-10-26T07:41:35Z</time>
      </trkpt>
      <trkpt lat="45.56143" lon="4.81202">
        <ele>155</ele>
        <time>2013-10-26T07:41:37Z</time>
      </trkpt>
      <trkpt lat="45.56008" lon="4.81297">
        <ele>156</ele>
        <time>2013-10-26T07:42:11Z</time>
      </trkpt>
      <trkpt lat="45.56" lon="4.81303">
        <ele>156</ele>
        <time>2013-10-26T07:42:13Z</time>
      </trkpt>
      <trkpt lat="45.55996" lon="4.81304">
        <ele>156</ele>
        <time>2013-10-26T07:42:14Z</time>
      </trkpt>
      <trkpt lat="45.5599" lon="4.81308">
        <ele>156</ele>
        <time>2013-10-26T07:42:15Z</time>
      </trkpt>
      <trkpt lat="45.55984" lon="4.81311">
        <ele>156</ele>
        <time>2013-10-26T07:42:16Z</time>
      </trkpt>
      <trkpt lat="45.55979" lon="4.81317">
        <ele>156</ele>
        <time>2013-10-26T07:42:17Z</time>
      </trkpt>
      <trkpt lat="45.55972" lon="4.81322">
        <ele>156</ele>
        <time>2013-10-26T07:42:18Z</time>
      </trkpt>
      <trkpt lat="45.55965" lon="4.81328">
        <ele>156</ele>
        <time>2013-10-26T07:42:20Z</time>
      </trkpt>
      <trkpt lat="45.55959" lon="4.81331">
        <ele>156</ele>
        <time>2013-10-26T07:42:21Z</time>
      </trkpt>
      <trkpt lat="45.55953" lon="4.81337">
        <ele>156</ele>
        <time>2013-10-26T07:42:22Z</time>
      </trkpt>
      <trkpt lat="45.55947" lon="4.8134">
        <ele>155</ele>
        <time>2013-10-26T07:42:23Z</time>
      </trkpt>
      <trkpt lat="45.55943" lon="4.81344">
        <ele>155</ele>
        <time>2013-10-26T07:42:24Z</time>
      </trkpt>
      <trkpt lat="45.55936" lon="4.81347">
        <ele>155</ele>
        <time>2013-10-26T07:42:25Z</time>
      </trkpt>
      <trkpt lat="45.55932" lon="4.8135">
        <ele>155</ele>
        <time>2013-10-26T07:42:26Z</time>
      </trkpt>
      <trkpt lat="45.55926" lon="4.81354">
        <ele>155</ele>
        <time>2013-10-26T07:42:27Z</time>
      </trkpt>
      <trkpt lat="45.5592" lon="4.81358">
        <ele>155</ele>
        <time>2013-10-26T07:42:28Z</time>
      </trkpt>
      <trkpt lat="45.55915" lon="4.81362">
        <ele>156</ele>
        <time>2013-10-26T07:42:29Z</time>
      </trkpt>
      <trkpt lat="45.5591" lon="4.81364">
        <ele>156</ele>
        <time>2013-10-26T07:42:30Z</time>
      </trkpt>
      <trkpt lat="45.55904" lon="4.81368">
        <ele>156</ele>
        <time>2013-10-26T07:42:31Z</time>
      </trkpt>
      <trkpt lat="45.559" lon="4.81371">
        <ele>156</ele>
        <time>2013-10-26T07:42:32Z</time>
      </trkpt>
      <trkpt lat="45.55893" lon="4.81375">
        <ele>156</ele>
        <time>2013-10-26T07:42:33Z</time>
      </trkpt>
      <trkpt lat="45.55888" lon="4.81378">
        <ele>157</ele>
        <time>2013-10-26T07:42:35Z</time>
      </trkpt>
      <trkpt lat="45.55881" lon="4.81382">
        <ele>157</ele>
        <time>2013-10-26T07:42:36Z</time>
      </trkpt>
      <trkpt lat="45.55875" lon="4.81386">
        <ele>157</ele>
        <time>2013-10-26T07:42:37Z</time>
      </trkpt>
      <trkpt lat="45.5587" lon="4.81389">
        <ele>157</ele>
        <time>2013-10-26T07:42:38Z</time>
      </trkpt>
      <trkpt lat="45.55865" lon="4.81391">
        <ele>157</ele>
        <time>2013-10-26T07:42:39Z</time>
      </trkpt>
      <trkpt lat="45.55861" lon="4.81395">
        <ele>157</ele>
        <time>2013-10-26T07:42:40Z</time>
      </trkpt>
      <trkpt lat="45.55855" lon="4.81398">
        <ele>157</ele>
        <time>2013-10-26T07:42:41Z</time>
      </trkpt>
      <trkpt lat="45.55851" lon="4.814">
        <ele>157</ele>
        <time>2013-10-26T07:42:42Z</time>
      </trkpt>
      <trkpt lat="45.55845" lon="4.81404">
        <ele>157</ele>
        <time>2013-10-26T07:42:43Z</time>
      </trkpt>
      <trkpt lat="45.55839" lon="4.81409">
        <ele>158</ele>
        <time>2013-10-26T07:42:44Z</time>
      </trkpt>
      <trkpt lat="45.55832" lon="4.81412">
        <ele>158</ele>
        <time>2013-10-26T07:42:45Z</time>
      </trkpt>
      <trkpt lat="45.55827" lon="4.81416">
        <ele>158</ele>
        <time>2013-10-26T07:42:46Z</time>
      </trkpt>
      <trkpt lat="45.55819" lon="4.81421">
        <ele>158</ele>
        <time>2013-10-26T07:42:47Z</time>
      </trkpt>
      <trkpt lat="45.55814" lon="4.81425">
        <ele>158</ele>
        <time>2013-10-26T07:42:48Z</time>
      </trkpt>
      <trkpt lat="45.55808" lon="4.81429">
        <ele>157</ele>
        <time>2013-10-26T07:42:49Z</time>
      </trkpt>
      <trkpt lat="45.55802" lon="4.81433">
        <ele>157</ele>
        <time>2013-10-26T07:42:50Z</time>
      </trkpt>
      <trkpt lat="45.55797" lon="4.81436">
        <ele>157</ele>
        <time>2013-10-26T07:42:50Z</time>
      </trkpt>
      <trkpt lat="45.5579" lon="4.8144">
        <ele>157</ele>
        <time>2013-10-26T07:42:52Z</time>
      </trkpt>
      <trkpt lat="45.55786" lon="4.81443">
        <ele>157</ele>
        <time>2013-10-26T07:42:53Z</time>
      </trkpt>
      <trkpt lat="45.5578" lon="4.81447">
        <ele>157</ele>
        <time>2013-10-26T07:42:54Z</time>
      </trkpt>
      <trkpt lat="45.55774" lon="4.8145">
        <ele>157</ele>
        <time>2013-10-26T07:42:55Z</time>
      </trkpt>
      <trkpt lat="45.55768" lon="4.81454">
        <ele>157</ele>
        <time>2013-10-26T07:42:57Z</time>
      </trkpt>
      <trkpt lat="45.55764" lon="4.81457">
        <ele>157</ele>
        <time>2013-10-26T07:42:57Z</time>
      </trkpt>
      <trkpt lat="45.55758" lon="4.81461">
        <ele>157</ele>
        <time>2013-10-26T07:42:59Z</time>
      </trkpt>
      <trkpt lat="45.55753" lon="4.81465">
        <ele>157</ele>
        <time>2013-10-26T07:43:00Z</time>
      </trkpt>
      <trkpt lat="45.55748" lon="4.81468">
        <ele>156</ele>
        <time>2013-10-26T07:43:01Z</time>
      </trkpt>
      <trkpt lat="45.55743" lon="4.81471">
        <ele>155</ele>
        <time>2013-10-26T07:43:02Z</time>
      </trkpt>
      <trkpt lat="45.55737" lon="4.81475">
        <ele>155</ele>
        <time>2013-10-26T07:43:03Z</time>
      </trkpt>
      <trkpt lat="45.55731" lon="4.81479">
        <ele>155</ele>
        <time>2013-10-26T07:43:04Z</time>
      </trkpt>
      <trkpt lat="45.55726" lon="4.81482">
        <ele>155</ele>
        <time>2013-10-26T07:43:05Z</time>
      </trkpt>
      <trkpt lat="45.5572" lon="4.81485">
        <ele>155</ele>
        <time>2013-10-26T07:43:06Z</time>
      </trkpt>
      <trkpt lat="45.55715" lon="4.81489">
        <ele>155</ele>
        <time>2013-10-26T07:43:07Z</time>
      </trkpt>
      <trkpt lat="45.5571" lon="4.81492">
        <ele>155</ele>
        <time>2013-10-26T07:43:08Z</time>
      </trkpt>
      <trkpt lat="45.55704" lon="4.81496">
        <ele>154</ele>
        <time>2013-10-26T07:43:09Z</time>
      </trkpt>
      <trkpt lat="45.557" lon="4.815">
        <ele>154</ele>
        <time>2013-10-26T07:43:10Z</time>
      </trkpt>
      <trkpt lat="45.55694" lon="4.81503">
        <ele>154</ele>
        <time>2013-10-26T07:43:11Z</time>
      </trkpt>
      <trkpt lat="45.55689" lon="4.81507">
        <ele>153</ele>
        <time>2013-10-26T07:43:12Z</time>
      </trkpt>
      <trkpt lat="45.55684" lon="4.81511">
        <ele>153</ele>
        <time>2013-10-26T07:43:13Z</time>
      </trkpt>
      <trkpt lat="45.5568" lon="4.81514">
        <ele>153</ele>
        <time>2013-10-26T07:43:14Z</time>
      </trkpt>
      <trkpt lat="45.55675" lon="4.81518">
        <ele>153</ele>
        <time>2013-10-26T07:43:15Z</time>
      </trkpt>
      <trkpt lat="45.55671" lon="4.81522">
        <ele>153</ele>
        <time>2013-10-26T07:43:16Z</time>
      </trkpt>
      <trkpt lat="45.55667" lon="4.81524">
        <ele>153</ele>
        <time>2013-10-26T07:43:17Z</time>
      </trkpt>
      <trkpt lat="45.55662" lon="4.81528">
        <ele>153</ele>
        <time>2013-10-26T07:43:18Z</time>
      </trkpt>
      <trkpt lat="45.55656" lon="4.81531">
        <ele>153</ele>
        <time>2013-10-26T07:43:18Z</time>
      </trkpt>
      <trkpt lat="45.55651" lon="4.81535">
        <ele>154</ele>
        <time>2013-10-26T07:43:20Z</time>
      </trkpt>
      <trkpt lat="45.55645" lon="4.81538">
        <ele>154</ele>
        <time>2013-10-26T07:43:21Z</time>
      </trkpt>
      <trkpt lat="45.5564" lon="4.81543">
        <ele>154</ele>
        <time>2013-10-26T07:43:22Z</time>
      </trkpt>
      <trkpt lat="45.55635" lon="4.81546">
        <ele>154</ele>
        <time>2013-10-26T07:43:22Z</time>
      </trkpt>
      <trkpt lat="45.5563" lon="4.81548">
        <ele>154</ele>
        <time>2013-10-26T07:43:24Z</time>
      </trkpt>
      <trkpt lat="45.55626" lon="4.81551">
        <ele>154</ele>
        <time>2013-10-26T07:43:25Z</time>
      </trkpt>
      <trkpt lat="45.55621" lon="4.81555">
        <ele>154</ele>
        <time>2013-10-26T07:43:26Z</time>
      </trkpt>
      <trkpt lat="45.55616" lon="4.81558">
        <ele>154</ele>
        <time>2013-10-26T07:43:27Z</time>
      </trkpt>
      <trkpt lat="45.55611" lon="4.81562">
        <ele>154</ele>
        <time>2013-10-26T07:43:28Z</time>
      </trkpt>
      <trkpt lat="45.55606" lon="4.81565">
        <ele>154</ele>
        <time>2013-10-26T07:43:29Z</time>
      </trkpt>
      <trkpt lat="45.55602" lon="4.81569">
        <ele>154</ele>
        <time>2013-10-26T07:43:30Z</time>
      </trkpt>
      <trkpt lat="45.55597" lon="4.81572">
        <ele>155</ele>
        <time>2013-10-26T07:43:31Z</time>
      </trkpt>
      <trkpt lat="45.55592" lon="4.81578">
        <ele>155</ele>
        <time>2013-10-26T07:43:31Z</time>
      </trkpt>
      <trkpt lat="45.55468" lon="4.81686">
        <ele>158</ele>
        <time>2013-10-26T07:44:04Z</time>
      </trkpt>
      <trkpt lat="45.55461" lon="4.81692">
        <ele>159</ele>
        <time>2013-10-26T07:44:05Z</time>
      </trkpt>
      <trkpt lat="45.55459" lon="4.81688">
        <ele>159</ele>
        <time>2013-10-26T07:44:06Z</time>
      </trkpt>
      <trkpt lat="45.55452" lon="4.81692">
        <ele>159</ele>
        <time>2013-10-26T07:44:23Z</time>
      </trkpt>
      <trkpt lat="45.5545" lon="4.81694">
        <ele>159</ele>
        <time>2013-10-26T07:44:24Z</time>
      </trkpt>
      <trkpt lat="45.55447" lon="4.81705">
        <ele>159</ele>
        <time>2013-10-26T07:44:27Z</time>
      </trkpt>
      <trkpt lat="45.55446" lon="4.81708">
        <ele>159</ele>
        <time>2013-10-26T07:44:28Z</time>
      </trkpt>
      <trkpt lat="45.55445" lon="4.81719">
        <ele>159</ele>
        <time>2013-10-26T07:44:31Z</time>
      </trkpt>
      <trkpt lat="45.55444" lon="4.81723">
        <ele>159</ele>
        <time>2013-10-26T07:44:32Z</time>
      </trkpt>
      <trkpt lat="45.55439" lon="4.81733">
        <ele>158</ele>
        <time>2013-10-26T07:44:36Z</time>
      </trkpt>
      <trkpt lat="45.55439" lon="4.81734">
        <ele>158</ele>
        <time>2013-10-26T07:44:37Z</time>
      </trkpt>
      <trkpt lat="45.55434" lon="4.81743">
        <ele>158</ele>
        <time>2013-10-26T07:44:46Z</time>
      </trkpt>
      <trkpt lat="45.55434" lon="4.81743">
        <ele>158</ele>
        <time>2013-10-26T07:44:47Z</time>
      </trkpt>
      <trkpt lat="45.55434" lon="4.81743">
        <ele>158</ele>
        <time>2013-10-26T07:44:48Z</time>
      </trkpt>
      <trkpt lat="45.55434" lon="4.81743">
        <ele>158</ele>
        <time>2013-10-26T07:44:49Z</time>
      </trkpt>
      <trkpt lat="45.55434" lon="4.81743">
        <ele>158</ele>
        <time>2013-10-26T07:44:50Z</time>
      </trkpt>
      <trkpt lat="45.55434" lon="4.81743">
        <ele>158</ele>
        <time>2013-10-26T07:44:51Z</time>
      </trkpt>
      <trkpt lat="45.55434" lon="4.81742">
        <ele>158</ele>
        <time>2013-10-26T07:45:35Z</time>
      </trkpt>
      <trkpt lat="45.55433" lon="4.8174">
        <ele>158</ele>
        <time>2013-10-26T07:45:36Z</time>
      </trkpt>
      <trkpt lat="45.55432" lon="4.8174">
        <ele>158</ele>
        <time>2013-10-26T07:45:37Z</time>
      </trkpt>
      <trkpt lat="45.55432" lon="4.8174">
        <ele>158</ele>
        <time>2013-10-26T07:45:38Z</time>
      </trkpt>
      <trkpt lat="45.55433" lon="4.8174">
        <ele>158</ele>
        <time>2013-10-26T07:45:39Z</time>
      </trkpt>
      <trkpt lat="45.55433" lon="4.81741">
        <ele>158</ele>
        <time>2013-10-26T07:45:40Z</time>
      </trkpt>
      <trkpt lat="45.55433" lon="4.81741">
        <ele>158</ele>
        <time>2013-10-26T07:45:41Z</time>
      </trkpt>
      <trkpt lat="45.55434" lon="4.81742">
        <ele>158</ele>
        <time>2013-10-26T07:45:42Z</time>
      </trkpt>
      <trkpt lat="45.55434" lon="4.81742">
        <ele>158</ele>
        <time>2013-10-26T07:45:43Z</time>
      </trkpt>
      <trkpt lat="45.55434" lon="4.81742">
        <ele>158</ele>
        <time>2013-10-26T07:45:44Z</time>
      </trkpt>
      <trkpt lat="45.55434" lon="4.81742">
        <ele>158</ele>
        <time>2013-10-26T07:45:45Z</time>
      </trkpt>
      <trkpt lat="45.55434" lon="4.81742">
        <ele>158</ele>
        <time>2013-10-26T07:45:46Z</time>
      </trkpt>
      <trkpt lat="45.55434" lon="4.81742">
        <ele>158</ele>
        <time>2013-10-26T07:45:47Z</time>
      </trkpt>
      <trkpt lat="45.55434" lon="4.81742">
        <ele>158</ele>
        <time>2013-10-26T07:45:48Z</time>
      </trkpt>
      <trkpt lat="45.55433" lon="4.81743">
        <ele>158</ele>
        <time>2013-10-26T07:45:52Z</time>
      </trkpt>
      <trkpt lat="45.55433" lon="4.81743">
        <ele>158</ele>
        <time>2013-10-26T07:45:53Z</time>
      </trkpt>
      <trkpt lat="45.55434" lon="4.81743">
        <ele>158</ele>
        <time>2013-10-26T07:46:09Z</time>
      </trkpt>
      <trkpt lat="45.55434" lon="4.81743">
        <ele>158</ele>
        <time>2013-10-26T07:46:10Z</time>
      </trkpt>
      <trkpt lat="45.55429" lon="4.81734">
        <ele>158</ele>
        <time>2013-10-26T07:46:18Z</time>
      </trkpt>
      <trkpt lat="45.55429" lon="4.81734">
        <ele>159</ele>
        <time>2013-10-26T07:46:19Z</time>
      </trkpt>
      <trkpt lat="45.55427" lon="4.81733">
        <ele>159</ele>
        <time>2013-10-26T07:46:21Z</time>
      </trkpt>
      <trkpt lat="45.55427" lon="4.81732">
        <ele>159</ele>
        <time>2013-10-26T07:46:22Z</time>
      </trkpt>
      <trkpt lat="45.55427" lon="4.81732">
        <ele>159</ele>
        <time>2013-10-26T07:46:23Z</time>
      </trkpt>
      <trkpt lat="45.55428" lon="4.81732">
        <ele>159</ele>
        <time>2013-10-26T07:46:24Z</time>
      </trkpt>
      <trkpt lat="45.55426" lon="4.8172">
        <ele>159</ele>
        <time>2013-10-26T07:46:43Z</time>
      </trkpt>
      <trkpt lat="45.55425" lon="4.81719">
        <ele>159</ele>
        <time>2013-10-26T07:46:44Z</time>
      </trkpt>
      <trkpt lat="45.55425" lon="4.81718">
        <ele>159</ele>
        <time>2013-10-26T07:46:46Z</time>
      </trkpt>
      <trkpt lat="45.55425" lon="4.81718">
        <ele>159</ele>
        <time>2013-10-26T07:46:47Z</time>
      </trkpt>
      <trkpt lat="45.55425" lon="4.81718">
        <ele>159</ele>
        <time>2013-10-26T07:46:48Z</time>
      </trkpt>
      <trkpt lat="45.55426" lon="4.81717">
        <ele>159</ele>
        <time>2013-10-26T07:46:50Z</time>
      </trkpt>
      <trkpt lat="45.55426" lon="4.81717">
        <ele>159</ele>
        <time>2013-10-26T07:46:51Z</time>
      </trkpt>
      <trkpt lat="45.55426" lon="4.81717">
        <ele>159</ele>
        <time>2013-10-26T07:46:52Z</time>
      </trkpt>
      <trkpt lat="45.55426" lon="4.81718">
        <ele>159</ele>
        <time>2013-10-26T07:46:53Z</time>
      </trkpt>
      <trkpt lat="45.55426" lon="4.81718">
        <ele>159</ele>
        <time>2013-10-26T07:46:54Z</time>
      </trkpt>
      <trkpt lat="45.55426" lon="4.81718">
        <ele>159</ele>
        <time>2013-10-26T07:46:55Z</time>
      </trkpt>
      <trkpt lat="45.55426" lon="4.81718">
        <ele>159</ele>
        <time>2013-10-26T07:46:56Z</time>
      </trkpt>
      <trkpt lat="45.55426" lon="4.81718">
        <ele>159</ele>
        <time>2013-10-26T07:46:57Z</time>
      </trkpt>
      <trkpt lat="45.55426" lon="4.81718">
        <ele>159</ele>
        <time>2013-10-26T07:46:58Z</time>
      </trkpt>
      <trkpt lat="45.55425" lon="4.81718">
        <ele>159</ele>
        <time>2013-10-26T07:46:59Z</time>
      </trkpt>
      <trkpt lat="45.55425" lon="4.81717">
        <ele>159</ele>
        <time>2013-10-26T07:47:00Z</time>
      </trkpt>
      <trkpt lat="45.55424" lon="4.81716">
        <ele>159</ele>
        <time>2013-10-26T07:47:02Z</time>
      </trkpt>
      <trkpt lat="45.55424" lon="4.81716">
        <ele>159</ele>
        <time>2013-10-26T07:47:03Z</time>
      </trkpt>
      <trkpt lat="45.55424" lon="4.81716">
        <ele>159</ele>
        <time>2013-10-26T07:47:04Z</time>
      </trkpt>
      <trkpt lat="45.55424" lon="4.81716">
        <ele>159</ele>
        <time>2013-10-26T07:47:05Z</time>
      </trkpt>
      <trkpt lat="45.55424" lon="4.81715">
        <ele>159</ele>
        <time>2013-10-26T07:47:06Z</time>
      </trkpt>
      <trkpt lat="45.55424" lon="4.81716">
        <ele>159</ele>
        <time>2013-10-26T07:47:07Z</time>
      </trkpt>
      <trkpt lat="45.55424" lon="4.81716">
        <ele>159</ele>
        <time>2013-10-26T07:47:08Z</time>
      </trkpt>
      <trkpt lat="45.55423" lon="4.81716">
        <ele>159</ele>
        <time>2013-10-26T07:47:09Z</time>
      </trkpt>
      <trkpt lat="45.55424" lon="4.81716">
        <ele>159</ele>
        <time>2013-10-26T07:47:10Z</time>
      </trkpt>
      <trkpt lat="45.55424" lon="4.81716">
        <ele>159</ele>
        <time>2013-10-26T07:47:11Z</time>
      </trkpt>
      <trkpt lat="45.55423" lon="4.81716">
        <ele>159</ele>
        <time>2013-10-26T07:47:12Z</time>
      </trkpt>
      <trkpt lat="45.55423" lon="4.81715">
        <ele>159</ele>
        <time>2013-10-26T07:47:13Z</time>
      </trkpt>
      <trkpt lat="45.55423" lon="4.81715">
        <ele>159</ele>
        <time>2013-10-26T07:47:14Z</time>
      </trkpt>
      <trkpt lat="45.55423" lon="4.81715">
        <ele>159</ele>
        <time>2013-10-26T07:47:15Z</time>
      </trkpt>
      <trkpt lat="45.55422" lon="4.81714">
        <ele>159</ele>
        <time>2013-10-26T07:47:19Z</time>
      </trkpt>
      <trkpt lat="45.55422" lon="4.81714">
        <ele>159</ele>
        <time>2013-10-26T07:47:20Z</time>
      </trkpt>
      <trkpt lat="45.55422" lon="4.81714">
        <ele>159</ele>
        <time>2013-10-26T07:47:29Z</time>
      </trkpt>
      <trkpt lat="45.55422" lon="4.81714">
        <ele>159</ele>
        <time>2013-10-26T07:47:30Z</time>
      </trkpt>
      <trkpt lat="45.55422" lon="4.81714">
        <ele>159</ele>
        <time>2013-10-26T07:47:31Z</time>
      </trkpt>
      <trkpt lat="45.55422" lon="4.81713">
        <ele>159</ele>
        <time>2013-10-26T07:47:32Z</time>
      </trkpt>
      <trkpt lat="45.55422" lon="4.81713">
        <ele>159</ele>
        <time>2013-10-26T07:47:33Z</time>
      </trkpt>
      <trkpt lat="45.55422" lon="4.81713">
        <ele>159</ele>
        <time>2013-10-26T07:47:37Z</time>
      </trkpt>
      <trkpt lat="45.55422" lon="4.81713">
        <ele>159</ele>
        <time>2013-10-26T07:47:38Z</time>
      </trkpt>
      <trkpt lat="45.55421" lon="4.81713">
        <ele>159</ele>
        <time>2013-10-26T07:47:39Z</time>
      </trkpt>
      <trkpt lat="45.55422" lon="4.81713">
        <ele>159</ele>
        <time>2013-10-26T07:47:40Z</time>
      </trkpt>
      <trkpt lat="45.55421" lon="4.81711">
        <ele>159</ele>
        <time>2013-10-26T07:47:41Z</time>
      </trkpt>
      <trkpt lat="45.55412" lon="4.81712">
        <ele>170</ele>
        <time>2013-10-26T07:47:47Z</time>
      </trkpt>
      <trkpt lat="45.5541" lon="4.81714">
        <ele>170</ele>
        <time>2013-10-26T07:47:48Z</time>
      </trkpt>
      <trkpt lat="45.55405" lon="4.81724">
        <ele>169</ele>
        <time>2013-10-26T07:47:56Z</time>
      </trkpt>
      <trkpt lat="45.55404" lon="4.81725">
        <ele>169</ele>
        <time>2013-10-26T07:47:57Z</time>
      </trkpt>
      <trkpt lat="45.55398" lon="4.81734">
        <ele>169</ele>
        <time>2013-10-26T07:48:08Z</time>
      </trkpt>
      <trkpt lat="45.55396" lon="4.81734">
        <ele>169</ele>
        <time>2013-10-26T07:48:09Z</time>
      </trkpt>
      <trkpt lat="45.55394" lon="4.81734">
        <ele>170</ele>
        <time>2013-10-26T07:48:11Z</time>
      </trkpt>
      <trkpt lat="45.55394" lon="4.81734">
        <ele>170</ele>
        <time>2013-10-26T07:48:12Z</time>
      </trkpt>
      <trkpt lat="45.55393" lon="4.81734">
        <ele>170</ele>
        <time>2013-10-26T07:48:13Z</time>
      </trkpt>
      <trkpt lat="45.55387" lon="4.8174">
        <ele>171</ele>
        <time>2013-10-26T07:48:20Z</time>
      </trkpt>
      <trkpt lat="45.55385" lon="4.81742">
        <ele>171</ele>
        <time>2013-10-26T07:48:21Z</time>
      </trkpt>
      <trkpt lat="45.55377" lon="4.81748">
        <ele>172</ele>
        <time>2013-10-26T07:48:26Z</time>
      </trkpt>
      <trkpt lat="45.55375" lon="4.81749">
        <ele>173</ele>
        <time>2013-10-26T07:48:27Z</time>
      </trkpt>
      <trkpt lat="45.55368" lon="4.81754">
        <ele>166</ele>
        <time>2013-10-26T07:48:32Z</time>
      </trkpt>
      <trkpt lat="45.55365" lon="4.81755">
        <ele>167</ele>
        <time>2013-10-26T07:48:33Z</time>
      </trkpt>
      <trkpt lat="45.55362" lon="4.81756">
        <ele>167</ele>
        <time>2013-10-26T07:48:36Z</time>
      </trkpt>
      <trkpt lat="45.55362" lon="4.81756">
        <ele>167</ele>
        <time>2013-10-26T07:48:37Z</time>
      </trkpt>
      <trkpt lat="45.55362" lon="4.81756">
        <ele>168</ele>
        <time>2013-10-26T07:48:38Z</time>
      </trkpt>
      <trkpt lat="45.55359" lon="4.81758">
        <ele>168</ele>
        <time>2013-10-26T07:48:45Z</time>
      </trkpt>
      <trkpt lat="45.55359" lon="4.81758">
        <ele>168</ele>
        <time>2013-10-26T07:48:46Z</time>
      </trkpt>
      <trkpt lat="45.55359" lon="4.81759">
        <ele>168</ele>
        <time>2013-10-26T07:48:53Z</time>
      </trkpt>
      <trkpt lat="45.55358" lon="4.81759">
        <ele>168</ele>
        <time>2013-10-26T07:48:54Z</time>
      </trkpt>
      <trkpt lat="45.55351" lon="4.81766">
        <ele>169</ele>
        <time>2013-10-26T07:48:56Z</time>
      </trkpt>
      <trkpt lat="45.5535" lon="4.81766">
        <ele>169</ele>
        <time>2013-10-26T07:48:57Z</time>
      </trkpt>
      <trkpt lat="45.55349" lon="4.81767">
        <ele>169</ele>
        <time>2013-10-26T07:48:58Z</time>
      </trkpt>
      <trkpt lat="45.55349" lon="4.81768">
        <ele>169</ele>
        <time>2013-10-26T07:48:59Z</time>
      </trkpt>
      <trkpt lat="45.55346" lon="4.81771">
        <ele>169</ele>
        <time>2013-10-26T07:49:00Z</time>
      </trkpt>
      <trkpt lat="45.55339" lon="4.81777">
        <ele>168</ele>
        <time>2013-10-26T07:49:03Z</time>
      </trkpt>
      <trkpt lat="45.55337" lon="4.81779">
        <ele>168</ele>
        <time>2013-10-26T07:49:04Z</time>
      </trkpt>
      <trkpt lat="45.55331" lon="4.81787">
        <ele>182</ele>
        <time>2013-10-26T07:49:10Z</time>
      </trkpt>
      <trkpt lat="45.5533" lon="4.81789">
        <ele>182</ele>
        <time>2013-10-26T07:49:11Z</time>
      </trkpt>
      <trkpt lat="45.55322" lon="4.81796">
        <ele>182</ele>
        <time>2013-10-26T07:49:18Z</time>
      </trkpt>
      <trkpt lat="45.5532" lon="4.818">
        <ele>182</ele>
        <time>2013-10-26T07:49:19Z</time>
      </trkpt>
      <trkpt lat="45.5532" lon="4.81787">
        <ele>183</ele>
        <time>2013-10-26T07:49:32Z</time>
      </trkpt>
      <trkpt lat="45.5532" lon="4.81785">
        <ele>184</ele>
        <time>2013-10-26T07:49:33Z</time>
      </trkpt>
      <trkpt lat="45.55322" lon="4.81774">
        <ele>184</ele>
        <time>2013-10-26T07:49:40Z</time>
      </trkpt>
      <trkpt lat="45.55323" lon="4.81772">
        <ele>184</ele>
        <time>2013-10-26T07:49:41Z</time>
      </trkpt>
      <trkpt lat="45.55328" lon="4.81762">
        <ele>182</ele>
        <time>2013-10-26T07:49:46Z</time>
      </trkpt>
      <trkpt lat="45.55329" lon="4.81757">
        <ele>182</ele>
        <time>2013-10-26T07:49:47Z</time>
      </trkpt>
      <trkpt lat="45.55328" lon="4.81747">
        <ele>185</ele>
        <time>2013-10-26T07:49:55Z</time>
      </trkpt>
      <trkpt lat="45.55329" lon="4.81742">
        <ele>187</ele>
        <time>2013-10-26T07:49:56Z</time>
      </trkpt>
      <trkpt lat="45.55331" lon="4.81731">
        <ele>193</ele>
        <time>2013-10-26T07:50:01Z</time>
      </trkpt>
      <trkpt lat="45.55331" lon="4.81729">
        <ele>194</ele>
        <time>2013-10-26T07:50:02Z</time>
      </trkpt>
      <trkpt lat="45.55336" lon="4.81719">
        <ele>179</ele>
        <time>2013-10-26T07:50:06Z</time>
      </trkpt>
      <trkpt lat="45.55336" lon="4.81717">
        <ele>179</ele>
        <time>2013-10-26T07:50:07Z</time>
      </trkpt>
      <trkpt lat="45.55339" lon="4.81705">
        <ele>181</ele>
        <time>2013-10-26T07:50:12Z</time>
      </trkpt>
      <trkpt lat="45.5534" lon="4.81702">
        <ele>181</ele>
        <time>2013-10-26T07:50:13Z</time>
      </trkpt>
      <trkpt lat="45.55345" lon="4.81693">
        <ele>183</ele>
        <time>2013-10-26T07:50:15Z</time>
      </trkpt>
      <trkpt lat="45.55346" lon="4.81689">
        <ele>184</ele>
        <time>2013-10-26T07:50:16Z</time>
      </trkpt>
      <trkpt lat="45.5535" lon="4.81679">
        <ele>185</ele>
        <time>2013-10-26T07:50:20Z</time>
      </trkpt>
      <trkpt lat="45.55351" lon="4.81677">
        <ele>185</ele>
        <time>2013-10-26T07:50:21Z</time>
      </trkpt>
      <trkpt lat="45.55355" lon="4.81667">
        <ele>185</ele>
        <time>2013-10-26T07:50:25Z</time>
      </trkpt>
      <trkpt lat="45.55357" lon="4.81668">
        <ele>184</ele>
        <time>2013-10-26T07:50:26Z</time>
      </trkpt>
      <trkpt lat="45.55362" lon="4.81661">
        <ele>191</ele>
        <time>2013-10-26T07:50:29Z</time>
      </trkpt>
      <trkpt lat="45.55364" lon="4.81659">
        <ele>191</ele>
        <time>2013-10-26T07:50:30Z</time>
      </trkpt>
      <trkpt lat="45.55369" lon="4.81653">
        <ele>190</ele>
        <time>2013-10-26T07:50:33Z</time>
      </trkpt>
      <trkpt lat="45.55372" lon="4.81651">
        <ele>189</ele>
        <time>2013-10-26T07:50:34Z</time>
      </trkpt>
      <trkpt lat="45.55378" lon="4.81642">
        <ele>188</ele>
        <time>2013-10-26T07:50:37Z</time>
      </trkpt>
      <trkpt lat="45.5538" lon="4.8164">
        <ele>188</ele>
        <time>2013-10-26T07:50:38Z</time>
      </trkpt>
      <trkpt lat="45.55387" lon="4.81634">
        <ele>187</ele>
        <time>2013-10-26T07:50:41Z</time>
      </trkpt>
      <trkpt lat="45.55387" lon="4.81631">
        <ele>188</ele>
        <time>2013-10-26T07:50:42Z</time>
      </trkpt>
      <trkpt lat="45.55391" lon="4.81623">
        <ele>188</ele>
        <time>2013-10-26T07:50:44Z</time>
      </trkpt>
      <trkpt lat="45.55394" lon="4.81621">
        <ele>188</ele>
        <time>2013-10-26T07:50:45Z</time>
      </trkpt>
      <trkpt lat="45.554" lon="4.81612">
        <ele>188</ele>
        <time>2013-10-26T07:50:48Z</time>
      </trkpt>
      <trkpt lat="45.55403" lon="4.81611">
        <ele>187</ele>
        <time>2013-10-26T07:50:49Z</time>
      </trkpt>
      <trkpt lat="45.55407" lon="4.81603">
        <ele>187</ele>
        <time>2013-10-26T07:50:52Z</time>
      </trkpt>
      <trkpt lat="45.55409" lon="4.81601">
        <ele>187</ele>
        <time>2013-10-26T07:50:53Z</time>
      </trkpt>
      <trkpt lat="45.55414" lon="4.81595">
        <ele>186</ele>
        <time>2013-10-26T07:50:54Z</time>
      </trkpt>
      <trkpt lat="45.55419" lon="4.81589">
        <ele>180</ele>
        <time>2013-10-26T07:50:55Z</time>
      </trkpt>
      <trkpt lat="45.55424" lon="4.8158">
        <ele>183</ele>
        <time>2013-10-26T07:50:56Z</time>
      </trkpt>
      <trkpt lat="45.55427" lon="4.81578">
        <ele>182</ele>
        <time>2013-10-26T07:50:57Z</time>
      </trkpt>
      <trkpt lat="45.55433" lon="4.81571">
        <ele>181</ele>
        <time>2013-10-26T07:50:59Z</time>
      </trkpt>
      <trkpt lat="45.55436" lon="4.81565">
        <ele>181</ele>
        <time>2013-10-26T07:51:00Z</time>
      </trkpt>
      <trkpt lat="45.55443" lon="4.8156">
        <ele>180</ele>
        <time>2013-10-26T07:51:02Z</time>
      </trkpt>
      <trkpt lat="45.55446" lon="4.81558">
        <ele>180</ele>
        <time>2013-10-26T07:51:03Z</time>
      </trkpt>
      <trkpt lat="45.55452" lon="4.8155">
        <ele>179</ele>
        <time>2013-10-26T07:51:06Z</time>
      </trkpt>
      <trkpt lat="45.55457" lon="4.81548">
        <ele>179</ele>
        <time>2013-10-26T07:51:07Z</time>
      </trkpt>
      <trkpt lat="45.55455" lon="4.81537">
        <ele>180</ele>
        <time>2013-10-26T07:51:11Z</time>
      </trkpt>
      <trkpt lat="45.55457" lon="4.81533">
        <ele>180</ele>
        <time>2013-10-26T07:51:12Z</time>
      </trkpt>
      <trkpt lat="45.55461" lon="4.81523">
        <ele>180</ele>
        <time>2013-10-26T07:51:17Z</time>
      </trkpt>
      <trkpt lat="45.55461" lon="4.81521">
        <ele>180</ele>
        <time>2013-10-26T07:51:18Z</time>
      </trkpt>
      <trkpt lat="45.55462" lon="4.8151">
        <ele>181</ele>
        <time>2013-10-26T07:51:23Z</time>
      </trkpt>
      <trkpt lat="45.55462" lon="4.81508">
        <ele>181</ele>
        <time>2013-10-26T07:51:24Z</time>
      </trkpt>
      <trkpt lat="45.55462" lon="4.81496">
        <ele>190</ele>
        <time>2013-10-26T07:51:32Z</time>
      </trkpt>
      <trkpt lat="45.55462" lon="4.81493">
        <ele>190</ele>
        <time>2013-10-26T07:51:33Z</time>
      </trkpt>
      <trkpt lat="45.55464" lon="4.81481">
        <ele>190</ele>
        <time>2013-10-26T07:51:39Z</time>
      </trkpt>
      <trkpt lat="45.55464" lon="4.81479">
        <ele>190</ele>
        <time>2013-10-26T07:51:40Z</time>
      </trkpt>
      <trkpt lat="45.55467" lon="4.8147">
        <ele>190</ele>
        <time>2013-10-26T07:51:43Z</time>
      </trkpt>
      <trkpt lat="45.55468" lon="4.81467">
        <ele>190</ele>
        <time>2013-10-26T07:51:44Z</time>
      </trkpt>
      <trkpt lat="45.55468" lon="4.81454">
        <ele>191</ele>
        <time>2013-10-26T07:51:49Z</time>
      </trkpt>
      <trkpt lat="45.55467" lon="4.81453">
        <ele>191</ele>
        <time>2013-10-26T07:51:50Z</time>
      </trkpt>
      <trkpt lat="45.55472" lon="4.81444">
        <ele>191</ele>
        <time>2013-10-26T07:51:53Z</time>
      </trkpt>
      <trkpt lat="45.55473" lon="4.81442">
        <ele>191</ele>
        <time>2013-10-26T07:51:54Z</time>
      </trkpt>
      <trkpt lat="45.55472" lon="4.81431">
        <ele>191</ele>
        <time>2013-10-26T07:52:02Z</time>
      </trkpt>
      <trkpt lat="45.55471" lon="4.81429">
        <ele>191</ele>
        <time>2013-10-26T07:52:03Z</time>
      </trkpt>
      <trkpt lat="45.55472" lon="4.81419">
        <ele>191</ele>
        <time>2013-10-26T07:52:05Z</time>
      </trkpt>
      <trkpt lat="45.55473" lon="4.81415">
        <ele>197</ele>
        <time>2013-10-26T07:52:06Z</time>
      </trkpt>
      <trkpt lat="45.55472" lon="4.81402">
        <ele>199</ele>
        <time>2013-10-26T07:52:09Z</time>
      </trkpt>
      <trkpt lat="45.55477" lon="4.814">
        <ele>197</ele>
        <time>2013-10-26T07:52:10Z</time>
      </trkpt>
      <trkpt lat="45.55484" lon="4.81392">
        <ele>197</ele>
        <time>2013-10-26T07:52:13Z</time>
      </trkpt>
      <trkpt lat="45.55485" lon="4.81389">
        <ele>197</ele>
        <time>2013-10-26T07:52:14Z</time>
      </trkpt>
      <trkpt lat="45.5549" lon="4.81378">
        <ele>198</ele>
        <time>2013-10-26T07:52:18Z</time>
      </trkpt>
      <trkpt lat="45.5549" lon="4.81375">
        <ele>198</ele>
        <time>2013-10-26T07:52:19Z</time>
      </trkpt>
      <trkpt lat="45.55494" lon="4.81366">
        <ele>198</ele>
        <time>2013-10-26T07:52:21Z</time>
      </trkpt>
      <trkpt lat="45.55497" lon="4.81363">
        <ele>198</ele>
        <time>2013-10-26T07:52:22Z</time>
      </trkpt>
      <trkpt lat="45.555" lon="4.81353">
        <ele>182</ele>
        <time>2013-10-26T07:52:24Z</time>
      </trkpt>
      <trkpt lat="45.55502" lon="4.81347">
        <ele>184</ele>
        <time>2013-10-26T07:52:25Z</time>
      </trkpt>
      <trkpt lat="45.55505" lon="4.8134">
        <ele>187</ele>
        <time>2013-10-26T07:52:27Z</time>
      </trkpt>
      <trkpt lat="45.55507" lon="4.81334">
        <ele>187</ele>
        <time>2013-10-26T07:52:28Z</time>
      </trkpt>
      <trkpt lat="45.55513" lon="4.81325">
        <ele>186</ele>
        <time>2013-10-26T07:52:32Z</time>
      </trkpt>
      <trkpt lat="45.55512" lon="4.81321">
        <ele>186</ele>
        <time>2013-10-26T07:52:33Z</time>
      </trkpt>
      <trkpt lat="45.55515" lon="4.81314">
        <ele>184</ele>
        <time>2013-10-26T07:52:35Z</time>
      </trkpt>
      <trkpt lat="45.55517" lon="4.8131">
        <ele>184</ele>
        <time>2013-10-26T07:52:36Z</time>
      </trkpt>
      <trkpt lat="45.55521" lon="4.813">
        <ele>183</ele>
        <time>2013-10-26T07:52:39Z</time>
      </trkpt>
      <trkpt lat="45.55521" lon="4.81298">
        <ele>183</ele>
        <time>2013-10-26T07:52:40Z</time>
      </trkpt>
      <trkpt lat="45.55523" lon="4.8129">
        <ele>183</ele>
        <time>2013-10-26T07:52:42Z</time>
      </trkpt>
      <trkpt lat="45.55525" lon="4.81285">
        <ele>183</ele>
        <time>2013-10-26T07:52:43Z</time>
      </trkpt>
      <trkpt lat="45.55527" lon="4.81277">
        <ele>183</ele>
        <time>2013-10-26T07:52:45Z</time>
      </trkpt>
      <trkpt lat="45.55528" lon="4.81273">
        <ele>183</ele>
        <time>2013-10-26T07:52:46Z</time>
      </trkpt>
      <trkpt lat="45.55529" lon="4.81261">
        <ele>184</ele>
        <time>2013-10-26T07:52:50Z</time>
      </trkpt>
      <trkpt lat="45.55529" lon="4.8126">
        <ele>184</ele>
        <time>2013-10-26T07:52:51Z</time>
      </trkpt>
      <trkpt lat="45.5553" lon="4.8125">
        <ele>187</ele>
        <time>2013-10-26T07:52:54Z</time>
      </trkpt>
      <trkpt lat="45.5553" lon="4.81245">
        <ele>187</ele>
        <time>2013-10-26T07:52:55Z</time>
      </trkpt>
      <trkpt lat="45.5553" lon="4.81232">
        <ele>187</ele>
        <time>2013-10-26T07:52:58Z</time>
      </trkpt>
      <trkpt lat="45.5553" lon="4.81228">
        <ele>187</ele>
        <time>2013-10-26T07:52:59Z</time>
      </trkpt>
      <trkpt lat="45.55533" lon="4.81217">
        <ele>187</ele>
        <time>2013-10-26T07:53:02Z</time>
      </trkpt>
      <trkpt lat="45.55534" lon="4.81214">
        <ele>187</ele>
        <time>2013-10-26T07:53:03Z</time>
      </trkpt>
      <trkpt lat="45.55537" lon="4.81205">
        <ele>186</ele>
        <time>2013-10-26T07:53:07Z</time>
      </trkpt>
      <trkpt lat="45.5554" lon="4.81197">
        <ele>186</ele>
        <time>2013-10-26T07:53:08Z</time>
      </trkpt>
      <trkpt lat="45.55543" lon="4.81185">
        <ele>186</ele>
        <time>2013-10-26T07:53:11Z</time>
      </trkpt>
      <trkpt lat="45.55544" lon="4.81181">
        <ele>185</ele>
        <time>2013-10-26T07:53:12Z</time>
      </trkpt>
      <trkpt lat="45.55546" lon="4.81171">
        <ele>185</ele>
        <time>2013-10-26T07:53:14Z</time>
      </trkpt>
      <trkpt lat="45.55546" lon="4.81166">
        <ele>190</ele>
        <time>2013-10-26T07:53:15Z</time>
      </trkpt>
      <trkpt lat="45.55543" lon="4.81155">
        <ele>191</ele>
        <time>2013-10-26T07:53:17Z</time>
      </trkpt>
      <trkpt lat="45.55541" lon="4.8115">
        <ele>192</ele>
        <time>2013-10-26T07:53:18Z</time>
      </trkpt>
      <trkpt lat="45.55539" lon="4.81141">
        <ele>193</ele>
        <time>2013-10-26T07:53:20Z</time>
      </trkpt>
      <trkpt lat="45.55538" lon="4.81137">
        <ele>193</ele>
        <time>2013-10-26T07:53:21Z</time>
      </trkpt>
      <trkpt lat="45.55532" lon="4.81133">
        <ele>195</ele>
        <time>2013-10-26T07:53:24Z</time>
      </trkpt>
      <trkpt lat="45.5553" lon="4.81132">
        <ele>195</ele>
        <time>2013-10-26T07:53:25Z</time>
      </trkpt>
      <trkpt lat="45.55522" lon="4.81139">
        <ele>196</ele>
        <time>2013-10-26T07:53:32Z</time>
      </trkpt>
      <trkpt lat="45.55523" lon="4.81141">
        <ele>196</ele>
        <time>2013-10-26T07:53:33Z</time>
      </trkpt>
      <trkpt lat="45.55522" lon="4.81153">
        <ele>197</ele>
        <time>2013-10-26T07:53:36Z</time>
      </trkpt>
      <trkpt lat="45.55522" lon="4.81156">
        <ele>197</ele>
        <time>2013-10-26T07:53:37Z</time>
      </trkpt>
      <trkpt lat="45.55518" lon="4.81167">
        <ele>195</ele>
        <time>2013-10-26T07:53:42Z</time>
      </trkpt>
      <trkpt lat="45.55517" lon="4.81169">
        <ele>195</ele>
        <time>2013-10-26T07:53:43Z</time>
      </trkpt>
      <trkpt lat="45.55514" lon="4.81179">
        <ele>195</ele>
        <time>2013-10-26T07:53:48Z</time>
      </trkpt>
      <trkpt lat="45.55512" lon="4.81182">
        <ele>194</ele>
        <time>2013-10-26T07:53:49Z</time>
      </trkpt>
      <trkpt lat="45.55508" lon="4.81191">
        <ele>193</ele>
        <time>2013-10-26T07:53:53Z</time>
      </trkpt>
      <trkpt lat="45.55507" lon="4.81193">
        <ele>193</ele>
        <time>2013-10-26T07:53:54Z</time>
      </trkpt>
      <trkpt lat="45.55503" lon="4.812">
        <ele>192</ele>
        <time>2013-10-26T07:53:57Z</time>
      </trkpt>
      <trkpt lat="45.55502" lon="4.81203">
        <ele>192</ele>
        <time>2013-10-26T07:53:58Z</time>
      </trkpt>
      <trkpt lat="45.55498" lon="4.81213">
        <ele>211</ele>
        <time>2013-10-26T07:54:02Z</time>
      </trkpt>
      <trkpt lat="45.55497" lon="4.81215">
        <ele>211</ele>
        <time>2013-10-26T07:54:03Z</time>
      </trkpt>
      <trkpt lat="45.55494" lon="4.81225">
        <ele>209</ele>
        <time>2013-10-26T07:54:07Z</time>
      </trkpt>
      <trkpt lat="45.55494" lon="4.81227">
        <ele>209</ele>
        <time>2013-10-26T07:54:08Z</time>
      </trkpt>
      <trkpt lat="45.55489" lon="4.81238">
        <ele>207</ele>
        <time>2013-10-26T07:54:13Z</time>
      </trkpt>
      <trkpt lat="45.55489" lon="4.81241">
        <ele>206</ele>
        <time>2013-10-26T07:54:14Z</time>
      </trkpt>
      <trkpt lat="45.55486" lon="4.81251">
        <ele>204</ele>
        <time>2013-10-26T07:54:19Z</time>
      </trkpt>
      <trkpt lat="45.55486" lon="4.81253">
        <ele>204</ele>
        <time>2013-10-26T07:54:20Z</time>
      </trkpt>
      <trkpt lat="45.55485" lon="4.81265">
        <ele>205</ele>
        <time>2013-10-26T07:54:26Z</time>
      </trkpt>
      <trkpt lat="45.55485" lon="4.81267">
        <ele>206</ele>
        <time>2013-10-26T07:54:27Z</time>
      </trkpt>
      <trkpt lat="45.55482" lon="4.81278">
        <ele>207</ele>
        <time>2013-10-26T07:54:31Z</time>
      </trkpt>
      <trkpt lat="45.5548" lon="4.8128">
        <ele>208</ele>
        <time>2013-10-26T07:54:32Z</time>
      </trkpt>
      <trkpt lat="45.55477" lon="4.81287">
        <ele>208</ele>
        <time>2013-10-26T07:54:35Z</time>
      </trkpt>
      <trkpt lat="45.55476" lon="4.81292">
        <ele>208</ele>
        <time>2013-10-26T07:54:36Z</time>
      </trkpt>
      <trkpt lat="45.55472" lon="4.81303">
        <ele>208</ele>
        <time>2013-10-26T07:54:41Z</time>
      </trkpt>
      <trkpt lat="45.5547" lon="4.81305">
        <ele>209</ele>
        <time>2013-10-26T07:54:42Z</time>
      </trkpt>
      <trkpt lat="45.55465" lon="4.81314">
        <ele>210</ele>
        <time>2013-10-26T07:54:46Z</time>
      </trkpt>
      <trkpt lat="45.55463" lon="4.81316">
        <ele>210</ele>
        <time>2013-10-26T07:54:47Z</time>
      </trkpt>
      <trkpt lat="45.55458" lon="4.81325">
        <ele>211</ele>
        <time>2013-10-26T07:54:50Z</time>
      </trkpt>
      <trkpt lat="45.55456" lon="4.81327">
        <ele>212</ele>
        <time>2013-10-26T07:54:51Z</time>
      </trkpt>
      <trkpt lat="45.5545" lon="4.81331">
        <ele>213</ele>
        <time>2013-10-26T07:54:53Z</time>
      </trkpt>
      <trkpt lat="45.55446" lon="4.81334">
        <ele>210</ele>
        <time>2013-10-26T07:54:54Z</time>
      </trkpt>
      <trkpt lat="45.5544" lon="4.81339">
        <ele>212</ele>
        <time>2013-10-26T07:54:57Z</time>
      </trkpt>
      <trkpt lat="45.55437" lon="4.81341">
        <ele>213</ele>
        <time>2013-10-26T07:54:58Z</time>
      </trkpt>
      <trkpt lat="45.5543" lon="4.81344">
        <ele>216</ele>
        <time>2013-10-26T07:55:01Z</time>
      </trkpt>
      <trkpt lat="45.55429" lon="4.81346">
        <ele>215</ele>
        <time>2013-10-26T07:55:02Z</time>
      </trkpt>
      <trkpt lat="45.55421" lon="4.81351">
        <ele>216</ele>
        <time>2013-10-26T07:55:06Z</time>
      </trkpt>
      <trkpt lat="45.55422" lon="4.81354">
        <ele>215</ele>
        <time>2013-10-26T07:55:07Z</time>
      </trkpt>
      <trkpt lat="45.55419" lon="4.81363">
        <ele>213</ele>
        <time>2013-10-26T07:55:09Z</time>
      </trkpt>
      <trkpt lat="45.55417" lon="4.81369">
        <ele>228</ele>
        <time>2013-10-26T07:55:10Z</time>
      </trkpt>
      <trkpt lat="45.55418" lon="4.81381">
        <ele>211</ele>
        <time>2013-10-26T07:55:14Z</time>
      </trkpt>
      <trkpt lat="45.55418" lon="4.81384">
        <ele>211</ele>
        <time>2013-10-26T07:55:15Z</time>
      </trkpt>
      <trkpt lat="45.55418" lon="4.81395">
        <ele>211</ele>
        <time>2013-10-26T07:55:18Z</time>
      </trkpt>
      <trkpt lat="45.55419" lon="4.81398">
        <ele>211</ele>
        <time>2013-10-26T07:55:19Z</time>
      </trkpt>
      <trkpt lat="45.55422" lon="4.81409">
        <ele>213</ele>
        <time>2013-10-26T07:55:21Z</time>
      </trkpt>
      <trkpt lat="45.55422" lon="4.81415">
        <ele>214</ele>
        <time>2013-10-26T07:55:22Z</time>
      </trkpt>
      <trkpt lat="45.55424" lon="4.81424">
        <ele>209</ele>
        <time>2013-10-26T07:55:25Z</time>
      </trkpt>
      <trkpt lat="45.55423" lon="4.81427">
        <ele>208</ele>
        <time>2013-10-26T07:55:26Z</time>
      </trkpt>
      <trkpt lat="45.55419" lon="4.81438">
        <ele>204</ele>
        <time>2013-10-26T07:55:29Z</time>
      </trkpt>
      <trkpt lat="45.55418" lon="4.81439">
        <ele>204</ele>
        <time>2013-10-26T07:55:30Z</time>
      </trkpt>
      <trkpt lat="45.55416" lon="4.8145">
        <ele>219</ele>
        <time>2013-10-26T07:55:33Z</time>
      </trkpt>
      <trkpt lat="45.55415" lon="4.81452">
        <ele>219</ele>
        <time>2013-10-26T07:55:34Z</time>
      </trkpt>
      <trkpt lat="45.5541" lon="4.8146">
        <ele>219</ele>
        <time>2013-10-26T07:55:37Z</time>
      </trkpt>
      <trkpt lat="45.55408" lon="4.81463">
        <ele>219</ele>
        <time>2013-10-26T07:55:38Z</time>
      </trkpt>
      <trkpt lat="45.55403" lon="4.81471">
        <ele>218</ele>
        <time>2013-10-26T07:55:41Z</time>
      </trkpt>
      <trkpt lat="45.55401" lon="4.81474">
        <ele>218</ele>
        <time>2013-10-26T07:55:42Z</time>
      </trkpt>
      <trkpt lat="45.55394" lon="4.81482">
        <ele>218</ele>
        <time>2013-10-26T07:55:46Z</time>
      </trkpt>
      <trkpt lat="45.55391" lon="4.81486">
        <ele>218</ele>
        <time>2013-10-26T07:55:47Z</time>
      </trkpt>
      <trkpt lat="45.55384" lon="4.81494">
        <ele>220</ele>
        <time>2013-10-26T07:55:50Z</time>
      </trkpt>
      <trkpt lat="45.55382" lon="4.81495">
        <ele>220</ele>
        <time>2013-10-26T07:55:51Z</time>
      </trkpt>
      <trkpt lat="45.55376" lon="4.815">
        <ele>221</ele>
        <time>2013-10-26T07:55:54Z</time>
      </trkpt>
      <trkpt lat="45.55374" lon="4.81502">
        <ele>213</ele>
        <time>2013-10-26T07:55:55Z</time>
      </trkpt>
      <trkpt lat="45.55368" lon="4.81508">
        <ele>214</ele>
        <time>2013-10-26T07:55:58Z</time>
      </trkpt>
      <trkpt lat="45.55365" lon="4.8151">
        <ele>215</ele>
        <time>2013-10-26T07:55:59Z</time>
      </trkpt>
      <trkpt lat="45.55358" lon="4.81516">
        <ele>216</ele>
        <time>2013-10-26T07:56:02Z</time>
      </trkpt>
      <trkpt lat="45.55356" lon="4.81517">
        <ele>216</ele>
        <time>2013-10-26T07:56:03Z</time>
      </trkpt>
      <trkpt lat="45.55348" lon="4.81522">
        <ele>217</ele>
        <time>2013-10-26T07:56:06Z</time>
      </trkpt>
      <trkpt lat="45.55346" lon="4.81521">
        <ele>218</ele>
        <time>2013-10-26T07:56:07Z</time>
      </trkpt>
      <trkpt lat="45.55341" lon="4.81512">
        <ele>222</ele>
        <time>2013-10-26T07:56:11Z</time>
      </trkpt>
      <trkpt lat="45.55342" lon="4.81509">
        <ele>223</ele>
        <time>2013-10-26T07:56:12Z</time>
      </trkpt>
      <trkpt lat="45.55344" lon="4.815">
        <ele>224</ele>
        <time>2013-10-26T07:56:15Z</time>
      </trkpt>
      <trkpt lat="45.55345" lon="4.81497">
        <ele>229</ele>
        <time>2013-10-26T07:56:16Z</time>
      </trkpt>
      <trkpt lat="45.55352" lon="4.815">
        <ele>227</ele>
        <time>2013-10-26T07:56:18Z</time>
      </trkpt>
      <trkpt lat="45.55355" lon="4.81499">
        <ele>226</ele>
        <time>2013-10-26T07:56:19Z</time>
      </trkpt>
      <trkpt lat="45.55362" lon="4.81499">
        <ele>225</ele>
        <time>2013-10-26T07:56:22Z</time>
      </trkpt>
      <trkpt lat="45.55364" lon="4.81498">
        <ele>224</ele>
        <time>2013-10-26T07:56:23Z</time>
      </trkpt>
      <trkpt lat="45.55371" lon="4.81495">
        <ele>223</ele>
        <time>2013-10-26T07:56:26Z</time>
      </trkpt>
      <trkpt lat="45.55373" lon="4.81492">
        <ele>222</ele>
        <time>2013-10-26T07:56:27Z</time>
      </trkpt>
      <trkpt lat="45.5538" lon="4.81485">
        <ele>221</ele>
        <time>2013-10-26T07:56:30Z</time>
      </trkpt>
      <trkpt lat="45.55381" lon="4.81481">
        <ele>221</ele>
        <time>2013-10-26T07:56:31Z</time>
      </trkpt>
      <trkpt lat="45.55386" lon="4.81472">
        <ele>221</ele>
        <time>2013-10-26T07:56:34Z</time>
      </trkpt>
      <trkpt lat="45.55388" lon="4.81469">
        <ele>221</ele>
        <time>2013-10-26T07:56:35Z</time>
      </trkpt>
      <trkpt lat="45.5539" lon="4.81461">
        <ele>221</ele>
        <time>2013-10-26T07:56:37Z</time>
      </trkpt>
      <trkpt lat="45.55391" lon="4.81457">
        <ele>221</ele>
        <time>2013-10-26T07:56:38Z</time>
      </trkpt>
      <trkpt lat="45.55393" lon="4.81449">
        <ele>221</ele>
        <time>2013-10-26T07:56:40Z</time>
      </trkpt>
      <trkpt lat="45.55394" lon="4.81444">
        <ele>222</ele>
        <time>2013-10-26T07:56:41Z</time>
      </trkpt>
      <trkpt lat="45.55396" lon="4.81435">
        <ele>221</ele>
        <time>2013-10-26T07:56:43Z</time>
      </trkpt>
      <trkpt lat="45.55397" lon="4.8143">
        <ele>221</ele>
        <time>2013-10-26T07:56:44Z</time>
      </trkpt>
      <trkpt lat="45.55394" lon="4.81419">
        <ele>222</ele>
        <time>2013-10-26T07:56:47Z</time>
      </trkpt>
      <trkpt lat="45.55393" lon="4.81416">
        <ele>226</ele>
        <time>2013-10-26T07:56:48Z</time>
      </trkpt>
      <trkpt lat="45.5539" lon="4.81406">
        <ele>228</ele>
        <time>2013-10-26T07:56:51Z</time>
      </trkpt>
      <trkpt lat="45.55388" lon="4.81403">
        <ele>228</ele>
        <time>2013-10-26T07:56:52Z</time>
      </trkpt>
      <trkpt lat="45.55384" lon="4.81392">
        <ele>230</ele>
        <time>2013-10-26T07:56:55Z</time>
      </trkpt>
      <trkpt lat="45.55382" lon="4.81388">
        <ele>230</ele>
        <time>2013-10-26T07:56:56Z</time>
      </trkpt>
      <trkpt lat="45.55378" lon="4.81378">
        <ele>231</ele>
        <time>2013-10-26T07:56:59Z</time>
      </trkpt>
      <trkpt lat="45.55376" lon="4.81374">
        <ele>232</ele>
        <time>2013-10-26T07:57:00Z</time>
      </trkpt>
      <trkpt lat="45.55371" lon="4.81364">
        <ele>233</ele>
        <time>2013-10-26T07:57:03Z</time>
      </trkpt>
      <trkpt lat="45.55369" lon="4.81361">
        <ele>233</ele>
        <time>2013-10-26T07:57:04Z</time>
      </trkpt>
      <trkpt lat="45.55364" lon="4.81351">
        <ele>234</ele>
        <time>2013-10-26T07:57:07Z</time>
      </trkpt>
      <trkpt lat="45.55362" lon="4.81347">
        <ele>235</ele>
        <time>2013-10-26T07:57:08Z</time>
      </trkpt>
      <trkpt lat="45.55357" lon="4.81338">
        <ele>236</ele>
        <time>2013-10-26T07:57:11Z</time>
      </trkpt>
      <trkpt lat="45.55359" lon="4.81333">
        <ele>239</ele>
        <time>2013-10-26T07:57:12Z</time>
      </trkpt>
      <trkpt lat="45.55357" lon="4.81322">
        <ele>239</ele>
        <time>2013-10-26T07:57:15Z</time>
      </trkpt>
      <trkpt lat="45.55356" lon="4.81318">
        <ele>239</ele>
        <time>2013-10-26T07:57:16Z</time>
      </trkpt>
      <trkpt lat="45.55355" lon="4.81308">
        <ele>239</ele>
        <time>2013-10-26T07:57:18Z</time>
      </trkpt>
      <trkpt lat="45.55356" lon="4.81303">
        <ele>239</ele>
        <time>2013-10-26T07:57:19Z</time>
      </trkpt>
      <trkpt lat="45.55355" lon="4.81292">
        <ele>239</ele>
        <time>2013-10-26T07:57:22Z</time>
      </trkpt>
      <trkpt lat="45.55354" lon="4.81289">
        <ele>239</ele>
        <time>2013-10-26T07:57:23Z</time>
      </trkpt>
      <trkpt lat="45.55348" lon="4.81281">
        <ele>240</ele>
        <time>2013-10-26T07:57:26Z</time>
      </trkpt>
      <trkpt lat="45.55346" lon="4.81279">
        <ele>240</ele>
        <time>2013-10-26T07:57:27Z</time>
      </trkpt>
      <trkpt lat="45.5534" lon="4.8127">
        <ele>242</ele>
        <time>2013-10-26T07:57:31Z</time>
      </trkpt>
      <trkpt lat="45.55338" lon="4.81268">
        <ele>242</ele>
        <time>2013-10-26T07:57:32Z</time>
      </trkpt>
      <trkpt lat="45.55331" lon="4.81264">
        <ele>250</ele>
        <time>2013-10-26T07:57:37Z</time>
      </trkpt>
      <trkpt lat="45.5533" lon="4.81262">
        <ele>249</ele>
        <time>2013-10-26T07:57:38Z</time>
      </trkpt>
      <trkpt lat="45.55336" lon="4.81254">
        <ele>245</ele>
        <time>2013-10-26T07:57:47Z</time>
      </trkpt>
      <trkpt lat="45.55337" lon="4.81254">
        <ele>245</ele>
        <time>2013-10-26T07:57:48Z</time>
      </trkpt>
      <trkpt lat="45.55344" lon="4.81254">
        <ele>243</ele>
        <time>2013-10-26T07:57:52Z</time>
      </trkpt>
      <trkpt lat="45.55346" lon="4.81252">
        <ele>243</ele>
        <time>2013-10-26T07:57:53Z</time>
      </trkpt>
      <trkpt lat="45.55354" lon="4.81249">
        <ele>244</ele>
        <time>2013-10-26T07:57:57Z</time>
      </trkpt>
      <trkpt lat="45.55356" lon="4.81249">
        <ele>243</ele>
        <time>2013-10-26T07:57:58Z</time>
      </trkpt>
      <trkpt lat="45.55363" lon="4.81242">
        <ele>242</ele>
        <time>2013-10-26T07:58:03Z</time>
      </trkpt>
      <trkpt lat="45.55364" lon="4.8124">
        <ele>242</ele>
        <time>2013-10-26T07:58:04Z</time>
      </trkpt>
      <trkpt lat="45.55366" lon="4.81231">
        <ele>242</ele>
        <time>2013-10-26T07:58:10Z</time>
      </trkpt>
      <trkpt lat="45.55366" lon="4.81231">
        <ele>242</ele>
        <time>2013-10-26T07:58:11Z</time>
      </trkpt>
      <trkpt lat="45.55366" lon="4.81231">
        <ele>242</ele>
        <time>2013-10-26T07:58:14Z</time>
      </trkpt>
      <trkpt lat="45.55366" lon="4.81231">
        <ele>242</ele>
        <time>2013-10-26T07:58:15Z</time>
      </trkpt>
      <trkpt lat="45.55361" lon="4.8122">
        <ele>243</ele>
        <time>2013-10-26T07:58:25Z</time>
      </trkpt>
      <trkpt lat="45.5536" lon="4.81219">
        <ele>243</ele>
        <time>2013-10-26T07:58:26Z</time>
      </trkpt>
      <trkpt lat="45.55355" lon="4.81208">
        <ele>244</ele>
        <time>2013-10-26T07:58:32Z</time>
      </trkpt>
      <trkpt lat="45.55354" lon="4.81207">
        <ele>244</ele>
        <time>2013-10-26T07:58:33Z</time>
      </trkpt>
      <trkpt lat="45.55354" lon="4.81195">
        <ele>245</ele>
        <time>2013-10-26T07:58:39Z</time>
      </trkpt>
      <trkpt lat="45.55355" lon="4.81193">
        <ele>245</ele>
        <time>2013-10-26T07:58:40Z</time>
      </trkpt>
      <trkpt lat="45.55357" lon="4.81182">
        <ele>245</ele>
        <time>2013-10-26T07:58:43Z</time>
      </trkpt>
      <trkpt lat="45.55357" lon="4.81179">
        <ele>245</ele>
        <time>2013-10-26T07:58:44Z</time>
      </trkpt>
      <trkpt lat="45.55361" lon="4.81168">
        <ele>245</ele>
        <time>2013-10-26T07:58:47Z</time>
      </trkpt>
      <trkpt lat="45.55361" lon="4.81164">
        <ele>248</ele>
        <time>2013-10-26T07:58:48Z</time>
      </trkpt>
      <trkpt lat="45.55365" lon="4.81153">
        <ele>247</ele>
        <time>2013-10-26T07:58:51Z</time>
      </trkpt>
      <trkpt lat="45.55366" lon="4.81148">
        <ele>247</ele>
        <time>2013-10-26T07:58:52Z</time>
      </trkpt>
      <trkpt lat="45.55369" lon="4.81137">
        <ele>247</ele>
        <time>2013-10-26T07:58:55Z</time>
      </trkpt>
      <trkpt lat="45.5537" lon="4.81133">
        <ele>247</ele>
        <time>2013-10-26T07:58:56Z</time>
      </trkpt>
      <trkpt lat="45.55373" lon="4.81121">
        <ele>247</ele>
        <time>2013-10-26T07:58:59Z</time>
      </trkpt>
      <trkpt lat="45.55374" lon="4.81117">
        <ele>247</ele>
        <time>2013-10-26T07:59:00Z</time>
      </trkpt>
      <trkpt lat="45.55376" lon="4.81105">
        <ele>247</ele>
        <time>2013-10-26T07:59:03Z</time>
      </trkpt>
      <trkpt lat="45.55377" lon="4.81102">
        <ele>247</ele>
        <time>2013-10-26T07:59:04Z</time>
      </trkpt>
      <trkpt lat="45.55378" lon="4.81091">
        <ele>247</ele>
        <time>2013-10-26T07:59:07Z</time>
      </trkpt>
      <trkpt lat="45.55379" lon="4.81087">
        <ele>247</ele>
        <time>2013-10-26T07:59:08Z</time>
      </trkpt>
      <trkpt lat="45.55381" lon="4.81078">
        <ele>246</ele>
        <time>2013-10-26T07:59:10Z</time>
      </trkpt>
      <trkpt lat="45.55382" lon="4.81072">
        <ele>246</ele>
        <time>2013-10-26T07:59:11Z</time>
      </trkpt>
      <trkpt lat="45.55384" lon="4.81061">
        <ele>245</ele>
        <time>2013-10-26T07:59:13Z</time>
      </trkpt>
      <trkpt lat="45.55385" lon="4.81057">
        <ele>245</ele>
        <time>2013-10-26T07:59:14Z</time>
      </trkpt>
      <trkpt lat="45.55386" lon="4.81046">
        <ele>245</ele>
        <time>2013-10-26T07:59:16Z</time>
      </trkpt>
      <trkpt lat="45.55386" lon="4.81041">
        <ele>245</ele>
        <time>2013-10-26T07:59:17Z</time>
      </trkpt>
      <trkpt lat="45.55385" lon="4.81032">
        <ele>244</ele>
        <time>2013-10-26T07:59:19Z</time>
      </trkpt>
      <trkpt lat="45.55385" lon="4.81028">
        <ele>244</ele>
        <time>2013-10-26T07:59:20Z</time>
      </trkpt>
      <trkpt lat="45.55379" lon="4.81019">
        <ele>244</ele>
        <time>2013-10-26T07:59:23Z</time>
      </trkpt>
      <trkpt lat="45.55376" lon="4.81017">
        <ele>245</ele>
        <time>2013-10-26T07:59:24Z</time>
      </trkpt>
      <trkpt lat="45.55368" lon="4.81011">
        <ele>246</ele>
        <time>2013-10-26T07:59:28Z</time>
      </trkpt>
      <trkpt lat="45.55366" lon="4.8101">
        <ele>246</ele>
        <time>2013-10-26T07:59:29Z</time>
      </trkpt>
      <trkpt lat="45.55357" lon="4.81011">
        <ele>247</ele>
        <time>2013-10-26T07:59:33Z</time>
      </trkpt>
      <trkpt lat="45.55356" lon="4.81011">
        <ele>247</ele>
        <time>2013-10-26T07:59:34Z</time>
      </trkpt>
      <trkpt lat="45.55348" lon="4.81011">
        <ele>248</ele>
        <time>2013-10-26T07:59:38Z</time>
      </trkpt>
      <trkpt lat="45.55346" lon="4.81012">
        <ele>248</ele>
        <time>2013-10-26T07:59:39Z</time>
      </trkpt>
      <trkpt lat="45.55338" lon="4.81013">
        <ele>249</ele>
        <time>2013-10-26T07:59:43Z</time>
      </trkpt>
      <trkpt lat="45.55336" lon="4.81014">
        <ele>249</ele>
        <time>2013-10-26T07:59:44Z</time>
      </trkpt>
      <trkpt lat="45.55328" lon="4.81013">
        <ele>256</ele>
        <time>2013-10-26T07:59:48Z</time>
      </trkpt>
      <trkpt lat="45.55326" lon="4.81013">
        <ele>256</ele>
        <time>2013-10-26T07:59:49Z</time>
      </trkpt>
      <trkpt lat="45.55318" lon="4.81017">
        <ele>258</ele>
        <time>2013-10-26T07:59:54Z</time>
      </trkpt>
      <trkpt lat="45.55316" lon="4.81017">
        <ele>258</ele>
        <time>2013-10-26T07:59:55Z</time>
      </trkpt>
      <trkpt lat="45.55309" lon="4.81017">
        <ele>259</ele>
        <time>2013-10-26T08:00:00Z</time>
      </trkpt>
      <trkpt lat="45.55307" lon="4.81018">
        <ele>259</ele>
        <time>2013-10-26T08:00:01Z</time>
      </trkpt>
      <trkpt lat="45.55299" lon="4.81019">
        <ele>260</ele>
        <time>2013-10-26T08:00:06Z</time>
      </trkpt>
      <trkpt lat="45.55297" lon="4.81019">
        <ele>260</ele>
        <time>2013-10-26T08:00:07Z</time>
      </trkpt>
      <trkpt lat="45.55289" lon="4.81019">
        <ele>261</ele>
        <time>2013-10-26T08:00:12Z</time>
      </trkpt>
      <trkpt lat="45.55288" lon="4.81019">
        <ele>261</ele>
        <time>2013-10-26T08:00:13Z</time>
      </trkpt>
      <trkpt lat="45.55288" lon="4.81019">
        <ele>261</ele>
        <time>2013-10-26T08:00:14Z</time>
      </trkpt>
      <trkpt lat="45.55286" lon="4.8102">
        <ele>261</ele>
        <time>2013-10-26T08:00:15Z</time>
      </trkpt>
      <trkpt lat="45.55284" lon="4.81019">
        <ele>262</ele>
        <time>2013-10-26T08:00:16Z</time>
      </trkpt>
      <trkpt lat="45.55276" lon="4.81021">
        <ele>262</ele>
        <time>2013-10-26T08:00:20Z</time>
      </trkpt>
      <trkpt lat="45.55273" lon="4.81022">
        <ele>263</ele>
        <time>2013-10-26T08:00:21Z</time>
      </trkpt>
      <trkpt lat="45.55267" lon="4.81026">
        <ele>263</ele>
        <time>2013-10-26T08:00:25Z</time>
      </trkpt>
      <trkpt lat="45.55264" lon="4.81026">
        <ele>263</ele>
        <time>2013-10-26T08:00:26Z</time>
      </trkpt>
      <trkpt lat="45.55256" lon="4.81028">
        <ele>264</ele>
        <time>2013-10-26T08:00:33Z</time>
      </trkpt>
      <trkpt lat="45.55255" lon="4.81028">
        <ele>264</ele>
        <time>2013-10-26T08:00:34Z</time>
      </trkpt>
      <trkpt lat="45.55248" lon="4.81029">
        <ele>271</ele>
        <time>2013-10-26T08:00:41Z</time>
      </trkpt>
      <trkpt lat="45.55245" lon="4.81029">
        <ele>271</ele>
        <time>2013-10-26T08:00:42Z</time>
      </trkpt>
      <trkpt lat="45.55238" lon="4.8103">
        <ele>272</ele>
        <time>2013-10-26T08:00:46Z</time>
      </trkpt>
      <trkpt lat="45.55234" lon="4.81032">
        <ele>272</ele>
        <time>2013-10-26T08:00:47Z</time>
      </trkpt>
      <trkpt lat="45.55226" lon="4.81034">
        <ele>273</ele>
        <time>2013-10-26T08:00:54Z</time>
      </trkpt>
      <trkpt lat="45.55224" lon="4.81035">
        <ele>273</ele>
        <time>2013-10-26T08:00:55Z</time>
      </trkpt>
      <trkpt lat="45.55216" lon="4.81038">
        <ele>274</ele>
        <time>2013-10-26T08:00:59Z</time>
      </trkpt>
      <trkpt lat="45.55214" lon="4.81039">
        <ele>274</ele>
        <time>2013-10-26T08:01:00Z</time>
      </trkpt>
      <trkpt lat="45.55207" lon="4.81043">
        <ele>275</ele>
        <time>2013-10-26T08:01:06Z</time>
      </trkpt>
      <trkpt lat="45.55205" lon="4.81043">
        <ele>275</ele>
        <time>2013-10-26T08:01:07Z</time>
      </trkpt>
      <trkpt lat="45.55197" lon="4.81045">
        <ele>276</ele>
        <time>2013-10-26T08:01:15Z</time>
      </trkpt>
      <trkpt lat="45.55196" lon="4.81045">
        <ele>276</ele>
        <time>2013-10-26T08:01:16Z</time>
      </trkpt>
      <trkpt lat="45.55188" lon="4.81052">
        <ele>277</ele>
        <time>2013-10-26T08:01:23Z</time>
      </trkpt>
      <trkpt lat="45.55187" lon="4.81053">
        <ele>277</ele>
        <time>2013-10-26T08:01:24Z</time>
      </trkpt>
      <trkpt lat="45.5518" lon="4.81057">
        <ele>279</ele>
        <time>2013-10-26T08:01:30Z</time>
      </trkpt>
      <trkpt lat="45.55179" lon="4.81058">
        <ele>279</ele>
        <time>2013-10-26T08:01:31Z</time>
      </trkpt>
      <trkpt lat="45.55171" lon="4.81062">
        <ele>280</ele>
        <time>2013-10-26T08:01:38Z</time>
      </trkpt>
      <trkpt lat="45.5517" lon="4.81062">
        <ele>280</ele>
        <time>2013-10-26T08:01:39Z</time>
      </trkpt>
      <trkpt lat="45.55162" lon="4.81065">
        <ele>287</ele>
        <time>2013-10-26T08:01:46Z</time>
      </trkpt>
      <trkpt lat="45.55161" lon="4.81065">
        <ele>287</ele>
        <time>2013-10-26T08:01:47Z</time>
      </trkpt>
      <trkpt lat="45.55153" lon="4.81065">
        <ele>288</ele>
        <time>2013-10-26T08:01:53Z</time>
      </trkpt>
      <trkpt lat="45.55151" lon="4.81065">
        <ele>288</ele>
        <time>2013-10-26T08:01:54Z</time>
      </trkpt>
      <trkpt lat="45.55143" lon="4.81065">
        <ele>288</ele>
        <time>2013-10-26T08:02:01Z</time>
      </trkpt>
      <trkpt lat="45.55141" lon="4.81064">
        <ele>289</ele>
        <time>2013-10-26T08:02:02Z</time>
      </trkpt>
      <trkpt lat="45.55134" lon="4.81063">
        <ele>289</ele>
        <time>2013-10-26T08:02:08Z</time>
      </trkpt>
      <trkpt lat="45.55132" lon="4.81061">
        <ele>289</ele>
        <time>2013-10-26T08:02:09Z</time>
      </trkpt>
      <trkpt lat="45.55124" lon="4.81056">
        <ele>290</ele>
        <time>2013-10-26T08:02:14Z</time>
      </trkpt>
      <trkpt lat="45.55123" lon="4.81055">
        <ele>290</ele>
        <time>2013-10-26T08:02:15Z</time>
      </trkpt>
      <trkpt lat="45.55118" lon="4.81047">
        <ele>290</ele>
        <time>2013-10-26T08:02:20Z</time>
      </trkpt>
      <trkpt lat="45.55117" lon="4.81044">
        <ele>290</ele>
        <time>2013-10-26T08:02:21Z</time>
      </trkpt>
      <trkpt lat="45.55111" lon="4.81035">
        <ele>290</ele>
        <time>2013-10-26T08:02:25Z</time>
      </trkpt>
      <trkpt lat="45.55109" lon="4.81033">
        <ele>290</ele>
        <time>2013-10-26T08:02:26Z</time>
      </trkpt>
      <trkpt lat="45.55101" lon="4.81028">
        <ele>290</ele>
        <time>2013-10-26T08:02:29Z</time>
      </trkpt>
      <trkpt lat="45.55099" lon="4.81026">
        <ele>290</ele>
        <time>2013-10-26T08:02:30Z</time>
      </trkpt>
      <trkpt lat="45.55092" lon="4.81021">
        <ele>290</ele>
        <time>2013-10-26T08:02:33Z</time>
      </trkpt>
      <trkpt lat="45.5509" lon="4.81019">
        <ele>290</ele>
        <time>2013-10-26T08:02:34Z</time>
      </trkpt>
      <trkpt lat="45.55084" lon="4.81014">
        <ele>290</ele>
        <time>2013-10-26T08:02:37Z</time>
      </trkpt>
      <trkpt lat="45.5508" lon="4.81012">
        <ele>297</ele>
        <time>2013-10-26T08:02:38Z</time>
      </trkpt>
      <trkpt lat="45.55073" lon="4.81007">
        <ele>297</ele>
        <time>2013-10-26T08:02:41Z</time>
      </trkpt>
      <trkpt lat="45.55072" lon="4.81006">
        <ele>297</ele>
        <time>2013-10-26T08:02:42Z</time>
      </trkpt>
      <trkpt lat="45.55066" lon="4.81">
        <ele>298</ele>
        <time>2013-10-26T08:02:46Z</time>
      </trkpt>
      <trkpt lat="45.55063" lon="4.80999">
        <ele>294</ele>
        <time>2013-10-26T08:02:47Z</time>
      </trkpt>
      <trkpt lat="45.55057" lon="4.80994">
        <ele>295</ele>
        <time>2013-10-26T08:02:52Z</time>
      </trkpt>
      <trkpt lat="45.55055" lon="4.80993">
        <ele>296</ele>
        <time>2013-10-26T08:02:53Z</time>
      </trkpt>
      <trkpt lat="45.55049" lon="4.80986">
        <ele>296</ele>
        <time>2013-10-26T08:02:56Z</time>
      </trkpt>
      <trkpt lat="45.55047" lon="4.80985">
        <ele>297</ele>
        <time>2013-10-26T08:02:57Z</time>
      </trkpt>
      <trkpt lat="45.55041" lon="4.80979">
        <ele>297</ele>
        <time>2013-10-26T08:03:02Z</time>
      </trkpt>
      <trkpt lat="45.55037" lon="4.80977">
        <ele>298</ele>
        <time>2013-10-26T08:03:03Z</time>
      </trkpt>
      <trkpt lat="45.55031" lon="4.80974">
        <ele>298</ele>
        <time>2013-10-26T08:03:06Z</time>
      </trkpt>
      <trkpt lat="45.55028" lon="4.80972">
        <ele>299</ele>
        <time>2013-10-26T08:03:07Z</time>
      </trkpt>
      <trkpt lat="45.55022" lon="4.80967">
        <ele>299</ele>
        <time>2013-10-26T08:03:09Z</time>
      </trkpt>
      <trkpt lat="45.5502" lon="4.80965">
        <ele>299</ele>
        <time>2013-10-26T08:03:10Z</time>
      </trkpt>
      <trkpt lat="45.55014" lon="4.8096">
        <ele>299</ele>
        <time>2013-10-26T08:03:13Z</time>
      </trkpt>
      <trkpt lat="45.55011" lon="4.80959">
        <ele>299</ele>
        <time>2013-10-26T08:03:14Z</time>
      </trkpt>
      <trkpt lat="45.55005" lon="4.80954">
        <ele>299</ele>
        <time>2013-10-26T08:03:17Z</time>
      </trkpt>
      <trkpt lat="45.55001" lon="4.80952">
        <ele>300</ele>
        <time>2013-10-26T08:03:18Z</time>
      </trkpt>
      <trkpt lat="45.54994" lon="4.80946">
        <ele>310</ele>
        <time>2013-10-26T08:03:24Z</time>
      </trkpt>
      <trkpt lat="45.5499" lon="4.80944">
        <ele>310</ele>
        <time>2013-10-26T08:03:25Z</time>
      </trkpt>
      <trkpt lat="45.54983" lon="4.80941">
        <ele>310</ele>
        <time>2013-10-26T08:03:28Z</time>
      </trkpt>
      <trkpt lat="45.54981" lon="4.80939">
        <ele>310</ele>
        <time>2013-10-26T08:03:29Z</time>
      </trkpt>
      <trkpt lat="45.54975" lon="4.80937">
        <ele>311</ele>
        <time>2013-10-26T08:03:31Z</time>
      </trkpt>
      <trkpt lat="45.54972" lon="4.80934">
        <ele>311</ele>
        <time>2013-10-26T08:03:32Z</time>
      </trkpt>
      <trkpt lat="45.54965" lon="4.80928">
        <ele>312</ele>
        <time>2013-10-26T08:03:37Z</time>
      </trkpt>
      <trkpt lat="45.54965" lon="4.80925">
        <ele>312</ele>
        <time>2013-10-26T08:03:38Z</time>
      </trkpt>
      <trkpt lat="45.54964" lon="4.80915">
        <ele>306</ele>
        <time>2013-10-26T08:03:42Z</time>
      </trkpt>
      <trkpt lat="45.54964" lon="4.80911">
        <ele>306</ele>
        <time>2013-10-26T08:03:43Z</time>
      </trkpt>
      <trkpt lat="45.54957" lon="4.80904">
        <ele>307</ele>
        <time>2013-10-26T08:03:48Z</time>
      </trkpt>
      <trkpt lat="45.54957" lon="4.809">
        <ele>307</ele>
        <time>2013-10-26T08:03:49Z</time>
      </trkpt>
      <trkpt lat="45.54954" lon="4.8089">
        <ele>307</ele>
        <time>2013-10-26T08:03:52Z</time>
      </trkpt>
      <trkpt lat="45.54952" lon="4.80886">
        <ele>307</ele>
        <time>2013-10-26T08:03:53Z</time>
      </trkpt>
      <trkpt lat="45.54946" lon="4.8088">
        <ele>307</ele>
        <time>2013-10-26T08:03:55Z</time>
      </trkpt>
      <trkpt lat="45.54944" lon="4.80877">
        <ele>307</ele>
        <time>2013-10-26T08:03:56Z</time>
      </trkpt>
      <trkpt lat="45.5494" lon="4.80867">
        <ele>307</ele>
        <time>2013-10-26T08:03:59Z</time>
      </trkpt>
      <trkpt lat="45.54937" lon="4.80864">
        <ele>307</ele>
        <time>2013-10-26T08:04:00Z</time>
      </trkpt>
      <trkpt lat="45.54933" lon="4.80856">
        <ele>307</ele>
        <time>2013-10-26T08:04:03Z</time>
      </trkpt>
      <trkpt lat="45.54931" lon="4.80854">
        <ele>307</ele>
        <time>2013-10-26T08:04:04Z</time>
      </trkpt>
      <trkpt lat="45.54924" lon="4.80847">
        <ele>308</ele>
        <time>2013-10-26T08:04:08Z</time>
      </trkpt>
      <trkpt lat="45.54923" lon="4.80845">
        <ele>308</ele>
        <time>2013-10-26T08:04:09Z</time>
      </trkpt>
      <trkpt lat="45.54917" lon="4.80838">
        <ele>312</ele>
        <time>2013-10-26T08:04:13Z</time>
      </trkpt>
      <trkpt lat="45.54915" lon="4.80836">
        <ele>311</ele>
        <time>2013-10-26T08:04:14Z</time>
      </trkpt>
      <trkpt lat="45.54911" lon="4.8083">
        <ele>311</ele>
        <time>2013-10-26T08:04:17Z</time>
      </trkpt>
      <trkpt lat="45.54909" lon="4.80824">
        <ele>311</ele>
        <time>2013-10-26T08:04:18Z</time>
      </trkpt>
      <trkpt lat="45.54907" lon="4.80813">
        <ele>312</ele>
        <time>2013-10-26T08:04:20Z</time>
      </trkpt>
      <trkpt lat="45.54904" lon="4.80808">
        <ele>312</ele>
        <time>2013-10-26T08:04:21Z</time>
      </trkpt>
      <trkpt lat="45.54901" lon="4.80799">
        <ele>312</ele>
        <time>2013-10-26T08:04:23Z</time>
      </trkpt>
      <trkpt lat="45.549" lon="4.80794">
        <ele>312</ele>
        <time>2013-10-26T08:04:24Z</time>
      </trkpt>
      <trkpt lat="45.54898" lon="4.80785">
        <ele>311</ele>
        <time>2013-10-26T08:04:26Z</time>
      </trkpt>
      <trkpt lat="45.54898" lon="4.8078">
        <ele>311</ele>
        <time>2013-10-26T08:04:27Z</time>
      </trkpt>
      <trkpt lat="45.54895" lon="4.80772">
        <ele>311</ele>
        <time>2013-10-26T08:04:29Z</time>
      </trkpt>
      <trkpt lat="45.54894" lon="4.80768">
        <ele>310</ele>
        <time>2013-10-26T08:04:30Z</time>
      </trkpt>
      <trkpt lat="45.54892" lon="4.80759">
        <ele>310</ele>
        <time>2013-10-26T08:04:32Z</time>
      </trkpt>
      <trkpt lat="45.54889" lon="4.80754">
        <ele>310</ele>
        <time>2013-10-26T08:04:33Z</time>
      </trkpt>
      <trkpt lat="45.54887" lon="4.80744">
        <ele>305</ele>
        <time>2013-10-26T08:04:35Z</time>
      </trkpt>
      <trkpt lat="45.54885" lon="4.80739">
        <ele>305</ele>
        <time>2013-10-26T08:04:36Z</time>
      </trkpt>
      <trkpt lat="45.54882" lon="4.80731">
        <ele>304</ele>
        <time>2013-10-26T08:04:38Z</time>
      </trkpt>
      <trkpt lat="45.5488" lon="4.80724">
        <ele>304</ele>
        <time>2013-10-26T08:04:39Z</time>
      </trkpt>
      <trkpt lat="45.54876" lon="4.80713">
        <ele>304</ele>
        <time>2013-10-26T08:04:41Z</time>
      </trkpt>
      <trkpt lat="45.54874" lon="4.80709">
        <ele>304</ele>
        <time>2013-10-26T08:04:42Z</time>
      </trkpt>
      <trkpt lat="45.54871" lon="4.80704">
        <ele>303</ele>
        <time>2013-10-26T08:04:43Z</time>
      </trkpt>
      <trkpt lat="45.54868" lon="4.80698">
        <ele>303</ele>
        <time>2013-10-26T08:04:44Z</time>
      </trkpt>
      <trkpt lat="45.54864" lon="4.80687">
        <ele>303</ele>
        <time>2013-10-26T08:04:46Z</time>
      </trkpt>
      <trkpt lat="45.54861" lon="4.80682">
        <ele>303</ele>
        <time>2013-10-26T08:04:47Z</time>
      </trkpt>
      <trkpt lat="45.54855" lon="4.80676">
        <ele>303</ele>
        <time>2013-10-26T08:04:49Z</time>
      </trkpt>
      <trkpt lat="45.54852" lon="4.80672">
        <ele>303</ele>
        <time>2013-10-26T08:04:50Z</time>
      </trkpt>
      <trkpt lat="45.54848" lon="4.80668">
        <ele>303</ele>
        <time>2013-10-26T08:04:51Z</time>
      </trkpt>
      <trkpt lat="45.54843" lon="4.80668">
        <ele>303</ele>
        <time>2013-10-26T08:04:52Z</time>
      </trkpt>
      <trkpt lat="45.54834" lon="4.80666">
        <ele>302</ele>
        <time>2013-10-26T08:04:54Z</time>
      </trkpt>
      <trkpt lat="45.54829" lon="4.80667">
        <ele>304</ele>
        <time>2013-10-26T08:04:55Z</time>
      </trkpt>
      <trkpt lat="45.54823" lon="4.80667">
        <ele>305</ele>
        <time>2013-10-26T08:04:56Z</time>
      </trkpt>
      <trkpt lat="45.54817" lon="4.80669">
        <ele>306</ele>
        <time>2013-10-26T08:04:57Z</time>
      </trkpt>
      <trkpt lat="45.54812" lon="4.80672">
        <ele>307</ele>
        <time>2013-10-26T08:04:58Z</time>
      </trkpt>
      <trkpt lat="45.54809" lon="4.80673">
        <ele>307</ele>
        <time>2013-10-26T08:04:59Z</time>
      </trkpt>
      <trkpt lat="45.54804" lon="4.80676">
        <ele>308</ele>
        <time>2013-10-26T08:05:00Z</time>
      </trkpt>
      <trkpt lat="45.54799" lon="4.80675">
        <ele>308</ele>
        <time>2013-10-26T08:05:01Z</time>
      </trkpt>
      <trkpt lat="45.54792" lon="4.80678">
        <ele>308</ele>
        <time>2013-10-26T08:05:02Z</time>
      </trkpt>
      <trkpt lat="45.54786" lon="4.80679">
        <ele>308</ele>
        <time>2013-10-26T08:05:03Z</time>
      </trkpt>
      <trkpt lat="45.54781" lon="4.8068">
        <ele>308</ele>
        <time>2013-10-26T08:05:04Z</time>
      </trkpt>
      <trkpt lat="45.54775" lon="4.80681">
        <ele>308</ele>
        <time>2013-10-26T08:05:05Z</time>
      </trkpt>
      <trkpt lat="45.54769" lon="4.8068">
        <ele>308</ele>
        <time>2013-10-26T08:05:06Z</time>
      </trkpt>
      <trkpt lat="45.54765" lon="4.80681">
        <ele>308</ele>
        <time>2013-10-26T08:05:07Z</time>
      </trkpt>
      <trkpt lat="45.5476" lon="4.8068">
        <ele>308</ele>
        <time>2013-10-26T08:05:08Z</time>
      </trkpt>
      <trkpt lat="45.54753" lon="4.80679">
        <ele>307</ele>
        <time>2013-10-26T08:05:09Z</time>
      </trkpt>
      <trkpt lat="45.54746" lon="4.80677">
        <ele>310</ele>
        <time>2013-10-26T08:05:11Z</time>
      </trkpt>
      <trkpt lat="45.54742" lon="4.80676">
        <ele>310</ele>
        <time>2013-10-26T08:05:12Z</time>
      </trkpt>
      <trkpt lat="45.54735" lon="4.80679">
        <ele>312</ele>
        <time>2013-10-26T08:05:18Z</time>
      </trkpt>
      <trkpt lat="45.54733" lon="4.80679">
        <ele>312</ele>
        <time>2013-10-26T08:05:19Z</time>
      </trkpt>
      <trkpt lat="45.54733" lon="4.80678">
        <ele>312</ele>
        <time>2013-10-26T08:05:23Z</time>
      </trkpt>
      <trkpt lat="45.54733" lon="4.80678">
        <ele>312</ele>
        <time>2013-10-26T08:05:24Z</time>
      </trkpt>
      <trkpt lat="45.54733" lon="4.80678">
        <ele>312</ele>
        <time>2013-10-26T08:05:25Z</time>
      </trkpt>
      <trkpt lat="45.54732" lon="4.80679">
        <ele>313</ele>
        <time>2013-10-26T08:05:27Z</time>
      </trkpt>
      <trkpt lat="45.54732" lon="4.80679">
        <ele>313</ele>
        <time>2013-10-26T08:05:28Z</time>
      </trkpt>
      <trkpt lat="45.54732" lon="4.80679">
        <ele>313</ele>
        <time>2013-10-26T08:05:30Z</time>
      </trkpt>
      <trkpt lat="45.54732" lon="4.80678">
        <ele>312</ele>
        <time>2013-10-26T08:05:31Z</time>
      </trkpt>
      <trkpt lat="45.54732" lon="4.80678">
        <ele>312</ele>
        <time>2013-10-26T08:05:32Z</time>
      </trkpt>
      <trkpt lat="45.54732" lon="4.80678">
        <ele>312</ele>
        <time>2013-10-26T08:05:35Z</time>
      </trkpt>
      <trkpt lat="45.54732" lon="4.80677">
        <ele>312</ele>
        <time>2013-10-26T08:05:36Z</time>
      </trkpt>
      <trkpt lat="45.54734" lon="4.80665">
        <ele>305</ele>
        <time>2013-10-26T08:05:38Z</time>
      </trkpt>
      <trkpt lat="45.54736" lon="4.80657">
        <ele>305</ele>
        <time>2013-10-26T08:05:39Z</time>
      </trkpt>
      <trkpt lat="45.54736" lon="4.80645">
        <ele>305</ele>
        <time>2013-10-26T08:05:42Z</time>
      </trkpt>
      <trkpt lat="45.54735" lon="4.80642">
        <ele>304</ele>
        <time>2013-10-26T08:05:43Z</time>
      </trkpt>
      <trkpt lat="45.54731" lon="4.80631">
        <ele>304</ele>
        <time>2013-10-26T08:05:48Z</time>
      </trkpt>
      <trkpt lat="45.5473" lon="4.80628">
        <ele>304</ele>
        <time>2013-10-26T08:05:49Z</time>
      </trkpt>
      <trkpt lat="45.54725" lon="4.8062">
        <ele>303</ele>
        <time>2013-10-26T08:05:55Z</time>
      </trkpt>
      <trkpt lat="45.54724" lon="4.80619">
        <ele>303</ele>
        <time>2013-10-26T08:05:56Z</time>
      </trkpt>
      <trkpt lat="45.54716" lon="4.80614">
        <ele>304</ele>
        <time>2013-10-26T08:06:01Z</time>
      </trkpt>
      <trkpt lat="45.54714" lon="4.80612">
        <ele>304</ele>
        <time>2013-10-26T08:06:02Z</time>
      </trkpt>
      <trkpt lat="45.54713" lon="4.80611">
        <ele>304</ele>
        <time>2013-10-26T08:06:06Z</time>
      </trkpt>
      <trkpt lat="45.54713" lon="4.80611">
        <ele>304</ele>
        <time>2013-10-26T08:06:07Z</time>
      </trkpt>
      <trkpt lat="45.54713" lon="4.80611">
        <ele>304</ele>
        <time>2013-10-26T08:06:08Z</time>
      </trkpt>
      <trkpt lat="45.54712" lon="4.80611">
        <ele>304</ele>
        <time>2013-10-26T08:06:09Z</time>
      </trkpt>
      <trkpt lat="45.54712" lon="4.80611">
        <ele>304</ele>
        <time>2013-10-26T08:06:10Z</time>
      </trkpt>
      <trkpt lat="45.54712" lon="4.80611">
        <ele>304</ele>
        <time>2013-10-26T08:06:11Z</time>
      </trkpt>
      <trkpt lat="45.54712" lon="4.80611">
        <ele>304</ele>
        <time>2013-10-26T08:06:12Z</time>
      </trkpt>
      <trkpt lat="45.54712" lon="4.80611">
        <ele>304</ele>
        <time>2013-10-26T08:06:42Z</time>
      </trkpt>
      <trkpt lat="45.54712" lon="4.80611">
        <ele>304</ele>
        <time>2013-10-26T08:06:43Z</time>
      </trkpt>
      <trkpt lat="45.54703" lon="4.80613">
        <ele>305</ele>
        <time>2013-10-26T08:06:47Z</time>
      </trkpt>
      <trkpt lat="45.54701" lon="4.80614">
        <ele>305</ele>
        <time>2013-10-26T08:06:48Z</time>
      </trkpt>
      <trkpt lat="45.54696" lon="4.80623">
        <ele>306</ele>
        <time>2013-10-26T08:06:53Z</time>
      </trkpt>
      <trkpt lat="45.54695" lon="4.80623">
        <ele>306</ele>
        <time>2013-10-26T08:06:54Z</time>
      </trkpt>
      <trkpt lat="45.54693" lon="4.80633">
        <ele>307</ele>
        <time>2013-10-26T08:06:59Z</time>
      </trkpt>
      <trkpt lat="45.54692" lon="4.80636">
        <ele>307</ele>
        <time>2013-10-26T08:07:00Z</time>
      </trkpt>
      <trkpt lat="45.54688" lon="4.80646">
        <ele>309</ele>
        <time>2013-10-26T08:07:05Z</time>
      </trkpt>
      <trkpt lat="45.54687" lon="4.80648">
        <ele>309</ele>
        <time>2013-10-26T08:07:06Z</time>
      </trkpt>
      <trkpt lat="45.54683" lon="4.80658">
        <ele>311</ele>
        <time>2013-10-26T08:07:13Z</time>
      </trkpt>
      <trkpt lat="45.54682" lon="4.80659">
        <ele>312</ele>
        <time>2013-10-26T08:07:14Z</time>
      </trkpt>
      <trkpt lat="45.54677" lon="4.8067">
        <ele>318</ele>
        <time>2013-10-26T08:07:21Z</time>
      </trkpt>
      <trkpt lat="45.54676" lon="4.80671">
        <ele>318</ele>
        <time>2013-10-26T08:07:22Z</time>
      </trkpt>
      <trkpt lat="45.54673" lon="4.80681">
        <ele>318</ele>
        <time>2013-10-26T08:07:27Z</time>
      </trkpt>
      <trkpt lat="45.5467" lon="4.80682">
        <ele>318</ele>
        <time>2013-10-26T08:07:28Z</time>
      </trkpt>
      <trkpt lat="45.54667" lon="4.8069">
        <ele>326</ele>
        <time>2013-10-26T08:07:36Z</time>
      </trkpt>
      <trkpt lat="45.54666" lon="4.80693">
        <ele>327</ele>
        <time>2013-10-26T08:07:37Z</time>
      </trkpt>
      <trkpt lat="45.54668" lon="4.80706">
        <ele>320</ele>
        <time>2013-10-26T08:07:45Z</time>
      </trkpt>
      <trkpt lat="45.54669" lon="4.80708">
        <ele>320</ele>
        <time>2013-10-26T08:07:46Z</time>
      </trkpt>
      <trkpt lat="45.5467" lon="4.80712">
        <ele>320</ele>
        <time>2013-10-26T08:07:48Z</time>
      </trkpt>
      <trkpt lat="45.5467" lon="4.80712">
        <ele>320</ele>
        <time>2013-10-26T08:07:49Z</time>
      </trkpt>
      <trkpt lat="45.54669" lon="4.80712">
        <ele>320</ele>
        <time>2013-10-26T08:07:50Z</time>
      </trkpt>
      <trkpt lat="45.54669" lon="4.80712">
        <ele>320</ele>
        <time>2013-10-26T08:07:51Z</time>
      </trkpt>
      <trkpt lat="45.54669" lon="4.80712">
        <ele>320</ele>
        <time>2013-10-26T08:07:52Z</time>
      </trkpt>
      <trkpt lat="45.54669" lon="4.80713">
        <ele>320</ele>
        <time>2013-10-26T08:07:53Z</time>
      </trkpt>
      <trkpt lat="45.54669" lon="4.80713">
        <ele>320</ele>
        <time>2013-10-26T08:07:55Z</time>
      </trkpt>
      <trkpt lat="45.54669" lon="4.80713">
        <ele>320</ele>
        <time>2013-10-26T08:07:56Z</time>
      </trkpt>
      <trkpt lat="45.54669" lon="4.80713">
        <ele>320</ele>
        <time>2013-10-26T08:07:57Z</time>
      </trkpt>
      <trkpt lat="45.54669" lon="4.80713">
        <ele>320</ele>
        <time>2013-10-26T08:07:58Z</time>
      </trkpt>
      <trkpt lat="45.54669" lon="4.80714">
        <ele>320</ele>
        <time>2013-10-26T08:08:12Z</time>
      </trkpt>
      <trkpt lat="45.54668" lon="4.80714">
        <ele>321</ele>
        <time>2013-10-26T08:08:13Z</time>
      </trkpt>
      <trkpt lat="45.54665" lon="4.80725">
        <ele>330</ele>
        <time>2013-10-26T08:08:15Z</time>
      </trkpt>
      <trkpt lat="45.54663" lon="4.80728">
        <ele>330</ele>
        <time>2013-10-26T08:08:16Z</time>
      </trkpt>
      <trkpt lat="45.54661" lon="4.8074">
        <ele>330</ele>
        <time>2013-10-26T08:08:20Z</time>
      </trkpt>
      <trkpt lat="45.54659" lon="4.80745">
        <ele>330</ele>
        <time>2013-10-26T08:08:21Z</time>
      </trkpt>
      <trkpt lat="45.54654" lon="4.80752">
        <ele>334</ele>
        <time>2013-10-26T08:08:24Z</time>
      </trkpt>
      <trkpt lat="45.54653" lon="4.80755">
        <ele>335</ele>
        <time>2013-10-26T08:08:25Z</time>
      </trkpt>
      <trkpt lat="45.54648" lon="4.80764">
        <ele>337</ele>
        <time>2013-10-26T08:08:30Z</time>
      </trkpt>
      <trkpt lat="45.54647" lon="4.80766">
        <ele>337</ele>
        <time>2013-10-26T08:08:31Z</time>
      </trkpt>
      <trkpt lat="45.5464" lon="4.80771">
        <ele>339</ele>
        <time>2013-10-26T08:08:34Z</time>
      </trkpt>
      <trkpt lat="45.54638" lon="4.80768">
        <ele>339</ele>
        <time>2013-10-26T08:08:35Z</time>
      </trkpt>
      <trkpt lat="45.54634" lon="4.80777">
        <ele>340</ele>
        <time>2013-10-26T08:08:42Z</time>
      </trkpt>
      <trkpt lat="45.54631" lon="4.80778">
        <ele>340</ele>
        <time>2013-10-26T08:08:43Z</time>
      </trkpt>
      <trkpt lat="45.54625" lon="4.80782">
        <ele>341</ele>
        <time>2013-10-26T08:08:50Z</time>
      </trkpt>
      <trkpt lat="45.54625" lon="4.80782">
        <ele>341</ele>
        <time>2013-10-26T08:08:51Z</time>
      </trkpt>
      <trkpt lat="45.54625" lon="4.80783">
        <ele>341</ele>
        <time>2013-10-26T08:08:52Z</time>
      </trkpt>
      <trkpt lat="45.54618" lon="4.80789">
        <ele>342</ele>
        <time>2013-10-26T08:09:01Z</time>
      </trkpt>
      <trkpt lat="45.54616" lon="4.80791">
        <ele>342</ele>
        <time>2013-10-26T08:09:02Z</time>
      </trkpt>
      <trkpt lat="45.54611" lon="4.80799">
        <ele>343</ele>
        <time>2013-10-26T08:09:06Z</time>
      </trkpt>
      <trkpt lat="45.54609" lon="4.80801">
        <ele>343</ele>
        <time>2013-10-26T08:09:07Z</time>
      </trkpt>
      <trkpt lat="45.54601" lon="4.80804">
        <ele>344</ele>
        <time>2013-10-26T08:09:13Z</time>
      </trkpt>
      <trkpt lat="45.546" lon="4.80804">
        <ele>344</ele>
        <time>2013-10-26T08:09:14Z</time>
      </trkpt>
      <trkpt lat="45.54593" lon="4.80811">
        <ele>345</ele>
        <time>2013-10-26T08:09:18Z</time>
      </trkpt>
      <trkpt lat="45.54591" lon="4.80812">
        <ele>345</ele>
        <time>2013-10-26T08:09:19Z</time>
      </trkpt>
      <trkpt lat="45.54586" lon="4.80822">
        <ele>346</ele>
        <time>2013-10-26T08:09:27Z</time>
      </trkpt>
      <trkpt lat="45.54585" lon="4.80824">
        <ele>347</ele>
        <time>2013-10-26T08:09:28Z</time>
      </trkpt>
      <trkpt lat="45.54578" lon="4.8083">
        <ele>350</ele>
        <time>2013-10-26T08:09:31Z</time>
      </trkpt>
      <trkpt lat="45.54577" lon="4.80832">
        <ele>350</ele>
        <time>2013-10-26T08:09:32Z</time>
      </trkpt>
      <trkpt lat="45.54572" lon="4.80842">
        <ele>353</ele>
        <time>2013-10-26T08:09:37Z</time>
      </trkpt>
      <trkpt lat="45.54571" lon="4.80845">
        <ele>353</ele>
        <time>2013-10-26T08:09:38Z</time>
      </trkpt>
      <trkpt lat="45.54566" lon="4.8085">
        <ele>354</ele>
        <time>2013-10-26T08:09:43Z</time>
      </trkpt>
      <trkpt lat="45.54566" lon="4.8085">
        <ele>354</ele>
        <time>2013-10-26T08:09:44Z</time>
      </trkpt>
      <trkpt lat="45.54564" lon="4.80853">
        <ele>355</ele>
        <time>2013-10-26T08:09:45Z</time>
      </trkpt>
      <trkpt lat="45.54561" lon="4.80865">
        <ele>356</ele>
        <time>2013-10-26T08:09:52Z</time>
      </trkpt>
      <trkpt lat="45.5456" lon="4.80866">
        <ele>356</ele>
        <time>2013-10-26T08:09:53Z</time>
      </trkpt>
      <trkpt lat="45.54558" lon="4.80878">
        <ele>356</ele>
        <time>2013-10-26T08:10:07Z</time>
      </trkpt>
      <trkpt lat="45.54558" lon="4.80878">
        <ele>356</ele>
        <time>2013-10-26T08:10:08Z</time>
      </trkpt>
      <trkpt lat="45.54558" lon="4.80878">
        <ele>356</ele>
        <time>2013-10-26T08:10:10Z</time>
      </trkpt>
      <trkpt lat="45.54558" lon="4.80878">
        <ele>356</ele>
        <time>2013-10-26T08:10:11Z</time>
      </trkpt>
      <trkpt lat="45.54552" lon="4.80888">
        <ele>357</ele>
        <time>2013-10-26T08:10:14Z</time>
      </trkpt>
      <trkpt lat="45.54551" lon="4.80889">
        <ele>357</ele>
        <time>2013-10-26T08:10:15Z</time>
      </trkpt>
      <trkpt lat="45.54547" lon="4.809">
        <ele>357</ele>
        <time>2013-10-26T08:10:22Z</time>
      </trkpt>
      <trkpt lat="45.54547" lon="4.80903">
        <ele>357</ele>
        <time>2013-10-26T08:10:23Z</time>
      </trkpt>
      <trkpt lat="45.54539" lon="4.80911">
        <ele>358</ele>
        <time>2013-10-26T08:10:27Z</time>
      </trkpt>
      <trkpt lat="45.54535" lon="4.80913">
        <ele>359</ele>
        <time>2013-10-26T08:10:28Z</time>
      </trkpt>
      <trkpt lat="45.5453" lon="4.80921">
        <ele>362</ele>
        <time>2013-10-26T08:10:34Z</time>
      </trkpt>
      <trkpt lat="45.54529" lon="4.80923">
        <ele>362</ele>
        <time>2013-10-26T08:10:35Z</time>
      </trkpt>
      <trkpt lat="45.54525" lon="4.80933">
        <ele>363</ele>
        <time>2013-10-26T08:10:45Z</time>
      </trkpt>
      <trkpt lat="45.54524" lon="4.80935">
        <ele>363</ele>
        <time>2013-10-26T08:10:46Z</time>
      </trkpt>
      <trkpt lat="45.5452" lon="4.80946">
        <ele>363</ele>
        <time>2013-10-26T08:10:52Z</time>
      </trkpt>
      <trkpt lat="45.54518" lon="4.80948">
        <ele>363</ele>
        <time>2013-10-26T08:10:53Z</time>
      </trkpt>
      <trkpt lat="45.54516" lon="4.80957">
        <ele>364</ele>
        <time>2013-10-26T08:11:05Z</time>
      </trkpt>
      <trkpt lat="45.54516" lon="4.80957">
        <ele>364</ele>
        <time>2013-10-26T08:11:06Z</time>
      </trkpt>
      <trkpt lat="45.54516" lon="4.80957">
        <ele>364</ele>
        <time>2013-10-26T08:11:29Z</time>
      </trkpt>
      <trkpt lat="45.54512" lon="4.80961">
        <ele>364</ele>
        <time>2013-10-26T08:11:30Z</time>
      </trkpt>
      <trkpt lat="45.54505" lon="4.80969">
        <ele>364</ele>
        <time>2013-10-26T08:11:32Z</time>
      </trkpt>
      <trkpt lat="45.54504" lon="4.80971">
        <ele>364</ele>
        <time>2013-10-26T08:11:33Z</time>
      </trkpt>
      <trkpt lat="45.54504" lon="4.80982">
        <ele>365</ele>
        <time>2013-10-26T08:11:37Z</time>
      </trkpt>
      <trkpt lat="45.54505" lon="4.80985">
        <ele>365</ele>
        <time>2013-10-26T08:11:38Z</time>
      </trkpt>
      <trkpt lat="45.54506" lon="4.80996">
        <ele>365</ele>
        <time>2013-10-26T08:11:52Z</time>
      </trkpt>
      <trkpt lat="45.54506" lon="4.80996">
        <ele>365</ele>
        <time>2013-10-26T08:11:53Z</time>
      </trkpt>
      <trkpt lat="45.54505" lon="4.80996">
        <ele>365</ele>
        <time>2013-10-26T08:11:54Z</time>
      </trkpt>
      <trkpt lat="45.54505" lon="4.80996">
        <ele>365</ele>
        <time>2013-10-26T08:11:56Z</time>
      </trkpt>
      <trkpt lat="45.54505" lon="4.80996">
        <ele>365</ele>
        <time>2013-10-26T08:11:57Z</time>
      </trkpt>
      <trkpt lat="45.54505" lon="4.80996">
        <ele>365</ele>
        <time>2013-10-26T08:11:58Z</time>
      </trkpt>
      <trkpt lat="45.54505" lon="4.80995">
        <ele>365</ele>
        <time>2013-10-26T08:11:59Z</time>
      </trkpt>
      <trkpt lat="45.54505" lon="4.80995">
        <ele>365</ele>
        <time>2013-10-26T08:12:00Z</time>
      </trkpt>
      <trkpt lat="45.54505" lon="4.80995">
        <ele>365</ele>
        <time>2013-10-26T08:12:10Z</time>
      </trkpt>
      <trkpt lat="45.54505" lon="4.80994">
        <ele>365</ele>
        <time>2013-10-26T08:12:11Z</time>
      </trkpt>
      <trkpt lat="45.54506" lon="4.80987">
        <ele>365</ele>
        <time>2013-10-26T08:12:12Z</time>
      </trkpt>
      <trkpt lat="45.54507" lon="4.80977">
        <ele>364</ele>
        <time>2013-10-26T08:12:13Z</time>
      </trkpt>
      <trkpt lat="45.54505" lon="4.80966">
        <ele>364</ele>
        <time>2013-10-26T08:12:16Z</time>
      </trkpt>
      <trkpt lat="45.54505" lon="4.80963">
        <ele>364</ele>
        <time>2013-10-26T08:12:17Z</time>
      </trkpt>
      <trkpt lat="45.545" lon="4.80953">
        <ele>364</ele>
        <time>2013-10-26T08:12:24Z</time>
      </trkpt>
      <trkpt lat="45.54499" lon="4.80952">
        <ele>367</ele>
        <time>2013-10-26T08:12:25Z</time>
      </trkpt>
      <trkpt lat="45.54498" lon="4.8094">
        <ele>367</ele>
        <time>2013-10-26T08:12:31Z</time>
      </trkpt>
      <trkpt lat="45.54498" lon="4.80938">
        <ele>367</ele>
        <time>2013-10-26T08:12:32Z</time>
      </trkpt>
      <trkpt lat="45.5449" lon="4.80933">
        <ele>367</ele>
        <time>2013-10-26T08:12:41Z</time>
      </trkpt>
      <trkpt lat="45.54489" lon="4.80932">
        <ele>367</ele>
        <time>2013-10-26T08:12:42Z</time>
      </trkpt>
      <trkpt lat="45.54489" lon="4.80932">
        <ele>367</ele>
        <time>2013-10-26T08:12:43Z</time>
      </trkpt>
      <trkpt lat="45.54489" lon="4.80931">
        <ele>367</ele>
        <time>2013-10-26T08:12:44Z</time>
      </trkpt>
      <trkpt lat="45.54489" lon="4.80931">
        <ele>367</ele>
        <time>2013-10-26T08:12:45Z</time>
      </trkpt>
      <trkpt lat="45.54488" lon="4.80931">
        <ele>367</ele>
        <time>2013-10-26T08:12:47Z</time>
      </trkpt>
      <trkpt lat="45.54488" lon="4.80931">
        <ele>367</ele>
        <time>2013-10-26T08:12:48Z</time>
      </trkpt>
      <trkpt lat="45.5449" lon="4.80927">
        <ele>366</ele>
        <time>2013-10-26T08:13:24Z</time>
      </trkpt>
      <trkpt lat="45.54492" lon="4.80927">
        <ele>366</ele>
        <time>2013-10-26T08:13:25Z</time>
      </trkpt>
      <trkpt lat="45.54492" lon="4.80925">
        <ele>366</ele>
        <time>2013-10-26T08:13:27Z</time>
      </trkpt>
      <trkpt lat="45.54492" lon="4.80925">
        <ele>366</ele>
        <time>2013-10-26T08:13:28Z</time>
      </trkpt>
      <trkpt lat="45.54491" lon="4.80925">
        <ele>366</ele>
        <time>2013-10-26T08:13:29Z</time>
      </trkpt>
      <trkpt lat="45.54492" lon="4.80925">
        <ele>366</ele>
        <time>2013-10-26T08:13:30Z</time>
      </trkpt>
      <trkpt lat="45.54491" lon="4.80922">
        <ele>366</ele>
        <time>2013-10-26T08:13:36Z</time>
      </trkpt>
      <trkpt lat="45.5449" lon="4.80922">
        <ele>366</ele>
        <time>2013-10-26T08:13:37Z</time>
      </trkpt>
      <trkpt lat="45.5449" lon="4.80922">
        <ele>366</ele>
        <time>2013-10-26T08:15:15Z</time>
      </trkpt>
      <trkpt lat="45.54491" lon="4.80922">
        <ele>366</ele>
        <time>2013-10-26T08:15:16Z</time>
      </trkpt>
      <trkpt lat="45.54491" lon="4.80924">
        <ele>366</ele>
        <time>2013-10-26T08:15:20Z</time>
      </trkpt>
      <trkpt lat="45.54491" lon="4.80924">
        <ele>366</ele>
        <time>2013-10-26T08:15:21Z</time>
      </trkpt>
      <trkpt lat="45.54491" lon="4.80924">
        <ele>366</ele>
        <time>2013-10-26T08:15:22Z</time>
      </trkpt>
      <trkpt lat="45.54491" lon="4.80925">
        <ele>366</ele>
        <time>2013-10-26T08:15:25Z</time>
      </trkpt>
      <trkpt lat="45.54491" lon="4.80925">
        <ele>366</ele>
        <time>2013-10-26T08:15:26Z</time>
      </trkpt>
      <trkpt lat="45.54491" lon="4.80924">
        <ele>366</ele>
        <time>2013-10-26T08:17:30Z</time>
      </trkpt>
      <trkpt lat="45.54491" lon="4.80922">
        <ele>366</ele>
        <time>2013-10-26T08:17:31Z</time>
      </trkpt>
      <trkpt lat="45.54487" lon="4.80911">
        <ele>366</ele>
        <time>2013-10-26T08:17:36Z</time>
      </trkpt>
      <trkpt lat="45.54487" lon="4.80908">
        <ele>366</ele>
        <time>2013-10-26T08:17:37Z</time>
      </trkpt>
      <trkpt lat="45.54483" lon="4.80898">
        <ele>367</ele>
        <time>2013-10-26T08:17:44Z</time>
      </trkpt>
      <trkpt lat="45.54483" lon="4.80896">
        <ele>367</ele>
        <time>2013-10-26T08:17:45Z</time>
      </trkpt>
      <trkpt lat="45.5448" lon="4.80885">
        <ele>367</ele>
        <time>2013-10-26T08:17:50Z</time>
      </trkpt>
      <trkpt lat="45.5448" lon="4.80882">
        <ele>367</ele>
        <time>2013-10-26T08:17:51Z</time>
      </trkpt>
      <trkpt lat="45.54485" lon="4.80872">
        <ele>367</ele>
        <time>2013-10-26T08:17:54Z</time>
      </trkpt>
      <trkpt lat="45.54485" lon="4.80869">
        <ele>367</ele>
        <time>2013-10-26T08:17:55Z</time>
      </trkpt>
      <trkpt lat="45.54483" lon="4.80858">
        <ele>367</ele>
        <time>2013-10-26T08:17:59Z</time>
      </trkpt>
      <trkpt lat="45.54482" lon="4.80857">
        <ele>367</ele>
        <time>2013-10-26T08:18:00Z</time>
      </trkpt>
      <trkpt lat="45.54478" lon="4.80847">
        <ele>367</ele>
        <time>2013-10-26T08:18:05Z</time>
      </trkpt>
      <trkpt lat="45.54476" lon="4.80847">
        <ele>367</ele>
        <time>2013-10-26T08:18:06Z</time>
      </trkpt>
      <trkpt lat="45.54469" lon="4.80839">
        <ele>367</ele>
        <time>2013-10-26T08:18:11Z</time>
      </trkpt>
      <trkpt lat="45.54469" lon="4.80836">
        <ele>367</ele>
        <time>2013-10-26T08:18:12Z</time>
      </trkpt>
      <trkpt lat="45.54464" lon="4.80826">
        <ele>364</ele>
        <time>2013-10-26T08:18:17Z</time>
      </trkpt>
      <trkpt lat="45.54462" lon="4.80824">
        <ele>364</ele>
        <time>2013-10-26T08:18:18Z</time>
      </trkpt>
      <trkpt lat="45.54456" lon="4.80819">
        <ele>364</ele>
        <time>2013-10-26T08:18:24Z</time>
      </trkpt>
      <trkpt lat="45.54453" lon="4.80819">
        <ele>364</ele>
        <time>2013-10-26T08:18:25Z</time>
      </trkpt>
      <trkpt lat="45.54449" lon="4.80808">
        <ele>364</ele>
        <time>2013-10-26T08:18:29Z</time>
      </trkpt>
      <trkpt lat="45.5445" lon="4.80806">
        <ele>364</ele>
        <time>2013-10-26T08:18:30Z</time>
      </trkpt>
      <trkpt lat="45.54448" lon="4.80794">
        <ele>363</ele>
        <time>2013-10-26T08:18:35Z</time>
      </trkpt>
      <trkpt lat="45.54448" lon="4.80792">
        <ele>363</ele>
        <time>2013-10-26T08:18:36Z</time>
      </trkpt>
      <trkpt lat="45.5444" lon="4.80787">
        <ele>363</ele>
        <time>2013-10-26T08:18:39Z</time>
      </trkpt>
      <trkpt lat="45.54438" lon="4.80786">
        <ele>363</ele>
        <time>2013-10-26T08:18:40Z</time>
      </trkpt>
      <trkpt lat="45.54432" lon="4.80778">
        <ele>362</ele>
        <time>2013-10-26T08:18:43Z</time>
      </trkpt>
      <trkpt lat="45.54429" lon="4.80776">
        <ele>362</ele>
        <time>2013-10-26T08:18:44Z</time>
      </trkpt>
      <trkpt lat="45.54422" lon="4.80772">
        <ele>361</ele>
        <time>2013-10-26T08:18:46Z</time>
      </trkpt>
      <trkpt lat="45.54418" lon="4.80769">
        <ele>361</ele>
        <time>2013-10-26T08:18:47Z</time>
      </trkpt>
      <trkpt lat="45.54415" lon="4.80767">
        <ele>359</ele>
        <time>2013-10-26T08:18:48Z</time>
      </trkpt>
      <trkpt lat="45.54409" lon="4.80763">
        <ele>358</ele>
        <time>2013-10-26T08:18:49Z</time>
      </trkpt>
      <trkpt lat="45.54404" lon="4.80761">
        <ele>358</ele>
        <time>2013-10-26T08:18:50Z</time>
      </trkpt>
      <trkpt lat="45.544" lon="4.80761">
        <ele>358</ele>
        <time>2013-10-26T08:18:51Z</time>
      </trkpt>
      <trkpt lat="45.54391" lon="4.80759">
        <ele>358</ele>
        <time>2013-10-26T08:18:53Z</time>
      </trkpt>
      <trkpt lat="45.54387" lon="4.80758">
        <ele>357</ele>
        <time>2013-10-26T08:18:54Z</time>
      </trkpt>
      <trkpt lat="45.54379" lon="4.80759">
        <ele>357</ele>
        <time>2013-10-26T08:18:56Z</time>
      </trkpt>
      <trkpt lat="45.54376" lon="4.80759">
        <ele>357</ele>
        <time>2013-10-26T08:18:57Z</time>
      </trkpt>
      <trkpt lat="45.54368" lon="4.80762">
        <ele>356</ele>
        <time>2013-10-26T08:19:00Z</time>
      </trkpt>
      <trkpt lat="45.54364" lon="4.80763">
        <ele>356</ele>
        <time>2013-10-26T08:19:01Z</time>
      </trkpt>
      <trkpt lat="45.54356" lon="4.80765">
        <ele>355</ele>
        <time>2013-10-26T08:19:03Z</time>
      </trkpt>
      <trkpt lat="45.54353" lon="4.80768">
        <ele>355</ele>
        <time>2013-10-26T08:19:04Z</time>
      </trkpt>
      <trkpt lat="45.54346" lon="4.8077">
        <ele>354</ele>
        <time>2013-10-26T08:19:06Z</time>
      </trkpt>
      <trkpt lat="45.54343" lon="4.80773">
        <ele>354</ele>
        <time>2013-10-26T08:19:07Z</time>
      </trkpt>
      <trkpt lat="45.54338" lon="4.80778">
        <ele>355</ele>
        <time>2013-10-26T08:19:09Z</time>
      </trkpt>
      <trkpt lat="45.54334" lon="4.80781">
        <ele>355</ele>
        <time>2013-10-26T08:19:10Z</time>
      </trkpt>
      <trkpt lat="45.54329" lon="4.80784">
        <ele>354</ele>
        <time>2013-10-26T08:19:12Z</time>
      </trkpt>
      <trkpt lat="45.54325" lon="4.80787">
        <ele>354</ele>
        <time>2013-10-26T08:19:13Z</time>
      </trkpt>
      <trkpt lat="45.54319" lon="4.8079">
        <ele>355</ele>
        <time>2013-10-26T08:19:15Z</time>
      </trkpt>
      <trkpt lat="45.54317" lon="4.80792">
        <ele>355</ele>
        <time>2013-10-26T08:19:16Z</time>
      </trkpt>
      <trkpt lat="45.54313" lon="4.80798">
        <ele>355</ele>
        <time>2013-10-26T08:19:18Z</time>
      </trkpt>
      <trkpt lat="45.5431" lon="4.80801">
        <ele>356</ele>
        <time>2013-10-26T08:19:19Z</time>
      </trkpt>
      <trkpt lat="45.54302" lon="4.80808">
        <ele>356</ele>
        <time>2013-10-26T08:19:23Z</time>
      </trkpt>
      <trkpt lat="45.54301" lon="4.80809">
        <ele>356</ele>
        <time>2013-10-26T08:19:24Z</time>
      </trkpt>
      <trkpt lat="45.54296" lon="4.80813">
        <ele>356</ele>
        <time>2013-10-26T08:19:36Z</time>
      </trkpt>
      <trkpt lat="45.54296" lon="4.80813">
        <ele>356</ele>
        <time>2013-10-26T08:19:37Z</time>
      </trkpt>
      <trkpt lat="45.54296" lon="4.80812">
        <ele>356</ele>
        <time>2013-10-26T08:19:40Z</time>
      </trkpt>
      <trkpt lat="45.54292" lon="4.80819">
        <ele>357</ele>
        <time>2013-10-26T08:19:41Z</time>
      </trkpt>
      <trkpt lat="45.54289" lon="4.80822">
        <ele>357</ele>
        <time>2013-10-26T08:20:01Z</time>
      </trkpt>
      <trkpt lat="45.54288" lon="4.80822">
        <ele>357</ele>
        <time>2013-10-26T08:20:02Z</time>
      </trkpt>
      <trkpt lat="45.54288" lon="4.80822">
        <ele>357</ele>
        <time>2013-10-26T08:20:03Z</time>
      </trkpt>
      <trkpt lat="45.54288" lon="4.80823">
        <ele>357</ele>
        <time>2013-10-26T08:20:04Z</time>
      </trkpt>
      <trkpt lat="45.54289" lon="4.80824">
        <ele>357</ele>
        <time>2013-10-26T08:20:06Z</time>
      </trkpt>
      <trkpt lat="45.54289" lon="4.80824">
        <ele>357</ele>
        <time>2013-10-26T08:20:07Z</time>
      </trkpt>
      <trkpt lat="45.54289" lon="4.80823">
        <ele>357</ele>
        <time>2013-10-26T08:20:08Z</time>
      </trkpt>
      <trkpt lat="45.54289" lon="4.80823">
        <ele>357</ele>
        <time>2013-10-26T08:20:09Z</time>
      </trkpt>
      <trkpt lat="45.5429" lon="4.80812">
        <ele>357</ele>
        <time>2013-10-26T08:20:17Z</time>
      </trkpt>
      <trkpt lat="45.54291" lon="4.8081">
        <ele>356</ele>
        <time>2013-10-26T08:20:18Z</time>
      </trkpt>
      <trkpt lat="45.5429" lon="4.80799">
        <ele>356</ele>
        <time>2013-10-26T08:20:23Z</time>
      </trkpt>
      <trkpt lat="45.54289" lon="4.80796">
        <ele>356</ele>
        <time>2013-10-26T08:20:24Z</time>
      </trkpt>
      <trkpt lat="45.5429" lon="4.80784">
        <ele>355</ele>
        <time>2013-10-26T08:20:28Z</time>
      </trkpt>
      <trkpt lat="45.5429" lon="4.8078">
        <ele>355</ele>
        <time>2013-10-26T08:20:29Z</time>
      </trkpt>
      <trkpt lat="45.54291" lon="4.80767">
        <ele>354</ele>
        <time>2013-10-26T08:20:33Z</time>
      </trkpt>
      <trkpt lat="45.54292" lon="4.80764">
        <ele>354</ele>
        <time>2013-10-26T08:20:34Z</time>
      </trkpt>
      <trkpt lat="45.54294" lon="4.80755">
        <ele>354</ele>
        <time>2013-10-26T08:20:37Z</time>
      </trkpt>
      <trkpt lat="45.54291" lon="4.80751">
        <ele>354</ele>
        <time>2013-10-26T08:20:38Z</time>
      </trkpt>
      <trkpt lat="45.54293" lon="4.8074">
        <ele>349</ele>
        <time>2013-10-26T08:20:41Z</time>
      </trkpt>
      <trkpt lat="45.54293" lon="4.80737">
        <ele>348</ele>
        <time>2013-10-26T08:20:42Z</time>
      </trkpt>
      <trkpt lat="45.54296" lon="4.80726">
        <ele>348</ele>
        <time>2013-10-26T08:20:44Z</time>
      </trkpt>
      <trkpt lat="45.54296" lon="4.80722">
        <ele>348</ele>
        <time>2013-10-26T08:20:45Z</time>
      </trkpt>
      <trkpt lat="45.54296" lon="4.80711">
        <ele>347</ele>
        <time>2013-10-26T08:20:47Z</time>
      </trkpt>
      <trkpt lat="45.54297" lon="4.80706">
        <ele>347</ele>
        <time>2013-10-26T08:20:48Z</time>
      </trkpt>
      <trkpt lat="45.54298" lon="4.80697">
        <ele>347</ele>
        <time>2013-10-26T08:20:50Z</time>
      </trkpt>
      <trkpt lat="45.54298" lon="4.80693">
        <ele>347</ele>
        <time>2013-10-26T08:20:51Z</time>
      </trkpt>
      <trkpt lat="45.54296" lon="4.80682">
        <ele>346</ele>
        <time>2013-10-26T08:21:00Z</time>
      </trkpt>
      <trkpt lat="45.54297" lon="4.80676">
        <ele>346</ele>
        <time>2013-10-26T08:21:01Z</time>
      </trkpt>
      <trkpt lat="45.5429" lon="4.80668">
        <ele>346</ele>
        <time>2013-10-26T08:21:09Z</time>
      </trkpt>
      <trkpt lat="45.54289" lon="4.80668">
        <ele>346</ele>
        <time>2013-10-26T08:21:10Z</time>
      </trkpt>
      <trkpt lat="45.54283" lon="4.80673">
        <ele>347</ele>
        <time>2013-10-26T08:21:19Z</time>
      </trkpt>
      <trkpt lat="45.54281" lon="4.80675">
        <ele>347</ele>
        <time>2013-10-26T08:21:20Z</time>
      </trkpt>
      <trkpt lat="45.54276" lon="4.80683">
        <ele>347</ele>
        <time>2013-10-26T08:21:26Z</time>
      </trkpt>
      <trkpt lat="45.54275" lon="4.80685">
        <ele>347</ele>
        <time>2013-10-26T08:21:27Z</time>
      </trkpt>
      <trkpt lat="45.54269" lon="4.80694">
        <ele>348</ele>
        <time>2013-10-26T08:21:33Z</time>
      </trkpt>
      <trkpt lat="45.54268" lon="4.80695">
        <ele>348</ele>
        <time>2013-10-26T08:21:34Z</time>
      </trkpt>
      <trkpt lat="45.54262" lon="4.80703">
        <ele>348</ele>
        <time>2013-10-26T08:21:39Z</time>
      </trkpt>
      <trkpt lat="45.54261" lon="4.80704">
        <ele>349</ele>
        <time>2013-10-26T08:21:40Z</time>
      </trkpt>
      <trkpt lat="45.54254" lon="4.8071">
        <ele>349</ele>
        <time>2013-10-26T08:21:47Z</time>
      </trkpt>
      <trkpt lat="45.54253" lon="4.80711">
        <ele>349</ele>
        <time>2013-10-26T08:21:48Z</time>
      </trkpt>
      <trkpt lat="45.54248" lon="4.80721">
        <ele>352</ele>
        <time>2013-10-26T08:21:55Z</time>
      </trkpt>
      <trkpt lat="45.54247" lon="4.80722">
        <ele>352</ele>
        <time>2013-10-26T08:21:56Z</time>
      </trkpt>
      <trkpt lat="45.54243" lon="4.80732">
        <ele>353</ele>
        <time>2013-10-26T08:22:02Z</time>
      </trkpt>
      <trkpt lat="45.54243" lon="4.80733">
        <ele>353</ele>
        <time>2013-10-26T08:22:03Z</time>
      </trkpt>
      <trkpt lat="45.54241" lon="4.80742">
        <ele>354</ele>
        <time>2013-10-26T08:22:09Z</time>
      </trkpt>
      <trkpt lat="45.54241" lon="4.80742">
        <ele>354</ele>
        <time>2013-10-26T08:22:10Z</time>
      </trkpt>
      <trkpt lat="45.5424" lon="4.80743">
        <ele>354</ele>
        <time>2013-10-26T08:22:11Z</time>
      </trkpt>
      <trkpt lat="45.54237" lon="4.80754">
        <ele>357</ele>
        <time>2013-10-26T08:22:17Z</time>
      </trkpt>
      <trkpt lat="45.54236" lon="4.80756">
        <ele>358</ele>
        <time>2013-10-26T08:22:18Z</time>
      </trkpt>
      <trkpt lat="45.54231" lon="4.80766">
        <ele>359</ele>
        <time>2013-10-26T08:22:25Z</time>
      </trkpt>
      <trkpt lat="45.5423" lon="4.80767">
        <ele>359</ele>
        <time>2013-10-26T08:22:26Z</time>
      </trkpt>
      <trkpt lat="45.54223" lon="4.80775">
        <ele>360</ele>
        <time>2013-10-26T08:22:33Z</time>
      </trkpt>
      <trkpt lat="45.54222" lon="4.80776">
        <ele>360</ele>
        <time>2013-10-26T08:22:34Z</time>
      </trkpt>
      <trkpt lat="45.54216" lon="4.80785">
        <ele>360</ele>
        <time>2013-10-26T08:22:42Z</time>
      </trkpt>
      <trkpt lat="45.54215" lon="4.80787">
        <ele>361</ele>
        <time>2013-10-26T08:22:43Z</time>
      </trkpt>
      <trkpt lat="45.54209" lon="4.80794">
        <ele>361</ele>
        <time>2013-10-26T08:22:50Z</time>
      </trkpt>
      <trkpt lat="45.54208" lon="4.80796">
        <ele>361</ele>
        <time>2013-10-26T08:22:51Z</time>
      </trkpt>
      <trkpt lat="45.54201" lon="4.80803">
        <ele>362</ele>
        <time>2013-10-26T08:22:58Z</time>
      </trkpt>
      <trkpt lat="45.542" lon="4.80805">
        <ele>362</ele>
        <time>2013-10-26T08:22:59Z</time>
      </trkpt>
      <trkpt lat="45.54193" lon="4.80813">
        <ele>363</ele>
        <time>2013-10-26T08:23:04Z</time>
      </trkpt>
      <trkpt lat="45.54193" lon="4.80813">
        <ele>363</ele>
        <time>2013-10-26T08:23:05Z</time>
      </trkpt>
      <trkpt lat="45.54186" lon="4.80819">
        <ele>365</ele>
        <time>2013-10-26T08:23:12Z</time>
      </trkpt>
      <trkpt lat="45.54185" lon="4.80819">
        <ele>365</ele>
        <time>2013-10-26T08:23:13Z</time>
      </trkpt>
      <trkpt lat="45.54178" lon="4.80826">
        <ele>367</ele>
        <time>2013-10-26T08:23:20Z</time>
      </trkpt>
      <trkpt lat="45.54177" lon="4.80826">
        <ele>367</ele>
        <time>2013-10-26T08:23:21Z</time>
      </trkpt>
      <trkpt lat="45.54168" lon="4.80829">
        <ele>369</ele>
        <time>2013-10-26T08:23:29Z</time>
      </trkpt>
      <trkpt lat="45.54167" lon="4.8083">
        <ele>370</ele>
        <time>2013-10-26T08:23:30Z</time>
      </trkpt>
      <trkpt lat="45.5416" lon="4.80836">
        <ele>371</ele>
        <time>2013-10-26T08:23:37Z</time>
      </trkpt>
      <trkpt lat="45.54159" lon="4.80837">
        <ele>372</ele>
        <time>2013-10-26T08:23:38Z</time>
      </trkpt>
      <trkpt lat="45.54151" lon="4.80839">
        <ele>372</ele>
        <time>2013-10-26T08:23:45Z</time>
      </trkpt>
      <trkpt lat="45.5415" lon="4.8084">
        <ele>372</ele>
        <time>2013-10-26T08:23:46Z</time>
      </trkpt>
      <trkpt lat="45.54143" lon="4.80845">
        <ele>372</ele>
        <time>2013-10-26T08:23:52Z</time>
      </trkpt>
      <trkpt lat="45.54142" lon="4.80846">
        <ele>372</ele>
        <time>2013-10-26T08:23:53Z</time>
      </trkpt>
      <trkpt lat="45.54136" lon="4.80853">
        <ele>372</ele>
        <time>2013-10-26T08:23:59Z</time>
      </trkpt>
      <trkpt lat="45.54136" lon="4.80855">
        <ele>372</ele>
        <time>2013-10-26T08:24:00Z</time>
      </trkpt>
      <trkpt lat="45.54131" lon="4.80862">
        <ele>373</ele>
        <time>2013-10-26T08:24:05Z</time>
      </trkpt>
      <trkpt lat="45.54129" lon="4.80865">
        <ele>373</ele>
        <time>2013-10-26T08:24:06Z</time>
      </trkpt>
      <trkpt lat="45.54123" lon="4.8087">
        <ele>373</ele>
        <time>2013-10-26T08:24:11Z</time>
      </trkpt>
      <trkpt lat="45.54121" lon="4.80872">
        <ele>373</ele>
        <time>2013-10-26T08:24:12Z</time>
      </trkpt>
      <trkpt lat="45.54115" lon="4.80877">
        <ele>373</ele>
        <time>2013-10-26T08:24:19Z</time>
      </trkpt>
      <trkpt lat="45.54112" lon="4.80878">
        <ele>373</ele>
        <time>2013-10-26T08:24:20Z</time>
      </trkpt>
      <trkpt lat="45.54107" lon="4.80886">
        <ele>374</ele>
        <time>2013-10-26T08:24:24Z</time>
      </trkpt>
      <trkpt lat="45.54106" lon="4.80888">
        <ele>374</ele>
        <time>2013-10-26T08:24:25Z</time>
      </trkpt>
      <trkpt lat="45.541" lon="4.80896">
        <ele>374</ele>
        <time>2013-10-26T08:24:29Z</time>
      </trkpt>
      <trkpt lat="45.54099" lon="4.80897">
        <ele>374</ele>
        <time>2013-10-26T08:24:30Z</time>
      </trkpt>
      <trkpt lat="45.54093" lon="4.80905">
        <ele>375</ele>
        <time>2013-10-26T08:24:34Z</time>
      </trkpt>
      <trkpt lat="45.54091" lon="4.80907">
        <ele>375</ele>
        <time>2013-10-26T08:24:35Z</time>
      </trkpt>
      <trkpt lat="45.54086" lon="4.80915">
        <ele>377</ele>
        <time>2013-10-26T08:24:39Z</time>
      </trkpt>
      <trkpt lat="45.54084" lon="4.80917">
        <ele>377</ele>
        <time>2013-10-26T08:24:40Z</time>
      </trkpt>
      <trkpt lat="45.54078" lon="4.80925">
        <ele>379</ele>
        <time>2013-10-26T08:24:44Z</time>
      </trkpt>
      <trkpt lat="45.54076" lon="4.80926">
        <ele>379</ele>
        <time>2013-10-26T08:24:45Z</time>
      </trkpt>
      <trkpt lat="45.5407" lon="4.80934">
        <ele>381</ele>
        <time>2013-10-26T08:24:50Z</time>
      </trkpt>
      <trkpt lat="45.54069" lon="4.80938">
        <ele>381</ele>
        <time>2013-10-26T08:24:51Z</time>
      </trkpt>
      <trkpt lat="45.54062" lon="4.80947">
        <ele>382</ele>
        <time>2013-10-26T08:24:56Z</time>
      </trkpt>
      <trkpt lat="45.5406" lon="4.80948">
        <ele>382</ele>
        <time>2013-10-26T08:24:57Z</time>
      </trkpt>
      <trkpt lat="45.54054" lon="4.80955">
        <ele>383</ele>
        <time>2013-10-26T08:25:01Z</time>
      </trkpt>
      <trkpt lat="45.54053" lon="4.80956">
        <ele>383</ele>
        <time>2013-10-26T08:25:02Z</time>
      </trkpt>
      <trkpt lat="45.54046" lon="4.80961">
        <ele>383</ele>
        <time>2013-10-26T08:25:06Z</time>
      </trkpt>
      <trkpt lat="45.54044" lon="4.80963">
        <ele>383</ele>
        <time>2013-10-26T08:25:07Z</time>
      </trkpt>
      <trkpt lat="45.54037" lon="4.80969">
        <ele>383</ele>
        <time>2013-10-26T08:25:11Z</time>
      </trkpt>
      <trkpt lat="45.54035" lon="4.8097">
        <ele>383</ele>
        <time>2013-10-26T08:25:12Z</time>
      </trkpt>
      <trkpt lat="45.54028" lon="4.80975">
        <ele>384</ele>
        <time>2013-10-26T08:25:16Z</time>
      </trkpt>
      <trkpt lat="45.54027" lon="4.80976">
        <ele>384</ele>
        <time>2013-10-26T08:25:17Z</time>
      </trkpt>
      <trkpt lat="45.5402" lon="4.80983">
        <ele>384</ele>
        <time>2013-10-26T08:25:22Z</time>
      </trkpt>
      <trkpt lat="45.54018" lon="4.80984">
        <ele>384</ele>
        <time>2013-10-26T08:25:23Z</time>
      </trkpt>
      <trkpt lat="45.54012" lon="4.8099">
        <ele>385</ele>
        <time>2013-10-26T08:25:27Z</time>
      </trkpt>
      <trkpt lat="45.54011" lon="4.80992">
        <ele>385</ele>
        <time>2013-10-26T08:25:28Z</time>
      </trkpt>
      <trkpt lat="45.54005" lon="4.81">
        <ele>386</ele>
        <time>2013-10-26T08:25:32Z</time>
      </trkpt>
      <trkpt lat="45.54003" lon="4.81002">
        <ele>388</ele>
        <time>2013-10-26T08:25:33Z</time>
      </trkpt>
      <trkpt lat="45.53997" lon="4.81008">
        <ele>389</ele>
        <time>2013-10-26T08:25:37Z</time>
      </trkpt>
      <trkpt lat="45.53996" lon="4.8101">
        <ele>389</ele>
        <time>2013-10-26T08:25:38Z</time>
      </trkpt>
      <trkpt lat="45.53989" lon="4.81018">
        <ele>390</ele>
        <time>2013-10-26T08:25:43Z</time>
      </trkpt>
      <trkpt lat="45.53988" lon="4.81021">
        <ele>391</ele>
        <time>2013-10-26T08:25:44Z</time>
      </trkpt>
      <trkpt lat="45.5398" lon="4.81027">
        <ele>391</ele>
        <time>2013-10-26T08:25:50Z</time>
      </trkpt>
      <trkpt lat="45.53978" lon="4.81029">
        <ele>391</ele>
        <time>2013-10-26T08:25:51Z</time>
      </trkpt>
      <trkpt lat="45.53972" lon="4.81036">
        <ele>392</ele>
        <time>2013-10-26T08:25:55Z</time>
      </trkpt>
      <trkpt lat="45.5397" lon="4.81039">
        <ele>392</ele>
        <time>2013-10-26T08:25:56Z</time>
      </trkpt>
      <trkpt lat="45.53965" lon="4.81046">
        <ele>393</ele>
        <time>2013-10-26T08:26:00Z</time>
      </trkpt>
      <trkpt lat="45.53963" lon="4.81047">
        <ele>393</ele>
        <time>2013-10-26T08:26:01Z</time>
      </trkpt>
      <trkpt lat="45.53958" lon="4.81055">
        <ele>393</ele>
        <time>2013-10-26T08:26:04Z</time>
      </trkpt>
      <trkpt lat="45.53956" lon="4.81057">
        <ele>393</ele>
        <time>2013-10-26T08:26:05Z</time>
      </trkpt>
      <trkpt lat="45.5395" lon="4.81063">
        <ele>394</ele>
        <time>2013-10-26T08:26:09Z</time>
      </trkpt>
      <trkpt lat="45.53948" lon="4.81064">
        <ele>394</ele>
        <time>2013-10-26T08:26:10Z</time>
      </trkpt>
      <trkpt lat="45.53941" lon="4.81066">
        <ele>394</ele>
        <time>2013-10-26T08:26:14Z</time>
      </trkpt>
      <trkpt lat="45.53939" lon="4.81068">
        <ele>394</ele>
        <time>2013-10-26T08:26:15Z</time>
      </trkpt>
      <trkpt lat="45.53931" lon="4.81073">
        <ele>395</ele>
        <time>2013-10-26T08:26:20Z</time>
      </trkpt>
      <trkpt lat="45.53929" lon="4.81073">
        <ele>395</ele>
        <time>2013-10-26T08:26:21Z</time>
      </trkpt>
      <trkpt lat="45.53921" lon="4.81077">
        <ele>396</ele>
        <time>2013-10-26T08:26:25Z</time>
      </trkpt>
      <trkpt lat="45.5392" lon="4.81077">
        <ele>397</ele>
        <time>2013-10-26T08:26:26Z</time>
      </trkpt>
      <trkpt lat="45.53911" lon="4.81079">
        <ele>398</ele>
        <time>2013-10-26T08:26:30Z</time>
      </trkpt>
      <trkpt lat="45.5391" lon="4.8108">
        <ele>398</ele>
        <time>2013-10-26T08:26:31Z</time>
      </trkpt>
      <trkpt lat="45.53901" lon="4.81083">
        <ele>398</ele>
        <time>2013-10-26T08:26:35Z</time>
      </trkpt>
      <trkpt lat="45.53898" lon="4.81083">
        <ele>399</ele>
        <time>2013-10-26T08:26:36Z</time>
      </trkpt>
      <trkpt lat="45.53892" lon="4.81079">
        <ele>399</ele>
        <time>2013-10-26T08:26:38Z</time>
      </trkpt>
      <trkpt lat="45.53888" lon="4.81074">
        <ele>399</ele>
        <time>2013-10-26T08:26:39Z</time>
      </trkpt>
      <trkpt lat="45.53883" lon="4.8107">
        <ele>399</ele>
        <time>2013-10-26T08:26:40Z</time>
      </trkpt>
      <trkpt lat="45.5388" lon="4.81066">
        <ele>399</ele>
        <time>2013-10-26T08:26:41Z</time>
      </trkpt>
      <trkpt lat="45.53876" lon="4.81063">
        <ele>399</ele>
        <time>2013-10-26T08:26:42Z</time>
      </trkpt>
      <trkpt lat="45.53871" lon="4.8106">
        <ele>400</ele>
        <time>2013-10-26T08:26:43Z</time>
      </trkpt>
      <trkpt lat="45.53864" lon="4.81056">
        <ele>400</ele>
        <time>2013-10-26T08:26:44Z</time>
      </trkpt>
      <trkpt lat="45.53859" lon="4.81054">
        <ele>400</ele>
        <time>2013-10-26T08:26:45Z</time>
      </trkpt>
      <trkpt lat="45.53854" lon="4.81049">
        <ele>400</ele>
        <time>2013-10-26T08:26:46Z</time>
      </trkpt>
      <trkpt lat="45.53854" lon="4.81039">
        <ele>400</ele>
        <time>2013-10-26T08:26:47Z</time>
      </trkpt>
      <trkpt lat="45.53851" lon="4.81028">
        <ele>401</ele>
        <time>2013-10-26T08:26:48Z</time>
      </trkpt>
      <trkpt lat="45.53854" lon="4.81019">
        <ele>401</ele>
        <time>2013-10-26T08:26:49Z</time>
      </trkpt>
      <trkpt lat="45.53856" lon="4.81011">
        <ele>401</ele>
        <time>2013-10-26T08:26:50Z</time>
      </trkpt>
      <trkpt lat="45.53861" lon="4.81008">
        <ele>400</ele>
        <time>2013-10-26T08:26:51Z</time>
      </trkpt>
      <trkpt lat="45.53864" lon="4.81004">
        <ele>400</ele>
        <time>2013-10-26T08:26:52Z</time>
      </trkpt>
      <trkpt lat="45.53868" lon="4.80999">
        <ele>400</ele>
        <time>2013-10-26T08:26:53Z</time>
      </trkpt>
      <trkpt lat="45.53874" lon="4.80991">
        <ele>399</ele>
        <time>2013-10-26T08:26:55Z</time>
      </trkpt>
      <trkpt lat="45.53876" lon="4.80989">
        <ele>399</ele>
        <time>2013-10-26T08:26:56Z</time>
      </trkpt>
      <trkpt lat="45.53882" lon="4.8098">
        <ele>398</ele>
        <time>2013-10-26T08:26:59Z</time>
      </trkpt>
      <trkpt lat="45.53883" lon="4.80977">
        <ele>398</ele>
        <time>2013-10-26T08:27:00Z</time>
      </trkpt>
      <trkpt lat="45.53889" lon="4.80969">
        <ele>398</ele>
        <time>2013-10-26T08:27:03Z</time>
      </trkpt>
      <trkpt lat="45.5389" lon="4.80965">
        <ele>398</ele>
        <time>2013-10-26T08:27:04Z</time>
      </trkpt>
      <trkpt lat="45.53895" lon="4.80957">
        <ele>398</ele>
        <time>2013-10-26T08:27:06Z</time>
      </trkpt>
      <trkpt lat="45.53897" lon="4.80954">
        <ele>398</ele>
        <time>2013-10-26T08:27:07Z</time>
      </trkpt>
      <trkpt lat="45.53902" lon="4.80946">
        <ele>398</ele>
        <time>2013-10-26T08:27:10Z</time>
      </trkpt>
      <trkpt lat="45.53903" lon="4.80944">
        <ele>398</ele>
        <time>2013-10-26T08:27:11Z</time>
      </trkpt>
      <trkpt lat="45.53908" lon="4.80937">
        <ele>397</ele>
        <time>2013-10-26T08:27:14Z</time>
      </trkpt>
      <trkpt lat="45.53909" lon="4.80934">
        <ele>397</ele>
        <time>2013-10-26T08:27:15Z</time>
      </trkpt>
      <trkpt lat="45.53914" lon="4.80923">
        <ele>396</ele>
        <time>2013-10-26T08:27:18Z</time>
      </trkpt>
      <trkpt lat="45.53917" lon="4.80918">
        <ele>395</ele>
        <time>2013-10-26T08:27:19Z</time>
      </trkpt>
      <trkpt lat="45.53914" lon="4.80907">
        <ele>397</ele>
        <time>2013-10-26T08:27:31Z</time>
      </trkpt>
      <trkpt lat="45.53913" lon="4.80906">
        <ele>397</ele>
        <time>2013-10-26T08:27:32Z</time>
      </trkpt>
      <trkpt lat="45.53912" lon="4.80903">
        <ele>397</ele>
        <time>2013-10-26T08:27:36Z</time>
      </trkpt>
      <trkpt lat="45.53912" lon="4.80903">
        <ele>397</ele>
        <time>2013-10-26T08:27:37Z</time>
      </trkpt>
      <trkpt lat="45.53911" lon="4.80902">
        <ele>398</ele>
        <time>2013-10-26T08:27:38Z</time>
      </trkpt>
      <trkpt lat="45.53911" lon="4.80902">
        <ele>398</ele>
        <time>2013-10-26T08:27:39Z</time>
      </trkpt>
      <trkpt lat="45.53911" lon="4.80902">
        <ele>398</ele>
        <time>2013-10-26T08:27:40Z</time>
      </trkpt>
      <trkpt lat="45.53907" lon="4.80896">
        <ele>398</ele>
        <time>2013-10-26T08:27:47Z</time>
      </trkpt>
      <trkpt lat="45.53907" lon="4.80895">
        <ele>398</ele>
        <time>2013-10-26T08:27:48Z</time>
      </trkpt>
      <trkpt lat="45.53907" lon="4.80895">
        <ele>398</ele>
        <time>2013-10-26T08:27:49Z</time>
      </trkpt>
      <trkpt lat="45.53907" lon="4.80895">
        <ele>398</ele>
        <time>2013-10-26T08:27:50Z</time>
      </trkpt>
      <trkpt lat="45.53899" lon="4.80891">
        <ele>399</ele>
        <time>2013-10-26T08:27:54Z</time>
      </trkpt>
      <trkpt lat="45.53897" lon="4.80889">
        <ele>399</ele>
        <time>2013-10-26T08:27:55Z</time>
      </trkpt>
      <trkpt lat="45.53889" lon="4.80888">
        <ele>400</ele>
        <time>2013-10-26T08:28:02Z</time>
      </trkpt>
      <trkpt lat="45.53887" lon="4.80887">
        <ele>400</ele>
        <time>2013-10-26T08:28:03Z</time>
      </trkpt>
      <trkpt lat="45.53879" lon="4.80883">
        <ele>401</ele>
        <time>2013-10-26T08:28:09Z</time>
      </trkpt>
      <trkpt lat="45.53877" lon="4.80883">
        <ele>401</ele>
        <time>2013-10-26T08:28:10Z</time>
      </trkpt>
      <trkpt lat="45.53869" lon="4.80879">
        <ele>401</ele>
        <time>2013-10-26T08:28:16Z</time>
      </trkpt>
      <trkpt lat="45.53867" lon="4.80879">
        <ele>401</ele>
        <time>2013-10-26T08:28:17Z</time>
      </trkpt>
      <trkpt lat="45.53859" lon="4.80879">
        <ele>402</ele>
        <time>2013-10-26T08:28:21Z</time>
      </trkpt>
      <trkpt lat="45.53857" lon="4.80879">
        <ele>402</ele>
        <time>2013-10-26T08:28:22Z</time>
      </trkpt>
      <trkpt lat="45.5385" lon="4.80881">
        <ele>403</ele>
        <time>2013-10-26T08:28:28Z</time>
      </trkpt>
      <trkpt lat="45.53848" lon="4.80881">
        <ele>403</ele>
        <time>2013-10-26T08:28:29Z</time>
      </trkpt>
      <trkpt lat="45.5384" lon="4.80883">
        <ele>403</ele>
        <time>2013-10-26T08:28:34Z</time>
      </trkpt>
      <trkpt lat="45.53839" lon="4.80884">
        <ele>404</ele>
        <time>2013-10-26T08:28:35Z</time>
      </trkpt>
      <trkpt lat="45.53831" lon="4.80889">
        <ele>411</ele>
        <time>2013-10-26T08:28:43Z</time>
      </trkpt>
      <trkpt lat="45.5383" lon="4.80891">
        <ele>411</ele>
        <time>2013-10-26T08:28:44Z</time>
      </trkpt>
      <trkpt lat="45.53823" lon="4.80893">
        <ele>411</ele>
        <time>2013-10-26T08:28:49Z</time>
      </trkpt>
      <trkpt lat="45.5382" lon="4.80892">
        <ele>412</ele>
        <time>2013-10-26T08:28:50Z</time>
      </trkpt>
      <trkpt lat="45.53812" lon="4.80894">
        <ele>412</ele>
        <time>2013-10-26T08:28:57Z</time>
      </trkpt>
      <trkpt lat="45.53811" lon="4.80895">
        <ele>412</ele>
        <time>2013-10-26T08:28:58Z</time>
      </trkpt>
      <trkpt lat="45.53803" lon="4.80897">
        <ele>413</ele>
        <time>2013-10-26T08:29:02Z</time>
      </trkpt>
      <trkpt lat="45.53802" lon="4.80897">
        <ele>413</ele>
        <time>2013-10-26T08:29:03Z</time>
      </trkpt>
      <trkpt lat="45.53794" lon="4.80903">
        <ele>414</ele>
        <time>2013-10-26T08:29:08Z</time>
      </trkpt>
      <trkpt lat="45.53792" lon="4.80905">
        <ele>414</ele>
        <time>2013-10-26T08:29:09Z</time>
      </trkpt>
      <trkpt lat="45.53785" lon="4.8091">
        <ele>415</ele>
        <time>2013-10-26T08:29:15Z</time>
      </trkpt>
      <trkpt lat="45.53783" lon="4.80911">
        <ele>415</ele>
        <time>2013-10-26T08:29:16Z</time>
      </trkpt>
      <trkpt lat="45.53778" lon="4.80918">
        <ele>418</ele>
        <time>2013-10-26T08:29:21Z</time>
      </trkpt>
      <trkpt lat="45.53777" lon="4.80919">
        <ele>418</ele>
        <time>2013-10-26T08:29:22Z</time>
      </trkpt>
      <trkpt lat="45.53773" lon="4.80929">
        <ele>419</ele>
        <time>2013-10-26T08:29:27Z</time>
      </trkpt>
      <trkpt lat="45.53772" lon="4.80931">
        <ele>419</ele>
        <time>2013-10-26T08:29:28Z</time>
      </trkpt>
      <trkpt lat="45.5377" lon="4.80938">
        <ele>419</ele>
        <time>2013-10-26T08:29:31Z</time>
      </trkpt>
      <trkpt lat="45.53769" lon="4.80938">
        <ele>419</ele>
        <time>2013-10-26T08:29:32Z</time>
      </trkpt>
      <trkpt lat="45.5377" lon="4.80939">
        <ele>418</ele>
        <time>2013-10-26T08:29:33Z</time>
      </trkpt>
      <trkpt lat="45.53769" lon="4.80942">
        <ele>419</ele>
        <time>2013-10-26T08:29:34Z</time>
      </trkpt>
      <trkpt lat="45.53761" lon="4.80945">
        <ele>419</ele>
        <time>2013-10-26T08:29:40Z</time>
      </trkpt>
      <trkpt lat="45.5376" lon="4.80946">
        <ele>419</ele>
        <time>2013-10-26T08:29:41Z</time>
      </trkpt>
      <trkpt lat="45.53752" lon="4.80949">
        <ele>419</ele>
        <time>2013-10-26T08:29:46Z</time>
      </trkpt>
      <trkpt lat="45.53751" lon="4.80953">
        <ele>419</ele>
        <time>2013-10-26T08:29:47Z</time>
      </trkpt>
      <trkpt lat="45.53745" lon="4.80959">
        <ele>428</ele>
        <time>2013-10-26T08:29:57Z</time>
      </trkpt>
      <trkpt lat="45.53743" lon="4.80961">
        <ele>429</ele>
        <time>2013-10-26T08:29:58Z</time>
      </trkpt>
      <trkpt lat="45.53735" lon="4.80968">
        <ele>429</ele>
        <time>2013-10-26T08:30:04Z</time>
      </trkpt>
      <trkpt lat="45.53734" lon="4.80969">
        <ele>429</ele>
        <time>2013-10-26T08:30:05Z</time>
      </trkpt>
      <trkpt lat="45.53726" lon="4.8097">
        <ele>430</ele>
        <time>2013-10-26T08:30:11Z</time>
      </trkpt>
      <trkpt lat="45.53725" lon="4.80969">
        <ele>430</ele>
        <time>2013-10-26T08:30:12Z</time>
      </trkpt>
      <trkpt lat="45.53721" lon="4.80957">
        <ele>430</ele>
        <time>2013-10-26T08:30:30Z</time>
      </trkpt>
      <trkpt lat="45.53721" lon="4.80956">
        <ele>430</ele>
        <time>2013-10-26T08:30:31Z</time>
      </trkpt>
      <trkpt lat="45.53724" lon="4.80945">
        <ele>429</ele>
        <time>2013-10-26T08:30:43Z</time>
      </trkpt>
      <trkpt lat="45.53725" lon="4.80942">
        <ele>429</ele>
        <time>2013-10-26T08:30:44Z</time>
      </trkpt>
      <trkpt lat="45.53721" lon="4.80931">
        <ele>429</ele>
        <time>2013-10-26T08:30:50Z</time>
      </trkpt>
      <trkpt lat="45.53721" lon="4.80928">
        <ele>428</ele>
        <time>2013-10-26T08:30:51Z</time>
      </trkpt>
      <trkpt lat="45.53717" lon="4.8092">
        <ele>429</ele>
        <time>2013-10-26T08:30:57Z</time>
      </trkpt>
      <trkpt lat="45.53715" lon="4.80918">
        <ele>429</ele>
        <time>2013-10-26T08:30:58Z</time>
      </trkpt>
      <trkpt lat="45.53707" lon="4.80911">
        <ele>424</ele>
        <time>2013-10-26T08:31:02Z</time>
      </trkpt>
      <trkpt lat="45.53706" lon="4.8091">
        <ele>424</ele>
        <time>2013-10-26T08:31:03Z</time>
      </trkpt>
      <trkpt lat="45.53699" lon="4.80905">
        <ele>425</ele>
        <time>2013-10-26T08:31:07Z</time>
      </trkpt>
      <trkpt lat="45.53697" lon="4.80903">
        <ele>425</ele>
        <time>2013-10-26T08:31:08Z</time>
      </trkpt>
      <trkpt lat="45.5369" lon="4.80896">
        <ele>425</ele>
        <time>2013-10-26T08:31:16Z</time>
      </trkpt>
      <trkpt lat="45.53689" lon="4.80895">
        <ele>425</ele>
        <time>2013-10-26T08:31:17Z</time>
      </trkpt>
      <trkpt lat="45.53682" lon="4.80891">
        <ele>425</ele>
        <time>2013-10-26T08:31:22Z</time>
      </trkpt>
      <trkpt lat="45.53681" lon="4.80888">
        <ele>424</ele>
        <time>2013-10-26T08:31:23Z</time>
      </trkpt>
      <trkpt lat="45.53673" lon="4.80883">
        <ele>424</ele>
        <time>2013-10-26T08:31:26Z</time>
      </trkpt>
      <trkpt lat="45.5367" lon="4.80882">
        <ele>424</ele>
        <time>2013-10-26T08:31:27Z</time>
      </trkpt>
      <trkpt lat="45.53664" lon="4.80878">
        <ele>428</ele>
        <time>2013-10-26T08:31:30Z</time>
      </trkpt>
      <trkpt lat="45.53662" lon="4.80877">
        <ele>428</ele>
        <time>2013-10-26T08:31:31Z</time>
      </trkpt>
      <trkpt lat="45.53656" lon="4.80868">
        <ele>427</ele>
        <time>2013-10-26T08:31:37Z</time>
      </trkpt>
      <trkpt lat="45.53655" lon="4.80867">
        <ele>427</ele>
        <time>2013-10-26T08:31:38Z</time>
      </trkpt>
      <trkpt lat="45.53649" lon="4.80864">
        <ele>427</ele>
        <time>2013-10-26T08:31:39Z</time>
      </trkpt>
      <trkpt lat="45.53645" lon="4.80861">
        <ele>427</ele>
        <time>2013-10-26T08:31:40Z</time>
      </trkpt>
      <trkpt lat="45.53639" lon="4.80856">
        <ele>427</ele>
        <time>2013-10-26T08:31:42Z</time>
      </trkpt>
      <trkpt lat="45.53636" lon="4.80853">
        <ele>427</ele>
        <time>2013-10-26T08:31:43Z</time>
      </trkpt>
      <trkpt lat="45.53631" lon="4.80846">
        <ele>427</ele>
        <time>2013-10-26T08:31:45Z</time>
      </trkpt>
      <trkpt lat="45.53626" lon="4.80843">
        <ele>427</ele>
        <time>2013-10-26T08:31:46Z</time>
      </trkpt>
      <trkpt lat="45.5362" lon="4.8084">
        <ele>427</ele>
        <time>2013-10-26T08:31:47Z</time>
      </trkpt>
      <trkpt lat="45.53615" lon="4.80838">
        <ele>427</ele>
        <time>2013-10-26T08:31:48Z</time>
      </trkpt>
      <trkpt lat="45.5361" lon="4.80831">
        <ele>419</ele>
        <time>2013-10-26T08:31:50Z</time>
      </trkpt>
      <trkpt lat="45.53604" lon="4.80829">
        <ele>419</ele>
        <time>2013-10-26T08:31:51Z</time>
      </trkpt>
      <trkpt lat="45.53599" lon="4.80824">
        <ele>420</ele>
        <time>2013-10-26T08:31:53Z</time>
      </trkpt>
      <trkpt lat="45.53597" lon="4.8082">
        <ele>420</ele>
        <time>2013-10-26T08:31:54Z</time>
      </trkpt>
      <trkpt lat="45.53591" lon="4.80818">
        <ele>420</ele>
        <time>2013-10-26T08:31:56Z</time>
      </trkpt>
      <trkpt lat="45.53588" lon="4.80816">
        <ele>420</ele>
        <time>2013-10-26T08:31:57Z</time>
      </trkpt>
      <trkpt lat="45.53586" lon="4.8081">
        <ele>419</ele>
        <time>2013-10-26T08:31:58Z</time>
      </trkpt>
      <trkpt lat="45.53581" lon="4.80802">
        <ele>424</ele>
        <time>2013-10-26T08:31:59Z</time>
      </trkpt>
      <trkpt lat="45.53578" lon="4.80797">
        <ele>423</ele>
        <time>2013-10-26T08:32:00Z</time>
      </trkpt>
      <trkpt lat="45.53574" lon="4.80793">
        <ele>423</ele>
        <time>2013-10-26T08:32:01Z</time>
      </trkpt>
      <trkpt lat="45.53569" lon="4.80785">
        <ele>422</ele>
        <time>2013-10-26T08:32:03Z</time>
      </trkpt>
      <trkpt lat="45.53564" lon="4.80779">
        <ele>422</ele>
        <time>2013-10-26T08:32:04Z</time>
      </trkpt>
      <trkpt lat="45.53555" lon="4.80778">
        <ele>423</ele>
        <time>2013-10-26T08:32:06Z</time>
      </trkpt>
      <trkpt lat="45.53552" lon="4.80774">
        <ele>423</ele>
        <time>2013-10-26T08:32:07Z</time>
      </trkpt>
      <trkpt lat="45.53546" lon="4.80767">
        <ele>423</ele>
        <time>2013-10-26T08:32:10Z</time>
      </trkpt>
      <trkpt lat="45.53543" lon="4.80765">
        <ele>423</ele>
        <time>2013-10-26T08:32:11Z</time>
      </trkpt>
      <trkpt lat="45.53535" lon="4.80763">
        <ele>424</ele>
        <time>2013-10-26T08:32:15Z</time>
      </trkpt>
      <trkpt lat="45.53533" lon="4.80762">
        <ele>425</ele>
        <time>2013-10-26T08:32:16Z</time>
      </trkpt>
      <trkpt lat="45.53525" lon="4.8076">
        <ele>425</ele>
        <time>2013-10-26T08:32:19Z</time>
      </trkpt>
      <trkpt lat="45.53524" lon="4.80759">
        <ele>425</ele>
        <time>2013-10-26T08:32:20Z</time>
      </trkpt>
      <trkpt lat="45.53521" lon="4.80747">
        <ele>421</ele>
        <time>2013-10-26T08:32:29Z</time>
      </trkpt>
      <trkpt lat="45.53521" lon="4.80746">
        <ele>421</ele>
        <time>2013-10-26T08:32:30Z</time>
      </trkpt>
      <trkpt lat="45.53523" lon="4.80745">
        <ele>420</ele>
        <time>2013-10-26T08:32:33Z</time>
      </trkpt>
      <trkpt lat="45.53523" lon="4.80745">
        <ele>420</ele>
        <time>2013-10-26T08:32:34Z</time>
      </trkpt>
      <trkpt lat="45.53523" lon="4.80744">
        <ele>420</ele>
        <time>2013-10-26T08:32:35Z</time>
      </trkpt>
      <trkpt lat="45.53523" lon="4.80745">
        <ele>420</ele>
        <time>2013-10-26T08:32:36Z</time>
      </trkpt>
      <trkpt lat="45.53524" lon="4.80743">
        <ele>420</ele>
        <time>2013-10-26T08:32:39Z</time>
      </trkpt>
      <trkpt lat="45.53524" lon="4.80743">
        <ele>420</ele>
        <time>2013-10-26T08:32:40Z</time>
      </trkpt>
      <trkpt lat="45.53524" lon="4.80743">
        <ele>420</ele>
        <time>2013-10-26T08:32:41Z</time>
      </trkpt>
      <trkpt lat="45.53524" lon="4.80742">
        <ele>420</ele>
        <time>2013-10-26T08:32:43Z</time>
      </trkpt>
      <trkpt lat="45.53524" lon="4.80742">
        <ele>420</ele>
        <time>2013-10-26T08:32:44Z</time>
      </trkpt>
      <trkpt lat="45.53524" lon="4.80742">
        <ele>420</ele>
        <time>2013-10-26T08:32:45Z</time>
      </trkpt>
      <trkpt lat="45.53525" lon="4.80738">
        <ele>419</ele>
        <time>2013-10-26T08:32:46Z</time>
      </trkpt>
      <trkpt lat="45.5353" lon="4.8073">
        <ele>418</ele>
        <time>2013-10-26T08:32:51Z</time>
      </trkpt>
      <trkpt lat="45.53532" lon="4.80724">
        <ele>417</ele>
        <time>2013-10-26T08:32:52Z</time>
      </trkpt>
      <trkpt lat="45.53536" lon="4.80715">
        <ele>417</ele>
        <time>2013-10-26T08:32:54Z</time>
      </trkpt>
      <trkpt lat="45.53537" lon="4.80712">
        <ele>416</ele>
        <time>2013-10-26T08:32:55Z</time>
      </trkpt>
      <trkpt lat="45.5354" lon="4.80702">
        <ele>415</ele>
        <time>2013-10-26T08:33:00Z</time>
      </trkpt>
      <trkpt lat="45.53541" lon="4.80699">
        <ele>415</ele>
        <time>2013-10-26T08:33:01Z</time>
      </trkpt>
      <trkpt lat="45.53542" lon="4.80689">
        <ele>415</ele>
        <time>2013-10-26T08:33:07Z</time>
      </trkpt>
      <trkpt lat="45.53542" lon="4.80689">
        <ele>415</ele>
        <time>2013-10-26T08:33:08Z</time>
      </trkpt>
      <trkpt lat="45.53542" lon="4.80689">
        <ele>415</ele>
        <time>2013-10-26T08:33:09Z</time>
      </trkpt>
      <trkpt lat="45.53542" lon="4.80689">
        <ele>415</ele>
        <time>2013-10-26T08:33:10Z</time>
      </trkpt>
      <trkpt lat="45.53542" lon="4.80689">
        <ele>415</ele>
        <time>2013-10-26T08:33:11Z</time>
      </trkpt>
      <trkpt lat="45.53543" lon="4.80689">
        <ele>415</ele>
        <time>2013-10-26T08:33:12Z</time>
      </trkpt>
      <trkpt lat="45.53543" lon="4.80688">
        <ele>414</ele>
        <time>2013-10-26T08:33:14Z</time>
      </trkpt>
      <trkpt lat="45.53543" lon="4.80688">
        <ele>414</ele>
        <time>2013-10-26T08:33:15Z</time>
      </trkpt>
      <trkpt lat="45.53543" lon="4.80688">
        <ele>414</ele>
        <time>2013-10-26T08:33:24Z</time>
      </trkpt>
      <trkpt lat="45.53543" lon="4.80687">
        <ele>414</ele>
        <time>2013-10-26T08:33:25Z</time>
      </trkpt>
      <trkpt lat="45.53541" lon="4.80679">
        <ele>415</ele>
        <time>2013-10-26T08:33:27Z</time>
      </trkpt>
      <trkpt lat="45.53541" lon="4.80674">
        <ele>414</ele>
        <time>2013-10-26T08:33:28Z</time>
      </trkpt>
      <trkpt lat="45.53538" lon="4.80662">
        <ele>412</ele>
        <time>2013-10-26T08:33:31Z</time>
      </trkpt>
      <trkpt lat="45.53537" lon="4.8066">
        <ele>412</ele>
        <time>2013-10-26T08:33:32Z</time>
      </trkpt>
      <trkpt lat="45.53537" lon="4.80647">
        <ele>412</ele>
        <time>2013-10-26T08:33:35Z</time>
      </trkpt>
      <trkpt lat="45.53535" lon="4.80644">
        <ele>412</ele>
        <time>2013-10-26T08:33:36Z</time>
      </trkpt>
      <trkpt lat="45.5353" lon="4.80638">
        <ele>413</ele>
        <time>2013-10-26T08:33:38Z</time>
      </trkpt>
      <trkpt lat="45.53527" lon="4.80634">
        <ele>413</ele>
        <time>2013-10-26T08:33:39Z</time>
      </trkpt>
      <trkpt lat="45.53523" lon="4.80624">
        <ele>413</ele>
        <time>2013-10-26T08:33:43Z</time>
      </trkpt>
      <trkpt lat="45.53522" lon="4.80621">
        <ele>413</ele>
        <time>2013-10-26T08:33:44Z</time>
      </trkpt>
      <trkpt lat="45.53517" lon="4.80613">
        <ele>413</ele>
        <time>2013-10-26T08:33:47Z</time>
      </trkpt>
      <trkpt lat="45.53515" lon="4.80611">
        <ele>413</ele>
        <time>2013-10-26T08:33:48Z</time>
      </trkpt>
      <trkpt lat="45.53509" lon="4.80602">
        <ele>414</ele>
        <time>2013-10-26T08:33:52Z</time>
      </trkpt>
      <trkpt lat="45.53509" lon="4.80599">
        <ele>414</ele>
        <time>2013-10-26T08:33:53Z</time>
      </trkpt>
      <trkpt lat="45.53507" lon="4.80587">
        <ele>415</ele>
        <time>2013-10-26T08:33:57Z</time>
      </trkpt>
      <trkpt lat="45.53506" lon="4.80585">
        <ele>415</ele>
        <time>2013-10-26T08:33:58Z</time>
      </trkpt>
      <trkpt lat="45.5351" lon="4.80577">
        <ele>415</ele>
        <time>2013-10-26T08:34:02Z</time>
      </trkpt>
      <trkpt lat="45.53511" lon="4.80574">
        <ele>415</ele>
        <time>2013-10-26T08:34:03Z</time>
      </trkpt>
      <trkpt lat="45.53513" lon="4.80562">
        <ele>414</ele>
        <time>2013-10-26T08:34:07Z</time>
      </trkpt>
      <trkpt lat="45.53513" lon="4.80558">
        <ele>414</ele>
        <time>2013-10-26T08:34:08Z</time>
      </trkpt>
      <trkpt lat="45.53512" lon="4.80548">
        <ele>414</ele>
        <time>2013-10-26T08:34:11Z</time>
      </trkpt>
      <trkpt lat="45.53513" lon="4.80545">
        <ele>414</ele>
        <time>2013-10-26T08:34:12Z</time>
      </trkpt>
      <trkpt lat="45.53511" lon="4.80535">
        <ele>415</ele>
        <time>2013-10-26T08:34:17Z</time>
      </trkpt>
      <trkpt lat="45.53509" lon="4.80532">
        <ele>415</ele>
        <time>2013-10-26T08:34:18Z</time>
      </trkpt>
      <trkpt lat="45.53505" lon="4.80521">
        <ele>415</ele>
        <time>2013-10-26T08:34:22Z</time>
      </trkpt>
      <trkpt lat="45.53504" lon="4.80518">
        <ele>416</ele>
        <time>2013-10-26T08:34:23Z</time>
      </trkpt>
      <trkpt lat="45.53503" lon="4.80509">
        <ele>417</ele>
        <time>2013-10-26T08:34:28Z</time>
      </trkpt>
      <trkpt lat="45.53504" lon="4.80505">
        <ele>417</ele>
        <time>2013-10-26T08:34:29Z</time>
      </trkpt>
      <trkpt lat="45.53504" lon="4.80497">
        <ele>418</ele>
        <time>2013-10-26T08:34:36Z</time>
      </trkpt>
      <trkpt lat="45.53504" lon="4.80492">
        <ele>418</ele>
        <time>2013-10-26T08:34:37Z</time>
      </trkpt>
      <trkpt lat="45.53502" lon="4.80483">
        <ele>417</ele>
        <time>2013-10-26T08:34:51Z</time>
      </trkpt>
      <trkpt lat="45.53502" lon="4.80483">
        <ele>417</ele>
        <time>2013-10-26T08:34:52Z</time>
      </trkpt>
      <trkpt lat="45.53502" lon="4.80482">
        <ele>417</ele>
        <time>2013-10-26T08:34:56Z</time>
      </trkpt>
      <trkpt lat="45.53502" lon="4.80482">
        <ele>417</ele>
        <time>2013-10-26T08:34:57Z</time>
      </trkpt>
      <trkpt lat="45.53502" lon="4.80481">
        <ele>417</ele>
        <time>2013-10-26T08:34:58Z</time>
      </trkpt>
      <trkpt lat="45.53503" lon="4.80481">
        <ele>417</ele>
        <time>2013-10-26T08:34:59Z</time>
      </trkpt>
      <trkpt lat="45.53503" lon="4.80481">
        <ele>417</ele>
        <time>2013-10-26T08:35:00Z</time>
      </trkpt>
      <trkpt lat="45.53503" lon="4.80481">
        <ele>417</ele>
        <time>2013-10-26T08:35:01Z</time>
      </trkpt>
      <trkpt lat="45.53503" lon="4.8048">
        <ele>417</ele>
        <time>2013-10-26T08:35:12Z</time>
      </trkpt>
      <trkpt lat="45.53503" lon="4.8048">
        <ele>417</ele>
        <time>2013-10-26T08:35:13Z</time>
      </trkpt>
      <trkpt lat="45.53505" lon="4.80469">
        <ele>417</ele>
        <time>2013-10-26T08:35:16Z</time>
      </trkpt>
      <trkpt lat="45.53506" lon="4.80467">
        <ele>417</ele>
        <time>2013-10-26T08:35:17Z</time>
      </trkpt>
      <trkpt lat="45.5351" lon="4.80456">
        <ele>417</ele>
        <time>2013-10-26T08:35:24Z</time>
      </trkpt>
      <trkpt lat="45.5351" lon="4.80455">
        <ele>417</ele>
        <time>2013-10-26T08:35:25Z</time>
      </trkpt>
      <trkpt lat="45.53513" lon="4.80443">
        <ele>418</ele>
        <time>2013-10-26T08:35:30Z</time>
      </trkpt>
      <trkpt lat="45.53513" lon="4.80442">
        <ele>418</ele>
        <time>2013-10-26T08:35:31Z</time>
      </trkpt>
      <trkpt lat="45.53516" lon="4.8043">
        <ele>418</ele>
        <time>2013-10-26T08:35:41Z</time>
      </trkpt>
      <trkpt lat="45.53516" lon="4.80428">
        <ele>418</ele>
        <time>2013-10-26T08:35:42Z</time>
      </trkpt>
      <trkpt lat="45.5351" lon="4.8042">
        <ele>419</ele>
        <time>2013-10-26T08:35:49Z</time>
      </trkpt>
      <trkpt lat="45.53509" lon="4.80419">
        <ele>419</ele>
        <time>2013-10-26T08:35:50Z</time>
      </trkpt>
      <trkpt lat="45.535" lon="4.80415">
        <ele>420</ele>
        <time>2013-10-26T08:35:57Z</time>
      </trkpt>
      <trkpt lat="45.53499" lon="4.80416">
        <ele>421</ele>
        <time>2013-10-26T08:35:58Z</time>
      </trkpt>
      <trkpt lat="45.5349" lon="4.80414">
        <ele>422</ele>
        <time>2013-10-26T08:36:02Z</time>
      </trkpt>
      <trkpt lat="45.53488" lon="4.80412">
        <ele>422</ele>
        <time>2013-10-26T08:36:03Z</time>
      </trkpt>
      <trkpt lat="45.53479" lon="4.80413">
        <ele>422</ele>
        <time>2013-10-26T08:36:10Z</time>
      </trkpt>
      <trkpt lat="45.53478" lon="4.80413">
        <ele>422</ele>
        <time>2013-10-26T08:36:11Z</time>
      </trkpt>
      <trkpt lat="45.5347" lon="4.80408">
        <ele>423</ele>
        <time>2013-10-26T08:36:16Z</time>
      </trkpt>
      <trkpt lat="45.53468" lon="4.80408">
        <ele>423</ele>
        <time>2013-10-26T08:36:17Z</time>
      </trkpt>
      <trkpt lat="45.5346" lon="4.80406">
        <ele>424</ele>
        <time>2013-10-26T08:36:25Z</time>
      </trkpt>
      <trkpt lat="45.53459" lon="4.80406">
        <ele>424</ele>
        <time>2013-10-26T08:36:26Z</time>
      </trkpt>
      <trkpt lat="45.5345" lon="4.80404">
        <ele>425</ele>
        <time>2013-10-26T08:36:31Z</time>
      </trkpt>
      <trkpt lat="45.53449" lon="4.80404">
        <ele>425</ele>
        <time>2013-10-26T08:36:32Z</time>
      </trkpt>
      <trkpt lat="45.53442" lon="4.80399">
        <ele>426</ele>
        <time>2013-10-26T08:36:37Z</time>
      </trkpt>
      <trkpt lat="45.53441" lon="4.80398">
        <ele>426</ele>
        <time>2013-10-26T08:36:38Z</time>
      </trkpt>
      <trkpt lat="45.53434" lon="4.80395">
        <ele>426</ele>
        <time>2013-10-26T08:36:43Z</time>
      </trkpt>
      <trkpt lat="45.53431" lon="4.80394">
        <ele>426</ele>
        <time>2013-10-26T08:36:44Z</time>
      </trkpt>
      <trkpt lat="45.53423" lon="4.80394">
        <ele>427</ele>
        <time>2013-10-26T08:36:51Z</time>
      </trkpt>
      <trkpt lat="45.53422" lon="4.80394">
        <ele>427</ele>
        <time>2013-10-26T08:36:52Z</time>
      </trkpt>
      <trkpt lat="45.53413" lon="4.80395">
        <ele>435</ele>
        <time>2013-10-26T08:36:57Z</time>
      </trkpt>
      <trkpt lat="45.53411" lon="4.80395">
        <ele>435</ele>
        <time>2013-10-26T08:36:58Z</time>
      </trkpt>
      <trkpt lat="45.53403" lon="4.80395">
        <ele>436</ele>
        <time>2013-10-26T08:37:04Z</time>
      </trkpt>
      <trkpt lat="45.53401" lon="4.80395">
        <ele>436</ele>
        <time>2013-10-26T08:37:05Z</time>
      </trkpt>
      <trkpt lat="45.53393" lon="4.80391">
        <ele>436</ele>
        <time>2013-10-26T08:37:12Z</time>
      </trkpt>
      <trkpt lat="45.53392" lon="4.80392">
        <ele>436</ele>
        <time>2013-10-26T08:37:13Z</time>
      </trkpt>
      <trkpt lat="45.53384" lon="4.80397">
        <ele>437</ele>
        <time>2013-10-26T08:37:20Z</time>
      </trkpt>
      <trkpt lat="45.53384" lon="4.80397">
        <ele>437</ele>
        <time>2013-10-26T08:37:21Z</time>
      </trkpt>
      <trkpt lat="45.53383" lon="4.80399">
        <ele>437</ele>
        <time>2013-10-26T08:37:22Z</time>
      </trkpt>
      <trkpt lat="45.53374" lon="4.80404">
        <ele>438</ele>
        <time>2013-10-26T08:37:32Z</time>
      </trkpt>
      <trkpt lat="45.53374" lon="4.80404">
        <ele>439</ele>
        <time>2013-10-26T08:37:33Z</time>
      </trkpt>
      <trkpt lat="45.53366" lon="4.80408">
        <ele>440</ele>
        <time>2013-10-26T08:37:41Z</time>
      </trkpt>
      <trkpt lat="45.53364" lon="4.80408">
        <ele>440</ele>
        <time>2013-10-26T08:37:42Z</time>
      </trkpt>
      <trkpt lat="45.53356" lon="4.80409">
        <ele>441</ele>
        <time>2013-10-26T08:37:51Z</time>
      </trkpt>
      <trkpt lat="45.53355" lon="4.80408">
        <ele>441</ele>
        <time>2013-10-26T08:37:52Z</time>
      </trkpt>
      <trkpt lat="45.53348" lon="4.80411">
        <ele>443</ele>
        <time>2013-10-26T08:37:59Z</time>
      </trkpt>
      <trkpt lat="45.53346" lon="4.80411">
        <ele>444</ele>
        <time>2013-10-26T08:38:00Z</time>
      </trkpt>
      <trkpt lat="45.53338" lon="4.80411">
        <ele>445</ele>
        <time>2013-10-26T08:38:06Z</time>
      </trkpt>
      <trkpt lat="45.53337" lon="4.80412">
        <ele>446</ele>
        <time>2013-10-26T08:38:07Z</time>
      </trkpt>
      <trkpt lat="45.53328" lon="4.80412">
        <ele>449</ele>
        <time>2013-10-26T08:38:12Z</time>
      </trkpt>
      <trkpt lat="45.53326" lon="4.80412">
        <ele>449</ele>
        <time>2013-10-26T08:38:13Z</time>
      </trkpt>
      <trkpt lat="45.53318" lon="4.80415">
        <ele>450</ele>
        <time>2013-10-26T08:38:17Z</time>
      </trkpt>
      <trkpt lat="45.53316" lon="4.80416">
        <ele>450</ele>
        <time>2013-10-26T08:38:18Z</time>
      </trkpt>
      <trkpt lat="45.53308" lon="4.80419">
        <ele>452</ele>
        <time>2013-10-26T08:38:24Z</time>
      </trkpt>
      <trkpt lat="45.53307" lon="4.80418">
        <ele>452</ele>
        <time>2013-10-26T08:38:25Z</time>
      </trkpt>
      <trkpt lat="45.53299" lon="4.80419">
        <ele>453</ele>
        <time>2013-10-26T08:38:31Z</time>
      </trkpt>
      <trkpt lat="45.53298" lon="4.80421">
        <ele>453</ele>
        <time>2013-10-26T08:38:32Z</time>
      </trkpt>
      <trkpt lat="45.5329" lon="4.80424">
        <ele>454</ele>
        <time>2013-10-26T08:38:38Z</time>
      </trkpt>
      <trkpt lat="45.53288" lon="4.80423">
        <ele>454</ele>
        <time>2013-10-26T08:38:39Z</time>
      </trkpt>
      <trkpt lat="45.5328" lon="4.80428">
        <ele>455</ele>
        <time>2013-10-26T08:38:47Z</time>
      </trkpt>
      <trkpt lat="45.53279" lon="4.80428">
        <ele>455</ele>
        <time>2013-10-26T08:38:48Z</time>
      </trkpt>
      <trkpt lat="45.53271" lon="4.80434">
        <ele>455</ele>
        <time>2013-10-26T08:38:54Z</time>
      </trkpt>
      <trkpt lat="45.53271" lon="4.80434">
        <ele>455</ele>
        <time>2013-10-26T08:38:55Z</time>
      </trkpt>
      <trkpt lat="45.53262" lon="4.80438">
        <ele>456</ele>
        <time>2013-10-26T08:39:02Z</time>
      </trkpt>
      <trkpt lat="45.53261" lon="4.80438">
        <ele>456</ele>
        <time>2013-10-26T08:39:03Z</time>
      </trkpt>
      <trkpt lat="45.53253" lon="4.80443">
        <ele>456</ele>
        <time>2013-10-26T08:39:10Z</time>
      </trkpt>
      <trkpt lat="45.53252" lon="4.80443">
        <ele>456</ele>
        <time>2013-10-26T08:39:11Z</time>
      </trkpt>
      <trkpt lat="45.53243" lon="4.80444">
        <ele>459</ele>
        <time>2013-10-26T08:39:17Z</time>
      </trkpt>
      <trkpt lat="45.53242" lon="4.80446">
        <ele>459</ele>
        <time>2013-10-26T08:39:18Z</time>
      </trkpt>
      <trkpt lat="45.53234" lon="4.8045">
        <ele>459</ele>
        <time>2013-10-26T08:39:24Z</time>
      </trkpt>
      <trkpt lat="45.53233" lon="4.80451">
        <ele>459</ele>
        <time>2013-10-26T08:39:25Z</time>
      </trkpt>
      <trkpt lat="45.53225" lon="4.80453">
        <ele>459</ele>
        <time>2013-10-26T08:39:30Z</time>
      </trkpt>
      <trkpt lat="45.53223" lon="4.80453">
        <ele>459</ele>
        <time>2013-10-26T08:39:31Z</time>
      </trkpt>
      <trkpt lat="45.53214" lon="4.80454">
        <ele>459</ele>
        <time>2013-10-26T08:39:38Z</time>
      </trkpt>
      <trkpt lat="45.53212" lon="4.80454">
        <ele>459</ele>
        <time>2013-10-26T08:39:39Z</time>
      </trkpt>
      <trkpt lat="45.53205" lon="4.80452">
        <ele>459</ele>
        <time>2013-10-26T08:39:43Z</time>
      </trkpt>
      <trkpt lat="45.53203" lon="4.80453">
        <ele>459</ele>
        <time>2013-10-26T08:39:44Z</time>
      </trkpt>
      <trkpt lat="45.53196" lon="4.80446">
        <ele>459</ele>
        <time>2013-10-26T08:39:48Z</time>
      </trkpt>
      <trkpt lat="45.53194" lon="4.80444">
        <ele>459</ele>
        <time>2013-10-26T08:39:49Z</time>
      </trkpt>
      <trkpt lat="45.53189" lon="4.80436">
        <ele>459</ele>
        <time>2013-10-26T08:39:54Z</time>
      </trkpt>
      <trkpt lat="45.53189" lon="4.80434">
        <ele>459</ele>
        <time>2013-10-26T08:39:55Z</time>
      </trkpt>
      <trkpt lat="45.53181" lon="4.80427">
        <ele>460</ele>
        <time>2013-10-26T08:40:01Z</time>
      </trkpt>
      <trkpt lat="45.5318" lon="4.80426">
        <ele>460</ele>
        <time>2013-10-26T08:40:02Z</time>
      </trkpt>
      <trkpt lat="45.53173" lon="4.80423">
        <ele>460</ele>
        <time>2013-10-26T08:40:07Z</time>
      </trkpt>
      <trkpt lat="45.53171" lon="4.80421">
        <ele>460</ele>
        <time>2013-10-26T08:40:08Z</time>
      </trkpt>
      <trkpt lat="45.53165" lon="4.80412">
        <ele>460</ele>
        <time>2013-10-26T08:40:12Z</time>
      </trkpt>
      <trkpt lat="45.53163" lon="4.80409">
        <ele>459</ele>
        <time>2013-10-26T08:40:13Z</time>
      </trkpt>
      <trkpt lat="45.53158" lon="4.804">
        <ele>459</ele>
        <time>2013-10-26T08:40:16Z</time>
      </trkpt>
      <trkpt lat="45.53156" lon="4.80398">
        <ele>459</ele>
        <time>2013-10-26T08:40:17Z</time>
      </trkpt>
      <trkpt lat="45.53151" lon="4.80388">
        <ele>459</ele>
        <time>2013-10-26T08:40:20Z</time>
      </trkpt>
      <trkpt lat="45.53149" lon="4.80385">
        <ele>458</ele>
        <time>2013-10-26T08:40:21Z</time>
      </trkpt>
      <trkpt lat="45.53146" lon="4.80377">
        <ele>458</ele>
        <time>2013-10-26T08:40:23Z</time>
      </trkpt>
      <trkpt lat="45.53144" lon="4.80373">
        <ele>459</ele>
        <time>2013-10-26T08:40:24Z</time>
      </trkpt>
      <trkpt lat="45.53141" lon="4.80364">
        <ele>459</ele>
        <time>2013-10-26T08:40:26Z</time>
      </trkpt>
      <trkpt lat="45.53139" lon="4.8036">
        <ele>459</ele>
        <time>2013-10-26T08:40:27Z</time>
      </trkpt>
      <trkpt lat="45.53135" lon="4.80352">
        <ele>459</ele>
        <time>2013-10-26T08:40:29Z</time>
      </trkpt>
      <trkpt lat="45.53132" lon="4.80349">
        <ele>459</ele>
        <time>2013-10-26T08:40:30Z</time>
      </trkpt>
      <trkpt lat="45.53127" lon="4.80339">
        <ele>458</ele>
        <time>2013-10-26T08:40:32Z</time>
      </trkpt>
      <trkpt lat="45.53125" lon="4.80334">
        <ele>458</ele>
        <time>2013-10-26T08:40:33Z</time>
      </trkpt>
      <trkpt lat="45.53121" lon="4.80324">
        <ele>460</ele>
        <time>2013-10-26T08:40:35Z</time>
      </trkpt>
      <trkpt lat="45.53119" lon="4.80321">
        <ele>459</ele>
        <time>2013-10-26T08:40:36Z</time>
      </trkpt>
      <trkpt lat="45.53115" lon="4.8031">
        <ele>459</ele>
        <time>2013-10-26T08:40:38Z</time>
      </trkpt>
      <trkpt lat="45.53113" lon="4.80305">
        <ele>459</ele>
        <time>2013-10-26T08:40:39Z</time>
      </trkpt>
      <trkpt lat="45.53109" lon="4.80296">
        <ele>460</ele>
        <time>2013-10-26T08:40:40Z</time>
      </trkpt>
      <trkpt lat="45.53107" lon="4.80294">
        <ele>460</ele>
        <time>2013-10-26T08:40:41Z</time>
      </trkpt>
      <trkpt lat="45.53102" lon="4.80284">
        <ele>460</ele>
        <time>2013-10-26T08:40:43Z</time>
      </trkpt>
      <trkpt lat="45.531" lon="4.80281">
        <ele>460</ele>
        <time>2013-10-26T08:40:44Z</time>
      </trkpt>
      <trkpt lat="45.53096" lon="4.80275">
        <ele>460</ele>
        <time>2013-10-26T08:40:46Z</time>
      </trkpt>
      <trkpt lat="45.53094" lon="4.8027">
        <ele>460</ele>
        <time>2013-10-26T08:40:47Z</time>
      </trkpt>
      <trkpt lat="45.53091" lon="4.80264">
        <ele>460</ele>
        <time>2013-10-26T08:40:48Z</time>
      </trkpt>
      <trkpt lat="45.53088" lon="4.80259">
        <ele>460</ele>
        <time>2013-10-26T08:40:49Z</time>
      </trkpt>
      <trkpt lat="45.53084" lon="4.80251">
        <ele>461</ele>
        <time>2013-10-26T08:40:51Z</time>
      </trkpt>
      <trkpt lat="45.5308" lon="4.80243">
        <ele>460</ele>
        <time>2013-10-26T08:40:52Z</time>
      </trkpt>
      <trkpt lat="45.53076" lon="4.80233">
        <ele>459</ele>
        <time>2013-10-26T08:40:54Z</time>
      </trkpt>
      <trkpt lat="45.53075" lon="4.80229">
        <ele>459</ele>
        <time>2013-10-26T08:40:55Z</time>
      </trkpt>
      <trkpt lat="45.5307" lon="4.80219">
        <ele>458</ele>
        <time>2013-10-26T08:40:57Z</time>
      </trkpt>
      <trkpt lat="45.53068" lon="4.80215">
        <ele>458</ele>
        <time>2013-10-26T08:40:58Z</time>
      </trkpt>
      <trkpt lat="45.53065" lon="4.8021">
        <ele>458</ele>
        <time>2013-10-26T08:40:59Z</time>
      </trkpt>
      <trkpt lat="45.53062" lon="4.80206">
        <ele>458</ele>
        <time>2013-10-26T08:41:00Z</time>
      </trkpt>
      <trkpt lat="45.53055" lon="4.80198">
        <ele>458</ele>
        <time>2013-10-26T08:41:02Z</time>
      </trkpt>
      <trkpt lat="45.53053" lon="4.80193">
        <ele>458</ele>
        <time>2013-10-26T08:41:03Z</time>
      </trkpt>
      <trkpt lat="45.5305" lon="4.80184">
        <ele>458</ele>
        <time>2013-10-26T08:41:05Z</time>
      </trkpt>
      <trkpt lat="45.53047" lon="4.8018">
        <ele>458</ele>
        <time>2013-10-26T08:41:06Z</time>
      </trkpt>
      <trkpt lat="45.53043" lon="4.80169">
        <ele>458</ele>
        <time>2013-10-26T08:41:08Z</time>
      </trkpt>
      <trkpt lat="45.53041" lon="4.80163">
        <ele>458</ele>
        <time>2013-10-26T08:41:09Z</time>
      </trkpt>
      <trkpt lat="45.53036" lon="4.80153">
        <ele>458</ele>
        <time>2013-10-26T08:41:11Z</time>
      </trkpt>
      <trkpt lat="45.53034" lon="4.80149">
        <ele>458</ele>
        <time>2013-10-26T08:41:12Z</time>
      </trkpt>
      <trkpt lat="45.53035" lon="4.80139">
        <ele>458</ele>
        <time>2013-10-26T08:41:24Z</time>
      </trkpt>
      <trkpt lat="45.53035" lon="4.80139">
        <ele>458</ele>
        <time>2013-10-26T08:41:25Z</time>
      </trkpt>
      <trkpt lat="45.53035" lon="4.80139">
        <ele>457</ele>
        <time>2013-10-26T08:41:26Z</time>
      </trkpt>
      <trkpt lat="45.53035" lon="4.80139">
        <ele>458</ele>
        <time>2013-10-26T08:41:27Z</time>
      </trkpt>
      <trkpt lat="45.53034" lon="4.8014">
        <ele>458</ele>
        <time>2013-10-26T08:41:28Z</time>
      </trkpt>
      <trkpt lat="45.53035" lon="4.80139">
        <ele>458</ele>
        <time>2013-10-26T08:41:29Z</time>
      </trkpt>
      <trkpt lat="45.53035" lon="4.8014">
        <ele>458</ele>
        <time>2013-10-26T08:41:30Z</time>
      </trkpt>
      <trkpt lat="45.53035" lon="4.8014">
        <ele>458</ele>
        <time>2013-10-26T08:41:31Z</time>
      </trkpt>
      <trkpt lat="45.53034" lon="4.8014">
        <ele>458</ele>
        <time>2013-10-26T08:42:02Z</time>
      </trkpt>
      <trkpt lat="45.53034" lon="4.8014">
        <ele>458</ele>
        <time>2013-10-26T08:42:03Z</time>
      </trkpt>
      <trkpt lat="45.53034" lon="4.80128">
        <ele>457</ele>
        <time>2013-10-26T08:42:08Z</time>
      </trkpt>
      <trkpt lat="45.53033" lon="4.80127">
        <ele>457</ele>
        <time>2013-10-26T08:42:09Z</time>
      </trkpt>
      <trkpt lat="45.5303" lon="4.80117">
        <ele>457</ele>
        <time>2013-10-26T08:42:12Z</time>
      </trkpt>
      <trkpt lat="45.53028" lon="4.80113">
        <ele>457</ele>
        <time>2013-10-26T08:42:13Z</time>
      </trkpt>
      <trkpt lat="45.53025" lon="4.80105">
        <ele>457</ele>
        <time>2013-10-26T08:42:16Z</time>
      </trkpt>
      <trkpt lat="45.53022" lon="4.80103">
        <ele>458</ele>
        <time>2013-10-26T08:42:17Z</time>
      </trkpt>
      <trkpt lat="45.53017" lon="4.80099">
        <ele>458</ele>
        <time>2013-10-26T08:42:19Z</time>
      </trkpt>
      <trkpt lat="45.53014" lon="4.80096">
        <ele>458</ele>
        <time>2013-10-26T08:42:20Z</time>
      </trkpt>
      <trkpt lat="45.53007" lon="4.80092">
        <ele>458</ele>
        <time>2013-10-26T08:42:23Z</time>
      </trkpt>
      <trkpt lat="45.53005" lon="4.80091">
        <ele>458</ele>
        <time>2013-10-26T08:42:24Z</time>
      </trkpt>
      <trkpt lat="45.52996" lon="4.80087">
        <ele>459</ele>
        <time>2013-10-26T08:42:28Z</time>
      </trkpt>
      <trkpt lat="45.52994" lon="4.80087">
        <ele>459</ele>
        <time>2013-10-26T08:42:29Z</time>
      </trkpt>
      <trkpt lat="45.52988" lon="4.80078">
        <ele>460</ele>
        <time>2013-10-26T08:42:39Z</time>
      </trkpt>
      <trkpt lat="45.52988" lon="4.80076">
        <ele>460</ele>
        <time>2013-10-26T08:42:40Z</time>
      </trkpt>
      <trkpt lat="45.5298" lon="4.80075">
        <ele>460</ele>
        <time>2013-10-26T08:42:44Z</time>
      </trkpt>
      <trkpt lat="45.52979" lon="4.80076">
        <ele>460</ele>
        <time>2013-10-26T08:42:45Z</time>
      </trkpt>
      <trkpt lat="45.5297" lon="4.80078">
        <ele>460</ele>
        <time>2013-10-26T08:42:50Z</time>
      </trkpt>
      <trkpt lat="45.52969" lon="4.80078">
        <ele>460</ele>
        <time>2013-10-26T08:42:51Z</time>
      </trkpt>
      <trkpt lat="45.52963" lon="4.80073">
        <ele>461</ele>
        <time>2013-10-26T08:42:54Z</time>
      </trkpt>
      <trkpt lat="45.5296" lon="4.80071">
        <ele>461</ele>
        <time>2013-10-26T08:42:55Z</time>
      </trkpt>
      <trkpt lat="45.52953" lon="4.80064">
        <ele>461</ele>
        <time>2013-10-26T08:42:58Z</time>
      </trkpt>
      <trkpt lat="45.5295" lon="4.80062">
        <ele>461</ele>
        <time>2013-10-26T08:42:59Z</time>
      </trkpt>
      <trkpt lat="45.52942" lon="4.80059">
        <ele>461</ele>
        <time>2013-10-26T08:43:03Z</time>
      </trkpt>
      <trkpt lat="45.5294" lon="4.80058">
        <ele>461</ele>
        <time>2013-10-26T08:43:04Z</time>
      </trkpt>
      <trkpt lat="45.52933" lon="4.80052">
        <ele>461</ele>
        <time>2013-10-26T08:43:09Z</time>
      </trkpt>
      <trkpt lat="45.52931" lon="4.8005">
        <ele>461</ele>
        <time>2013-10-26T08:43:10Z</time>
      </trkpt>
      <trkpt lat="45.52927" lon="4.80043">
        <ele>462</ele>
        <time>2013-10-26T08:43:12Z</time>
      </trkpt>
      <trkpt lat="45.52924" lon="4.8004">
        <ele>462</ele>
        <time>2013-10-26T08:43:13Z</time>
      </trkpt>
      <trkpt lat="45.52919" lon="4.80032">
        <ele>462</ele>
        <time>2013-10-26T08:43:16Z</time>
      </trkpt>
      <trkpt lat="45.52917" lon="4.8003">
        <ele>462</ele>
        <time>2013-10-26T08:43:17Z</time>
      </trkpt>
      <trkpt lat="45.5291" lon="4.80021">
        <ele>461</ele>
        <time>2013-10-26T08:43:21Z</time>
      </trkpt>
      <trkpt lat="45.52908" lon="4.8002">
        <ele>461</ele>
        <time>2013-10-26T08:43:22Z</time>
      </trkpt>
      <trkpt lat="45.52901" lon="4.80014">
        <ele>461</ele>
        <time>2013-10-26T08:43:26Z</time>
      </trkpt>
      <trkpt lat="45.52898" lon="4.80011">
        <ele>461</ele>
        <time>2013-10-26T08:43:27Z</time>
      </trkpt>
      <trkpt lat="45.5289" lon="4.80007">
        <ele>461</ele>
        <time>2013-10-26T08:43:30Z</time>
      </trkpt>
      <trkpt lat="45.52887" lon="4.80005">
        <ele>461</ele>
        <time>2013-10-26T08:43:31Z</time>
      </trkpt>
      <trkpt lat="45.52882" lon="4.8">
        <ele>460</ele>
        <time>2013-10-26T08:43:33Z</time>
      </trkpt>
      <trkpt lat="45.52879" lon="4.79997">
        <ele>465</ele>
        <time>2013-10-26T08:43:34Z</time>
      </trkpt>
      <trkpt lat="45.52874" lon="4.79992">
        <ele>465</ele>
        <time>2013-10-26T08:43:36Z</time>
      </trkpt>
      <trkpt lat="45.52872" lon="4.79988">
        <ele>466</ele>
        <time>2013-10-26T08:43:37Z</time>
      </trkpt>
      <trkpt lat="45.52866" lon="4.79979">
        <ele>466</ele>
        <time>2013-10-26T08:43:40Z</time>
      </trkpt>
      <trkpt lat="45.52864" lon="4.79976">
        <ele>466</ele>
        <time>2013-10-26T08:43:41Z</time>
      </trkpt>
      <trkpt lat="45.52859" lon="4.79967">
        <ele>466</ele>
        <time>2013-10-26T08:43:44Z</time>
      </trkpt>
      <trkpt lat="45.52857" lon="4.79964">
        <ele>466</ele>
        <time>2013-10-26T08:43:45Z</time>
      </trkpt>
      <trkpt lat="45.52852" lon="4.79953">
        <ele>467</ele>
        <time>2013-10-26T08:43:50Z</time>
      </trkpt>
      <trkpt lat="45.52852" lon="4.7995">
        <ele>467</ele>
        <time>2013-10-26T08:43:51Z</time>
      </trkpt>
      <trkpt lat="45.52846" lon="4.79943">
        <ele>468</ele>
        <time>2013-10-26T08:43:54Z</time>
      </trkpt>
      <trkpt lat="45.52843" lon="4.79941">
        <ele>468</ele>
        <time>2013-10-26T08:43:55Z</time>
      </trkpt>
      <trkpt lat="45.52839" lon="4.79931">
        <ele>469</ele>
        <time>2013-10-26T08:43:59Z</time>
      </trkpt>
      <trkpt lat="45.52838" lon="4.79928">
        <ele>470</ele>
        <time>2013-10-26T08:44:00Z</time>
      </trkpt>
      <trkpt lat="45.52832" lon="4.7992">
        <ele>471</ele>
        <time>2013-10-26T08:44:05Z</time>
      </trkpt>
      <trkpt lat="45.52831" lon="4.79919">
        <ele>471</ele>
        <time>2013-10-26T08:44:06Z</time>
      </trkpt>
      <trkpt lat="45.52827" lon="4.79908">
        <ele>473</ele>
        <time>2013-10-26T08:44:11Z</time>
      </trkpt>
      <trkpt lat="45.52827" lon="4.79906">
        <ele>473</ele>
        <time>2013-10-26T08:44:12Z</time>
      </trkpt>
      <trkpt lat="45.52821" lon="4.79898">
        <ele>474</ele>
        <time>2013-10-26T08:44:16Z</time>
      </trkpt>
      <trkpt lat="45.5282" lon="4.79896">
        <ele>474</ele>
        <time>2013-10-26T08:44:17Z</time>
      </trkpt>
      <trkpt lat="45.52815" lon="4.79888">
        <ele>475</ele>
        <time>2013-10-26T08:44:22Z</time>
      </trkpt>
      <trkpt lat="45.52814" lon="4.79882">
        <ele>475</ele>
        <time>2013-10-26T08:44:23Z</time>
      </trkpt>
      <trkpt lat="45.52807" lon="4.79879">
        <ele>475</ele>
        <time>2013-10-26T08:44:27Z</time>
      </trkpt>
      <trkpt lat="45.52805" lon="4.79877">
        <ele>476</ele>
        <time>2013-10-26T08:44:28Z</time>
      </trkpt>
      <trkpt lat="45.52805" lon="4.79868">
        <ele>476</ele>
        <time>2013-10-26T08:44:33Z</time>
      </trkpt>
      <trkpt lat="45.52806" lon="4.79864">
        <ele>476</ele>
        <time>2013-10-26T08:44:34Z</time>
      </trkpt>
      <trkpt lat="45.52808" lon="4.79853">
        <ele>477</ele>
        <time>2013-10-26T08:44:38Z</time>
      </trkpt>
      <trkpt lat="45.52809" lon="4.7985">
        <ele>477</ele>
        <time>2013-10-26T08:44:39Z</time>
      </trkpt>
      <trkpt lat="45.52807" lon="4.7984">
        <ele>478</ele>
        <time>2013-10-26T08:44:44Z</time>
      </trkpt>
      <trkpt lat="45.52807" lon="4.79837">
        <ele>478</ele>
        <time>2013-10-26T08:44:45Z</time>
      </trkpt>
      <trkpt lat="45.52807" lon="4.79825">
        <ele>483</ele>
        <time>2013-10-26T08:44:50Z</time>
      </trkpt>
      <trkpt lat="45.52808" lon="4.79824">
        <ele>483</ele>
        <time>2013-10-26T08:44:51Z</time>
      </trkpt>
      <trkpt lat="45.52807" lon="4.79812">
        <ele>483</ele>
        <time>2013-10-26T08:44:56Z</time>
      </trkpt>
      <trkpt lat="45.52807" lon="4.79809">
        <ele>483</ele>
        <time>2013-10-26T08:44:57Z</time>
      </trkpt>
      <trkpt lat="45.52803" lon="4.79798">
        <ele>483</ele>
        <time>2013-10-26T08:45:02Z</time>
      </trkpt>
      <trkpt lat="45.52805" lon="4.79796">
        <ele>484</ele>
        <time>2013-10-26T08:45:03Z</time>
      </trkpt>
      <trkpt lat="45.52806" lon="4.79784">
        <ele>484</ele>
        <time>2013-10-26T08:45:09Z</time>
      </trkpt>
      <trkpt lat="45.52806" lon="4.79782">
        <ele>484</ele>
        <time>2013-10-26T08:45:10Z</time>
      </trkpt>
      <trkpt lat="45.52806" lon="4.7977">
        <ele>484</ele>
        <time>2013-10-26T08:45:15Z</time>
      </trkpt>
      <trkpt lat="45.52807" lon="4.79767">
        <ele>484</ele>
        <time>2013-10-26T08:45:16Z</time>
      </trkpt>
      <trkpt lat="45.52805" lon="4.79755">
        <ele>485</ele>
        <time>2013-10-26T08:45:19Z</time>
      </trkpt>
      <trkpt lat="45.52805" lon="4.79753">
        <ele>485</ele>
        <time>2013-10-26T08:45:20Z</time>
      </trkpt>
      <trkpt lat="45.52803" lon="4.79741">
        <ele>488</ele>
        <time>2013-10-26T08:45:24Z</time>
      </trkpt>
      <trkpt lat="45.52802" lon="4.79739">
        <ele>488</ele>
        <time>2013-10-26T08:45:25Z</time>
      </trkpt>
      <trkpt lat="45.528" lon="4.79728">
        <ele>489</ele>
        <time>2013-10-26T08:45:30Z</time>
      </trkpt>
      <trkpt lat="45.52795" lon="4.79725">
        <ele>489</ele>
        <time>2013-10-26T08:45:31Z</time>
      </trkpt>
      <trkpt lat="45.52788" lon="4.79718">
        <ele>489</ele>
        <time>2013-10-26T08:45:36Z</time>
      </trkpt>
      <trkpt lat="45.52787" lon="4.79716">
        <ele>490</ele>
        <time>2013-10-26T08:45:37Z</time>
      </trkpt>
      <trkpt lat="45.52779" lon="4.79712">
        <ele>490</ele>
        <time>2013-10-26T08:45:41Z</time>
      </trkpt>
      <trkpt lat="45.52777" lon="4.79712">
        <ele>490</ele>
        <time>2013-10-26T08:45:42Z</time>
      </trkpt>
      <trkpt lat="45.5277" lon="4.79711">
        <ele>490</ele>
        <time>2013-10-26T08:45:45Z</time>
      </trkpt>
      <trkpt lat="45.52768" lon="4.79711">
        <ele>490</ele>
        <time>2013-10-26T08:45:46Z</time>
      </trkpt>
      <trkpt lat="45.5276" lon="4.79706">
        <ele>491</ele>
        <time>2013-10-26T08:45:50Z</time>
      </trkpt>
      <trkpt lat="45.52759" lon="4.79706">
        <ele>491</ele>
        <time>2013-10-26T08:45:51Z</time>
      </trkpt>
      <trkpt lat="45.52753" lon="4.79701">
        <ele>491</ele>
        <time>2013-10-26T08:45:54Z</time>
      </trkpt>
      <trkpt lat="45.52751" lon="4.79699">
        <ele>491</ele>
        <time>2013-10-26T08:45:55Z</time>
      </trkpt>
      <trkpt lat="45.52744" lon="4.79694">
        <ele>494</ele>
        <time>2013-10-26T08:45:58Z</time>
      </trkpt>
      <trkpt lat="45.52744" lon="4.79691">
        <ele>494</ele>
        <time>2013-10-26T08:45:59Z</time>
      </trkpt>
      <trkpt lat="45.52739" lon="4.79681">
        <ele>494</ele>
        <time>2013-10-26T08:46:02Z</time>
      </trkpt>
      <trkpt lat="45.52738" lon="4.79678">
        <ele>495</ele>
        <time>2013-10-26T08:46:03Z</time>
      </trkpt>
      <trkpt lat="45.52735" lon="4.79674">
        <ele>495</ele>
        <time>2013-10-26T08:46:06Z</time>
      </trkpt>
      <trkpt lat="45.52735" lon="4.79673">
        <ele>495</ele>
        <time>2013-10-26T08:46:07Z</time>
      </trkpt>
      <trkpt lat="45.52735" lon="4.79673">
        <ele>495</ele>
        <time>2013-10-26T08:46:08Z</time>
      </trkpt>
      <trkpt lat="45.52728" lon="4.79667">
        <ele>499</ele>
        <time>2013-10-26T08:46:12Z</time>
      </trkpt>
      <trkpt lat="45.52726" lon="4.79664">
        <ele>499</ele>
        <time>2013-10-26T08:46:13Z</time>
      </trkpt>
      <trkpt lat="45.5272" lon="4.79655">
        <ele>500</ele>
        <time>2013-10-26T08:46:17Z</time>
      </trkpt>
      <trkpt lat="45.52719" lon="4.79653">
        <ele>500</ele>
        <time>2013-10-26T08:46:18Z</time>
      </trkpt>
      <trkpt lat="45.52721" lon="4.79642">
        <ele>500</ele>
        <time>2013-10-26T08:46:22Z</time>
      </trkpt>
      <trkpt lat="45.5272" lon="4.79639">
        <ele>500</ele>
        <time>2013-10-26T08:46:23Z</time>
      </trkpt>
      <trkpt lat="45.52721" lon="4.79626">
        <ele>501</ele>
        <time>2013-10-26T08:46:28Z</time>
      </trkpt>
      <trkpt lat="45.52721" lon="4.79624">
        <ele>501</ele>
        <time>2013-10-26T08:46:29Z</time>
      </trkpt>
      <trkpt lat="45.52719" lon="4.79615">
        <ele>501</ele>
        <time>2013-10-26T08:46:33Z</time>
      </trkpt>
      <trkpt lat="45.52718" lon="4.79611">
        <ele>501</ele>
        <time>2013-10-26T08:46:34Z</time>
      </trkpt>
      <trkpt lat="45.52715" lon="4.796">
        <ele>501</ele>
        <time>2013-10-26T08:46:38Z</time>
      </trkpt>
      <trkpt lat="45.52713" lon="4.79598">
        <ele>502</ele>
        <time>2013-10-26T08:46:39Z</time>
      </trkpt>
      <trkpt lat="45.52713" lon="4.79585">
        <ele>502</ele>
        <time>2013-10-26T08:46:45Z</time>
      </trkpt>
      <trkpt lat="45.52714" lon="4.79583">
        <ele>505</ele>
        <time>2013-10-26T08:46:46Z</time>
      </trkpt>
      <trkpt lat="45.52711" lon="4.79572">
        <ele>506</ele>
        <time>2013-10-26T08:46:49Z</time>
      </trkpt>
      <trkpt lat="45.5271" lon="4.79569">
        <ele>506</ele>
        <time>2013-10-26T08:46:50Z</time>
      </trkpt>
      <trkpt lat="45.52709" lon="4.79556">
        <ele>506</ele>
        <time>2013-10-26T08:46:54Z</time>
      </trkpt>
      <trkpt lat="45.52709" lon="4.79553">
        <ele>506</ele>
        <time>2013-10-26T08:46:55Z</time>
      </trkpt>
      <trkpt lat="45.52706" lon="4.79541">
        <ele>507</ele>
        <time>2013-10-26T08:46:59Z</time>
      </trkpt>
      <trkpt lat="45.52705" lon="4.79537">
        <ele>507</ele>
        <time>2013-10-26T08:47:00Z</time>
      </trkpt>
      <trkpt lat="45.52699" lon="4.79528">
        <ele>507</ele>
        <time>2013-10-26T08:47:05Z</time>
      </trkpt>
      <trkpt lat="45.52699" lon="4.79527">
        <ele>507</ele>
        <time>2013-10-26T08:47:06Z</time>
      </trkpt>
      <trkpt lat="45.52695" lon="4.79519">
        <ele>508</ele>
        <time>2013-10-26T08:47:09Z</time>
      </trkpt>
      <trkpt lat="45.52693" lon="4.79516">
        <ele>508</ele>
        <time>2013-10-26T08:47:10Z</time>
      </trkpt>
      <trkpt lat="45.52687" lon="4.79509">
        <ele>509</ele>
        <time>2013-10-26T08:47:14Z</time>
      </trkpt>
      <trkpt lat="45.52686" lon="4.79506">
        <ele>509</ele>
        <time>2013-10-26T08:47:15Z</time>
      </trkpt>
      <trkpt lat="45.52685" lon="4.79494">
        <ele>511</ele>
        <time>2013-10-26T08:47:21Z</time>
      </trkpt>
      <trkpt lat="45.52685" lon="4.79493">
        <ele>511</ele>
        <time>2013-10-26T08:47:22Z</time>
      </trkpt>
      <trkpt lat="45.52681" lon="4.79482">
        <ele>511</ele>
        <time>2013-10-26T08:47:26Z</time>
      </trkpt>
      <trkpt lat="45.52679" lon="4.79478">
        <ele>511</ele>
        <time>2013-10-26T08:47:27Z</time>
      </trkpt>
      <trkpt lat="45.52678" lon="4.79468">
        <ele>511</ele>
        <time>2013-10-26T08:47:30Z</time>
      </trkpt>
      <trkpt lat="45.52676" lon="4.79465">
        <ele>511</ele>
        <time>2013-10-26T08:47:31Z</time>
      </trkpt>
      <trkpt lat="45.52672" lon="4.79457">
        <ele>512</ele>
        <time>2013-10-26T08:47:35Z</time>
      </trkpt>
      <trkpt lat="45.52671" lon="4.79453">
        <ele>512</ele>
        <time>2013-10-26T08:47:36Z</time>
      </trkpt>
      <trkpt lat="45.52666" lon="4.79443">
        <ele>517</ele>
        <time>2013-10-26T08:47:40Z</time>
      </trkpt>
      <trkpt lat="45.52666" lon="4.7944">
        <ele>517</ele>
        <time>2013-10-26T08:47:41Z</time>
      </trkpt>
      <trkpt lat="45.52662" lon="4.7943">
        <ele>517</ele>
        <time>2013-10-26T08:47:44Z</time>
      </trkpt>
      <trkpt lat="45.5266" lon="4.79426">
        <ele>517</ele>
        <time>2013-10-26T08:47:45Z</time>
      </trkpt>
      <trkpt lat="45.52655" lon="4.79417">
        <ele>518</ele>
        <time>2013-10-26T08:47:48Z</time>
      </trkpt>
      <trkpt lat="45.52654" lon="4.79415">
        <ele>519</ele>
        <time>2013-10-26T08:47:49Z</time>
      </trkpt>
      <trkpt lat="45.5265" lon="4.79404">
        <ele>520</ele>
        <time>2013-10-26T08:47:53Z</time>
      </trkpt>
      <trkpt lat="45.52649" lon="4.79402">
        <ele>520</ele>
        <time>2013-10-26T08:47:54Z</time>
      </trkpt>
      <trkpt lat="45.52645" lon="4.79393">
        <ele>521</ele>
        <time>2013-10-26T08:47:57Z</time>
      </trkpt>
      <trkpt lat="45.52644" lon="4.79391">
        <ele>521</ele>
        <time>2013-10-26T08:47:58Z</time>
      </trkpt>
      <trkpt lat="45.52642" lon="4.79381">
        <ele>522</ele>
        <time>2013-10-26T08:48:02Z</time>
      </trkpt>
      <trkpt lat="45.5264" lon="4.79378">
        <ele>522</ele>
        <time>2013-10-26T08:48:03Z</time>
      </trkpt>
      <trkpt lat="45.5264" lon="4.79369">
        <ele>522</ele>
        <time>2013-10-26T08:48:06Z</time>
      </trkpt>
      <trkpt lat="45.5264" lon="4.79364">
        <ele>522</ele>
        <time>2013-10-26T08:48:07Z</time>
      </trkpt>
      <trkpt lat="45.52637" lon="4.79354">
        <ele>522</ele>
        <time>2013-10-26T08:48:10Z</time>
      </trkpt>
      <trkpt lat="45.52637" lon="4.79351">
        <ele>522</ele>
        <time>2013-10-26T08:48:11Z</time>
      </trkpt>
      <trkpt lat="45.52632" lon="4.79342">
        <ele>523</ele>
        <time>2013-10-26T08:48:15Z</time>
      </trkpt>
      <trkpt lat="45.52628" lon="4.7934">
        <ele>523</ele>
        <time>2013-10-26T08:48:16Z</time>
      </trkpt>
      <trkpt lat="45.52624" lon="4.79332">
        <ele>525</ele>
        <time>2013-10-26T08:48:19Z</time>
      </trkpt>
      <trkpt lat="45.52619" lon="4.79332">
        <ele>525</ele>
        <time>2013-10-26T08:48:20Z</time>
      </trkpt>
      <trkpt lat="45.52613" lon="4.79328">
        <ele>526</ele>
        <time>2013-10-26T08:48:24Z</time>
      </trkpt>
      <trkpt lat="45.52611" lon="4.79328">
        <ele>526</ele>
        <time>2013-10-26T08:48:25Z</time>
      </trkpt>
      <trkpt lat="45.52603" lon="4.79327">
        <ele>526</ele>
        <time>2013-10-26T08:48:30Z</time>
      </trkpt>
      <trkpt lat="45.526" lon="4.79324">
        <ele>527</ele>
        <time>2013-10-26T08:48:31Z</time>
      </trkpt>
      <trkpt lat="45.52592" lon="4.79323">
        <ele>527</ele>
        <time>2013-10-26T08:48:34Z</time>
      </trkpt>
      <trkpt lat="45.52589" lon="4.79323">
        <ele>527</ele>
        <time>2013-10-26T08:48:35Z</time>
      </trkpt>
      <trkpt lat="45.5258" lon="4.79322">
        <ele>529</ele>
        <time>2013-10-26T08:48:40Z</time>
      </trkpt>
      <trkpt lat="45.52579" lon="4.79322">
        <ele>529</ele>
        <time>2013-10-26T08:48:41Z</time>
      </trkpt>
      <trkpt lat="45.52571" lon="4.79323">
        <ele>530</ele>
        <time>2013-10-26T08:48:47Z</time>
      </trkpt>
      <trkpt lat="45.52565" lon="4.79323">
        <ele>530</ele>
        <time>2013-10-26T08:48:48Z</time>
      </trkpt>
      <trkpt lat="45.52557" lon="4.79321">
        <ele>530</ele>
        <time>2013-10-26T08:48:56Z</time>
      </trkpt>
      <trkpt lat="45.52556" lon="4.7932">
        <ele>530</ele>
        <time>2013-10-26T08:48:57Z</time>
      </trkpt>
      <trkpt lat="45.52548" lon="4.79318">
        <ele>531</ele>
        <time>2013-10-26T08:49:01Z</time>
      </trkpt>
      <trkpt lat="45.52546" lon="4.79319">
        <ele>531</ele>
        <time>2013-10-26T08:49:02Z</time>
      </trkpt>
      <trkpt lat="45.52539" lon="4.79315">
        <ele>531</ele>
        <time>2013-10-26T08:49:07Z</time>
      </trkpt>
      <trkpt lat="45.52537" lon="4.79314">
        <ele>531</ele>
        <time>2013-10-26T08:49:08Z</time>
      </trkpt>
      <trkpt lat="45.5253" lon="4.79311">
        <ele>531</ele>
        <time>2013-10-26T08:49:13Z</time>
      </trkpt>
      <trkpt lat="45.52528" lon="4.7931">
        <ele>531</ele>
        <time>2013-10-26T08:49:14Z</time>
      </trkpt>
      <trkpt lat="45.52521" lon="4.79305">
        <ele>531</ele>
        <time>2013-10-26T08:49:18Z</time>
      </trkpt>
      <trkpt lat="45.52518" lon="4.79305">
        <ele>531</ele>
        <time>2013-10-26T08:49:19Z</time>
      </trkpt>
      <trkpt lat="45.52511" lon="4.79301">
        <ele>532</ele>
        <time>2013-10-26T08:49:23Z</time>
      </trkpt>
      <trkpt lat="45.52509" lon="4.793">
        <ele>532</ele>
        <time>2013-10-26T08:49:24Z</time>
      </trkpt>
      <trkpt lat="45.52501" lon="4.79295">
        <ele>532</ele>
        <time>2013-10-26T08:49:29Z</time>
      </trkpt>
      <trkpt lat="45.52498" lon="4.79292">
        <ele>532</ele>
        <time>2013-10-26T08:49:30Z</time>
      </trkpt>
      <trkpt lat="45.52491" lon="4.79287">
        <ele>532</ele>
        <time>2013-10-26T08:49:33Z</time>
      </trkpt>
      <trkpt lat="45.52489" lon="4.79287">
        <ele>532</ele>
        <time>2013-10-26T08:49:34Z</time>
      </trkpt>
      <trkpt lat="45.5248" lon="4.79283">
        <ele>532</ele>
        <time>2013-10-26T08:49:38Z</time>
      </trkpt>
      <trkpt lat="45.52476" lon="4.79281">
        <ele>532</ele>
        <time>2013-10-26T08:49:39Z</time>
      </trkpt>
      <trkpt lat="45.5247" lon="4.79276">
        <ele>531</ele>
        <time>2013-10-26T08:49:42Z</time>
      </trkpt>
      <trkpt lat="45.52466" lon="4.79273">
        <ele>531</ele>
        <time>2013-10-26T08:49:43Z</time>
      </trkpt>
      <trkpt lat="45.52459" lon="4.79267">
        <ele>531</ele>
        <time>2013-10-26T08:49:46Z</time>
      </trkpt>
      <trkpt lat="45.52457" lon="4.79265">
        <ele>531</ele>
        <time>2013-10-26T08:49:47Z</time>
      </trkpt>
      <trkpt lat="45.52451" lon="4.7926">
        <ele>531</ele>
        <time>2013-10-26T08:49:50Z</time>
      </trkpt>
      <trkpt lat="45.52448" lon="4.79258">
        <ele>531</ele>
        <time>2013-10-26T08:49:51Z</time>
      </trkpt>
      <trkpt lat="45.52444" lon="4.79252">
        <ele>531</ele>
        <time>2013-10-26T08:49:53Z</time>
      </trkpt>
      <trkpt lat="45.52442" lon="4.79249">
        <ele>532</ele>
        <time>2013-10-26T08:49:54Z</time>
      </trkpt>
      <trkpt lat="45.52438" lon="4.7924">
        <ele>532</ele>
        <time>2013-10-26T08:49:57Z</time>
      </trkpt>
      <trkpt lat="45.52435" lon="4.79238">
        <ele>532</ele>
        <time>2013-10-26T08:49:58Z</time>
      </trkpt>
      <trkpt lat="45.5243" lon="4.79228">
        <ele>532</ele>
        <time>2013-10-26T08:50:02Z</time>
      </trkpt>
      <trkpt lat="45.52429" lon="4.79224">
        <ele>532</ele>
        <time>2013-10-26T08:50:03Z</time>
      </trkpt>
      <trkpt lat="45.52426" lon="4.79217">
        <ele>532</ele>
        <time>2013-10-26T08:50:05Z</time>
      </trkpt>
      <trkpt lat="45.52423" lon="4.79212">
        <ele>532</ele>
        <time>2013-10-26T08:50:06Z</time>
      </trkpt>
      <trkpt lat="45.52421" lon="4.79207">
        <ele>532</ele>
        <time>2013-10-26T08:50:07Z</time>
      </trkpt>
      <trkpt lat="45.52417" lon="4.79201">
        <ele>532</ele>
        <time>2013-10-26T08:50:08Z</time>
      </trkpt>
      <trkpt lat="45.52414" lon="4.79196">
        <ele>527</ele>
        <time>2013-10-26T08:50:09Z</time>
      </trkpt>
      <trkpt lat="45.52409" lon="4.79191">
        <ele>528</ele>
        <time>2013-10-26T08:50:10Z</time>
      </trkpt>
      <trkpt lat="45.52405" lon="4.79186">
        <ele>528</ele>
        <time>2013-10-26T08:50:11Z</time>
      </trkpt>
      <trkpt lat="45.52401" lon="4.79179">
        <ele>528</ele>
        <time>2013-10-26T08:50:12Z</time>
      </trkpt>
      <trkpt lat="45.52399" lon="4.79173">
        <ele>528</ele>
        <time>2013-10-26T08:50:13Z</time>
      </trkpt>
      <trkpt lat="45.52393" lon="4.79167">
        <ele>527</ele>
        <time>2013-10-26T08:50:14Z</time>
      </trkpt>
      <trkpt lat="45.52387" lon="4.79158">
        <ele>528</ele>
        <time>2013-10-26T08:50:16Z</time>
      </trkpt>
      <trkpt lat="45.52385" lon="4.79156">
        <ele>528</ele>
        <time>2013-10-26T08:50:17Z</time>
      </trkpt>
      <trkpt lat="45.52376" lon="4.79156">
        <ele>527</ele>
        <time>2013-10-26T08:50:20Z</time>
      </trkpt>
      <trkpt lat="45.52373" lon="4.79157">
        <ele>527</ele>
        <time>2013-10-26T08:50:21Z</time>
      </trkpt>
      <trkpt lat="45.52372" lon="4.79167">
        <ele>527</ele>
        <time>2013-10-26T08:50:24Z</time>
      </trkpt>
      <trkpt lat="45.52371" lon="4.79171">
        <ele>525</ele>
        <time>2013-10-26T08:50:25Z</time>
      </trkpt>
      <trkpt lat="45.52371" lon="4.79183">
        <ele>525</ele>
        <time>2013-10-26T08:50:28Z</time>
      </trkpt>
      <trkpt lat="45.52371" lon="4.79187">
        <ele>525</ele>
        <time>2013-10-26T08:50:29Z</time>
      </trkpt>
      <trkpt lat="45.52369" lon="4.79196">
        <ele>525</ele>
        <time>2013-10-26T08:50:31Z</time>
      </trkpt>
      <trkpt lat="45.52368" lon="4.79201">
        <ele>525</ele>
        <time>2013-10-26T08:50:32Z</time>
      </trkpt>
      <trkpt lat="45.52364" lon="4.79211">
        <ele>524</ele>
        <time>2013-10-26T08:50:34Z</time>
      </trkpt>
      <trkpt lat="45.52362" lon="4.79214">
        <ele>524</ele>
        <time>2013-10-26T08:50:35Z</time>
      </trkpt>
      <trkpt lat="45.52358" lon="4.79225">
        <ele>523</ele>
        <time>2013-10-26T08:50:38Z</time>
      </trkpt>
      <trkpt lat="45.52356" lon="4.79228">
        <ele>523</ele>
        <time>2013-10-26T08:50:39Z</time>
      </trkpt>
      <trkpt lat="45.52355" lon="4.79238">
        <ele>523</ele>
        <time>2013-10-26T08:50:41Z</time>
      </trkpt>
      <trkpt lat="45.52353" lon="4.79243">
        <ele>522</ele>
        <time>2013-10-26T08:50:42Z</time>
      </trkpt>
      <trkpt lat="45.52351" lon="4.79255">
        <ele>521</ele>
        <time>2013-10-26T08:50:44Z</time>
      </trkpt>
      <trkpt lat="45.52349" lon="4.79261">
        <ele>520</ele>
        <time>2013-10-26T08:50:45Z</time>
      </trkpt>
      <trkpt lat="45.52347" lon="4.79268">
        <ele>521</ele>
        <time>2013-10-26T08:50:46Z</time>
      </trkpt>
      <trkpt lat="45.52348" lon="4.79277">
        <ele>521</ele>
        <time>2013-10-26T08:50:47Z</time>
      </trkpt>
      <trkpt lat="45.52346" lon="4.79284">
        <ele>521</ele>
        <time>2013-10-26T08:50:47Z</time>
      </trkpt>
      <trkpt lat="45.52345" lon="4.79292">
        <ele>521</ele>
        <time>2013-10-26T08:50:48Z</time>
      </trkpt>
      <trkpt lat="45.52344" lon="4.79301">
        <ele>520</ele>
        <time>2013-10-26T08:50:49Z</time>
      </trkpt>
      <trkpt lat="45.52344" lon="4.79309">
        <ele>520</ele>
        <time>2013-10-26T08:50:50Z</time>
      </trkpt>
      <trkpt lat="45.52342" lon="4.79319">
        <ele>519</ele>
        <time>2013-10-26T08:50:51Z</time>
      </trkpt>
      <trkpt lat="45.52344" lon="4.79327">
        <ele>518</ele>
        <time>2013-10-26T08:50:52Z</time>
      </trkpt>
      <trkpt lat="45.52344" lon="4.79336">
        <ele>516</ele>
        <time>2013-10-26T08:50:53Z</time>
      </trkpt>
      <trkpt lat="45.52345" lon="4.79344">
        <ele>516</ele>
        <time>2013-10-26T08:50:54Z</time>
      </trkpt>
      <trkpt lat="45.52347" lon="4.79352">
        <ele>516</ele>
        <time>2013-10-26T08:50:55Z</time>
      </trkpt>
      <trkpt lat="45.52348" lon="4.7936">
        <ele>516</ele>
        <time>2013-10-26T08:50:56Z</time>
      </trkpt>
      <trkpt lat="45.52348" lon="4.79367">
        <ele>516</ele>
        <time>2013-10-26T08:50:57Z</time>
      </trkpt>
      <trkpt lat="45.52349" lon="4.79375">
        <ele>516</ele>
        <time>2013-10-26T08:50:58Z</time>
      </trkpt>
      <trkpt lat="45.52351" lon="4.79383">
        <ele>515</ele>
        <time>2013-10-26T08:50:59Z</time>
      </trkpt>
      <trkpt lat="45.52352" lon="4.79389">
        <ele>515</ele>
        <time>2013-10-26T08:51:00Z</time>
      </trkpt>
      <trkpt lat="45.52354" lon="4.79395">
        <ele>514</ele>
        <time>2013-10-26T08:51:01Z</time>
      </trkpt>
      <trkpt lat="45.52356" lon="4.79402">
        <ele>514</ele>
        <time>2013-10-26T08:51:02Z</time>
      </trkpt>
      <trkpt lat="45.52358" lon="4.79413">
        <ele>514</ele>
        <time>2013-10-26T08:51:04Z</time>
      </trkpt>
      <trkpt lat="45.5236" lon="4.79417">
        <ele>508</ele>
        <time>2013-10-26T08:51:05Z</time>
      </trkpt>
      <trkpt lat="45.52362" lon="4.79422">
        <ele>508</ele>
        <time>2013-10-26T08:51:06Z</time>
      </trkpt>
      <trkpt lat="45.52365" lon="4.7943">
        <ele>508</ele>
        <time>2013-10-26T08:51:07Z</time>
      </trkpt>
      <trkpt lat="45.5237" lon="4.79441">
        <ele>508</ele>
        <time>2013-10-26T08:51:09Z</time>
      </trkpt>
      <trkpt lat="45.52372" lon="4.79446">
        <ele>508</ele>
        <time>2013-10-26T08:51:10Z</time>
      </trkpt>
      <trkpt lat="45.52373" lon="4.7945">
        <ele>508</ele>
        <time>2013-10-26T08:51:11Z</time>
      </trkpt>
      <trkpt lat="45.52374" lon="4.79459">
        <ele>507</ele>
        <time>2013-10-26T08:51:12Z</time>
      </trkpt>
      <trkpt lat="45.52374" lon="4.79465">
        <ele>507</ele>
        <time>2013-10-26T08:51:13Z</time>
      </trkpt>
      <trkpt lat="45.52375" lon="4.79472">
        <ele>507</ele>
        <time>2013-10-26T08:51:14Z</time>
      </trkpt>
      <trkpt lat="45.52377" lon="4.79477">
        <ele>506</ele>
        <time>2013-10-26T08:51:15Z</time>
      </trkpt>
      <trkpt lat="45.52376" lon="4.79486">
        <ele>506</ele>
        <time>2013-10-26T08:51:16Z</time>
      </trkpt>
      <trkpt lat="45.52375" lon="4.79498">
        <ele>505</ele>
        <time>2013-10-26T08:51:18Z</time>
      </trkpt>
      <trkpt lat="45.52376" lon="4.79505">
        <ele>497</ele>
        <time>2013-10-26T08:51:19Z</time>
      </trkpt>
      <trkpt lat="45.52377" lon="4.79517">
        <ele>497</ele>
        <time>2013-10-26T08:51:21Z</time>
      </trkpt>
      <trkpt lat="45.52376" lon="4.79526">
        <ele>496</ele>
        <time>2013-10-26T08:51:22Z</time>
      </trkpt>
      <trkpt lat="45.52376" lon="4.79538">
        <ele>495</ele>
        <time>2013-10-26T08:51:24Z</time>
      </trkpt>
      <trkpt lat="45.52377" lon="4.79544">
        <ele>495</ele>
        <time>2013-10-26T08:51:25Z</time>
      </trkpt>
      <trkpt lat="45.52381" lon="4.79554">
        <ele>495</ele>
        <time>2013-10-26T08:51:28Z</time>
      </trkpt>
      <trkpt lat="45.52383" lon="4.79557">
        <ele>495</ele>
        <time>2013-10-26T08:51:29Z</time>
      </trkpt>
      <trkpt lat="45.52387" lon="4.79566">
        <ele>495</ele>
        <time>2013-10-26T08:51:32Z</time>
      </trkpt>
      <trkpt lat="45.52387" lon="4.79568">
        <ele>494</ele>
        <time>2013-10-26T08:51:33Z</time>
      </trkpt>
      <trkpt lat="45.52387" lon="4.79578">
        <ele>494</ele>
        <time>2013-10-26T08:51:35Z</time>
      </trkpt>
      <trkpt lat="45.52388" lon="4.79582">
        <ele>494</ele>
        <time>2013-10-26T08:51:36Z</time>
      </trkpt>
      <trkpt lat="45.52389" lon="4.7959">
        <ele>487</ele>
        <time>2013-10-26T08:51:38Z</time>
      </trkpt>
      <trkpt lat="45.5239" lon="4.79594">
        <ele>487</ele>
        <time>2013-10-26T08:51:39Z</time>
      </trkpt>
      <trkpt lat="45.52393" lon="4.79603">
        <ele>487</ele>
        <time>2013-10-26T08:51:41Z</time>
      </trkpt>
      <trkpt lat="45.52395" lon="4.79607">
        <ele>487</ele>
        <time>2013-10-26T08:51:42Z</time>
      </trkpt>
      <trkpt lat="45.52397" lon="4.7962">
        <ele>485</ele>
        <time>2013-10-26T08:51:44Z</time>
      </trkpt>
      <trkpt lat="45.52398" lon="4.79624">
        <ele>485</ele>
        <time>2013-10-26T08:51:45Z</time>
      </trkpt>
      <trkpt lat="45.52402" lon="4.79633">
        <ele>484</ele>
        <time>2013-10-26T08:51:47Z</time>
      </trkpt>
      <trkpt lat="45.52405" lon="4.79638">
        <ele>484</ele>
        <time>2013-10-26T08:51:48Z</time>
      </trkpt>
      <trkpt lat="45.52411" lon="4.79645">
        <ele>484</ele>
        <time>2013-10-26T08:51:50Z</time>
      </trkpt>
      <trkpt lat="45.52415" lon="4.7965">
        <ele>484</ele>
        <time>2013-10-26T08:51:51Z</time>
      </trkpt>
      <trkpt lat="45.5242" lon="4.79658">
        <ele>486</ele>
        <time>2013-10-26T08:51:54Z</time>
      </trkpt>
      <trkpt lat="45.52421" lon="4.7966">
        <ele>486</ele>
        <time>2013-10-26T08:51:55Z</time>
      </trkpt>
      <trkpt lat="45.52421" lon="4.79662">
        <ele>485</ele>
        <time>2013-10-26T08:51:59Z</time>
      </trkpt>
      <trkpt lat="45.52421" lon="4.79661">
        <ele>485</ele>
        <time>2013-10-26T08:52:00Z</time>
      </trkpt>
      <trkpt lat="45.52421" lon="4.79661">
        <ele>485</ele>
        <time>2013-10-26T08:52:01Z</time>
      </trkpt>
      <trkpt lat="45.52421" lon="4.79661">
        <ele>485</ele>
        <time>2013-10-26T08:52:02Z</time>
      </trkpt>
      <trkpt lat="45.52421" lon="4.79661">
        <ele>485</ele>
        <time>2013-10-26T08:52:32Z</time>
      </trkpt>
      <trkpt lat="45.52421" lon="4.79662">
        <ele>485</ele>
        <time>2013-10-26T08:52:33Z</time>
      </trkpt>
      <trkpt lat="45.52421" lon="4.79661">
        <ele>485</ele>
        <time>2013-10-26T08:52:34Z</time>
      </trkpt>
      <trkpt lat="45.52421" lon="4.79661">
        <ele>485</ele>
        <time>2013-10-26T08:52:46Z</time>
      </trkpt>
      <trkpt lat="45.52421" lon="4.79662">
        <ele>485</ele>
        <time>2013-10-26T08:52:47Z</time>
      </trkpt>
      <trkpt lat="45.52417" lon="4.7967">
        <ele>483</ele>
        <time>2013-10-26T08:52:56Z</time>
      </trkpt>
      <trkpt lat="45.52415" lon="4.79672">
        <ele>481</ele>
        <time>2013-10-26T08:52:57Z</time>
      </trkpt>
      <trkpt lat="45.52409" lon="4.79681">
        <ele>478</ele>
        <time>2013-10-26T08:53:03Z</time>
      </trkpt>
      <trkpt lat="45.52407" lon="4.79683">
        <ele>477</ele>
        <time>2013-10-26T08:53:04Z</time>
      </trkpt>
      <trkpt lat="45.52406" lon="4.79694">
        <ele>476</ele>
        <time>2013-10-26T08:53:07Z</time>
      </trkpt>
      <trkpt lat="45.52405" lon="4.79696">
        <ele>475</ele>
        <time>2013-10-26T08:53:08Z</time>
      </trkpt>
      <trkpt lat="45.52399" lon="4.79704">
        <ele>474</ele>
        <time>2013-10-26T08:53:12Z</time>
      </trkpt>
      <trkpt lat="45.52398" lon="4.79708">
        <ele>474</ele>
        <time>2013-10-26T08:53:13Z</time>
      </trkpt>
      <trkpt lat="45.52395" lon="4.79718">
        <ele>473</ele>
        <time>2013-10-26T08:53:16Z</time>
      </trkpt>
      <trkpt lat="45.52394" lon="4.79721">
        <ele>473</ele>
        <time>2013-10-26T08:53:17Z</time>
      </trkpt>
      <trkpt lat="45.52391" lon="4.7973">
        <ele>472</ele>
        <time>2013-10-26T08:53:19Z</time>
      </trkpt>
      <trkpt lat="45.52389" lon="4.79734">
        <ele>472</ele>
        <time>2013-10-26T08:53:20Z</time>
      </trkpt>
      <trkpt lat="45.52387" lon="4.79739">
        <ele>472</ele>
        <time>2013-10-26T08:53:21Z</time>
      </trkpt>
      <trkpt lat="45.52385" lon="4.79745">
        <ele>471</ele>
        <time>2013-10-26T08:53:22Z</time>
      </trkpt>
      <trkpt lat="45.52382" lon="4.79751">
        <ele>465</ele>
        <time>2013-10-26T08:53:23Z</time>
      </trkpt>
      <trkpt lat="45.52384" lon="4.79759">
        <ele>465</ele>
        <time>2013-10-26T08:53:24Z</time>
      </trkpt>
      <trkpt lat="45.52383" lon="4.79767">
        <ele>464</ele>
        <time>2013-10-26T08:53:25Z</time>
      </trkpt>
      <trkpt lat="45.52381" lon="4.79772">
        <ele>464</ele>
        <time>2013-10-26T08:53:26Z</time>
      </trkpt>
      <trkpt lat="45.52379" lon="4.7978">
        <ele>463</ele>
        <time>2013-10-26T08:53:28Z</time>
      </trkpt>
      <trkpt lat="45.52378" lon="4.79785">
        <ele>463</ele>
        <time>2013-10-26T08:53:29Z</time>
      </trkpt>
      <trkpt lat="45.52377" lon="4.79795">
        <ele>462</ele>
        <time>2013-10-26T08:53:32Z</time>
      </trkpt>
      <trkpt lat="45.52378" lon="4.79802">
        <ele>462</ele>
        <time>2013-10-26T08:53:33Z</time>
      </trkpt>
      <trkpt lat="45.52376" lon="4.79812">
        <ele>461</ele>
        <time>2013-10-26T08:53:35Z</time>
      </trkpt>
      <trkpt lat="45.52376" lon="4.79817">
        <ele>461</ele>
        <time>2013-10-26T08:53:37Z</time>
      </trkpt>
      <trkpt lat="45.52377" lon="4.79828">
        <ele>460</ele>
        <time>2013-10-26T08:53:38Z</time>
      </trkpt>
      <trkpt lat="45.52376" lon="4.79839">
        <ele>455</ele>
        <time>2013-10-26T08:53:41Z</time>
      </trkpt>
      <trkpt lat="45.5238" lon="4.79844">
        <ele>455</ele>
        <time>2013-10-26T08:53:42Z</time>
      </trkpt>
      <trkpt lat="45.52384" lon="4.79848">
        <ele>456</ele>
        <time>2013-10-26T08:53:43Z</time>
      </trkpt>
      <trkpt lat="45.52386" lon="4.79857">
        <ele>456</ele>
        <time>2013-10-26T08:53:45Z</time>
      </trkpt>
      <trkpt lat="45.52388" lon="4.79863">
        <ele>455</ele>
        <time>2013-10-26T08:53:46Z</time>
      </trkpt>
      <trkpt lat="45.52397" lon="4.79865">
        <ele>456</ele>
        <time>2013-10-26T08:53:48Z</time>
      </trkpt>
      <trkpt lat="45.52399" lon="4.79868">
        <ele>456</ele>
        <time>2013-10-26T08:53:49Z</time>
      </trkpt>
      <trkpt lat="45.52405" lon="4.79874">
        <ele>456</ele>
        <time>2013-10-26T08:53:52Z</time>
      </trkpt>
      <trkpt lat="45.52408" lon="4.79876">
        <ele>456</ele>
        <time>2013-10-26T08:53:53Z</time>
      </trkpt>
      <trkpt lat="45.52415" lon="4.79882">
        <ele>456</ele>
        <time>2013-10-26T08:53:57Z</time>
      </trkpt>
      <trkpt lat="45.52416" lon="4.79883">
        <ele>456</ele>
        <time>2013-10-26T08:53:58Z</time>
      </trkpt>
      <trkpt lat="45.52418" lon="4.79895">
        <ele>456</ele>
        <time>2013-10-26T08:54:03Z</time>
      </trkpt>
      <trkpt lat="45.52418" lon="4.79896">
        <ele>456</ele>
        <time>2013-10-26T08:54:04Z</time>
      </trkpt>
      <trkpt lat="45.52418" lon="4.79896">
        <ele>456</ele>
        <time>2013-10-26T08:54:05Z</time>
      </trkpt>
      <trkpt lat="45.52418" lon="4.79896">
        <ele>456</ele>
        <time>2013-10-26T08:54:06Z</time>
      </trkpt>
      <trkpt lat="45.52418" lon="4.79896">
        <ele>456</ele>
        <time>2013-10-26T08:54:10Z</time>
      </trkpt>
      <trkpt lat="45.52418" lon="4.79897">
        <ele>456</ele>
        <time>2013-10-26T08:54:11Z</time>
      </trkpt>
      <trkpt lat="45.52418" lon="4.79897">
        <ele>456</ele>
        <time>2013-10-26T08:54:13Z</time>
      </trkpt>
      <trkpt lat="45.52419" lon="4.79897">
        <ele>456</ele>
        <time>2013-10-26T08:54:14Z</time>
      </trkpt>
      <trkpt lat="45.52419" lon="4.79898">
        <ele>456</ele>
        <time>2013-10-26T08:54:28Z</time>
      </trkpt>
      <trkpt lat="45.5242" lon="4.799">
        <ele>456</ele>
        <time>2013-10-26T08:54:29Z</time>
      </trkpt>
      <trkpt lat="45.52424" lon="4.79909">
        <ele>456</ele>
        <time>2013-10-26T08:54:34Z</time>
      </trkpt>
      <trkpt lat="45.52425" lon="4.79912">
        <ele>456</ele>
        <time>2013-10-26T08:54:35Z</time>
      </trkpt>
      <trkpt lat="45.52429" lon="4.79923">
        <ele>452</ele>
        <time>2013-10-26T08:54:38Z</time>
      </trkpt>
      <trkpt lat="45.5243" lon="4.79925">
        <ele>452</ele>
        <time>2013-10-26T08:54:39Z</time>
      </trkpt>
      <trkpt lat="45.52431" lon="4.79938">
        <ele>450</ele>
        <time>2013-10-26T08:54:45Z</time>
      </trkpt>
      <trkpt lat="45.52431" lon="4.79939">
        <ele>450</ele>
        <time>2013-10-26T08:54:46Z</time>
      </trkpt>
      <trkpt lat="45.52426" lon="4.79949">
        <ele>449</ele>
        <time>2013-10-26T08:54:52Z</time>
      </trkpt>
      <trkpt lat="45.52425" lon="4.79951">
        <ele>449</ele>
        <time>2013-10-26T08:54:53Z</time>
      </trkpt>
      <trkpt lat="45.5242" lon="4.79958">
        <ele>449</ele>
        <time>2013-10-26T08:54:56Z</time>
      </trkpt>
      <trkpt lat="45.52418" lon="4.79959">
        <ele>449</ele>
        <time>2013-10-26T08:54:57Z</time>
      </trkpt>
      <trkpt lat="45.52412" lon="4.79963">
        <ele>448</ele>
        <time>2013-10-26T08:55:00Z</time>
      </trkpt>
      <trkpt lat="45.5241" lon="4.79965">
        <ele>448</ele>
        <time>2013-10-26T08:55:01Z</time>
      </trkpt>
      <trkpt lat="45.52405" lon="4.79972">
        <ele>447</ele>
        <time>2013-10-26T08:55:04Z</time>
      </trkpt>
      <trkpt lat="45.52403" lon="4.79975">
        <ele>447</ele>
        <time>2013-10-26T08:55:05Z</time>
      </trkpt>
      <trkpt lat="45.52398" lon="4.7998">
        <ele>446</ele>
        <time>2013-10-26T08:55:07Z</time>
      </trkpt>
      <trkpt lat="45.52396" lon="4.79986">
        <ele>446</ele>
        <time>2013-10-26T08:55:08Z</time>
      </trkpt>
      <trkpt lat="45.52392" lon="4.79994">
        <ele>446</ele>
        <time>2013-10-26T08:55:10Z</time>
      </trkpt>
      <trkpt lat="45.52391" lon="4.79997">
        <ele>446</ele>
        <time>2013-10-26T08:55:11Z</time>
      </trkpt>
      <trkpt lat="45.52389" lon="4.8001">
        <ele>439</ele>
        <time>2013-10-26T08:55:15Z</time>
      </trkpt>
      <trkpt lat="45.52388" lon="4.80013">
        <ele>439</ele>
        <time>2013-10-26T08:55:16Z</time>
      </trkpt>
      <trkpt lat="45.52386" lon="4.80021">
        <ele>438</ele>
        <time>2013-10-26T08:55:18Z</time>
      </trkpt>
      <trkpt lat="45.52384" lon="4.80027">
        <ele>437</ele>
        <time>2013-10-26T08:55:19Z</time>
      </trkpt>
      <trkpt lat="45.52384" lon="4.80035">
        <ele>437</ele>
        <time>2013-10-26T08:55:21Z</time>
      </trkpt>
      <trkpt lat="45.52384" lon="4.80041">
        <ele>436</ele>
        <time>2013-10-26T08:55:22Z</time>
      </trkpt>
      <trkpt lat="45.52383" lon="4.8005">
        <ele>436</ele>
        <time>2013-10-26T08:55:24Z</time>
      </trkpt>
      <trkpt lat="45.52383" lon="4.80056">
        <ele>435</ele>
        <time>2013-10-26T08:55:25Z</time>
      </trkpt>
      <trkpt lat="45.52388" lon="4.80062">
        <ele>435</ele>
        <time>2013-10-26T08:55:27Z</time>
      </trkpt>
      <trkpt lat="45.52388" lon="4.80066">
        <ele>435</ele>
        <time>2013-10-26T08:55:28Z</time>
      </trkpt>
      <trkpt lat="45.52392" lon="4.80072">
        <ele>435</ele>
        <time>2013-10-26T08:55:29Z</time>
      </trkpt>
      <trkpt lat="45.52395" lon="4.80075">
        <ele>435</ele>
        <time>2013-10-26T08:55:30Z</time>
      </trkpt>
      <trkpt lat="45.52397" lon="4.80087">
        <ele>429</ele>
        <time>2013-10-26T08:55:33Z</time>
      </trkpt>
      <trkpt lat="45.52398" lon="4.8009">
        <ele>429</ele>
        <time>2013-10-26T08:55:34Z</time>
      </trkpt>
      <trkpt lat="45.52404" lon="4.80098">
        <ele>429</ele>
        <time>2013-10-26T08:55:38Z</time>
      </trkpt>
      <trkpt lat="45.52408" lon="4.80101">
        <ele>429</ele>
        <time>2013-10-26T08:55:39Z</time>
      </trkpt>
      <trkpt lat="45.52412" lon="4.80107">
        <ele>428</ele>
        <time>2013-10-26T08:55:41Z</time>
      </trkpt>
      <trkpt lat="45.52414" lon="4.80112">
        <ele>427</ele>
        <time>2013-10-26T08:55:42Z</time>
      </trkpt>
      <trkpt lat="45.52421" lon="4.80116">
        <ele>427</ele>
        <time>2013-10-26T08:55:45Z</time>
      </trkpt>
      <trkpt lat="45.52423" lon="4.80117">
        <ele>427</ele>
        <time>2013-10-26T08:55:46Z</time>
      </trkpt>
      <trkpt lat="45.52428" lon="4.80126">
        <ele>426</ele>
        <time>2013-10-26T08:55:53Z</time>
      </trkpt>
      <trkpt lat="45.52428" lon="4.80126">
        <ele>426</ele>
        <time>2013-10-26T08:55:54Z</time>
      </trkpt>
      <trkpt lat="45.52427" lon="4.80127">
        <ele>426</ele>
        <time>2013-10-26T08:55:55Z</time>
      </trkpt>
      <trkpt lat="45.52424" lon="4.80135">
        <ele>426</ele>
        <time>2013-10-26T08:56:00Z</time>
      </trkpt>
      <trkpt lat="45.52421" lon="4.80139">
        <ele>425</ele>
        <time>2013-10-26T08:56:01Z</time>
      </trkpt>
      <trkpt lat="45.5242" lon="4.80151">
        <ele>425</ele>
        <time>2013-10-26T08:56:04Z</time>
      </trkpt>
      <trkpt lat="45.52419" lon="4.80155">
        <ele>424</ele>
        <time>2013-10-26T08:56:05Z</time>
      </trkpt>
      <trkpt lat="45.52418" lon="4.8016">
        <ele>424</ele>
        <time>2013-10-26T08:56:06Z</time>
      </trkpt>
      <trkpt lat="45.52415" lon="4.80167">
        <ele>424</ele>
        <time>2013-10-26T08:56:07Z</time>
      </trkpt>
      <trkpt lat="45.52414" lon="4.8018">
        <ele>421</ele>
        <time>2013-10-26T08:56:09Z</time>
      </trkpt>
      <trkpt lat="45.52413" lon="4.80186">
        <ele>421</ele>
        <time>2013-10-26T08:56:10Z</time>
      </trkpt>
      <trkpt lat="45.52411" lon="4.80193">
        <ele>420</ele>
        <time>2013-10-26T08:56:12Z</time>
      </trkpt>
      <trkpt lat="45.5241" lon="4.80199">
        <ele>420</ele>
        <time>2013-10-26T08:56:12Z</time>
      </trkpt>
      <trkpt lat="45.5241" lon="4.80205">
        <ele>419</ele>
        <time>2013-10-26T08:56:13Z</time>
      </trkpt>
      <trkpt lat="45.5241" lon="4.80213">
        <ele>419</ele>
        <time>2013-10-26T08:56:14Z</time>
      </trkpt>
      <trkpt lat="45.52406" lon="4.80224">
        <ele>419</ele>
        <time>2013-10-26T08:56:15Z</time>
      </trkpt>
      <trkpt lat="45.52403" lon="4.80232">
        <ele>419</ele>
        <time>2013-10-26T08:56:16Z</time>
      </trkpt>
      <trkpt lat="45.52401" lon="4.80241">
        <ele>419</ele>
        <time>2013-10-26T08:56:17Z</time>
      </trkpt>
      <trkpt lat="45.524" lon="4.80248">
        <ele>419</ele>
        <time>2013-10-26T08:56:18Z</time>
      </trkpt>
      <trkpt lat="45.52399" lon="4.80258">
        <ele>418</ele>
        <time>2013-10-26T08:56:19Z</time>
      </trkpt>
      <trkpt lat="45.52399" lon="4.80267">
        <ele>417</ele>
        <time>2013-10-26T08:56:20Z</time>
      </trkpt>
      <trkpt lat="45.52399" lon="4.80275">
        <ele>417</ele>
        <time>2013-10-26T08:56:21Z</time>
      </trkpt>
      <trkpt lat="45.52402" lon="4.80284">
        <ele>417</ele>
        <time>2013-10-26T08:56:22Z</time>
      </trkpt>
      <trkpt lat="45.52404" lon="4.80293">
        <ele>417</ele>
        <time>2013-10-26T08:56:23Z</time>
      </trkpt>
      <trkpt lat="45.52408" lon="4.80301">
        <ele>417</ele>
        <time>2013-10-26T08:56:24Z</time>
      </trkpt>
      <trkpt lat="45.52411" lon="4.8031">
        <ele>417</ele>
        <time>2013-10-26T08:56:25Z</time>
      </trkpt>
      <trkpt lat="45.52415" lon="4.80318">
        <ele>417</ele>
        <time>2013-10-26T08:56:26Z</time>
      </trkpt>
      <trkpt lat="45.52418" lon="4.80326">
        <ele>418</ele>
        <time>2013-10-26T08:56:27Z</time>
      </trkpt>
      <trkpt lat="45.52422" lon="4.80335">
        <ele>417</ele>
        <time>2013-10-26T08:56:28Z</time>
      </trkpt>
      <trkpt lat="45.52425" lon="4.80343">
        <ele>415</ele>
        <time>2013-10-26T08:56:29Z</time>
      </trkpt>
      <trkpt lat="45.52428" lon="4.80352">
        <ele>414</ele>
        <time>2013-10-26T08:56:30Z</time>
      </trkpt>
      <trkpt lat="45.52429" lon="4.8036">
        <ele>413</ele>
        <time>2013-10-26T08:56:31Z</time>
      </trkpt>
      <trkpt lat="45.52427" lon="4.80367">
        <ele>412</ele>
        <time>2013-10-26T08:56:32Z</time>
      </trkpt>
      <trkpt lat="45.52422" lon="4.80376">
        <ele>412</ele>
        <time>2013-10-26T08:56:33Z</time>
      </trkpt>
      <trkpt lat="45.52415" lon="4.80383">
        <ele>414</ele>
        <time>2013-10-26T08:56:34Z</time>
      </trkpt>
      <trkpt lat="45.52408" lon="4.80389">
        <ele>413</ele>
        <time>2013-10-26T08:56:35Z</time>
      </trkpt>
      <trkpt lat="45.52403" lon="4.80393">
        <ele>413</ele>
        <time>2013-10-26T08:56:36Z</time>
      </trkpt>
      <trkpt lat="45.52398" lon="4.80397">
        <ele>413</ele>
        <time>2013-10-26T08:56:37Z</time>
      </trkpt>
      <trkpt lat="45.52392" lon="4.80401">
        <ele>413</ele>
        <time>2013-10-26T08:56:38Z</time>
      </trkpt>
      <trkpt lat="45.52387" lon="4.80405">
        <ele>413</ele>
        <time>2013-10-26T08:56:39Z</time>
      </trkpt>
      <trkpt lat="45.52382" lon="4.80409">
        <ele>412</ele>
        <time>2013-10-26T08:56:40Z</time>
      </trkpt>
      <trkpt lat="45.52374" lon="4.80412">
        <ele>412</ele>
        <time>2013-10-26T08:56:41Z</time>
      </trkpt>
      <trkpt lat="45.52368" lon="4.80416">
        <ele>412</ele>
        <time>2013-10-26T08:56:43Z</time>
      </trkpt>
      <trkpt lat="45.52361" lon="4.8042">
        <ele>409</ele>
        <time>2013-10-26T08:56:44Z</time>
      </trkpt>
      <trkpt lat="45.52354" lon="4.80427">
        <ele>409</ele>
        <time>2013-10-26T08:56:45Z</time>
      </trkpt>
      <trkpt lat="45.52348" lon="4.80433">
        <ele>408</ele>
        <time>2013-10-26T08:56:46Z</time>
      </trkpt>
      <trkpt lat="45.52344" lon="4.80437">
        <ele>408</ele>
        <time>2013-10-26T08:56:47Z</time>
      </trkpt>
      <trkpt lat="45.52338" lon="4.80439">
        <ele>408</ele>
        <time>2013-10-26T08:56:48Z</time>
      </trkpt>
      <trkpt lat="45.52335" lon="4.80442">
        <ele>408</ele>
        <time>2013-10-26T08:56:49Z</time>
      </trkpt>
      <trkpt lat="45.52327" lon="4.80447">
        <ele>404</ele>
        <time>2013-10-26T08:56:52Z</time>
      </trkpt>
      <trkpt lat="45.52325" lon="4.8045">
        <ele>403</ele>
        <time>2013-10-26T08:56:53Z</time>
      </trkpt>
      <trkpt lat="45.52331" lon="4.80441">
        <ele>404</ele>
        <time>2013-10-26T08:56:58Z</time>
      </trkpt>
      <trkpt lat="45.52331" lon="4.8044">
        <ele>404</ele>
        <time>2013-10-26T08:56:59Z</time>
      </trkpt>
      <trkpt lat="45.5233" lon="4.8043">
        <ele>406</ele>
        <time>2013-10-26T08:57:02Z</time>
      </trkpt>
      <trkpt lat="45.5233" lon="4.80426">
        <ele>406</ele>
        <time>2013-10-26T08:57:03Z</time>
      </trkpt>
      <trkpt lat="45.52334" lon="4.80414">
        <ele>409</ele>
        <time>2013-10-26T08:57:07Z</time>
      </trkpt>
      <trkpt lat="45.52335" lon="4.80411">
        <ele>410</ele>
        <time>2013-10-26T08:57:08Z</time>
      </trkpt>
      <trkpt lat="45.52335" lon="4.80402">
        <ele>410</ele>
        <time>2013-10-26T08:57:10Z</time>
      </trkpt>
      <trkpt lat="45.52333" lon="4.80395">
        <ele>406</ele>
        <time>2013-10-26T08:57:11Z</time>
      </trkpt>
      <trkpt lat="45.52333" lon="4.80387">
        <ele>406</ele>
        <time>2013-10-26T08:57:13Z</time>
      </trkpt>
      <trkpt lat="45.52333" lon="4.80382">
        <ele>406</ele>
        <time>2013-10-26T08:57:14Z</time>
      </trkpt>
      <trkpt lat="45.52333" lon="4.80374">
        <ele>406</ele>
        <time>2013-10-26T08:57:16Z</time>
      </trkpt>
      <trkpt lat="45.52333" lon="4.80369">
        <ele>406</ele>
        <time>2013-10-26T08:57:17Z</time>
      </trkpt>
      <trkpt lat="45.52332" lon="4.80357">
        <ele>407</ele>
        <time>2013-10-26T08:57:20Z</time>
      </trkpt>
      <trkpt lat="45.52331" lon="4.80352">
        <ele>407</ele>
        <time>2013-10-26T08:57:21Z</time>
      </trkpt>
      <trkpt lat="45.5233" lon="4.80342">
        <ele>408</ele>
        <time>2013-10-26T08:57:23Z</time>
      </trkpt>
      <trkpt lat="45.5233" lon="4.80336">
        <ele>409</ele>
        <time>2013-10-26T08:57:24Z</time>
      </trkpt>
      <trkpt lat="45.5233" lon="4.80326">
        <ele>409</ele>
        <time>2013-10-26T08:57:26Z</time>
      </trkpt>
      <trkpt lat="45.5233" lon="4.80321">
        <ele>408</ele>
        <time>2013-10-26T08:57:27Z</time>
      </trkpt>
      <trkpt lat="45.5233" lon="4.80313">
        <ele>408</ele>
        <time>2013-10-26T08:57:29Z</time>
      </trkpt>
      <trkpt lat="45.52328" lon="4.80308">
        <ele>408</ele>
        <time>2013-10-26T08:57:30Z</time>
      </trkpt>
      <trkpt lat="45.52326" lon="4.80303">
        <ele>407</ele>
        <time>2013-10-26T08:57:31Z</time>
      </trkpt>
      <trkpt lat="45.52324" lon="4.80295">
        <ele>407</ele>
        <time>2013-10-26T08:57:32Z</time>
      </trkpt>
      <trkpt lat="45.52323" lon="4.80284">
        <ele>407</ele>
        <time>2013-10-26T08:57:34Z</time>
      </trkpt>
      <trkpt lat="45.52321" lon="4.80279">
        <ele>408</ele>
        <time>2013-10-26T08:57:35Z</time>
      </trkpt>
      <trkpt lat="45.52317" lon="4.80269">
        <ele>408</ele>
        <time>2013-10-26T08:57:36Z</time>
      </trkpt>
      <trkpt lat="45.52314" lon="4.80261">
        <ele>408</ele>
        <time>2013-10-26T08:57:37Z</time>
      </trkpt>
      <trkpt lat="45.52312" lon="4.80254">
        <ele>408</ele>
        <time>2013-10-26T08:57:38Z</time>
      </trkpt>
      <trkpt lat="45.52309" lon="4.80247">
        <ele>408</ele>
        <time>2013-10-26T08:57:39Z</time>
      </trkpt>
      <trkpt lat="45.52306" lon="4.80243">
        <ele>408</ele>
        <time>2013-10-26T08:57:40Z</time>
      </trkpt>
      <trkpt lat="45.52301" lon="4.80237">
        <ele>407</ele>
        <time>2013-10-26T08:57:41Z</time>
      </trkpt>
      <trkpt lat="45.52295" lon="4.80235">
        <ele>407</ele>
        <time>2013-10-26T08:57:42Z</time>
      </trkpt>
      <trkpt lat="45.52285" lon="4.80236">
        <ele>406</ele>
        <time>2013-10-26T08:57:43Z</time>
      </trkpt>
      <trkpt lat="45.52279" lon="4.80236">
        <ele>406</ele>
        <time>2013-10-26T08:57:44Z</time>
      </trkpt>
      <trkpt lat="45.52273" lon="4.80233">
        <ele>405</ele>
        <time>2013-10-26T08:57:45Z</time>
      </trkpt>
      <trkpt lat="45.52268" lon="4.80231">
        <ele>405</ele>
        <time>2013-10-26T08:57:46Z</time>
      </trkpt>
      <trkpt lat="45.52264" lon="4.80226">
        <ele>405</ele>
        <time>2013-10-26T08:57:47Z</time>
      </trkpt>
      <trkpt lat="45.52264" lon="4.80214">
        <ele>405</ele>
        <time>2013-10-26T08:57:49Z</time>
      </trkpt>
      <trkpt lat="45.52266" lon="4.8021">
        <ele>405</ele>
        <time>2013-10-26T08:57:50Z</time>
      </trkpt>
      <trkpt lat="45.5227" lon="4.80199">
        <ele>405</ele>
        <time>2013-10-26T08:57:53Z</time>
      </trkpt>
      <trkpt lat="45.52272" lon="4.80196">
        <ele>405</ele>
        <time>2013-10-26T08:57:54Z</time>
      </trkpt>
      <trkpt lat="45.52267" lon="4.80189">
        <ele>405</ele>
        <time>2013-10-26T08:57:56Z</time>
      </trkpt>
      <trkpt lat="45.52261" lon="4.80188">
        <ele>404</ele>
        <time>2013-10-26T08:57:57Z</time>
      </trkpt>
      <trkpt lat="45.52253" lon="4.80188">
        <ele>404</ele>
        <time>2013-10-26T08:57:59Z</time>
      </trkpt>
      <trkpt lat="45.52247" lon="4.80186">
        <ele>399</ele>
        <time>2013-10-26T08:58:00Z</time>
      </trkpt>
      <trkpt lat="45.52242" lon="4.80186">
        <ele>399</ele>
        <time>2013-10-26T08:58:01Z</time>
      </trkpt>
      <trkpt lat="45.52235" lon="4.80187">
        <ele>398</ele>
        <time>2013-10-26T08:58:02Z</time>
      </trkpt>
      <trkpt lat="45.52229" lon="4.80193">
        <ele>398</ele>
        <time>2013-10-26T08:58:03Z</time>
      </trkpt>
      <trkpt lat="45.52224" lon="4.80196">
        <ele>398</ele>
        <time>2013-10-26T08:58:04Z</time>
      </trkpt>
      <trkpt lat="45.52219" lon="4.80202">
        <ele>397</ele>
        <time>2013-10-26T08:58:05Z</time>
      </trkpt>
      <trkpt lat="45.52214" lon="4.80206">
        <ele>397</ele>
        <time>2013-10-26T08:58:06Z</time>
      </trkpt>
      <trkpt lat="45.52208" lon="4.80209">
        <ele>397</ele>
        <time>2013-10-26T08:58:07Z</time>
      </trkpt>
      <trkpt lat="45.52203" lon="4.80215">
        <ele>397</ele>
        <time>2013-10-26T08:58:08Z</time>
      </trkpt>
      <trkpt lat="45.52198" lon="4.80219">
        <ele>396</ele>
        <time>2013-10-26T08:58:09Z</time>
      </trkpt>
      <trkpt lat="45.52192" lon="4.80224">
        <ele>396</ele>
        <time>2013-10-26T08:58:10Z</time>
      </trkpt>
      <trkpt lat="45.52187" lon="4.80228">
        <ele>396</ele>
        <time>2013-10-26T08:58:11Z</time>
      </trkpt>
      <trkpt lat="45.52181" lon="4.80234">
        <ele>395</ele>
        <time>2013-10-26T08:58:12Z</time>
      </trkpt>
      <trkpt lat="45.52176" lon="4.80238">
        <ele>394</ele>
        <time>2013-10-26T08:58:13Z</time>
      </trkpt>
      <trkpt lat="45.52171" lon="4.80244">
        <ele>393</ele>
        <time>2013-10-26T08:58:14Z</time>
      </trkpt>
      <trkpt lat="45.52166" lon="4.80249">
        <ele>392</ele>
        <time>2013-10-26T08:58:15Z</time>
      </trkpt>
      <trkpt lat="45.5216" lon="4.80252">
        <ele>391</ele>
        <time>2013-10-26T08:58:16Z</time>
      </trkpt>
      <trkpt lat="45.52156" lon="4.80254">
        <ele>391</ele>
        <time>2013-10-26T08:58:17Z</time>
      </trkpt>
      <trkpt lat="45.5215" lon="4.80257">
        <ele>391</ele>
        <time>2013-10-26T08:58:18Z</time>
      </trkpt>
      <trkpt lat="45.52145" lon="4.80258">
        <ele>390</ele>
        <time>2013-10-26T08:58:19Z</time>
      </trkpt>
      <trkpt lat="45.52141" lon="4.80262">
        <ele>390</ele>
        <time>2013-10-26T08:58:20Z</time>
      </trkpt>
      <trkpt lat="45.52133" lon="4.80265">
        <ele>390</ele>
        <time>2013-10-26T08:58:22Z</time>
      </trkpt>
      <trkpt lat="45.5213" lon="4.80269">
        <ele>390</ele>
        <time>2013-10-26T08:58:23Z</time>
      </trkpt>
      <trkpt lat="45.52121" lon="4.80271">
        <ele>389</ele>
        <time>2013-10-26T08:58:25Z</time>
      </trkpt>
      <trkpt lat="45.52116" lon="4.80271">
        <ele>389</ele>
        <time>2013-10-26T08:58:26Z</time>
      </trkpt>
      <trkpt lat="45.52113" lon="4.80275">
        <ele>389</ele>
        <time>2013-10-26T08:58:27Z</time>
      </trkpt>
      <trkpt lat="45.52108" lon="4.80279">
        <ele>389</ele>
        <time>2013-10-26T08:58:28Z</time>
      </trkpt>
      <trkpt lat="45.52103" lon="4.80281">
        <ele>389</ele>
        <time>2013-10-26T08:58:29Z</time>
      </trkpt>
      <trkpt lat="45.52099" lon="4.80283">
        <ele>388</ele>
        <time>2013-10-26T08:58:30Z</time>
      </trkpt>
      <trkpt lat="45.52092" lon="4.80289">
        <ele>388</ele>
        <time>2013-10-26T08:58:32Z</time>
      </trkpt>
      <trkpt lat="45.52089" lon="4.80291">
        <ele>388</ele>
        <time>2013-10-26T08:58:33Z</time>
      </trkpt>
      <trkpt lat="45.52081" lon="4.80293">
        <ele>385</ele>
        <time>2013-10-26T08:58:35Z</time>
      </trkpt>
      <trkpt lat="45.52078" lon="4.80295">
        <ele>385</ele>
        <time>2013-10-26T08:58:36Z</time>
      </trkpt>
      <trkpt lat="45.52072" lon="4.80304">
        <ele>385</ele>
        <time>2013-10-26T08:58:39Z</time>
      </trkpt>
      <trkpt lat="45.52071" lon="4.80305">
        <ele>385</ele>
        <time>2013-10-26T08:58:40Z</time>
      </trkpt>
      <trkpt lat="45.52065" lon="4.80312">
        <ele>385</ele>
        <time>2013-10-26T08:58:43Z</time>
      </trkpt>
      <trkpt lat="45.52062" lon="4.80315">
        <ele>385</ele>
        <time>2013-10-26T08:58:44Z</time>
      </trkpt>
      <trkpt lat="45.52055" lon="4.80319">
        <ele>385</ele>
        <time>2013-10-26T08:58:46Z</time>
      </trkpt>
      <trkpt lat="45.52052" lon="4.80321">
        <ele>385</ele>
        <time>2013-10-26T08:58:47Z</time>
      </trkpt>
      <trkpt lat="45.52046" lon="4.80326">
        <ele>385</ele>
        <time>2013-10-26T08:58:49Z</time>
      </trkpt>
      <trkpt lat="45.52042" lon="4.80328">
        <ele>385</ele>
        <time>2013-10-26T08:58:50Z</time>
      </trkpt>
      <trkpt lat="45.52034" lon="4.80333">
        <ele>385</ele>
        <time>2013-10-26T08:58:52Z</time>
      </trkpt>
      <trkpt lat="45.5203" lon="4.80336">
        <ele>384</ele>
        <time>2013-10-26T08:58:53Z</time>
      </trkpt>
      <trkpt lat="45.52023" lon="4.80343">
        <ele>384</ele>
        <time>2013-10-26T08:58:55Z</time>
      </trkpt>
      <trkpt lat="45.52019" lon="4.80346">
        <ele>384</ele>
        <time>2013-10-26T08:58:56Z</time>
      </trkpt>
      <trkpt lat="45.52016" lon="4.8035">
        <ele>384</ele>
        <time>2013-10-26T08:58:57Z</time>
      </trkpt>
      <trkpt lat="45.52012" lon="4.80354">
        <ele>384</ele>
        <time>2013-10-26T08:58:58Z</time>
      </trkpt>
      <trkpt lat="45.52005" lon="4.80362">
        <ele>384</ele>
        <time>2013-10-26T08:59:00Z</time>
      </trkpt>
      <trkpt lat="45.52001" lon="4.80367">
        <ele>384</ele>
        <time>2013-10-26T08:59:01Z</time>
      </trkpt>
      <trkpt lat="45.51998" lon="4.80371">
        <ele>384</ele>
        <time>2013-10-26T08:59:02Z</time>
      </trkpt>
      <trkpt lat="45.51994" lon="4.80376">
        <ele>384</ele>
        <time>2013-10-26T08:59:03Z</time>
      </trkpt>
      <trkpt lat="45.51987" lon="4.80382">
        <ele>383</ele>
        <time>2013-10-26T08:59:05Z</time>
      </trkpt>
      <trkpt lat="45.51983" lon="4.80387">
        <ele>383</ele>
        <time>2013-10-26T08:59:06Z</time>
      </trkpt>
      <trkpt lat="45.51976" lon="4.8039">
        <ele>383</ele>
        <time>2013-10-26T08:59:08Z</time>
      </trkpt>
      <trkpt lat="45.51972" lon="4.80393">
        <ele>383</ele>
        <time>2013-10-26T08:59:09Z</time>
      </trkpt>
      <trkpt lat="45.51966" lon="4.80397">
        <ele>383</ele>
        <time>2013-10-26T08:59:11Z</time>
      </trkpt>
      <trkpt lat="45.51962" lon="4.80399">
        <ele>383</ele>
        <time>2013-10-26T08:59:12Z</time>
      </trkpt>
      <trkpt lat="45.51955" lon="4.80403">
        <ele>383</ele>
        <time>2013-10-26T08:59:14Z</time>
      </trkpt>
      <trkpt lat="45.51951" lon="4.80405">
        <ele>383</ele>
        <time>2013-10-26T08:59:15Z</time>
      </trkpt>
      <trkpt lat="45.51943" lon="4.80409">
        <ele>383</ele>
        <time>2013-10-26T08:59:17Z</time>
      </trkpt>
      <trkpt lat="45.5194" lon="4.80411">
        <ele>383</ele>
        <time>2013-10-26T08:59:18Z</time>
      </trkpt>
      <trkpt lat="45.51932" lon="4.80415">
        <ele>383</ele>
        <time>2013-10-26T08:59:20Z</time>
      </trkpt>
      <trkpt lat="45.51929" lon="4.80416">
        <ele>383</ele>
        <time>2013-10-26T08:59:21Z</time>
      </trkpt>
      <trkpt lat="45.51921" lon="4.80419">
        <ele>382</ele>
        <time>2013-10-26T08:59:23Z</time>
      </trkpt>
      <trkpt lat="45.51918" lon="4.80421">
        <ele>383</ele>
        <time>2013-10-26T08:59:24Z</time>
      </trkpt>
      <trkpt lat="45.5191" lon="4.80424">
        <ele>382</ele>
        <time>2013-10-26T08:59:26Z</time>
      </trkpt>
      <trkpt lat="45.51906" lon="4.80425">
        <ele>382</ele>
        <time>2013-10-26T08:59:27Z</time>
      </trkpt>
      <trkpt lat="45.51897" lon="4.80429">
        <ele>382</ele>
        <time>2013-10-26T08:59:29Z</time>
      </trkpt>
      <trkpt lat="45.51893" lon="4.80432">
        <ele>381</ele>
        <time>2013-10-26T08:59:30Z</time>
      </trkpt>
      <trkpt lat="45.51885" lon="4.80437">
        <ele>381</ele>
        <time>2013-10-26T08:59:32Z</time>
      </trkpt>
      <trkpt lat="45.5188" lon="4.80437">
        <ele>381</ele>
        <time>2013-10-26T08:59:33Z</time>
      </trkpt>
      <trkpt lat="45.51875" lon="4.80439">
        <ele>381</ele>
        <time>2013-10-26T08:59:34Z</time>
      </trkpt>
      <trkpt lat="45.51871" lon="4.80441">
        <ele>381</ele>
        <time>2013-10-26T08:59:35Z</time>
      </trkpt>
      <trkpt lat="45.51866" lon="4.80445">
        <ele>381</ele>
        <time>2013-10-26T08:59:36Z</time>
      </trkpt>
      <trkpt lat="45.51862" lon="4.80448">
        <ele>381</ele>
        <time>2013-10-26T08:59:37Z</time>
      </trkpt>
      <trkpt lat="45.51854" lon="4.8045">
        <ele>381</ele>
        <time>2013-10-26T08:59:39Z</time>
      </trkpt>
      <trkpt lat="45.51851" lon="4.80452">
        <ele>381</ele>
        <time>2013-10-26T08:59:40Z</time>
      </trkpt>
      <trkpt lat="45.51842" lon="4.80457">
        <ele>381</ele>
        <time>2013-10-26T08:59:42Z</time>
      </trkpt>
      <trkpt lat="45.51839" lon="4.80457">
        <ele>381</ele>
        <time>2013-10-26T08:59:43Z</time>
      </trkpt>
      <trkpt lat="45.51833" lon="4.80465">
        <ele>380</ele>
        <time>2013-10-26T08:59:45Z</time>
      </trkpt>
      <trkpt lat="45.5183" lon="4.8047">
        <ele>380</ele>
        <time>2013-10-26T08:59:46Z</time>
      </trkpt>
      <trkpt lat="45.51824" lon="4.80478">
        <ele>380</ele>
        <time>2013-10-26T08:59:48Z</time>
      </trkpt>
      <trkpt lat="45.51821" lon="4.80482">
        <ele>380</ele>
        <time>2013-10-26T08:59:49Z</time>
      </trkpt>
      <trkpt lat="45.51818" lon="4.80486">
        <ele>380</ele>
        <time>2013-10-26T08:59:50Z</time>
      </trkpt>
      <trkpt lat="45.51814" lon="4.8049">
        <ele>380</ele>
        <time>2013-10-26T08:59:51Z</time>
      </trkpt>
      <trkpt lat="45.51807" lon="4.80496">
        <ele>380</ele>
        <time>2013-10-26T08:59:53Z</time>
      </trkpt>
      <trkpt lat="45.51804" lon="4.80499">
        <ele>380</ele>
        <time>2013-10-26T08:59:54Z</time>
      </trkpt>
      <trkpt lat="45.518" lon="4.80503">
        <ele>377</ele>
        <time>2013-10-26T08:59:55Z</time>
      </trkpt>
      <trkpt lat="45.51796" lon="4.80506">
        <ele>377</ele>
        <time>2013-10-26T08:59:56Z</time>
      </trkpt>
      <trkpt lat="45.51789" lon="4.80511">
        <ele>377</ele>
        <time>2013-10-26T08:59:58Z</time>
      </trkpt>
      <trkpt lat="45.51785" lon="4.80514">
        <ele>377</ele>
        <time>2013-10-26T08:59:59Z</time>
      </trkpt>
      <trkpt lat="45.51779" lon="4.80513">
        <ele>377</ele>
        <time>2013-10-26T09:00:00Z</time>
      </trkpt>
      <trkpt lat="45.51775" lon="4.80514">
        <ele>377</ele>
        <time>2013-10-26T09:00:01Z</time>
      </trkpt>
      <trkpt lat="45.51768" lon="4.80519">
        <ele>377</ele>
        <time>2013-10-26T09:00:03Z</time>
      </trkpt>
      <trkpt lat="45.51763" lon="4.80521">
        <ele>377</ele>
        <time>2013-10-26T09:00:04Z</time>
      </trkpt>
      <trkpt lat="45.51756" lon="4.80525">
        <ele>377</ele>
        <time>2013-10-26T09:00:06Z</time>
      </trkpt>
      <trkpt lat="45.51752" lon="4.80528">
        <ele>377</ele>
        <time>2013-10-26T09:00:07Z</time>
      </trkpt>
      <trkpt lat="45.51744" lon="4.80532">
        <ele>376</ele>
        <time>2013-10-26T09:00:09Z</time>
      </trkpt>
      <trkpt lat="45.5174" lon="4.80535">
        <ele>375</ele>
        <time>2013-10-26T09:00:10Z</time>
      </trkpt>
      <trkpt lat="45.51733" lon="4.8054">
        <ele>375</ele>
        <time>2013-10-26T09:00:12Z</time>
      </trkpt>
      <trkpt lat="45.51729" lon="4.80543">
        <ele>375</ele>
        <time>2013-10-26T09:00:13Z</time>
      </trkpt>
      <trkpt lat="45.51722" lon="4.80547">
        <ele>375</ele>
        <time>2013-10-26T09:00:15Z</time>
      </trkpt>
      <trkpt lat="45.51718" lon="4.8055">
        <ele>375</ele>
        <time>2013-10-26T09:00:16Z</time>
      </trkpt>
      <trkpt lat="45.51711" lon="4.80554">
        <ele>375</ele>
        <time>2013-10-26T09:00:18Z</time>
      </trkpt>
      <trkpt lat="45.51708" lon="4.80555">
        <ele>374</ele>
        <time>2013-10-26T09:00:19Z</time>
      </trkpt>
      <trkpt lat="45.517" lon="4.80559">
        <ele>374</ele>
        <time>2013-10-26T09:00:21Z</time>
      </trkpt>
      <trkpt lat="45.51696" lon="4.8056">
        <ele>374</ele>
        <time>2013-10-26T09:00:22Z</time>
      </trkpt>
      <trkpt lat="45.51688" lon="4.80563">
        <ele>374</ele>
        <time>2013-10-26T09:00:24Z</time>
      </trkpt>
      <trkpt lat="45.51685" lon="4.80564">
        <ele>374</ele>
        <time>2013-10-26T09:00:25Z</time>
      </trkpt>
      <trkpt lat="45.51677" lon="4.80569">
        <ele>374</ele>
        <time>2013-10-26T09:00:27Z</time>
      </trkpt>
      <trkpt lat="45.51674" lon="4.80571">
        <ele>374</ele>
        <time>2013-10-26T09:00:28Z</time>
      </trkpt>
      <trkpt lat="45.51667" lon="4.80574">
        <ele>374</ele>
        <time>2013-10-26T09:00:30Z</time>
      </trkpt>
      <trkpt lat="45.51662" lon="4.80576">
        <ele>373</ele>
        <time>2013-10-26T09:00:31Z</time>
      </trkpt>
      <trkpt lat="45.51654" lon="4.80579">
        <ele>373</ele>
        <time>2013-10-26T09:00:33Z</time>
      </trkpt>
      <trkpt lat="45.5165" lon="4.8058">
        <ele>373</ele>
        <time>2013-10-26T09:00:34Z</time>
      </trkpt>
      <trkpt lat="45.51646" lon="4.80581">
        <ele>372</ele>
        <time>2013-10-26T09:00:35Z</time>
      </trkpt>
      <trkpt lat="45.51641" lon="4.80582">
        <ele>372</ele>
        <time>2013-10-26T09:00:36Z</time>
      </trkpt>
      <trkpt lat="45.51635" lon="4.80583">
        <ele>372</ele>
        <time>2013-10-26T09:00:37Z</time>
      </trkpt>
      <trkpt lat="45.5163" lon="4.80584">
        <ele>371</ele>
        <time>2013-10-26T09:00:38Z</time>
      </trkpt>
      <trkpt lat="45.51625" lon="4.80585">
        <ele>371</ele>
        <time>2013-10-26T09:00:39Z</time>
      </trkpt>
      <trkpt lat="45.51619" lon="4.80586">
        <ele>371</ele>
        <time>2013-10-26T09:00:40Z</time>
      </trkpt>
      <trkpt lat="45.51614" lon="4.80586">
        <ele>371</ele>
        <time>2013-10-26T09:00:41Z</time>
      </trkpt>
      <trkpt lat="45.51608" lon="4.80587">
        <ele>371</ele>
        <time>2013-10-26T09:00:42Z</time>
      </trkpt>
      <trkpt lat="45.51602" lon="4.80588">
        <ele>370</ele>
        <time>2013-10-26T09:00:43Z</time>
      </trkpt>
      <trkpt lat="45.51597" lon="4.80589">
        <ele>370</ele>
        <time>2013-10-26T09:00:44Z</time>
      </trkpt>
      <trkpt lat="45.51591" lon="4.8059">
        <ele>370</ele>
        <time>2013-10-26T09:00:45Z</time>
      </trkpt>
      <trkpt lat="45.51585" lon="4.80591">
        <ele>370</ele>
        <time>2013-10-26T09:00:46Z</time>
      </trkpt>
      <trkpt lat="45.51579" lon="4.80592">
        <ele>369</ele>
        <time>2013-10-26T09:00:47Z</time>
      </trkpt>
      <trkpt lat="45.51573" lon="4.80593">
        <ele>369</ele>
        <time>2013-10-26T09:00:48Z</time>
      </trkpt>
      <trkpt lat="45.51568" lon="4.80594">
        <ele>369</ele>
        <time>2013-10-26T09:00:49Z</time>
      </trkpt>
      <trkpt lat="45.51562" lon="4.80596">
        <ele>369</ele>
        <time>2013-10-26T09:00:50Z</time>
      </trkpt>
      <trkpt lat="45.51557" lon="4.80596">
        <ele>369</ele>
        <time>2013-10-26T09:00:51Z</time>
      </trkpt>
      <trkpt lat="45.51551" lon="4.80597">
        <ele>369</ele>
        <time>2013-10-26T09:00:52Z</time>
      </trkpt>
      <trkpt lat="45.51545" lon="4.80598">
        <ele>368</ele>
        <time>2013-10-26T09:00:53Z</time>
      </trkpt>
      <trkpt lat="45.51539" lon="4.80598">
        <ele>368</ele>
        <time>2013-10-26T09:00:54Z</time>
      </trkpt>
      <trkpt lat="45.51533" lon="4.80597">
        <ele>368</ele>
        <time>2013-10-26T09:00:55Z</time>
      </trkpt>
      <trkpt lat="45.51528" lon="4.80597">
        <ele>368</ele>
        <time>2013-10-26T09:00:56Z</time>
      </trkpt>
      <trkpt lat="45.51522" lon="4.806">
        <ele>368</ele>
        <time>2013-10-26T09:00:57Z</time>
      </trkpt>
      <trkpt lat="45.51516" lon="4.80599">
        <ele>368</ele>
        <time>2013-10-26T09:00:58Z</time>
      </trkpt>
      <trkpt lat="45.5151" lon="4.806">
        <ele>368</ele>
        <time>2013-10-26T09:00:59Z</time>
      </trkpt>
      <trkpt lat="45.51505" lon="4.806">
        <ele>368</ele>
        <time>2013-10-26T09:01:00Z</time>
      </trkpt>
      <trkpt lat="45.51498" lon="4.806">
        <ele>366</ele>
        <time>2013-10-26T09:01:01Z</time>
      </trkpt>
      <trkpt lat="45.51492" lon="4.80599">
        <ele>366</ele>
        <time>2013-10-26T09:01:02Z</time>
      </trkpt>
      <trkpt lat="45.51487" lon="4.80602">
        <ele>366</ele>
        <time>2013-10-26T09:01:03Z</time>
      </trkpt>
      <trkpt lat="45.51482" lon="4.80604">
        <ele>366</ele>
        <time>2013-10-26T09:01:04Z</time>
      </trkpt>
      <trkpt lat="45.51477" lon="4.80604">
        <ele>366</ele>
        <time>2013-10-26T09:01:05Z</time>
      </trkpt>
      <trkpt lat="45.51472" lon="4.80604">
        <ele>366</ele>
        <time>2013-10-26T09:01:06Z</time>
      </trkpt>
      <trkpt lat="45.51468" lon="4.80605">
        <ele>366</ele>
        <time>2013-10-26T09:01:07Z</time>
      </trkpt>
      <trkpt lat="45.51462" lon="4.80604">
        <ele>366</ele>
        <time>2013-10-26T09:01:08Z</time>
      </trkpt>
      <trkpt lat="45.51454" lon="4.80604">
        <ele>366</ele>
        <time>2013-10-26T09:01:10Z</time>
      </trkpt>
      <trkpt lat="45.51449" lon="4.80605">
        <ele>366</ele>
        <time>2013-10-26T09:01:11Z</time>
      </trkpt>
      <trkpt lat="45.51442" lon="4.80607">
        <ele>366</ele>
        <time>2013-10-26T09:01:12Z</time>
      </trkpt>
      <trkpt lat="45.51438" lon="4.80609">
        <ele>366</ele>
        <time>2013-10-26T09:01:13Z</time>
      </trkpt>
      <trkpt lat="45.51432" lon="4.8061">
        <ele>366</ele>
        <time>2013-10-26T09:01:14Z</time>
      </trkpt>
      <trkpt lat="45.51427" lon="4.80613">
        <ele>366</ele>
        <time>2013-10-26T09:01:15Z</time>
      </trkpt>
      <trkpt lat="45.51421" lon="4.80615">
        <ele>366</ele>
        <time>2013-10-26T09:01:16Z</time>
      </trkpt>
      <trkpt lat="45.51415" lon="4.80616">
        <ele>363</ele>
        <time>2013-10-26T09:01:17Z</time>
      </trkpt>
      <trkpt lat="45.5141" lon="4.80617">
        <ele>363</ele>
        <time>2013-10-26T09:01:18Z</time>
      </trkpt>
      <trkpt lat="45.51404" lon="4.80616">
        <ele>363</ele>
        <time>2013-10-26T09:01:19Z</time>
      </trkpt>
      <trkpt lat="45.51399" lon="4.80615">
        <ele>362</ele>
        <time>2013-10-26T09:01:20Z</time>
      </trkpt>
      <trkpt lat="45.51395" lon="4.8062">
        <ele>362</ele>
        <time>2013-10-26T09:01:21Z</time>
      </trkpt>
      <trkpt lat="45.51387" lon="4.80621">
        <ele>362</ele>
        <time>2013-10-26T09:01:23Z</time>
      </trkpt>
      <trkpt lat="45.51383" lon="4.80624">
        <ele>362</ele>
        <time>2013-10-26T09:01:24Z</time>
      </trkpt>
      <trkpt lat="45.51374" lon="4.80626">
        <ele>361</ele>
        <time>2013-10-26T09:01:26Z</time>
      </trkpt>
      <trkpt lat="45.51371" lon="4.80624">
        <ele>361</ele>
        <time>2013-10-26T09:01:27Z</time>
      </trkpt>
      <trkpt lat="45.51366" lon="4.80615">
        <ele>361</ele>
        <time>2013-10-26T09:01:31Z</time>
      </trkpt>
      <trkpt lat="45.51366" lon="4.80612">
        <ele>361</ele>
        <time>2013-10-26T09:01:32Z</time>
      </trkpt>
      <trkpt lat="45.51364" lon="4.80602">
        <ele>362</ele>
        <time>2013-10-26T09:01:37Z</time>
      </trkpt>
      <trkpt lat="45.51365" lon="4.80599">
        <ele>362</ele>
        <time>2013-10-26T09:01:38Z</time>
      </trkpt>
      <trkpt lat="45.51364" lon="4.80587">
        <ele>362</ele>
        <time>2013-10-26T09:01:43Z</time>
      </trkpt>
      <trkpt lat="45.51362" lon="4.80584">
        <ele>362</ele>
        <time>2013-10-26T09:01:44Z</time>
      </trkpt>
      <trkpt lat="45.51361" lon="4.80573">
        <ele>363</ele>
        <time>2013-10-26T09:01:48Z</time>
      </trkpt>
      <trkpt lat="45.5136" lon="4.80571">
        <ele>363</ele>
        <time>2013-10-26T09:01:49Z</time>
      </trkpt>
      <trkpt lat="45.51358" lon="4.80559">
        <ele>363</ele>
        <time>2013-10-26T09:01:54Z</time>
      </trkpt>
      <trkpt lat="45.5136" lon="4.80555">
        <ele>363</ele>
        <time>2013-10-26T09:01:55Z</time>
      </trkpt>
      <trkpt lat="45.51354" lon="4.80547">
        <ele>363</ele>
        <time>2013-10-26T09:01:57Z</time>
      </trkpt>
      <trkpt lat="45.51353" lon="4.80543">
        <ele>363</ele>
        <time>2013-10-26T09:01:58Z</time>
      </trkpt>
      <trkpt lat="45.51351" lon="4.80534">
        <ele>363</ele>
        <time>2013-10-26T09:02:02Z</time>
      </trkpt>
      <trkpt lat="45.51348" lon="4.80531">
        <ele>363</ele>
        <time>2013-10-26T09:02:03Z</time>
      </trkpt>
      <trkpt lat="45.51347" lon="4.8052">
        <ele>363</ele>
        <time>2013-10-26T09:02:07Z</time>
      </trkpt>
      <trkpt lat="45.51347" lon="4.80517">
        <ele>363</ele>
        <time>2013-10-26T09:02:08Z</time>
      </trkpt>
      <trkpt lat="45.51345" lon="4.80505">
        <ele>363</ele>
        <time>2013-10-26T09:02:10Z</time>
      </trkpt>
      <trkpt lat="45.51343" lon="4.80501">
        <ele>363</ele>
        <time>2013-10-26T09:02:11Z</time>
      </trkpt>
      <trkpt lat="45.51342" lon="4.80495">
        <ele>362</ele>
        <time>2013-10-26T09:02:12Z</time>
      </trkpt>
      <trkpt lat="45.51342" lon="4.80487">
        <ele>362</ele>
        <time>2013-10-26T09:02:13Z</time>
      </trkpt>
      <trkpt lat="45.51342" lon="4.8048">
        <ele>361</ele>
        <time>2013-10-26T09:02:14Z</time>
      </trkpt>
      <trkpt lat="45.51342" lon="4.80472">
        <ele>361</ele>
        <time>2013-10-26T09:02:15Z</time>
      </trkpt>
      <trkpt lat="45.51341" lon="4.80463">
        <ele>360</ele>
        <time>2013-10-26T09:02:16Z</time>
      </trkpt>
      <trkpt lat="45.5134" lon="4.80455">
        <ele>360</ele>
        <time>2013-10-26T09:02:17Z</time>
      </trkpt>
      <trkpt lat="45.5134" lon="4.80444">
        <ele>360</ele>
        <time>2013-10-26T09:02:18Z</time>
      </trkpt>
      <trkpt lat="45.5134" lon="4.80436">
        <ele>359</ele>
        <time>2013-10-26T09:02:19Z</time>
      </trkpt>
      <trkpt lat="45.5134" lon="4.80428">
        <ele>359</ele>
        <time>2013-10-26T09:02:20Z</time>
      </trkpt>
      <trkpt lat="45.51338" lon="4.80422">
        <ele>359</ele>
        <time>2013-10-26T09:02:21Z</time>
      </trkpt>
      <trkpt lat="45.51336" lon="4.80416">
        <ele>359</ele>
        <time>2013-10-26T09:02:22Z</time>
      </trkpt>
      <trkpt lat="45.51333" lon="4.80411">
        <ele>358</ele>
        <time>2013-10-26T09:02:23Z</time>
      </trkpt>
      <trkpt lat="45.51328" lon="4.80402">
        <ele>357</ele>
        <time>2013-10-26T09:02:25Z</time>
      </trkpt>
      <trkpt lat="45.51325" lon="4.80398">
        <ele>356</ele>
        <time>2013-10-26T09:02:26Z</time>
      </trkpt>
      <trkpt lat="45.51318" lon="4.80395">
        <ele>356</ele>
        <time>2013-10-26T09:02:29Z</time>
      </trkpt>
      <trkpt lat="45.51315" lon="4.80396">
        <ele>356</ele>
        <time>2013-10-26T09:02:30Z</time>
      </trkpt>
      <trkpt lat="45.51307" lon="4.80395">
        <ele>355</ele>
        <time>2013-10-26T09:02:34Z</time>
      </trkpt>
      <trkpt lat="45.51304" lon="4.80395">
        <ele>355</ele>
        <time>2013-10-26T09:02:35Z</time>
      </trkpt>
      <trkpt lat="45.51295" lon="4.80395">
        <ele>355</ele>
        <time>2013-10-26T09:02:39Z</time>
      </trkpt>
      <trkpt lat="45.51293" lon="4.80396">
        <ele>355</ele>
        <time>2013-10-26T09:02:40Z</time>
      </trkpt>
      <trkpt lat="45.51285" lon="4.80394">
        <ele>355</ele>
        <time>2013-10-26T09:02:43Z</time>
      </trkpt>
      <trkpt lat="45.51282" lon="4.80394">
        <ele>355</ele>
        <time>2013-10-26T09:02:44Z</time>
      </trkpt>
      <trkpt lat="45.51275" lon="4.80396">
        <ele>355</ele>
        <time>2013-10-26T09:02:46Z</time>
      </trkpt>
      <trkpt lat="45.51272" lon="4.80397">
        <ele>355</ele>
        <time>2013-10-26T09:02:47Z</time>
      </trkpt>
      <trkpt lat="45.51265" lon="4.804">
        <ele>356</ele>
        <time>2013-10-26T09:02:49Z</time>
      </trkpt>
      <trkpt lat="45.51262" lon="4.80402">
        <ele>356</ele>
        <time>2013-10-26T09:02:50Z</time>
      </trkpt>
      <trkpt lat="45.51256" lon="4.80403">
        <ele>357</ele>
        <time>2013-10-26T09:02:52Z</time>
      </trkpt>
      <trkpt lat="45.51252" lon="4.80404">
        <ele>357</ele>
        <time>2013-10-26T09:02:53Z</time>
      </trkpt>
      <trkpt lat="45.51245" lon="4.80403">
        <ele>357</ele>
        <time>2013-10-26T09:02:55Z</time>
      </trkpt>
      <trkpt lat="45.51242" lon="4.80402">
        <ele>357</ele>
        <time>2013-10-26T09:02:56Z</time>
      </trkpt>
      <trkpt lat="45.51236" lon="4.80394">
        <ele>356</ele>
        <time>2013-10-26T09:02:58Z</time>
      </trkpt>
      <trkpt lat="45.51234" lon="4.8039">
        <ele>355</ele>
        <time>2013-10-26T09:02:59Z</time>
      </trkpt>
      <trkpt lat="45.5123" lon="4.8038">
        <ele>354</ele>
        <time>2013-10-26T09:03:01Z</time>
      </trkpt>
      <trkpt lat="45.51228" lon="4.80375">
        <ele>354</ele>
        <time>2013-10-26T09:03:02Z</time>
      </trkpt>
      <trkpt lat="45.51225" lon="4.80369">
        <ele>353</ele>
        <time>2013-10-26T09:03:03Z</time>
      </trkpt>
      <trkpt lat="45.51223" lon="4.80363">
        <ele>353</ele>
        <time>2013-10-26T09:03:04Z</time>
      </trkpt>
      <trkpt lat="45.51217" lon="4.80354">
        <ele>352</ele>
        <time>2013-10-26T09:03:06Z</time>
      </trkpt>
      <trkpt lat="45.51213" lon="4.80348">
        <ele>352</ele>
        <time>2013-10-26T09:03:07Z</time>
      </trkpt>
      <trkpt lat="45.5121" lon="4.80342">
        <ele>352</ele>
        <time>2013-10-26T09:03:08Z</time>
      </trkpt>
      <trkpt lat="45.51206" lon="4.80339">
        <ele>352</ele>
        <time>2013-10-26T09:03:09Z</time>
      </trkpt>
      <trkpt lat="45.51199" lon="4.80336">
        <ele>351</ele>
        <time>2013-10-26T09:03:10Z</time>
      </trkpt>
      <trkpt lat="45.5119" lon="4.80332">
        <ele>343</ele>
        <time>2013-10-26T09:03:11Z</time>
      </trkpt>
      <trkpt lat="45.51184" lon="4.80328">
        <ele>344</ele>
        <time>2013-10-26T09:03:12Z</time>
      </trkpt>
      <trkpt lat="45.51178" lon="4.80325">
        <ele>344</ele>
        <time>2013-10-26T09:03:13Z</time>
      </trkpt>
      <trkpt lat="45.51171" lon="4.80323">
        <ele>344</ele>
        <time>2013-10-26T09:03:14Z</time>
      </trkpt>
      <trkpt lat="45.51164" lon="4.80322">
        <ele>344</ele>
        <time>2013-10-26T09:03:15Z</time>
      </trkpt>
      <trkpt lat="45.51158" lon="4.8032">
        <ele>344</ele>
        <time>2013-10-26T09:03:16Z</time>
      </trkpt>
      <trkpt lat="45.51151" lon="4.80318">
        <ele>343</ele>
        <time>2013-10-26T09:03:17Z</time>
      </trkpt>
      <trkpt lat="45.51146" lon="4.80317">
        <ele>343</ele>
        <time>2013-10-26T09:03:18Z</time>
      </trkpt>
      <trkpt lat="45.51139" lon="4.80316">
        <ele>342</ele>
        <time>2013-10-26T09:03:19Z</time>
      </trkpt>
      <trkpt lat="45.51133" lon="4.80315">
        <ele>342</ele>
        <time>2013-10-26T09:03:20Z</time>
      </trkpt>
      <trkpt lat="45.51129" lon="4.80313">
        <ele>342</ele>
        <time>2013-10-26T09:03:21Z</time>
      </trkpt>
      <trkpt lat="45.51123" lon="4.8031">
        <ele>342</ele>
        <time>2013-10-26T09:03:22Z</time>
      </trkpt>
      <trkpt lat="45.51118" lon="4.80306">
        <ele>342</ele>
        <time>2013-10-26T09:03:23Z</time>
      </trkpt>
      <trkpt lat="45.5111" lon="4.8031">
        <ele>342</ele>
        <time>2013-10-26T09:03:24Z</time>
      </trkpt>
      <trkpt lat="45.51103" lon="4.8031">
        <ele>343</ele>
        <time>2013-10-26T09:03:25Z</time>
      </trkpt>
      <trkpt lat="45.51096" lon="4.8031">
        <ele>343</ele>
        <time>2013-10-26T09:03:26Z</time>
      </trkpt>
      <trkpt lat="45.51089" lon="4.80308">
        <ele>343</ele>
        <time>2013-10-26T09:03:27Z</time>
      </trkpt>
      <trkpt lat="45.51082" lon="4.80307">
        <ele>342</ele>
        <time>2013-10-26T09:03:28Z</time>
      </trkpt>
      <trkpt lat="45.51076" lon="4.80306">
        <ele>342</ele>
        <time>2013-10-26T09:03:29Z</time>
      </trkpt>
      <trkpt lat="45.51069" lon="4.80305">
        <ele>341</ele>
        <time>2013-10-26T09:03:30Z</time>
      </trkpt>
      <trkpt lat="45.51063" lon="4.80305">
        <ele>341</ele>
        <time>2013-10-26T09:03:31Z</time>
      </trkpt>
      <trkpt lat="45.51056" lon="4.80304">
        <ele>341</ele>
        <time>2013-10-26T09:03:32Z</time>
      </trkpt>
      <trkpt lat="45.51049" lon="4.80304">
        <ele>340</ele>
        <time>2013-10-26T09:03:33Z</time>
      </trkpt>
      <trkpt lat="45.51043" lon="4.80303">
        <ele>340</ele>
        <time>2013-10-26T09:03:34Z</time>
      </trkpt>
      <trkpt lat="45.51036" lon="4.80303">
        <ele>340</ele>
        <time>2013-10-26T09:03:35Z</time>
      </trkpt>
      <trkpt lat="45.51032" lon="4.80306">
        <ele>340</ele>
        <time>2013-10-26T09:03:36Z</time>
      </trkpt>
      <trkpt lat="45.51028" lon="4.80308">
        <ele>341</ele>
        <time>2013-10-26T09:03:37Z</time>
      </trkpt>
      <trkpt lat="45.51033" lon="4.80298">
        <ele>340</ele>
        <time>2013-10-26T09:03:44Z</time>
      </trkpt>
      <trkpt lat="45.51037" lon="4.80299">
        <ele>340</ele>
        <time>2013-10-26T09:03:45Z</time>
      </trkpt>
      <trkpt lat="45.51045" lon="4.80297">
        <ele>340</ele>
        <time>2013-10-26T09:03:46Z</time>
      </trkpt>
      <trkpt lat="45.51048" lon="4.80295">
        <ele>339</ele>
        <time>2013-10-26T09:03:47Z</time>
      </trkpt>
      <trkpt lat="45.51053" lon="4.80294">
        <ele>339</ele>
        <time>2013-10-26T09:03:48Z</time>
      </trkpt>
      <trkpt lat="45.51058" lon="4.80292">
        <ele>339</ele>
        <time>2013-10-26T09:03:49Z</time>
      </trkpt>
      <trkpt lat="45.51062" lon="4.80289">
        <ele>339</ele>
        <time>2013-10-26T09:03:50Z</time>
      </trkpt>
      <trkpt lat="45.51069" lon="4.80288">
        <ele>339</ele>
        <time>2013-10-26T09:03:51Z</time>
      </trkpt>
      <trkpt lat="45.51073" lon="4.80287">
        <ele>339</ele>
        <time>2013-10-26T09:03:52Z</time>
      </trkpt>
      <trkpt lat="45.51078" lon="4.80285">
        <ele>338</ele>
        <time>2013-10-26T09:03:53Z</time>
      </trkpt>
      <trkpt lat="45.51085" lon="4.8028">
        <ele>338</ele>
        <time>2013-10-26T09:03:54Z</time>
      </trkpt>
      <trkpt lat="45.51092" lon="4.80275">
        <ele>337</ele>
        <time>2013-10-26T09:03:55Z</time>
      </trkpt>
      <trkpt lat="45.51099" lon="4.80274">
        <ele>338</ele>
        <time>2013-10-26T09:03:56Z</time>
      </trkpt>
      <trkpt lat="45.51111" lon="4.80277">
        <ele>338</ele>
        <time>2013-10-26T09:03:57Z</time>
      </trkpt>
      <trkpt lat="45.51115" lon="4.80279">
        <ele>339</ele>
        <time>2013-10-26T09:03:58Z</time>
      </trkpt>
      <trkpt lat="45.51122" lon="4.80279">
        <ele>339</ele>
        <time>2013-10-26T09:03:59Z</time>
      </trkpt>
      <trkpt lat="45.51128" lon="4.80279">
        <ele>339</ele>
        <time>2013-10-26T09:04:00Z</time>
      </trkpt>
      <trkpt lat="45.51133" lon="4.80279">
        <ele>339</ele>
        <time>2013-10-26T09:04:01Z</time>
      </trkpt>
      <trkpt lat="45.51141" lon="4.8028">
        <ele>339</ele>
        <time>2013-10-26T09:04:02Z</time>
      </trkpt>
      <trkpt lat="45.51146" lon="4.80278">
        <ele>338</ele>
        <time>2013-10-26T09:04:03Z</time>
      </trkpt>
      <trkpt lat="45.51154" lon="4.80277">
        <ele>338</ele>
        <time>2013-10-26T09:04:05Z</time>
      </trkpt>
      <trkpt lat="45.51158" lon="4.80276">
        <ele>338</ele>
        <time>2013-10-26T09:04:06Z</time>
      </trkpt>
      <trkpt lat="45.51164" lon="4.8027">
        <ele>337</ele>
        <time>2013-10-26T09:04:08Z</time>
      </trkpt>
      <trkpt lat="45.51167" lon="4.80266">
        <ele>336</ele>
        <time>2013-10-26T09:04:09Z</time>
      </trkpt>
      <trkpt lat="45.51162" lon="4.80259">
        <ele>335</ele>
        <time>2013-10-26T09:04:11Z</time>
      </trkpt>
      <trkpt lat="45.51155" lon="4.80256">
        <ele>335</ele>
        <time>2013-10-26T09:04:12Z</time>
      </trkpt>
      <trkpt lat="45.51151" lon="4.80255">
        <ele>336</ele>
        <time>2013-10-26T09:04:13Z</time>
      </trkpt>
      <trkpt lat="45.51146" lon="4.80254">
        <ele>336</ele>
        <time>2013-10-26T09:04:14Z</time>
      </trkpt>
      <trkpt lat="45.5114" lon="4.80255">
        <ele>337</ele>
        <time>2013-10-26T09:04:15Z</time>
      </trkpt>
      <trkpt lat="45.51135" lon="4.80252">
        <ele>337</ele>
        <time>2013-10-26T09:04:16Z</time>
      </trkpt>
      <trkpt lat="45.51129" lon="4.80251">
        <ele>337</ele>
        <time>2013-10-26T09:04:17Z</time>
      </trkpt>
      <trkpt lat="45.51122" lon="4.80249">
        <ele>331</ele>
        <time>2013-10-26T09:04:18Z</time>
      </trkpt>
      <trkpt lat="45.51113" lon="4.8025">
        <ele>331</ele>
        <time>2013-10-26T09:04:19Z</time>
      </trkpt>
      <trkpt lat="45.51105" lon="4.80251">
        <ele>336</ele>
        <time>2013-10-26T09:04:20Z</time>
      </trkpt>
      <trkpt lat="45.51099" lon="4.80251">
        <ele>335</ele>
        <time>2013-10-26T09:04:21Z</time>
      </trkpt>
      <trkpt lat="45.51093" lon="4.80248">
        <ele>331</ele>
        <time>2013-10-26T09:04:22Z</time>
      </trkpt>
      <trkpt lat="45.51088" lon="4.80246">
        <ele>331</ele>
        <time>2013-10-26T09:04:23Z</time>
      </trkpt>
      <trkpt lat="45.51085" lon="4.80244">
        <ele>331</ele>
        <time>2013-10-26T09:04:24Z</time>
      </trkpt>
      <trkpt lat="45.51079" lon="4.80243">
        <ele>331</ele>
        <time>2013-10-26T09:04:25Z</time>
      </trkpt>
      <trkpt lat="45.51073" lon="4.80241">
        <ele>331</ele>
        <time>2013-10-26T09:04:26Z</time>
      </trkpt>
      <trkpt lat="45.51066" lon="4.80238">
        <ele>330</ele>
        <time>2013-10-26T09:04:27Z</time>
      </trkpt>
      <trkpt lat="45.51058" lon="4.80235">
        <ele>330</ele>
        <time>2013-10-26T09:04:28Z</time>
      </trkpt>
      <trkpt lat="45.51049" lon="4.80233">
        <ele>330</ele>
        <time>2013-10-26T09:04:29Z</time>
      </trkpt>
      <trkpt lat="45.51043" lon="4.80233">
        <ele>330</ele>
        <time>2013-10-26T09:04:30Z</time>
      </trkpt>
      <trkpt lat="45.51038" lon="4.80232">
        <ele>330</ele>
        <time>2013-10-26T09:04:31Z</time>
      </trkpt>
      <trkpt lat="45.51031" lon="4.80232">
        <ele>330</ele>
        <time>2013-10-26T09:04:32Z</time>
      </trkpt>
      <trkpt lat="45.51024" lon="4.80231">
        <ele>330</ele>
        <time>2013-10-26T09:04:33Z</time>
      </trkpt>
      <trkpt lat="45.51014" lon="4.80234">
        <ele>330</ele>
        <time>2013-10-26T09:04:34Z</time>
      </trkpt>
      <trkpt lat="45.51008" lon="4.80231">
        <ele>330</ele>
        <time>2013-10-26T09:04:35Z</time>
      </trkpt>
      <trkpt lat="45.51002" lon="4.8023">
        <ele>330</ele>
        <time>2013-10-26T09:04:36Z</time>
      </trkpt>
      <trkpt lat="45.50996" lon="4.80229">
        <ele>328</ele>
        <time>2013-10-26T09:04:37Z</time>
      </trkpt>
      <trkpt lat="45.50992" lon="4.80227">
        <ele>328</ele>
        <time>2013-10-26T09:04:38Z</time>
      </trkpt>
      <trkpt lat="45.50987" lon="4.80226">
        <ele>328</ele>
        <time>2013-10-26T09:04:39Z</time>
      </trkpt>
      <trkpt lat="45.5098" lon="4.80225">
        <ele>328</ele>
        <time>2013-10-26T09:04:41Z</time>
      </trkpt>
      <trkpt lat="45.50976" lon="4.80224">
        <ele>328</ele>
        <time>2013-10-26T09:04:42Z</time>
      </trkpt>
      <trkpt lat="45.5097" lon="4.80225">
        <ele>327</ele>
        <time>2013-10-26T09:04:43Z</time>
      </trkpt>
      <trkpt lat="45.50963" lon="4.80225">
        <ele>327</ele>
        <time>2013-10-26T09:04:44Z</time>
      </trkpt>
      <trkpt lat="45.50954" lon="4.80222">
        <ele>327</ele>
        <time>2013-10-26T09:04:45Z</time>
      </trkpt>
      <trkpt lat="45.50945" lon="4.80221">
        <ele>326</ele>
        <time>2013-10-26T09:04:46Z</time>
      </trkpt>
      <trkpt lat="45.50938" lon="4.80219">
        <ele>326</ele>
        <time>2013-10-26T09:04:47Z</time>
      </trkpt>
      <trkpt lat="45.50935" lon="4.8022">
        <ele>326</ele>
        <time>2013-10-26T09:04:48Z</time>
      </trkpt>
      <trkpt lat="45.50931" lon="4.80224">
        <ele>326</ele>
        <time>2013-10-26T09:04:49Z</time>
      </trkpt>
      <trkpt lat="45.50926" lon="4.80226">
        <ele>325</ele>
        <time>2013-10-26T09:04:50Z</time>
      </trkpt>
      <trkpt lat="45.50919" lon="4.80228">
        <ele>325</ele>
        <time>2013-10-26T09:04:51Z</time>
      </trkpt>
      <trkpt lat="45.50917" lon="4.8023">
        <ele>325</ele>
        <time>2013-10-26T09:04:52Z</time>
      </trkpt>
      <trkpt lat="45.50909" lon="4.80235">
        <ele>324</ele>
        <time>2013-10-26T09:04:55Z</time>
      </trkpt>
      <trkpt lat="45.50909" lon="4.80238">
        <ele>324</ele>
        <time>2013-10-26T09:04:56Z</time>
      </trkpt>
      <trkpt lat="45.50904" lon="4.80243">
        <ele>324</ele>
        <time>2013-10-26T09:05:01Z</time>
      </trkpt>
      <trkpt lat="45.50901" lon="4.80244">
        <ele>324</ele>
        <time>2013-10-26T09:05:02Z</time>
      </trkpt>
      <trkpt lat="45.50895" lon="4.80247">
        <ele>325</ele>
        <time>2013-10-26T09:05:04Z</time>
      </trkpt>
      <trkpt lat="45.5089" lon="4.80248">
        <ele>325</ele>
        <time>2013-10-26T09:05:05Z</time>
      </trkpt>
      <trkpt lat="45.50882" lon="4.80251">
        <ele>325</ele>
        <time>2013-10-26T09:05:07Z</time>
      </trkpt>
      <trkpt lat="45.50874" lon="4.80253">
        <ele>325</ele>
        <time>2013-10-26T09:05:08Z</time>
      </trkpt>
      <trkpt lat="45.50866" lon="4.80254">
        <ele>325</ele>
        <time>2013-10-26T09:05:09Z</time>
      </trkpt>
      <trkpt lat="45.50863" lon="4.80255">
        <ele>325</ele>
        <time>2013-10-26T09:05:10Z</time>
      </trkpt>
      <trkpt lat="45.50852" lon="4.80257">
        <ele>325</ele>
        <time>2013-10-26T09:05:11Z</time>
      </trkpt>
      <trkpt lat="45.50843" lon="4.80256">
        <ele>324</ele>
        <time>2013-10-26T09:05:12Z</time>
      </trkpt>
      <trkpt lat="45.50834" lon="4.80254">
        <ele>324</ele>
        <time>2013-10-26T09:05:13Z</time>
      </trkpt>
      <trkpt lat="45.50828" lon="4.80256">
        <ele>325</ele>
        <time>2013-10-26T09:05:14Z</time>
      </trkpt>
      <trkpt lat="45.50821" lon="4.80262">
        <ele>325</ele>
        <time>2013-10-26T09:05:16Z</time>
      </trkpt>
      <trkpt lat="45.50816" lon="4.80267">
        <ele>325</ele>
        <time>2013-10-26T09:05:17Z</time>
      </trkpt>
      <trkpt lat="45.50811" lon="4.80271">
        <ele>325</ele>
        <time>2013-10-26T09:05:18Z</time>
      </trkpt>
      <trkpt lat="45.50803" lon="4.80275">
        <ele>326</ele>
        <time>2013-10-26T09:05:19Z</time>
      </trkpt>
      <trkpt lat="45.50797" lon="4.80281">
        <ele>326</ele>
        <time>2013-10-26T09:05:20Z</time>
      </trkpt>
      <trkpt lat="45.50793" lon="4.80286">
        <ele>326</ele>
        <time>2013-10-26T09:05:21Z</time>
      </trkpt>
      <trkpt lat="45.50787" lon="4.80289">
        <ele>326</ele>
        <time>2013-10-26T09:05:22Z</time>
      </trkpt>
      <trkpt lat="45.50783" lon="4.80292">
        <ele>326</ele>
        <time>2013-10-26T09:05:23Z</time>
      </trkpt>
      <trkpt lat="45.50779" lon="4.80298">
        <ele>325</ele>
        <time>2013-10-26T09:05:24Z</time>
      </trkpt>
      <trkpt lat="45.50773" lon="4.80304">
        <ele>325</ele>
        <time>2013-10-26T09:05:25Z</time>
      </trkpt>
      <trkpt lat="45.50764" lon="4.80309">
        <ele>324</ele>
        <time>2013-10-26T09:05:26Z</time>
      </trkpt>
      <trkpt lat="45.50757" lon="4.80315">
        <ele>323</ele>
        <time>2013-10-26T09:05:27Z</time>
      </trkpt>
      <trkpt lat="45.50753" lon="4.80318">
        <ele>323</ele>
        <time>2013-10-26T09:05:28Z</time>
      </trkpt>
      <trkpt lat="45.50748" lon="4.80321">
        <ele>325</ele>
        <time>2013-10-26T09:05:29Z</time>
      </trkpt>
      <trkpt lat="45.50742" lon="4.80323">
        <ele>326</ele>
        <time>2013-10-26T09:05:30Z</time>
      </trkpt>
      <trkpt lat="45.50737" lon="4.80332">
        <ele>325</ele>
        <time>2013-10-26T09:05:33Z</time>
      </trkpt>
      <trkpt lat="45.50735" lon="4.80334">
        <ele>321</ele>
        <time>2013-10-26T09:05:34Z</time>
      </trkpt>
      <trkpt lat="45.50731" lon="4.80343">
        <ele>321</ele>
        <time>2013-10-26T09:05:37Z</time>
      </trkpt>
      <trkpt lat="45.50729" lon="4.80345">
        <ele>321</ele>
        <time>2013-10-26T09:05:38Z</time>
      </trkpt>
      <trkpt lat="45.50727" lon="4.80356">
        <ele>321</ele>
        <time>2013-10-26T09:05:46Z</time>
      </trkpt>
      <trkpt lat="45.50727" lon="4.80358">
        <ele>321</ele>
        <time>2013-10-26T09:05:47Z</time>
      </trkpt>
      <trkpt lat="45.50729" lon="4.80364">
        <ele>321</ele>
        <time>2013-10-26T09:05:55Z</time>
      </trkpt>
      <trkpt lat="45.50729" lon="4.80364">
        <ele>321</ele>
        <time>2013-10-26T09:05:56Z</time>
      </trkpt>
      <trkpt lat="45.50729" lon="4.80365">
        <ele>321</ele>
        <time>2013-10-26T09:05:57Z</time>
      </trkpt>
      <trkpt lat="45.5073" lon="4.80365">
        <ele>321</ele>
        <time>2013-10-26T09:05:58Z</time>
      </trkpt>
      <trkpt lat="45.5073" lon="4.80365">
        <ele>321</ele>
        <time>2013-10-26T09:06:03Z</time>
      </trkpt>
      <trkpt lat="45.5073" lon="4.80365">
        <ele>321</ele>
        <time>2013-10-26T09:06:04Z</time>
      </trkpt>
      <trkpt lat="45.5073" lon="4.80366">
        <ele>321</ele>
        <time>2013-10-26T09:06:11Z</time>
      </trkpt>
      <trkpt lat="45.5073" lon="4.80366">
        <ele>321</ele>
        <time>2013-10-26T09:06:12Z</time>
      </trkpt>
      <trkpt lat="45.5073" lon="4.80366">
        <ele>321</ele>
        <time>2013-10-26T09:06:13Z</time>
      </trkpt>
      <trkpt lat="45.5073" lon="4.80366">
        <ele>321</ele>
        <time>2013-10-26T09:06:14Z</time>
      </trkpt>
      <trkpt lat="45.50729" lon="4.80366">
        <ele>321</ele>
        <time>2013-10-26T09:06:15Z</time>
      </trkpt>
      <trkpt lat="45.50726" lon="4.80372">
        <ele>321</ele>
        <time>2013-10-26T09:06:17Z</time>
      </trkpt>
      <trkpt lat="45.50723" lon="4.80376">
        <ele>321</ele>
        <time>2013-10-26T09:06:18Z</time>
      </trkpt>
      <trkpt lat="45.50716" lon="4.80379">
        <ele>321</ele>
        <time>2013-10-26T09:06:21Z</time>
      </trkpt>
      <trkpt lat="45.50712" lon="4.80381">
        <ele>321</ele>
        <time>2013-10-26T09:06:22Z</time>
      </trkpt>
      <trkpt lat="45.50705" lon="4.80385">
        <ele>320</ele>
        <time>2013-10-26T09:06:24Z</time>
      </trkpt>
      <trkpt lat="45.50704" lon="4.80388">
        <ele>320</ele>
        <time>2013-10-26T09:06:25Z</time>
      </trkpt>
      <trkpt lat="45.50695" lon="4.80391">
        <ele>320</ele>
        <time>2013-10-26T09:06:27Z</time>
      </trkpt>
      <trkpt lat="45.50694" lon="4.80394">
        <ele>320</ele>
        <time>2013-10-26T09:06:28Z</time>
      </trkpt>
      <trkpt lat="45.50687" lon="4.80398">
        <ele>320</ele>
        <time>2013-10-26T09:06:32Z</time>
      </trkpt>
      <trkpt lat="45.50686" lon="4.804">
        <ele>319</ele>
        <time>2013-10-26T09:06:33Z</time>
      </trkpt>
      <trkpt lat="45.50686" lon="4.8041">
        <ele>319</ele>
        <time>2013-10-26T09:06:39Z</time>
      </trkpt>
      <trkpt lat="45.50684" lon="4.80413">
        <ele>319</ele>
        <time>2013-10-26T09:06:40Z</time>
      </trkpt>
      <trkpt lat="45.50683" lon="4.80426">
        <ele>317</ele>
        <time>2013-10-26T09:06:45Z</time>
      </trkpt>
      <trkpt lat="45.50683" lon="4.80428">
        <ele>317</ele>
        <time>2013-10-26T09:06:46Z</time>
      </trkpt>
      <trkpt lat="45.50682" lon="4.80439">
        <ele>317</ele>
        <time>2013-10-26T09:06:52Z</time>
      </trkpt>
      <trkpt lat="45.5068" lon="4.80442">
        <ele>317</ele>
        <time>2013-10-26T09:06:53Z</time>
      </trkpt>
      <trkpt lat="45.5068" lon="4.80442">
        <ele>317</ele>
        <time>2013-10-26T09:06:54Z</time>
      </trkpt>
      <trkpt lat="45.5068" lon="4.80442">
        <ele>317</ele>
        <time>2013-10-26T09:06:55Z</time>
      </trkpt>
      <trkpt lat="45.50679" lon="4.80444">
        <ele>316</ele>
        <time>2013-10-26T09:06:56Z</time>
      </trkpt>
      <trkpt lat="45.50678" lon="4.80442">
        <ele>316</ele>
        <time>2013-10-26T09:06:57Z</time>
      </trkpt>
      <trkpt lat="45.5067" lon="4.80443">
        <ele>316</ele>
        <time>2013-10-26T09:07:00Z</time>
      </trkpt>
      <trkpt lat="45.50667" lon="4.80445">
        <ele>317</ele>
        <time>2013-10-26T09:07:01Z</time>
      </trkpt>
      <trkpt lat="45.50661" lon="4.80445">
        <ele>317</ele>
        <time>2013-10-26T09:07:03Z</time>
      </trkpt>
      <trkpt lat="45.50657" lon="4.80445">
        <ele>317</ele>
        <time>2013-10-26T09:07:04Z</time>
      </trkpt>
      <trkpt lat="45.50651" lon="4.80447">
        <ele>317</ele>
        <time>2013-10-26T09:07:10Z</time>
      </trkpt>
      <trkpt lat="45.50647" lon="4.80449">
        <ele>318</ele>
        <time>2013-10-26T09:07:11Z</time>
      </trkpt>
      <trkpt lat="45.50641" lon="4.80454">
        <ele>318</ele>
        <time>2013-10-26T09:07:13Z</time>
      </trkpt>
      <trkpt lat="45.50639" lon="4.80457">
        <ele>318</ele>
        <time>2013-10-26T09:07:14Z</time>
      </trkpt>
      <trkpt lat="45.50635" lon="4.80466">
        <ele>317</ele>
        <time>2013-10-26T09:07:19Z</time>
      </trkpt>
      <trkpt lat="45.50633" lon="4.80467">
        <ele>317</ele>
        <time>2013-10-26T09:07:20Z</time>
      </trkpt>
      <trkpt lat="45.50627" lon="4.80474">
        <ele>317</ele>
        <time>2013-10-26T09:07:25Z</time>
      </trkpt>
      <trkpt lat="45.50624" lon="4.80474">
        <ele>317</ele>
        <time>2013-10-26T09:07:26Z</time>
      </trkpt>
      <trkpt lat="45.5062" lon="4.80481">
        <ele>317</ele>
        <time>2013-10-26T09:07:31Z</time>
      </trkpt>
      <trkpt lat="45.50615" lon="4.80481">
        <ele>317</ele>
        <time>2013-10-26T09:07:32Z</time>
      </trkpt>
      <trkpt lat="45.50608" lon="4.80481">
        <ele>318</ele>
        <time>2013-10-26T09:07:36Z</time>
      </trkpt>
      <trkpt lat="45.50603" lon="4.8048">
        <ele>318</ele>
        <time>2013-10-26T09:07:37Z</time>
      </trkpt>
      <trkpt lat="45.50596" lon="4.80481">
        <ele>318</ele>
        <time>2013-10-26T09:07:41Z</time>
      </trkpt>
      <trkpt lat="45.50593" lon="4.8048">
        <ele>318</ele>
        <time>2013-10-26T09:07:42Z</time>
      </trkpt>
      <trkpt lat="45.5059" lon="4.80483">
        <ele>317</ele>
        <time>2013-10-26T09:07:50Z</time>
      </trkpt>
      <trkpt lat="45.5059" lon="4.80483">
        <ele>317</ele>
        <time>2013-10-26T09:07:51Z</time>
      </trkpt>
      <trkpt lat="45.5059" lon="4.80483">
        <ele>317</ele>
        <time>2013-10-26T09:07:52Z</time>
      </trkpt>
      <trkpt lat="45.50582" lon="4.80489">
        <ele>321</ele>
        <time>2013-10-26T09:07:58Z</time>
      </trkpt>
      <trkpt lat="45.50581" lon="4.8049">
        <ele>320</ele>
        <time>2013-10-26T09:07:59Z</time>
      </trkpt>
      <trkpt lat="45.50574" lon="4.80491">
        <ele>321</ele>
        <time>2013-10-26T09:08:01Z</time>
      </trkpt>
      <trkpt lat="45.50571" lon="4.80492">
        <ele>322</ele>
        <time>2013-10-26T09:08:02Z</time>
      </trkpt>
      <trkpt lat="45.50562" lon="4.80492">
        <ele>324</ele>
        <time>2013-10-26T09:08:05Z</time>
      </trkpt>
      <trkpt lat="45.50562" lon="4.80494">
        <ele>324</ele>
        <time>2013-10-26T09:08:06Z</time>
      </trkpt>
      <trkpt lat="45.50554" lon="4.80495">
        <ele>326</ele>
        <time>2013-10-26T09:08:08Z</time>
      </trkpt>
      <trkpt lat="45.50552" lon="4.80495">
        <ele>326</ele>
        <time>2013-10-26T09:08:09Z</time>
      </trkpt>
      <trkpt lat="45.50545" lon="4.80495">
        <ele>327</ele>
        <time>2013-10-26T09:08:13Z</time>
      </trkpt>
      <trkpt lat="45.50543" lon="4.80496">
        <ele>327</ele>
        <time>2013-10-26T09:08:14Z</time>
      </trkpt>
      <trkpt lat="45.50536" lon="4.80496">
        <ele>328</ele>
        <time>2013-10-26T09:08:17Z</time>
      </trkpt>
      <trkpt lat="45.50533" lon="4.80497">
        <ele>328</ele>
        <time>2013-10-26T09:08:18Z</time>
      </trkpt>
      <trkpt lat="45.5053" lon="4.80498">
        <ele>329</ele>
        <time>2013-10-26T09:08:19Z</time>
      </trkpt>
      <trkpt lat="45.50522" lon="4.80496">
        <ele>329</ele>
        <time>2013-10-26T09:08:20Z</time>
      </trkpt>
      <trkpt lat="45.50517" lon="4.80498">
        <ele>329</ele>
        <time>2013-10-26T09:08:22Z</time>
      </trkpt>
      <trkpt lat="45.50513" lon="4.805">
        <ele>329</ele>
        <time>2013-10-26T09:08:23Z</time>
      </trkpt>
      <trkpt lat="45.50506" lon="4.80502">
        <ele>326</ele>
        <time>2013-10-26T09:08:26Z</time>
      </trkpt>
      <trkpt lat="45.50503" lon="4.80503">
        <ele>327</ele>
        <time>2013-10-26T09:08:27Z</time>
      </trkpt>
      <trkpt lat="45.50494" lon="4.80502">
        <ele>327</ele>
        <time>2013-10-26T09:08:31Z</time>
      </trkpt>
      <trkpt lat="45.50491" lon="4.80502">
        <ele>326</ele>
        <time>2013-10-26T09:08:32Z</time>
      </trkpt>
      <trkpt lat="45.50484" lon="4.80504">
        <ele>324</ele>
        <time>2013-10-26T09:08:35Z</time>
      </trkpt>
      <trkpt lat="45.50482" lon="4.80505">
        <ele>324</ele>
        <time>2013-10-26T09:08:36Z</time>
      </trkpt>
      <trkpt lat="45.50477" lon="4.80513">
        <ele>322</ele>
        <time>2013-10-26T09:08:39Z</time>
      </trkpt>
      <trkpt lat="45.50475" lon="4.80515">
        <ele>322</ele>
        <time>2013-10-26T09:08:40Z</time>
      </trkpt>
      <trkpt lat="45.50469" lon="4.80509">
        <ele>322</ele>
        <time>2013-10-26T09:08:50Z</time>
      </trkpt>
      <trkpt lat="45.50468" lon="4.80507">
        <ele>322</ele>
        <time>2013-10-26T09:08:51Z</time>
      </trkpt>
      <trkpt lat="45.50469" lon="4.80495">
        <ele>332</ele>
        <time>2013-10-26T09:08:56Z</time>
      </trkpt>
      <trkpt lat="45.50469" lon="4.80492">
        <ele>332</ele>
        <time>2013-10-26T09:08:57Z</time>
      </trkpt>
      <trkpt lat="45.50468" lon="4.80481">
        <ele>333</ele>
        <time>2013-10-26T09:09:03Z</time>
      </trkpt>
      <trkpt lat="45.50467" lon="4.80479">
        <ele>333</ele>
        <time>2013-10-26T09:09:04Z</time>
      </trkpt>
      <trkpt lat="45.50463" lon="4.80469">
        <ele>334</ele>
        <time>2013-10-26T09:09:08Z</time>
      </trkpt>
      <trkpt lat="45.50461" lon="4.80468">
        <ele>334</ele>
        <time>2013-10-26T09:09:09Z</time>
      </trkpt>
      <trkpt lat="45.50456" lon="4.80459">
        <ele>335</ele>
        <time>2013-10-26T09:09:14Z</time>
      </trkpt>
      <trkpt lat="45.50455" lon="4.80458">
        <ele>335</ele>
        <time>2013-10-26T09:09:15Z</time>
      </trkpt>
      <trkpt lat="45.50449" lon="4.80449">
        <ele>335</ele>
        <time>2013-10-26T09:09:21Z</time>
      </trkpt>
      <trkpt lat="45.50448" lon="4.80446">
        <ele>336</ele>
        <time>2013-10-26T09:09:22Z</time>
      </trkpt>
      <trkpt lat="45.50442" lon="4.80438">
        <ele>336</ele>
        <time>2013-10-26T09:09:25Z</time>
      </trkpt>
      <trkpt lat="45.50439" lon="4.80435">
        <ele>336</ele>
        <time>2013-10-26T09:09:26Z</time>
      </trkpt>
      <trkpt lat="45.50433" lon="4.80428">
        <ele>337</ele>
        <time>2013-10-26T09:09:30Z</time>
      </trkpt>
      <trkpt lat="45.50432" lon="4.80426">
        <ele>337</ele>
        <time>2013-10-26T09:09:31Z</time>
      </trkpt>
      <trkpt lat="45.50425" lon="4.80419">
        <ele>338</ele>
        <time>2013-10-26T09:09:35Z</time>
      </trkpt>
      <trkpt lat="45.50424" lon="4.80417">
        <ele>338</ele>
        <time>2013-10-26T09:09:36Z</time>
      </trkpt>
      <trkpt lat="45.50417" lon="4.8041">
        <ele>341</ele>
        <time>2013-10-26T09:09:40Z</time>
      </trkpt>
      <trkpt lat="45.50416" lon="4.80407">
        <ele>340</ele>
        <time>2013-10-26T09:09:41Z</time>
      </trkpt>
      <trkpt lat="45.5041" lon="4.80402">
        <ele>341</ele>
        <time>2013-10-26T09:09:44Z</time>
      </trkpt>
      <trkpt lat="45.50408" lon="4.80399">
        <ele>341</ele>
        <time>2013-10-26T09:09:45Z</time>
      </trkpt>
      <trkpt lat="45.50403" lon="4.80394">
        <ele>341</ele>
        <time>2013-10-26T09:09:47Z</time>
      </trkpt>
      <trkpt lat="45.50401" lon="4.8039">
        <ele>342</ele>
        <time>2013-10-26T09:09:48Z</time>
      </trkpt>
      <trkpt lat="45.50393" lon="4.80386">
        <ele>342</ele>
        <time>2013-10-26T09:09:51Z</time>
      </trkpt>
      <trkpt lat="45.50389" lon="4.80386">
        <ele>342</ele>
        <time>2013-10-26T09:09:52Z</time>
      </trkpt>
      <trkpt lat="45.50384" lon="4.80386">
        <ele>342</ele>
        <time>2013-10-26T09:09:53Z</time>
      </trkpt>
      <trkpt lat="45.50379" lon="4.80392">
        <ele>342</ele>
        <time>2013-10-26T09:09:54Z</time>
      </trkpt>
      <trkpt lat="45.50372" lon="4.80397">
        <ele>341</ele>
        <time>2013-10-26T09:09:56Z</time>
      </trkpt>
      <trkpt lat="45.50368" lon="4.804">
        <ele>341</ele>
        <time>2013-10-26T09:09:57Z</time>
      </trkpt>
      <trkpt lat="45.50361" lon="4.80404">
        <ele>340</ele>
        <time>2013-10-26T09:09:59Z</time>
      </trkpt>
      <trkpt lat="45.50358" lon="4.80408">
        <ele>340</ele>
        <time>2013-10-26T09:10:00Z</time>
      </trkpt>
      <trkpt lat="45.50351" lon="4.80412">
        <ele>340</ele>
        <time>2013-10-26T09:10:02Z</time>
      </trkpt>
      <trkpt lat="45.50347" lon="4.80414">
        <ele>339</ele>
        <time>2013-10-26T09:10:03Z</time>
      </trkpt>
      <trkpt lat="45.50342" lon="4.80423">
        <ele>336</ele>
        <time>2013-10-26T09:10:05Z</time>
      </trkpt>
      <trkpt lat="45.5034" lon="4.80425">
        <ele>336</ele>
        <time>2013-10-26T09:10:06Z</time>
      </trkpt>
      <trkpt lat="45.50334" lon="4.80431">
        <ele>336</ele>
        <time>2013-10-26T09:10:08Z</time>
      </trkpt>
      <trkpt lat="45.50331" lon="4.80435">
        <ele>337</ele>
        <time>2013-10-26T09:10:09Z</time>
      </trkpt>
      <trkpt lat="45.50325" lon="4.80439">
        <ele>337</ele>
        <time>2013-10-26T09:10:11Z</time>
      </trkpt>
      <trkpt lat="45.50322" lon="4.80442">
        <ele>337</ele>
        <time>2013-10-26T09:10:12Z</time>
      </trkpt>
      <trkpt lat="45.50317" lon="4.80447">
        <ele>337</ele>
        <time>2013-10-26T09:10:14Z</time>
      </trkpt>
      <trkpt lat="45.50315" lon="4.80449">
        <ele>337</ele>
        <time>2013-10-26T09:10:15Z</time>
      </trkpt>
      <trkpt lat="45.50307" lon="4.80454">
        <ele>337</ele>
        <time>2013-10-26T09:10:18Z</time>
      </trkpt>
      <trkpt lat="45.50304" lon="4.80455">
        <ele>337</ele>
        <time>2013-10-26T09:10:19Z</time>
      </trkpt>
      <trkpt lat="45.50297" lon="4.80451">
        <ele>337</ele>
        <time>2013-10-26T09:10:22Z</time>
      </trkpt>
      <trkpt lat="45.50294" lon="4.8045">
        <ele>337</ele>
        <time>2013-10-26T09:10:23Z</time>
      </trkpt>
      <trkpt lat="45.50288" lon="4.80442">
        <ele>338</ele>
        <time>2013-10-26T09:10:26Z</time>
      </trkpt>
      <trkpt lat="45.50286" lon="4.8044">
        <ele>338</ele>
        <time>2013-10-26T09:10:27Z</time>
      </trkpt>
      <trkpt lat="45.50278" lon="4.80438">
        <ele>338</ele>
        <time>2013-10-26T09:10:30Z</time>
      </trkpt>
      <trkpt lat="45.50276" lon="4.80438">
        <ele>338</ele>
        <time>2013-10-26T09:10:31Z</time>
      </trkpt>
      <trkpt lat="45.50268" lon="4.80442">
        <ele>338</ele>
        <time>2013-10-26T09:10:34Z</time>
      </trkpt>
      <trkpt lat="45.50266" lon="4.80442">
        <ele>338</ele>
        <time>2013-10-26T09:10:35Z</time>
      </trkpt>
      <trkpt lat="45.50258" lon="4.80446">
        <ele>338</ele>
        <time>2013-10-26T09:10:39Z</time>
      </trkpt>
      <trkpt lat="45.50257" lon="4.80447">
        <ele>338</ele>
        <time>2013-10-26T09:10:40Z</time>
      </trkpt>
      <trkpt lat="45.5025" lon="4.8045">
        <ele>338</ele>
        <time>2013-10-26T09:10:44Z</time>
      </trkpt>
      <trkpt lat="45.50248" lon="4.80451">
        <ele>340</ele>
        <time>2013-10-26T09:10:45Z</time>
      </trkpt>
      <trkpt lat="45.5024" lon="4.80457">
        <ele>340</ele>
        <time>2013-10-26T09:10:50Z</time>
      </trkpt>
      <trkpt lat="45.50239" lon="4.80458">
        <ele>340</ele>
        <time>2013-10-26T09:10:51Z</time>
      </trkpt>
      <trkpt lat="45.50233" lon="4.80452">
        <ele>340</ele>
        <time>2013-10-26T09:10:55Z</time>
      </trkpt>
      <trkpt lat="45.50231" lon="4.8045">
        <ele>340</ele>
        <time>2013-10-26T09:10:56Z</time>
      </trkpt>
      <trkpt lat="45.50231" lon="4.80439">
        <ele>340</ele>
        <time>2013-10-26T09:11:00Z</time>
      </trkpt>
      <trkpt lat="45.50232" lon="4.80435">
        <ele>340</ele>
        <time>2013-10-26T09:11:01Z</time>
      </trkpt>
      <trkpt lat="45.50234" lon="4.80424">
        <ele>340</ele>
        <time>2013-10-26T09:11:05Z</time>
      </trkpt>
      <trkpt lat="45.50236" lon="4.8042">
        <ele>340</ele>
        <time>2013-10-26T09:11:06Z</time>
      </trkpt>
      <trkpt lat="45.50239" lon="4.80411">
        <ele>340</ele>
        <time>2013-10-26T09:11:09Z</time>
      </trkpt>
      <trkpt lat="45.5024" lon="4.80408">
        <ele>340</ele>
        <time>2013-10-26T09:11:10Z</time>
      </trkpt>
      <trkpt lat="45.50244" lon="4.80399">
        <ele>341</ele>
        <time>2013-10-26T09:11:13Z</time>
      </trkpt>
      <trkpt lat="45.50245" lon="4.80396">
        <ele>341</ele>
        <time>2013-10-26T09:11:14Z</time>
      </trkpt>
      <trkpt lat="45.5025" lon="4.80388">
        <ele>341</ele>
        <time>2013-10-26T09:11:18Z</time>
      </trkpt>
      <trkpt lat="45.50252" lon="4.80386">
        <ele>341</ele>
        <time>2013-10-26T09:11:19Z</time>
      </trkpt>
      <trkpt lat="45.50261" lon="4.80383">
        <ele>341</ele>
        <time>2013-10-26T09:11:22Z</time>
      </trkpt>
      <trkpt lat="45.50263" lon="4.80381">
        <ele>341</ele>
        <time>2013-10-26T09:11:23Z</time>
      </trkpt>
      <trkpt lat="45.5027" lon="4.80377">
        <ele>341</ele>
        <time>2013-10-26T09:11:26Z</time>
      </trkpt>
      <trkpt lat="45.50273" lon="4.80374">
        <ele>341</ele>
        <time>2013-10-26T09:11:27Z</time>
      </trkpt>
      <trkpt lat="45.50278" lon="4.80368">
        <ele>341</ele>
        <time>2013-10-26T09:11:29Z</time>
      </trkpt>
      <trkpt lat="45.50281" lon="4.80368">
        <ele>341</ele>
        <time>2013-10-26T09:11:30Z</time>
      </trkpt>
      <trkpt lat="45.50286" lon="4.80363">
        <ele>341</ele>
        <time>2013-10-26T09:11:32Z</time>
      </trkpt>
      <trkpt lat="45.50289" lon="4.80361">
        <ele>341</ele>
        <time>2013-10-26T09:11:33Z</time>
      </trkpt>
      <trkpt lat="45.50294" lon="4.80357">
        <ele>342</ele>
        <time>2013-10-26T09:11:35Z</time>
      </trkpt>
      <trkpt lat="45.50297" lon="4.80355">
        <ele>342</ele>
        <time>2013-10-26T09:11:36Z</time>
      </trkpt>
      <trkpt lat="45.50303" lon="4.80355">
        <ele>342</ele>
        <time>2013-10-26T09:11:38Z</time>
      </trkpt>
      <trkpt lat="45.50306" lon="4.80351">
        <ele>342</ele>
        <time>2013-10-26T09:11:39Z</time>
      </trkpt>
      <trkpt lat="45.50313" lon="4.80347">
        <ele>342</ele>
        <time>2013-10-26T09:11:42Z</time>
      </trkpt>
      <trkpt lat="45.50315" lon="4.80346">
        <ele>342</ele>
        <time>2013-10-26T09:11:43Z</time>
      </trkpt>
      <trkpt lat="45.50321" lon="4.80342">
        <ele>343</ele>
        <time>2013-10-26T09:11:46Z</time>
      </trkpt>
      <trkpt lat="45.50324" lon="4.8034">
        <ele>343</ele>
        <time>2013-10-26T09:11:47Z</time>
      </trkpt>
      <trkpt lat="45.50329" lon="4.80332">
        <ele>344</ele>
        <time>2013-10-26T09:11:50Z</time>
      </trkpt>
      <trkpt lat="45.50329" lon="4.80328">
        <ele>344</ele>
        <time>2013-10-26T09:11:51Z</time>
      </trkpt>
      <trkpt lat="45.50335" lon="4.80323">
        <ele>346</ele>
        <time>2013-10-26T09:11:54Z</time>
      </trkpt>
      <trkpt lat="45.50336" lon="4.80319">
        <ele>346</ele>
        <time>2013-10-26T09:11:55Z</time>
      </trkpt>
      <trkpt lat="45.50341" lon="4.80312">
        <ele>347</ele>
        <time>2013-10-26T09:11:58Z</time>
      </trkpt>
      <trkpt lat="45.50344" lon="4.8031">
        <ele>347</ele>
        <time>2013-10-26T09:11:59Z</time>
      </trkpt>
      <trkpt lat="45.50345" lon="4.80299">
        <ele>348</ele>
        <time>2013-10-26T09:12:02Z</time>
      </trkpt>
      <trkpt lat="45.50346" lon="4.80297">
        <ele>348</ele>
        <time>2013-10-26T09:12:03Z</time>
      </trkpt>
      <trkpt lat="45.50347" lon="4.80284">
        <ele>349</ele>
        <time>2013-10-26T09:12:08Z</time>
      </trkpt>
      <trkpt lat="45.50347" lon="4.80282">
        <ele>349</ele>
        <time>2013-10-26T09:12:09Z</time>
      </trkpt>
      <trkpt lat="45.50345" lon="4.80271">
        <ele>349</ele>
        <time>2013-10-26T09:12:13Z</time>
      </trkpt>
      <trkpt lat="45.50345" lon="4.80269">
        <ele>349</ele>
        <time>2013-10-26T09:12:14Z</time>
      </trkpt>
      <trkpt lat="45.50347" lon="4.80258">
        <ele>349</ele>
        <time>2013-10-26T09:12:18Z</time>
      </trkpt>
      <trkpt lat="45.50347" lon="4.80256">
        <ele>349</ele>
        <time>2013-10-26T09:12:19Z</time>
      </trkpt>
      <trkpt lat="45.5035" lon="4.80246">
        <ele>350</ele>
        <time>2013-10-26T09:12:23Z</time>
      </trkpt>
      <trkpt lat="45.50351" lon="4.80242">
        <ele>350</ele>
        <time>2013-10-26T09:12:24Z</time>
      </trkpt>
      <trkpt lat="45.50354" lon="4.80232">
        <ele>351</ele>
        <time>2013-10-26T09:12:28Z</time>
      </trkpt>
      <trkpt lat="45.50355" lon="4.8023">
        <ele>351</ele>
        <time>2013-10-26T09:12:29Z</time>
      </trkpt>
      <trkpt lat="45.5036" lon="4.80221">
        <ele>351</ele>
        <time>2013-10-26T09:12:34Z</time>
      </trkpt>
      <trkpt lat="45.50362" lon="4.8022">
        <ele>352</ele>
        <time>2013-10-26T09:12:35Z</time>
      </trkpt>
      <trkpt lat="45.50369" lon="4.80212">
        <ele>352</ele>
        <time>2013-10-26T09:12:40Z</time>
      </trkpt>
      <trkpt lat="45.5037" lon="4.80209">
        <ele>352</ele>
        <time>2013-10-26T09:12:41Z</time>
      </trkpt>
      <trkpt lat="45.50376" lon="4.80202">
        <ele>352</ele>
        <time>2013-10-26T09:12:44Z</time>
      </trkpt>
      <trkpt lat="45.50378" lon="4.802">
        <ele>352</ele>
        <time>2013-10-26T09:12:45Z</time>
      </trkpt>
      <trkpt lat="45.50385" lon="4.80194">
        <ele>353</ele>
        <time>2013-10-26T09:12:50Z</time>
      </trkpt>
      <trkpt lat="45.50387" lon="4.80192">
        <ele>353</ele>
        <time>2013-10-26T09:12:51Z</time>
      </trkpt>
      <trkpt lat="45.50395" lon="4.80188">
        <ele>353</ele>
        <time>2013-10-26T09:12:54Z</time>
      </trkpt>
      <trkpt lat="45.50397" lon="4.80186">
        <ele>354</ele>
        <time>2013-10-26T09:12:55Z</time>
      </trkpt>
      <trkpt lat="45.50406" lon="4.80185">
        <ele>354</ele>
        <time>2013-10-26T09:13:00Z</time>
      </trkpt>
      <trkpt lat="45.50408" lon="4.80184">
        <ele>354</ele>
        <time>2013-10-26T09:13:01Z</time>
      </trkpt>
      <trkpt lat="45.50416" lon="4.80184">
        <ele>354</ele>
        <time>2013-10-26T09:13:05Z</time>
      </trkpt>
      <trkpt lat="45.50417" lon="4.80184">
        <ele>356</ele>
        <time>2013-10-26T09:13:06Z</time>
      </trkpt>
      <trkpt lat="45.50424" lon="4.80179">
        <ele>356</ele>
        <time>2013-10-26T09:13:09Z</time>
      </trkpt>
      <trkpt lat="45.50426" lon="4.80177">
        <ele>356</ele>
        <time>2013-10-26T09:13:10Z</time>
      </trkpt>
      <trkpt lat="45.50434" lon="4.80174">
        <ele>356</ele>
        <time>2013-10-26T09:13:13Z</time>
      </trkpt>
      <trkpt lat="45.50438" lon="4.80173">
        <ele>356</ele>
        <time>2013-10-26T09:13:14Z</time>
      </trkpt>
      <trkpt lat="45.50445" lon="4.80168">
        <ele>356</ele>
        <time>2013-10-26T09:13:17Z</time>
      </trkpt>
      <trkpt lat="45.50446" lon="4.80166">
        <ele>356</ele>
        <time>2013-10-26T09:13:18Z</time>
      </trkpt>
      <trkpt lat="45.50454" lon="4.80163">
        <ele>356</ele>
        <time>2013-10-26T09:13:21Z</time>
      </trkpt>
      <trkpt lat="45.50457" lon="4.80161">
        <ele>356</ele>
        <time>2013-10-26T09:13:22Z</time>
      </trkpt>
      <trkpt lat="45.50463" lon="4.80158">
        <ele>357</ele>
        <time>2013-10-26T09:13:24Z</time>
      </trkpt>
      <trkpt lat="45.50466" lon="4.80154">
        <ele>357</ele>
        <time>2013-10-26T09:13:25Z</time>
      </trkpt>
      <trkpt lat="45.50471" lon="4.80148">
        <ele>357</ele>
        <time>2013-10-26T09:13:27Z</time>
      </trkpt>
      <trkpt lat="45.50474" lon="4.80146">
        <ele>357</ele>
        <time>2013-10-26T09:13:28Z</time>
      </trkpt>
      <trkpt lat="45.50481" lon="4.80139">
        <ele>357</ele>
        <time>2013-10-26T09:13:30Z</time>
      </trkpt>
      <trkpt lat="45.50485" lon="4.80138">
        <ele>357</ele>
        <time>2013-10-26T09:13:31Z</time>
      </trkpt>
      <trkpt lat="45.50491" lon="4.80133">
        <ele>357</ele>
        <time>2013-10-26T09:13:33Z</time>
      </trkpt>
      <trkpt lat="45.50495" lon="4.8013">
        <ele>357</ele>
        <time>2013-10-26T09:13:34Z</time>
      </trkpt>
      <trkpt lat="45.50501" lon="4.80125">
        <ele>358</ele>
        <time>2013-10-26T09:13:36Z</time>
      </trkpt>
      <trkpt lat="45.50504" lon="4.80122">
        <ele>358</ele>
        <time>2013-10-26T09:13:37Z</time>
      </trkpt>
      <trkpt lat="45.50509" lon="4.80118">
        <ele>359</ele>
        <time>2013-10-26T09:13:39Z</time>
      </trkpt>
      <trkpt lat="45.50512" lon="4.80116">
        <ele>359</ele>
        <time>2013-10-26T09:13:40Z</time>
      </trkpt>
      <trkpt lat="45.50518" lon="4.80113">
        <ele>359</ele>
        <time>2013-10-26T09:13:42Z</time>
      </trkpt>
      <trkpt lat="45.50521" lon="4.80112">
        <ele>359</ele>
        <time>2013-10-26T09:13:43Z</time>
      </trkpt>
      <trkpt lat="45.50527" lon="4.8011">
        <ele>359</ele>
        <time>2013-10-26T09:13:45Z</time>
      </trkpt>
      <trkpt lat="45.5053" lon="4.8011">
        <ele>359</ele>
        <time>2013-10-26T09:13:46Z</time>
      </trkpt>
      <trkpt lat="45.50536" lon="4.80105">
        <ele>359</ele>
        <time>2013-10-26T09:13:48Z</time>
      </trkpt>
      <trkpt lat="45.50539" lon="4.80103">
        <ele>359</ele>
        <time>2013-10-26T09:13:49Z</time>
      </trkpt>
      <trkpt lat="45.50544" lon="4.801">
        <ele>359</ele>
        <time>2013-10-26T09:13:51Z</time>
      </trkpt>
      <trkpt lat="45.50548" lon="4.80099">
        <ele>359</ele>
        <time>2013-10-26T09:13:52Z</time>
      </trkpt>
      <trkpt lat="45.50554" lon="4.80093">
        <ele>360</ele>
        <time>2013-10-26T09:13:55Z</time>
      </trkpt>
      <trkpt lat="45.50556" lon="4.80092">
        <ele>360</ele>
        <time>2013-10-26T09:13:56Z</time>
      </trkpt>
      <trkpt lat="45.50562" lon="4.8009">
        <ele>360</ele>
        <time>2013-10-26T09:13:58Z</time>
      </trkpt>
      <trkpt lat="45.50565" lon="4.8009">
        <ele>361</ele>
        <time>2013-10-26T09:13:59Z</time>
      </trkpt>
      <trkpt lat="45.50573" lon="4.80089">
        <ele>361</ele>
        <time>2013-10-26T09:14:02Z</time>
      </trkpt>
      <trkpt lat="45.50576" lon="4.80089">
        <ele>362</ele>
        <time>2013-10-26T09:14:03Z</time>
      </trkpt>
      <trkpt lat="45.50584" lon="4.8009">
        <ele>362</ele>
        <time>2013-10-26T09:14:06Z</time>
      </trkpt>
      <trkpt lat="45.50588" lon="4.80091">
        <ele>362</ele>
        <time>2013-10-26T09:14:07Z</time>
      </trkpt>
      <trkpt lat="45.50594" lon="4.80093">
        <ele>361</ele>
        <time>2013-10-26T09:14:09Z</time>
      </trkpt>
      <trkpt lat="45.50597" lon="4.80094">
        <ele>361</ele>
        <time>2013-10-26T09:14:10Z</time>
      </trkpt>
      <trkpt lat="45.50606" lon="4.80096">
        <ele>361</ele>
        <time>2013-10-26T09:14:13Z</time>
      </trkpt>
      <trkpt lat="45.50608" lon="4.80096">
        <ele>361</ele>
        <time>2013-10-26T09:14:14Z</time>
      </trkpt>
      <trkpt lat="45.50616" lon="4.80095">
        <ele>360</ele>
        <time>2013-10-26T09:14:17Z</time>
      </trkpt>
      <trkpt lat="45.50619" lon="4.80095">
        <ele>360</ele>
        <time>2013-10-26T09:14:18Z</time>
      </trkpt>
      <trkpt lat="45.50626" lon="4.80091">
        <ele>360</ele>
        <time>2013-10-26T09:14:21Z</time>
      </trkpt>
      <trkpt lat="45.50628" lon="4.8009">
        <ele>360</ele>
        <time>2013-10-26T09:14:22Z</time>
      </trkpt>
      <trkpt lat="45.50635" lon="4.80084">
        <ele>360</ele>
        <time>2013-10-26T09:14:25Z</time>
      </trkpt>
      <trkpt lat="45.50638" lon="4.80083">
        <ele>362</ele>
        <time>2013-10-26T09:14:26Z</time>
      </trkpt>
      <trkpt lat="45.50642" lon="4.80079">
        <ele>362</ele>
        <time>2013-10-26T09:14:28Z</time>
      </trkpt>
      <trkpt lat="45.50646" lon="4.80072">
        <ele>362</ele>
        <time>2013-10-26T09:14:29Z</time>
      </trkpt>
      <trkpt lat="45.50649" lon="4.80061">
        <ele>362</ele>
        <time>2013-10-26T09:14:32Z</time>
      </trkpt>
      <trkpt lat="45.5065" lon="4.80057">
        <ele>363</ele>
        <time>2013-10-26T09:14:33Z</time>
      </trkpt>
      <trkpt lat="45.50655" lon="4.80047">
        <ele>363</ele>
        <time>2013-10-26T09:14:36Z</time>
      </trkpt>
      <trkpt lat="45.50655" lon="4.80044">
        <ele>363</ele>
        <time>2013-10-26T09:14:37Z</time>
      </trkpt>
      <trkpt lat="45.50657" lon="4.80036">
        <ele>363</ele>
        <time>2013-10-26T09:14:39Z</time>
      </trkpt>
      <trkpt lat="45.50659" lon="4.80031">
        <ele>363</ele>
        <time>2013-10-26T09:14:40Z</time>
      </trkpt>
      <trkpt lat="45.5066" lon="4.80022">
        <ele>363</ele>
        <time>2013-10-26T09:14:42Z</time>
      </trkpt>
      <trkpt lat="45.50661" lon="4.80017">
        <ele>363</ele>
        <time>2013-10-26T09:14:43Z</time>
      </trkpt>
      <trkpt lat="45.50663" lon="4.80007">
        <ele>364</ele>
        <time>2013-10-26T09:14:45Z</time>
      </trkpt>
      <trkpt lat="45.50663" lon="4.80003">
        <ele>364</ele>
        <time>2013-10-26T09:14:46Z</time>
      </trkpt>
      <trkpt lat="45.50667" lon="4.79991">
        <ele>364</ele>
        <time>2013-10-26T09:14:49Z</time>
      </trkpt>
      <trkpt lat="45.50667" lon="4.79988">
        <ele>363</ele>
        <time>2013-10-26T09:14:50Z</time>
      </trkpt>
      <trkpt lat="45.50669" lon="4.79976">
        <ele>362</ele>
        <time>2013-10-26T09:14:55Z</time>
      </trkpt>
      <trkpt lat="45.5067" lon="4.79974">
        <ele>362</ele>
        <time>2013-10-26T09:14:56Z</time>
      </trkpt>
      <trkpt lat="45.50671" lon="4.79969">
        <ele>362</ele>
        <time>2013-10-26T09:15:01Z</time>
      </trkpt>
      <trkpt lat="45.50672" lon="4.79969">
        <ele>362</ele>
        <time>2013-10-26T09:15:02Z</time>
      </trkpt>
      <trkpt lat="45.50672" lon="4.7997">
        <ele>362</ele>
        <time>2013-10-26T09:15:04Z</time>
      </trkpt>
      <trkpt lat="45.50672" lon="4.79969">
        <ele>362</ele>
        <time>2013-10-26T09:15:05Z</time>
      </trkpt>
      <trkpt lat="45.50672" lon="4.79968">
        <ele>361</ele>
        <time>2013-10-26T09:15:06Z</time>
      </trkpt>
      <trkpt lat="45.50672" lon="4.79968">
        <ele>361</ele>
        <time>2013-10-26T09:15:07Z</time>
      </trkpt>
      <trkpt lat="45.50672" lon="4.79968">
        <ele>361</ele>
        <time>2013-10-26T09:15:08Z</time>
      </trkpt>
      <trkpt lat="45.50672" lon="4.79968">
        <ele>361</ele>
        <time>2013-10-26T09:15:09Z</time>
      </trkpt>
      <trkpt lat="45.50671" lon="4.79968">
        <ele>362</ele>
        <time>2013-10-26T09:15:10Z</time>
      </trkpt>
      <trkpt lat="45.50673" lon="4.79962">
        <ele>361</ele>
        <time>2013-10-26T09:15:21Z</time>
      </trkpt>
      <trkpt lat="45.50673" lon="4.79962">
        <ele>361</ele>
        <time>2013-10-26T09:15:22Z</time>
      </trkpt>
      <trkpt lat="45.50673" lon="4.79962">
        <ele>361</ele>
        <time>2013-10-26T09:15:23Z</time>
      </trkpt>
      <trkpt lat="45.50673" lon="4.79962">
        <ele>361</ele>
        <time>2013-10-26T09:15:24Z</time>
      </trkpt>
      <trkpt lat="45.50673" lon="4.79962">
        <ele>361</ele>
        <time>2013-10-26T09:15:25Z</time>
      </trkpt>
      <trkpt lat="45.50673" lon="4.79962">
        <ele>361</ele>
        <time>2013-10-26T09:15:48Z</time>
      </trkpt>
      <trkpt lat="45.50673" lon="4.79962">
        <ele>361</ele>
        <time>2013-10-26T09:15:49Z</time>
      </trkpt>
      <trkpt lat="45.5067" lon="4.79967">
        <ele>362</ele>
        <time>2013-10-26T09:16:00Z</time>
      </trkpt>
      <trkpt lat="45.5067" lon="4.79967">
        <ele>362</ele>
        <time>2013-10-26T09:16:01Z</time>
      </trkpt>
      <trkpt lat="45.5067" lon="4.79966">
        <ele>362</ele>
        <time>2013-10-26T09:16:14Z</time>
      </trkpt>
      <trkpt lat="45.50671" lon="4.79967">
        <ele>362</ele>
        <time>2013-10-26T09:16:15Z</time>
      </trkpt>
      <trkpt lat="45.50671" lon="4.79968">
        <ele>362</ele>
        <time>2013-10-26T09:16:18Z</time>
      </trkpt>
      <trkpt lat="45.50671" lon="4.79968">
        <ele>362</ele>
        <time>2013-10-26T09:16:19Z</time>
      </trkpt>
      <trkpt lat="45.50671" lon="4.79969">
        <ele>362</ele>
        <time>2013-10-26T09:16:20Z</time>
      </trkpt>
      <trkpt lat="45.50671" lon="4.79969">
        <ele>362</ele>
        <time>2013-10-26T09:16:22Z</time>
      </trkpt>
      <trkpt lat="45.50671" lon="4.7997">
        <ele>362</ele>
        <time>2013-10-26T09:16:23Z</time>
      </trkpt>
      <trkpt lat="45.50671" lon="4.7997">
        <ele>362</ele>
        <time>2013-10-26T09:16:24Z</time>
      </trkpt>
      <trkpt lat="45.50671" lon="4.7997">
        <ele>362</ele>
        <time>2013-10-26T09:16:25Z</time>
      </trkpt>
      <trkpt lat="45.50671" lon="4.7997">
        <ele>362</ele>
        <time>2013-10-26T09:16:26Z</time>
      </trkpt>
      <trkpt lat="45.50671" lon="4.7997">
        <ele>362</ele>
        <time>2013-10-26T09:16:37Z</time>
      </trkpt>
      <trkpt lat="45.50673" lon="4.7997">
        <ele>361</ele>
        <time>2013-10-26T09:16:38Z</time>
      </trkpt>
      <trkpt lat="45.50673" lon="4.79969">
        <ele>361</ele>
        <time>2013-10-26T09:16:43Z</time>
      </trkpt>
      <trkpt lat="45.50673" lon="4.79969">
        <ele>361</ele>
        <time>2013-10-26T09:16:44Z</time>
      </trkpt>
      <trkpt lat="45.50673" lon="4.79969">
        <ele>361</ele>
        <time>2013-10-26T09:16:45Z</time>
      </trkpt>
      <trkpt lat="45.50673" lon="4.79969">
        <ele>361</ele>
        <time>2013-10-26T09:16:46Z</time>
      </trkpt>
      <trkpt lat="45.50673" lon="4.79969">
        <ele>361</ele>
        <time>2013-10-26T09:16:47Z</time>
      </trkpt>
      <trkpt lat="45.50672" lon="4.79969">
        <ele>361</ele>
        <time>2013-10-26T09:16:48Z</time>
      </trkpt>
      <trkpt lat="45.50672" lon="4.79967">
        <ele>361</ele>
        <time>2013-10-26T09:16:49Z</time>
      </trkpt>
      <trkpt lat="45.5067" lon="4.79966">
        <ele>362</ele>
        <time>2013-10-26T09:16:54Z</time>
      </trkpt>
      <trkpt lat="45.5067" lon="4.79966">
        <ele>362</ele>
        <time>2013-10-26T09:16:55Z</time>
      </trkpt>
      <trkpt lat="45.5067" lon="4.79966">
        <ele>361</ele>
        <time>2013-10-26T09:16:56Z</time>
      </trkpt>
      <trkpt lat="45.50671" lon="4.79966">
        <ele>361</ele>
        <time>2013-10-26T09:16:58Z</time>
      </trkpt>
      <trkpt lat="45.50671" lon="4.79966">
        <ele>361</ele>
        <time>2013-10-26T09:16:59Z</time>
      </trkpt>
      <trkpt lat="45.50671" lon="4.79966">
        <ele>361</ele>
        <time>2013-10-26T09:17:11Z</time>
      </trkpt>
      <trkpt lat="45.50671" lon="4.79965">
        <ele>361</ele>
        <time>2013-10-26T09:17:12Z</time>
      </trkpt>
      <trkpt lat="45.5067" lon="4.79965">
        <ele>361</ele>
        <time>2013-10-26T09:17:14Z</time>
      </trkpt>
      <trkpt lat="45.5067" lon="4.79965">
        <ele>361</ele>
        <time>2013-10-26T09:17:15Z</time>
      </trkpt>
      <trkpt lat="45.5067" lon="4.79965">
        <ele>361</ele>
        <time>2013-10-26T09:17:18Z</time>
      </trkpt>
      <trkpt lat="45.5067" lon="4.79965">
        <ele>361</ele>
        <time>2013-10-26T09:17:19Z</time>
      </trkpt>
      <trkpt lat="45.5067" lon="4.79965">
        <ele>361</ele>
        <time>2013-10-26T09:17:20Z</time>
      </trkpt>
      <trkpt lat="45.5067" lon="4.79965">
        <ele>361</ele>
        <time>2013-10-26T09:17:21Z</time>
      </trkpt>
      <trkpt lat="45.5067" lon="4.79966">
        <ele>361</ele>
        <time>2013-10-26T09:17:22Z</time>
      </trkpt>
      <trkpt lat="45.5067" lon="4.79966">
        <ele>361</ele>
        <time>2013-10-26T09:17:23Z</time>
      </trkpt>
      <trkpt lat="45.5067" lon="4.79966">
        <ele>362</ele>
        <time>2013-10-26T09:17:40Z</time>
      </trkpt>
      <trkpt lat="45.5067" lon="4.79966">
        <ele>362</ele>
        <time>2013-10-26T09:17:41Z</time>
      </trkpt>
      <trkpt lat="45.5067" lon="4.79966">
        <ele>362</ele>
        <time>2013-10-26T09:17:42Z</time>
      </trkpt>
      <trkpt lat="45.5067" lon="4.79966">
        <ele>362</ele>
        <time>2013-10-26T09:18:14Z</time>
      </trkpt>
      <trkpt lat="45.5067" lon="4.79966">
        <ele>362</ele>
        <time>2013-10-26T09:18:15Z</time>
      </trkpt>
      <trkpt lat="45.5067" lon="4.79966">
        <ele>362</ele>
        <time>2013-10-26T09:18:16Z</time>
      </trkpt>
      <trkpt lat="45.5067" lon="4.79966">
        <ele>362</ele>
        <time>2013-10-26T09:18:18Z</time>
      </trkpt>
      <trkpt lat="45.5067" lon="4.79965">
        <ele>361</ele>
        <time>2013-10-26T09:18:19Z</time>
      </trkpt>
      <trkpt lat="45.5067" lon="4.79965">
        <ele>361</ele>
        <time>2013-10-26T09:18:20Z</time>
      </trkpt>
      <trkpt lat="45.5067" lon="4.79965">
        <ele>361</ele>
        <time>2013-10-26T09:18:21Z</time>
      </trkpt>
      <trkpt lat="45.5067" lon="4.79965">
        <ele>361</ele>
        <time>2013-10-26T09:18:22Z</time>
      </trkpt>
      <trkpt lat="45.5067" lon="4.79965">
        <ele>361</ele>
        <time>2013-10-26T09:18:23Z</time>
      </trkpt>
      <trkpt lat="45.5067" lon="4.79965">
        <ele>361</ele>
        <time>2013-10-26T09:18:42Z</time>
      </trkpt>
      <trkpt lat="45.50671" lon="4.79965">
        <ele>361</ele>
        <time>2013-10-26T09:18:43Z</time>
      </trkpt>
      <trkpt lat="45.50671" lon="4.79964">
        <ele>361</ele>
        <time>2013-10-26T09:18:46Z</time>
      </trkpt>
      <trkpt lat="45.50671" lon="4.79964">
        <ele>361</ele>
        <time>2013-10-26T09:18:47Z</time>
      </trkpt>
      <trkpt lat="45.50671" lon="4.79964">
        <ele>361</ele>
        <time>2013-10-26T09:18:55Z</time>
      </trkpt>
      <trkpt lat="45.50671" lon="4.79964">
        <ele>361</ele>
        <time>2013-10-26T09:18:56Z</time>
      </trkpt>
      <trkpt lat="45.50671" lon="4.79964">
        <ele>361</ele>
        <time>2013-10-26T09:18:57Z</time>
      </trkpt>
      <trkpt lat="45.50671" lon="4.79964">
        <ele>361</ele>
        <time>2013-10-26T09:19:03Z</time>
      </trkpt>
      <trkpt lat="45.50671" lon="4.79965">
        <ele>361</ele>
        <time>2013-10-26T09:19:04Z</time>
      </trkpt>
      <trkpt lat="45.50671" lon="4.79967">
        <ele>361</ele>
        <time>2013-10-26T09:19:07Z</time>
      </trkpt>
      <trkpt lat="45.50671" lon="4.79967">
        <ele>361</ele>
        <time>2013-10-26T09:19:08Z</time>
      </trkpt>
      <trkpt lat="45.50671" lon="4.79967">
        <ele>361</ele>
        <time>2013-10-26T09:19:09Z</time>
      </trkpt>
      <trkpt lat="45.50671" lon="4.79967">
        <ele>361</ele>
        <time>2013-10-26T09:19:10Z</time>
      </trkpt>
      <trkpt lat="45.50671" lon="4.79966">
        <ele>361</ele>
        <time>2013-10-26T09:19:11Z</time>
      </trkpt>
      <trkpt lat="45.50671" lon="4.79966">
        <ele>361</ele>
        <time>2013-10-26T09:19:12Z</time>
      </trkpt>
      <trkpt lat="45.50671" lon="4.79966">
        <ele>361</ele>
        <time>2013-10-26T09:19:16Z</time>
      </trkpt>
      <trkpt lat="45.50671" lon="4.79966">
        <ele>361</ele>
        <time>2013-10-26T09:19:17Z</time>
      </trkpt>
      <trkpt lat="45.50671" lon="4.79966">
        <ele>361</ele>
        <time>2013-10-26T09:19:19Z</time>
      </trkpt>
      <trkpt lat="45.50671" lon="4.79966">
        <ele>361</ele>
        <time>2013-10-26T09:19:20Z</time>
      </trkpt>
      <trkpt lat="45.50671" lon="4.79964">
        <ele>361</ele>
        <time>2013-10-26T09:19:21Z</time>
      </trkpt>
      <trkpt lat="45.5067" lon="4.79965">
        <ele>361</ele>
        <time>2013-10-26T09:19:23Z</time>
      </trkpt>
      <trkpt lat="45.5067" lon="4.79965">
        <ele>361</ele>
        <time>2013-10-26T09:19:24Z</time>
      </trkpt>
      <trkpt lat="45.5067" lon="4.79966">
        <ele>361</ele>
        <time>2013-10-26T09:19:25Z</time>
      </trkpt>
      <trkpt lat="45.5067" lon="4.79966">
        <ele>362</ele>
        <time>2013-10-26T09:19:26Z</time>
      </trkpt>
      <trkpt lat="45.5067" lon="4.79966">
        <ele>362</ele>
        <time>2013-10-26T09:19:27Z</time>
      </trkpt>
      <trkpt lat="45.5067" lon="4.79966">
        <ele>362</ele>
        <time>2013-10-26T09:19:29Z</time>
      </trkpt>
      <trkpt lat="45.5067" lon="4.79966">
        <ele>361</ele>
        <time>2013-10-26T09:19:30Z</time>
      </trkpt>
      <trkpt lat="45.5067" lon="4.79966">
        <ele>361</ele>
        <time>2013-10-26T09:19:32Z</time>
      </trkpt>
      <trkpt lat="45.5067" lon="4.79966">
        <ele>361</ele>
        <time>2013-10-26T09:19:33Z</time>
      </trkpt>
      <trkpt lat="45.5067" lon="4.79966">
        <ele>362</ele>
        <time>2013-10-26T09:19:34Z</time>
      </trkpt>
      <trkpt lat="45.5067" lon="4.79966">
        <ele>362</ele>
        <time>2013-10-26T09:19:35Z</time>
      </trkpt>
      <trkpt lat="45.5067" lon="4.79966">
        <ele>362</ele>
        <time>2013-10-26T09:19:40Z</time>
      </trkpt>
      <trkpt lat="45.5067" lon="4.79966">
        <ele>362</ele>
        <time>2013-10-26T09:19:41Z</time>
      </trkpt>
      <trkpt lat="45.5067" lon="4.79966">
        <ele>362</ele>
        <time>2013-10-26T09:19:42Z</time>
      </trkpt>
      <trkpt lat="45.50669" lon="4.79966">
        <ele>362</ele>
        <time>2013-10-26T09:19:45Z</time>
      </trkpt>
      <trkpt lat="45.5067" lon="4.79966">
        <ele>362</ele>
        <time>2013-10-26T09:19:46Z</time>
      </trkpt>
      <trkpt lat="45.50669" lon="4.79966">
        <ele>362</ele>
        <time>2013-10-26T09:19:47Z</time>
      </trkpt>
      <trkpt lat="45.50669" lon="4.79965">
        <ele>362</ele>
        <time>2013-10-26T09:19:48Z</time>
      </trkpt>
      <trkpt lat="45.5067" lon="4.79964">
        <ele>361</ele>
        <time>2013-10-26T09:20:04Z</time>
      </trkpt>
      <trkpt lat="45.5067" lon="4.79964">
        <ele>361</ele>
        <time>2013-10-26T09:20:05Z</time>
      </trkpt>
      <trkpt lat="45.5067" lon="4.79964">
        <ele>361</ele>
        <time>2013-10-26T09:20:07Z</time>
      </trkpt>
      <trkpt lat="45.5067" lon="4.79964">
        <ele>361</ele>
        <time>2013-10-26T09:20:08Z</time>
      </trkpt>
      <trkpt lat="45.5067" lon="4.79964">
        <ele>361</ele>
        <time>2013-10-26T09:20:10Z</time>
      </trkpt>
      <trkpt lat="45.50671" lon="4.79964">
        <ele>361</ele>
        <time>2013-10-26T09:20:11Z</time>
      </trkpt>
      <trkpt lat="45.50671" lon="4.79965">
        <ele>361</ele>
        <time>2013-10-26T09:20:12Z</time>
      </trkpt>
      <trkpt lat="45.50671" lon="4.79964">
        <ele>361</ele>
        <time>2013-10-26T09:20:13Z</time>
      </trkpt>
      <trkpt lat="45.50671" lon="4.79964">
        <ele>361</ele>
        <time>2013-10-26T09:20:14Z</time>
      </trkpt>
      <trkpt lat="45.50671" lon="4.79964">
        <ele>361</ele>
        <time>2013-10-26T09:20:15Z</time>
      </trkpt>
      <trkpt lat="45.50671" lon="4.79964">
        <ele>361</ele>
        <time>2013-10-26T09:20:19Z</time>
      </trkpt>
      <trkpt lat="45.5067" lon="4.79963">
        <ele>361</ele>
        <time>2013-10-26T09:20:20Z</time>
      </trkpt>
      <trkpt lat="45.50672" lon="4.79953">
        <ele>361</ele>
        <time>2013-10-26T09:20:24Z</time>
      </trkpt>
      <trkpt lat="45.50673" lon="4.79949">
        <ele>362</ele>
        <time>2013-10-26T09:20:25Z</time>
      </trkpt>
      <trkpt lat="45.50677" lon="4.79938">
        <ele>362</ele>
        <time>2013-10-26T09:20:27Z</time>
      </trkpt>
      <trkpt lat="45.50678" lon="4.79935">
        <ele>362</ele>
        <time>2013-10-26T09:20:28Z</time>
      </trkpt>
      <trkpt lat="45.50682" lon="4.79927">
        <ele>362</ele>
        <time>2013-10-26T09:20:30Z</time>
      </trkpt>
      <trkpt lat="45.50684" lon="4.79922">
        <ele>362</ele>
        <time>2013-10-26T09:20:31Z</time>
      </trkpt>
      <trkpt lat="45.50687" lon="4.79913">
        <ele>363</ele>
        <time>2013-10-26T09:20:33Z</time>
      </trkpt>
      <trkpt lat="45.50688" lon="4.79909">
        <ele>363</ele>
        <time>2013-10-26T09:20:34Z</time>
      </trkpt>
      <trkpt lat="45.50691" lon="4.79902">
        <ele>363</ele>
        <time>2013-10-26T09:20:36Z</time>
      </trkpt>
      <trkpt lat="45.50693" lon="4.79898">
        <ele>363</ele>
        <time>2013-10-26T09:20:37Z</time>
      </trkpt>
      <trkpt lat="45.50697" lon="4.79891">
        <ele>362</ele>
        <time>2013-10-26T09:20:39Z</time>
      </trkpt>
      <trkpt lat="45.50698" lon="4.79887">
        <ele>362</ele>
        <time>2013-10-26T09:20:40Z</time>
      </trkpt>
      <trkpt lat="45.50703" lon="4.79876">
        <ele>362</ele>
        <time>2013-10-26T09:20:42Z</time>
      </trkpt>
      <trkpt lat="45.50705" lon="4.79869">
        <ele>362</ele>
        <time>2013-10-26T09:20:43Z</time>
      </trkpt>
      <trkpt lat="45.50707" lon="4.79864">
        <ele>362</ele>
        <time>2013-10-26T09:20:44Z</time>
      </trkpt>
      <trkpt lat="45.50711" lon="4.79854">
        <ele>362</ele>
        <time>2013-10-26T09:20:45Z</time>
      </trkpt>
      <trkpt lat="45.50711" lon="4.79841">
        <ele>363</ele>
        <time>2013-10-26T09:20:48Z</time>
      </trkpt>
      <trkpt lat="45.50707" lon="4.7984">
        <ele>363</ele>
        <time>2013-10-26T09:20:49Z</time>
      </trkpt>
      <trkpt lat="45.50705" lon="4.79833">
        <ele>364</ele>
        <time>2013-10-26T09:20:51Z</time>
      </trkpt>
      <trkpt lat="45.50702" lon="4.79827">
        <ele>364</ele>
        <time>2013-10-26T09:20:52Z</time>
      </trkpt>
      <trkpt lat="45.507" lon="4.79818">
        <ele>364</ele>
        <time>2013-10-26T09:20:54Z</time>
      </trkpt>
      <trkpt lat="45.50699" lon="4.79814">
        <ele>364</ele>
        <time>2013-10-26T09:20:55Z</time>
      </trkpt>
      <trkpt lat="45.50694" lon="4.79807">
        <ele>364</ele>
        <time>2013-10-26T09:20:57Z</time>
      </trkpt>
      <trkpt lat="45.50692" lon="4.79803">
        <ele>364</ele>
        <time>2013-10-26T09:20:58Z</time>
      </trkpt>
      <trkpt lat="45.50688" lon="4.79792">
        <ele>364</ele>
        <time>2013-10-26T09:21:00Z</time>
      </trkpt>
      <trkpt lat="45.50686" lon="4.79786">
        <ele>364</ele>
        <time>2013-10-26T09:21:01Z</time>
      </trkpt>
      <trkpt lat="45.50683" lon="4.79776">
        <ele>364</ele>
        <time>2013-10-26T09:21:03Z</time>
      </trkpt>
      <trkpt lat="45.50682" lon="4.79771">
        <ele>364</ele>
        <time>2013-10-26T09:21:04Z</time>
      </trkpt>
      <trkpt lat="45.50679" lon="4.79759">
        <ele>364</ele>
        <time>2013-10-26T09:21:06Z</time>
      </trkpt>
      <trkpt lat="45.50678" lon="4.79755">
        <ele>364</ele>
        <time>2013-10-26T09:21:07Z</time>
      </trkpt>
      <trkpt lat="45.50676" lon="4.79743">
        <ele>364</ele>
        <time>2013-10-26T09:21:09Z</time>
      </trkpt>
      <trkpt lat="45.50675" lon="4.79738">
        <ele>364</ele>
        <time>2013-10-26T09:21:10Z</time>
      </trkpt>
      <trkpt lat="45.50672" lon="4.79727">
        <ele>364</ele>
        <time>2013-10-26T09:21:12Z</time>
      </trkpt>
      <trkpt lat="45.50671" lon="4.79723">
        <ele>364</ele>
        <time>2013-10-26T09:21:13Z</time>
      </trkpt>
      <trkpt lat="45.5067" lon="4.79713">
        <ele>364</ele>
        <time>2013-10-26T09:21:15Z</time>
      </trkpt>
      <trkpt lat="45.5067" lon="4.79709">
        <ele>364</ele>
        <time>2013-10-26T09:21:16Z</time>
      </trkpt>
      <trkpt lat="45.50668" lon="4.797">
        <ele>364</ele>
        <time>2013-10-26T09:21:18Z</time>
      </trkpt>
      <trkpt lat="45.50668" lon="4.79696">
        <ele>364</ele>
        <time>2013-10-26T09:21:19Z</time>
      </trkpt>
      <trkpt lat="45.50666" lon="4.79687">
        <ele>364</ele>
        <time>2013-10-26T09:21:21Z</time>
      </trkpt>
      <trkpt lat="45.50665" lon="4.79682">
        <ele>364</ele>
        <time>2013-10-26T09:21:22Z</time>
      </trkpt>
      <trkpt lat="45.50662" lon="4.79673">
        <ele>364</ele>
        <time>2013-10-26T09:21:24Z</time>
      </trkpt>
      <trkpt lat="45.50661" lon="4.79668">
        <ele>364</ele>
        <time>2013-10-26T09:21:25Z</time>
      </trkpt>
      <trkpt lat="45.50654" lon="4.79661">
        <ele>363</ele>
        <time>2013-10-26T09:21:28Z</time>
      </trkpt>
      <trkpt lat="45.50652" lon="4.79658">
        <ele>362</ele>
        <time>2013-10-26T09:21:29Z</time>
      </trkpt>
      <trkpt lat="45.50648" lon="4.79665">
        <ele>362</ele>
        <time>2013-10-26T09:21:30Z</time>
      </trkpt>
      <trkpt lat="45.50644" lon="4.79667">
        <ele>364</ele>
        <time>2013-10-26T09:21:31Z</time>
      </trkpt>
      <trkpt lat="45.50638" lon="4.79671">
        <ele>364</ele>
        <time>2013-10-26T09:21:33Z</time>
      </trkpt>
      <trkpt lat="45.50634" lon="4.79672">
        <ele>364</ele>
        <time>2013-10-26T09:21:34Z</time>
      </trkpt>
      <trkpt lat="45.50626" lon="4.79677">
        <ele>364</ele>
        <time>2013-10-26T09:21:36Z</time>
      </trkpt>
      <trkpt lat="45.50623" lon="4.79679">
        <ele>364</ele>
        <time>2013-10-26T09:21:37Z</time>
      </trkpt>
      <trkpt lat="45.50615" lon="4.79683">
        <ele>364</ele>
        <time>2013-10-26T09:21:39Z</time>
      </trkpt>
      <trkpt lat="45.50612" lon="4.79685">
        <ele>364</ele>
        <time>2013-10-26T09:21:40Z</time>
      </trkpt>
      <trkpt lat="45.50608" lon="4.79685">
        <ele>364</ele>
        <time>2013-10-26T09:21:41Z</time>
      </trkpt>
      <trkpt lat="45.50602" lon="4.79692">
        <ele>364</ele>
        <time>2013-10-26T09:21:42Z</time>
      </trkpt>
      <trkpt lat="45.50593" lon="4.79696">
        <ele>364</ele>
        <time>2013-10-26T09:21:44Z</time>
      </trkpt>
      <trkpt lat="45.5059" lon="4.79697">
        <ele>364</ele>
        <time>2013-10-26T09:21:45Z</time>
      </trkpt>
      <trkpt lat="45.50583" lon="4.79692">
        <ele>363</ele>
        <time>2013-10-26T09:21:47Z</time>
      </trkpt>
      <trkpt lat="45.50581" lon="4.79688">
        <ele>363</ele>
        <time>2013-10-26T09:21:48Z</time>
      </trkpt>
      <trkpt lat="45.50579" lon="4.79676">
        <ele>363</ele>
        <time>2013-10-26T09:21:51Z</time>
      </trkpt>
      <trkpt lat="45.5058" lon="4.7967">
        <ele>363</ele>
        <time>2013-10-26T09:21:52Z</time>
      </trkpt>
      <trkpt lat="45.50584" lon="4.79663">
        <ele>363</ele>
        <time>2013-10-26T09:21:53Z</time>
      </trkpt>
      <trkpt lat="45.50586" lon="4.79659">
        <ele>362</ele>
        <time>2013-10-26T09:21:54Z</time>
      </trkpt>
      <trkpt lat="45.50592" lon="4.79651">
        <ele>362</ele>
        <time>2013-10-26T09:21:56Z</time>
      </trkpt>
      <trkpt lat="45.50595" lon="4.79645">
        <ele>361</ele>
        <time>2013-10-26T09:21:57Z</time>
      </trkpt>
      <trkpt lat="45.50598" lon="4.79639">
        <ele>361</ele>
        <time>2013-10-26T09:21:58Z</time>
      </trkpt>
      <trkpt lat="45.50601" lon="4.79631">
        <ele>361</ele>
        <time>2013-10-26T09:21:59Z</time>
      </trkpt>
      <trkpt lat="45.50604" lon="4.79622">
        <ele>360</ele>
        <time>2013-10-26T09:22:00Z</time>
      </trkpt>
      <trkpt lat="45.50606" lon="4.79616">
        <ele>360</ele>
        <time>2013-10-26T09:22:01Z</time>
      </trkpt>
      <trkpt lat="45.50609" lon="4.79607">
        <ele>359</ele>
        <time>2013-10-26T09:22:04Z</time>
      </trkpt>
      <trkpt lat="45.5061" lon="4.79604">
        <ele>359</ele>
        <time>2013-10-26T09:22:05Z</time>
      </trkpt>
      <trkpt lat="45.50615" lon="4.79597">
        <ele>359</ele>
        <time>2013-10-26T09:22:07Z</time>
      </trkpt>
      <trkpt lat="45.50617" lon="4.79593">
        <ele>359</ele>
        <time>2013-10-26T09:22:08Z</time>
      </trkpt>
      <trkpt lat="45.5062" lon="4.79587">
        <ele>359</ele>
        <time>2013-10-26T09:22:09Z</time>
      </trkpt>
      <trkpt lat="45.50622" lon="4.79579">
        <ele>354</ele>
        <time>2013-10-26T09:22:10Z</time>
      </trkpt>
      <trkpt lat="45.50623" lon="4.79572">
        <ele>354</ele>
        <time>2013-10-26T09:22:11Z</time>
      </trkpt>
      <trkpt lat="45.50623" lon="4.79566">
        <ele>354</ele>
        <time>2013-10-26T09:22:12Z</time>
      </trkpt>
      <trkpt lat="45.50622" lon="4.79559">
        <ele>354</ele>
        <time>2013-10-26T09:22:13Z</time>
      </trkpt>
      <trkpt lat="45.50622" lon="4.79552">
        <ele>353</ele>
        <time>2013-10-26T09:22:14Z</time>
      </trkpt>
      <trkpt lat="45.50625" lon="4.79543">
        <ele>353</ele>
        <time>2013-10-26T09:22:15Z</time>
      </trkpt>
      <trkpt lat="45.50625" lon="4.79535">
        <ele>352</ele>
        <time>2013-10-26T09:22:16Z</time>
      </trkpt>
      <trkpt lat="45.50624" lon="4.79529">
        <ele>352</ele>
        <time>2013-10-26T09:22:17Z</time>
      </trkpt>
      <trkpt lat="45.50625" lon="4.79521">
        <ele>352</ele>
        <time>2013-10-26T09:22:18Z</time>
      </trkpt>
      <trkpt lat="45.50624" lon="4.79513">
        <ele>351</ele>
        <time>2013-10-26T09:22:19Z</time>
      </trkpt>
      <trkpt lat="45.50623" lon="4.79506">
        <ele>351</ele>
        <time>2013-10-26T09:22:20Z</time>
      </trkpt>
      <trkpt lat="45.50623" lon="4.79497">
        <ele>345</ele>
        <time>2013-10-26T09:22:21Z</time>
      </trkpt>
      <trkpt lat="45.50623" lon="4.7949">
        <ele>345</ele>
        <time>2013-10-26T09:22:22Z</time>
      </trkpt>
      <trkpt lat="45.50622" lon="4.79483">
        <ele>345</ele>
        <time>2013-10-26T09:22:23Z</time>
      </trkpt>
      <trkpt lat="45.50621" lon="4.79474">
        <ele>344</ele>
        <time>2013-10-26T09:22:24Z</time>
      </trkpt>
      <trkpt lat="45.5062" lon="4.79467">
        <ele>344</ele>
        <time>2013-10-26T09:22:25Z</time>
      </trkpt>
      <trkpt lat="45.50621" lon="4.79461">
        <ele>344</ele>
        <time>2013-10-26T09:22:26Z</time>
      </trkpt>
      <trkpt lat="45.50622" lon="4.7945">
        <ele>343</ele>
        <time>2013-10-26T09:22:28Z</time>
      </trkpt>
      <trkpt lat="45.50622" lon="4.79446">
        <ele>343</ele>
        <time>2013-10-26T09:22:29Z</time>
      </trkpt>
      <trkpt lat="45.5062" lon="4.79436">
        <ele>342</ele>
        <time>2013-10-26T09:22:34Z</time>
      </trkpt>
      <trkpt lat="45.50619" lon="4.79433">
        <ele>342</ele>
        <time>2013-10-26T09:22:35Z</time>
      </trkpt>
      <trkpt lat="45.50615" lon="4.79422">
        <ele>341</ele>
        <time>2013-10-26T09:22:39Z</time>
      </trkpt>
      <trkpt lat="45.50613" lon="4.7942">
        <ele>341</ele>
        <time>2013-10-26T09:22:40Z</time>
      </trkpt>
      <trkpt lat="45.50613" lon="4.79409">
        <ele>340</ele>
        <time>2013-10-26T09:22:47Z</time>
      </trkpt>
      <trkpt lat="45.50614" lon="4.79405">
        <ele>340</ele>
        <time>2013-10-26T09:22:48Z</time>
      </trkpt>
      <trkpt lat="45.50616" lon="4.79393">
        <ele>340</ele>
        <time>2013-10-26T09:22:57Z</time>
      </trkpt>
      <trkpt lat="45.50613" lon="4.79387">
        <ele>340</ele>
        <time>2013-10-26T09:22:58Z</time>
      </trkpt>
      <trkpt lat="45.5061" lon="4.79376">
        <ele>341</ele>
        <time>2013-10-26T09:23:16Z</time>
      </trkpt>
      <trkpt lat="45.5061" lon="4.79375">
        <ele>341</ele>
        <time>2013-10-26T09:23:17Z</time>
      </trkpt>
      <trkpt lat="45.5061" lon="4.79375">
        <ele>341</ele>
        <time>2013-10-26T09:23:19Z</time>
      </trkpt>
      <trkpt lat="45.5061" lon="4.79375">
        <ele>341</ele>
        <time>2013-10-26T09:23:20Z</time>
      </trkpt>
      <trkpt lat="45.5061" lon="4.79374">
        <ele>341</ele>
        <time>2013-10-26T09:23:57Z</time>
      </trkpt>
      <trkpt lat="45.50609" lon="4.79366">
        <ele>341</ele>
        <time>2013-10-26T09:23:58Z</time>
      </trkpt>
      <trkpt lat="45.50606" lon="4.79355">
        <ele>341</ele>
        <time>2013-10-26T09:24:01Z</time>
      </trkpt>
      <trkpt lat="45.50606" lon="4.79352">
        <ele>341</ele>
        <time>2013-10-26T09:24:02Z</time>
      </trkpt>
      <trkpt lat="45.50602" lon="4.79342">
        <ele>341</ele>
        <time>2013-10-26T09:24:08Z</time>
      </trkpt>
      <trkpt lat="45.506" lon="4.79339">
        <ele>342</ele>
        <time>2013-10-26T09:24:09Z</time>
      </trkpt>
      <trkpt lat="45.50592" lon="4.79337">
        <ele>342</ele>
        <time>2013-10-26T09:24:21Z</time>
      </trkpt>
      <trkpt lat="45.50591" lon="4.79337">
        <ele>342</ele>
        <time>2013-10-26T09:24:22Z</time>
      </trkpt>
      <trkpt lat="45.50582" lon="4.79333">
        <ele>342</ele>
        <time>2013-10-26T09:24:34Z</time>
      </trkpt>
      <trkpt lat="45.5058" lon="4.79332">
        <ele>343</ele>
        <time>2013-10-26T09:24:35Z</time>
      </trkpt>
      <trkpt lat="45.5058" lon="4.79331">
        <ele>343</ele>
        <time>2013-10-26T09:24:45Z</time>
      </trkpt>
      <trkpt lat="45.5058" lon="4.79331">
        <ele>343</ele>
        <time>2013-10-26T09:24:46Z</time>
      </trkpt>
      <trkpt lat="45.50582" lon="4.79333">
        <ele>342</ele>
        <time>2013-10-26T09:24:47Z</time>
      </trkpt>
      <trkpt lat="45.50581" lon="4.79333">
        <ele>342</ele>
        <time>2013-10-26T09:24:58Z</time>
      </trkpt>
      <trkpt lat="45.5058" lon="4.79333">
        <ele>343</ele>
        <time>2013-10-26T09:24:59Z</time>
      </trkpt>
      <trkpt lat="45.50581" lon="4.79332">
        <ele>342</ele>
        <time>2013-10-26T09:25:00Z</time>
      </trkpt>
      <trkpt lat="45.5058" lon="4.79332">
        <ele>343</ele>
        <time>2013-10-26T09:25:02Z</time>
      </trkpt>
      <trkpt lat="45.5058" lon="4.79332">
        <ele>343</ele>
        <time>2013-10-26T09:25:03Z</time>
      </trkpt>
      <trkpt lat="45.5058" lon="4.79331">
        <ele>343</ele>
        <time>2013-10-26T09:25:05Z</time>
      </trkpt>
      <trkpt lat="45.5058" lon="4.79331">
        <ele>343</ele>
        <time>2013-10-26T09:25:06Z</time>
      </trkpt>
      <trkpt lat="45.5058" lon="4.79331">
        <ele>343</ele>
        <time>2013-10-26T09:25:07Z</time>
      </trkpt>
      <trkpt lat="45.5058" lon="4.79331">
        <ele>343</ele>
        <time>2013-10-26T09:25:08Z</time>
      </trkpt>
      <trkpt lat="45.50573" lon="4.79324">
        <ele>344</ele>
        <time>2013-10-26T09:25:16Z</time>
      </trkpt>
      <trkpt lat="45.50572" lon="4.79323">
        <ele>344</ele>
        <time>2013-10-26T09:25:17Z</time>
      </trkpt>
      <trkpt lat="45.50566" lon="4.79317">
        <ele>345</ele>
        <time>2013-10-26T09:25:23Z</time>
      </trkpt>
      <trkpt lat="45.50566" lon="4.79317">
        <ele>345</ele>
        <time>2013-10-26T09:25:24Z</time>
      </trkpt>
      <trkpt lat="45.50567" lon="4.79316">
        <ele>345</ele>
        <time>2013-10-26T09:25:25Z</time>
      </trkpt>
      <trkpt lat="45.50565" lon="4.79317">
        <ele>345</ele>
        <time>2013-10-26T09:25:27Z</time>
      </trkpt>
      <trkpt lat="45.50566" lon="4.79317">
        <ele>345</ele>
        <time>2013-10-26T09:25:28Z</time>
      </trkpt>
      <trkpt lat="45.50565" lon="4.79317">
        <ele>345</ele>
        <time>2013-10-26T09:25:29Z</time>
      </trkpt>
      <trkpt lat="45.50564" lon="4.79317">
        <ele>345</ele>
        <time>2013-10-26T09:25:30Z</time>
      </trkpt>
      <trkpt lat="45.50564" lon="4.79317">
        <ele>345</ele>
        <time>2013-10-26T09:25:31Z</time>
      </trkpt>
      <trkpt lat="45.50564" lon="4.79317">
        <ele>345</ele>
        <time>2013-10-26T09:25:32Z</time>
      </trkpt>
      <trkpt lat="45.50563" lon="4.79316">
        <ele>345</ele>
        <time>2013-10-26T09:25:34Z</time>
      </trkpt>
      <trkpt lat="45.50563" lon="4.79317">
        <ele>345</ele>
        <time>2013-10-26T09:25:35Z</time>
      </trkpt>
      <trkpt lat="45.50563" lon="4.79317">
        <ele>345</ele>
        <time>2013-10-26T09:25:37Z</time>
      </trkpt>
      <trkpt lat="45.50563" lon="4.79317">
        <ele>345</ele>
        <time>2013-10-26T09:25:38Z</time>
      </trkpt>
      <trkpt lat="45.50557" lon="4.7932">
        <ele>345</ele>
        <time>2013-10-26T09:25:41Z</time>
      </trkpt>
      <trkpt lat="45.50552" lon="4.7932">
        <ele>345</ele>
        <time>2013-10-26T09:25:42Z</time>
      </trkpt>
      <trkpt lat="45.50545" lon="4.79325">
        <ele>345</ele>
        <time>2013-10-26T09:25:45Z</time>
      </trkpt>
      <trkpt lat="45.50543" lon="4.79325">
        <ele>345</ele>
        <time>2013-10-26T09:25:46Z</time>
      </trkpt>
      <trkpt lat="45.50536" lon="4.79326">
        <ele>346</ele>
        <time>2013-10-26T09:25:54Z</time>
      </trkpt>
      <trkpt lat="45.50533" lon="4.79325">
        <ele>346</ele>
        <time>2013-10-26T09:25:55Z</time>
      </trkpt>
      <trkpt lat="45.50526" lon="4.79325">
        <ele>346</ele>
        <time>2013-10-26T09:25:57Z</time>
      </trkpt>
      <trkpt lat="45.50523" lon="4.79324">
        <ele>346</ele>
        <time>2013-10-26T09:25:58Z</time>
      </trkpt>
      <trkpt lat="45.50515" lon="4.79324">
        <ele>345</ele>
        <time>2013-10-26T09:26:03Z</time>
      </trkpt>
      <trkpt lat="45.50513" lon="4.79325">
        <ele>345</ele>
        <time>2013-10-26T09:26:04Z</time>
      </trkpt>
      <trkpt lat="45.50507" lon="4.79326">
        <ele>345</ele>
        <time>2013-10-26T09:26:08Z</time>
      </trkpt>
      <trkpt lat="45.50504" lon="4.79328">
        <ele>345</ele>
        <time>2013-10-26T09:26:09Z</time>
      </trkpt>
      <trkpt lat="45.50499" lon="4.79328">
        <ele>345</ele>
        <time>2013-10-26T09:26:11Z</time>
      </trkpt>
      <trkpt lat="45.5049" lon="4.79326">
        <ele>346</ele>
        <time>2013-10-26T09:26:12Z</time>
      </trkpt>
      <trkpt lat="45.50481" lon="4.79327">
        <ele>346</ele>
        <time>2013-10-26T09:26:16Z</time>
      </trkpt>
      <trkpt lat="45.5048" lon="4.79327">
        <ele>346</ele>
        <time>2013-10-26T09:26:17Z</time>
      </trkpt>
      <trkpt lat="45.50473" lon="4.79321">
        <ele>347</ele>
        <time>2013-10-26T09:26:24Z</time>
      </trkpt>
      <trkpt lat="45.50472" lon="4.79319">
        <ele>347</ele>
        <time>2013-10-26T09:26:25Z</time>
      </trkpt>
      <trkpt lat="45.50466" lon="4.79316">
        <ele>347</ele>
        <time>2013-10-26T09:26:28Z</time>
      </trkpt>
      <trkpt lat="45.50457" lon="4.79313">
        <ele>347</ele>
        <time>2013-10-26T09:26:29Z</time>
      </trkpt>
      <trkpt lat="45.5045" lon="4.79308">
        <ele>348</ele>
        <time>2013-10-26T09:26:32Z</time>
      </trkpt>
      <trkpt lat="45.50449" lon="4.79306">
        <ele>348</ele>
        <time>2013-10-26T09:26:33Z</time>
      </trkpt>
      <trkpt lat="45.50443" lon="4.79301">
        <ele>348</ele>
        <time>2013-10-26T09:26:40Z</time>
      </trkpt>
      <trkpt lat="45.5044" lon="4.79298">
        <ele>348</ele>
        <time>2013-10-26T09:26:41Z</time>
      </trkpt>
      <trkpt lat="45.50432" lon="4.79296">
        <ele>348</ele>
        <time>2013-10-26T09:26:45Z</time>
      </trkpt>
      <trkpt lat="45.50425" lon="4.79295">
        <ele>348</ele>
        <time>2013-10-26T09:26:46Z</time>
      </trkpt>
      <trkpt lat="45.50417" lon="4.79292">
        <ele>348</ele>
        <time>2013-10-26T09:26:48Z</time>
      </trkpt>
      <trkpt lat="45.50414" lon="4.79291">
        <ele>345</ele>
        <time>2013-10-26T09:26:49Z</time>
      </trkpt>
      <trkpt lat="45.50406" lon="4.79286">
        <ele>345</ele>
        <time>2013-10-26T09:26:52Z</time>
      </trkpt>
      <trkpt lat="45.50404" lon="4.79285">
        <ele>345</ele>
        <time>2013-10-26T09:26:53Z</time>
      </trkpt>
      <trkpt lat="45.50398" lon="4.79278">
        <ele>345</ele>
        <time>2013-10-26T09:26:56Z</time>
      </trkpt>
      <trkpt lat="45.50396" lon="4.79276">
        <ele>345</ele>
        <time>2013-10-26T09:26:57Z</time>
      </trkpt>
      <trkpt lat="45.5039" lon="4.79269">
        <ele>345</ele>
        <time>2013-10-26T09:27:00Z</time>
      </trkpt>
      <trkpt lat="45.50387" lon="4.79268">
        <ele>345</ele>
        <time>2013-10-26T09:27:01Z</time>
      </trkpt>
      <trkpt lat="45.5038" lon="4.79262">
        <ele>345</ele>
        <time>2013-10-26T09:27:04Z</time>
      </trkpt>
      <trkpt lat="45.50374" lon="4.79267">
        <ele>344</ele>
        <time>2013-10-26T09:27:05Z</time>
      </trkpt>
      <trkpt lat="45.50366" lon="4.79266">
        <ele>343</ele>
        <time>2013-10-26T09:27:07Z</time>
      </trkpt>
      <trkpt lat="45.50363" lon="4.79265">
        <ele>343</ele>
        <time>2013-10-26T09:27:08Z</time>
      </trkpt>
      <trkpt lat="45.50357" lon="4.79265">
        <ele>342</ele>
        <time>2013-10-26T09:27:10Z</time>
      </trkpt>
      <trkpt lat="45.50353" lon="4.79265">
        <ele>342</ele>
        <time>2013-10-26T09:27:11Z</time>
      </trkpt>
      <trkpt lat="45.50345" lon="4.79268">
        <ele>342</ele>
        <time>2013-10-26T09:27:13Z</time>
      </trkpt>
      <trkpt lat="45.50339" lon="4.79266">
        <ele>341</ele>
        <time>2013-10-26T09:27:14Z</time>
      </trkpt>
      <trkpt lat="45.50333" lon="4.79267">
        <ele>338</ele>
        <time>2013-10-26T09:27:15Z</time>
      </trkpt>
      <trkpt lat="45.50331" lon="4.7926">
        <ele>338</ele>
        <time>2013-10-26T09:27:16Z</time>
      </trkpt>
      <trkpt lat="45.50323" lon="4.79254">
        <ele>338</ele>
        <time>2013-10-26T09:27:18Z</time>
      </trkpt>
      <trkpt lat="45.50319" lon="4.79251">
        <ele>338</ele>
        <time>2013-10-26T09:27:19Z</time>
      </trkpt>
      <trkpt lat="45.50314" lon="4.79249">
        <ele>339</ele>
        <time>2013-10-26T09:27:20Z</time>
      </trkpt>
      <trkpt lat="45.50307" lon="4.79244">
        <ele>339</ele>
        <time>2013-10-26T09:27:21Z</time>
      </trkpt>
      <trkpt lat="45.50301" lon="4.79242">
        <ele>339</ele>
        <time>2013-10-26T09:27:22Z</time>
      </trkpt>
      <trkpt lat="45.50296" lon="4.79239">
        <ele>339</ele>
        <time>2013-10-26T09:27:23Z</time>
      </trkpt>
      <trkpt lat="45.50289" lon="4.79236">
        <ele>339</ele>
        <time>2013-10-26T09:27:24Z</time>
      </trkpt>
      <trkpt lat="45.50284" lon="4.79234">
        <ele>339</ele>
        <time>2013-10-26T09:27:24Z</time>
      </trkpt>
      <trkpt lat="45.5028" lon="4.7923">
        <ele>339</ele>
        <time>2013-10-26T09:27:25Z</time>
      </trkpt>
      <trkpt lat="45.50275" lon="4.79228">
        <ele>339</ele>
        <time>2013-10-26T09:27:26Z</time>
      </trkpt>
      <trkpt lat="45.50267" lon="4.79226">
        <ele>339</ele>
        <time>2013-10-26T09:27:27Z</time>
      </trkpt>
      <trkpt lat="45.5026" lon="4.79231">
        <ele>338</ele>
        <time>2013-10-26T09:27:28Z</time>
      </trkpt>
      <trkpt lat="45.50253" lon="4.7923">
        <ele>338</ele>
        <time>2013-10-26T09:27:29Z</time>
      </trkpt>
      <trkpt lat="45.50247" lon="4.79232">
        <ele>338</ele>
        <time>2013-10-26T09:27:30Z</time>
      </trkpt>
      <trkpt lat="45.50241" lon="4.79234">
        <ele>338</ele>
        <time>2013-10-26T09:27:31Z</time>
      </trkpt>
      <trkpt lat="45.50238" lon="4.79237">
        <ele>338</ele>
        <time>2013-10-26T09:27:32Z</time>
      </trkpt>
      <trkpt lat="45.50234" lon="4.79246">
        <ele>338</ele>
        <time>2013-10-26T09:27:34Z</time>
      </trkpt>
      <trkpt lat="45.5023" lon="4.79247">
        <ele>338</ele>
        <time>2013-10-26T09:27:34Z</time>
      </trkpt>
      <trkpt lat="45.50222" lon="4.79251">
        <ele>334</ele>
        <time>2013-10-26T09:27:39Z</time>
      </trkpt>
      <trkpt lat="45.50219" lon="4.7925">
        <ele>334</ele>
        <time>2013-10-26T09:27:40Z</time>
      </trkpt>
      <trkpt lat="45.50216" lon="4.7926">
        <ele>334</ele>
        <time>2013-10-26T09:27:43Z</time>
      </trkpt>
      <trkpt lat="45.50215" lon="4.79262">
        <ele>334</ele>
        <time>2013-10-26T09:27:44Z</time>
      </trkpt>
      <trkpt lat="45.50208" lon="4.7927">
        <ele>334</ele>
        <time>2013-10-26T09:27:48Z</time>
      </trkpt>
      <trkpt lat="45.50208" lon="4.79272">
        <ele>334</ele>
        <time>2013-10-26T09:27:49Z</time>
      </trkpt>
      <trkpt lat="45.50202" lon="4.79279">
        <ele>334</ele>
        <time>2013-10-26T09:27:54Z</time>
      </trkpt>
      <trkpt lat="45.502" lon="4.79281">
        <ele>334</ele>
        <time>2013-10-26T09:27:55Z</time>
      </trkpt>
      <trkpt lat="45.50194" lon="4.7929">
        <ele>333</ele>
        <time>2013-10-26T09:27:58Z</time>
      </trkpt>
      <trkpt lat="45.50193" lon="4.79293">
        <ele>333</ele>
        <time>2013-10-26T09:27:59Z</time>
      </trkpt>
      <trkpt lat="45.50186" lon="4.79297">
        <ele>333</ele>
        <time>2013-10-26T09:28:03Z</time>
      </trkpt>
      <trkpt lat="45.50184" lon="4.79299">
        <ele>333</ele>
        <time>2013-10-26T09:28:04Z</time>
      </trkpt>
      <trkpt lat="45.50176" lon="4.79303">
        <ele>333</ele>
        <time>2013-10-26T09:28:09Z</time>
      </trkpt>
      <trkpt lat="45.50174" lon="4.79303">
        <ele>333</ele>
        <time>2013-10-26T09:28:10Z</time>
      </trkpt>
      <trkpt lat="45.50166" lon="4.79308">
        <ele>335</ele>
        <time>2013-10-26T09:28:14Z</time>
      </trkpt>
      <trkpt lat="45.50164" lon="4.79307">
        <ele>336</ele>
        <time>2013-10-26T09:28:15Z</time>
      </trkpt>
      <trkpt lat="45.50155" lon="4.79306">
        <ele>336</ele>
        <time>2013-10-26T09:28:22Z</time>
      </trkpt>
      <trkpt lat="45.50152" lon="4.79303">
        <ele>336</ele>
        <time>2013-10-26T09:28:23Z</time>
      </trkpt>
      <trkpt lat="45.50146" lon="4.79296">
        <ele>337</ele>
        <time>2013-10-26T09:28:27Z</time>
      </trkpt>
      <trkpt lat="45.50145" lon="4.79296">
        <ele>337</ele>
        <time>2013-10-26T09:28:28Z</time>
      </trkpt>
      <trkpt lat="45.5014" lon="4.79286">
        <ele>338</ele>
        <time>2013-10-26T09:28:33Z</time>
      </trkpt>
      <trkpt lat="45.50138" lon="4.79284">
        <ele>338</ele>
        <time>2013-10-26T09:28:34Z</time>
      </trkpt>
      <trkpt lat="45.50135" lon="4.79274">
        <ele>339</ele>
        <time>2013-10-26T09:28:38Z</time>
      </trkpt>
      <trkpt lat="45.50133" lon="4.79271">
        <ele>339</ele>
        <time>2013-10-26T09:28:39Z</time>
      </trkpt>
      <trkpt lat="45.50127" lon="4.79263">
        <ele>340</ele>
        <time>2013-10-26T09:28:42Z</time>
      </trkpt>
      <trkpt lat="45.50126" lon="4.79261">
        <ele>340</ele>
        <time>2013-10-26T09:28:43Z</time>
      </trkpt>
      <trkpt lat="45.50123" lon="4.79252">
        <ele>341</ele>
        <time>2013-10-26T09:28:46Z</time>
      </trkpt>
      <trkpt lat="45.50122" lon="4.79249">
        <ele>345</ele>
        <time>2013-10-26T09:28:47Z</time>
      </trkpt>
      <trkpt lat="45.50116" lon="4.79241">
        <ele>346</ele>
        <time>2013-10-26T09:28:50Z</time>
      </trkpt>
      <trkpt lat="45.50114" lon="4.7924">
        <ele>346</ele>
        <time>2013-10-26T09:28:51Z</time>
      </trkpt>
      <trkpt lat="45.50109" lon="4.79232">
        <ele>347</ele>
        <time>2013-10-26T09:28:55Z</time>
      </trkpt>
      <trkpt lat="45.50108" lon="4.79229">
        <ele>347</ele>
        <time>2013-10-26T09:28:56Z</time>
      </trkpt>
      <trkpt lat="45.50102" lon="4.79221">
        <ele>347</ele>
        <time>2013-10-26T09:29:00Z</time>
      </trkpt>
      <trkpt lat="45.50101" lon="4.79219">
        <ele>347</ele>
        <time>2013-10-26T09:29:01Z</time>
      </trkpt>
      <trkpt lat="45.50095" lon="4.79208">
        <ele>348</ele>
        <time>2013-10-26T09:29:06Z</time>
      </trkpt>
      <trkpt lat="45.50094" lon="4.79206">
        <ele>348</ele>
        <time>2013-10-26T09:29:07Z</time>
      </trkpt>
      <trkpt lat="45.50088" lon="4.79197">
        <ele>348</ele>
        <time>2013-10-26T09:29:11Z</time>
      </trkpt>
      <trkpt lat="45.50087" lon="4.79195">
        <ele>348</ele>
        <time>2013-10-26T09:29:12Z</time>
      </trkpt>
      <trkpt lat="45.50083" lon="4.79184">
        <ele>349</ele>
        <time>2013-10-26T09:29:17Z</time>
      </trkpt>
      <trkpt lat="45.50083" lon="4.79182">
        <ele>351</ele>
        <time>2013-10-26T09:29:18Z</time>
      </trkpt>
      <trkpt lat="45.50078" lon="4.79172">
        <ele>352</ele>
        <time>2013-10-26T09:29:22Z</time>
      </trkpt>
      <trkpt lat="45.50077" lon="4.7917">
        <ele>352</ele>
        <time>2013-10-26T09:29:23Z</time>
      </trkpt>
      <trkpt lat="45.50072" lon="4.79161">
        <ele>352</ele>
        <time>2013-10-26T09:29:27Z</time>
      </trkpt>
      <trkpt lat="45.50071" lon="4.79159">
        <ele>352</ele>
        <time>2013-10-26T09:29:28Z</time>
      </trkpt>
      <trkpt lat="45.50066" lon="4.7915">
        <ele>352</ele>
        <time>2013-10-26T09:29:33Z</time>
      </trkpt>
      <trkpt lat="45.50065" lon="4.79149">
        <ele>352</ele>
        <time>2013-10-26T09:29:34Z</time>
      </trkpt>
      <trkpt lat="45.5006" lon="4.79142">
        <ele>352</ele>
        <time>2013-10-26T09:29:39Z</time>
      </trkpt>
      <trkpt lat="45.50057" lon="4.79139">
        <ele>352</ele>
        <time>2013-10-26T09:29:40Z</time>
      </trkpt>
      <trkpt lat="45.50055" lon="4.79129">
        <ele>353</ele>
        <time>2013-10-26T09:29:44Z</time>
      </trkpt>
      <trkpt lat="45.50055" lon="4.79126">
        <ele>353</ele>
        <time>2013-10-26T09:29:45Z</time>
      </trkpt>
      <trkpt lat="45.50049" lon="4.79119">
        <ele>353</ele>
        <time>2013-10-26T09:29:50Z</time>
      </trkpt>
      <trkpt lat="45.50048" lon="4.79117">
        <ele>353</ele>
        <time>2013-10-26T09:29:51Z</time>
      </trkpt>
      <trkpt lat="45.50044" lon="4.79107">
        <ele>353</ele>
        <time>2013-10-26T09:29:54Z</time>
      </trkpt>
      <trkpt lat="45.50043" lon="4.79103">
        <ele>353</ele>
        <time>2013-10-26T09:29:55Z</time>
      </trkpt>
      <trkpt lat="45.50039" lon="4.79094">
        <ele>353</ele>
        <time>2013-10-26T09:29:57Z</time>
      </trkpt>
      <trkpt lat="45.50038" lon="4.79091">
        <ele>353</ele>
        <time>2013-10-26T09:29:58Z</time>
      </trkpt>
      <trkpt lat="45.50035" lon="4.7908">
        <ele>352</ele>
        <time>2013-10-26T09:30:02Z</time>
      </trkpt>
      <trkpt lat="45.50035" lon="4.79076">
        <ele>352</ele>
        <time>2013-10-26T09:30:03Z</time>
      </trkpt>
      <trkpt lat="45.50034" lon="4.7907">
        <ele>352</ele>
        <time>2013-10-26T09:30:04Z</time>
      </trkpt>
      <trkpt lat="45.50032" lon="4.79061">
        <ele>352</ele>
        <time>2013-10-26T09:30:05Z</time>
      </trkpt>
      <trkpt lat="45.50031" lon="4.79048">
        <ele>352</ele>
        <time>2013-10-26T09:30:08Z</time>
      </trkpt>
      <trkpt lat="45.5003" lon="4.79044">
        <ele>352</ele>
        <time>2013-10-26T09:30:09Z</time>
      </trkpt>
      <trkpt lat="45.50026" lon="4.79035">
        <ele>352</ele>
        <time>2013-10-26T09:30:11Z</time>
      </trkpt>
      <trkpt lat="45.50022" lon="4.7903">
        <ele>351</ele>
        <time>2013-10-26T09:30:12Z</time>
      </trkpt>
      <trkpt lat="45.50016" lon="4.79022">
        <ele>351</ele>
        <time>2013-10-26T09:30:14Z</time>
      </trkpt>
      <trkpt lat="45.50011" lon="4.79017">
        <ele>351</ele>
        <time>2013-10-26T09:30:15Z</time>
      </trkpt>
      <trkpt lat="45.50005" lon="4.7901">
        <ele>350</ele>
        <time>2013-10-26T09:30:16Z</time>
      </trkpt>
      <trkpt lat="45.50001" lon="4.79005">
        <ele>350</ele>
        <time>2013-10-26T09:30:17Z</time>
      </trkpt>
      <trkpt lat="45.49993" lon="4.78994">
        <ele>347</ele>
        <time>2013-10-26T09:30:18Z</time>
      </trkpt>
      <trkpt lat="45.49986" lon="4.78979">
        <ele>344</ele>
        <time>2013-10-26T09:30:19Z</time>
      </trkpt>
      <trkpt lat="45.49985" lon="4.78966">
        <ele>343</ele>
        <time>2013-10-26T09:30:20Z</time>
      </trkpt>
      <trkpt lat="45.49991" lon="4.7895">
        <ele>343</ele>
        <time>2013-10-26T09:30:21Z</time>
      </trkpt>
      <trkpt lat="45.49996" lon="4.78941">
        <ele>342</ele>
        <time>2013-10-26T09:30:22Z</time>
      </trkpt>
      <trkpt lat="45.49998" lon="4.78929">
        <ele>342</ele>
        <time>2013-10-26T09:30:23Z</time>
      </trkpt>
      <trkpt lat="45.50002" lon="4.78917">
        <ele>343</ele>
        <time>2013-10-26T09:30:24Z</time>
      </trkpt>
      <trkpt lat="45.50004" lon="4.78903">
        <ele>343</ele>
        <time>2013-10-26T09:30:25Z</time>
      </trkpt>
      <trkpt lat="45.50008" lon="4.78893">
        <ele>343</ele>
        <time>2013-10-26T09:30:26Z</time>
      </trkpt>
      <trkpt lat="45.50013" lon="4.78885">
        <ele>343</ele>
        <time>2013-10-26T09:30:27Z</time>
      </trkpt>
      <trkpt lat="45.50015" lon="4.78877">
        <ele>343</ele>
        <time>2013-10-26T09:30:28Z</time>
      </trkpt>
      <trkpt lat="45.50017" lon="4.78868">
        <ele>342</ele>
        <time>2013-10-26T09:30:29Z</time>
      </trkpt>
      <trkpt lat="45.50018" lon="4.78859">
        <ele>342</ele>
        <time>2013-10-26T09:30:30Z</time>
      </trkpt>
      <trkpt lat="45.50018" lon="4.78847">
        <ele>341</ele>
        <time>2013-10-26T09:30:31Z</time>
      </trkpt>
      <trkpt lat="45.50016" lon="4.78834">
        <ele>340</ele>
        <time>2013-10-26T09:30:32Z</time>
      </trkpt>
      <trkpt lat="45.50015" lon="4.78826">
        <ele>340</ele>
        <time>2013-10-26T09:30:33Z</time>
      </trkpt>
      <trkpt lat="45.50013" lon="4.78816">
        <ele>340</ele>
        <time>2013-10-26T09:30:34Z</time>
      </trkpt>
      <trkpt lat="45.50012" lon="4.78806">
        <ele>341</ele>
        <time>2013-10-26T09:30:35Z</time>
      </trkpt>
      <trkpt lat="45.5001" lon="4.78797">
        <ele>341</ele>
        <time>2013-10-26T09:30:36Z</time>
      </trkpt>
      <trkpt lat="45.50008" lon="4.78787">
        <ele>341</ele>
        <time>2013-10-26T09:30:37Z</time>
      </trkpt>
      <trkpt lat="45.50007" lon="4.7878">
        <ele>341</ele>
        <time>2013-10-26T09:30:38Z</time>
      </trkpt>
      <trkpt lat="45.50007" lon="4.78773">
        <ele>340</ele>
        <time>2013-10-26T09:30:39Z</time>
      </trkpt>
      <trkpt lat="45.50006" lon="4.78766">
        <ele>340</ele>
        <time>2013-10-26T09:30:40Z</time>
      </trkpt>
      <trkpt lat="45.50004" lon="4.78757">
        <ele>339</ele>
        <time>2013-10-26T09:30:41Z</time>
      </trkpt>
      <trkpt lat="45.50002" lon="4.7875">
        <ele>338</ele>
        <time>2013-10-26T09:30:42Z</time>
      </trkpt>
      <trkpt lat="45.50001" lon="4.78741">
        <ele>340</ele>
        <time>2013-10-26T09:30:43Z</time>
      </trkpt>
      <trkpt lat="45.50001" lon="4.78732">
        <ele>340</ele>
        <time>2013-10-26T09:30:44Z</time>
      </trkpt>
      <trkpt lat="45.49999" lon="4.78727">
        <ele>334</ele>
        <time>2013-10-26T09:30:45Z</time>
      </trkpt>
      <trkpt lat="45.49997" lon="4.78721">
        <ele>333</ele>
        <time>2013-10-26T09:30:46Z</time>
      </trkpt>
      <trkpt lat="45.49995" lon="4.78714">
        <ele>333</ele>
        <time>2013-10-26T09:30:47Z</time>
      </trkpt>
      <trkpt lat="45.49994" lon="4.78704">
        <ele>333</ele>
        <time>2013-10-26T09:30:48Z</time>
      </trkpt>
      <trkpt lat="45.49996" lon="4.78696">
        <ele>333</ele>
        <time>2013-10-26T09:30:49Z</time>
      </trkpt>
      <trkpt lat="45.49998" lon="4.78687">
        <ele>333</ele>
        <time>2013-10-26T09:30:50Z</time>
      </trkpt>
      <trkpt lat="45.5" lon="4.78677">
        <ele>339</ele>
        <time>2013-10-26T09:30:51Z</time>
      </trkpt>
      <trkpt lat="45.50003" lon="4.7867">
        <ele>337</ele>
        <time>2013-10-26T09:30:52Z</time>
      </trkpt>
      <trkpt lat="45.50007" lon="4.78664">
        <ele>337</ele>
        <time>2013-10-26T09:30:53Z</time>
      </trkpt>
      <trkpt lat="45.50009" lon="4.78659">
        <ele>338</ele>
        <time>2013-10-26T09:30:54Z</time>
      </trkpt>
      <trkpt lat="45.50014" lon="4.78653">
        <ele>338</ele>
        <time>2013-10-26T09:30:55Z</time>
      </trkpt>
      <trkpt lat="45.50016" lon="4.78646">
        <ele>339</ele>
        <time>2013-10-26T09:30:56Z</time>
      </trkpt>
      <trkpt lat="45.50018" lon="4.7864">
        <ele>339</ele>
        <time>2013-10-26T09:30:57Z</time>
      </trkpt>
      <trkpt lat="45.50021" lon="4.78635">
        <ele>339</ele>
        <time>2013-10-26T09:30:58Z</time>
      </trkpt>
      <trkpt lat="45.50024" lon="4.7863">
        <ele>339</ele>
        <time>2013-10-26T09:30:59Z</time>
      </trkpt>
      <trkpt lat="45.50027" lon="4.78627">
        <ele>339</ele>
        <time>2013-10-26T09:31:00Z</time>
      </trkpt>
      <trkpt lat="45.5003" lon="4.7862">
        <ele>339</ele>
        <time>2013-10-26T09:31:01Z</time>
      </trkpt>
      <trkpt lat="45.50032" lon="4.78614">
        <ele>339</ele>
        <time>2013-10-26T09:31:02Z</time>
      </trkpt>
      <trkpt lat="45.50035" lon="4.78608">
        <ele>339</ele>
        <time>2013-10-26T09:31:03Z</time>
      </trkpt>
      <trkpt lat="45.50039" lon="4.786">
        <ele>339</ele>
        <time>2013-10-26T09:31:04Z</time>
      </trkpt>
      <trkpt lat="45.50043" lon="4.78594">
        <ele>339</ele>
        <time>2013-10-26T09:31:05Z</time>
      </trkpt>
      <trkpt lat="45.50047" lon="4.78586">
        <ele>340</ele>
        <time>2013-10-26T09:31:06Z</time>
      </trkpt>
      <trkpt lat="45.50051" lon="4.78578">
        <ele>335</ele>
        <time>2013-10-26T09:31:07Z</time>
      </trkpt>
      <trkpt lat="45.50055" lon="4.78569">
        <ele>335</ele>
        <time>2013-10-26T09:31:08Z</time>
      </trkpt>
      <trkpt lat="45.5006" lon="4.7856">
        <ele>335</ele>
        <time>2013-10-26T09:31:09Z</time>
      </trkpt>
      <trkpt lat="45.50064" lon="4.78551">
        <ele>334</ele>
        <time>2013-10-26T09:31:10Z</time>
      </trkpt>
      <trkpt lat="45.50068" lon="4.78543">
        <ele>334</ele>
        <time>2013-10-26T09:31:11Z</time>
      </trkpt>
      <trkpt lat="45.50075" lon="4.78534">
        <ele>333</ele>
        <time>2013-10-26T09:31:12Z</time>
      </trkpt>
      <trkpt lat="45.50079" lon="4.78527">
        <ele>333</ele>
        <time>2013-10-26T09:31:13Z</time>
      </trkpt>
      <trkpt lat="45.50085" lon="4.78517">
        <ele>337</ele>
        <time>2013-10-26T09:31:14Z</time>
      </trkpt>
      <trkpt lat="45.50092" lon="4.78507">
        <ele>336</ele>
        <time>2013-10-26T09:31:15Z</time>
      </trkpt>
      <trkpt lat="45.50097" lon="4.78497">
        <ele>333</ele>
        <time>2013-10-26T09:31:16Z</time>
      </trkpt>
      <trkpt lat="45.50103" lon="4.78486">
        <ele>334</ele>
        <time>2013-10-26T09:31:17Z</time>
      </trkpt>
      <trkpt lat="45.50107" lon="4.78476">
        <ele>334</ele>
        <time>2013-10-26T09:31:18Z</time>
      </trkpt>
      <trkpt lat="45.50113" lon="4.78466">
        <ele>334</ele>
        <time>2013-10-26T09:31:19Z</time>
      </trkpt>
      <trkpt lat="45.50119" lon="4.78454">
        <ele>334</ele>
        <time>2013-10-26T09:31:20Z</time>
      </trkpt>
      <trkpt lat="45.50125" lon="4.78444">
        <ele>334</ele>
        <time>2013-10-26T09:31:21Z</time>
      </trkpt>
      <trkpt lat="45.50131" lon="4.78432">
        <ele>334</ele>
        <time>2013-10-26T09:31:22Z</time>
      </trkpt>
      <trkpt lat="45.50138" lon="4.78419">
        <ele>334</ele>
        <time>2013-10-26T09:31:23Z</time>
      </trkpt>
      <trkpt lat="45.50145" lon="4.78405">
        <ele>334</ele>
        <time>2013-10-26T09:31:24Z</time>
      </trkpt>
      <trkpt lat="45.50151" lon="4.78392">
        <ele>334</ele>
        <time>2013-10-26T09:31:25Z</time>
      </trkpt>
      <trkpt lat="45.50158" lon="4.78381">
        <ele>334</ele>
        <time>2013-10-26T09:31:26Z</time>
      </trkpt>
      <trkpt lat="45.50166" lon="4.78371">
        <ele>334</ele>
        <time>2013-10-26T09:31:27Z</time>
      </trkpt>
      <trkpt lat="45.50173" lon="4.7836">
        <ele>333</ele>
        <time>2013-10-26T09:31:28Z</time>
      </trkpt>
      <trkpt lat="45.50182" lon="4.78349">
        <ele>333</ele>
        <time>2013-10-26T09:31:29Z</time>
      </trkpt>
      <trkpt lat="45.50192" lon="4.78338">
        <ele>333</ele>
        <time>2013-10-26T09:31:30Z</time>
      </trkpt>
      <trkpt lat="45.502" lon="4.78328">
        <ele>334</ele>
        <time>2013-10-26T09:31:31Z</time>
      </trkpt>
      <trkpt lat="45.50209" lon="4.78318">
        <ele>334</ele>
        <time>2013-10-26T09:31:32Z</time>
      </trkpt>
      <trkpt lat="45.5022" lon="4.78308">
        <ele>334</ele>
        <time>2013-10-26T09:31:33Z</time>
      </trkpt>
      <trkpt lat="45.50227" lon="4.78299">
        <ele>334</ele>
        <time>2013-10-26T09:31:34Z</time>
      </trkpt>
      <trkpt lat="45.50234" lon="4.7829">
        <ele>334</ele>
        <time>2013-10-26T09:31:35Z</time>
      </trkpt>
      <trkpt lat="45.50243" lon="4.78281">
        <ele>334</ele>
        <time>2013-10-26T09:31:36Z</time>
      </trkpt>
      <trkpt lat="45.50251" lon="4.78275">
        <ele>332</ele>
        <time>2013-10-26T09:31:37Z</time>
      </trkpt>
      <trkpt lat="45.50261" lon="4.78273">
        <ele>333</ele>
        <time>2013-10-26T09:31:38Z</time>
      </trkpt>
      <trkpt lat="45.50269" lon="4.78271">
        <ele>333</ele>
        <time>2013-10-26T09:31:39Z</time>
      </trkpt>
      <trkpt lat="45.50283" lon="4.78278">
        <ele>333</ele>
        <time>2013-10-26T09:31:40Z</time>
      </trkpt>
      <trkpt lat="45.50291" lon="4.78276">
        <ele>333</ele>
        <time>2013-10-26T09:31:41Z</time>
      </trkpt>
      <trkpt lat="45.50297" lon="4.78271">
        <ele>333</ele>
        <time>2013-10-26T09:31:42Z</time>
      </trkpt>
      <trkpt lat="45.50304" lon="4.78263">
        <ele>333</ele>
        <time>2013-10-26T09:31:43Z</time>
      </trkpt>
      <trkpt lat="45.50311" lon="4.78256">
        <ele>333</ele>
        <time>2013-10-26T09:31:44Z</time>
      </trkpt>
      <trkpt lat="45.50314" lon="4.78253">
        <ele>333</ele>
        <time>2013-10-26T09:31:45Z</time>
      </trkpt>
      <trkpt lat="45.50319" lon="4.78249">
        <ele>334</ele>
        <time>2013-10-26T09:31:46Z</time>
      </trkpt>
      <trkpt lat="45.50324" lon="4.78244">
        <ele>334</ele>
        <time>2013-10-26T09:31:47Z</time>
      </trkpt>
      <trkpt lat="45.50329" lon="4.78242">
        <ele>333</ele>
        <time>2013-10-26T09:31:48Z</time>
      </trkpt>
      <trkpt lat="45.5033" lon="4.78238">
        <ele>334</ele>
        <time>2013-10-26T09:31:49Z</time>
      </trkpt>
      <trkpt lat="45.50335" lon="4.78229">
        <ele>335</ele>
        <time>2013-10-26T09:31:50Z</time>
      </trkpt>
      <trkpt lat="45.50343" lon="4.78221">
        <ele>336</ele>
        <time>2013-10-26T09:31:51Z</time>
      </trkpt>
      <trkpt lat="45.50348" lon="4.78216">
        <ele>336</ele>
        <time>2013-10-26T09:31:52Z</time>
      </trkpt>
      <trkpt lat="45.50352" lon="4.78207">
        <ele>336</ele>
        <time>2013-10-26T09:31:53Z</time>
      </trkpt>
      <trkpt lat="45.50357" lon="4.78202">
        <ele>336</ele>
        <time>2013-10-26T09:31:54Z</time>
      </trkpt>
      <trkpt lat="45.5036" lon="4.78198">
        <ele>337</ele>
        <time>2013-10-26T09:31:55Z</time>
      </trkpt>
      <trkpt lat="45.50364" lon="4.78191">
        <ele>337</ele>
        <time>2013-10-26T09:31:56Z</time>
      </trkpt>
      <trkpt lat="45.50369" lon="4.78189">
        <ele>337</ele>
        <time>2013-10-26T09:31:57Z</time>
      </trkpt>
      <trkpt lat="45.50375" lon="4.78181">
        <ele>337</ele>
        <time>2013-10-26T09:32:00Z</time>
      </trkpt>
      <trkpt lat="45.50376" lon="4.78176">
        <ele>337</ele>
        <time>2013-10-26T09:32:01Z</time>
      </trkpt>
      <trkpt lat="45.50381" lon="4.78169">
        <ele>337</ele>
        <time>2013-10-26T09:32:04Z</time>
      </trkpt>
      <trkpt lat="45.50381" lon="4.78164">
        <ele>339</ele>
        <time>2013-10-26T09:32:05Z</time>
      </trkpt>
      <trkpt lat="45.50386" lon="4.78155">
        <ele>339</ele>
        <time>2013-10-26T09:32:10Z</time>
      </trkpt>
      <trkpt lat="45.50387" lon="4.78152">
        <ele>339</ele>
        <time>2013-10-26T09:32:11Z</time>
      </trkpt>
      <trkpt lat="45.50392" lon="4.78146">
        <ele>339</ele>
        <time>2013-10-26T09:32:15Z</time>
      </trkpt>
      <trkpt lat="45.50395" lon="4.78144">
        <ele>339</ele>
        <time>2013-10-26T09:32:16Z</time>
      </trkpt>
      <trkpt lat="45.504" lon="4.78134">
        <ele>339</ele>
        <time>2013-10-26T09:32:20Z</time>
      </trkpt>
      <trkpt lat="45.50402" lon="4.78131">
        <ele>339</ele>
        <time>2013-10-26T09:32:21Z</time>
      </trkpt>
      <trkpt lat="45.50407" lon="4.78122">
        <ele>339</ele>
        <time>2013-10-26T09:32:27Z</time>
      </trkpt>
      <trkpt lat="45.50408" lon="4.7812">
        <ele>339</ele>
        <time>2013-10-26T09:32:28Z</time>
      </trkpt>
      <trkpt lat="45.50417" lon="4.78115">
        <ele>339</ele>
        <time>2013-10-26T09:32:33Z</time>
      </trkpt>
      <trkpt lat="45.50417" lon="4.78115">
        <ele>341</ele>
        <time>2013-10-26T09:32:34Z</time>
      </trkpt>
      <trkpt lat="45.50423" lon="4.78109">
        <ele>341</ele>
        <time>2013-10-26T09:32:39Z</time>
      </trkpt>
      <trkpt lat="45.50424" lon="4.78105">
        <ele>340</ele>
        <time>2013-10-26T09:32:40Z</time>
      </trkpt>
      <trkpt lat="45.50428" lon="4.78097">
        <ele>340</ele>
        <time>2013-10-26T09:32:45Z</time>
      </trkpt>
      <trkpt lat="45.50429" lon="4.78095">
        <ele>340</ele>
        <time>2013-10-26T09:32:46Z</time>
      </trkpt>
      <trkpt lat="45.50436" lon="4.78089">
        <ele>340</ele>
        <time>2013-10-26T09:32:50Z</time>
      </trkpt>
      <trkpt lat="45.50438" lon="4.78088">
        <ele>341</ele>
        <time>2013-10-26T09:32:51Z</time>
      </trkpt>
      <trkpt lat="45.50444" lon="4.78083">
        <ele>341</ele>
        <time>2013-10-26T09:32:53Z</time>
      </trkpt>
      <trkpt lat="45.50446" lon="4.78081">
        <ele>342</ele>
        <time>2013-10-26T09:32:54Z</time>
      </trkpt>
      <trkpt lat="45.50451" lon="4.78071">
        <ele>343</ele>
        <time>2013-10-26T09:32:59Z</time>
      </trkpt>
      <trkpt lat="45.50452" lon="4.78071">
        <ele>343</ele>
        <time>2013-10-26T09:33:00Z</time>
      </trkpt>
      <trkpt lat="45.50461" lon="4.78068">
        <ele>344</ele>
        <time>2013-10-26T09:33:04Z</time>
      </trkpt>
      <trkpt lat="45.50465" lon="4.78069">
        <ele>344</ele>
        <time>2013-10-26T09:33:05Z</time>
      </trkpt>
      <trkpt lat="45.5047" lon="4.7806">
        <ele>344</ele>
        <time>2013-10-26T09:33:09Z</time>
      </trkpt>
      <trkpt lat="45.50471" lon="4.78059">
        <ele>344</ele>
        <time>2013-10-26T09:33:10Z</time>
      </trkpt>
      <trkpt lat="45.50479" lon="4.78053">
        <ele>345</ele>
        <time>2013-10-26T09:33:15Z</time>
      </trkpt>
      <trkpt lat="45.5048" lon="4.78053">
        <ele>345</ele>
        <time>2013-10-26T09:33:16Z</time>
      </trkpt>
      <trkpt lat="45.50489" lon="4.78051">
        <ele>345</ele>
        <time>2013-10-26T09:33:22Z</time>
      </trkpt>
      <trkpt lat="45.5049" lon="4.78049">
        <ele>345</ele>
        <time>2013-10-26T09:33:23Z</time>
      </trkpt>
      <trkpt lat="45.50497" lon="4.78044">
        <ele>345</ele>
        <time>2013-10-26T09:33:28Z</time>
      </trkpt>
      <trkpt lat="45.50499" lon="4.78043">
        <ele>345</ele>
        <time>2013-10-26T09:33:29Z</time>
      </trkpt>
      <trkpt lat="45.50504" lon="4.78033">
        <ele>349</ele>
        <time>2013-10-26T09:33:33Z</time>
      </trkpt>
      <trkpt lat="45.50505" lon="4.78032">
        <ele>349</ele>
        <time>2013-10-26T09:33:34Z</time>
      </trkpt>
      <trkpt lat="45.50511" lon="4.78023">
        <ele>349</ele>
        <time>2013-10-26T09:33:39Z</time>
      </trkpt>
      <trkpt lat="45.50513" lon="4.78022">
        <ele>349</ele>
        <time>2013-10-26T09:33:40Z</time>
      </trkpt>
      <trkpt lat="45.50518" lon="4.78016">
        <ele>349</ele>
        <time>2013-10-26T09:33:43Z</time>
      </trkpt>
      <trkpt lat="45.5052" lon="4.78014">
        <ele>349</ele>
        <time>2013-10-26T09:33:44Z</time>
      </trkpt>
      <trkpt lat="45.50525" lon="4.78006">
        <ele>349</ele>
        <time>2013-10-26T09:33:47Z</time>
      </trkpt>
      <trkpt lat="45.50526" lon="4.78004">
        <ele>349</ele>
        <time>2013-10-26T09:33:48Z</time>
      </trkpt>
      <trkpt lat="45.5053" lon="4.77993">
        <ele>348</ele>
        <time>2013-10-26T09:33:53Z</time>
      </trkpt>
      <trkpt lat="45.50531" lon="4.77992">
        <ele>348</ele>
        <time>2013-10-26T09:33:54Z</time>
      </trkpt>
      <trkpt lat="45.50535" lon="4.77983">
        <ele>349</ele>
        <time>2013-10-26T09:33:58Z</time>
      </trkpt>
      <trkpt lat="45.50538" lon="4.77981">
        <ele>349</ele>
        <time>2013-10-26T09:33:59Z</time>
      </trkpt>
      <trkpt lat="45.50544" lon="4.77973">
        <ele>350</ele>
        <time>2013-10-26T09:34:04Z</time>
      </trkpt>
      <trkpt lat="45.50546" lon="4.77972">
        <ele>350</ele>
        <time>2013-10-26T09:34:05Z</time>
      </trkpt>
      <trkpt lat="45.50551" lon="4.77966">
        <ele>350</ele>
        <time>2013-10-26T09:34:07Z</time>
      </trkpt>
      <trkpt lat="45.50552" lon="4.77962">
        <ele>350</ele>
        <time>2013-10-26T09:34:08Z</time>
      </trkpt>
      <trkpt lat="45.50559" lon="4.77955">
        <ele>350</ele>
        <time>2013-10-26T09:34:11Z</time>
      </trkpt>
      <trkpt lat="45.5056" lon="4.77953">
        <ele>350</ele>
        <time>2013-10-26T09:34:12Z</time>
      </trkpt>
      <trkpt lat="45.50567" lon="4.77949">
        <ele>350</ele>
        <time>2013-10-26T09:34:15Z</time>
      </trkpt>
      <trkpt lat="45.50569" lon="4.77947">
        <ele>350</ele>
        <time>2013-10-26T09:34:16Z</time>
      </trkpt>
      <trkpt lat="45.50575" lon="4.7794">
        <ele>349</ele>
        <time>2013-10-26T09:34:18Z</time>
      </trkpt>
      <trkpt lat="45.50578" lon="4.77938">
        <ele>349</ele>
        <time>2013-10-26T09:34:19Z</time>
      </trkpt>
      <trkpt lat="45.50585" lon="4.77933">
        <ele>352</ele>
        <time>2013-10-26T09:34:21Z</time>
      </trkpt>
      <trkpt lat="45.50587" lon="4.77927">
        <ele>351</ele>
        <time>2013-10-26T09:34:22Z</time>
      </trkpt>
      <trkpt lat="45.50591" lon="4.7792">
        <ele>350</ele>
        <time>2013-10-26T09:34:25Z</time>
      </trkpt>
      <trkpt lat="45.50593" lon="4.77917">
        <ele>351</ele>
        <time>2013-10-26T09:34:26Z</time>
      </trkpt>
      <trkpt lat="45.50598" lon="4.77906">
        <ele>349</ele>
        <time>2013-10-26T09:34:29Z</time>
      </trkpt>
      <trkpt lat="45.506" lon="4.77904">
        <ele>349</ele>
        <time>2013-10-26T09:34:30Z</time>
      </trkpt>
      <trkpt lat="45.50606" lon="4.77895">
        <ele>350</ele>
        <time>2013-10-26T09:34:32Z</time>
      </trkpt>
      <trkpt lat="45.50609" lon="4.77892">
        <ele>350</ele>
        <time>2013-10-26T09:34:33Z</time>
      </trkpt>
      <trkpt lat="45.50617" lon="4.77886">
        <ele>350</ele>
        <time>2013-10-26T09:34:35Z</time>
      </trkpt>
      <trkpt lat="45.50621" lon="4.77882">
        <ele>350</ele>
        <time>2013-10-26T09:34:36Z</time>
      </trkpt>
      <trkpt lat="45.50625" lon="4.77878">
        <ele>350</ele>
        <time>2013-10-26T09:34:37Z</time>
      </trkpt>
      <trkpt lat="45.5063" lon="4.77874">
        <ele>350</ele>
        <time>2013-10-26T09:34:38Z</time>
      </trkpt>
      <trkpt lat="45.50633" lon="4.7787">
        <ele>350</ele>
        <time>2013-10-26T09:34:39Z</time>
      </trkpt>
      <trkpt lat="45.50639" lon="4.77865">
        <ele>350</ele>
        <time>2013-10-26T09:34:40Z</time>
      </trkpt>
      <trkpt lat="45.50643" lon="4.77862">
        <ele>350</ele>
        <time>2013-10-26T09:34:41Z</time>
      </trkpt>
      <trkpt lat="45.50648" lon="4.77859">
        <ele>350</ele>
        <time>2013-10-26T09:34:42Z</time>
      </trkpt>
      <trkpt lat="45.50653" lon="4.77856">
        <ele>349</ele>
        <time>2013-10-26T09:34:43Z</time>
      </trkpt>
      <trkpt lat="45.50658" lon="4.77854">
        <ele>349</ele>
        <time>2013-10-26T09:34:44Z</time>
      </trkpt>
      <trkpt lat="45.50665" lon="4.77852">
        <ele>349</ele>
        <time>2013-10-26T09:34:45Z</time>
      </trkpt>
      <trkpt lat="45.5067" lon="4.77852">
        <ele>349</ele>
        <time>2013-10-26T09:34:46Z</time>
      </trkpt>
      <trkpt lat="45.50677" lon="4.77854">
        <ele>350</ele>
        <time>2013-10-26T09:34:48Z</time>
      </trkpt>
      <trkpt lat="45.5068" lon="4.77855">
        <ele>350</ele>
        <time>2013-10-26T09:34:49Z</time>
      </trkpt>
      <trkpt lat="45.50689" lon="4.77856">
        <ele>350</ele>
        <time>2013-10-26T09:34:55Z</time>
      </trkpt>
      <trkpt lat="45.50691" lon="4.77855">
        <ele>350</ele>
        <time>2013-10-26T09:34:56Z</time>
      </trkpt>
      <trkpt lat="45.50699" lon="4.77854">
        <ele>350</ele>
        <time>2013-10-26T09:34:59Z</time>
      </trkpt>
      <trkpt lat="45.50704" lon="4.77856">
        <ele>350</ele>
        <time>2013-10-26T09:35:00Z</time>
      </trkpt>
      <trkpt lat="45.50711" lon="4.77855">
        <ele>350</ele>
        <time>2013-10-26T09:35:03Z</time>
      </trkpt>
      <trkpt lat="45.50714" lon="4.77852">
        <ele>350</ele>
        <time>2013-10-26T09:35:04Z</time>
      </trkpt>
      <trkpt lat="45.50721" lon="4.77851">
        <ele>350</ele>
        <time>2013-10-26T09:35:07Z</time>
      </trkpt>
      <trkpt lat="45.50725" lon="4.77851">
        <ele>350</ele>
        <time>2013-10-26T09:35:08Z</time>
      </trkpt>
      <trkpt lat="45.50733" lon="4.77851">
        <ele>349</ele>
        <time>2013-10-26T09:35:10Z</time>
      </trkpt>
      <trkpt lat="45.50736" lon="4.77852">
        <ele>349</ele>
        <time>2013-10-26T09:35:11Z</time>
      </trkpt>
      <trkpt lat="45.50743" lon="4.77853">
        <ele>349</ele>
        <time>2013-10-26T09:35:13Z</time>
      </trkpt>
      <trkpt lat="45.50748" lon="4.77855">
        <ele>349</ele>
        <time>2013-10-26T09:35:14Z</time>
      </trkpt>
      <trkpt lat="45.50756" lon="4.77855">
        <ele>353</ele>
        <time>2013-10-26T09:35:16Z</time>
      </trkpt>
      <trkpt lat="45.50758" lon="4.77856">
        <ele>354</ele>
        <time>2013-10-26T09:35:17Z</time>
      </trkpt>
      <trkpt lat="45.50765" lon="4.77855">
        <ele>354</ele>
        <time>2013-10-26T09:35:20Z</time>
      </trkpt>
      <trkpt lat="45.50768" lon="4.77854">
        <ele>354</ele>
        <time>2013-10-26T09:35:21Z</time>
      </trkpt>
      <trkpt lat="45.50776" lon="4.77851">
        <ele>355</ele>
        <time>2013-10-26T09:35:24Z</time>
      </trkpt>
      <trkpt lat="45.50778" lon="4.77851">
        <ele>355</ele>
        <time>2013-10-26T09:35:25Z</time>
      </trkpt>
      <trkpt lat="45.50785" lon="4.77845">
        <ele>356</ele>
        <time>2013-10-26T09:35:29Z</time>
      </trkpt>
      <trkpt lat="45.50788" lon="4.77844">
        <ele>356</ele>
        <time>2013-10-26T09:35:30Z</time>
      </trkpt>
      <trkpt lat="45.50794" lon="4.77839">
        <ele>356</ele>
        <time>2013-10-26T09:35:32Z</time>
      </trkpt>
      <trkpt lat="45.50797" lon="4.77837">
        <ele>357</ele>
        <time>2013-10-26T09:35:33Z</time>
      </trkpt>
      <trkpt lat="45.50804" lon="4.77835">
        <ele>357</ele>
        <time>2013-10-26T09:35:36Z</time>
      </trkpt>
      <trkpt lat="45.50807" lon="4.77835">
        <ele>357</ele>
        <time>2013-10-26T09:35:37Z</time>
      </trkpt>
      <trkpt lat="45.50813" lon="4.77837">
        <ele>358</ele>
        <time>2013-10-26T09:35:39Z</time>
      </trkpt>
      <trkpt lat="45.50817" lon="4.77839">
        <ele>358</ele>
        <time>2013-10-26T09:35:40Z</time>
      </trkpt>
      <trkpt lat="45.50826" lon="4.77838">
        <ele>358</ele>
        <time>2013-10-26T09:35:43Z</time>
      </trkpt>
      <trkpt lat="45.50827" lon="4.77836">
        <ele>358</ele>
        <time>2013-10-26T09:35:44Z</time>
      </trkpt>
      <trkpt lat="45.50833" lon="4.77836">
        <ele>358</ele>
        <time>2013-10-26T09:35:46Z</time>
      </trkpt>
      <trkpt lat="45.50837" lon="4.77835">
        <ele>360</ele>
        <time>2013-10-26T09:35:47Z</time>
      </trkpt>
      <trkpt lat="45.50842" lon="4.77833">
        <ele>359</ele>
        <time>2013-10-26T09:35:49Z</time>
      </trkpt>
      <trkpt lat="45.50846" lon="4.77832">
        <ele>359</ele>
        <time>2013-10-26T09:35:50Z</time>
      </trkpt>
      <trkpt lat="45.50854" lon="4.77832">
        <ele>360</ele>
        <time>2013-10-26T09:35:53Z</time>
      </trkpt>
      <trkpt lat="45.50856" lon="4.7783">
        <ele>360</ele>
        <time>2013-10-26T09:35:54Z</time>
      </trkpt>
      <trkpt lat="45.50863" lon="4.77831">
        <ele>360</ele>
        <time>2013-10-26T09:35:58Z</time>
      </trkpt>
      <trkpt lat="45.50865" lon="4.77832">
        <ele>360</ele>
        <time>2013-10-26T09:35:59Z</time>
      </trkpt>
      <trkpt lat="45.50873" lon="4.7783">
        <ele>361</ele>
        <time>2013-10-26T09:36:02Z</time>
      </trkpt>
      <trkpt lat="45.50877" lon="4.77828">
        <ele>361</ele>
        <time>2013-10-26T09:36:03Z</time>
      </trkpt>
      <trkpt lat="45.50883" lon="4.77825">
        <ele>362</ele>
        <time>2013-10-26T09:36:05Z</time>
      </trkpt>
      <trkpt lat="45.50888" lon="4.77824">
        <ele>362</ele>
        <time>2013-10-26T09:36:06Z</time>
      </trkpt>
      <trkpt lat="45.50895" lon="4.77824">
        <ele>362</ele>
        <time>2013-10-26T09:36:08Z</time>
      </trkpt>
      <trkpt lat="45.50898" lon="4.77823">
        <ele>363</ele>
        <time>2013-10-26T09:36:09Z</time>
      </trkpt>
      <trkpt lat="45.50904" lon="4.77826">
        <ele>363</ele>
        <time>2013-10-26T09:36:11Z</time>
      </trkpt>
      <trkpt lat="45.50907" lon="4.77827">
        <ele>364</ele>
        <time>2013-10-26T09:36:12Z</time>
      </trkpt>
      <trkpt lat="45.50912" lon="4.77823">
        <ele>364</ele>
        <time>2013-10-26T09:36:14Z</time>
      </trkpt>
      <trkpt lat="45.50915" lon="4.77821">
        <ele>364</ele>
        <time>2013-10-26T09:36:15Z</time>
      </trkpt>
      <trkpt lat="45.50922" lon="4.77819">
        <ele>366</ele>
        <time>2013-10-26T09:36:19Z</time>
      </trkpt>
      <trkpt lat="45.50925" lon="4.7782">
        <ele>367</ele>
        <time>2013-10-26T09:36:20Z</time>
      </trkpt>
      <trkpt lat="45.50932" lon="4.77818">
        <ele>367</ele>
        <time>2013-10-26T09:36:22Z</time>
      </trkpt>
      <trkpt lat="45.50934" lon="4.77815">
        <ele>367</ele>
        <time>2013-10-26T09:36:23Z</time>
      </trkpt>
      <trkpt lat="45.50941" lon="4.7781">
        <ele>367</ele>
        <time>2013-10-26T09:36:25Z</time>
      </trkpt>
      <trkpt lat="45.50944" lon="4.77808">
        <ele>367</ele>
        <time>2013-10-26T09:36:26Z</time>
      </trkpt>
      <trkpt lat="45.5095" lon="4.77801">
        <ele>367</ele>
        <time>2013-10-26T09:36:29Z</time>
      </trkpt>
      <trkpt lat="45.50952" lon="4.778">
        <ele>367</ele>
        <time>2013-10-26T09:36:30Z</time>
      </trkpt>
      <trkpt lat="45.50961" lon="4.77798">
        <ele>368</ele>
        <time>2013-10-26T09:36:34Z</time>
      </trkpt>
      <trkpt lat="45.50963" lon="4.77797">
        <ele>368</ele>
        <time>2013-10-26T09:36:35Z</time>
      </trkpt>
      <trkpt lat="45.50969" lon="4.7779">
        <ele>367</ele>
        <time>2013-10-26T09:36:39Z</time>
      </trkpt>
      <trkpt lat="45.50971" lon="4.77789">
        <ele>367</ele>
        <time>2013-10-26T09:36:40Z</time>
      </trkpt>
      <trkpt lat="45.50976" lon="4.77783">
        <ele>367</ele>
        <time>2013-10-26T09:36:42Z</time>
      </trkpt>
      <trkpt lat="45.50979" lon="4.77782">
        <ele>367</ele>
        <time>2013-10-26T09:36:43Z</time>
      </trkpt>
      <trkpt lat="45.50988" lon="4.77782">
        <ele>367</ele>
        <time>2013-10-26T09:36:47Z</time>
      </trkpt>
      <trkpt lat="45.50991" lon="4.77783">
        <ele>367</ele>
        <time>2013-10-26T09:36:48Z</time>
      </trkpt>
      <trkpt lat="45.50998" lon="4.77781">
        <ele>367</ele>
        <time>2013-10-26T09:36:51Z</time>
      </trkpt>
      <trkpt lat="45.51001" lon="4.77781">
        <ele>371</ele>
        <time>2013-10-26T09:36:52Z</time>
      </trkpt>
      <trkpt lat="45.51006" lon="4.7778">
        <ele>372</ele>
        <time>2013-10-26T09:36:54Z</time>
      </trkpt>
      <trkpt lat="45.5101" lon="4.7778">
        <ele>372</ele>
        <time>2013-10-26T09:36:55Z</time>
      </trkpt>
      <trkpt lat="45.51019" lon="4.77783">
        <ele>372</ele>
        <time>2013-10-26T09:36:57Z</time>
      </trkpt>
      <trkpt lat="45.5102" lon="4.77782">
        <ele>372</ele>
        <time>2013-10-26T09:36:58Z</time>
      </trkpt>
      <trkpt lat="45.51029" lon="4.77782">
        <ele>373</ele>
        <time>2013-10-26T09:37:04Z</time>
      </trkpt>
      <trkpt lat="45.51031" lon="4.77782">
        <ele>373</ele>
        <time>2013-10-26T09:37:05Z</time>
      </trkpt>
      <trkpt lat="45.5104" lon="4.77781">
        <ele>373</ele>
        <time>2013-10-26T09:37:08Z</time>
      </trkpt>
      <trkpt lat="45.51043" lon="4.7778">
        <ele>373</ele>
        <time>2013-10-26T09:37:09Z</time>
      </trkpt>
      <trkpt lat="45.5105" lon="4.77777">
        <ele>373</ele>
        <time>2013-10-26T09:37:12Z</time>
      </trkpt>
      <trkpt lat="45.51052" lon="4.77775">
        <ele>373</ele>
        <time>2013-10-26T09:37:13Z</time>
      </trkpt>
      <trkpt lat="45.5106" lon="4.77774">
        <ele>373</ele>
        <time>2013-10-26T09:37:16Z</time>
      </trkpt>
      <trkpt lat="45.51062" lon="4.77772">
        <ele>373</ele>
        <time>2013-10-26T09:37:17Z</time>
      </trkpt>
      <trkpt lat="45.51069" lon="4.77771">
        <ele>373</ele>
        <time>2013-10-26T09:37:20Z</time>
      </trkpt>
      <trkpt lat="45.51072" lon="4.77771">
        <ele>373</ele>
        <time>2013-10-26T09:37:21Z</time>
      </trkpt>
      <trkpt lat="45.5108" lon="4.77773">
        <ele>373</ele>
        <time>2013-10-26T09:37:24Z</time>
      </trkpt>
      <trkpt lat="45.51082" lon="4.77773">
        <ele>373</ele>
        <time>2013-10-26T09:37:25Z</time>
      </trkpt>
      <trkpt lat="45.51088" lon="4.77772">
        <ele>377</ele>
        <time>2013-10-26T09:37:29Z</time>
      </trkpt>
      <trkpt lat="45.51091" lon="4.77772">
        <ele>378</ele>
        <time>2013-10-26T09:37:30Z</time>
      </trkpt>
      <trkpt lat="45.51097" lon="4.77764">
        <ele>377</ele>
        <time>2013-10-26T09:37:33Z</time>
      </trkpt>
      <trkpt lat="45.51099" lon="4.77762">
        <ele>377</ele>
        <time>2013-10-26T09:37:34Z</time>
      </trkpt>
      <trkpt lat="45.51107" lon="4.77762">
        <ele>378</ele>
        <time>2013-10-26T09:37:36Z</time>
      </trkpt>
      <trkpt lat="45.5111" lon="4.7776">
        <ele>378</ele>
        <time>2013-10-26T09:37:37Z</time>
      </trkpt>
      <trkpt lat="45.51117" lon="4.77758">
        <ele>379</ele>
        <time>2013-10-26T09:37:39Z</time>
      </trkpt>
      <trkpt lat="45.5112" lon="4.77755">
        <ele>379</ele>
        <time>2013-10-26T09:37:40Z</time>
      </trkpt>
      <trkpt lat="45.51127" lon="4.77748">
        <ele>374</ele>
        <time>2013-10-26T09:37:43Z</time>
      </trkpt>
      <trkpt lat="45.51128" lon="4.77746">
        <ele>374</ele>
        <time>2013-10-26T09:37:44Z</time>
      </trkpt>
      <trkpt lat="45.51135" lon="4.77742">
        <ele>374</ele>
        <time>2013-10-26T09:37:46Z</time>
      </trkpt>
      <trkpt lat="45.51139" lon="4.77744">
        <ele>375</ele>
        <time>2013-10-26T09:37:47Z</time>
      </trkpt>
      <trkpt lat="45.51146" lon="4.77738">
        <ele>375</ele>
        <time>2013-10-26T09:37:50Z</time>
      </trkpt>
      <trkpt lat="45.51148" lon="4.77738">
        <ele>375</ele>
        <time>2013-10-26T09:37:51Z</time>
      </trkpt>
      <trkpt lat="45.5115" lon="4.77728">
        <ele>375</ele>
        <time>2013-10-26T09:37:54Z</time>
      </trkpt>
      <trkpt lat="45.51153" lon="4.77727">
        <ele>375</ele>
        <time>2013-10-26T09:37:55Z</time>
      </trkpt>
      <trkpt lat="45.51158" lon="4.77723">
        <ele>375</ele>
        <time>2013-10-26T09:37:57Z</time>
      </trkpt>
      <trkpt lat="45.51161" lon="4.7772">
        <ele>375</ele>
        <time>2013-10-26T09:37:58Z</time>
      </trkpt>
      <trkpt lat="45.51169" lon="4.77718">
        <ele>379</ele>
        <time>2013-10-26T09:38:01Z</time>
      </trkpt>
      <trkpt lat="45.51173" lon="4.77717">
        <ele>379</ele>
        <time>2013-10-26T09:38:02Z</time>
      </trkpt>
      <trkpt lat="45.51178" lon="4.77709">
        <ele>378</ele>
        <time>2013-10-26T09:38:05Z</time>
      </trkpt>
      <trkpt lat="45.5118" lon="4.77707">
        <ele>378</ele>
        <time>2013-10-26T09:38:06Z</time>
      </trkpt>
      <trkpt lat="45.51187" lon="4.77706">
        <ele>378</ele>
        <time>2013-10-26T09:38:10Z</time>
      </trkpt>
      <trkpt lat="45.5119" lon="4.77706">
        <ele>378</ele>
        <time>2013-10-26T09:38:11Z</time>
      </trkpt>
      <trkpt lat="45.51198" lon="4.77706">
        <ele>379</ele>
        <time>2013-10-26T09:38:16Z</time>
      </trkpt>
      <trkpt lat="45.51199" lon="4.77703">
        <ele>379</ele>
        <time>2013-10-26T09:38:17Z</time>
      </trkpt>
      <trkpt lat="45.51205" lon="4.77701">
        <ele>379</ele>
        <time>2013-10-26T09:38:21Z</time>
      </trkpt>
      <trkpt lat="45.51208" lon="4.77702">
        <ele>379</ele>
        <time>2013-10-26T09:38:22Z</time>
      </trkpt>
      <trkpt lat="45.51214" lon="4.77702">
        <ele>379</ele>
        <time>2013-10-26T09:38:25Z</time>
      </trkpt>
      <trkpt lat="45.51218" lon="4.77703">
        <ele>379</ele>
        <time>2013-10-26T09:38:26Z</time>
      </trkpt>
      <trkpt lat="45.51223" lon="4.77702">
        <ele>379</ele>
        <time>2013-10-26T09:38:28Z</time>
      </trkpt>
      <trkpt lat="45.51228" lon="4.77703">
        <ele>380</ele>
        <time>2013-10-26T09:38:29Z</time>
      </trkpt>
      <trkpt lat="45.51234" lon="4.77701">
        <ele>380</ele>
        <time>2013-10-26T09:38:31Z</time>
      </trkpt>
      <trkpt lat="45.51238" lon="4.77701">
        <ele>380</ele>
        <time>2013-10-26T09:38:32Z</time>
      </trkpt>
      <trkpt lat="45.51247" lon="4.77701">
        <ele>380</ele>
        <time>2013-10-26T09:38:35Z</time>
      </trkpt>
      <trkpt lat="45.5125" lon="4.77702">
        <ele>380</ele>
        <time>2013-10-26T09:38:36Z</time>
      </trkpt>
      <trkpt lat="45.51259" lon="4.77701">
        <ele>382</ele>
        <time>2013-10-26T09:38:40Z</time>
      </trkpt>
      <trkpt lat="45.51262" lon="4.77701">
        <ele>382</ele>
        <time>2013-10-26T09:38:41Z</time>
      </trkpt>
      <trkpt lat="45.5127" lon="4.77697">
        <ele>381</ele>
        <time>2013-10-26T09:38:44Z</time>
      </trkpt>
      <trkpt lat="45.51273" lon="4.77696">
        <ele>381</ele>
        <time>2013-10-26T09:38:45Z</time>
      </trkpt>
      <trkpt lat="45.51281" lon="4.77693">
        <ele>381</ele>
        <time>2013-10-26T09:38:48Z</time>
      </trkpt>
      <trkpt lat="45.51283" lon="4.77695">
        <ele>382</ele>
        <time>2013-10-26T09:38:49Z</time>
      </trkpt>
      <trkpt lat="45.51292" lon="4.77696">
        <ele>382</ele>
        <time>2013-10-26T09:38:54Z</time>
      </trkpt>
      <trkpt lat="45.51295" lon="4.77697">
        <ele>382</ele>
        <time>2013-10-26T09:38:55Z</time>
      </trkpt>
      <trkpt lat="45.51302" lon="4.77689">
        <ele>381</ele>
        <time>2013-10-26T09:39:02Z</time>
      </trkpt>
      <trkpt lat="45.51303" lon="4.77688">
        <ele>381</ele>
        <time>2013-10-26T09:39:03Z</time>
      </trkpt>
      <trkpt lat="45.5131" lon="4.77689">
        <ele>381</ele>
        <time>2013-10-26T09:39:09Z</time>
      </trkpt>
      <trkpt lat="45.51312" lon="4.77689">
        <ele>381</ele>
        <time>2013-10-26T09:39:10Z</time>
      </trkpt>
      <trkpt lat="45.5132" lon="4.77685">
        <ele>381</ele>
        <time>2013-10-26T09:39:20Z</time>
      </trkpt>
      <trkpt lat="45.51321" lon="4.77683">
        <ele>381</ele>
        <time>2013-10-26T09:39:21Z</time>
      </trkpt>
      <trkpt lat="45.51324" lon="4.77673">
        <ele>380</ele>
        <time>2013-10-26T09:39:31Z</time>
      </trkpt>
      <trkpt lat="45.51325" lon="4.77672">
        <ele>380</ele>
        <time>2013-10-26T09:39:32Z</time>
      </trkpt>
      <trkpt lat="45.51334" lon="4.77671">
        <ele>380</ele>
        <time>2013-10-26T09:39:40Z</time>
      </trkpt>
      <trkpt lat="45.51335" lon="4.77672">
        <ele>380</ele>
        <time>2013-10-26T09:39:41Z</time>
      </trkpt>
      <trkpt lat="45.51343" lon="4.77669">
        <ele>381</ele>
        <time>2013-10-26T09:39:50Z</time>
      </trkpt>
      <trkpt lat="45.51344" lon="4.77668">
        <ele>381</ele>
        <time>2013-10-26T09:39:51Z</time>
      </trkpt>
      <trkpt lat="45.51351" lon="4.77663">
        <ele>382</ele>
        <time>2013-10-26T09:39:54Z</time>
      </trkpt>
      <trkpt lat="45.51356" lon="4.77661">
        <ele>383</ele>
        <time>2013-10-26T09:39:55Z</time>
      </trkpt>
      <trkpt lat="45.51361" lon="4.77657">
        <ele>384</ele>
        <time>2013-10-26T09:40:03Z</time>
      </trkpt>
      <trkpt lat="45.51366" lon="4.77657">
        <ele>384</ele>
        <time>2013-10-26T09:40:04Z</time>
      </trkpt>
      <trkpt lat="45.51369" lon="4.77667">
        <ele>383</ele>
        <time>2013-10-26T09:40:16Z</time>
      </trkpt>
      <trkpt lat="45.51372" lon="4.77669">
        <ele>383</ele>
        <time>2013-10-26T09:40:17Z</time>
      </trkpt>
      <trkpt lat="45.51364" lon="4.77664">
        <ele>384</ele>
        <time>2013-10-26T09:40:34Z</time>
      </trkpt>
      <trkpt lat="45.51362" lon="4.77664">
        <ele>384</ele>
        <time>2013-10-26T09:40:35Z</time>
      </trkpt>
      <trkpt lat="45.51368" lon="4.77654">
        <ele>384</ele>
        <time>2013-10-26T09:40:47Z</time>
      </trkpt>
      <trkpt lat="45.51367" lon="4.77652">
        <ele>384</ele>
        <time>2013-10-26T09:40:48Z</time>
      </trkpt>
      <trkpt lat="45.51375" lon="4.77649">
        <ele>385</ele>
        <time>2013-10-26T09:40:53Z</time>
      </trkpt>
      <trkpt lat="45.51376" lon="4.77648">
        <ele>385</ele>
        <time>2013-10-26T09:40:54Z</time>
      </trkpt>
      <trkpt lat="45.51382" lon="4.77638">
        <ele>385</ele>
        <time>2013-10-26T09:41:01Z</time>
      </trkpt>
      <trkpt lat="45.51382" lon="4.77636">
        <ele>385</ele>
        <time>2013-10-26T09:41:02Z</time>
      </trkpt>
      <trkpt lat="45.51389" lon="4.77632">
        <ele>385</ele>
        <time>2013-10-26T09:41:07Z</time>
      </trkpt>
      <trkpt lat="45.5139" lon="4.77632">
        <ele>385</ele>
        <time>2013-10-26T09:41:08Z</time>
      </trkpt>
      <trkpt lat="45.51396" lon="4.77627">
        <ele>386</ele>
        <time>2013-10-26T09:41:12Z</time>
      </trkpt>
      <trkpt lat="45.51399" lon="4.77627">
        <ele>386</ele>
        <time>2013-10-26T09:41:13Z</time>
      </trkpt>
      <trkpt lat="45.51407" lon="4.77621">
        <ele>386</ele>
        <time>2013-10-26T09:41:19Z</time>
      </trkpt>
      <trkpt lat="45.51408" lon="4.77621">
        <ele>386</ele>
        <time>2013-10-26T09:41:20Z</time>
      </trkpt>
      <trkpt lat="45.51415" lon="4.77614">
        <ele>386</ele>
        <time>2013-10-26T09:41:28Z</time>
      </trkpt>
      <trkpt lat="45.51416" lon="4.77615">
        <ele>386</ele>
        <time>2013-10-26T09:41:29Z</time>
      </trkpt>
      <trkpt lat="45.51421" lon="4.77609">
        <ele>388</ele>
        <time>2013-10-26T09:41:36Z</time>
      </trkpt>
      <trkpt lat="45.51424" lon="4.77608">
        <ele>388</ele>
        <time>2013-10-26T09:41:37Z</time>
      </trkpt>
      <trkpt lat="45.51432" lon="4.77611">
        <ele>388</ele>
        <time>2013-10-26T09:41:42Z</time>
      </trkpt>
      <trkpt lat="45.51436" lon="4.77613">
        <ele>388</ele>
        <time>2013-10-26T09:41:43Z</time>
      </trkpt>
      <trkpt lat="45.51444" lon="4.77613">
        <ele>389</ele>
        <time>2013-10-26T09:41:51Z</time>
      </trkpt>
      <trkpt lat="45.51447" lon="4.77615">
        <ele>389</ele>
        <time>2013-10-26T09:41:52Z</time>
      </trkpt>
      <trkpt lat="45.51452" lon="4.77608">
        <ele>389</ele>
        <time>2013-10-26T09:42:05Z</time>
      </trkpt>
      <trkpt lat="45.51453" lon="4.77608">
        <ele>389</ele>
        <time>2013-10-26T09:42:06Z</time>
      </trkpt>
      <trkpt lat="45.51452" lon="4.77608">
        <ele>389</ele>
        <time>2013-10-26T09:42:07Z</time>
      </trkpt>
      <trkpt lat="45.51454" lon="4.77607">
        <ele>389</ele>
        <time>2013-10-26T09:42:14Z</time>
      </trkpt>
      <trkpt lat="45.51454" lon="4.77607">
        <ele>389</ele>
        <time>2013-10-26T09:42:15Z</time>
      </trkpt>
      <trkpt lat="45.51454" lon="4.77607">
        <ele>389</ele>
        <time>2013-10-26T09:42:17Z</time>
      </trkpt>
      <trkpt lat="45.51454" lon="4.77607">
        <ele>389</ele>
        <time>2013-10-26T09:42:18Z</time>
      </trkpt>
      <trkpt lat="45.51454" lon="4.77607">
        <ele>389</ele>
        <time>2013-10-26T09:42:19Z</time>
      </trkpt>
      <trkpt lat="45.51454" lon="4.77607">
        <ele>389</ele>
        <time>2013-10-26T09:42:20Z</time>
      </trkpt>
      <trkpt lat="45.51454" lon="4.77607">
        <ele>389</ele>
        <time>2013-10-26T09:42:21Z</time>
      </trkpt>
      <trkpt lat="45.51454" lon="4.77607">
        <ele>389</ele>
        <time>2013-10-26T09:42:22Z</time>
      </trkpt>
      <trkpt lat="45.51454" lon="4.77607">
        <ele>389</ele>
        <time>2013-10-26T09:42:23Z</time>
      </trkpt>
      <trkpt lat="45.51454" lon="4.77607">
        <ele>389</ele>
        <time>2013-10-26T09:42:38Z</time>
      </trkpt>
      <trkpt lat="45.51455" lon="4.77607">
        <ele>389</ele>
        <time>2013-10-26T09:42:39Z</time>
      </trkpt>
      <trkpt lat="45.51461" lon="4.77604">
        <ele>389</ele>
        <time>2013-10-26T09:42:41Z</time>
      </trkpt>
      <trkpt lat="45.51464" lon="4.77603">
        <ele>389</ele>
        <time>2013-10-26T09:42:42Z</time>
      </trkpt>
      <trkpt lat="45.51471" lon="4.77599">
        <ele>390</ele>
        <time>2013-10-26T09:42:47Z</time>
      </trkpt>
      <trkpt lat="45.51473" lon="4.77596">
        <ele>390</ele>
        <time>2013-10-26T09:42:48Z</time>
      </trkpt>
      <trkpt lat="45.51481" lon="4.77595">
        <ele>390</ele>
        <time>2013-10-26T09:42:52Z</time>
      </trkpt>
      <trkpt lat="45.51482" lon="4.77594">
        <ele>390</ele>
        <time>2013-10-26T09:42:53Z</time>
      </trkpt>
      <trkpt lat="45.5149" lon="4.77587">
        <ele>391</ele>
        <time>2013-10-26T09:43:03Z</time>
      </trkpt>
      <trkpt lat="45.51491" lon="4.77585">
        <ele>391</ele>
        <time>2013-10-26T09:43:04Z</time>
      </trkpt>
      <trkpt lat="45.51499" lon="4.77582">
        <ele>392</ele>
        <time>2013-10-26T09:43:07Z</time>
      </trkpt>
      <trkpt lat="45.515" lon="4.77582">
        <ele>392</ele>
        <time>2013-10-26T09:43:08Z</time>
      </trkpt>
      <trkpt lat="45.51508" lon="4.77583">
        <ele>395</ele>
        <time>2013-10-26T09:43:12Z</time>
      </trkpt>
      <trkpt lat="45.51509" lon="4.77584">
        <ele>393</ele>
        <time>2013-10-26T09:43:13Z</time>
      </trkpt>
      <trkpt lat="45.51517" lon="4.7758">
        <ele>397</ele>
        <time>2013-10-26T09:43:18Z</time>
      </trkpt>
      <trkpt lat="45.5152" lon="4.77579">
        <ele>397</ele>
        <time>2013-10-26T09:43:19Z</time>
      </trkpt>
      <trkpt lat="45.51526" lon="4.77576">
        <ele>398</ele>
        <time>2013-10-26T09:43:23Z</time>
      </trkpt>
      <trkpt lat="45.51528" lon="4.77576">
        <ele>398</ele>
        <time>2013-10-26T09:43:24Z</time>
      </trkpt>
      <trkpt lat="45.51537" lon="4.77574">
        <ele>399</ele>
        <time>2013-10-26T09:43:31Z</time>
      </trkpt>
      <trkpt lat="45.51537" lon="4.77573">
        <ele>399</ele>
        <time>2013-10-26T09:43:32Z</time>
      </trkpt>
      <trkpt lat="45.51545" lon="4.77571">
        <ele>399</ele>
        <time>2013-10-26T09:43:36Z</time>
      </trkpt>
      <trkpt lat="45.51545" lon="4.77571">
        <ele>399</ele>
        <time>2013-10-26T09:43:37Z</time>
      </trkpt>
      <trkpt lat="45.51547" lon="4.77572">
        <ele>399</ele>
        <time>2013-10-26T09:43:38Z</time>
      </trkpt>
      <trkpt lat="45.51553" lon="4.77571">
        <ele>399</ele>
        <time>2013-10-26T09:43:57Z</time>
      </trkpt>
      <trkpt lat="45.51553" lon="4.77571">
        <ele>399</ele>
        <time>2013-10-26T09:43:58Z</time>
      </trkpt>
      <trkpt lat="45.51553" lon="4.77571">
        <ele>399</ele>
        <time>2013-10-26T09:44:01Z</time>
      </trkpt>
      <trkpt lat="45.51553" lon="4.77572">
        <ele>399</ele>
        <time>2013-10-26T09:44:02Z</time>
      </trkpt>
      <trkpt lat="45.51553" lon="4.77572">
        <ele>399</ele>
        <time>2013-10-26T09:44:03Z</time>
      </trkpt>
      <trkpt lat="45.51553" lon="4.77572">
        <ele>399</ele>
        <time>2013-10-26T09:46:19Z</time>
      </trkpt>
      <trkpt lat="45.51553" lon="4.77572">
        <ele>399</ele>
        <time>2013-10-26T09:46:20Z</time>
      </trkpt>
      <trkpt lat="45.51554" lon="4.77562">
        <ele>400</ele>
        <time>2013-10-26T09:46:22Z</time>
      </trkpt>
      <trkpt lat="45.51552" lon="4.77556">
        <ele>401</ele>
        <time>2013-10-26T09:46:23Z</time>
      </trkpt>
      <trkpt lat="45.51549" lon="4.77545">
        <ele>402</ele>
        <time>2013-10-26T09:46:27Z</time>
      </trkpt>
      <trkpt lat="45.51547" lon="4.77543">
        <ele>402</ele>
        <time>2013-10-26T09:46:28Z</time>
      </trkpt>
      <trkpt lat="45.5154" lon="4.77536">
        <ele>403</ele>
        <time>2013-10-26T09:46:34Z</time>
      </trkpt>
      <trkpt lat="45.51537" lon="4.77534">
        <ele>403</ele>
        <time>2013-10-26T09:46:35Z</time>
      </trkpt>
      <trkpt lat="45.51531" lon="4.77531">
        <ele>403</ele>
        <time>2013-10-26T09:46:36Z</time>
      </trkpt>
      <trkpt lat="45.51528" lon="4.77529">
        <ele>403</ele>
        <time>2013-10-26T09:46:37Z</time>
      </trkpt>
      <trkpt lat="45.51523" lon="4.7752">
        <ele>404</ele>
        <time>2013-10-26T09:46:41Z</time>
      </trkpt>
      <trkpt lat="45.51521" lon="4.77519">
        <ele>404</ele>
        <time>2013-10-26T09:46:42Z</time>
      </trkpt>
      <trkpt lat="45.51516" lon="4.77512">
        <ele>405</ele>
        <time>2013-10-26T09:46:48Z</time>
      </trkpt>
      <trkpt lat="45.51515" lon="4.77509">
        <ele>406</ele>
        <time>2013-10-26T09:46:49Z</time>
      </trkpt>
      <trkpt lat="45.51507" lon="4.77504">
        <ele>407</ele>
        <time>2013-10-26T09:46:53Z</time>
      </trkpt>
      <trkpt lat="45.51505" lon="4.77503">
        <ele>408</ele>
        <time>2013-10-26T09:46:54Z</time>
      </trkpt>
      <trkpt lat="45.51499" lon="4.77496">
        <ele>410</ele>
        <time>2013-10-26T09:46:57Z</time>
      </trkpt>
      <trkpt lat="45.51498" lon="4.77495">
        <ele>410</ele>
        <time>2013-10-26T09:46:58Z</time>
      </trkpt>
      <trkpt lat="45.51489" lon="4.77493">
        <ele>411</ele>
        <time>2013-10-26T09:47:11Z</time>
      </trkpt>
      <trkpt lat="45.51489" lon="4.77493">
        <ele>411</ele>
        <time>2013-10-26T09:47:12Z</time>
      </trkpt>
      <trkpt lat="45.51489" lon="4.77493">
        <ele>411</ele>
        <time>2013-10-26T09:47:13Z</time>
      </trkpt>
      <trkpt lat="45.51489" lon="4.77493">
        <ele>411</ele>
        <time>2013-10-26T09:47:14Z</time>
      </trkpt>
      <trkpt lat="45.51489" lon="4.77492">
        <ele>411</ele>
        <time>2013-10-26T09:47:15Z</time>
      </trkpt>
      <trkpt lat="45.51489" lon="4.77492">
        <ele>411</ele>
        <time>2013-10-26T09:47:16Z</time>
      </trkpt>
      <trkpt lat="45.51489" lon="4.77492">
        <ele>411</ele>
        <time>2013-10-26T09:47:17Z</time>
      </trkpt>
      <trkpt lat="45.5149" lon="4.77488">
        <ele>411</ele>
        <time>2013-10-26T09:47:24Z</time>
      </trkpt>
      <trkpt lat="45.51489" lon="4.77485">
        <ele>411</ele>
        <time>2013-10-26T09:47:25Z</time>
      </trkpt>
      <trkpt lat="45.51493" lon="4.77478">
        <ele>412</ele>
        <time>2013-10-26T09:47:30Z</time>
      </trkpt>
      <trkpt lat="45.51495" lon="4.77475">
        <ele>412</ele>
        <time>2013-10-26T09:47:31Z</time>
      </trkpt>
      <trkpt lat="45.51499" lon="4.77465">
        <ele>413</ele>
        <time>2013-10-26T09:47:37Z</time>
      </trkpt>
      <trkpt lat="45.515" lon="4.77463">
        <ele>413</ele>
        <time>2013-10-26T09:47:38Z</time>
      </trkpt>
      <trkpt lat="45.51498" lon="4.7746">
        <ele>414</ele>
        <time>2013-10-26T09:47:44Z</time>
      </trkpt>
      <trkpt lat="45.51498" lon="4.7746">
        <ele>414</ele>
        <time>2013-10-26T09:47:45Z</time>
      </trkpt>
      <trkpt lat="45.51498" lon="4.7746">
        <ele>414</ele>
        <time>2013-10-26T09:47:50Z</time>
      </trkpt>
      <trkpt lat="45.51498" lon="4.7746">
        <ele>414</ele>
        <time>2013-10-26T09:47:51Z</time>
      </trkpt>
      <trkpt lat="45.51498" lon="4.7746">
        <ele>414</ele>
        <time>2013-10-26T09:47:52Z</time>
      </trkpt>
      <trkpt lat="45.51498" lon="4.7746">
        <ele>414</ele>
        <time>2013-10-26T09:47:55Z</time>
      </trkpt>
      <trkpt lat="45.51498" lon="4.77459">
        <ele>414</ele>
        <time>2013-10-26T09:47:56Z</time>
      </trkpt>
      <trkpt lat="45.51495" lon="4.7745">
        <ele>415</ele>
        <time>2013-10-26T09:47:58Z</time>
      </trkpt>
      <trkpt lat="45.51494" lon="4.77446">
        <ele>415</ele>
        <time>2013-10-26T09:47:59Z</time>
      </trkpt>
      <trkpt lat="45.5149" lon="4.77437">
        <ele>417</ele>
        <time>2013-10-26T09:48:02Z</time>
      </trkpt>
      <trkpt lat="45.51488" lon="4.77435">
        <ele>417</ele>
        <time>2013-10-26T09:48:03Z</time>
      </trkpt>
      <trkpt lat="45.51484" lon="4.77426">
        <ele>417</ele>
        <time>2013-10-26T09:48:08Z</time>
      </trkpt>
      <trkpt lat="45.51483" lon="4.77423">
        <ele>417</ele>
        <time>2013-10-26T09:48:09Z</time>
      </trkpt>
      <trkpt lat="45.51482" lon="4.77415">
        <ele>423</ele>
        <time>2013-10-26T09:48:15Z</time>
      </trkpt>
      <trkpt lat="45.51482" lon="4.77415">
        <ele>423</ele>
        <time>2013-10-26T09:48:16Z</time>
      </trkpt>
      <trkpt lat="45.51482" lon="4.77416">
        <ele>423</ele>
        <time>2013-10-26T09:48:17Z</time>
      </trkpt>
      <trkpt lat="45.51483" lon="4.77416">
        <ele>423</ele>
        <time>2013-10-26T09:48:19Z</time>
      </trkpt>
      <trkpt lat="45.51483" lon="4.77416">
        <ele>423</ele>
        <time>2013-10-26T09:48:20Z</time>
      </trkpt>
      <trkpt lat="45.51483" lon="4.77416">
        <ele>423</ele>
        <time>2013-10-26T09:48:21Z</time>
      </trkpt>
      <trkpt lat="45.51483" lon="4.77417">
        <ele>418</ele>
        <time>2013-10-26T09:48:22Z</time>
      </trkpt>
      <trkpt lat="45.51484" lon="4.77418">
        <ele>418</ele>
        <time>2013-10-26T09:48:28Z</time>
      </trkpt>
      <trkpt lat="45.51484" lon="4.77418">
        <ele>418</ele>
        <time>2013-10-26T09:48:29Z</time>
      </trkpt>
      <trkpt lat="45.51484" lon="4.77418">
        <ele>418</ele>
        <time>2013-10-26T09:48:38Z</time>
      </trkpt>
      <trkpt lat="45.51484" lon="4.77417">
        <ele>418</ele>
        <time>2013-10-26T09:48:39Z</time>
      </trkpt>
      <trkpt lat="45.51484" lon="4.77417">
        <ele>418</ele>
        <time>2013-10-26T09:48:40Z</time>
      </trkpt>
      <trkpt lat="45.51484" lon="4.77417">
        <ele>418</ele>
        <time>2013-10-26T09:48:43Z</time>
      </trkpt>
      <trkpt lat="45.51484" lon="4.77417">
        <ele>418</ele>
        <time>2013-10-26T09:48:44Z</time>
      </trkpt>
      <trkpt lat="45.51484" lon="4.77417">
        <ele>418</ele>
        <time>2013-10-26T09:48:45Z</time>
      </trkpt>
      <trkpt lat="45.51484" lon="4.77417">
        <ele>418</ele>
        <time>2013-10-26T09:48:46Z</time>
      </trkpt>
      <trkpt lat="45.51484" lon="4.77417">
        <ele>418</ele>
        <time>2013-10-26T09:48:47Z</time>
      </trkpt>
      <trkpt lat="45.51483" lon="4.77408">
        <ele>423</ele>
        <time>2013-10-26T09:48:51Z</time>
      </trkpt>
      <trkpt lat="45.51481" lon="4.77405">
        <ele>424</ele>
        <time>2013-10-26T09:48:52Z</time>
      </trkpt>
      <trkpt lat="45.51477" lon="4.77395">
        <ele>424</ele>
        <time>2013-10-26T09:48:58Z</time>
      </trkpt>
      <trkpt lat="45.51476" lon="4.77393">
        <ele>424</ele>
        <time>2013-10-26T09:48:59Z</time>
      </trkpt>
      <trkpt lat="45.51472" lon="4.77382">
        <ele>425</ele>
        <time>2013-10-26T09:49:05Z</time>
      </trkpt>
      <trkpt lat="45.51469" lon="4.77381">
        <ele>425</ele>
        <time>2013-10-26T09:49:06Z</time>
      </trkpt>
      <trkpt lat="45.51459" lon="4.77379">
        <ele>425</ele>
        <time>2013-10-26T09:49:07Z</time>
      </trkpt>
      <trkpt lat="45.5146" lon="4.77382">
        <ele>425</ele>
        <time>2013-10-26T09:49:16Z</time>
      </trkpt>
      <trkpt lat="45.5146" lon="4.77382">
        <ele>425</ele>
        <time>2013-10-26T09:49:17Z</time>
      </trkpt>
      <trkpt lat="45.51461" lon="4.77383">
        <ele>425</ele>
        <time>2013-10-26T09:49:18Z</time>
      </trkpt>
      <trkpt lat="45.51468" lon="4.7739">
        <ele>424</ele>
        <time>2013-10-26T09:49:27Z</time>
      </trkpt>
      <trkpt lat="45.51469" lon="4.77391">
        <ele>424</ele>
        <time>2013-10-26T09:49:28Z</time>
      </trkpt>
      <trkpt lat="45.5147" lon="4.77392">
        <ele>424</ele>
        <time>2013-10-26T09:49:30Z</time>
      </trkpt>
      <trkpt lat="45.5147" lon="4.77392">
        <ele>424</ele>
        <time>2013-10-26T09:49:31Z</time>
      </trkpt>
      <trkpt lat="45.51471" lon="4.77392">
        <ele>424</ele>
        <time>2013-10-26T09:49:32Z</time>
      </trkpt>
      <trkpt lat="45.51471" lon="4.77392">
        <ele>424</ele>
        <time>2013-10-26T09:49:33Z</time>
      </trkpt>
      <trkpt lat="45.51471" lon="4.77392">
        <ele>424</ele>
        <time>2013-10-26T09:49:34Z</time>
      </trkpt>
      <trkpt lat="45.51472" lon="4.77395">
        <ele>424</ele>
        <time>2013-10-26T09:49:35Z</time>
      </trkpt>
      <trkpt lat="45.51478" lon="4.77402">
        <ele>424</ele>
        <time>2013-10-26T09:49:42Z</time>
      </trkpt>
      <trkpt lat="45.5148" lon="4.77403">
        <ele>424</ele>
        <time>2013-10-26T09:49:43Z</time>
      </trkpt>
      <trkpt lat="45.51486" lon="4.77408">
        <ele>423</ele>
        <time>2013-10-26T09:49:48Z</time>
      </trkpt>
      <trkpt lat="45.51488" lon="4.7741">
        <ele>423</ele>
        <time>2013-10-26T09:49:49Z</time>
      </trkpt>
      <trkpt lat="45.51495" lon="4.77414">
        <ele>423</ele>
        <time>2013-10-26T09:49:55Z</time>
      </trkpt>
      <trkpt lat="45.51496" lon="4.77415">
        <ele>422</ele>
        <time>2013-10-26T09:49:56Z</time>
      </trkpt>
      <trkpt lat="45.51504" lon="4.7742">
        <ele>421</ele>
        <time>2013-10-26T09:50:00Z</time>
      </trkpt>
      <trkpt lat="45.51506" lon="4.7742">
        <ele>421</ele>
        <time>2013-10-26T09:50:01Z</time>
      </trkpt>
      <trkpt lat="45.51514" lon="4.77424">
        <ele>420</ele>
        <time>2013-10-26T09:50:07Z</time>
      </trkpt>
      <trkpt lat="45.51515" lon="4.77424">
        <ele>420</ele>
        <time>2013-10-26T09:50:08Z</time>
      </trkpt>
      <trkpt lat="45.51523" lon="4.77427">
        <ele>420</ele>
        <time>2013-10-26T09:50:15Z</time>
      </trkpt>
      <trkpt lat="45.51524" lon="4.77427">
        <ele>420</ele>
        <time>2013-10-26T09:50:16Z</time>
      </trkpt>
      <trkpt lat="45.51532" lon="4.77427">
        <ele>420</ele>
        <time>2013-10-26T09:50:19Z</time>
      </trkpt>
      <trkpt lat="45.51535" lon="4.77428">
        <ele>420</ele>
        <time>2013-10-26T09:50:20Z</time>
      </trkpt>
      <trkpt lat="45.51543" lon="4.77427">
        <ele>420</ele>
        <time>2013-10-26T09:50:24Z</time>
      </trkpt>
      <trkpt lat="45.51545" lon="4.77426">
        <ele>420</ele>
        <time>2013-10-26T09:50:25Z</time>
      </trkpt>
      <trkpt lat="45.51552" lon="4.77426">
        <ele>420</ele>
        <time>2013-10-26T09:50:27Z</time>
      </trkpt>
      <trkpt lat="45.51556" lon="4.77426">
        <ele>421</ele>
        <time>2013-10-26T09:50:28Z</time>
      </trkpt>
      <trkpt lat="45.5156" lon="4.77426">
        <ele>421</ele>
        <time>2013-10-26T09:50:29Z</time>
      </trkpt>
      <trkpt lat="45.51565" lon="4.7743">
        <ele>421</ele>
        <time>2013-10-26T09:50:30Z</time>
      </trkpt>
      <trkpt lat="45.51573" lon="4.77431">
        <ele>422</ele>
        <time>2013-10-26T09:50:33Z</time>
      </trkpt>
      <trkpt lat="45.51575" lon="4.77431">
        <ele>422</ele>
        <time>2013-10-26T09:50:34Z</time>
      </trkpt>
      <trkpt lat="45.51582" lon="4.7743">
        <ele>423</ele>
        <time>2013-10-26T09:50:37Z</time>
      </trkpt>
      <trkpt lat="45.51585" lon="4.77429">
        <ele>423</ele>
        <time>2013-10-26T09:50:38Z</time>
      </trkpt>
      <trkpt lat="45.51592" lon="4.7743">
        <ele>423</ele>
        <time>2013-10-26T09:50:41Z</time>
      </trkpt>
      <trkpt lat="45.51595" lon="4.7743">
        <ele>422</ele>
        <time>2013-10-26T09:50:42Z</time>
      </trkpt>
      <trkpt lat="45.51603" lon="4.77429">
        <ele>422</ele>
        <time>2013-10-26T09:50:45Z</time>
      </trkpt>
      <trkpt lat="45.51606" lon="4.7743">
        <ele>421</ele>
        <time>2013-10-26T09:50:46Z</time>
      </trkpt>
      <trkpt lat="45.51614" lon="4.77428">
        <ele>421</ele>
        <time>2013-10-26T09:50:49Z</time>
      </trkpt>
      <trkpt lat="45.51616" lon="4.77427">
        <ele>421</ele>
        <time>2013-10-26T09:50:50Z</time>
      </trkpt>
      <trkpt lat="45.51624" lon="4.77424">
        <ele>420</ele>
        <time>2013-10-26T09:50:53Z</time>
      </trkpt>
      <trkpt lat="45.51627" lon="4.77422">
        <ele>420</ele>
        <time>2013-10-26T09:50:54Z</time>
      </trkpt>
      <trkpt lat="45.51633" lon="4.77422">
        <ele>420</ele>
        <time>2013-10-26T09:50:56Z</time>
      </trkpt>
      <trkpt lat="45.51637" lon="4.77423">
        <ele>420</ele>
        <time>2013-10-26T09:50:57Z</time>
      </trkpt>
      <trkpt lat="45.51644" lon="4.77422">
        <ele>420</ele>
        <time>2013-10-26T09:50:59Z</time>
      </trkpt>
      <trkpt lat="45.51648" lon="4.77422">
        <ele>420</ele>
        <time>2013-10-26T09:51:00Z</time>
      </trkpt>
      <trkpt lat="45.51656" lon="4.77421">
        <ele>421</ele>
        <time>2013-10-26T09:51:02Z</time>
      </trkpt>
      <trkpt lat="45.51659" lon="4.7742">
        <ele>421</ele>
        <time>2013-10-26T09:51:03Z</time>
      </trkpt>
      <trkpt lat="45.51666" lon="4.77412">
        <ele>423</ele>
        <time>2013-10-26T09:51:06Z</time>
      </trkpt>
      <trkpt lat="45.51668" lon="4.77411">
        <ele>422</ele>
        <time>2013-10-26T09:51:07Z</time>
      </trkpt>
      <trkpt lat="45.51674" lon="4.77403">
        <ele>422</ele>
        <time>2013-10-26T09:51:09Z</time>
      </trkpt>
      <trkpt lat="45.51675" lon="4.77399">
        <ele>422</ele>
        <time>2013-10-26T09:51:10Z</time>
      </trkpt>
      <trkpt lat="45.51682" lon="4.77394">
        <ele>423</ele>
        <time>2013-10-26T09:51:12Z</time>
      </trkpt>
      <trkpt lat="45.51684" lon="4.77392">
        <ele>423</ele>
        <time>2013-10-26T09:51:13Z</time>
      </trkpt>
      <trkpt lat="45.51688" lon="4.77388">
        <ele>423</ele>
        <time>2013-10-26T09:51:15Z</time>
      </trkpt>
      <trkpt lat="45.51692" lon="4.77379">
        <ele>423</ele>
        <time>2013-10-26T09:51:16Z</time>
      </trkpt>
      <trkpt lat="45.51696" lon="4.77377">
        <ele>423</ele>
        <time>2013-10-26T09:51:18Z</time>
      </trkpt>
      <trkpt lat="45.51702" lon="4.77372">
        <ele>423</ele>
        <time>2013-10-26T09:51:19Z</time>
      </trkpt>
      <trkpt lat="45.51706" lon="4.77368">
        <ele>423</ele>
        <time>2013-10-26T09:51:21Z</time>
      </trkpt>
      <trkpt lat="45.51708" lon="4.77363">
        <ele>423</ele>
        <time>2013-10-26T09:51:22Z</time>
      </trkpt>
      <trkpt lat="45.51714" lon="4.77358">
        <ele>423</ele>
        <time>2013-10-26T09:51:25Z</time>
      </trkpt>
      <trkpt lat="45.51716" lon="4.77354">
        <ele>423</ele>
        <time>2013-10-26T09:51:26Z</time>
      </trkpt>
      <trkpt lat="45.51716" lon="4.77346">
        <ele>423</ele>
        <time>2013-10-26T09:51:27Z</time>
      </trkpt>
      <trkpt lat="45.51716" lon="4.77337">
        <ele>423</ele>
        <time>2013-10-26T09:51:28Z</time>
      </trkpt>
      <trkpt lat="45.51717" lon="4.77327">
        <ele>422</ele>
        <time>2013-10-26T09:51:30Z</time>
      </trkpt>
      <trkpt lat="45.51716" lon="4.77324">
        <ele>422</ele>
        <time>2013-10-26T09:51:31Z</time>
      </trkpt>
      <trkpt lat="45.51714" lon="4.77322">
        <ele>422</ele>
        <time>2013-10-26T09:51:33Z</time>
      </trkpt>
      <trkpt lat="45.51714" lon="4.77322">
        <ele>422</ele>
        <time>2013-10-26T09:51:34Z</time>
      </trkpt>
      <trkpt lat="45.51714" lon="4.77323">
        <ele>422</ele>
        <time>2013-10-26T09:51:35Z</time>
      </trkpt>
      <trkpt lat="45.51708" lon="4.77323">
        <ele>422</ele>
        <time>2013-10-26T09:51:42Z</time>
      </trkpt>
      <trkpt lat="45.51708" lon="4.77322">
        <ele>422</ele>
        <time>2013-10-26T09:51:43Z</time>
      </trkpt>
      <trkpt lat="45.51707" lon="4.77321">
        <ele>422</ele>
        <time>2013-10-26T09:51:44Z</time>
      </trkpt>
      <trkpt lat="45.51701" lon="4.77318">
        <ele>422</ele>
        <time>2013-10-26T09:51:48Z</time>
      </trkpt>
      <trkpt lat="45.51698" lon="4.77317">
        <ele>422</ele>
        <time>2013-10-26T09:51:49Z</time>
      </trkpt>
      <trkpt lat="45.51702" lon="4.77319">
        <ele>422</ele>
        <time>2013-10-26T09:51:59Z</time>
      </trkpt>
      <trkpt lat="45.51702" lon="4.77319">
        <ele>422</ele>
        <time>2013-10-26T09:52:00Z</time>
      </trkpt>
      <trkpt lat="45.51702" lon="4.77319">
        <ele>422</ele>
        <time>2013-10-26T09:52:19Z</time>
      </trkpt>
      <trkpt lat="45.51703" lon="4.77319">
        <ele>422</ele>
        <time>2013-10-26T09:52:20Z</time>
      </trkpt>
      <trkpt lat="45.51702" lon="4.77319">
        <ele>422</ele>
        <time>2013-10-26T09:52:22Z</time>
      </trkpt>
      <trkpt lat="45.51702" lon="4.77319">
        <ele>422</ele>
        <time>2013-10-26T09:52:23Z</time>
      </trkpt>
      <trkpt lat="45.51701" lon="4.77319">
        <ele>422</ele>
        <time>2013-10-26T09:52:35Z</time>
      </trkpt>
      <trkpt lat="45.51702" lon="4.77319">
        <ele>422</ele>
        <time>2013-10-26T09:52:36Z</time>
      </trkpt>
      <trkpt lat="45.51702" lon="4.77319">
        <ele>422</ele>
        <time>2013-10-26T09:52:37Z</time>
      </trkpt>
      <trkpt lat="45.51699" lon="4.77319">
        <ele>422</ele>
        <time>2013-10-26T09:56:12Z</time>
      </trkpt>
      <trkpt lat="45.517" lon="4.77318">
        <ele>422</ele>
        <time>2013-10-26T09:56:13Z</time>
      </trkpt>
      <trkpt lat="45.51696" lon="4.77318">
        <ele>422</ele>
        <time>2013-10-26T09:56:17Z</time>
      </trkpt>
      <trkpt lat="45.51696" lon="4.77318">
        <ele>422</ele>
        <time>2013-10-26T09:56:18Z</time>
      </trkpt>
      <trkpt lat="45.51696" lon="4.77318">
        <ele>422</ele>
        <time>2013-10-26T09:56:19Z</time>
      </trkpt>
      <trkpt lat="45.51696" lon="4.77318">
        <ele>422</ele>
        <time>2013-10-26T09:56:20Z</time>
      </trkpt>
      <trkpt lat="45.51696" lon="4.77318">
        <ele>422</ele>
        <time>2013-10-26T09:56:21Z</time>
      </trkpt>
      <trkpt lat="45.51696" lon="4.77318">
        <ele>422</ele>
        <time>2013-10-26T09:56:24Z</time>
      </trkpt>
      <trkpt lat="45.51696" lon="4.77318">
        <ele>422</ele>
        <time>2013-10-26T09:56:25Z</time>
      </trkpt>
      <trkpt lat="45.51697" lon="4.77318">
        <ele>422</ele>
        <time>2013-10-26T09:56:26Z</time>
      </trkpt>
      <trkpt lat="45.51697" lon="4.77318">
        <ele>422</ele>
        <time>2013-10-26T09:56:55Z</time>
      </trkpt>
      <trkpt lat="45.51697" lon="4.77318">
        <ele>422</ele>
        <time>2013-10-26T09:56:56Z</time>
      </trkpt>
      <trkpt lat="45.51697" lon="4.77318">
        <ele>422</ele>
        <time>2013-10-26T09:56:57Z</time>
      </trkpt>
      <trkpt lat="45.51697" lon="4.77318">
        <ele>422</ele>
        <time>2013-10-26T09:57:10Z</time>
      </trkpt>
      <trkpt lat="45.51698" lon="4.77318">
        <ele>422</ele>
        <time>2013-10-26T09:57:11Z</time>
      </trkpt>
      <trkpt lat="45.51698" lon="4.77318">
        <ele>422</ele>
        <time>2013-10-26T09:57:12Z</time>
      </trkpt>
      <trkpt lat="45.51697" lon="4.77318">
        <ele>422</ele>
        <time>2013-10-26T09:57:46Z</time>
      </trkpt>
      <trkpt lat="45.51693" lon="4.77318">
        <ele>422</ele>
        <time>2013-10-26T09:57:47Z</time>
      </trkpt>
      <trkpt lat="45.51693" lon="4.77317">
        <ele>422</ele>
        <time>2013-10-26T09:57:49Z</time>
      </trkpt>
      <trkpt lat="45.51693" lon="4.77317">
        <ele>422</ele>
        <time>2013-10-26T09:57:50Z</time>
      </trkpt>
      <trkpt lat="45.51693" lon="4.77317">
        <ele>422</ele>
        <time>2013-10-26T09:57:55Z</time>
      </trkpt>
      <trkpt lat="45.51694" lon="4.77317">
        <ele>422</ele>
        <time>2013-10-26T09:57:56Z</time>
      </trkpt>
      <trkpt lat="45.51694" lon="4.77317">
        <ele>422</ele>
        <time>2013-10-26T09:57:57Z</time>
      </trkpt>
      <trkpt lat="45.51694" lon="4.77317">
        <ele>422</ele>
        <time>2013-10-26T09:57:58Z</time>
      </trkpt>
      <trkpt lat="45.51694" lon="4.77317">
        <ele>422</ele>
        <time>2013-10-26T09:58:07Z</time>
      </trkpt>
      <trkpt lat="45.51695" lon="4.77317">
        <ele>422</ele>
        <time>2013-10-26T09:58:08Z</time>
      </trkpt>
      <trkpt lat="45.51695" lon="4.77317">
        <ele>422</ele>
        <time>2013-10-26T09:58:09Z</time>
      </trkpt>
      <trkpt lat="45.51695" lon="4.77317">
        <ele>422</ele>
        <time>2013-10-26T09:58:12Z</time>
      </trkpt>
      <trkpt lat="45.51695" lon="4.77316">
        <ele>422</ele>
        <time>2013-10-26T09:58:13Z</time>
      </trkpt>
      <trkpt lat="45.51688" lon="4.7731">
        <ele>422</ele>
        <time>2013-10-26T09:58:18Z</time>
      </trkpt>
      <trkpt lat="45.51687" lon="4.77309">
        <ele>422</ele>
        <time>2013-10-26T09:58:19Z</time>
      </trkpt>
      <trkpt lat="45.51679" lon="4.77303">
        <ele>422</ele>
        <time>2013-10-26T09:58:25Z</time>
      </trkpt>
      <trkpt lat="45.51678" lon="4.77301">
        <ele>422</ele>
        <time>2013-10-26T09:58:26Z</time>
      </trkpt>
      <trkpt lat="45.51678" lon="4.77301">
        <ele>422</ele>
        <time>2013-10-26T09:58:27Z</time>
      </trkpt>
      <trkpt lat="45.51665" lon="4.77295">
        <ele>425</ele>
        <time>2013-10-26T09:58:28Z</time>
      </trkpt>
      <trkpt lat="45.51657" lon="4.77291">
        <ele>425</ele>
        <time>2013-10-26T09:58:31Z</time>
      </trkpt>
      <trkpt lat="45.51654" lon="4.7729">
        <ele>425</ele>
        <time>2013-10-26T09:58:32Z</time>
      </trkpt>
      <trkpt lat="45.51645" lon="4.77286">
        <ele>425</ele>
        <time>2013-10-26T09:58:35Z</time>
      </trkpt>
      <trkpt lat="45.51642" lon="4.77286">
        <ele>425</ele>
        <time>2013-10-26T09:58:36Z</time>
      </trkpt>
      <trkpt lat="45.51634" lon="4.77287">
        <ele>425</ele>
        <time>2013-10-26T09:58:38Z</time>
      </trkpt>
      <trkpt lat="45.5163" lon="4.77286">
        <ele>425</ele>
        <time>2013-10-26T09:58:39Z</time>
      </trkpt>
      <trkpt lat="45.51629" lon="4.77278">
        <ele>425</ele>
        <time>2013-10-26T09:58:41Z</time>
      </trkpt>
      <trkpt lat="45.51625" lon="4.77274">
        <ele>425</ele>
        <time>2013-10-26T09:58:42Z</time>
      </trkpt>
      <trkpt lat="45.51619" lon="4.77267">
        <ele>426</ele>
        <time>2013-10-26T09:58:47Z</time>
      </trkpt>
      <trkpt lat="45.51617" lon="4.77266">
        <ele>426</ele>
        <time>2013-10-26T09:58:48Z</time>
      </trkpt>
      <trkpt lat="45.51611" lon="4.77262">
        <ele>426</ele>
        <time>2013-10-26T09:58:51Z</time>
      </trkpt>
      <trkpt lat="45.51609" lon="4.7726">
        <ele>426</ele>
        <time>2013-10-26T09:58:52Z</time>
      </trkpt>
      <trkpt lat="45.51605" lon="4.77253">
        <ele>426</ele>
        <time>2013-10-26T09:58:55Z</time>
      </trkpt>
      <trkpt lat="45.51602" lon="4.7725">
        <ele>426</ele>
        <time>2013-10-26T09:58:56Z</time>
      </trkpt>
      <trkpt lat="45.51596" lon="4.77244">
        <ele>426</ele>
        <time>2013-10-26T09:59:00Z</time>
      </trkpt>
      <trkpt lat="45.51595" lon="4.77241">
        <ele>426</ele>
        <time>2013-10-26T09:59:01Z</time>
      </trkpt>
      <trkpt lat="45.51589" lon="4.77237">
        <ele>426</ele>
        <time>2013-10-26T09:59:05Z</time>
      </trkpt>
      <trkpt lat="45.51586" lon="4.7724">
        <ele>427</ele>
        <time>2013-10-26T09:59:06Z</time>
      </trkpt>
      <trkpt lat="45.51574" lon="4.7724">
        <ele>429</ele>
        <time>2013-10-26T09:59:07Z</time>
      </trkpt>
      <trkpt lat="45.51567" lon="4.77244">
        <ele>429</ele>
        <time>2013-10-26T09:59:10Z</time>
      </trkpt>
      <trkpt lat="45.51563" lon="4.77243">
        <ele>430</ele>
        <time>2013-10-26T09:59:11Z</time>
      </trkpt>
      <trkpt lat="45.51556" lon="4.77238">
        <ele>430</ele>
        <time>2013-10-26T09:59:19Z</time>
      </trkpt>
      <trkpt lat="45.51555" lon="4.77239">
        <ele>430</ele>
        <time>2013-10-26T09:59:20Z</time>
      </trkpt>
      <trkpt lat="45.51547" lon="4.77239">
        <ele>431</ele>
        <time>2013-10-26T09:59:24Z</time>
      </trkpt>
      <trkpt lat="45.51544" lon="4.77238">
        <ele>431</ele>
        <time>2013-10-26T09:59:25Z</time>
      </trkpt>
      <trkpt lat="45.51537" lon="4.77235">
        <ele>431</ele>
        <time>2013-10-26T09:59:27Z</time>
      </trkpt>
      <trkpt lat="45.51534" lon="4.77235">
        <ele>431</ele>
        <time>2013-10-26T09:59:28Z</time>
      </trkpt>
      <trkpt lat="45.51528" lon="4.77231">
        <ele>431</ele>
        <time>2013-10-26T09:59:30Z</time>
      </trkpt>
      <trkpt lat="45.51525" lon="4.77229">
        <ele>432</ele>
        <time>2013-10-26T09:59:31Z</time>
      </trkpt>
      <trkpt lat="45.51518" lon="4.77225">
        <ele>432</ele>
        <time>2013-10-26T09:59:33Z</time>
      </trkpt>
      <trkpt lat="45.51515" lon="4.77223">
        <ele>432</ele>
        <time>2013-10-26T09:59:34Z</time>
      </trkpt>
      <trkpt lat="45.51507" lon="4.77216">
        <ele>432</ele>
        <time>2013-10-26T09:59:37Z</time>
      </trkpt>
      <trkpt lat="45.51504" lon="4.77212">
        <ele>432</ele>
        <time>2013-10-26T09:59:38Z</time>
      </trkpt>
      <trkpt lat="45.51498" lon="4.77204">
        <ele>435</ele>
        <time>2013-10-26T09:59:41Z</time>
      </trkpt>
      <trkpt lat="45.51496" lon="4.77199">
        <ele>435</ele>
        <time>2013-10-26T09:59:42Z</time>
      </trkpt>
      <trkpt lat="45.5149" lon="4.77195">
        <ele>435</ele>
        <time>2013-10-26T09:59:45Z</time>
      </trkpt>
      <trkpt lat="45.5149" lon="4.77196">
        <ele>435</ele>
        <time>2013-10-26T09:59:46Z</time>
      </trkpt>
      <trkpt lat="45.5149" lon="4.77195">
        <ele>435</ele>
        <time>2013-10-26T09:59:47Z</time>
      </trkpt>
      <trkpt lat="45.51483" lon="4.7719">
        <ele>435</ele>
        <time>2013-10-26T09:59:51Z</time>
      </trkpt>
      <trkpt lat="45.5148" lon="4.77187">
        <ele>435</ele>
        <time>2013-10-26T09:59:52Z</time>
      </trkpt>
      <trkpt lat="45.51476" lon="4.77178">
        <ele>435</ele>
        <time>2013-10-26T09:59:55Z</time>
      </trkpt>
      <trkpt lat="45.51473" lon="4.77175">
        <ele>435</ele>
        <time>2013-10-26T09:59:56Z</time>
      </trkpt>
      <trkpt lat="45.51467" lon="4.77172">
        <ele>435</ele>
        <time>2013-10-26T09:59:58Z</time>
      </trkpt>
      <trkpt lat="45.51464" lon="4.7717">
        <ele>435</ele>
        <time>2013-10-26T09:59:59Z</time>
      </trkpt>
      <trkpt lat="45.51461" lon="4.77165">
        <ele>434</ele>
        <time>2013-10-26T10:00:00Z</time>
      </trkpt>
      <trkpt lat="45.51457" lon="4.7716">
        <ele>434</ele>
        <time>2013-10-26T10:00:01Z</time>
      </trkpt>
      <trkpt lat="45.51451" lon="4.77154">
        <ele>434</ele>
        <time>2013-10-26T10:00:03Z</time>
      </trkpt>
      <trkpt lat="45.51447" lon="4.77152">
        <ele>434</ele>
        <time>2013-10-26T10:00:04Z</time>
      </trkpt>
      <trkpt lat="45.51442" lon="4.77142">
        <ele>434</ele>
        <time>2013-10-26T10:00:07Z</time>
      </trkpt>
      <trkpt lat="45.51439" lon="4.77139">
        <ele>434</ele>
        <time>2013-10-26T10:00:08Z</time>
      </trkpt>
      <trkpt lat="45.51434" lon="4.77129">
        <ele>434</ele>
        <time>2013-10-26T10:00:11Z</time>
      </trkpt>
      <trkpt lat="45.51432" lon="4.77126">
        <ele>434</ele>
        <time>2013-10-26T10:00:12Z</time>
      </trkpt>
      <trkpt lat="45.51429" lon="4.77118">
        <ele>434</ele>
        <time>2013-10-26T10:00:14Z</time>
      </trkpt>
      <trkpt lat="45.51426" lon="4.77114">
        <ele>434</ele>
        <time>2013-10-26T10:00:15Z</time>
      </trkpt>
      <trkpt lat="45.51419" lon="4.77108">
        <ele>434</ele>
        <time>2013-10-26T10:00:17Z</time>
      </trkpt>
      <trkpt lat="45.51416" lon="4.77103">
        <ele>438</ele>
        <time>2013-10-26T10:00:18Z</time>
      </trkpt>
      <trkpt lat="45.51412" lon="4.77095">
        <ele>437</ele>
        <time>2013-10-26T10:00:20Z</time>
      </trkpt>
      <trkpt lat="45.51409" lon="4.77091">
        <ele>437</ele>
        <time>2013-10-26T10:00:21Z</time>
      </trkpt>
      <trkpt lat="45.51404" lon="4.77083">
        <ele>435</ele>
        <time>2013-10-26T10:00:23Z</time>
      </trkpt>
      <trkpt lat="45.51401" lon="4.77077">
        <ele>435</ele>
        <time>2013-10-26T10:00:24Z</time>
      </trkpt>
      <trkpt lat="45.51395" lon="4.77068">
        <ele>435</ele>
        <time>2013-10-26T10:00:28Z</time>
      </trkpt>
      <trkpt lat="45.51392" lon="4.77061">
        <ele>435</ele>
        <time>2013-10-26T10:00:29Z</time>
      </trkpt>
      <trkpt lat="45.51387" lon="4.77051">
        <ele>435</ele>
        <time>2013-10-26T10:00:32Z</time>
      </trkpt>
      <trkpt lat="45.51385" lon="4.77051">
        <ele>435</ele>
        <time>2013-10-26T10:00:33Z</time>
      </trkpt>
      <trkpt lat="45.51381" lon="4.7704">
        <ele>435</ele>
        <time>2013-10-26T10:00:43Z</time>
      </trkpt>
      <trkpt lat="45.5138" lon="4.77037">
        <ele>435</ele>
        <time>2013-10-26T10:00:44Z</time>
      </trkpt>
      <trkpt lat="45.51376" lon="4.7703">
        <ele>435</ele>
        <time>2013-10-26T10:00:47Z</time>
      </trkpt>
      <trkpt lat="45.51373" lon="4.77027">
        <ele>435</ele>
        <time>2013-10-26T10:00:48Z</time>
      </trkpt>
      <trkpt lat="45.51366" lon="4.7702">
        <ele>435</ele>
        <time>2013-10-26T10:00:50Z</time>
      </trkpt>
      <trkpt lat="45.51365" lon="4.77019">
        <ele>435</ele>
        <time>2013-10-26T10:00:51Z</time>
      </trkpt>
      <trkpt lat="45.51362" lon="4.77015">
        <ele>435</ele>
        <time>2013-10-26T10:00:52Z</time>
      </trkpt>
      <trkpt lat="45.51354" lon="4.77008">
        <ele>435</ele>
        <time>2013-10-26T10:00:53Z</time>
      </trkpt>
      <trkpt lat="45.51351" lon="4.77005">
        <ele>436</ele>
        <time>2013-10-26T10:00:54Z</time>
      </trkpt>
      <trkpt lat="45.51347" lon="4.77">
        <ele>433</ele>
        <time>2013-10-26T10:00:55Z</time>
      </trkpt>
      <trkpt lat="45.51342" lon="4.76994">
        <ele>433</ele>
        <time>2013-10-26T10:00:56Z</time>
      </trkpt>
      <trkpt lat="45.51339" lon="4.76987">
        <ele>433</ele>
        <time>2013-10-26T10:00:57Z</time>
      </trkpt>
      <trkpt lat="45.51333" lon="4.7698">
        <ele>435</ele>
        <time>2013-10-26T10:00:59Z</time>
      </trkpt>
      <trkpt lat="45.51329" lon="4.76975">
        <ele>435</ele>
        <time>2013-10-26T10:01:00Z</time>
      </trkpt>
      <trkpt lat="45.51325" lon="4.76968">
        <ele>435</ele>
        <time>2013-10-26T10:01:01Z</time>
      </trkpt>
      <trkpt lat="45.51322" lon="4.76961">
        <ele>435</ele>
        <time>2013-10-26T10:01:02Z</time>
      </trkpt>
      <trkpt lat="45.51315" lon="4.76953">
        <ele>434</ele>
        <time>2013-10-26T10:01:04Z</time>
      </trkpt>
      <trkpt lat="45.5131" lon="4.7695">
        <ele>434</ele>
        <time>2013-10-26T10:01:05Z</time>
      </trkpt>
      <trkpt lat="45.51307" lon="4.7694">
        <ele>434</ele>
        <time>2013-10-26T10:01:09Z</time>
      </trkpt>
      <trkpt lat="45.51302" lon="4.76939">
        <ele>434</ele>
        <time>2013-10-26T10:01:10Z</time>
      </trkpt>
      <trkpt lat="45.51298" lon="4.76932">
        <ele>434</ele>
        <time>2013-10-26T10:01:12Z</time>
      </trkpt>
      <trkpt lat="45.51295" lon="4.7693">
        <ele>434</ele>
        <time>2013-10-26T10:01:13Z</time>
      </trkpt>
      <trkpt lat="45.51291" lon="4.76922">
        <ele>434</ele>
        <time>2013-10-26T10:01:16Z</time>
      </trkpt>
      <trkpt lat="45.51285" lon="4.76914">
        <ele>429</ele>
        <time>2013-10-26T10:01:17Z</time>
      </trkpt>
      <trkpt lat="45.51279" lon="4.76906">
        <ele>430</ele>
        <time>2013-10-26T10:01:19Z</time>
      </trkpt>
      <trkpt lat="45.51278" lon="4.76902">
        <ele>430</ele>
        <time>2013-10-26T10:01:20Z</time>
      </trkpt>
      <trkpt lat="45.51276" lon="4.76893">
        <ele>429</ele>
        <time>2013-10-26T10:01:22Z</time>
      </trkpt>
      <trkpt lat="45.51273" lon="4.76888">
        <ele>429</ele>
        <time>2013-10-26T10:01:23Z</time>
      </trkpt>
      <trkpt lat="45.51271" lon="4.7688">
        <ele>428</ele>
        <time>2013-10-26T10:01:25Z</time>
      </trkpt>
      <trkpt lat="45.51269" lon="4.76876">
        <ele>428</ele>
        <time>2013-10-26T10:01:26Z</time>
      </trkpt>
      <trkpt lat="45.51263" lon="4.7687">
        <ele>428</ele>
        <time>2013-10-26T10:01:27Z</time>
      </trkpt>
      <trkpt lat="45.51259" lon="4.76865">
        <ele>428</ele>
        <time>2013-10-26T10:01:28Z</time>
      </trkpt>
      <trkpt lat="45.51254" lon="4.76859">
        <ele>427</ele>
        <time>2013-10-26T10:01:29Z</time>
      </trkpt>
      <trkpt lat="45.5125" lon="4.76852">
        <ele>430</ele>
        <time>2013-10-26T10:01:30Z</time>
      </trkpt>
      <trkpt lat="45.51242" lon="4.76848">
        <ele>430</ele>
        <time>2013-10-26T10:01:31Z</time>
      </trkpt>
      <trkpt lat="45.51235" lon="4.76844">
        <ele>430</ele>
        <time>2013-10-26T10:01:32Z</time>
      </trkpt>
      <trkpt lat="45.51229" lon="4.76839">
        <ele>431</ele>
        <time>2013-10-26T10:01:33Z</time>
      </trkpt>
      <trkpt lat="45.51223" lon="4.76836">
        <ele>431</ele>
        <time>2013-10-26T10:01:34Z</time>
      </trkpt>
      <trkpt lat="45.51219" lon="4.76831">
        <ele>426</ele>
        <time>2013-10-26T10:01:35Z</time>
      </trkpt>
      <trkpt lat="45.51215" lon="4.76828">
        <ele>426</ele>
        <time>2013-10-26T10:01:36Z</time>
      </trkpt>
      <trkpt lat="45.51213" lon="4.76824">
        <ele>426</ele>
        <time>2013-10-26T10:01:37Z</time>
      </trkpt>
      <trkpt lat="45.51208" lon="4.76819">
        <ele>426</ele>
        <time>2013-10-26T10:01:38Z</time>
      </trkpt>
      <trkpt lat="45.51203" lon="4.76808">
        <ele>426</ele>
        <time>2013-10-26T10:01:40Z</time>
      </trkpt>
      <trkpt lat="45.512" lon="4.76803">
        <ele>426</ele>
        <time>2013-10-26T10:01:41Z</time>
      </trkpt>
      <trkpt lat="45.51197" lon="4.76793">
        <ele>425</ele>
        <time>2013-10-26T10:01:43Z</time>
      </trkpt>
      <trkpt lat="45.51192" lon="4.76786">
        <ele>425</ele>
        <time>2013-10-26T10:01:44Z</time>
      </trkpt>
      <trkpt lat="45.51186" lon="4.76781">
        <ele>425</ele>
        <time>2013-10-26T10:01:46Z</time>
      </trkpt>
      <trkpt lat="45.51184" lon="4.76779">
        <ele>425</ele>
        <time>2013-10-26T10:01:47Z</time>
      </trkpt>
      <trkpt lat="45.51176" lon="4.76782">
        <ele>425</ele>
        <time>2013-10-26T10:01:50Z</time>
      </trkpt>
      <trkpt lat="45.51174" lon="4.76782">
        <ele>425</ele>
        <time>2013-10-26T10:01:51Z</time>
      </trkpt>
      <trkpt lat="45.51168" lon="4.76781">
        <ele>425</ele>
        <time>2013-10-26T10:01:53Z</time>
      </trkpt>
      <trkpt lat="45.51164" lon="4.76781">
        <ele>425</ele>
        <time>2013-10-26T10:01:54Z</time>
      </trkpt>
      <trkpt lat="45.51156" lon="4.7678">
        <ele>425</ele>
        <time>2013-10-26T10:01:56Z</time>
      </trkpt>
      <trkpt lat="45.5114" lon="4.76779">
        <ele>424</ele>
        <time>2013-10-26T10:01:57Z</time>
      </trkpt>
      <trkpt lat="45.51135" lon="4.76779">
        <ele>424</ele>
        <time>2013-10-26T10:01:58Z</time>
      </trkpt>
      <trkpt lat="45.5113" lon="4.76777">
        <ele>424</ele>
        <time>2013-10-26T10:01:59Z</time>
      </trkpt>
      <trkpt lat="45.51125" lon="4.76776">
        <ele>423</ele>
        <time>2013-10-26T10:02:00Z</time>
      </trkpt>
      <trkpt lat="45.51119" lon="4.76776">
        <ele>423</ele>
        <time>2013-10-26T10:02:01Z</time>
      </trkpt>
      <trkpt lat="45.51116" lon="4.76776">
        <ele>423</ele>
        <time>2013-10-26T10:02:02Z</time>
      </trkpt>
      <trkpt lat="45.5111" lon="4.76775">
        <ele>422</ele>
        <time>2013-10-26T10:02:03Z</time>
      </trkpt>
      <trkpt lat="45.51103" lon="4.76775">
        <ele>422</ele>
        <time>2013-10-26T10:02:04Z</time>
      </trkpt>
      <trkpt lat="45.51095" lon="4.76776">
        <ele>422</ele>
        <time>2013-10-26T10:02:05Z</time>
      </trkpt>
      <trkpt lat="45.51088" lon="4.76776">
        <ele>421</ele>
        <time>2013-10-26T10:02:08Z</time>
      </trkpt>
      <trkpt lat="45.51082" lon="4.76777">
        <ele>415</ele>
        <time>2013-10-26T10:02:09Z</time>
      </trkpt>
      <trkpt lat="45.51075" lon="4.76776">
        <ele>415</ele>
        <time>2013-10-26T10:02:11Z</time>
      </trkpt>
      <trkpt lat="45.51059" lon="4.76817">
        <ele>418</ele>
        <time>2013-10-26T10:02:12Z</time>
      </trkpt>
      <trkpt lat="45.51053" lon="4.76822">
        <ele>417</ele>
        <time>2013-10-26T10:02:13Z</time>
      </trkpt>
      <trkpt lat="45.51048" lon="4.76826">
        <ele>417</ele>
        <time>2013-10-26T10:02:14Z</time>
      </trkpt>
      <trkpt lat="45.51042" lon="4.76832">
        <ele>416</ele>
        <time>2013-10-26T10:02:15Z</time>
      </trkpt>
      <trkpt lat="45.51037" lon="4.76839">
        <ele>422</ele>
        <time>2013-10-26T10:02:16Z</time>
      </trkpt>
      <trkpt lat="45.5103" lon="4.76848">
        <ele>421</ele>
        <time>2013-10-26T10:02:17Z</time>
      </trkpt>
      <trkpt lat="45.51035" lon="4.76856">
        <ele>422</ele>
        <time>2013-10-26T10:02:18Z</time>
      </trkpt>
      <trkpt lat="45.51029" lon="4.76861">
        <ele>422</ele>
        <time>2013-10-26T10:02:19Z</time>
      </trkpt>
      <trkpt lat="45.51022" lon="4.76866">
        <ele>422</ele>
        <time>2013-10-26T10:02:20Z</time>
      </trkpt>
      <trkpt lat="45.51016" lon="4.76871">
        <ele>422</ele>
        <time>2013-10-26T10:02:21Z</time>
      </trkpt>
      <trkpt lat="45.51008" lon="4.76874">
        <ele>422</ele>
        <time>2013-10-26T10:02:22Z</time>
      </trkpt>
      <trkpt lat="45.50999" lon="4.76874">
        <ele>413</ele>
        <time>2013-10-26T10:02:23Z</time>
      </trkpt>
      <trkpt lat="45.5099" lon="4.76878">
        <ele>413</ele>
        <time>2013-10-26T10:02:24Z</time>
      </trkpt>
      <trkpt lat="45.50983" lon="4.76881">
        <ele>413</ele>
        <time>2013-10-26T10:02:25Z</time>
      </trkpt>
      <trkpt lat="45.50975" lon="4.76886">
        <ele>412</ele>
        <time>2013-10-26T10:02:26Z</time>
      </trkpt>
      <trkpt lat="45.50972" lon="4.76891">
        <ele>412</ele>
        <time>2013-10-26T10:02:27Z</time>
      </trkpt>
      <trkpt lat="45.5097" lon="4.76897">
        <ele>413</ele>
        <time>2013-10-26T10:02:28Z</time>
      </trkpt>
      <trkpt lat="45.50963" lon="4.76906">
        <ele>412</ele>
        <time>2013-10-26T10:02:29Z</time>
      </trkpt>
      <trkpt lat="45.50952" lon="4.76914">
        <ele>411</ele>
        <time>2013-10-26T10:02:30Z</time>
      </trkpt>
      <trkpt lat="45.50939" lon="4.76922">
        <ele>415</ele>
        <time>2013-10-26T10:02:31Z</time>
      </trkpt>
      <trkpt lat="45.50938" lon="4.76926">
        <ele>415</ele>
        <time>2013-10-26T10:02:33Z</time>
      </trkpt>
      <trkpt lat="45.50929" lon="4.76939">
        <ele>415</ele>
        <time>2013-10-26T10:02:34Z</time>
      </trkpt>
      <trkpt lat="45.50925" lon="4.76941">
        <ele>415</ele>
        <time>2013-10-26T10:02:36Z</time>
      </trkpt>
      <trkpt lat="45.50921" lon="4.76945">
        <ele>415</ele>
        <time>2013-10-26T10:02:37Z</time>
      </trkpt>
      <trkpt lat="45.50917" lon="4.76948">
        <ele>408</ele>
        <time>2013-10-26T10:02:38Z</time>
      </trkpt>
      <trkpt lat="45.50909" lon="4.76957">
        <ele>408</ele>
        <time>2013-10-26T10:02:39Z</time>
      </trkpt>
      <trkpt lat="45.50909" lon="4.76969">
        <ele>409</ele>
        <time>2013-10-26T10:02:41Z</time>
      </trkpt>
      <trkpt lat="45.50908" lon="4.76978">
        <ele>410</ele>
        <time>2013-10-26T10:02:42Z</time>
      </trkpt>
      <trkpt lat="45.50903" lon="4.7698">
        <ele>410</ele>
        <time>2013-10-26T10:02:43Z</time>
      </trkpt>
      <trkpt lat="45.50901" lon="4.76992">
        <ele>411</ele>
        <time>2013-10-26T10:02:44Z</time>
      </trkpt>
      <trkpt lat="45.50895" lon="4.76998">
        <ele>411</ele>
        <time>2013-10-26T10:02:45Z</time>
      </trkpt>
      <trkpt lat="45.50884" lon="4.76998">
        <ele>409</ele>
        <time>2013-10-26T10:02:46Z</time>
      </trkpt>
      <trkpt lat="45.50885" lon="4.77003">
        <ele>413</ele>
        <time>2013-10-26T10:02:48Z</time>
      </trkpt>
      <trkpt lat="45.50875" lon="4.77006">
        <ele>412</ele>
        <time>2013-10-26T10:02:49Z</time>
      </trkpt>
      <trkpt lat="45.50871" lon="4.77009">
        <ele>412</ele>
        <time>2013-10-26T10:02:50Z</time>
      </trkpt>
      <trkpt lat="45.50855" lon="4.7701">
        <ele>410</ele>
        <time>2013-10-26T10:02:51Z</time>
      </trkpt>
      <trkpt lat="45.50852" lon="4.77012">
        <ele>410</ele>
        <time>2013-10-26T10:02:52Z</time>
      </trkpt>
      <trkpt lat="45.50844" lon="4.77013">
        <ele>409</ele>
        <time>2013-10-26T10:02:53Z</time>
      </trkpt>
      <trkpt lat="45.50837" lon="4.7701">
        <ele>408</ele>
        <time>2013-10-26T10:02:56Z</time>
      </trkpt>
      <trkpt lat="45.50835" lon="4.77007">
        <ele>407</ele>
        <time>2013-10-26T10:02:57Z</time>
      </trkpt>
      <trkpt lat="45.50836" lon="4.76996">
        <ele>405</ele>
        <time>2013-10-26T10:03:00Z</time>
      </trkpt>
      <trkpt lat="45.50838" lon="4.76991">
        <ele>406</ele>
        <time>2013-10-26T10:03:01Z</time>
      </trkpt>
      <trkpt lat="45.50841" lon="4.7698">
        <ele>406</ele>
        <time>2013-10-26T10:03:03Z</time>
      </trkpt>
      <trkpt lat="45.50842" lon="4.76968">
        <ele>405</ele>
        <time>2013-10-26T10:03:04Z</time>
      </trkpt>
      <trkpt lat="45.50844" lon="4.76958">
        <ele>405</ele>
        <time>2013-10-26T10:03:05Z</time>
      </trkpt>
      <trkpt lat="45.50847" lon="4.76949">
        <ele>405</ele>
        <time>2013-10-26T10:03:06Z</time>
      </trkpt>
      <trkpt lat="45.50847" lon="4.76938">
        <ele>404</ele>
        <time>2013-10-26T10:03:07Z</time>
      </trkpt>
      <trkpt lat="45.50847" lon="4.76928">
        <ele>402</ele>
        <time>2013-10-26T10:03:08Z</time>
      </trkpt>
      <trkpt lat="45.50849" lon="4.76915">
        <ele>399</ele>
        <time>2013-10-26T10:03:09Z</time>
      </trkpt>
      <trkpt lat="45.50849" lon="4.76907">
        <ele>399</ele>
        <time>2013-10-26T10:03:10Z</time>
      </trkpt>
      <trkpt lat="45.50849" lon="4.76899">
        <ele>399</ele>
        <time>2013-10-26T10:03:11Z</time>
      </trkpt>
      <trkpt lat="45.5085" lon="4.76893">
        <ele>399</ele>
        <time>2013-10-26T10:03:12Z</time>
      </trkpt>
      <trkpt lat="45.50851" lon="4.76882">
        <ele>398</ele>
        <time>2013-10-26T10:03:14Z</time>
      </trkpt>
      <trkpt lat="45.50852" lon="4.76875">
        <ele>398</ele>
        <time>2013-10-26T10:03:15Z</time>
      </trkpt>
      <trkpt lat="45.50854" lon="4.76869">
        <ele>398</ele>
        <time>2013-10-26T10:03:16Z</time>
      </trkpt>
      <trkpt lat="45.50855" lon="4.76862">
        <ele>397</ele>
        <time>2013-10-26T10:03:17Z</time>
      </trkpt>
      <trkpt lat="45.50857" lon="4.7685">
        <ele>396</ele>
        <time>2013-10-26T10:03:19Z</time>
      </trkpt>
      <trkpt lat="45.50858" lon="4.76844">
        <ele>396</ele>
        <time>2013-10-26T10:03:20Z</time>
      </trkpt>
      <trkpt lat="45.5086" lon="4.76833">
        <ele>392</ele>
        <time>2013-10-26T10:03:22Z</time>
      </trkpt>
      <trkpt lat="45.50861" lon="4.76827">
        <ele>391</ele>
        <time>2013-10-26T10:03:23Z</time>
      </trkpt>
      <trkpt lat="45.50866" lon="4.76818">
        <ele>391</ele>
        <time>2013-10-26T10:03:25Z</time>
      </trkpt>
      <trkpt lat="45.50869" lon="4.76813">
        <ele>391</ele>
        <time>2013-10-26T10:03:26Z</time>
      </trkpt>
      <trkpt lat="45.50873" lon="4.76804">
        <ele>391</ele>
        <time>2013-10-26T10:03:29Z</time>
      </trkpt>
      <trkpt lat="45.50874" lon="4.76801">
        <ele>391</ele>
        <time>2013-10-26T10:03:30Z</time>
      </trkpt>
      <trkpt lat="45.50877" lon="4.76789">
        <ele>391</ele>
        <time>2013-10-26T10:03:33Z</time>
      </trkpt>
      <trkpt lat="45.50878" lon="4.76783">
        <ele>390</ele>
        <time>2013-10-26T10:03:34Z</time>
      </trkpt>
      <trkpt lat="45.50882" lon="4.76776">
        <ele>390</ele>
        <time>2013-10-26T10:03:35Z</time>
      </trkpt>
      <trkpt lat="45.50885" lon="4.7677">
        <ele>390</ele>
        <time>2013-10-26T10:03:36Z</time>
      </trkpt>
      <trkpt lat="45.50888" lon="4.76761">
        <ele>390</ele>
        <time>2013-10-26T10:03:37Z</time>
      </trkpt>
      <trkpt lat="45.5089" lon="4.76756">
        <ele>390</ele>
        <time>2013-10-26T10:03:36Z</time>
      </trkpt>
      <trkpt lat="45.50891" lon="4.76751">
        <ele>390</ele>
        <time>2013-10-26T10:03:37Z</time>
      </trkpt>
      <trkpt lat="45.50896" lon="4.76743">
        <ele>386</ele>
        <time>2013-10-26T10:03:38Z</time>
      </trkpt>
      <trkpt lat="45.50897" lon="4.76737">
        <ele>386</ele>
        <time>2013-10-26T10:03:39Z</time>
      </trkpt>
      <trkpt lat="45.50899" lon="4.7673">
        <ele>386</ele>
        <time>2013-10-26T10:03:40Z</time>
      </trkpt>
      <trkpt lat="45.509" lon="4.76722">
        <ele>385</ele>
        <time>2013-10-26T10:03:41Z</time>
      </trkpt>
      <trkpt lat="45.50902" lon="4.76716">
        <ele>385</ele>
        <time>2013-10-26T10:03:42Z</time>
      </trkpt>
      <trkpt lat="45.50904" lon="4.76708">
        <ele>384</ele>
        <time>2013-10-26T10:03:43Z</time>
      </trkpt>
      <trkpt lat="45.50907" lon="4.767">
        <ele>384</ele>
        <time>2013-10-26T10:03:44Z</time>
      </trkpt>
      <trkpt lat="45.50911" lon="4.76694">
        <ele>384</ele>
        <time>2013-10-26T10:03:45Z</time>
      </trkpt>
      <trkpt lat="45.50915" lon="4.76687">
        <ele>384</ele>
        <time>2013-10-26T10:03:46Z</time>
      </trkpt>
      <trkpt lat="45.50919" lon="4.76679">
        <ele>387</ele>
        <time>2013-10-26T10:03:47Z</time>
      </trkpt>
      <trkpt lat="45.50924" lon="4.76673">
        <ele>386</ele>
        <time>2013-10-26T10:03:48Z</time>
      </trkpt>
      <trkpt lat="45.50929" lon="4.76664">
        <ele>383</ele>
        <time>2013-10-26T10:03:49Z</time>
      </trkpt>
      <trkpt lat="45.50933" lon="4.76653">
        <ele>383</ele>
        <time>2013-10-26T10:03:50Z</time>
      </trkpt>
      <trkpt lat="45.50937" lon="4.76645">
        <ele>382</ele>
        <time>2013-10-26T10:03:51Z</time>
      </trkpt>
      <trkpt lat="45.50939" lon="4.76635">
        <ele>382</ele>
        <time>2013-10-26T10:03:52Z</time>
      </trkpt>
      <trkpt lat="45.50942" lon="4.76627">
        <ele>381</ele>
        <time>2013-10-26T10:03:53Z</time>
      </trkpt>
      <trkpt lat="45.50945" lon="4.76618">
        <ele>381</ele>
        <time>2013-10-26T10:03:54Z</time>
      </trkpt>
      <trkpt lat="45.5095" lon="4.7661">
        <ele>381</ele>
        <time>2013-10-26T10:03:55Z</time>
      </trkpt>
      <trkpt lat="45.50953" lon="4.76605">
        <ele>381</ele>
        <time>2013-10-26T10:03:56Z</time>
      </trkpt>
      <trkpt lat="45.50955" lon="4.76599">
        <ele>380</ele>
        <time>2013-10-26T10:03:57Z</time>
      </trkpt>
      <trkpt lat="45.50958" lon="4.76594">
        <ele>380</ele>
        <time>2013-10-26T10:03:58Z</time>
      </trkpt>
      <trkpt lat="45.50961" lon="4.76586">
        <ele>380</ele>
        <time>2013-10-26T10:03:59Z</time>
      </trkpt>
      <trkpt lat="45.50963" lon="4.76579">
        <ele>375</ele>
        <time>2013-10-26T10:04:00Z</time>
      </trkpt>
      <trkpt lat="45.50965" lon="4.76571">
        <ele>375</ele>
        <time>2013-10-26T10:04:01Z</time>
      </trkpt>
      <trkpt lat="45.50968" lon="4.76561">
        <ele>375</ele>
        <time>2013-10-26T10:04:02Z</time>
      </trkpt>
      <trkpt lat="45.5097" lon="4.76552">
        <ele>374</ele>
        <time>2013-10-26T10:04:03Z</time>
      </trkpt>
      <trkpt lat="45.5097" lon="4.76543">
        <ele>374</ele>
        <time>2013-10-26T10:04:04Z</time>
      </trkpt>
      <trkpt lat="45.50973" lon="4.76531">
        <ele>373</ele>
        <time>2013-10-26T10:04:06Z</time>
      </trkpt>
      <trkpt lat="45.50972" lon="4.76527">
        <ele>373</ele>
        <time>2013-10-26T10:04:07Z</time>
      </trkpt>
      <trkpt lat="45.50974" lon="4.76517">
        <ele>373</ele>
        <time>2013-10-26T10:04:10Z</time>
      </trkpt>
      <trkpt lat="45.50974" lon="4.76515">
        <ele>373</ele>
        <time>2013-10-26T10:04:11Z</time>
      </trkpt>
      <trkpt lat="45.50976" lon="4.76505">
        <ele>372</ele>
        <time>2013-10-26T10:04:14Z</time>
      </trkpt>
      <trkpt lat="45.50977" lon="4.76501">
        <ele>372</ele>
        <time>2013-10-26T10:04:15Z</time>
      </trkpt>
      <trkpt lat="45.50983" lon="4.76494">
        <ele>371</ele>
        <time>2013-10-26T10:04:18Z</time>
      </trkpt>
      <trkpt lat="45.50984" lon="4.7649">
        <ele>371</ele>
        <time>2013-10-26T10:04:19Z</time>
      </trkpt>
      <trkpt lat="45.50991" lon="4.76484">
        <ele>371</ele>
        <time>2013-10-26T10:04:22Z</time>
      </trkpt>
      <trkpt lat="45.50992" lon="4.76481">
        <ele>371</ele>
        <time>2013-10-26T10:04:23Z</time>
      </trkpt>
      <trkpt lat="45.51" lon="4.76478">
        <ele>371</ele>
        <time>2013-10-26T10:04:26Z</time>
      </trkpt>
      <trkpt lat="45.51001" lon="4.76474">
        <ele>371</ele>
        <time>2013-10-26T10:04:27Z</time>
      </trkpt>
      <trkpt lat="45.51005" lon="4.76464">
        <ele>371</ele>
        <time>2013-10-26T10:04:30Z</time>
      </trkpt>
      <trkpt lat="45.51006" lon="4.76461">
        <ele>371</ele>
        <time>2013-10-26T10:04:31Z</time>
      </trkpt>
      <trkpt lat="45.51009" lon="4.7645">
        <ele>371</ele>
        <time>2013-10-26T10:04:36Z</time>
      </trkpt>
      <trkpt lat="45.51011" lon="4.76446">
        <ele>371</ele>
        <time>2013-10-26T10:04:37Z</time>
      </trkpt>
      <trkpt lat="45.51012" lon="4.76437">
        <ele>370</ele>
        <time>2013-10-26T10:04:39Z</time>
      </trkpt>
      <trkpt lat="45.51013" lon="4.76432">
        <ele>370</ele>
        <time>2013-10-26T10:04:40Z</time>
      </trkpt>
      <trkpt lat="45.51015" lon="4.7642">
        <ele>370</ele>
        <time>2013-10-26T10:04:43Z</time>
      </trkpt>
      <trkpt lat="45.51016" lon="4.76417">
        <ele>370</ele>
        <time>2013-10-26T10:04:44Z</time>
      </trkpt>
      <trkpt lat="45.51021" lon="4.76406">
        <ele>372</ele>
        <time>2013-10-26T10:04:49Z</time>
      </trkpt>
      <trkpt lat="45.51021" lon="4.76402">
        <ele>372</ele>
        <time>2013-10-26T10:04:50Z</time>
      </trkpt>
      <trkpt lat="45.51027" lon="4.76395">
        <ele>373</ele>
        <time>2013-10-26T10:04:56Z</time>
      </trkpt>
      <trkpt lat="45.51028" lon="4.76392">
        <ele>373</ele>
        <time>2013-10-26T10:04:57Z</time>
      </trkpt>
      <trkpt lat="45.51025" lon="4.76392">
        <ele>373</ele>
        <time>2013-10-26T10:05:00Z</time>
      </trkpt>
      <trkpt lat="45.51025" lon="4.76392">
        <ele>373</ele>
        <time>2013-10-26T10:05:01Z</time>
      </trkpt>
      <trkpt lat="45.51025" lon="4.76393">
        <ele>373</ele>
        <time>2013-10-26T10:05:03Z</time>
      </trkpt>
      <trkpt lat="45.51025" lon="4.76392">
        <ele>373</ele>
        <time>2013-10-26T10:05:04Z</time>
      </trkpt>
      <trkpt lat="45.51025" lon="4.76392">
        <ele>373</ele>
        <time>2013-10-26T10:05:05Z</time>
      </trkpt>
      <trkpt lat="45.51025" lon="4.76392">
        <ele>373</ele>
        <time>2013-10-26T10:05:07Z</time>
      </trkpt>
      <trkpt lat="45.51025" lon="4.76392">
        <ele>373</ele>
        <time>2013-10-26T10:05:08Z</time>
      </trkpt>
      <trkpt lat="45.51025" lon="4.76391">
        <ele>373</ele>
        <time>2013-10-26T10:05:09Z</time>
      </trkpt>
      <trkpt lat="45.51025" lon="4.76391">
        <ele>373</ele>
        <time>2013-10-26T10:05:10Z</time>
      </trkpt>
      <trkpt lat="45.51025" lon="4.76391">
        <ele>373</ele>
        <time>2013-10-26T10:05:12Z</time>
      </trkpt>
      <trkpt lat="45.51025" lon="4.76391">
        <ele>373</ele>
        <time>2013-10-26T10:05:13Z</time>
      </trkpt>
      <trkpt lat="45.51027" lon="4.76379">
        <ele>374</ele>
        <time>2013-10-26T10:05:18Z</time>
      </trkpt>
      <trkpt lat="45.51026" lon="4.76375">
        <ele>374</ele>
        <time>2013-10-26T10:05:19Z</time>
      </trkpt>
      <trkpt lat="45.51029" lon="4.76377">
        <ele>374</ele>
        <time>2013-10-26T10:05:22Z</time>
      </trkpt>
      <trkpt lat="45.51029" lon="4.76377">
        <ele>374</ele>
        <time>2013-10-26T10:05:23Z</time>
      </trkpt>
      <trkpt lat="45.51029" lon="4.76376">
        <ele>374</ele>
        <time>2013-10-26T10:05:24Z</time>
      </trkpt>
      <trkpt lat="45.5103" lon="4.76373">
        <ele>374</ele>
        <time>2013-10-26T10:05:30Z</time>
      </trkpt>
      <trkpt lat="45.5103" lon="4.76373">
        <ele>374</ele>
        <time>2013-10-26T10:05:31Z</time>
      </trkpt>
      <trkpt lat="45.5103" lon="4.76372">
        <ele>374</ele>
        <time>2013-10-26T10:05:47Z</time>
      </trkpt>
      <trkpt lat="45.51029" lon="4.76372">
        <ele>374</ele>
        <time>2013-10-26T10:05:48Z</time>
      </trkpt>
      <trkpt lat="45.51035" lon="4.76362">
        <ele>375</ele>
        <time>2013-10-26T10:05:52Z</time>
      </trkpt>
      <trkpt lat="45.51035" lon="4.76359">
        <ele>375</ele>
        <time>2013-10-26T10:05:53Z</time>
      </trkpt>
      <trkpt lat="45.51037" lon="4.7635">
        <ele>375</ele>
        <time>2013-10-26T10:06:06Z</time>
      </trkpt>
      <trkpt lat="45.51037" lon="4.7635">
        <ele>375</ele>
        <time>2013-10-26T10:06:07Z</time>
      </trkpt>
      <trkpt lat="45.51037" lon="4.7635">
        <ele>375</ele>
        <time>2013-10-26T10:06:08Z</time>
      </trkpt>
      <trkpt lat="45.51038" lon="4.7635">
        <ele>375</ele>
        <time>2013-10-26T10:06:09Z</time>
      </trkpt>
      <trkpt lat="45.51033" lon="4.76339">
        <ele>376</ele>
        <time>2013-10-26T10:06:20Z</time>
      </trkpt>
      <trkpt lat="45.51032" lon="4.76339">
        <ele>376</ele>
        <time>2013-10-26T10:06:21Z</time>
      </trkpt>
      <trkpt lat="45.51029" lon="4.76338">
        <ele>376</ele>
        <time>2013-10-26T10:06:29Z</time>
      </trkpt>
      <trkpt lat="45.51029" lon="4.76338">
        <ele>376</ele>
        <time>2013-10-26T10:06:30Z</time>
      </trkpt>
      <trkpt lat="45.51029" lon="4.76338">
        <ele>376</ele>
        <time>2013-10-26T10:06:32Z</time>
      </trkpt>
      <trkpt lat="45.51029" lon="4.76338">
        <ele>376</ele>
        <time>2013-10-26T10:06:33Z</time>
      </trkpt>
      <trkpt lat="45.51028" lon="4.76338">
        <ele>376</ele>
        <time>2013-10-26T10:06:34Z</time>
      </trkpt>
      <trkpt lat="45.51028" lon="4.76338">
        <ele>376</ele>
        <time>2013-10-26T10:06:35Z</time>
      </trkpt>
      <trkpt lat="45.51029" lon="4.76338">
        <ele>376</ele>
        <time>2013-10-26T10:06:36Z</time>
      </trkpt>
      <trkpt lat="45.51029" lon="4.76338">
        <ele>376</ele>
        <time>2013-10-26T10:06:37Z</time>
      </trkpt>
      <trkpt lat="45.51029" lon="4.76338">
        <ele>376</ele>
        <time>2013-10-26T10:06:41Z</time>
      </trkpt>
      <trkpt lat="45.51029" lon="4.76338">
        <ele>376</ele>
        <time>2013-10-26T10:06:42Z</time>
      </trkpt>
      <trkpt lat="45.51029" lon="4.76338">
        <ele>376</ele>
        <time>2013-10-26T10:06:43Z</time>
      </trkpt>
      <trkpt lat="45.51028" lon="4.76337">
        <ele>376</ele>
        <time>2013-10-26T10:06:45Z</time>
      </trkpt>
      <trkpt lat="45.51029" lon="4.76338">
        <ele>376</ele>
        <time>2013-10-26T10:06:46Z</time>
      </trkpt>
      <trkpt lat="45.51025" lon="4.76327">
        <ele>381</ele>
        <time>2013-10-26T10:06:55Z</time>
      </trkpt>
      <trkpt lat="45.51025" lon="4.76326">
        <ele>381</ele>
        <time>2013-10-26T10:06:56Z</time>
      </trkpt>
      <trkpt lat="45.51023" lon="4.76323">
        <ele>381</ele>
        <time>2013-10-26T10:07:01Z</time>
      </trkpt>
      <trkpt lat="45.51023" lon="4.76323">
        <ele>381</ele>
        <time>2013-10-26T10:07:02Z</time>
      </trkpt>
      <trkpt lat="45.51023" lon="4.76323">
        <ele>381</ele>
        <time>2013-10-26T10:07:03Z</time>
      </trkpt>
      <trkpt lat="45.51023" lon="4.76323">
        <ele>381</ele>
        <time>2013-10-26T10:07:05Z</time>
      </trkpt>
      <trkpt lat="45.51023" lon="4.76323">
        <ele>381</ele>
        <time>2013-10-26T10:07:06Z</time>
      </trkpt>
      <trkpt lat="45.51022" lon="4.76322">
        <ele>381</ele>
        <time>2013-10-26T10:07:13Z</time>
      </trkpt>
      <trkpt lat="45.51021" lon="4.76318">
        <ele>381</ele>
        <time>2013-10-26T10:07:14Z</time>
      </trkpt>
      <trkpt lat="45.51017" lon="4.76308">
        <ele>382</ele>
        <time>2013-10-26T10:07:17Z</time>
      </trkpt>
      <trkpt lat="45.51017" lon="4.76306">
        <ele>382</ele>
        <time>2013-10-26T10:07:18Z</time>
      </trkpt>
      <trkpt lat="45.51014" lon="4.76296">
        <ele>383</ele>
        <time>2013-10-26T10:07:24Z</time>
      </trkpt>
      <trkpt lat="45.51013" lon="4.76294">
        <ele>383</ele>
        <time>2013-10-26T10:07:25Z</time>
      </trkpt>
      <trkpt lat="45.51008" lon="4.76284">
        <ele>384</ele>
        <time>2013-10-26T10:07:39Z</time>
      </trkpt>
      <trkpt lat="45.51008" lon="4.76284">
        <ele>384</ele>
        <time>2013-10-26T10:07:40Z</time>
      </trkpt>
      <trkpt lat="45.51008" lon="4.76283">
        <ele>384</ele>
        <time>2013-10-26T10:07:49Z</time>
      </trkpt>
      <trkpt lat="45.51008" lon="4.76283">
        <ele>384</ele>
        <time>2013-10-26T10:07:50Z</time>
      </trkpt>
      <trkpt lat="45.51008" lon="4.76283">
        <ele>384</ele>
        <time>2013-10-26T10:07:51Z</time>
      </trkpt>
      <trkpt lat="45.51008" lon="4.76283">
        <ele>384</ele>
        <time>2013-10-26T10:07:58Z</time>
      </trkpt>
      <trkpt lat="45.51008" lon="4.76283">
        <ele>384</ele>
        <time>2013-10-26T10:07:59Z</time>
      </trkpt>
      <trkpt lat="45.51004" lon="4.76272">
        <ele>386</ele>
        <time>2013-10-26T10:08:08Z</time>
      </trkpt>
      <trkpt lat="45.51004" lon="4.76271">
        <ele>386</ele>
        <time>2013-10-26T10:08:09Z</time>
      </trkpt>
      <trkpt lat="45.51003" lon="4.76269">
        <ele>386</ele>
        <time>2013-10-26T10:08:13Z</time>
      </trkpt>
      <trkpt lat="45.51003" lon="4.76268">
        <ele>386</ele>
        <time>2013-10-26T10:08:14Z</time>
      </trkpt>
      <trkpt lat="45.51003" lon="4.76268">
        <ele>386</ele>
        <time>2013-10-26T10:08:20Z</time>
      </trkpt>
      <trkpt lat="45.51003" lon="4.76266">
        <ele>387</ele>
        <time>2013-10-26T10:08:21Z</time>
      </trkpt>
      <trkpt lat="45.51001" lon="4.76262">
        <ele>388</ele>
        <time>2013-10-26T10:08:24Z</time>
      </trkpt>
      <trkpt lat="45.51001" lon="4.76262">
        <ele>388</ele>
        <time>2013-10-26T10:08:25Z</time>
      </trkpt>
      <trkpt lat="45.51001" lon="4.76261">
        <ele>388</ele>
        <time>2013-10-26T10:08:26Z</time>
      </trkpt>
      <trkpt lat="45.50999" lon="4.76257">
        <ele>391</ele>
        <time>2013-10-26T10:08:33Z</time>
      </trkpt>
      <trkpt lat="45.50999" lon="4.76257">
        <ele>391</ele>
        <time>2013-10-26T10:08:34Z</time>
      </trkpt>
      <trkpt lat="45.50999" lon="4.76257">
        <ele>391</ele>
        <time>2013-10-26T10:08:52Z</time>
      </trkpt>
      <trkpt lat="45.50999" lon="4.76256">
        <ele>391</ele>
        <time>2013-10-26T10:08:53Z</time>
      </trkpt>
      <trkpt lat="45.50994" lon="4.76247">
        <ele>394</ele>
        <time>2013-10-26T10:08:56Z</time>
      </trkpt>
      <trkpt lat="45.50992" lon="4.76244">
        <ele>395</ele>
        <time>2013-10-26T10:08:57Z</time>
      </trkpt>
      <trkpt lat="45.50986" lon="4.76238">
        <ele>396</ele>
        <time>2013-10-26T10:08:59Z</time>
      </trkpt>
      <trkpt lat="45.50982" lon="4.76234">
        <ele>397</ele>
        <time>2013-10-26T10:09:00Z</time>
      </trkpt>
      <trkpt lat="45.50976" lon="4.76227">
        <ele>398</ele>
        <time>2013-10-26T10:09:02Z</time>
      </trkpt>
      <trkpt lat="45.50973" lon="4.76222">
        <ele>398</ele>
        <time>2013-10-26T10:09:03Z</time>
      </trkpt>
      <trkpt lat="45.50968" lon="4.76215">
        <ele>399</ele>
        <time>2013-10-26T10:09:05Z</time>
      </trkpt>
      <trkpt lat="45.50965" lon="4.76212">
        <ele>399</ele>
        <time>2013-10-26T10:09:06Z</time>
      </trkpt>
      <trkpt lat="45.50959" lon="4.76202">
        <ele>400</ele>
        <time>2013-10-26T10:09:11Z</time>
      </trkpt>
      <trkpt lat="45.50959" lon="4.762">
        <ele>400</ele>
        <time>2013-10-26T10:09:12Z</time>
      </trkpt>
      <trkpt lat="45.50957" lon="4.76189">
        <ele>400</ele>
        <time>2013-10-26T10:09:19Z</time>
      </trkpt>
      <trkpt lat="45.50957" lon="4.76186">
        <ele>401</ele>
        <time>2013-10-26T10:09:20Z</time>
      </trkpt>
      <trkpt lat="45.50955" lon="4.76174">
        <ele>401</ele>
        <time>2013-10-26T10:09:27Z</time>
      </trkpt>
      <trkpt lat="45.50954" lon="4.76172">
        <ele>401</ele>
        <time>2013-10-26T10:09:28Z</time>
      </trkpt>
      <trkpt lat="45.50951" lon="4.76161">
        <ele>405</ele>
        <time>2013-10-26T10:09:36Z</time>
      </trkpt>
      <trkpt lat="45.5095" lon="4.76159">
        <ele>405</ele>
        <time>2013-10-26T10:09:37Z</time>
      </trkpt>
      <trkpt lat="45.50947" lon="4.76148">
        <ele>405</ele>
        <time>2013-10-26T10:09:44Z</time>
      </trkpt>
      <trkpt lat="45.50946" lon="4.76146">
        <ele>405</ele>
        <time>2013-10-26T10:09:45Z</time>
      </trkpt>
      <trkpt lat="45.50943" lon="4.76136">
        <ele>406</ele>
        <time>2013-10-26T10:09:49Z</time>
      </trkpt>
      <trkpt lat="45.50944" lon="4.76133">
        <ele>406</ele>
        <time>2013-10-26T10:09:50Z</time>
      </trkpt>
      <trkpt lat="45.50945" lon="4.76121">
        <ele>406</ele>
        <time>2013-10-26T10:09:56Z</time>
      </trkpt>
      <trkpt lat="45.50947" lon="4.76119">
        <ele>406</ele>
        <time>2013-10-26T10:09:57Z</time>
      </trkpt>
      <trkpt lat="45.50947" lon="4.76109">
        <ele>406</ele>
        <time>2013-10-26T10:10:01Z</time>
      </trkpt>
      <trkpt lat="45.50948" lon="4.76106">
        <ele>406</ele>
        <time>2013-10-26T10:10:02Z</time>
      </trkpt>
      <trkpt lat="45.50944" lon="4.76096">
        <ele>407</ele>
        <time>2013-10-26T10:10:06Z</time>
      </trkpt>
      <trkpt lat="45.50943" lon="4.76094">
        <ele>407</ele>
        <time>2013-10-26T10:10:07Z</time>
      </trkpt>
      <trkpt lat="45.5094" lon="4.76083">
        <ele>408</ele>
        <time>2013-10-26T10:10:13Z</time>
      </trkpt>
      <trkpt lat="45.50939" lon="4.76081">
        <ele>408</ele>
        <time>2013-10-26T10:10:14Z</time>
      </trkpt>
      <trkpt lat="45.50935" lon="4.76071">
        <ele>408</ele>
        <time>2013-10-26T10:10:20Z</time>
      </trkpt>
      <trkpt lat="45.50933" lon="4.76069">
        <ele>408</ele>
        <time>2013-10-26T10:10:21Z</time>
      </trkpt>
      <trkpt lat="45.5093" lon="4.7606">
        <ele>408</ele>
        <time>2013-10-26T10:10:25Z</time>
      </trkpt>
      <trkpt lat="45.50929" lon="4.76057">
        <ele>408</ele>
        <time>2013-10-26T10:10:26Z</time>
      </trkpt>
      <trkpt lat="45.50928" lon="4.76045">
        <ele>408</ele>
        <time>2013-10-26T10:10:30Z</time>
      </trkpt>
      <trkpt lat="45.50928" lon="4.76041">
        <ele>408</ele>
        <time>2013-10-26T10:10:31Z</time>
      </trkpt>
      <trkpt lat="45.5093" lon="4.7603">
        <ele>408</ele>
        <time>2013-10-26T10:10:35Z</time>
      </trkpt>
      <trkpt lat="45.50931" lon="4.76028">
        <ele>408</ele>
        <time>2013-10-26T10:10:36Z</time>
      </trkpt>
      <trkpt lat="45.50935" lon="4.76019">
        <ele>408</ele>
        <time>2013-10-26T10:10:39Z</time>
      </trkpt>
      <trkpt lat="45.50936" lon="4.76016">
        <ele>408</ele>
        <time>2013-10-26T10:10:40Z</time>
      </trkpt>
      <trkpt lat="45.50938" lon="4.76006">
        <ele>409</ele>
        <time>2013-10-26T10:10:42Z</time>
      </trkpt>
      <trkpt lat="45.50941" lon="4.76003">
        <ele>409</ele>
        <time>2013-10-26T10:10:43Z</time>
      </trkpt>
      <trkpt lat="45.50946" lon="4.75994">
        <ele>408</ele>
        <time>2013-10-26T10:10:46Z</time>
      </trkpt>
      <trkpt lat="45.50949" lon="4.75987">
        <ele>408</ele>
        <time>2013-10-26T10:10:47Z</time>
      </trkpt>
      <trkpt lat="45.50954" lon="4.75978">
        <ele>408</ele>
        <time>2013-10-26T10:10:49Z</time>
      </trkpt>
      <trkpt lat="45.50957" lon="4.75976">
        <ele>408</ele>
        <time>2013-10-26T10:10:50Z</time>
      </trkpt>
      <trkpt lat="45.50964" lon="4.7597">
        <ele>408</ele>
        <time>2013-10-26T10:10:52Z</time>
      </trkpt>
      <trkpt lat="45.50967" lon="4.75967">
        <ele>408</ele>
        <time>2013-10-26T10:10:53Z</time>
      </trkpt>
      <trkpt lat="45.50975" lon="4.75962">
        <ele>407</ele>
        <time>2013-10-26T10:10:55Z</time>
      </trkpt>
      <trkpt lat="45.50978" lon="4.7596">
        <ele>407</ele>
        <time>2013-10-26T10:10:56Z</time>
      </trkpt>
      <trkpt lat="45.50983" lon="4.75956">
        <ele>407</ele>
        <time>2013-10-26T10:10:58Z</time>
      </trkpt>
      <trkpt lat="45.50986" lon="4.75955">
        <ele>407</ele>
        <time>2013-10-26T10:10:59Z</time>
      </trkpt>
      <trkpt lat="45.50992" lon="4.75945">
        <ele>407</ele>
        <time>2013-10-26T10:11:02Z</time>
      </trkpt>
      <trkpt lat="45.50994" lon="4.75944">
        <ele>407</ele>
        <time>2013-10-26T10:11:03Z</time>
      </trkpt>
      <trkpt lat="45.51" lon="4.75936">
        <ele>406</ele>
        <time>2013-10-26T10:11:07Z</time>
      </trkpt>
      <trkpt lat="45.50999" lon="4.75931">
        <ele>406</ele>
        <time>2013-10-26T10:11:08Z</time>
      </trkpt>
      <trkpt lat="45.51005" lon="4.75923">
        <ele>404</ele>
        <time>2013-10-26T10:11:13Z</time>
      </trkpt>
      <trkpt lat="45.51006" lon="4.75921">
        <ele>405</ele>
        <time>2013-10-26T10:11:14Z</time>
      </trkpt>
      <trkpt lat="45.51013" lon="4.75917">
        <ele>404</ele>
        <time>2013-10-26T10:11:23Z</time>
      </trkpt>
      <trkpt lat="45.51014" lon="4.75918">
        <ele>404</ele>
        <time>2013-10-26T10:11:24Z</time>
      </trkpt>
      <trkpt lat="45.51013" lon="4.75917">
        <ele>404</ele>
        <time>2013-10-26T10:11:29Z</time>
      </trkpt>
      <trkpt lat="45.51013" lon="4.75917">
        <ele>404</ele>
        <time>2013-10-26T10:11:30Z</time>
      </trkpt>
      <trkpt lat="45.51015" lon="4.75917">
        <ele>404</ele>
        <time>2013-10-26T10:11:31Z</time>
      </trkpt>
      <trkpt lat="45.51016" lon="4.75917">
        <ele>404</ele>
        <time>2013-10-26T10:11:32Z</time>
      </trkpt>
      <trkpt lat="45.51016" lon="4.75906">
        <ele>402</ele>
        <time>2013-10-26T10:11:41Z</time>
      </trkpt>
      <trkpt lat="45.51015" lon="4.75902">
        <ele>402</ele>
        <time>2013-10-26T10:11:42Z</time>
      </trkpt>
      <trkpt lat="45.5101" lon="4.75891">
        <ele>401</ele>
        <time>2013-10-26T10:11:44Z</time>
      </trkpt>
      <trkpt lat="45.51007" lon="4.75887">
        <ele>401</ele>
        <time>2013-10-26T10:11:45Z</time>
      </trkpt>
      <trkpt lat="45.51002" lon="4.75879">
        <ele>401</ele>
        <time>2013-10-26T10:11:47Z</time>
      </trkpt>
      <trkpt lat="45.50997" lon="4.75873">
        <ele>403</ele>
        <time>2013-10-26T10:11:48Z</time>
      </trkpt>
      <trkpt lat="45.5099" lon="4.75866">
        <ele>403</ele>
        <time>2013-10-26T10:11:50Z</time>
      </trkpt>
      <trkpt lat="45.50986" lon="4.75858">
        <ele>402</ele>
        <time>2013-10-26T10:11:51Z</time>
      </trkpt>
      <trkpt lat="45.50981" lon="4.75854">
        <ele>402</ele>
        <time>2013-10-26T10:11:52Z</time>
      </trkpt>
      <trkpt lat="45.50978" lon="4.75848">
        <ele>402</ele>
        <time>2013-10-26T10:11:53Z</time>
      </trkpt>
      <trkpt lat="45.50974" lon="4.75844">
        <ele>402</ele>
        <time>2013-10-26T10:11:54Z</time>
      </trkpt>
      <trkpt lat="45.50969" lon="4.75838">
        <ele>402</ele>
        <time>2013-10-26T10:11:55Z</time>
      </trkpt>
      <trkpt lat="45.50965" lon="4.75832">
        <ele>398</ele>
        <time>2013-10-26T10:11:56Z</time>
      </trkpt>
      <trkpt lat="45.5096" lon="4.75827">
        <ele>398</ele>
        <time>2013-10-26T10:11:57Z</time>
      </trkpt>
      <trkpt lat="45.50957" lon="4.75822">
        <ele>398</ele>
        <time>2013-10-26T10:11:58Z</time>
      </trkpt>
      <trkpt lat="45.50953" lon="4.75814">
        <ele>398</ele>
        <time>2013-10-26T10:11:59Z</time>
      </trkpt>
      <trkpt lat="45.50949" lon="4.75805">
        <ele>398</ele>
        <time>2013-10-26T10:12:00Z</time>
      </trkpt>
      <trkpt lat="45.50947" lon="4.75794">
        <ele>397</ele>
        <time>2013-10-26T10:12:01Z</time>
      </trkpt>
      <trkpt lat="45.50945" lon="4.75784">
        <ele>397</ele>
        <time>2013-10-26T10:12:02Z</time>
      </trkpt>
      <trkpt lat="45.50942" lon="4.75771">
        <ele>396</ele>
        <time>2013-10-26T10:12:03Z</time>
      </trkpt>
      <trkpt lat="45.50942" lon="4.75756">
        <ele>396</ele>
        <time>2013-10-26T10:12:04Z</time>
      </trkpt>
      <trkpt lat="45.5094" lon="4.7575">
        <ele>391</ele>
        <time>2013-10-26T10:12:05Z</time>
      </trkpt>
      <trkpt lat="45.50937" lon="4.75742">
        <ele>391</ele>
        <time>2013-10-26T10:12:06Z</time>
      </trkpt>
      <trkpt lat="45.5092" lon="4.75765">
        <ele>396</ele>
        <time>2013-10-26T10:12:07Z</time>
      </trkpt>
      <trkpt lat="45.5091" lon="4.75764">
        <ele>396</ele>
        <time>2013-10-26T10:12:08Z</time>
      </trkpt>
      <trkpt lat="45.50903" lon="4.75756">
        <ele>396</ele>
        <time>2013-10-26T10:12:09Z</time>
      </trkpt>
      <trkpt lat="45.50898" lon="4.75753">
        <ele>396</ele>
        <time>2013-10-26T10:12:10Z</time>
      </trkpt>
      <trkpt lat="45.50893" lon="4.75749">
        <ele>392</ele>
        <time>2013-10-26T10:12:11Z</time>
      </trkpt>
      <trkpt lat="45.50888" lon="4.75742">
        <ele>392</ele>
        <time>2013-10-26T10:12:12Z</time>
      </trkpt>
      <trkpt lat="45.50884" lon="4.75731">
        <ele>391</ele>
        <time>2013-10-26T10:12:13Z</time>
      </trkpt>
      <trkpt lat="45.50879" lon="4.75724">
        <ele>390</ele>
        <time>2013-10-26T10:12:14Z</time>
      </trkpt>
      <trkpt lat="45.50872" lon="4.75714">
        <ele>390</ele>
        <time>2013-10-26T10:12:15Z</time>
      </trkpt>
      <trkpt lat="45.50867" lon="4.75704">
        <ele>389</ele>
        <time>2013-10-26T10:12:16Z</time>
      </trkpt>
      <trkpt lat="45.50856" lon="4.75706">
        <ele>389</ele>
        <time>2013-10-26T10:12:17Z</time>
      </trkpt>
      <trkpt lat="45.50849" lon="4.75701">
        <ele>389</ele>
        <time>2013-10-26T10:12:18Z</time>
      </trkpt>
      <trkpt lat="45.50842" lon="4.75696">
        <ele>389</ele>
        <time>2013-10-26T10:12:19Z</time>
      </trkpt>
      <trkpt lat="45.50833" lon="4.75694">
        <ele>388</ele>
        <time>2013-10-26T10:12:20Z</time>
      </trkpt>
      <trkpt lat="45.50825" lon="4.75693">
        <ele>386</ele>
        <time>2013-10-26T10:12:21Z</time>
      </trkpt>
      <trkpt lat="45.50818" lon="4.75695">
        <ele>386</ele>
        <time>2013-10-26T10:12:22Z</time>
      </trkpt>
      <trkpt lat="45.50809" lon="4.75694">
        <ele>385</ele>
        <time>2013-10-26T10:12:23Z</time>
      </trkpt>
      <trkpt lat="45.50799" lon="4.75697">
        <ele>385</ele>
        <time>2013-10-26T10:12:24Z</time>
      </trkpt>
      <trkpt lat="45.50791" lon="4.75695">
        <ele>385</ele>
        <time>2013-10-26T10:12:25Z</time>
      </trkpt>
      <trkpt lat="45.50783" lon="4.75693">
        <ele>384</ele>
        <time>2013-10-26T10:12:26Z</time>
      </trkpt>
      <trkpt lat="45.50774" lon="4.75691">
        <ele>384</ele>
        <time>2013-10-26T10:12:27Z</time>
      </trkpt>
      <trkpt lat="45.50767" lon="4.75691">
        <ele>384</ele>
        <time>2013-10-26T10:12:28Z</time>
      </trkpt>
      <trkpt lat="45.50761" lon="4.75689">
        <ele>384</ele>
        <time>2013-10-26T10:12:29Z</time>
      </trkpt>
      <trkpt lat="45.50754" lon="4.75684">
        <ele>383</ele>
        <time>2013-10-26T10:12:30Z</time>
      </trkpt>
      <trkpt lat="45.50747" lon="4.75677">
        <ele>381</ele>
        <time>2013-10-26T10:12:31Z</time>
      </trkpt>
      <trkpt lat="45.5074" lon="4.75675">
        <ele>380</ele>
        <time>2013-10-26T10:12:32Z</time>
      </trkpt>
      <trkpt lat="45.50735" lon="4.75667">
        <ele>380</ele>
        <time>2013-10-26T10:12:33Z</time>
      </trkpt>
      <trkpt lat="45.50729" lon="4.75662">
        <ele>378</ele>
        <time>2013-10-26T10:12:34Z</time>
      </trkpt>
      <trkpt lat="45.50722" lon="4.75659">
        <ele>377</ele>
        <time>2013-10-26T10:12:35Z</time>
      </trkpt>
      <trkpt lat="45.50715" lon="4.75658">
        <ele>377</ele>
        <time>2013-10-26T10:12:36Z</time>
      </trkpt>
      <trkpt lat="45.50708" lon="4.75655">
        <ele>376</ele>
        <time>2013-10-26T10:12:37Z</time>
      </trkpt>
      <trkpt lat="45.50701" lon="4.7565">
        <ele>376</ele>
        <time>2013-10-26T10:12:38Z</time>
      </trkpt>
      <trkpt lat="45.50693" lon="4.75647">
        <ele>376</ele>
        <time>2013-10-26T10:12:39Z</time>
      </trkpt>
      <trkpt lat="45.50687" lon="4.75643">
        <ele>376</ele>
        <time>2013-10-26T10:12:40Z</time>
      </trkpt>
      <trkpt lat="45.50683" lon="4.75637">
        <ele>375</ele>
        <time>2013-10-26T10:12:41Z</time>
      </trkpt>
      <trkpt lat="45.50675" lon="4.75636">
        <ele>375</ele>
        <time>2013-10-26T10:12:42Z</time>
      </trkpt>
      <trkpt lat="45.50667" lon="4.75637">
        <ele>375</ele>
        <time>2013-10-26T10:12:43Z</time>
      </trkpt>
      <trkpt lat="45.50661" lon="4.75639">
        <ele>374</ele>
        <time>2013-10-26T10:12:44Z</time>
      </trkpt>
      <trkpt lat="45.50655" lon="4.75641">
        <ele>373</ele>
        <time>2013-10-26T10:12:45Z</time>
      </trkpt>
      <trkpt lat="45.50647" lon="4.75641">
        <ele>373</ele>
        <time>2013-10-26T10:12:47Z</time>
      </trkpt>
      <trkpt lat="45.50639" lon="4.75645">
        <ele>373</ele>
        <time>2013-10-26T10:12:48Z</time>
      </trkpt>
      <trkpt lat="45.50632" lon="4.7565">
        <ele>373</ele>
        <time>2013-10-26T10:12:50Z</time>
      </trkpt>
      <trkpt lat="45.50628" lon="4.75649">
        <ele>373</ele>
        <time>2013-10-26T10:12:51Z</time>
      </trkpt>
      <trkpt lat="45.50622" lon="4.75642">
        <ele>372</ele>
        <time>2013-10-26T10:12:53Z</time>
      </trkpt>
      <trkpt lat="45.50618" lon="4.75642">
        <ele>372</ele>
        <time>2013-10-26T10:12:54Z</time>
      </trkpt>
      <trkpt lat="45.50613" lon="4.75639">
        <ele>372</ele>
        <time>2013-10-26T10:12:55Z</time>
      </trkpt>
      <trkpt lat="45.5061" lon="4.75635">
        <ele>371</ele>
        <time>2013-10-26T10:12:56Z</time>
      </trkpt>
      <trkpt lat="45.50598" lon="4.75654">
        <ele>372</ele>
        <time>2013-10-26T10:12:57Z</time>
      </trkpt>
      <trkpt lat="45.50592" lon="4.75654">
        <ele>372</ele>
        <time>2013-10-26T10:12:58Z</time>
      </trkpt>
      <trkpt lat="45.50586" lon="4.75655">
        <ele>372</ele>
        <time>2013-10-26T10:12:59Z</time>
      </trkpt>
      <trkpt lat="45.50571" lon="4.75671">
        <ele>368</ele>
        <time>2013-10-26T10:13:00Z</time>
      </trkpt>
      <trkpt lat="45.50563" lon="4.75668">
        <ele>366</ele>
        <time>2013-10-26T10:13:02Z</time>
      </trkpt>
      <trkpt lat="45.50557" lon="4.75668">
        <ele>365</ele>
        <time>2013-10-26T10:13:03Z</time>
      </trkpt>
      <trkpt lat="45.50552" lon="4.75668">
        <ele>364</ele>
        <time>2013-10-26T10:13:04Z</time>
      </trkpt>
      <trkpt lat="45.50546" lon="4.75668">
        <ele>363</ele>
        <time>2013-10-26T10:13:05Z</time>
      </trkpt>
      <trkpt lat="45.50539" lon="4.7567">
        <ele>362</ele>
        <time>2013-10-26T10:13:06Z</time>
      </trkpt>
      <trkpt lat="45.50538" lon="4.75656">
        <ele>363</ele>
        <time>2013-10-26T10:13:07Z</time>
      </trkpt>
      <trkpt lat="45.50531" lon="4.75651">
        <ele>362</ele>
        <time>2013-10-26T10:13:08Z</time>
      </trkpt>
      <trkpt lat="45.50529" lon="4.75644">
        <ele>362</ele>
        <time>2013-10-26T10:13:09Z</time>
      </trkpt>
      <trkpt lat="45.50526" lon="4.75638">
        <ele>362</ele>
        <time>2013-10-26T10:13:10Z</time>
      </trkpt>
      <trkpt lat="45.50525" lon="4.75629">
        <ele>362</ele>
        <time>2013-10-26T10:13:11Z</time>
      </trkpt>
      <trkpt lat="45.50526" lon="4.7562">
        <ele>362</ele>
        <time>2013-10-26T10:13:12Z</time>
      </trkpt>
      <trkpt lat="45.50528" lon="4.75611">
        <ele>361</ele>
        <time>2013-10-26T10:13:13Z</time>
      </trkpt>
      <trkpt lat="45.50531" lon="4.75603">
        <ele>361</ele>
        <time>2013-10-26T10:13:14Z</time>
      </trkpt>
      <trkpt lat="45.50536" lon="4.75597">
        <ele>362</ele>
        <time>2013-10-26T10:13:15Z</time>
      </trkpt>
      <trkpt lat="45.50541" lon="4.7559">
        <ele>362</ele>
        <time>2013-10-26T10:13:16Z</time>
      </trkpt>
      <trkpt lat="45.50548" lon="4.75583">
        <ele>357</ele>
        <time>2013-10-26T10:13:17Z</time>
      </trkpt>
      <trkpt lat="45.50554" lon="4.75575">
        <ele>357</ele>
        <time>2013-10-26T10:13:18Z</time>
      </trkpt>
      <trkpt lat="45.50561" lon="4.75567">
        <ele>358</ele>
        <time>2013-10-26T10:13:19Z</time>
      </trkpt>
      <trkpt lat="45.50569" lon="4.75561">
        <ele>358</ele>
        <time>2013-10-26T10:13:20Z</time>
      </trkpt>
      <trkpt lat="45.50578" lon="4.75555">
        <ele>357</ele>
        <time>2013-10-26T10:13:21Z</time>
      </trkpt>
      <trkpt lat="45.50586" lon="4.75548">
        <ele>359</ele>
        <time>2013-10-26T10:13:22Z</time>
      </trkpt>
      <trkpt lat="45.50595" lon="4.75542">
        <ele>359</ele>
        <time>2013-10-26T10:13:23Z</time>
      </trkpt>
      <trkpt lat="45.50605" lon="4.75538">
        <ele>358</ele>
        <time>2013-10-26T10:13:24Z</time>
      </trkpt>
      <trkpt lat="45.50617" lon="4.7553">
        <ele>358</ele>
        <time>2013-10-26T10:13:25Z</time>
      </trkpt>
      <trkpt lat="45.50626" lon="4.75526">
        <ele>357</ele>
        <time>2013-10-26T10:13:26Z</time>
      </trkpt>
      <trkpt lat="45.50642" lon="4.75524">
        <ele>357</ele>
        <time>2013-10-26T10:13:27Z</time>
      </trkpt>
      <trkpt lat="45.50654" lon="4.75522">
        <ele>356</ele>
        <time>2013-10-26T10:13:28Z</time>
      </trkpt>
      <trkpt lat="45.50665" lon="4.75517">
        <ele>355</ele>
        <time>2013-10-26T10:13:29Z</time>
      </trkpt>
      <trkpt lat="45.50677" lon="4.75511">
        <ele>355</ele>
        <time>2013-10-26T10:13:30Z</time>
      </trkpt>
      <trkpt lat="45.50688" lon="4.75508">
        <ele>356</ele>
        <time>2013-10-26T10:13:31Z</time>
      </trkpt>
      <trkpt lat="45.50698" lon="4.75504">
        <ele>356</ele>
        <time>2013-10-26T10:13:32Z</time>
      </trkpt>
      <trkpt lat="45.50706" lon="4.75504">
        <ele>356</ele>
        <time>2013-10-26T10:13:33Z</time>
      </trkpt>
      <trkpt lat="45.50714" lon="4.75509">
        <ele>356</ele>
        <time>2013-10-26T10:13:34Z</time>
      </trkpt>
      <trkpt lat="45.50723" lon="4.75511">
        <ele>356</ele>
        <time>2013-10-26T10:13:35Z</time>
      </trkpt>
      <trkpt lat="45.50729" lon="4.75511">
        <ele>355</ele>
        <time>2013-10-26T10:13:36Z</time>
      </trkpt>
      <trkpt lat="45.50734" lon="4.75511">
        <ele>355</ele>
        <time>2013-10-26T10:13:37Z</time>
      </trkpt>
      <trkpt lat="45.50738" lon="4.7551">
        <ele>354</ele>
        <time>2013-10-26T10:13:38Z</time>
      </trkpt>
      <trkpt lat="45.50742" lon="4.75503">
        <ele>352</ele>
        <time>2013-10-26T10:13:41Z</time>
      </trkpt>
      <trkpt lat="45.50742" lon="4.75496">
        <ele>350</ele>
        <time>2013-10-26T10:13:42Z</time>
      </trkpt>
      <trkpt lat="45.50732" lon="4.75489">
        <ele>350</ele>
        <time>2013-10-26T10:13:43Z</time>
      </trkpt>
      <trkpt lat="45.50726" lon="4.75485">
        <ele>350</ele>
        <time>2013-10-26T10:13:46Z</time>
      </trkpt>
      <trkpt lat="45.50724" lon="4.75484">
        <ele>351</ele>
        <time>2013-10-26T10:13:47Z</time>
      </trkpt>
      <trkpt lat="45.50722" lon="4.75479">
        <ele>351</ele>
        <time>2013-10-26T10:13:56Z</time>
      </trkpt>
      <trkpt lat="45.50716" lon="4.75477">
        <ele>351</ele>
        <time>2013-10-26T10:13:57Z</time>
      </trkpt>
      <trkpt lat="45.50722" lon="4.75473">
        <ele>351</ele>
        <time>2013-10-26T10:14:01Z</time>
      </trkpt>
      <trkpt lat="45.50725" lon="4.75474">
        <ele>351</ele>
        <time>2013-10-26T10:14:02Z</time>
      </trkpt>
      <trkpt lat="45.50733" lon="4.7547">
        <ele>351</ele>
        <time>2013-10-26T10:14:05Z</time>
      </trkpt>
      <trkpt lat="45.50737" lon="4.75471">
        <ele>351</ele>
        <time>2013-10-26T10:14:06Z</time>
      </trkpt>
      <trkpt lat="45.50741" lon="4.75464">
        <ele>351</ele>
        <time>2013-10-26T10:14:08Z</time>
      </trkpt>
      <trkpt lat="45.50744" lon="4.75462">
        <ele>351</ele>
        <time>2013-10-26T10:14:09Z</time>
      </trkpt>
      <trkpt lat="45.5075" lon="4.75457">
        <ele>351</ele>
        <time>2013-10-26T10:14:12Z</time>
      </trkpt>
      <trkpt lat="45.50753" lon="4.75458">
        <ele>351</ele>
        <time>2013-10-26T10:14:13Z</time>
      </trkpt>
      <trkpt lat="45.50756" lon="4.7545">
        <ele>351</ele>
        <time>2013-10-26T10:14:17Z</time>
      </trkpt>
      <trkpt lat="45.50757" lon="4.75439">
        <ele>351</ele>
        <time>2013-10-26T10:14:18Z</time>
      </trkpt>
      <trkpt lat="45.50754" lon="4.75429">
        <ele>351</ele>
        <time>2013-10-26T10:14:26Z</time>
      </trkpt>
      <trkpt lat="45.50754" lon="4.75428">
        <ele>351</ele>
        <time>2013-10-26T10:14:27Z</time>
      </trkpt>
      <trkpt lat="45.50754" lon="4.75428">
        <ele>351</ele>
        <time>2013-10-26T10:14:28Z</time>
      </trkpt>
      <trkpt lat="45.50747" lon="4.75425">
        <ele>350</ele>
        <time>2013-10-26T10:14:35Z</time>
      </trkpt>
      <trkpt lat="45.50744" lon="4.75423">
        <ele>350</ele>
        <time>2013-10-26T10:14:36Z</time>
      </trkpt>
      <trkpt lat="45.50737" lon="4.75416">
        <ele>353</ele>
        <time>2013-10-26T10:14:43Z</time>
      </trkpt>
      <trkpt lat="45.50734" lon="4.75415">
        <ele>354</ele>
        <time>2013-10-26T10:14:44Z</time>
      </trkpt>
      <trkpt lat="45.50728" lon="4.75411">
        <ele>355</ele>
        <time>2013-10-26T10:14:48Z</time>
      </trkpt>
      <trkpt lat="45.50726" lon="4.75411">
        <ele>355</ele>
        <time>2013-10-26T10:14:49Z</time>
      </trkpt>
      <trkpt lat="45.50718" lon="4.75407">
        <ele>356</ele>
        <time>2013-10-26T10:14:57Z</time>
      </trkpt>
      <trkpt lat="45.50716" lon="4.75407">
        <ele>356</ele>
        <time>2013-10-26T10:14:58Z</time>
      </trkpt>
      <trkpt lat="45.50707" lon="4.75404">
        <ele>357</ele>
        <time>2013-10-26T10:15:05Z</time>
      </trkpt>
      <trkpt lat="45.50707" lon="4.75403">
        <ele>357</ele>
        <time>2013-10-26T10:15:06Z</time>
      </trkpt>
      <trkpt lat="45.50699" lon="4.75397">
        <ele>358</ele>
        <time>2013-10-26T10:15:16Z</time>
      </trkpt>
      <trkpt lat="45.50696" lon="4.75396">
        <ele>358</ele>
        <time>2013-10-26T10:15:17Z</time>
      </trkpt>
      <trkpt lat="45.5069" lon="4.75395">
        <ele>358</ele>
        <time>2013-10-26T10:15:23Z</time>
      </trkpt>
      <trkpt lat="45.5069" lon="4.75395">
        <ele>358</ele>
        <time>2013-10-26T10:15:24Z</time>
      </trkpt>
      <trkpt lat="45.50689" lon="4.75394">
        <ele>358</ele>
        <time>2013-10-26T10:15:25Z</time>
      </trkpt>
      <trkpt lat="45.50686" lon="4.75394">
        <ele>358</ele>
        <time>2013-10-26T10:15:30Z</time>
      </trkpt>
      <trkpt lat="45.50686" lon="4.75394">
        <ele>358</ele>
        <time>2013-10-26T10:15:31Z</time>
      </trkpt>
      <trkpt lat="45.50686" lon="4.75393">
        <ele>358</ele>
        <time>2013-10-26T10:15:32Z</time>
      </trkpt>
      <trkpt lat="45.50685" lon="4.75393">
        <ele>358</ele>
        <time>2013-10-26T10:15:33Z</time>
      </trkpt>
      <trkpt lat="45.50679" lon="4.75389">
        <ele>358</ele>
        <time>2013-10-26T10:15:35Z</time>
      </trkpt>
      <trkpt lat="45.50676" lon="4.75386">
        <ele>359</ele>
        <time>2013-10-26T10:15:36Z</time>
      </trkpt>
      <trkpt lat="45.50667" lon="4.75384">
        <ele>359</ele>
        <time>2013-10-26T10:15:39Z</time>
      </trkpt>
      <trkpt lat="45.50666" lon="4.75385">
        <ele>358</ele>
        <time>2013-10-26T10:15:40Z</time>
      </trkpt>
      <trkpt lat="45.50657" lon="4.75383">
        <ele>358</ele>
        <time>2013-10-26T10:15:44Z</time>
      </trkpt>
      <trkpt lat="45.50653" lon="4.75381">
        <ele>358</ele>
        <time>2013-10-26T10:15:45Z</time>
      </trkpt>
      <trkpt lat="45.50646" lon="4.75378">
        <ele>358</ele>
        <time>2013-10-26T10:15:49Z</time>
      </trkpt>
      <trkpt lat="45.50645" lon="4.75377">
        <ele>358</ele>
        <time>2013-10-26T10:15:50Z</time>
      </trkpt>
      <trkpt lat="45.50638" lon="4.75372">
        <ele>358</ele>
        <time>2013-10-26T10:15:52Z</time>
      </trkpt>
      <trkpt lat="45.50635" lon="4.75371">
        <ele>358</ele>
        <time>2013-10-26T10:15:53Z</time>
      </trkpt>
      <trkpt lat="45.5064" lon="4.75361">
        <ele>359</ele>
        <time>2013-10-26T10:16:08Z</time>
      </trkpt>
      <trkpt lat="45.50644" lon="4.75362">
        <ele>359</ele>
        <time>2013-10-26T10:16:09Z</time>
      </trkpt>
      <trkpt lat="45.50651" lon="4.75363">
        <ele>360</ele>
        <time>2013-10-26T10:16:13Z</time>
      </trkpt>
      <trkpt lat="45.50653" lon="4.75363">
        <ele>360</ele>
        <time>2013-10-26T10:16:14Z</time>
      </trkpt>
      <trkpt lat="45.50659" lon="4.75357">
        <ele>361</ele>
        <time>2013-10-26T10:16:21Z</time>
      </trkpt>
      <trkpt lat="45.50662" lon="4.75357">
        <ele>361</ele>
        <time>2013-10-26T10:16:22Z</time>
      </trkpt>
      <trkpt lat="45.50666" lon="4.75353">
        <ele>362</ele>
        <time>2013-10-26T10:16:25Z</time>
      </trkpt>
      <trkpt lat="45.5067" lon="4.75352">
        <ele>363</ele>
        <time>2013-10-26T10:16:26Z</time>
      </trkpt>
      <trkpt lat="45.50669" lon="4.7534">
        <ele>366</ele>
        <time>2013-10-26T10:16:30Z</time>
      </trkpt>
      <trkpt lat="45.50668" lon="4.75336">
        <ele>367</ele>
        <time>2013-10-26T10:16:31Z</time>
      </trkpt>
      <trkpt lat="45.50666" lon="4.75324">
        <ele>368</ele>
        <time>2013-10-26T10:16:35Z</time>
      </trkpt>
      <trkpt lat="45.50666" lon="4.75321">
        <ele>367</ele>
        <time>2013-10-26T10:16:36Z</time>
      </trkpt>
      <trkpt lat="45.50663" lon="4.75312">
        <ele>367</ele>
        <time>2013-10-26T10:16:39Z</time>
      </trkpt>
      <trkpt lat="45.50662" lon="4.75309">
        <ele>367</ele>
        <time>2013-10-26T10:16:40Z</time>
      </trkpt>
      <trkpt lat="45.50659" lon="4.75297">
        <ele>368</ele>
        <time>2013-10-26T10:16:45Z</time>
      </trkpt>
      <trkpt lat="45.50661" lon="4.75294">
        <ele>368</ele>
        <time>2013-10-26T10:16:46Z</time>
      </trkpt>
      <trkpt lat="45.50661" lon="4.75282">
        <ele>369</ele>
        <time>2013-10-26T10:16:50Z</time>
      </trkpt>
      <trkpt lat="45.5066" lon="4.7528">
        <ele>369</ele>
        <time>2013-10-26T10:16:51Z</time>
      </trkpt>
      <trkpt lat="45.50663" lon="4.75269">
        <ele>370</ele>
        <time>2013-10-26T10:16:56Z</time>
      </trkpt>
      <trkpt lat="45.50664" lon="4.75266">
        <ele>370</ele>
        <time>2013-10-26T10:16:57Z</time>
      </trkpt>
      <trkpt lat="45.50666" lon="4.75255">
        <ele>373</ele>
        <time>2013-10-26T10:17:01Z</time>
      </trkpt>
      <trkpt lat="45.50667" lon="4.75252">
        <ele>373</ele>
        <time>2013-10-26T10:17:02Z</time>
      </trkpt>
      <trkpt lat="45.50667" lon="4.75241">
        <ele>375</ele>
        <time>2013-10-26T10:17:07Z</time>
      </trkpt>
      <trkpt lat="45.50666" lon="4.75238">
        <ele>374</ele>
        <time>2013-10-26T10:17:08Z</time>
      </trkpt>
      <trkpt lat="45.5066" lon="4.75232">
        <ele>373</ele>
        <time>2013-10-26T10:17:10Z</time>
      </trkpt>
      <trkpt lat="45.50659" lon="4.75228">
        <ele>373</ele>
        <time>2013-10-26T10:17:11Z</time>
      </trkpt>
      <trkpt lat="45.50655" lon="4.75218">
        <ele>373</ele>
        <time>2013-10-26T10:17:15Z</time>
      </trkpt>
      <trkpt lat="45.50654" lon="4.75217">
        <ele>373</ele>
        <time>2013-10-26T10:17:16Z</time>
      </trkpt>
      <trkpt lat="45.50649" lon="4.7521">
        <ele>374</ele>
        <time>2013-10-26T10:17:20Z</time>
      </trkpt>
      <trkpt lat="45.50648" lon="4.75207">
        <ele>374</ele>
        <time>2013-10-26T10:17:21Z</time>
      </trkpt>
      <trkpt lat="45.50647" lon="4.75198">
        <ele>374</ele>
        <time>2013-10-26T10:17:25Z</time>
      </trkpt>
      <trkpt lat="45.50643" lon="4.75195">
        <ele>374</ele>
        <time>2013-10-26T10:17:26Z</time>
      </trkpt>
      <trkpt lat="45.50638" lon="4.7519">
        <ele>374</ele>
        <time>2013-10-26T10:17:28Z</time>
      </trkpt>
      <trkpt lat="45.50635" lon="4.75189">
        <ele>374</ele>
        <time>2013-10-26T10:17:29Z</time>
      </trkpt>
      <trkpt lat="45.50628" lon="4.75182">
        <ele>373</ele>
        <time>2013-10-26T10:17:32Z</time>
      </trkpt>
      <trkpt lat="45.50625" lon="4.7518">
        <ele>373</ele>
        <time>2013-10-26T10:17:33Z</time>
      </trkpt>
      <trkpt lat="45.50621" lon="4.75172">
        <ele>373</ele>
        <time>2013-10-26T10:17:36Z</time>
      </trkpt>
      <trkpt lat="45.50619" lon="4.7517">
        <ele>373</ele>
        <time>2013-10-26T10:17:37Z</time>
      </trkpt>
      <trkpt lat="45.50615" lon="4.75161">
        <ele>375</ele>
        <time>2013-10-26T10:17:41Z</time>
      </trkpt>
      <trkpt lat="45.50613" lon="4.75158">
        <ele>375</ele>
        <time>2013-10-26T10:17:42Z</time>
      </trkpt>
      <trkpt lat="45.5061" lon="4.75148">
        <ele>375</ele>
        <time>2013-10-26T10:17:48Z</time>
      </trkpt>
      <trkpt lat="45.50609" lon="4.75146">
        <ele>375</ele>
        <time>2013-10-26T10:17:49Z</time>
      </trkpt>
      <trkpt lat="45.50604" lon="4.75138">
        <ele>375</ele>
        <time>2013-10-26T10:17:53Z</time>
      </trkpt>
      <trkpt lat="45.50601" lon="4.75134">
        <ele>375</ele>
        <time>2013-10-26T10:17:54Z</time>
      </trkpt>
      <trkpt lat="45.50596" lon="4.75126">
        <ele>375</ele>
        <time>2013-10-26T10:17:56Z</time>
      </trkpt>
      <trkpt lat="45.50594" lon="4.75122">
        <ele>375</ele>
        <time>2013-10-26T10:17:57Z</time>
      </trkpt>
      <trkpt lat="45.5059" lon="4.75114">
        <ele>375</ele>
        <time>2013-10-26T10:17:59Z</time>
      </trkpt>
      <trkpt lat="45.50588" lon="4.7511">
        <ele>375</ele>
        <time>2013-10-26T10:18:00Z</time>
      </trkpt>
      <trkpt lat="45.50585" lon="4.75099">
        <ele>374</ele>
        <time>2013-10-26T10:18:02Z</time>
      </trkpt>
      <trkpt lat="45.50583" lon="4.75094">
        <ele>371</ele>
        <time>2013-10-26T10:18:03Z</time>
      </trkpt>
      <trkpt lat="45.50579" lon="4.75083">
        <ele>372</ele>
        <time>2013-10-26T10:18:05Z</time>
      </trkpt>
      <trkpt lat="45.50578" lon="4.75078">
        <ele>371</ele>
        <time>2013-10-26T10:18:06Z</time>
      </trkpt>
      <trkpt lat="45.50576" lon="4.75071">
        <ele>370</ele>
        <time>2013-10-26T10:18:07Z</time>
      </trkpt>
      <trkpt lat="45.50576" lon="4.75064">
        <ele>369</ele>
        <time>2013-10-26T10:18:08Z</time>
      </trkpt>
      <trkpt lat="45.50577" lon="4.75056">
        <ele>368</ele>
        <time>2013-10-26T10:18:09Z</time>
      </trkpt>
      <trkpt lat="45.50578" lon="4.75049">
        <ele>368</ele>
        <time>2013-10-26T10:18:10Z</time>
      </trkpt>
      <trkpt lat="45.50579" lon="4.75042">
        <ele>367</ele>
        <time>2013-10-26T10:18:11Z</time>
      </trkpt>
      <trkpt lat="45.5058" lon="4.75033">
        <ele>367</ele>
        <time>2013-10-26T10:18:12Z</time>
      </trkpt>
      <trkpt lat="45.50584" lon="4.75025">
        <ele>372</ele>
        <time>2013-10-26T10:18:13Z</time>
      </trkpt>
      <trkpt lat="45.50586" lon="4.75016">
        <ele>371</ele>
        <time>2013-10-26T10:18:14Z</time>
      </trkpt>
      <trkpt lat="45.50588" lon="4.75006">
        <ele>370</ele>
        <time>2013-10-26T10:18:15Z</time>
      </trkpt>
      <trkpt lat="45.50591" lon="4.74997">
        <ele>369</ele>
        <time>2013-10-26T10:18:16Z</time>
      </trkpt>
      <trkpt lat="45.50595" lon="4.74988">
        <ele>369</ele>
        <time>2013-10-26T10:18:17Z</time>
      </trkpt>
      <trkpt lat="45.50601" lon="4.74979">
        <ele>369</ele>
        <time>2013-10-26T10:18:18Z</time>
      </trkpt>
      <trkpt lat="45.50608" lon="4.7497">
        <ele>369</ele>
        <time>2013-10-26T10:18:19Z</time>
      </trkpt>
      <trkpt lat="45.50615" lon="4.74963">
        <ele>369</ele>
        <time>2013-10-26T10:18:20Z</time>
      </trkpt>
      <trkpt lat="45.50623" lon="4.74956">
        <ele>369</ele>
        <time>2013-10-26T10:18:21Z</time>
      </trkpt>
      <trkpt lat="45.50631" lon="4.7495">
        <ele>369</ele>
        <time>2013-10-26T10:18:22Z</time>
      </trkpt>
      <trkpt lat="45.5064" lon="4.74945">
        <ele>369</ele>
        <time>2013-10-26T10:18:23Z</time>
      </trkpt>
      <trkpt lat="45.50648" lon="4.74939">
        <ele>370</ele>
        <time>2013-10-26T10:18:24Z</time>
      </trkpt>
      <trkpt lat="45.50655" lon="4.74934">
        <ele>370</ele>
        <time>2013-10-26T10:18:25Z</time>
      </trkpt>
      <trkpt lat="45.50659" lon="4.74922">
        <ele>370</ele>
        <time>2013-10-26T10:18:27Z</time>
      </trkpt>
      <trkpt lat="45.50657" lon="4.74916">
        <ele>369</ele>
        <time>2013-10-26T10:18:28Z</time>
      </trkpt>
      <trkpt lat="45.50655" lon="4.74909">
        <ele>369</ele>
        <time>2013-10-26T10:18:29Z</time>
      </trkpt>
      <trkpt lat="45.50654" lon="4.749">
        <ele>369</ele>
        <time>2013-10-26T10:18:30Z</time>
      </trkpt>
      <trkpt lat="45.50654" lon="4.74893">
        <ele>369</ele>
        <time>2013-10-26T10:18:31Z</time>
      </trkpt>
      <trkpt lat="45.50657" lon="4.74883">
        <ele>369</ele>
        <time>2013-10-26T10:18:32Z</time>
      </trkpt>
      <trkpt lat="45.50657" lon="4.74873">
        <ele>369</ele>
        <time>2013-10-26T10:18:33Z</time>
      </trkpt>
      <trkpt lat="45.50657" lon="4.74867">
        <ele>369</ele>
        <time>2013-10-26T10:18:34Z</time>
      </trkpt>
      <trkpt lat="45.50657" lon="4.74856">
        <ele>370</ele>
        <time>2013-10-26T10:18:35Z</time>
      </trkpt>
      <trkpt lat="45.50655" lon="4.74853">
        <ele>370</ele>
        <time>2013-10-26T10:18:36Z</time>
      </trkpt>
      <trkpt lat="45.50647" lon="4.74848">
        <ele>370</ele>
        <time>2013-10-26T10:18:40Z</time>
      </trkpt>
      <trkpt lat="45.50643" lon="4.7485">
        <ele>370</ele>
        <time>2013-10-26T10:18:41Z</time>
      </trkpt>
      <trkpt lat="45.50638" lon="4.7485">
        <ele>369</ele>
        <time>2013-10-26T10:18:43Z</time>
      </trkpt>
      <trkpt lat="45.5062" lon="4.74846">
        <ele>369</ele>
        <time>2013-10-26T10:18:44Z</time>
      </trkpt>
      <trkpt lat="45.50612" lon="4.74843">
        <ele>369</ele>
        <time>2013-10-26T10:18:45Z</time>
      </trkpt>
      <trkpt lat="45.50605" lon="4.74844">
        <ele>369</ele>
        <time>2013-10-26T10:18:46Z</time>
      </trkpt>
      <trkpt lat="45.50598" lon="4.74847">
        <ele>369</ele>
        <time>2013-10-26T10:18:47Z</time>
      </trkpt>
      <trkpt lat="45.50596" lon="4.74847">
        <ele>369</ele>
        <time>2013-10-26T10:18:48Z</time>
      </trkpt>
      <trkpt lat="45.50587" lon="4.74848">
        <ele>370</ele>
        <time>2013-10-26T10:18:49Z</time>
      </trkpt>
      <trkpt lat="45.50582" lon="4.74851">
        <ele>370</ele>
        <time>2013-10-26T10:18:50Z</time>
      </trkpt>
      <trkpt lat="45.50577" lon="4.74854">
        <ele>370</ele>
        <time>2013-10-26T10:18:51Z</time>
      </trkpt>
      <trkpt lat="45.50571" lon="4.74858">
        <ele>370</ele>
        <time>2013-10-26T10:18:52Z</time>
      </trkpt>
      <trkpt lat="45.50566" lon="4.74861">
        <ele>370</ele>
        <time>2013-10-26T10:18:54Z</time>
      </trkpt>
      <trkpt lat="45.50563" lon="4.74863">
        <ele>370</ele>
        <time>2013-10-26T10:18:55Z</time>
      </trkpt>
      <trkpt lat="45.50556" lon="4.74869">
        <ele>370</ele>
        <time>2013-10-26T10:18:57Z</time>
      </trkpt>
      <trkpt lat="45.50553" lon="4.7487">
        <ele>370</ele>
        <time>2013-10-26T10:18:58Z</time>
      </trkpt>
      <trkpt lat="45.50547" lon="4.74874">
        <ele>370</ele>
        <time>2013-10-26T10:19:00Z</time>
      </trkpt>
      <trkpt lat="45.50544" lon="4.74876">
        <ele>370</ele>
        <time>2013-10-26T10:19:01Z</time>
      </trkpt>
      <trkpt lat="45.50537" lon="4.74879">
        <ele>370</ele>
        <time>2013-10-26T10:19:04Z</time>
      </trkpt>
      <trkpt lat="45.50533" lon="4.7488">
        <ele>370</ele>
        <time>2013-10-26T10:19:05Z</time>
      </trkpt>
      <trkpt lat="45.50527" lon="4.74879">
        <ele>370</ele>
        <time>2013-10-26T10:19:07Z</time>
      </trkpt>
      <trkpt lat="45.50524" lon="4.74879">
        <ele>370</ele>
        <time>2013-10-26T10:19:08Z</time>
      </trkpt>
      <trkpt lat="45.50516" lon="4.7488">
        <ele>370</ele>
        <time>2013-10-26T10:19:10Z</time>
      </trkpt>
      <trkpt lat="45.50513" lon="4.7488">
        <ele>370</ele>
        <time>2013-10-26T10:19:11Z</time>
      </trkpt>
      <trkpt lat="45.50505" lon="4.74882">
        <ele>370</ele>
        <time>2013-10-26T10:19:13Z</time>
      </trkpt>
      <trkpt lat="45.50504" lon="4.74884">
        <ele>370</ele>
        <time>2013-10-26T10:19:14Z</time>
      </trkpt>
      <trkpt lat="45.50497" lon="4.74889">
        <ele>374</ele>
        <time>2013-10-26T10:19:17Z</time>
      </trkpt>
      <trkpt lat="45.50495" lon="4.7489">
        <ele>373</ele>
        <time>2013-10-26T10:19:18Z</time>
      </trkpt>
      <trkpt lat="45.50488" lon="4.74897">
        <ele>373</ele>
        <time>2013-10-26T10:19:22Z</time>
      </trkpt>
      <trkpt lat="45.50486" lon="4.74899">
        <ele>373</ele>
        <time>2013-10-26T10:19:23Z</time>
      </trkpt>
      <trkpt lat="45.50479" lon="4.74907">
        <ele>373</ele>
        <time>2013-10-26T10:19:28Z</time>
      </trkpt>
      <trkpt lat="45.50477" lon="4.74908">
        <ele>373</ele>
        <time>2013-10-26T10:19:29Z</time>
      </trkpt>
      <trkpt lat="45.50471" lon="4.74916">
        <ele>374</ele>
        <time>2013-10-26T10:19:35Z</time>
      </trkpt>
      <trkpt lat="45.5047" lon="4.74918">
        <ele>369</ele>
        <time>2013-10-26T10:19:36Z</time>
      </trkpt>
      <trkpt lat="45.50462" lon="4.7492">
        <ele>370</ele>
        <time>2013-10-26T10:19:39Z</time>
      </trkpt>
      <trkpt lat="45.50459" lon="4.7492">
        <ele>370</ele>
        <time>2013-10-26T10:19:40Z</time>
      </trkpt>
      <trkpt lat="45.50451" lon="4.74922">
        <ele>370</ele>
        <time>2013-10-26T10:19:43Z</time>
      </trkpt>
      <trkpt lat="45.50448" lon="4.74921">
        <ele>371</ele>
        <time>2013-10-26T10:19:44Z</time>
      </trkpt>
      <trkpt lat="45.50439" lon="4.74924">
        <ele>372</ele>
        <time>2013-10-26T10:19:47Z</time>
      </trkpt>
      <trkpt lat="45.50435" lon="4.74925">
        <ele>372</ele>
        <time>2013-10-26T10:19:48Z</time>
      </trkpt>
      <trkpt lat="45.50431" lon="4.74916">
        <ele>376</ele>
        <time>2013-10-26T10:19:52Z</time>
      </trkpt>
      <trkpt lat="45.5043" lon="4.74913">
        <ele>376</ele>
        <time>2013-10-26T10:19:53Z</time>
      </trkpt>
      <trkpt lat="45.50428" lon="4.74901">
        <ele>376</ele>
        <time>2013-10-26T10:19:59Z</time>
      </trkpt>
      <trkpt lat="45.50428" lon="4.74899">
        <ele>376</ele>
        <time>2013-10-26T10:20:00Z</time>
      </trkpt>
      <trkpt lat="45.50425" lon="4.74891">
        <ele>377</ele>
        <time>2013-10-26T10:20:04Z</time>
      </trkpt>
      <trkpt lat="45.50424" lon="4.74887">
        <ele>377</ele>
        <time>2013-10-26T10:20:05Z</time>
      </trkpt>
      <trkpt lat="45.5042" lon="4.74879">
        <ele>377</ele>
        <time>2013-10-26T10:20:08Z</time>
      </trkpt>
      <trkpt lat="45.50419" lon="4.74875">
        <ele>377</ele>
        <time>2013-10-26T10:20:09Z</time>
      </trkpt>
      <trkpt lat="45.50415" lon="4.74867">
        <ele>379</ele>
        <time>2013-10-26T10:20:12Z</time>
      </trkpt>
      <trkpt lat="45.50414" lon="4.74865">
        <ele>379</ele>
        <time>2013-10-26T10:20:13Z</time>
      </trkpt>
      <trkpt lat="45.5041" lon="4.74857">
        <ele>380</ele>
        <time>2013-10-26T10:20:15Z</time>
      </trkpt>
      <trkpt lat="45.50409" lon="4.74854">
        <ele>380</ele>
        <time>2013-10-26T10:20:16Z</time>
      </trkpt>
      <trkpt lat="45.50406" lon="4.74843">
        <ele>380</ele>
        <time>2013-10-26T10:20:19Z</time>
      </trkpt>
      <trkpt lat="45.50405" lon="4.74839">
        <ele>380</ele>
        <time>2013-10-26T10:20:20Z</time>
      </trkpt>
      <trkpt lat="45.50401" lon="4.74831">
        <ele>380</ele>
        <time>2013-10-26T10:20:23Z</time>
      </trkpt>
      <trkpt lat="45.504" lon="4.74828">
        <ele>380</ele>
        <time>2013-10-26T10:20:24Z</time>
      </trkpt>
      <trkpt lat="45.50396" lon="4.74819">
        <ele>380</ele>
        <time>2013-10-26T10:20:27Z</time>
      </trkpt>
      <trkpt lat="45.50395" lon="4.74817">
        <ele>379</ele>
        <time>2013-10-26T10:20:28Z</time>
      </trkpt>
      <trkpt lat="45.50392" lon="4.74808">
        <ele>379</ele>
        <time>2013-10-26T10:20:31Z</time>
      </trkpt>
      <trkpt lat="45.50389" lon="4.74803">
        <ele>379</ele>
        <time>2013-10-26T10:20:32Z</time>
      </trkpt>
      <trkpt lat="45.50384" lon="4.74794">
        <ele>379</ele>
        <time>2013-10-26T10:20:36Z</time>
      </trkpt>
      <trkpt lat="45.50382" lon="4.7479">
        <ele>379</ele>
        <time>2013-10-26T10:20:37Z</time>
      </trkpt>
      <trkpt lat="45.50382" lon="4.74779">
        <ele>379</ele>
        <time>2013-10-26T10:20:40Z</time>
      </trkpt>
      <trkpt lat="45.50383" lon="4.74776">
        <ele>379</ele>
        <time>2013-10-26T10:20:41Z</time>
      </trkpt>
      <trkpt lat="45.50387" lon="4.74765">
        <ele>379</ele>
        <time>2013-10-26T10:20:44Z</time>
      </trkpt>
      <trkpt lat="45.5039" lon="4.74762">
        <ele>379</ele>
        <time>2013-10-26T10:20:45Z</time>
      </trkpt>
      <trkpt lat="45.50395" lon="4.74753">
        <ele>380</ele>
        <time>2013-10-26T10:20:48Z</time>
      </trkpt>
      <trkpt lat="45.50398" lon="4.74752">
        <ele>380</ele>
        <time>2013-10-26T10:20:49Z</time>
      </trkpt>
      <trkpt lat="45.50404" lon="4.74747">
        <ele>380</ele>
        <time>2013-10-26T10:20:51Z</time>
      </trkpt>
      <trkpt lat="45.50409" lon="4.74743">
        <ele>380</ele>
        <time>2013-10-26T10:20:52Z</time>
      </trkpt>
      <trkpt lat="45.50412" lon="4.7474">
        <ele>380</ele>
        <time>2013-10-26T10:20:53Z</time>
      </trkpt>
      <trkpt lat="45.50417" lon="4.74738">
        <ele>383</ele>
        <time>2013-10-26T10:20:54Z</time>
      </trkpt>
      <trkpt lat="45.50426" lon="4.74734">
        <ele>383</ele>
        <time>2013-10-26T10:20:56Z</time>
      </trkpt>
      <trkpt lat="45.50429" lon="4.7473">
        <ele>383</ele>
        <time>2013-10-26T10:20:57Z</time>
      </trkpt>
      <trkpt lat="45.50434" lon="4.74728">
        <ele>383</ele>
        <time>2013-10-26T10:20:58Z</time>
      </trkpt>
      <trkpt lat="45.50438" lon="4.74723">
        <ele>383</ele>
        <time>2013-10-26T10:20:59Z</time>
      </trkpt>
      <trkpt lat="45.50444" lon="4.74715">
        <ele>383</ele>
        <time>2013-10-26T10:21:01Z</time>
      </trkpt>
      <trkpt lat="45.50447" lon="4.74712">
        <ele>383</ele>
        <time>2013-10-26T10:21:02Z</time>
      </trkpt>
      <trkpt lat="45.50455" lon="4.74709">
        <ele>384</ele>
        <time>2013-10-26T10:21:04Z</time>
      </trkpt>
      <trkpt lat="45.5046" lon="4.74707">
        <ele>384</ele>
        <time>2013-10-26T10:21:05Z</time>
      </trkpt>
      <trkpt lat="45.50466" lon="4.74703">
        <ele>384</ele>
        <time>2013-10-26T10:21:07Z</time>
      </trkpt>
      <trkpt lat="45.50471" lon="4.74701">
        <ele>384</ele>
        <time>2013-10-26T10:21:08Z</time>
      </trkpt>
      <trkpt lat="45.50479" lon="4.74695">
        <ele>384</ele>
        <time>2013-10-26T10:21:10Z</time>
      </trkpt>
      <trkpt lat="45.50482" lon="4.74691">
        <ele>385</ele>
        <time>2013-10-26T10:21:11Z</time>
      </trkpt>
      <trkpt lat="45.50488" lon="4.74686">
        <ele>385</ele>
        <time>2013-10-26T10:21:13Z</time>
      </trkpt>
      <trkpt lat="45.50491" lon="4.74684">
        <ele>385</ele>
        <time>2013-10-26T10:21:14Z</time>
      </trkpt>
      <trkpt lat="45.50496" lon="4.7468">
        <ele>386</ele>
        <time>2013-10-26T10:21:15Z</time>
      </trkpt>
      <trkpt lat="45.50499" lon="4.74677">
        <ele>386</ele>
        <time>2013-10-26T10:21:16Z</time>
      </trkpt>
      <trkpt lat="45.50503" lon="4.74668">
        <ele>387</ele>
        <time>2013-10-26T10:21:18Z</time>
      </trkpt>
      <trkpt lat="45.50504" lon="4.74663">
        <ele>387</ele>
        <time>2013-10-26T10:21:19Z</time>
      </trkpt>
      <trkpt lat="45.50508" lon="4.74655">
        <ele>388</ele>
        <time>2013-10-26T10:21:21Z</time>
      </trkpt>
      <trkpt lat="45.50509" lon="4.74649">
        <ele>388</ele>
        <time>2013-10-26T10:21:22Z</time>
      </trkpt>
      <trkpt lat="45.50512" lon="4.74638">
        <ele>388</ele>
        <time>2013-10-26T10:21:24Z</time>
      </trkpt>
      <trkpt lat="45.50516" lon="4.74632">
        <ele>389</ele>
        <time>2013-10-26T10:21:25Z</time>
      </trkpt>
      <trkpt lat="45.50517" lon="4.74626">
        <ele>389</ele>
        <time>2013-10-26T10:21:26Z</time>
      </trkpt>
      <trkpt lat="45.5052" lon="4.74619">
        <ele>389</ele>
        <time>2013-10-26T10:21:27Z</time>
      </trkpt>
      <trkpt lat="45.50522" lon="4.74607">
        <ele>389</ele>
        <time>2013-10-26T10:21:29Z</time>
      </trkpt>
      <trkpt lat="45.50525" lon="4.746">
        <ele>389</ele>
        <time>2013-10-26T10:21:30Z</time>
      </trkpt>
      <trkpt lat="45.50527" lon="4.74591">
        <ele>389</ele>
        <time>2013-10-26T10:21:32Z</time>
      </trkpt>
      <trkpt lat="45.50529" lon="4.74587">
        <ele>389</ele>
        <time>2013-10-26T10:21:33Z</time>
      </trkpt>
      <trkpt lat="45.50536" lon="4.7458">
        <ele>390</ele>
        <time>2013-10-26T10:21:35Z</time>
      </trkpt>
      <trkpt lat="45.50538" lon="4.74577">
        <ele>390</ele>
        <time>2013-10-26T10:21:36Z</time>
      </trkpt>
      <trkpt lat="45.50545" lon="4.7457">
        <ele>390</ele>
        <time>2013-10-26T10:21:38Z</time>
      </trkpt>
      <trkpt lat="45.50551" lon="4.74567">
        <ele>390</ele>
        <time>2013-10-26T10:21:39Z</time>
      </trkpt>
      <trkpt lat="45.50558" lon="4.74561">
        <ele>390</ele>
        <time>2013-10-26T10:21:41Z</time>
      </trkpt>
      <trkpt lat="45.5056" lon="4.74559">
        <ele>390</ele>
        <time>2013-10-26T10:21:42Z</time>
      </trkpt>
      <trkpt lat="45.50567" lon="4.74554">
        <ele>390</ele>
        <time>2013-10-26T10:21:44Z</time>
      </trkpt>
      <trkpt lat="45.50571" lon="4.74552">
        <ele>390</ele>
        <time>2013-10-26T10:21:45Z</time>
      </trkpt>
      <trkpt lat="45.50577" lon="4.74547">
        <ele>390</ele>
        <time>2013-10-26T10:21:47Z</time>
      </trkpt>
      <trkpt lat="45.5058" lon="4.74545">
        <ele>390</ele>
        <time>2013-10-26T10:21:48Z</time>
      </trkpt>
      <trkpt lat="45.50585" lon="4.74539">
        <ele>390</ele>
        <time>2013-10-26T10:21:50Z</time>
      </trkpt>
      <trkpt lat="45.50588" lon="4.74537">
        <ele>390</ele>
        <time>2013-10-26T10:21:51Z</time>
      </trkpt>
      <trkpt lat="45.50594" lon="4.74534">
        <ele>390</ele>
        <time>2013-10-26T10:21:53Z</time>
      </trkpt>
      <trkpt lat="45.50599" lon="4.74531">
        <ele>390</ele>
        <time>2013-10-26T10:21:54Z</time>
      </trkpt>
      <trkpt lat="45.50602" lon="4.74528">
        <ele>390</ele>
        <time>2013-10-26T10:21:55Z</time>
      </trkpt>
      <trkpt lat="45.50608" lon="4.74527">
        <ele>390</ele>
        <time>2013-10-26T10:21:56Z</time>
      </trkpt>
      <trkpt lat="45.50612" lon="4.74524">
        <ele>390</ele>
        <time>2013-10-26T10:21:57Z</time>
      </trkpt>
      <trkpt lat="45.50617" lon="4.74522">
        <ele>390</ele>
        <time>2013-10-26T10:21:58Z</time>
      </trkpt>
      <trkpt lat="45.50624" lon="4.74515">
        <ele>390</ele>
        <time>2013-10-26T10:22:00Z</time>
      </trkpt>
      <trkpt lat="45.50629" lon="4.74514">
        <ele>390</ele>
        <time>2013-10-26T10:22:01Z</time>
      </trkpt>
      <trkpt lat="45.50636" lon="4.74507">
        <ele>390</ele>
        <time>2013-10-26T10:22:03Z</time>
      </trkpt>
      <trkpt lat="45.50641" lon="4.74506">
        <ele>390</ele>
        <time>2013-10-26T10:22:04Z</time>
      </trkpt>
      <trkpt lat="45.50646" lon="4.74502">
        <ele>390</ele>
        <time>2013-10-26T10:22:05Z</time>
      </trkpt>
      <trkpt lat="45.5065" lon="4.74501">
        <ele>390</ele>
        <time>2013-10-26T10:22:06Z</time>
      </trkpt>
      <trkpt lat="45.50655" lon="4.74498">
        <ele>390</ele>
        <time>2013-10-26T10:22:07Z</time>
      </trkpt>
      <trkpt lat="45.5066" lon="4.74495">
        <ele>391</ele>
        <time>2013-10-26T10:22:08Z</time>
      </trkpt>
      <trkpt lat="45.50667" lon="4.74494">
        <ele>391</ele>
        <time>2013-10-26T10:22:09Z</time>
      </trkpt>
      <trkpt lat="45.50672" lon="4.74493">
        <ele>391</ele>
        <time>2013-10-26T10:22:10Z</time>
      </trkpt>
      <trkpt lat="45.50678" lon="4.74491">
        <ele>392</ele>
        <time>2013-10-26T10:22:11Z</time>
      </trkpt>
      <trkpt lat="45.50682" lon="4.74488">
        <ele>392</ele>
        <time>2013-10-26T10:22:12Z</time>
      </trkpt>
      <trkpt lat="45.50689" lon="4.74482">
        <ele>392</ele>
        <time>2013-10-26T10:22:14Z</time>
      </trkpt>
      <trkpt lat="45.50694" lon="4.7448">
        <ele>392</ele>
        <time>2013-10-26T10:22:15Z</time>
      </trkpt>
      <trkpt lat="45.50701" lon="4.74475">
        <ele>392</ele>
        <time>2013-10-26T10:22:17Z</time>
      </trkpt>
      <trkpt lat="45.50704" lon="4.74472">
        <ele>392</ele>
        <time>2013-10-26T10:22:18Z</time>
      </trkpt>
      <trkpt lat="45.50709" lon="4.74468">
        <ele>393</ele>
        <time>2013-10-26T10:22:19Z</time>
      </trkpt>
      <trkpt lat="45.50714" lon="4.74466">
        <ele>393</ele>
        <time>2013-10-26T10:22:20Z</time>
      </trkpt>
      <trkpt lat="45.50719" lon="4.74461">
        <ele>393</ele>
        <time>2013-10-26T10:22:21Z</time>
      </trkpt>
      <trkpt lat="45.50724" lon="4.74459">
        <ele>393</ele>
        <time>2013-10-26T10:22:22Z</time>
      </trkpt>
      <trkpt lat="45.50732" lon="4.74455">
        <ele>393</ele>
        <time>2013-10-26T10:22:24Z</time>
      </trkpt>
      <trkpt lat="45.50735" lon="4.74451">
        <ele>394</ele>
        <time>2013-10-26T10:22:25Z</time>
      </trkpt>
      <trkpt lat="45.5074" lon="4.74445">
        <ele>394</ele>
        <time>2013-10-26T10:22:26Z</time>
      </trkpt>
      <trkpt lat="45.50744" lon="4.7444">
        <ele>394</ele>
        <time>2013-10-26T10:22:27Z</time>
      </trkpt>
      <trkpt lat="45.50749" lon="4.74435">
        <ele>395</ele>
        <time>2013-10-26T10:22:28Z</time>
      </trkpt>
      <trkpt lat="45.50753" lon="4.74431">
        <ele>396</ele>
        <time>2013-10-26T10:22:29Z</time>
      </trkpt>
      <trkpt lat="45.50759" lon="4.74425">
        <ele>396</ele>
        <time>2013-10-26T10:22:31Z</time>
      </trkpt>
      <trkpt lat="45.50761" lon="4.7442">
        <ele>396</ele>
        <time>2013-10-26T10:22:32Z</time>
      </trkpt>
      <trkpt lat="45.50767" lon="4.74413">
        <ele>398</ele>
        <time>2013-10-26T10:22:34Z</time>
      </trkpt>
      <trkpt lat="45.5077" lon="4.7441">
        <ele>398</ele>
        <time>2013-10-26T10:22:35Z</time>
      </trkpt>
      <trkpt lat="45.50777" lon="4.74403">
        <ele>398</ele>
        <time>2013-10-26T10:22:37Z</time>
      </trkpt>
      <trkpt lat="45.50779" lon="4.744">
        <ele>398</ele>
        <time>2013-10-26T10:22:38Z</time>
      </trkpt>
      <trkpt lat="45.50786" lon="4.74394">
        <ele>398</ele>
        <time>2013-10-26T10:22:40Z</time>
      </trkpt>
      <trkpt lat="45.50789" lon="4.74391">
        <ele>398</ele>
        <time>2013-10-26T10:22:41Z</time>
      </trkpt>
      <trkpt lat="45.50797" lon="4.74387">
        <ele>398</ele>
        <time>2013-10-26T10:22:43Z</time>
      </trkpt>
      <trkpt lat="45.50801" lon="4.74382">
        <ele>398</ele>
        <time>2013-10-26T10:22:44Z</time>
      </trkpt>
      <trkpt lat="45.50808" lon="4.74377">
        <ele>399</ele>
        <time>2013-10-26T10:22:46Z</time>
      </trkpt>
      <trkpt lat="45.50811" lon="4.74375">
        <ele>399</ele>
        <time>2013-10-26T10:22:47Z</time>
      </trkpt>
      <trkpt lat="45.50816" lon="4.74373">
        <ele>399</ele>
        <time>2013-10-26T10:22:49Z</time>
      </trkpt>
      <trkpt lat="45.5082" lon="4.7437">
        <ele>399</ele>
        <time>2013-10-26T10:22:50Z</time>
      </trkpt>
      <trkpt lat="45.50826" lon="4.74366">
        <ele>399</ele>
        <time>2013-10-26T10:22:52Z</time>
      </trkpt>
      <trkpt lat="45.50828" lon="4.74364">
        <ele>399</ele>
        <time>2013-10-26T10:22:53Z</time>
      </trkpt>
      <trkpt lat="45.50835" lon="4.74362">
        <ele>402</ele>
        <time>2013-10-26T10:22:54Z</time>
      </trkpt>
      <trkpt lat="45.50839" lon="4.74359">
        <ele>402</ele>
        <time>2013-10-26T10:22:55Z</time>
      </trkpt>
      <trkpt lat="45.50846" lon="4.74357">
        <ele>402</ele>
        <time>2013-10-26T10:22:57Z</time>
      </trkpt>
      <trkpt lat="45.5085" lon="4.74355">
        <ele>402</ele>
        <time>2013-10-26T10:22:58Z</time>
      </trkpt>
      <trkpt lat="45.50854" lon="4.74354">
        <ele>402</ele>
        <time>2013-10-26T10:22:59Z</time>
      </trkpt>
      <trkpt lat="45.50859" lon="4.74352">
        <ele>402</ele>
        <time>2013-10-26T10:23:00Z</time>
      </trkpt>
      <trkpt lat="45.50866" lon="4.74351">
        <ele>402</ele>
        <time>2013-10-26T10:23:02Z</time>
      </trkpt>
      <trkpt lat="45.5087" lon="4.7435">
        <ele>403</ele>
        <time>2013-10-26T10:23:03Z</time>
      </trkpt>
      <trkpt lat="45.50878" lon="4.74347">
        <ele>403</ele>
        <time>2013-10-26T10:23:05Z</time>
      </trkpt>
      <trkpt lat="45.50882" lon="4.74346">
        <ele>403</ele>
        <time>2013-10-26T10:23:06Z</time>
      </trkpt>
      <trkpt lat="45.50889" lon="4.74347">
        <ele>403</ele>
        <time>2013-10-26T10:23:08Z</time>
      </trkpt>
      <trkpt lat="45.50893" lon="4.74347">
        <ele>404</ele>
        <time>2013-10-26T10:23:09Z</time>
      </trkpt>
      <trkpt lat="45.50901" lon="4.74348">
        <ele>404</ele>
        <time>2013-10-26T10:23:11Z</time>
      </trkpt>
      <trkpt lat="45.50905" lon="4.74349">
        <ele>404</ele>
        <time>2013-10-26T10:23:12Z</time>
      </trkpt>
      <trkpt lat="45.50912" lon="4.74351">
        <ele>404</ele>
        <time>2013-10-26T10:23:14Z</time>
      </trkpt>
      <trkpt lat="45.50917" lon="4.74351">
        <ele>407</ele>
        <time>2013-10-26T10:23:15Z</time>
      </trkpt>
      <trkpt lat="45.50923" lon="4.7435">
        <ele>407</ele>
        <time>2013-10-26T10:23:17Z</time>
      </trkpt>
      <trkpt lat="45.50926" lon="4.74351">
        <ele>407</ele>
        <time>2013-10-26T10:23:18Z</time>
      </trkpt>
      <trkpt lat="45.50933" lon="4.74355">
        <ele>407</ele>
        <time>2013-10-26T10:23:20Z</time>
      </trkpt>
      <trkpt lat="45.50936" lon="4.74357">
        <ele>407</ele>
        <time>2013-10-26T10:23:21Z</time>
      </trkpt>
      <trkpt lat="45.50942" lon="4.74361">
        <ele>408</ele>
        <time>2013-10-26T10:23:23Z</time>
      </trkpt>
      <trkpt lat="45.50947" lon="4.74361">
        <ele>408</ele>
        <time>2013-10-26T10:23:24Z</time>
      </trkpt>
      <trkpt lat="45.50954" lon="4.74362">
        <ele>408</ele>
        <time>2013-10-26T10:23:26Z</time>
      </trkpt>
      <trkpt lat="45.50958" lon="4.74363">
        <ele>408</ele>
        <time>2013-10-26T10:23:27Z</time>
      </trkpt>
      <trkpt lat="45.50965" lon="4.74364">
        <ele>408</ele>
        <time>2013-10-26T10:23:29Z</time>
      </trkpt>
      <trkpt lat="45.50968" lon="4.74364">
        <ele>409</ele>
        <time>2013-10-26T10:23:30Z</time>
      </trkpt>
      <trkpt lat="45.50976" lon="4.74365">
        <ele>409</ele>
        <time>2013-10-26T10:23:32Z</time>
      </trkpt>
      <trkpt lat="45.50981" lon="4.74365">
        <ele>409</ele>
        <time>2013-10-26T10:23:33Z</time>
      </trkpt>
      <trkpt lat="45.50988" lon="4.74364">
        <ele>409</ele>
        <time>2013-10-26T10:23:35Z</time>
      </trkpt>
      <trkpt lat="45.50992" lon="4.74364">
        <ele>409</ele>
        <time>2013-10-26T10:23:36Z</time>
      </trkpt>
      <trkpt lat="45.50998" lon="4.74363">
        <ele>409</ele>
        <time>2013-10-26T10:23:38Z</time>
      </trkpt>
      <trkpt lat="45.51002" lon="4.74363">
        <ele>413</ele>
        <time>2013-10-26T10:23:39Z</time>
      </trkpt>
      <trkpt lat="45.5101" lon="4.74364">
        <ele>413</ele>
        <time>2013-10-26T10:23:41Z</time>
      </trkpt>
      <trkpt lat="45.51013" lon="4.74363">
        <ele>413</ele>
        <time>2013-10-26T10:23:42Z</time>
      </trkpt>
      <trkpt lat="45.5102" lon="4.74362">
        <ele>413</ele>
        <time>2013-10-26T10:23:44Z</time>
      </trkpt>
      <trkpt lat="45.51023" lon="4.74362">
        <ele>413</ele>
        <time>2013-10-26T10:23:45Z</time>
      </trkpt>
      <trkpt lat="45.5103" lon="4.7436">
        <ele>413</ele>
        <time>2013-10-26T10:23:47Z</time>
      </trkpt>
      <trkpt lat="45.51033" lon="4.74361">
        <ele>414</ele>
        <time>2013-10-26T10:23:48Z</time>
      </trkpt>
      <trkpt lat="45.51039" lon="4.7436">
        <ele>414</ele>
        <time>2013-10-26T10:23:50Z</time>
      </trkpt>
      <trkpt lat="45.51043" lon="4.7436">
        <ele>414</ele>
        <time>2013-10-26T10:23:51Z</time>
      </trkpt>
      <trkpt lat="45.51049" lon="4.74359">
        <ele>414</ele>
        <time>2013-10-26T10:23:53Z</time>
      </trkpt>
      <trkpt lat="45.51052" lon="4.74359">
        <ele>414</ele>
        <time>2013-10-26T10:23:54Z</time>
      </trkpt>
      <trkpt lat="45.51058" lon="4.74359">
        <ele>415</ele>
        <time>2013-10-26T10:23:56Z</time>
      </trkpt>
      <trkpt lat="45.51063" lon="4.74359">
        <ele>415</ele>
        <time>2013-10-26T10:23:57Z</time>
      </trkpt>
      <trkpt lat="45.51069" lon="4.74359">
        <ele>415</ele>
        <time>2013-10-26T10:23:59Z</time>
      </trkpt>
      <trkpt lat="45.51073" lon="4.74359">
        <ele>415</ele>
        <time>2013-10-26T10:24:00Z</time>
      </trkpt>
      <trkpt lat="45.51081" lon="4.74359">
        <ele>415</ele>
        <time>2013-10-26T10:24:03Z</time>
      </trkpt>
      <trkpt lat="45.51085" lon="4.74359">
        <ele>418</ele>
        <time>2013-10-26T10:24:04Z</time>
      </trkpt>
      <trkpt lat="45.51094" lon="4.74358">
        <ele>418</ele>
        <time>2013-10-26T10:24:07Z</time>
      </trkpt>
      <trkpt lat="45.51097" lon="4.74358">
        <ele>419</ele>
        <time>2013-10-26T10:24:08Z</time>
      </trkpt>
      <trkpt lat="45.51106" lon="4.74358">
        <ele>419</ele>
        <time>2013-10-26T10:24:11Z</time>
      </trkpt>
      <trkpt lat="45.51109" lon="4.74357">
        <ele>419</ele>
        <time>2013-10-26T10:24:12Z</time>
      </trkpt>
      <trkpt lat="45.51117" lon="4.74357">
        <ele>419</ele>
        <time>2013-10-26T10:24:15Z</time>
      </trkpt>
      <trkpt lat="45.5112" lon="4.74357">
        <ele>419</ele>
        <time>2013-10-26T10:24:16Z</time>
      </trkpt>
      <trkpt lat="45.51128" lon="4.74356">
        <ele>420</ele>
        <time>2013-10-26T10:24:19Z</time>
      </trkpt>
      <trkpt lat="45.51131" lon="4.74356">
        <ele>420</ele>
        <time>2013-10-26T10:24:20Z</time>
      </trkpt>
      <trkpt lat="45.51137" lon="4.74355">
        <ele>420</ele>
        <time>2013-10-26T10:24:23Z</time>
      </trkpt>
      <trkpt lat="45.5114" lon="4.74355">
        <ele>420</ele>
        <time>2013-10-26T10:24:24Z</time>
      </trkpt>
      <trkpt lat="45.51147" lon="4.7436">
        <ele>421</ele>
        <time>2013-10-26T10:24:27Z</time>
      </trkpt>
      <trkpt lat="45.51149" lon="4.74362">
        <ele>421</ele>
        <time>2013-10-26T10:24:28Z</time>
      </trkpt>
      <trkpt lat="45.51156" lon="4.74366">
        <ele>421</ele>
        <time>2013-10-26T10:24:31Z</time>
      </trkpt>
      <trkpt lat="45.51158" lon="4.74368">
        <ele>421</ele>
        <time>2013-10-26T10:24:32Z</time>
      </trkpt>
      <trkpt lat="45.51165" lon="4.74373">
        <ele>421</ele>
        <time>2013-10-26T10:24:35Z</time>
      </trkpt>
      <trkpt lat="45.51167" lon="4.74374">
        <ele>423</ele>
        <time>2013-10-26T10:24:36Z</time>
      </trkpt>
      <trkpt lat="45.51174" lon="4.74378">
        <ele>423</ele>
        <time>2013-10-26T10:24:39Z</time>
      </trkpt>
      <trkpt lat="45.51177" lon="4.74379">
        <ele>423</ele>
        <time>2013-10-26T10:24:40Z</time>
      </trkpt>
      <trkpt lat="45.51183" lon="4.74383">
        <ele>423</ele>
        <time>2013-10-26T10:24:42Z</time>
      </trkpt>
      <trkpt lat="45.51187" lon="4.74384">
        <ele>423</ele>
        <time>2013-10-26T10:24:43Z</time>
      </trkpt>
      <trkpt lat="45.51195" lon="4.74387">
        <ele>423</ele>
        <time>2013-10-26T10:24:46Z</time>
      </trkpt>
      <trkpt lat="45.51198" lon="4.74387">
        <ele>423</ele>
        <time>2013-10-26T10:24:47Z</time>
      </trkpt>
      <trkpt lat="45.51204" lon="4.74388">
        <ele>423</ele>
        <time>2013-10-26T10:24:49Z</time>
      </trkpt>
      <trkpt lat="45.51207" lon="4.7439">
        <ele>423</ele>
        <time>2013-10-26T10:24:50Z</time>
      </trkpt>
      <trkpt lat="45.51215" lon="4.74393">
        <ele>423</ele>
        <time>2013-10-26T10:24:53Z</time>
      </trkpt>
      <trkpt lat="45.51218" lon="4.74393">
        <ele>423</ele>
        <time>2013-10-26T10:24:54Z</time>
      </trkpt>
      <trkpt lat="45.51224" lon="4.74395">
        <ele>423</ele>
        <time>2013-10-26T10:24:56Z</time>
      </trkpt>
      <trkpt lat="45.51227" lon="4.74396">
        <ele>422</ele>
        <time>2013-10-26T10:24:57Z</time>
      </trkpt>
      <trkpt lat="45.51233" lon="4.74398">
        <ele>422</ele>
        <time>2013-10-26T10:24:59Z</time>
      </trkpt>
      <trkpt lat="45.51237" lon="4.74398">
        <ele>422</ele>
        <time>2013-10-26T10:25:00Z</time>
      </trkpt>
      <trkpt lat="45.51244" lon="4.74399">
        <ele>422</ele>
        <time>2013-10-26T10:25:02Z</time>
      </trkpt>
      <trkpt lat="45.51248" lon="4.744">
        <ele>421</ele>
        <time>2013-10-26T10:25:03Z</time>
      </trkpt>
      <trkpt lat="45.51254" lon="4.74401">
        <ele>423</ele>
        <time>2013-10-26T10:25:04Z</time>
      </trkpt>
      <trkpt lat="45.51258" lon="4.74401">
        <ele>423</ele>
        <time>2013-10-26T10:25:05Z</time>
      </trkpt>
      <trkpt lat="45.51264" lon="4.744">
        <ele>424</ele>
        <time>2013-10-26T10:25:06Z</time>
      </trkpt>
      <trkpt lat="45.5127" lon="4.74401">
        <ele>425</ele>
        <time>2013-10-26T10:25:07Z</time>
      </trkpt>
      <trkpt lat="45.51277" lon="4.74401">
        <ele>425</ele>
        <time>2013-10-26T10:25:08Z</time>
      </trkpt>
      <trkpt lat="45.51283" lon="4.74401">
        <ele>426</ele>
        <time>2013-10-26T10:25:09Z</time>
      </trkpt>
      <trkpt lat="45.5129" lon="4.74401">
        <ele>426</ele>
        <time>2013-10-26T10:25:10Z</time>
      </trkpt>
      <trkpt lat="45.51296" lon="4.744">
        <ele>426</ele>
        <time>2013-10-26T10:25:11Z</time>
      </trkpt>
      <trkpt lat="45.51301" lon="4.74398">
        <ele>427</ele>
        <time>2013-10-26T10:25:12Z</time>
      </trkpt>
      <trkpt lat="45.51307" lon="4.74398">
        <ele>427</ele>
        <time>2013-10-26T10:25:13Z</time>
      </trkpt>
      <trkpt lat="45.51313" lon="4.74398">
        <ele>427</ele>
        <time>2013-10-26T10:25:14Z</time>
      </trkpt>
      <trkpt lat="45.51319" lon="4.74398">
        <ele>427</ele>
        <time>2013-10-26T10:25:15Z</time>
      </trkpt>
      <trkpt lat="45.51325" lon="4.74399">
        <ele>427</ele>
        <time>2013-10-26T10:25:16Z</time>
      </trkpt>
      <trkpt lat="45.51329" lon="4.744">
        <ele>427</ele>
        <time>2013-10-26T10:25:17Z</time>
      </trkpt>
      <trkpt lat="45.51337" lon="4.74399">
        <ele>431</ele>
        <time>2013-10-26T10:25:19Z</time>
      </trkpt>
      <trkpt lat="45.5134" lon="4.744">
        <ele>431</ele>
        <time>2013-10-26T10:25:20Z</time>
      </trkpt>
      <trkpt lat="45.51344" lon="4.744">
        <ele>431</ele>
        <time>2013-10-26T10:25:21Z</time>
      </trkpt>
      <trkpt lat="45.51349" lon="4.74398">
        <ele>432</ele>
        <time>2013-10-26T10:25:22Z</time>
      </trkpt>
      <trkpt lat="45.51354" lon="4.74399">
        <ele>433</ele>
        <time>2013-10-26T10:25:23Z</time>
      </trkpt>
      <trkpt lat="45.5136" lon="4.74397">
        <ele>434</ele>
        <time>2013-10-26T10:25:24Z</time>
      </trkpt>
      <trkpt lat="45.51368" lon="4.74396">
        <ele>435</ele>
        <time>2013-10-26T10:25:26Z</time>
      </trkpt>
      <trkpt lat="45.51373" lon="4.74403">
        <ele>435</ele>
        <time>2013-10-26T10:25:27Z</time>
      </trkpt>
      <trkpt lat="45.51379" lon="4.7441">
        <ele>436</ele>
        <time>2013-10-26T10:25:29Z</time>
      </trkpt>
      <trkpt lat="45.51381" lon="4.74414">
        <ele>436</ele>
        <time>2013-10-26T10:25:30Z</time>
      </trkpt>
      <trkpt lat="45.51383" lon="4.74422">
        <ele>436</ele>
        <time>2013-10-26T10:25:32Z</time>
      </trkpt>
      <trkpt lat="45.51385" lon="4.74426">
        <ele>436</ele>
        <time>2013-10-26T10:25:33Z</time>
      </trkpt>
      <trkpt lat="45.51378" lon="4.74433">
        <ele>436</ele>
        <time>2013-10-26T10:25:35Z</time>
      </trkpt>
      <trkpt lat="45.51377" lon="4.74436">
        <ele>436</ele>
        <time>2013-10-26T10:25:36Z</time>
      </trkpt>
      <trkpt lat="45.51371" lon="4.74441">
        <ele>435</ele>
        <time>2013-10-26T10:25:38Z</time>
      </trkpt>
      <trkpt lat="45.5137" lon="4.74445">
        <ele>435</ele>
        <time>2013-10-26T10:25:39Z</time>
      </trkpt>
      <trkpt lat="45.51367" lon="4.74453">
        <ele>435</ele>
        <time>2013-10-26T10:25:42Z</time>
      </trkpt>
      <trkpt lat="45.51366" lon="4.74458">
        <ele>435</ele>
        <time>2013-10-26T10:25:43Z</time>
      </trkpt>
      <trkpt lat="45.51362" lon="4.74469">
        <ele>435</ele>
        <time>2013-10-26T10:25:46Z</time>
      </trkpt>
      <trkpt lat="45.51361" lon="4.74473">
        <ele>435</ele>
        <time>2013-10-26T10:25:47Z</time>
      </trkpt>
      <trkpt lat="45.5136" lon="4.74484">
        <ele>435</ele>
        <time>2013-10-26T10:25:49Z</time>
      </trkpt>
      <trkpt lat="45.51358" lon="4.74488">
        <ele>435</ele>
        <time>2013-10-26T10:25:50Z</time>
      </trkpt>
      <trkpt lat="45.51357" lon="4.74496">
        <ele>435</ele>
        <time>2013-10-26T10:25:52Z</time>
      </trkpt>
      <trkpt lat="45.51356" lon="4.745">
        <ele>435</ele>
        <time>2013-10-26T10:25:53Z</time>
      </trkpt>
      <trkpt lat="45.51351" lon="4.74508">
        <ele>436</ele>
        <time>2013-10-26T10:25:55Z</time>
      </trkpt>
      <trkpt lat="45.51349" lon="4.74512">
        <ele>436</ele>
        <time>2013-10-26T10:25:56Z</time>
      </trkpt>
      <trkpt lat="45.51344" lon="4.74521">
        <ele>437</ele>
        <time>2013-10-26T10:25:59Z</time>
      </trkpt>
      <trkpt lat="45.51343" lon="4.74524">
        <ele>437</ele>
        <time>2013-10-26T10:26:00Z</time>
      </trkpt>
      <trkpt lat="45.51338" lon="4.74532">
        <ele>437</ele>
        <time>2013-10-26T10:26:02Z</time>
      </trkpt>
      <trkpt lat="45.51335" lon="4.74535">
        <ele>437</ele>
        <time>2013-10-26T10:26:03Z</time>
      </trkpt>
      <trkpt lat="45.51329" lon="4.74541">
        <ele>429</ele>
        <time>2013-10-26T10:26:05Z</time>
      </trkpt>
      <trkpt lat="45.51327" lon="4.74544">
        <ele>429</ele>
        <time>2013-10-26T10:26:06Z</time>
      </trkpt>
      <trkpt lat="45.51325" lon="4.74553">
        <ele>430</ele>
        <time>2013-10-26T10:26:08Z</time>
      </trkpt>
      <trkpt lat="45.51319" lon="4.74557">
        <ele>430</ele>
        <time>2013-10-26T10:26:09Z</time>
      </trkpt>
      <trkpt lat="45.51317" lon="4.74563">
        <ele>430</ele>
        <time>2013-10-26T10:26:10Z</time>
      </trkpt>
      <trkpt lat="45.5131" lon="4.74568">
        <ele>429</ele>
        <time>2013-10-26T10:26:11Z</time>
      </trkpt>
      <trkpt lat="45.51304" lon="4.74574">
        <ele>429</ele>
        <time>2013-10-26T10:26:12Z</time>
      </trkpt>
      <trkpt lat="45.51301" lon="4.74579">
        <ele>429</ele>
        <time>2013-10-26T10:26:13Z</time>
      </trkpt>
      <trkpt lat="45.513" lon="4.74584">
        <ele>430</ele>
        <time>2013-10-26T10:26:14Z</time>
      </trkpt>
      <trkpt lat="45.51294" lon="4.7459">
        <ele>429</ele>
        <time>2013-10-26T10:26:15Z</time>
      </trkpt>
      <trkpt lat="45.51289" lon="4.74597">
        <ele>429</ele>
        <time>2013-10-26T10:26:16Z</time>
      </trkpt>
      <trkpt lat="45.51284" lon="4.746">
        <ele>428</ele>
        <time>2013-10-26T10:26:17Z</time>
      </trkpt>
      <trkpt lat="45.5128" lon="4.74609">
        <ele>428</ele>
        <time>2013-10-26T10:26:19Z</time>
      </trkpt>
      <trkpt lat="45.51277" lon="4.74611">
        <ele>428</ele>
        <time>2013-10-26T10:26:20Z</time>
      </trkpt>
      <trkpt lat="45.51276" lon="4.7462">
        <ele>428</ele>
        <time>2013-10-26T10:26:22Z</time>
      </trkpt>
      <trkpt lat="45.51273" lon="4.74623">
        <ele>428</ele>
        <time>2013-10-26T10:26:23Z</time>
      </trkpt>
      <trkpt lat="45.51266" lon="4.74625">
        <ele>428</ele>
        <time>2013-10-26T10:26:24Z</time>
      </trkpt>
      <trkpt lat="45.5126" lon="4.74626">
        <ele>427</ele>
        <time>2013-10-26T10:26:25Z</time>
      </trkpt>
      <trkpt lat="45.51255" lon="4.74629">
        <ele>427</ele>
        <time>2013-10-26T10:26:26Z</time>
      </trkpt>
      <trkpt lat="45.51251" lon="4.74631">
        <ele>427</ele>
        <time>2013-10-26T10:26:27Z</time>
      </trkpt>
      <trkpt lat="45.51246" lon="4.74634">
        <ele>421</ele>
        <time>2013-10-26T10:26:28Z</time>
      </trkpt>
      <trkpt lat="45.51241" lon="4.74638">
        <ele>420</ele>
        <time>2013-10-26T10:26:29Z</time>
      </trkpt>
      <trkpt lat="45.51236" lon="4.74641">
        <ele>420</ele>
        <time>2013-10-26T10:26:30Z</time>
      </trkpt>
      <trkpt lat="45.51231" lon="4.74651">
        <ele>421</ele>
        <time>2013-10-26T10:26:31Z</time>
      </trkpt>
      <trkpt lat="45.51223" lon="4.74656">
        <ele>420</ele>
        <time>2013-10-26T10:26:33Z</time>
      </trkpt>
      <trkpt lat="45.51218" lon="4.74659">
        <ele>420</ele>
        <time>2013-10-26T10:26:34Z</time>
      </trkpt>
      <trkpt lat="45.51213" lon="4.74663">
        <ele>419</ele>
        <time>2013-10-26T10:26:35Z</time>
      </trkpt>
      <trkpt lat="45.51208" lon="4.74668">
        <ele>420</ele>
        <time>2013-10-26T10:26:36Z</time>
      </trkpt>
      <trkpt lat="45.51204" lon="4.74671">
        <ele>419</ele>
        <time>2013-10-26T10:26:37Z</time>
      </trkpt>
      <trkpt lat="45.51199" lon="4.74674">
        <ele>419</ele>
        <time>2013-10-26T10:26:38Z</time>
      </trkpt>
      <trkpt lat="45.51194" lon="4.74676">
        <ele>419</ele>
        <time>2013-10-26T10:26:39Z</time>
      </trkpt>
      <trkpt lat="45.51189" lon="4.74679">
        <ele>418</ele>
        <time>2013-10-26T10:26:40Z</time>
      </trkpt>
      <trkpt lat="45.51182" lon="4.7468">
        <ele>418</ele>
        <time>2013-10-26T10:26:42Z</time>
      </trkpt>
      <trkpt lat="45.51178" lon="4.74682">
        <ele>418</ele>
        <time>2013-10-26T10:26:43Z</time>
      </trkpt>
      <trkpt lat="45.51171" lon="4.74687">
        <ele>418</ele>
        <time>2013-10-26T10:26:45Z</time>
      </trkpt>
      <trkpt lat="45.51168" lon="4.74688">
        <ele>418</ele>
        <time>2013-10-26T10:26:46Z</time>
      </trkpt>
      <trkpt lat="45.51161" lon="4.74693">
        <ele>414</ele>
        <time>2013-10-26T10:26:48Z</time>
      </trkpt>
      <trkpt lat="45.51157" lon="4.74695">
        <ele>414</ele>
        <time>2013-10-26T10:26:49Z</time>
      </trkpt>
      <trkpt lat="45.51149" lon="4.74699">
        <ele>414</ele>
        <time>2013-10-26T10:26:51Z</time>
      </trkpt>
      <trkpt lat="45.51146" lon="4.74701">
        <ele>414</ele>
        <time>2013-10-26T10:26:52Z</time>
      </trkpt>
      <trkpt lat="45.51139" lon="4.74704">
        <ele>413</ele>
        <time>2013-10-26T10:26:54Z</time>
      </trkpt>
      <trkpt lat="45.51135" lon="4.74708">
        <ele>413</ele>
        <time>2013-10-26T10:26:55Z</time>
      </trkpt>
      <trkpt lat="45.51128" lon="4.74713">
        <ele>413</ele>
        <time>2013-10-26T10:26:57Z</time>
      </trkpt>
      <trkpt lat="45.51125" lon="4.74716">
        <ele>413</ele>
        <time>2013-10-26T10:26:58Z</time>
      </trkpt>
      <trkpt lat="45.51119" lon="4.74722">
        <ele>413</ele>
        <time>2013-10-26T10:27:00Z</time>
      </trkpt>
      <trkpt lat="45.51116" lon="4.74723">
        <ele>413</ele>
        <time>2013-10-26T10:27:01Z</time>
      </trkpt>
      <trkpt lat="45.51109" lon="4.74734">
        <ele>413</ele>
        <time>2013-10-26T10:27:02Z</time>
      </trkpt>
      <trkpt lat="45.51104" lon="4.74739">
        <ele>413</ele>
        <time>2013-10-26T10:27:03Z</time>
      </trkpt>
      <trkpt lat="45.51099" lon="4.74741">
        <ele>413</ele>
        <time>2013-10-26T10:27:04Z</time>
      </trkpt>
      <trkpt lat="45.51095" lon="4.74746">
        <ele>413</ele>
        <time>2013-10-26T10:27:05Z</time>
      </trkpt>
      <trkpt lat="45.5109" lon="4.74749">
        <ele>413</ele>
        <time>2013-10-26T10:27:06Z</time>
      </trkpt>
      <trkpt lat="45.51087" lon="4.74753">
        <ele>413</ele>
        <time>2013-10-26T10:27:07Z</time>
      </trkpt>
      <trkpt lat="45.51082" lon="4.74756">
        <ele>412</ele>
        <time>2013-10-26T10:27:08Z</time>
      </trkpt>
      <trkpt lat="45.51075" lon="4.74762">
        <ele>411</ele>
        <time>2013-10-26T10:27:10Z</time>
      </trkpt>
      <trkpt lat="45.51072" lon="4.74765">
        <ele>410</ele>
        <time>2013-10-26T10:27:11Z</time>
      </trkpt>
      <trkpt lat="45.51065" lon="4.74772">
        <ele>409</ele>
        <time>2013-10-26T10:27:13Z</time>
      </trkpt>
      <trkpt lat="45.51061" lon="4.74777">
        <ele>409</ele>
        <time>2013-10-26T10:27:14Z</time>
      </trkpt>
      <trkpt lat="45.51057" lon="4.74781">
        <ele>409</ele>
        <time>2013-10-26T10:27:15Z</time>
      </trkpt>
      <trkpt lat="45.51053" lon="4.74786">
        <ele>408</ele>
        <time>2013-10-26T10:27:16Z</time>
      </trkpt>
      <trkpt lat="45.5105" lon="4.74793">
        <ele>408</ele>
        <time>2013-10-26T10:27:18Z</time>
      </trkpt>
      <trkpt lat="45.51047" lon="4.74796">
        <ele>408</ele>
        <time>2013-10-26T10:27:19Z</time>
      </trkpt>
      <trkpt lat="45.51042" lon="4.74805">
        <ele>408</ele>
        <time>2013-10-26T10:27:21Z</time>
      </trkpt>
      <trkpt lat="45.51039" lon="4.74811">
        <ele>408</ele>
        <time>2013-10-26T10:27:22Z</time>
      </trkpt>
      <trkpt lat="45.51034" lon="4.74821">
        <ele>407</ele>
        <time>2013-10-26T10:27:24Z</time>
      </trkpt>
      <trkpt lat="45.51033" lon="4.74826">
        <ele>407</ele>
        <time>2013-10-26T10:27:25Z</time>
      </trkpt>
      <trkpt lat="45.51033" lon="4.74836">
        <ele>406</ele>
        <time>2013-10-26T10:27:29Z</time>
      </trkpt>
      <trkpt lat="45.51031" lon="4.7484">
        <ele>406</ele>
        <time>2013-10-26T10:27:30Z</time>
      </trkpt>
      <trkpt lat="45.51028" lon="4.74847">
        <ele>405</ele>
        <time>2013-10-26T10:27:32Z</time>
      </trkpt>
      <trkpt lat="45.51026" lon="4.74852">
        <ele>405</ele>
        <time>2013-10-26T10:27:33Z</time>
      </trkpt>
      <trkpt lat="45.51023" lon="4.74857">
        <ele>405</ele>
        <time>2013-10-26T10:27:34Z</time>
      </trkpt>
      <trkpt lat="45.51021" lon="4.74864">
        <ele>405</ele>
        <time>2013-10-26T10:27:35Z</time>
      </trkpt>
      <trkpt lat="45.51015" lon="4.74871">
        <ele>405</ele>
        <time>2013-10-26T10:27:37Z</time>
      </trkpt>
      <trkpt lat="45.51012" lon="4.74874">
        <ele>405</ele>
        <time>2013-10-26T10:27:38Z</time>
      </trkpt>
      <trkpt lat="45.5101" lon="4.74878">
        <ele>405</ele>
        <time>2013-10-26T10:27:39Z</time>
      </trkpt>
      <trkpt lat="45.51003" lon="4.74884">
        <ele>404</ele>
        <time>2013-10-26T10:27:40Z</time>
      </trkpt>
      <trkpt lat="45.51" lon="4.74888">
        <ele>401</ele>
        <time>2013-10-26T10:27:41Z</time>
      </trkpt>
      <trkpt lat="45.50996" lon="4.74893">
        <ele>401</ele>
        <time>2013-10-26T10:27:42Z</time>
      </trkpt>
      <trkpt lat="45.50991" lon="4.74898">
        <ele>401</ele>
        <time>2013-10-26T10:27:43Z</time>
      </trkpt>
      <trkpt lat="45.50985" lon="4.74905">
        <ele>401</ele>
        <time>2013-10-26T10:27:44Z</time>
      </trkpt>
      <trkpt lat="45.50981" lon="4.7491">
        <ele>401</ele>
        <time>2013-10-26T10:27:45Z</time>
      </trkpt>
      <trkpt lat="45.50976" lon="4.74916">
        <ele>401</ele>
        <time>2013-10-26T10:27:46Z</time>
      </trkpt>
      <trkpt lat="45.50972" lon="4.74921">
        <ele>399</ele>
        <time>2013-10-26T10:27:47Z</time>
      </trkpt>
      <trkpt lat="45.50966" lon="4.74928">
        <ele>398</ele>
        <time>2013-10-26T10:27:48Z</time>
      </trkpt>
      <trkpt lat="45.50961" lon="4.74937">
        <ele>398</ele>
        <time>2013-10-26T10:27:50Z</time>
      </trkpt>
      <trkpt lat="45.50957" lon="4.74942">
        <ele>397</ele>
        <time>2013-10-26T10:27:51Z</time>
      </trkpt>
      <trkpt lat="45.50951" lon="4.7495">
        <ele>397</ele>
        <time>2013-10-26T10:27:53Z</time>
      </trkpt>
      <trkpt lat="45.5095" lon="4.74954">
        <ele>397</ele>
        <time>2013-10-26T10:27:54Z</time>
      </trkpt>
      <trkpt lat="45.50943" lon="4.7496">
        <ele>396</ele>
        <time>2013-10-26T10:27:57Z</time>
      </trkpt>
      <trkpt lat="45.50941" lon="4.74963">
        <ele>396</ele>
        <time>2013-10-26T10:27:58Z</time>
      </trkpt>
      <trkpt lat="45.50938" lon="4.7497">
        <ele>396</ele>
        <time>2013-10-26T10:28:00Z</time>
      </trkpt>
      <trkpt lat="45.50935" lon="4.74973">
        <ele>396</ele>
        <time>2013-10-26T10:28:01Z</time>
      </trkpt>
      <trkpt lat="45.50929" lon="4.74981">
        <ele>395</ele>
        <time>2013-10-26T10:28:02Z</time>
      </trkpt>
      <trkpt lat="45.50927" lon="4.74984">
        <ele>395</ele>
        <time>2013-10-26T10:28:03Z</time>
      </trkpt>
      <trkpt lat="45.50921" lon="4.74988">
        <ele>394</ele>
        <time>2013-10-26T10:28:05Z</time>
      </trkpt>
      <trkpt lat="45.5092" lon="4.74996">
        <ele>394</ele>
        <time>2013-10-26T10:28:06Z</time>
      </trkpt>
      <trkpt lat="45.50916" lon="4.75008">
        <ele>392</ele>
        <time>2013-10-26T10:28:08Z</time>
      </trkpt>
      <trkpt lat="45.50916" lon="4.75011">
        <ele>392</ele>
        <time>2013-10-26T10:28:09Z</time>
      </trkpt>
      <trkpt lat="45.50924" lon="4.75011">
        <ele>392</ele>
        <time>2013-10-26T10:28:14Z</time>
      </trkpt>
      <trkpt lat="45.50925" lon="4.7501">
        <ele>392</ele>
        <time>2013-10-26T10:28:15Z</time>
      </trkpt>
      <trkpt lat="45.50933" lon="4.75012">
        <ele>391</ele>
        <time>2013-10-26T10:28:17Z</time>
      </trkpt>
      <trkpt lat="45.50935" lon="4.75013">
        <ele>391</ele>
        <time>2013-10-26T10:28:18Z</time>
      </trkpt>
      <trkpt lat="45.50944" lon="4.75014">
        <ele>391</ele>
        <time>2013-10-26T10:28:21Z</time>
      </trkpt>
      <trkpt lat="45.50947" lon="4.75015">
        <ele>391</ele>
        <time>2013-10-26T10:28:22Z</time>
      </trkpt>
      <trkpt lat="45.50953" lon="4.75016">
        <ele>391</ele>
        <time>2013-10-26T10:28:24Z</time>
      </trkpt>
      <trkpt lat="45.50962" lon="4.75019">
        <ele>391</ele>
        <time>2013-10-26T10:28:25Z</time>
      </trkpt>
      <trkpt lat="45.50968" lon="4.7502">
        <ele>391</ele>
        <time>2013-10-26T10:28:26Z</time>
      </trkpt>
      <trkpt lat="45.50974" lon="4.75021">
        <ele>391</ele>
        <time>2013-10-26T10:28:27Z</time>
      </trkpt>
      <trkpt lat="45.50979" lon="4.75022">
        <ele>391</ele>
        <time>2013-10-26T10:28:28Z</time>
      </trkpt>
      <trkpt lat="45.50984" lon="4.75021">
        <ele>391</ele>
        <time>2013-10-26T10:28:29Z</time>
      </trkpt>
      <trkpt lat="45.50989" lon="4.7502">
        <ele>391</ele>
        <time>2013-10-26T10:28:30Z</time>
      </trkpt>
      <trkpt lat="45.50995" lon="4.75019">
        <ele>391</ele>
        <time>2013-10-26T10:28:31Z</time>
      </trkpt>
      <trkpt lat="45.51002" lon="4.75018">
        <ele>391</ele>
        <time>2013-10-26T10:28:32Z</time>
      </trkpt>
      <trkpt lat="45.51008" lon="4.75017">
        <ele>391</ele>
        <time>2013-10-26T10:28:33Z</time>
      </trkpt>
      <trkpt lat="45.51016" lon="4.75017">
        <ele>391</ele>
        <time>2013-10-26T10:28:34Z</time>
      </trkpt>
      <trkpt lat="45.51021" lon="4.75019">
        <ele>390</ele>
        <time>2013-10-26T10:28:35Z</time>
      </trkpt>
      <trkpt lat="45.51027" lon="4.75022">
        <ele>390</ele>
        <time>2013-10-26T10:28:36Z</time>
      </trkpt>
      <trkpt lat="45.51032" lon="4.75026">
        <ele>389</ele>
        <time>2013-10-26T10:28:37Z</time>
      </trkpt>
      <trkpt lat="45.51039" lon="4.7503">
        <ele>389</ele>
        <time>2013-10-26T10:28:39Z</time>
      </trkpt>
      <trkpt lat="45.51048" lon="4.75037">
        <ele>389</ele>
        <time>2013-10-26T10:28:40Z</time>
      </trkpt>
      <trkpt lat="45.51053" lon="4.7504">
        <ele>389</ele>
        <time>2013-10-26T10:28:41Z</time>
      </trkpt>
      <trkpt lat="45.51062" lon="4.75043">
        <ele>388</ele>
        <time>2013-10-26T10:28:42Z</time>
      </trkpt>
      <trkpt lat="45.5107" lon="4.75047">
        <ele>388</ele>
        <time>2013-10-26T10:28:43Z</time>
      </trkpt>
      <trkpt lat="45.51075" lon="4.75047">
        <ele>388</ele>
        <time>2013-10-26T10:28:44Z</time>
      </trkpt>
      <trkpt lat="45.51079" lon="4.75045">
        <ele>388</ele>
        <time>2013-10-26T10:28:45Z</time>
      </trkpt>
      <trkpt lat="45.51086" lon="4.75042">
        <ele>389</ele>
        <time>2013-10-26T10:28:46Z</time>
      </trkpt>
      <trkpt lat="45.51094" lon="4.75036">
        <ele>389</ele>
        <time>2013-10-26T10:28:47Z</time>
      </trkpt>
      <trkpt lat="45.51103" lon="4.75034">
        <ele>389</ele>
        <time>2013-10-26T10:28:48Z</time>
      </trkpt>
      <trkpt lat="45.5111" lon="4.75034">
        <ele>389</ele>
        <time>2013-10-26T10:28:49Z</time>
      </trkpt>
      <trkpt lat="45.5112" lon="4.75033">
        <ele>389</ele>
        <time>2013-10-26T10:28:50Z</time>
      </trkpt>
      <trkpt lat="45.51127" lon="4.75031">
        <ele>390</ele>
        <time>2013-10-26T10:28:51Z</time>
      </trkpt>
      <trkpt lat="45.51135" lon="4.75031">
        <ele>390</ele>
        <time>2013-10-26T10:28:52Z</time>
      </trkpt>
      <trkpt lat="45.51143" lon="4.75029">
        <ele>390</ele>
        <time>2013-10-26T10:28:53Z</time>
      </trkpt>
      <trkpt lat="45.51148" lon="4.75032">
        <ele>390</ele>
        <time>2013-10-26T10:28:54Z</time>
      </trkpt>
      <trkpt lat="45.51152" lon="4.75034">
        <ele>390</ele>
        <time>2013-10-26T10:28:55Z</time>
      </trkpt>
      <trkpt lat="45.51158" lon="4.7504">
        <ele>390</ele>
        <time>2013-10-26T10:28:56Z</time>
      </trkpt>
      <trkpt lat="45.51161" lon="4.75045">
        <ele>389</ele>
        <time>2013-10-26T10:28:57Z</time>
      </trkpt>
      <trkpt lat="45.51163" lon="4.7505">
        <ele>389</ele>
        <time>2013-10-26T10:28:58Z</time>
      </trkpt>
      <trkpt lat="45.51162" lon="4.75062">
        <ele>389</ele>
        <time>2013-10-26T10:29:02Z</time>
      </trkpt>
      <trkpt lat="45.51163" lon="4.75065">
        <ele>389</ele>
        <time>2013-10-26T10:29:03Z</time>
      </trkpt>
      <trkpt lat="45.5116" lon="4.75076">
        <ele>388</ele>
        <time>2013-10-26T10:29:06Z</time>
      </trkpt>
      <trkpt lat="45.51154" lon="4.75077">
        <ele>388</ele>
        <time>2013-10-26T10:29:07Z</time>
      </trkpt>
      <trkpt lat="45.51147" lon="4.7508">
        <ele>388</ele>
        <time>2013-10-26T10:29:09Z</time>
      </trkpt>
      <trkpt lat="45.51145" lon="4.7508">
        <ele>388</ele>
        <time>2013-10-26T10:29:10Z</time>
      </trkpt>
      <trkpt lat="45.51138" lon="4.75083">
        <ele>388</ele>
        <time>2013-10-26T10:29:12Z</time>
      </trkpt>
      <trkpt lat="45.51136" lon="4.75085">
        <ele>388</ele>
        <time>2013-10-26T10:29:13Z</time>
      </trkpt>
      <trkpt lat="45.51132" lon="4.75092">
        <ele>388</ele>
        <time>2013-10-26T10:29:16Z</time>
      </trkpt>
      <trkpt lat="45.51133" lon="4.75097">
        <ele>388</ele>
        <time>2013-10-26T10:29:17Z</time>
      </trkpt>
      <trkpt lat="45.51129" lon="4.75108">
        <ele>388</ele>
        <time>2013-10-26T10:29:20Z</time>
      </trkpt>
      <trkpt lat="45.51129" lon="4.75111">
        <ele>388</ele>
        <time>2013-10-26T10:29:21Z</time>
      </trkpt>
      <trkpt lat="45.51125" lon="4.75119">
        <ele>388</ele>
        <time>2013-10-26T10:29:23Z</time>
      </trkpt>
      <trkpt lat="45.51123" lon="4.75122">
        <ele>388</ele>
        <time>2013-10-26T10:29:24Z</time>
      </trkpt>
      <trkpt lat="45.51117" lon="4.75132">
        <ele>387</ele>
        <time>2013-10-26T10:29:27Z</time>
      </trkpt>
      <trkpt lat="45.51115" lon="4.75134">
        <ele>387</ele>
        <time>2013-10-26T10:29:28Z</time>
      </trkpt>
      <trkpt lat="45.51109" lon="4.75139">
        <ele>387</ele>
        <time>2013-10-26T10:29:30Z</time>
      </trkpt>
      <trkpt lat="45.51107" lon="4.75142">
        <ele>387</ele>
        <time>2013-10-26T10:29:31Z</time>
      </trkpt>
      <trkpt lat="45.51103" lon="4.75152">
        <ele>387</ele>
        <time>2013-10-26T10:29:34Z</time>
      </trkpt>
      <trkpt lat="45.51101" lon="4.75154">
        <ele>386</ele>
        <time>2013-10-26T10:29:35Z</time>
      </trkpt>
      <trkpt lat="45.51097" lon="4.7516">
        <ele>386</ele>
        <time>2013-10-26T10:29:37Z</time>
      </trkpt>
      <trkpt lat="45.51095" lon="4.75164">
        <ele>386</ele>
        <time>2013-10-26T10:29:38Z</time>
      </trkpt>
      <trkpt lat="45.51092" lon="4.75172">
        <ele>386</ele>
        <time>2013-10-26T10:29:41Z</time>
      </trkpt>
      <trkpt lat="45.51091" lon="4.75176">
        <ele>386</ele>
        <time>2013-10-26T10:29:42Z</time>
      </trkpt>
      <trkpt lat="45.51085" lon="4.75185">
        <ele>387</ele>
        <time>2013-10-26T10:29:44Z</time>
      </trkpt>
      <trkpt lat="45.51081" lon="4.7519">
        <ele>383</ele>
        <time>2013-10-26T10:29:44Z</time>
      </trkpt>
      <trkpt lat="45.51076" lon="4.752">
        <ele>383</ele>
        <time>2013-10-26T10:29:46Z</time>
      </trkpt>
      <trkpt lat="45.51075" lon="4.75205">
        <ele>383</ele>
        <time>2013-10-26T10:29:47Z</time>
      </trkpt>
      <trkpt lat="45.51081" lon="4.75211">
        <ele>383</ele>
        <time>2013-10-26T10:29:48Z</time>
      </trkpt>
      <trkpt lat="45.51083" lon="4.75215">
        <ele>384</ele>
        <time>2013-10-26T10:29:49Z</time>
      </trkpt>
      <trkpt lat="45.51088" lon="4.75224">
        <ele>389</ele>
        <time>2013-10-26T10:29:52Z</time>
      </trkpt>
      <trkpt lat="45.51091" lon="4.75226">
        <ele>389</ele>
        <time>2013-10-26T10:29:53Z</time>
      </trkpt>
      <trkpt lat="45.51096" lon="4.7523">
        <ele>389</ele>
        <time>2013-10-26T10:29:55Z</time>
      </trkpt>
      <trkpt lat="45.51099" lon="4.75233">
        <ele>389</ele>
        <time>2013-10-26T10:29:56Z</time>
      </trkpt>
      <trkpt lat="45.51105" lon="4.75228">
        <ele>389</ele>
        <time>2013-10-26T10:29:58Z</time>
      </trkpt>
      <trkpt lat="45.51109" lon="4.75228">
        <ele>389</ele>
        <time>2013-10-26T10:29:59Z</time>
      </trkpt>
      <trkpt lat="45.51115" lon="4.75224">
        <ele>389</ele>
        <time>2013-10-26T10:30:01Z</time>
      </trkpt>
      <trkpt lat="45.51118" lon="4.75222">
        <ele>390</ele>
        <time>2013-10-26T10:30:02Z</time>
      </trkpt>
      <trkpt lat="45.51125" lon="4.75217">
        <ele>390</ele>
        <time>2013-10-26T10:30:04Z</time>
      </trkpt>
      <trkpt lat="45.51128" lon="4.75217">
        <ele>390</ele>
        <time>2013-10-26T10:30:05Z</time>
      </trkpt>
      <trkpt lat="45.51137" lon="4.75214">
        <ele>390</ele>
        <time>2013-10-26T10:30:08Z</time>
      </trkpt>
      <trkpt lat="45.5114" lon="4.75212">
        <ele>390</ele>
        <time>2013-10-26T10:30:09Z</time>
      </trkpt>
      <trkpt lat="45.51146" lon="4.75206">
        <ele>391</ele>
        <time>2013-10-26T10:30:12Z</time>
      </trkpt>
      <trkpt lat="45.51149" lon="4.75204">
        <ele>391</ele>
        <time>2013-10-26T10:30:13Z</time>
      </trkpt>
      <trkpt lat="45.51157" lon="4.75199">
        <ele>391</ele>
        <time>2013-10-26T10:30:16Z</time>
      </trkpt>
      <trkpt lat="45.51158" lon="4.75197">
        <ele>391</ele>
        <time>2013-10-26T10:30:17Z</time>
      </trkpt>
      <trkpt lat="45.51165" lon="4.75193">
        <ele>391</ele>
        <time>2013-10-26T10:30:20Z</time>
      </trkpt>
      <trkpt lat="45.5117" lon="4.75192">
        <ele>396</ele>
        <time>2013-10-26T10:30:21Z</time>
      </trkpt>
      <trkpt lat="45.51176" lon="4.75187">
        <ele>396</ele>
        <time>2013-10-26T10:30:23Z</time>
      </trkpt>
      <trkpt lat="45.51179" lon="4.75187">
        <ele>396</ele>
        <time>2013-10-26T10:30:24Z</time>
      </trkpt>
      <trkpt lat="45.51184" lon="4.75192">
        <ele>396</ele>
        <time>2013-10-26T10:30:26Z</time>
      </trkpt>
      <trkpt lat="45.51187" lon="4.75194">
        <ele>397</ele>
        <time>2013-10-26T10:30:27Z</time>
      </trkpt>
      <trkpt lat="45.51193" lon="4.752">
        <ele>397</ele>
        <time>2013-10-26T10:30:30Z</time>
      </trkpt>
      <trkpt lat="45.51196" lon="4.75202">
        <ele>397</ele>
        <time>2013-10-26T10:30:31Z</time>
      </trkpt>
      <trkpt lat="45.51202" lon="4.75208">
        <ele>397</ele>
        <time>2013-10-26T10:30:33Z</time>
      </trkpt>
      <trkpt lat="45.51205" lon="4.75209">
        <ele>397</ele>
        <time>2013-10-26T10:30:34Z</time>
      </trkpt>
      <trkpt lat="45.5121" lon="4.75215">
        <ele>397</ele>
        <time>2013-10-26T10:30:36Z</time>
      </trkpt>
      <trkpt lat="45.51212" lon="4.75218">
        <ele>398</ele>
        <time>2013-10-26T10:30:37Z</time>
      </trkpt>
      <trkpt lat="45.51218" lon="4.75224">
        <ele>398</ele>
        <time>2013-10-26T10:30:39Z</time>
      </trkpt>
      <trkpt lat="45.51221" lon="4.75227">
        <ele>398</ele>
        <time>2013-10-26T10:30:40Z</time>
      </trkpt>
      <trkpt lat="45.51226" lon="4.75229">
        <ele>398</ele>
        <time>2013-10-26T10:30:42Z</time>
      </trkpt>
      <trkpt lat="45.51229" lon="4.75231">
        <ele>398</ele>
        <time>2013-10-26T10:30:43Z</time>
      </trkpt>
      <trkpt lat="45.51236" lon="4.75236">
        <ele>399</ele>
        <time>2013-10-26T10:30:47Z</time>
      </trkpt>
      <trkpt lat="45.5124" lon="4.75242">
        <ele>399</ele>
        <time>2013-10-26T10:30:48Z</time>
      </trkpt>
      <trkpt lat="45.51246" lon="4.75244">
        <ele>399</ele>
        <time>2013-10-26T10:30:49Z</time>
      </trkpt>
      <trkpt lat="45.51249" lon="4.75245">
        <ele>400</ele>
        <time>2013-10-26T10:30:50Z</time>
      </trkpt>
      <trkpt lat="45.51255" lon="4.75247">
        <ele>401</ele>
        <time>2013-10-26T10:30:52Z</time>
      </trkpt>
      <trkpt lat="45.51258" lon="4.75247">
        <ele>401</ele>
        <time>2013-10-26T10:30:53Z</time>
      </trkpt>
      <trkpt lat="45.51264" lon="4.75247">
        <ele>401</ele>
        <time>2013-10-26T10:30:56Z</time>
      </trkpt>
      <trkpt lat="45.51267" lon="4.75247">
        <ele>402</ele>
        <time>2013-10-26T10:30:57Z</time>
      </trkpt>
      <trkpt lat="45.51274" lon="4.75243">
        <ele>402</ele>
        <time>2013-10-26T10:31:01Z</time>
      </trkpt>
      <trkpt lat="45.51278" lon="4.75244">
        <ele>402</ele>
        <time>2013-10-26T10:31:02Z</time>
      </trkpt>
      <trkpt lat="45.51282" lon="4.75236">
        <ele>402</ele>
        <time>2013-10-26T10:31:06Z</time>
      </trkpt>
      <trkpt lat="45.51284" lon="4.75234">
        <ele>402</ele>
        <time>2013-10-26T10:31:07Z</time>
      </trkpt>
      <trkpt lat="45.5129" lon="4.75228">
        <ele>403</ele>
        <time>2013-10-26T10:31:10Z</time>
      </trkpt>
      <trkpt lat="45.51292" lon="4.75226">
        <ele>403</ele>
        <time>2013-10-26T10:31:11Z</time>
      </trkpt>
      <trkpt lat="45.51297" lon="4.75218">
        <ele>403</ele>
        <time>2013-10-26T10:31:15Z</time>
      </trkpt>
      <trkpt lat="45.51299" lon="4.75217">
        <ele>403</ele>
        <time>2013-10-26T10:31:16Z</time>
      </trkpt>
      <trkpt lat="45.51305" lon="4.75212">
        <ele>404</ele>
        <time>2013-10-26T10:31:20Z</time>
      </trkpt>
      <trkpt lat="45.51306" lon="4.75209">
        <ele>404</ele>
        <time>2013-10-26T10:31:21Z</time>
      </trkpt>
      <trkpt lat="45.51311" lon="4.75203">
        <ele>404</ele>
        <time>2013-10-26T10:31:24Z</time>
      </trkpt>
      <trkpt lat="45.51314" lon="4.75201">
        <ele>405</ele>
        <time>2013-10-26T10:31:25Z</time>
      </trkpt>
      <trkpt lat="45.51322" lon="4.75196">
        <ele>405</ele>
        <time>2013-10-26T10:31:31Z</time>
      </trkpt>
      <trkpt lat="45.51322" lon="4.75192">
        <ele>406</ele>
        <time>2013-10-26T10:31:32Z</time>
      </trkpt>
      <trkpt lat="45.51329" lon="4.75184">
        <ele>407</ele>
        <time>2013-10-26T10:31:36Z</time>
      </trkpt>
      <trkpt lat="45.51329" lon="4.75181">
        <ele>407</ele>
        <time>2013-10-26T10:31:37Z</time>
      </trkpt>
      <trkpt lat="45.51334" lon="4.75174">
        <ele>410</ele>
        <time>2013-10-26T10:31:42Z</time>
      </trkpt>
      <trkpt lat="45.51334" lon="4.75171">
        <ele>411</ele>
        <time>2013-10-26T10:31:43Z</time>
      </trkpt>
      <trkpt lat="45.51341" lon="4.75165">
        <ele>412</ele>
        <time>2013-10-26T10:31:47Z</time>
      </trkpt>
      <trkpt lat="45.51343" lon="4.75165">
        <ele>412</ele>
        <time>2013-10-26T10:31:48Z</time>
      </trkpt>
      <trkpt lat="45.5135" lon="4.75158">
        <ele>413</ele>
        <time>2013-10-26T10:31:53Z</time>
      </trkpt>
      <trkpt lat="45.51352" lon="4.75157">
        <ele>414</ele>
        <time>2013-10-26T10:31:54Z</time>
      </trkpt>
      <trkpt lat="45.51357" lon="4.75148">
        <ele>414</ele>
        <time>2013-10-26T10:31:59Z</time>
      </trkpt>
      <trkpt lat="45.51358" lon="4.75147">
        <ele>414</ele>
        <time>2013-10-26T10:32:00Z</time>
      </trkpt>
      <trkpt lat="45.51363" lon="4.75138">
        <ele>415</ele>
        <time>2013-10-26T10:32:06Z</time>
      </trkpt>
      <trkpt lat="45.51364" lon="4.75136">
        <ele>415</ele>
        <time>2013-10-26T10:32:07Z</time>
      </trkpt>
      <trkpt lat="45.51372" lon="4.75132">
        <ele>415</ele>
        <time>2013-10-26T10:32:12Z</time>
      </trkpt>
      <trkpt lat="45.51371" lon="4.75128">
        <ele>416</ele>
        <time>2013-10-26T10:32:13Z</time>
      </trkpt>
      <trkpt lat="45.51378" lon="4.7512">
        <ele>416</ele>
        <time>2013-10-26T10:32:18Z</time>
      </trkpt>
      <trkpt lat="45.51379" lon="4.75119">
        <ele>416</ele>
        <time>2013-10-26T10:32:19Z</time>
      </trkpt>
      <trkpt lat="45.51384" lon="4.75111">
        <ele>417</ele>
        <time>2013-10-26T10:32:25Z</time>
      </trkpt>
      <trkpt lat="45.51386" lon="4.7511">
        <ele>417</ele>
        <time>2013-10-26T10:32:26Z</time>
      </trkpt>
      <trkpt lat="45.51391" lon="4.75106">
        <ele>417</ele>
        <time>2013-10-26T10:32:29Z</time>
      </trkpt>
      <trkpt lat="45.51394" lon="4.75105">
        <ele>417</ele>
        <time>2013-10-26T10:32:30Z</time>
      </trkpt>
      <trkpt lat="45.51399" lon="4.751">
        <ele>418</ele>
        <time>2013-10-26T10:32:33Z</time>
      </trkpt>
      <trkpt lat="45.51402" lon="4.75098">
        <ele>418</ele>
        <time>2013-10-26T10:32:34Z</time>
      </trkpt>
      <trkpt lat="45.51407" lon="4.75091">
        <ele>420</ele>
        <time>2013-10-26T10:32:37Z</time>
      </trkpt>
      <trkpt lat="45.51409" lon="4.75089">
        <ele>420</ele>
        <time>2013-10-26T10:32:38Z</time>
      </trkpt>
      <trkpt lat="45.51414" lon="4.75082">
        <ele>421</ele>
        <time>2013-10-26T10:32:41Z</time>
      </trkpt>
      <trkpt lat="45.51417" lon="4.75078">
        <ele>422</ele>
        <time>2013-10-26T10:32:42Z</time>
      </trkpt>
      <trkpt lat="45.51424" lon="4.75075">
        <ele>422</ele>
        <time>2013-10-26T10:32:46Z</time>
      </trkpt>
      <trkpt lat="45.51427" lon="4.75072">
        <ele>421</ele>
        <time>2013-10-26T10:32:47Z</time>
      </trkpt>
      <trkpt lat="45.51435" lon="4.75065">
        <ele>421</ele>
        <time>2013-10-26T10:32:51Z</time>
      </trkpt>
      <trkpt lat="45.51436" lon="4.75064">
        <ele>421</ele>
        <time>2013-10-26T10:32:52Z</time>
      </trkpt>
      <trkpt lat="45.51442" lon="4.75056">
        <ele>421</ele>
        <time>2013-10-26T10:32:56Z</time>
      </trkpt>
      <trkpt lat="45.51443" lon="4.75053">
        <ele>421</ele>
        <time>2013-10-26T10:32:57Z</time>
      </trkpt>
      <trkpt lat="45.51447" lon="4.75044">
        <ele>421</ele>
        <time>2013-10-26T10:33:00Z</time>
      </trkpt>
      <trkpt lat="45.5145" lon="4.75042">
        <ele>421</ele>
        <time>2013-10-26T10:33:01Z</time>
      </trkpt>
      <trkpt lat="45.51455" lon="4.75038">
        <ele>421</ele>
        <time>2013-10-26T10:33:03Z</time>
      </trkpt>
      <trkpt lat="45.5146" lon="4.75035">
        <ele>421</ele>
        <time>2013-10-26T10:33:04Z</time>
      </trkpt>
      <trkpt lat="45.51465" lon="4.7503">
        <ele>421</ele>
        <time>2013-10-26T10:33:06Z</time>
      </trkpt>
      <trkpt lat="45.51468" lon="4.75029">
        <ele>422</ele>
        <time>2013-10-26T10:33:07Z</time>
      </trkpt>
      <trkpt lat="45.51475" lon="4.75022">
        <ele>422</ele>
        <time>2013-10-26T10:33:10Z</time>
      </trkpt>
      <trkpt lat="45.51479" lon="4.7502">
        <ele>422</ele>
        <time>2013-10-26T10:33:11Z</time>
      </trkpt>
      <trkpt lat="45.51486" lon="4.75014">
        <ele>423</ele>
        <time>2013-10-26T10:33:14Z</time>
      </trkpt>
      <trkpt lat="45.51489" lon="4.75011">
        <ele>423</ele>
        <time>2013-10-26T10:33:15Z</time>
      </trkpt>
      <trkpt lat="45.51494" lon="4.75009">
        <ele>424</ele>
        <time>2013-10-26T10:33:17Z</time>
      </trkpt>
      <trkpt lat="45.51497" lon="4.75006">
        <ele>424</ele>
        <time>2013-10-26T10:33:18Z</time>
      </trkpt>
      <trkpt lat="45.51504" lon="4.74999">
        <ele>425</ele>
        <time>2013-10-26T10:33:21Z</time>
      </trkpt>
      <trkpt lat="45.51507" lon="4.74997">
        <ele>426</ele>
        <time>2013-10-26T10:33:22Z</time>
      </trkpt>
      <trkpt lat="45.51514" lon="4.74991">
        <ele>426</ele>
        <time>2013-10-26T10:33:25Z</time>
      </trkpt>
      <trkpt lat="45.51517" lon="4.74991">
        <ele>426</ele>
        <time>2013-10-26T10:33:26Z</time>
      </trkpt>
      <trkpt lat="45.51524" lon="4.74984">
        <ele>427</ele>
        <time>2013-10-26T10:33:29Z</time>
      </trkpt>
      <trkpt lat="45.51527" lon="4.74981">
        <ele>427</ele>
        <time>2013-10-26T10:33:30Z</time>
      </trkpt>
      <trkpt lat="45.51532" lon="4.74977">
        <ele>427</ele>
        <time>2013-10-26T10:33:32Z</time>
      </trkpt>
      <trkpt lat="45.51534" lon="4.74974">
        <ele>427</ele>
        <time>2013-10-26T10:33:33Z</time>
      </trkpt>
      <trkpt lat="45.51541" lon="4.74967">
        <ele>427</ele>
        <time>2013-10-26T10:33:37Z</time>
      </trkpt>
      <trkpt lat="45.51542" lon="4.74965">
        <ele>427</ele>
        <time>2013-10-26T10:33:38Z</time>
      </trkpt>
      <trkpt lat="45.51547" lon="4.74956">
        <ele>428</ele>
        <time>2013-10-26T10:33:43Z</time>
      </trkpt>
      <trkpt lat="45.51548" lon="4.74953">
        <ele>428</ele>
        <time>2013-10-26T10:33:44Z</time>
      </trkpt>
      <trkpt lat="45.51553" lon="4.74945">
        <ele>428</ele>
        <time>2013-10-26T10:33:47Z</time>
      </trkpt>
      <trkpt lat="45.51554" lon="4.74944">
        <ele>428</ele>
        <time>2013-10-26T10:33:48Z</time>
      </trkpt>
      <trkpt lat="45.51559" lon="4.74935">
        <ele>429</ele>
        <time>2013-10-26T10:33:52Z</time>
      </trkpt>
      <trkpt lat="45.51561" lon="4.74933">
        <ele>429</ele>
        <time>2013-10-26T10:33:53Z</time>
      </trkpt>
      <trkpt lat="45.51569" lon="4.74933">
        <ele>430</ele>
        <time>2013-10-26T10:33:55Z</time>
      </trkpt>
      <trkpt lat="45.51572" lon="4.74932">
        <ele>430</ele>
        <time>2013-10-26T10:33:56Z</time>
      </trkpt>
      <trkpt lat="45.51579" lon="4.74927">
        <ele>431</ele>
        <time>2013-10-26T10:33:59Z</time>
      </trkpt>
      <trkpt lat="45.51581" lon="4.74926">
        <ele>431</ele>
        <time>2013-10-26T10:34:00Z</time>
      </trkpt>
      <trkpt lat="45.51587" lon="4.74919">
        <ele>433</ele>
        <time>2013-10-26T10:34:04Z</time>
      </trkpt>
      <trkpt lat="45.5159" lon="4.74916">
        <ele>433</ele>
        <time>2013-10-26T10:34:05Z</time>
      </trkpt>
      <trkpt lat="45.51596" lon="4.74908">
        <ele>433</ele>
        <time>2013-10-26T10:34:08Z</time>
      </trkpt>
      <trkpt lat="45.51598" lon="4.74907">
        <ele>433</ele>
        <time>2013-10-26T10:34:09Z</time>
      </trkpt>
      <trkpt lat="45.51602" lon="4.74897">
        <ele>433</ele>
        <time>2013-10-26T10:34:14Z</time>
      </trkpt>
      <trkpt lat="45.51606" lon="4.74896">
        <ele>433</ele>
        <time>2013-10-26T10:34:15Z</time>
      </trkpt>
      <trkpt lat="45.51613" lon="4.7489">
        <ele>433</ele>
        <time>2013-10-26T10:34:19Z</time>
      </trkpt>
      <trkpt lat="45.51616" lon="4.74891">
        <ele>433</ele>
        <time>2013-10-26T10:34:20Z</time>
      </trkpt>
      <trkpt lat="45.51624" lon="4.74888">
        <ele>434</ele>
        <time>2013-10-26T10:34:26Z</time>
      </trkpt>
      <trkpt lat="45.51626" lon="4.74886">
        <ele>434</ele>
        <time>2013-10-26T10:34:27Z</time>
      </trkpt>
      <trkpt lat="45.51633" lon="4.74879">
        <ele>434</ele>
        <time>2013-10-26T10:34:30Z</time>
      </trkpt>
      <trkpt lat="45.51634" lon="4.74876">
        <ele>434</ele>
        <time>2013-10-26T10:34:31Z</time>
      </trkpt>
      <trkpt lat="45.5164" lon="4.74868">
        <ele>434</ele>
        <time>2013-10-26T10:34:34Z</time>
      </trkpt>
      <trkpt lat="45.51641" lon="4.74865">
        <ele>434</ele>
        <time>2013-10-26T10:34:35Z</time>
      </trkpt>
      <trkpt lat="45.51646" lon="4.74856">
        <ele>435</ele>
        <time>2013-10-26T10:34:38Z</time>
      </trkpt>
      <trkpt lat="45.51647" lon="4.74853">
        <ele>435</ele>
        <time>2013-10-26T10:34:39Z</time>
      </trkpt>
      <trkpt lat="45.5165" lon="4.74841">
        <ele>436</ele>
        <time>2013-10-26T10:34:43Z</time>
      </trkpt>
      <trkpt lat="45.51651" lon="4.74839">
        <ele>436</ele>
        <time>2013-10-26T10:34:44Z</time>
      </trkpt>
      <trkpt lat="45.51654" lon="4.74829">
        <ele>438</ele>
        <time>2013-10-26T10:34:49Z</time>
      </trkpt>
      <trkpt lat="45.51655" lon="4.74825">
        <ele>438</ele>
        <time>2013-10-26T10:34:50Z</time>
      </trkpt>
      <trkpt lat="45.51655" lon="4.74814">
        <ele>438</ele>
        <time>2013-10-26T10:34:54Z</time>
      </trkpt>
      <trkpt lat="45.51658" lon="4.7481">
        <ele>438</ele>
        <time>2013-10-26T10:34:55Z</time>
      </trkpt>
      <trkpt lat="45.5166" lon="4.74798">
        <ele>439</ele>
        <time>2013-10-26T10:35:00Z</time>
      </trkpt>
      <trkpt lat="45.5166" lon="4.74796">
        <ele>439</ele>
        <time>2013-10-26T10:35:01Z</time>
      </trkpt>
      <trkpt lat="45.51663" lon="4.74785">
        <ele>439</ele>
        <time>2013-10-26T10:35:05Z</time>
      </trkpt>
      <trkpt lat="45.51664" lon="4.74782">
        <ele>440</ele>
        <time>2013-10-26T10:35:06Z</time>
      </trkpt>
      <trkpt lat="45.51666" lon="4.74772">
        <ele>441</ele>
        <time>2013-10-26T10:35:10Z</time>
      </trkpt>
      <trkpt lat="45.51667" lon="4.7477">
        <ele>443</ele>
        <time>2013-10-26T10:35:11Z</time>
      </trkpt>
      <trkpt lat="45.5167" lon="4.7476">
        <ele>444</ele>
        <time>2013-10-26T10:35:15Z</time>
      </trkpt>
      <trkpt lat="45.5167" lon="4.74757">
        <ele>444</ele>
        <time>2013-10-26T10:35:16Z</time>
      </trkpt>
      <trkpt lat="45.51672" lon="4.74746">
        <ele>446</ele>
        <time>2013-10-26T10:35:20Z</time>
      </trkpt>
      <trkpt lat="45.51672" lon="4.74742">
        <ele>446</ele>
        <time>2013-10-26T10:35:21Z</time>
      </trkpt>
      <trkpt lat="45.51673" lon="4.7473">
        <ele>447</ele>
        <time>2013-10-26T10:35:25Z</time>
      </trkpt>
      <trkpt lat="45.51673" lon="4.74727">
        <ele>447</ele>
        <time>2013-10-26T10:35:26Z</time>
      </trkpt>
      <trkpt lat="45.51674" lon="4.74716">
        <ele>448</ele>
        <time>2013-10-26T10:35:30Z</time>
      </trkpt>
      <trkpt lat="45.51674" lon="4.74714">
        <ele>448</ele>
        <time>2013-10-26T10:35:31Z</time>
      </trkpt>
      <trkpt lat="45.51676" lon="4.74702">
        <ele>449</ele>
        <time>2013-10-26T10:35:35Z</time>
      </trkpt>
      <trkpt lat="45.51676" lon="4.747">
        <ele>449</ele>
        <time>2013-10-26T10:35:36Z</time>
      </trkpt>
      <trkpt lat="45.51678" lon="4.74688">
        <ele>450</ele>
        <time>2013-10-26T10:35:41Z</time>
      </trkpt>
      <trkpt lat="45.51678" lon="4.74685">
        <ele>450</ele>
        <time>2013-10-26T10:35:42Z</time>
      </trkpt>
      <trkpt lat="45.51679" lon="4.74674">
        <ele>450</ele>
        <time>2013-10-26T10:35:48Z</time>
      </trkpt>
      <trkpt lat="45.5168" lon="4.74671">
        <ele>451</ele>
        <time>2013-10-26T10:35:49Z</time>
      </trkpt>
      <trkpt lat="45.51681" lon="4.7466">
        <ele>454</ele>
        <time>2013-10-26T10:35:54Z</time>
      </trkpt>
      <trkpt lat="45.51681" lon="4.74658">
        <ele>454</ele>
        <time>2013-10-26T10:35:55Z</time>
      </trkpt>
      <trkpt lat="45.51681" lon="4.74646">
        <ele>455</ele>
        <time>2013-10-26T10:36:02Z</time>
      </trkpt>
      <trkpt lat="45.51681" lon="4.74644">
        <ele>455</ele>
        <time>2013-10-26T10:36:03Z</time>
      </trkpt>
      <trkpt lat="45.51681" lon="4.74634">
        <ele>456</ele>
        <time>2013-10-26T10:36:07Z</time>
      </trkpt>
      <trkpt lat="45.5168" lon="4.74631">
        <ele>456</ele>
        <time>2013-10-26T10:36:08Z</time>
      </trkpt>
      <trkpt lat="45.51682" lon="4.74618">
        <ele>457</ele>
        <time>2013-10-26T10:36:14Z</time>
      </trkpt>
      <trkpt lat="45.51681" lon="4.74615">
        <ele>457</ele>
        <time>2013-10-26T10:36:15Z</time>
      </trkpt>
      <trkpt lat="45.5168" lon="4.74603">
        <ele>459</ele>
        <time>2013-10-26T10:36:21Z</time>
      </trkpt>
      <trkpt lat="45.5168" lon="4.74601">
        <ele>459</ele>
        <time>2013-10-26T10:36:22Z</time>
      </trkpt>
      <trkpt lat="45.51682" lon="4.74589">
        <ele>460</ele>
        <time>2013-10-26T10:36:28Z</time>
      </trkpt>
      <trkpt lat="45.51682" lon="4.74587">
        <ele>460</ele>
        <time>2013-10-26T10:36:29Z</time>
      </trkpt>
      <trkpt lat="45.51683" lon="4.74575">
        <ele>465</ele>
        <time>2013-10-26T10:36:37Z</time>
      </trkpt>
      <trkpt lat="45.51683" lon="4.74573">
        <ele>465</ele>
        <time>2013-10-26T10:36:38Z</time>
      </trkpt>
      <trkpt lat="45.51686" lon="4.74563">
        <ele>466</ele>
        <time>2013-10-26T10:36:46Z</time>
      </trkpt>
      <trkpt lat="45.51686" lon="4.74561">
        <ele>466</ele>
        <time>2013-10-26T10:36:47Z</time>
      </trkpt>
      <trkpt lat="45.51688" lon="4.74549">
        <ele>467</ele>
        <time>2013-10-26T10:36:53Z</time>
      </trkpt>
      <trkpt lat="45.51689" lon="4.74548">
        <ele>467</ele>
        <time>2013-10-26T10:36:54Z</time>
      </trkpt>
      <trkpt lat="45.51694" lon="4.74539">
        <ele>467</ele>
        <time>2013-10-26T10:37:01Z</time>
      </trkpt>
      <trkpt lat="45.51694" lon="4.74537">
        <ele>468</ele>
        <time>2013-10-26T10:37:02Z</time>
      </trkpt>
      <trkpt lat="45.51701" lon="4.74532">
        <ele>468</ele>
        <time>2013-10-26T10:37:08Z</time>
      </trkpt>
      <trkpt lat="45.51702" lon="4.7453">
        <ele>468</ele>
        <time>2013-10-26T10:37:09Z</time>
      </trkpt>
      <trkpt lat="45.51708" lon="4.74521">
        <ele>468</ele>
        <time>2013-10-26T10:37:15Z</time>
      </trkpt>
      <trkpt lat="45.51709" lon="4.74518">
        <ele>468</ele>
        <time>2013-10-26T10:37:16Z</time>
      </trkpt>
      <trkpt lat="45.51713" lon="4.74508">
        <ele>469</ele>
        <time>2013-10-26T10:37:22Z</time>
      </trkpt>
      <trkpt lat="45.51714" lon="4.74507">
        <ele>469</ele>
        <time>2013-10-26T10:37:23Z</time>
      </trkpt>
      <trkpt lat="45.51719" lon="4.74501">
        <ele>469</ele>
        <time>2013-10-26T10:37:26Z</time>
      </trkpt>
      <trkpt lat="45.51721" lon="4.74497">
        <ele>476</ele>
        <time>2013-10-26T10:37:27Z</time>
      </trkpt>
      <trkpt lat="45.51726" lon="4.7449">
        <ele>476</ele>
        <time>2013-10-26T10:37:30Z</time>
      </trkpt>
      <trkpt lat="45.51728" lon="4.74488">
        <ele>476</ele>
        <time>2013-10-26T10:37:31Z</time>
      </trkpt>
      <trkpt lat="45.51732" lon="4.74481">
        <ele>477</ele>
        <time>2013-10-26T10:37:34Z</time>
      </trkpt>
      <trkpt lat="45.51733" lon="4.74478">
        <ele>477</ele>
        <time>2013-10-26T10:37:35Z</time>
      </trkpt>
      <trkpt lat="45.51739" lon="4.74469">
        <ele>478</ele>
        <time>2013-10-26T10:37:37Z</time>
      </trkpt>
      <trkpt lat="45.5174" lon="4.74465">
        <ele>478</ele>
        <time>2013-10-26T10:37:38Z</time>
      </trkpt>
      <trkpt lat="45.51743" lon="4.74459">
        <ele>479</ele>
        <time>2013-10-26T10:37:40Z</time>
      </trkpt>
      <trkpt lat="45.51745" lon="4.74452">
        <ele>480</ele>
        <time>2013-10-26T10:37:41Z</time>
      </trkpt>
      <trkpt lat="45.5175" lon="4.74447">
        <ele>480</ele>
        <time>2013-10-26T10:37:43Z</time>
      </trkpt>
      <trkpt lat="45.51754" lon="4.74445">
        <ele>476</ele>
        <time>2013-10-26T10:37:44Z</time>
      </trkpt>
      <trkpt lat="45.51762" lon="4.74442">
        <ele>476</ele>
        <time>2013-10-26T10:37:46Z</time>
      </trkpt>
      <trkpt lat="45.51765" lon="4.74442">
        <ele>476</ele>
        <time>2013-10-26T10:37:47Z</time>
      </trkpt>
      <trkpt lat="45.51772" lon="4.7444">
        <ele>476</ele>
        <time>2013-10-26T10:37:49Z</time>
      </trkpt>
      <trkpt lat="45.51776" lon="4.7444">
        <ele>476</ele>
        <time>2013-10-26T10:37:50Z</time>
      </trkpt>
      <trkpt lat="45.51784" lon="4.74439">
        <ele>475</ele>
        <time>2013-10-26T10:37:52Z</time>
      </trkpt>
      <trkpt lat="45.51787" lon="4.74439">
        <ele>475</ele>
        <time>2013-10-26T10:37:53Z</time>
      </trkpt>
      <trkpt lat="45.51794" lon="4.74438">
        <ele>475</ele>
        <time>2013-10-26T10:37:55Z</time>
      </trkpt>
      <trkpt lat="45.51798" lon="4.74438">
        <ele>474</ele>
        <time>2013-10-26T10:37:56Z</time>
      </trkpt>
      <trkpt lat="45.51805" lon="4.74436">
        <ele>474</ele>
        <time>2013-10-26T10:37:58Z</time>
      </trkpt>
      <trkpt lat="45.51809" lon="4.74435">
        <ele>474</ele>
        <time>2013-10-26T10:37:59Z</time>
      </trkpt>
      <trkpt lat="45.51816" lon="4.74432">
        <ele>475</ele>
        <time>2013-10-26T10:38:01Z</time>
      </trkpt>
      <trkpt lat="45.5182" lon="4.74429">
        <ele>475</ele>
        <time>2013-10-26T10:38:02Z</time>
      </trkpt>
      <trkpt lat="45.51826" lon="4.74421">
        <ele>476</ele>
        <time>2013-10-26T10:38:04Z</time>
      </trkpt>
      <trkpt lat="45.51828" lon="4.74416">
        <ele>479</ele>
        <time>2013-10-26T10:38:05Z</time>
      </trkpt>
      <trkpt lat="45.51833" lon="4.74407">
        <ele>481</ele>
        <time>2013-10-26T10:38:07Z</time>
      </trkpt>
      <trkpt lat="45.51835" lon="4.74403">
        <ele>480</ele>
        <time>2013-10-26T10:38:08Z</time>
      </trkpt>
      <trkpt lat="45.5184" lon="4.74395">
        <ele>481</ele>
        <time>2013-10-26T10:38:10Z</time>
      </trkpt>
      <trkpt lat="45.51841" lon="4.74391">
        <ele>482</ele>
        <time>2013-10-26T10:38:11Z</time>
      </trkpt>
      <trkpt lat="45.51846" lon="4.74381">
        <ele>483</ele>
        <time>2013-10-26T10:38:14Z</time>
      </trkpt>
      <trkpt lat="45.51848" lon="4.74377">
        <ele>484</ele>
        <time>2013-10-26T10:38:15Z</time>
      </trkpt>
      <trkpt lat="45.51856" lon="4.74372">
        <ele>485</ele>
        <time>2013-10-26T10:38:18Z</time>
      </trkpt>
      <trkpt lat="45.51858" lon="4.74366">
        <ele>485</ele>
        <time>2013-10-26T10:38:19Z</time>
      </trkpt>
      <trkpt lat="45.51864" lon="4.74359">
        <ele>486</ele>
        <time>2013-10-26T10:38:21Z</time>
      </trkpt>
      <trkpt lat="45.51867" lon="4.74356">
        <ele>486</ele>
        <time>2013-10-26T10:38:22Z</time>
      </trkpt>
      <trkpt lat="45.51874" lon="4.74351">
        <ele>486</ele>
        <time>2013-10-26T10:38:25Z</time>
      </trkpt>
      <trkpt lat="45.51877" lon="4.74348">
        <ele>486</ele>
        <time>2013-10-26T10:38:26Z</time>
      </trkpt>
      <trkpt lat="45.51885" lon="4.74347">
        <ele>487</ele>
        <time>2013-10-26T10:38:28Z</time>
      </trkpt>
      <trkpt lat="45.51888" lon="4.74346">
        <ele>487</ele>
        <time>2013-10-26T10:38:29Z</time>
      </trkpt>
      <trkpt lat="45.51896" lon="4.74345">
        <ele>487</ele>
        <time>2013-10-26T10:38:32Z</time>
      </trkpt>
      <trkpt lat="45.519" lon="4.74347">
        <ele>487</ele>
        <time>2013-10-26T10:38:33Z</time>
      </trkpt>
      <trkpt lat="45.51907" lon="4.74347">
        <ele>488</ele>
        <time>2013-10-26T10:38:35Z</time>
      </trkpt>
      <trkpt lat="45.51909" lon="4.74348">
        <ele>488</ele>
        <time>2013-10-26T10:38:36Z</time>
      </trkpt>
      <trkpt lat="45.51915" lon="4.74351">
        <ele>487</ele>
        <time>2013-10-26T10:38:38Z</time>
      </trkpt>
      <trkpt lat="45.51918" lon="4.74352">
        <ele>487</ele>
        <time>2013-10-26T10:38:39Z</time>
      </trkpt>
      <trkpt lat="45.51926" lon="4.74354">
        <ele>486</ele>
        <time>2013-10-26T10:38:42Z</time>
      </trkpt>
      <trkpt lat="45.51929" lon="4.74354">
        <ele>486</ele>
        <time>2013-10-26T10:38:43Z</time>
      </trkpt>
      <trkpt lat="45.51937" lon="4.74356">
        <ele>485</ele>
        <time>2013-10-26T10:38:45Z</time>
      </trkpt>
      <trkpt lat="45.51939" lon="4.74356">
        <ele>485</ele>
        <time>2013-10-26T10:38:46Z</time>
      </trkpt>
      <trkpt lat="45.51948" lon="4.74354">
        <ele>485</ele>
        <time>2013-10-26T10:38:49Z</time>
      </trkpt>
      <trkpt lat="45.5195" lon="4.74353">
        <ele>485</ele>
        <time>2013-10-26T10:38:50Z</time>
      </trkpt>
      <trkpt lat="45.51958" lon="4.74348">
        <ele>485</ele>
        <time>2013-10-26T10:38:54Z</time>
      </trkpt>
      <trkpt lat="45.51962" lon="4.74346">
        <ele>485</ele>
        <time>2013-10-26T10:38:55Z</time>
      </trkpt>
      <trkpt lat="45.51967" lon="4.74345">
        <ele>485</ele>
        <time>2013-10-26T10:38:57Z</time>
      </trkpt>
      <trkpt lat="45.51972" lon="4.74344">
        <ele>486</ele>
        <time>2013-10-26T10:38:58Z</time>
      </trkpt>
      <trkpt lat="45.51977" lon="4.7434">
        <ele>487</ele>
        <time>2013-10-26T10:39:00Z</time>
      </trkpt>
      <trkpt lat="45.51982" lon="4.74337">
        <ele>487</ele>
        <time>2013-10-26T10:39:01Z</time>
      </trkpt>
      <trkpt lat="45.51991" lon="4.74334">
        <ele>489</ele>
        <time>2013-10-26T10:39:04Z</time>
      </trkpt>
      <trkpt lat="45.51993" lon="4.74333">
        <ele>494</ele>
        <time>2013-10-26T10:39:05Z</time>
      </trkpt>
      <trkpt lat="45.52001" lon="4.74332">
        <ele>493</ele>
        <time>2013-10-26T10:39:08Z</time>
      </trkpt>
      <trkpt lat="45.52002" lon="4.7433">
        <ele>493</ele>
        <time>2013-10-26T10:39:09Z</time>
      </trkpt>
      <trkpt lat="45.5201" lon="4.7433">
        <ele>495</ele>
        <time>2013-10-26T10:39:13Z</time>
      </trkpt>
      <trkpt lat="45.52011" lon="4.7433">
        <ele>495</ele>
        <time>2013-10-26T10:39:14Z</time>
      </trkpt>
      <trkpt lat="45.5202" lon="4.74331">
        <ele>497</ele>
        <time>2013-10-26T10:39:17Z</time>
      </trkpt>
      <trkpt lat="45.52022" lon="4.74332">
        <ele>497</ele>
        <time>2013-10-26T10:39:18Z</time>
      </trkpt>
      <trkpt lat="45.52029" lon="4.74333">
        <ele>489</ele>
        <time>2013-10-26T10:39:21Z</time>
      </trkpt>
      <trkpt lat="45.52033" lon="4.74333">
        <ele>498</ele>
        <time>2013-10-26T10:39:22Z</time>
      </trkpt>
      <trkpt lat="45.52042" lon="4.74333">
        <ele>499</ele>
        <time>2013-10-26T10:39:25Z</time>
      </trkpt>
      <trkpt lat="45.52044" lon="4.74332">
        <ele>499</ele>
        <time>2013-10-26T10:39:26Z</time>
      </trkpt>
      <trkpt lat="45.52051" lon="4.74333">
        <ele>499</ele>
        <time>2013-10-26T10:39:28Z</time>
      </trkpt>
      <trkpt lat="45.52053" lon="4.74334">
        <ele>490</ele>
        <time>2013-10-26T10:39:29Z</time>
      </trkpt>
      <trkpt lat="45.52061" lon="4.74335">
        <ele>491</ele>
        <time>2013-10-26T10:39:32Z</time>
      </trkpt>
      <trkpt lat="45.52064" lon="4.74335">
        <ele>492</ele>
        <time>2013-10-26T10:39:33Z</time>
      </trkpt>
      <trkpt lat="45.52072" lon="4.74334">
        <ele>493</ele>
        <time>2013-10-26T10:39:36Z</time>
      </trkpt>
      <trkpt lat="45.52075" lon="4.74335">
        <ele>494</ele>
        <time>2013-10-26T10:39:37Z</time>
      </trkpt>
      <trkpt lat="45.52082" lon="4.74335">
        <ele>496</ele>
        <time>2013-10-26T10:39:41Z</time>
      </trkpt>
      <trkpt lat="45.52084" lon="4.74335">
        <ele>497</ele>
        <time>2013-10-26T10:39:42Z</time>
      </trkpt>
      <trkpt lat="45.5209" lon="4.74336">
        <ele>496</ele>
        <time>2013-10-26T10:39:45Z</time>
      </trkpt>
      <trkpt lat="45.52093" lon="4.74337">
        <ele>496</ele>
        <time>2013-10-26T10:39:46Z</time>
      </trkpt>
      <trkpt lat="45.52101" lon="4.74338">
        <ele>495</ele>
        <time>2013-10-26T10:39:50Z</time>
      </trkpt>
      <trkpt lat="45.52104" lon="4.74338">
        <ele>495</ele>
        <time>2013-10-26T10:39:51Z</time>
      </trkpt>
      <trkpt lat="45.52112" lon="4.7434">
        <ele>495</ele>
        <time>2013-10-26T10:39:55Z</time>
      </trkpt>
      <trkpt lat="45.52115" lon="4.7434">
        <ele>495</ele>
        <time>2013-10-26T10:39:56Z</time>
      </trkpt>
      <trkpt lat="45.52122" lon="4.74342">
        <ele>495</ele>
        <time>2013-10-26T10:39:59Z</time>
      </trkpt>
      <trkpt lat="45.52124" lon="4.74343">
        <ele>495</ele>
        <time>2013-10-26T10:40:00Z</time>
      </trkpt>
      <trkpt lat="45.52133" lon="4.74341">
        <ele>496</ele>
        <time>2013-10-26T10:40:05Z</time>
      </trkpt>
      <trkpt lat="45.52134" lon="4.7434">
        <ele>496</ele>
        <time>2013-10-26T10:40:06Z</time>
      </trkpt>
      <trkpt lat="45.52142" lon="4.74337">
        <ele>496</ele>
        <time>2013-10-26T10:40:10Z</time>
      </trkpt>
      <trkpt lat="45.52146" lon="4.74342">
        <ele>497</ele>
        <time>2013-10-26T10:40:11Z</time>
      </trkpt>
      <trkpt lat="45.52152" lon="4.74346">
        <ele>497</ele>
        <time>2013-10-26T10:40:13Z</time>
      </trkpt>
      <trkpt lat="45.52154" lon="4.74349">
        <ele>497</ele>
        <time>2013-10-26T10:40:14Z</time>
      </trkpt>
      <trkpt lat="45.52158" lon="4.74357">
        <ele>496</ele>
        <time>2013-10-26T10:40:16Z</time>
      </trkpt>
      <trkpt lat="45.5216" lon="4.7436">
        <ele>496</ele>
        <time>2013-10-26T10:40:17Z</time>
      </trkpt>
      <trkpt lat="45.52165" lon="4.74364">
        <ele>496</ele>
        <time>2013-10-26T10:40:18Z</time>
      </trkpt>
      <trkpt lat="45.52171" lon="4.74365">
        <ele>499</ele>
        <time>2013-10-26T10:40:19Z</time>
      </trkpt>
      <trkpt lat="45.52175" lon="4.74368">
        <ele>499</ele>
        <time>2013-10-26T10:40:20Z</time>
      </trkpt>
      <trkpt lat="45.5218" lon="4.7437">
        <ele>499</ele>
        <time>2013-10-26T10:40:21Z</time>
      </trkpt>
      <trkpt lat="45.52188" lon="4.74374">
        <ele>499</ele>
        <time>2013-10-26T10:40:23Z</time>
      </trkpt>
      <trkpt lat="45.52192" lon="4.74377">
        <ele>499</ele>
        <time>2013-10-26T10:40:24Z</time>
      </trkpt>
      <trkpt lat="45.52199" lon="4.74381">
        <ele>499</ele>
        <time>2013-10-26T10:40:26Z</time>
      </trkpt>
      <trkpt lat="45.52202" lon="4.74383">
        <ele>499</ele>
        <time>2013-10-26T10:40:27Z</time>
      </trkpt>
      <trkpt lat="45.52206" lon="4.74385">
        <ele>499</ele>
        <time>2013-10-26T10:40:28Z</time>
      </trkpt>
      <trkpt lat="45.52211" lon="4.74388">
        <ele>499</ele>
        <time>2013-10-26T10:40:29Z</time>
      </trkpt>
      <trkpt lat="45.52219" lon="4.74386">
        <ele>499</ele>
        <time>2013-10-26T10:40:31Z</time>
      </trkpt>
      <trkpt lat="45.52223" lon="4.74386">
        <ele>499</ele>
        <time>2013-10-26T10:40:32Z</time>
      </trkpt>
      <trkpt lat="45.52229" lon="4.74389">
        <ele>500</ele>
        <time>2013-10-26T10:40:34Z</time>
      </trkpt>
      <trkpt lat="45.52231" lon="4.7439">
        <ele>500</ele>
        <time>2013-10-26T10:40:35Z</time>
      </trkpt>
      <trkpt lat="45.52235" lon="4.74399">
        <ele>500</ele>
        <time>2013-10-26T10:40:38Z</time>
      </trkpt>
      <trkpt lat="45.52236" lon="4.74404">
        <ele>501</ele>
        <time>2013-10-26T10:40:39Z</time>
      </trkpt>
      <trkpt lat="45.52238" lon="4.74412">
        <ele>501</ele>
        <time>2013-10-26T10:40:41Z</time>
      </trkpt>
      <trkpt lat="45.52239" lon="4.74417">
        <ele>500</ele>
        <time>2013-10-26T10:40:42Z</time>
      </trkpt>
      <trkpt lat="45.5224" lon="4.74429">
        <ele>500</ele>
        <time>2013-10-26T10:40:46Z</time>
      </trkpt>
      <trkpt lat="45.52239" lon="4.74431">
        <ele>499</ele>
        <time>2013-10-26T10:40:47Z</time>
      </trkpt>
      <trkpt lat="45.52242" lon="4.7444">
        <ele>499</ele>
        <time>2013-10-26T10:40:49Z</time>
      </trkpt>
      <trkpt lat="45.52243" lon="4.74444">
        <ele>499</ele>
        <time>2013-10-26T10:40:50Z</time>
      </trkpt>
      <trkpt lat="45.52245" lon="4.74455">
        <ele>498</ele>
        <time>2013-10-26T10:40:53Z</time>
      </trkpt>
      <trkpt lat="45.52245" lon="4.74458">
        <ele>498</ele>
        <time>2013-10-26T10:40:54Z</time>
      </trkpt>
      <trkpt lat="45.52248" lon="4.74468">
        <ele>498</ele>
        <time>2013-10-26T10:40:57Z</time>
      </trkpt>
      <trkpt lat="45.52249" lon="4.74471">
        <ele>498</ele>
        <time>2013-10-26T10:40:58Z</time>
      </trkpt>
      <trkpt lat="45.52252" lon="4.7448">
        <ele>506</ele>
        <time>2013-10-26T10:41:01Z</time>
      </trkpt>
      <trkpt lat="45.52255" lon="4.74481">
        <ele>506</ele>
        <time>2013-10-26T10:41:02Z</time>
      </trkpt>
      <trkpt lat="45.52262" lon="4.74486">
        <ele>506</ele>
        <time>2013-10-26T10:41:06Z</time>
      </trkpt>
      <trkpt lat="45.52263" lon="4.74488">
        <ele>506</ele>
        <time>2013-10-26T10:41:07Z</time>
      </trkpt>
      <trkpt lat="45.5227" lon="4.74495">
        <ele>507</ele>
        <time>2013-10-26T10:41:13Z</time>
      </trkpt>
      <trkpt lat="45.52272" lon="4.74497">
        <ele>507</ele>
        <time>2013-10-26T10:41:14Z</time>
      </trkpt>
      <trkpt lat="45.52279" lon="4.74505">
        <ele>507</ele>
        <time>2013-10-26T10:41:18Z</time>
      </trkpt>
      <trkpt lat="45.52281" lon="4.74507">
        <ele>507</ele>
        <time>2013-10-26T10:41:19Z</time>
      </trkpt>
      <trkpt lat="45.52286" lon="4.74513">
        <ele>508</ele>
        <time>2013-10-26T10:41:22Z</time>
      </trkpt>
      <trkpt lat="45.52288" lon="4.74515">
        <ele>508</ele>
        <time>2013-10-26T10:41:23Z</time>
      </trkpt>
      <trkpt lat="45.52295" lon="4.74521">
        <ele>509</ele>
        <time>2013-10-26T10:41:28Z</time>
      </trkpt>
      <trkpt lat="45.52297" lon="4.74522">
        <ele>509</ele>
        <time>2013-10-26T10:41:29Z</time>
      </trkpt>
      <trkpt lat="45.52303" lon="4.74527">
        <ele>510</ele>
        <time>2013-10-26T10:41:34Z</time>
      </trkpt>
      <trkpt lat="45.52305" lon="4.74529">
        <ele>510</ele>
        <time>2013-10-26T10:41:35Z</time>
      </trkpt>
      <trkpt lat="45.5231" lon="4.74533">
        <ele>510</ele>
        <time>2013-10-26T10:41:39Z</time>
      </trkpt>
      <trkpt lat="45.52313" lon="4.74535">
        <ele>510</ele>
        <time>2013-10-26T10:41:40Z</time>
      </trkpt>
      <trkpt lat="45.52319" lon="4.7454">
        <ele>510</ele>
        <time>2013-10-26T10:41:43Z</time>
      </trkpt>
      <trkpt lat="45.52321" lon="4.74542">
        <ele>510</ele>
        <time>2013-10-26T10:41:44Z</time>
      </trkpt>
      <trkpt lat="45.52328" lon="4.74545">
        <ele>510</ele>
        <time>2013-10-26T10:41:49Z</time>
      </trkpt>
      <trkpt lat="45.5233" lon="4.74546">
        <ele>510</ele>
        <time>2013-10-26T10:41:50Z</time>
      </trkpt>
      <trkpt lat="45.52337" lon="4.74552">
        <ele>519</ele>
        <time>2013-10-26T10:41:54Z</time>
      </trkpt>
      <trkpt lat="45.52339" lon="4.74553">
        <ele>519</ele>
        <time>2013-10-26T10:41:55Z</time>
      </trkpt>
      <trkpt lat="45.52346" lon="4.7455">
        <ele>520</ele>
        <time>2013-10-26T10:42:01Z</time>
      </trkpt>
      <trkpt lat="45.52349" lon="4.74551">
        <ele>520</ele>
        <time>2013-10-26T10:42:02Z</time>
      </trkpt>
      <trkpt lat="45.52354" lon="4.74553">
        <ele>520</ele>
        <time>2013-10-26T10:42:04Z</time>
      </trkpt>
      <trkpt lat="45.52358" lon="4.74556">
        <ele>520</ele>
        <time>2013-10-26T10:42:05Z</time>
      </trkpt>
      <trkpt lat="45.52366" lon="4.7456">
        <ele>520</ele>
        <time>2013-10-26T10:42:09Z</time>
      </trkpt>
      <trkpt lat="45.52368" lon="4.7456">
        <ele>520</ele>
        <time>2013-10-26T10:42:10Z</time>
      </trkpt>
      <trkpt lat="45.52375" lon="4.7456">
        <ele>521</ele>
        <time>2013-10-26T10:42:14Z</time>
      </trkpt>
      <trkpt lat="45.52377" lon="4.7456">
        <ele>521</ele>
        <time>2013-10-26T10:42:15Z</time>
      </trkpt>
      <trkpt lat="45.52385" lon="4.7456">
        <ele>522</ele>
        <time>2013-10-26T10:42:18Z</time>
      </trkpt>
      <trkpt lat="45.52386" lon="4.74561">
        <ele>522</ele>
        <time>2013-10-26T10:42:19Z</time>
      </trkpt>
      <trkpt lat="45.52393" lon="4.74563">
        <ele>522</ele>
        <time>2013-10-26T10:42:22Z</time>
      </trkpt>
      <trkpt lat="45.52396" lon="4.74567">
        <ele>522</ele>
        <time>2013-10-26T10:42:23Z</time>
      </trkpt>
      <trkpt lat="45.52405" lon="4.74568">
        <ele>523</ele>
        <time>2013-10-26T10:42:28Z</time>
      </trkpt>
      <trkpt lat="45.52407" lon="4.74568">
        <ele>523</ele>
        <time>2013-10-26T10:42:29Z</time>
      </trkpt>
      <trkpt lat="45.52415" lon="4.74568">
        <ele>523</ele>
        <time>2013-10-26T10:42:34Z</time>
      </trkpt>
      <trkpt lat="45.52417" lon="4.74568">
        <ele>527</ele>
        <time>2013-10-26T10:42:35Z</time>
      </trkpt>
      <trkpt lat="45.52425" lon="4.74568">
        <ele>528</ele>
        <time>2013-10-26T10:42:40Z</time>
      </trkpt>
      <trkpt lat="45.52427" lon="4.74569">
        <ele>528</ele>
        <time>2013-10-26T10:42:41Z</time>
      </trkpt>
      <trkpt lat="45.52433" lon="4.74569">
        <ele>529</ele>
        <time>2013-10-26T10:42:43Z</time>
      </trkpt>
      <trkpt lat="45.52436" lon="4.74569">
        <ele>529</ele>
        <time>2013-10-26T10:42:44Z</time>
      </trkpt>
      <trkpt lat="45.52443" lon="4.74566">
        <ele>530</ele>
        <time>2013-10-26T10:42:47Z</time>
      </trkpt>
      <trkpt lat="45.52446" lon="4.74566">
        <ele>531</ele>
        <time>2013-10-26T10:42:48Z</time>
      </trkpt>
      <trkpt lat="45.52453" lon="4.74565">
        <ele>532</ele>
        <time>2013-10-26T10:42:52Z</time>
      </trkpt>
      <trkpt lat="45.52455" lon="4.74564">
        <ele>532</ele>
        <time>2013-10-26T10:42:53Z</time>
      </trkpt>
      <trkpt lat="45.52463" lon="4.74561">
        <ele>533</ele>
        <time>2013-10-26T10:42:56Z</time>
      </trkpt>
      <trkpt lat="45.52465" lon="4.74561">
        <ele>533</ele>
        <time>2013-10-26T10:42:57Z</time>
      </trkpt>
      <trkpt lat="45.52474" lon="4.74558">
        <ele>533</ele>
        <time>2013-10-26T10:43:02Z</time>
      </trkpt>
      <trkpt lat="45.52477" lon="4.74559">
        <ele>534</ele>
        <time>2013-10-26T10:43:03Z</time>
      </trkpt>
      <trkpt lat="45.52485" lon="4.74564">
        <ele>534</ele>
        <time>2013-10-26T10:43:07Z</time>
      </trkpt>
      <trkpt lat="45.52486" lon="4.74563">
        <ele>534</ele>
        <time>2013-10-26T10:43:08Z</time>
      </trkpt>
      <trkpt lat="45.52492" lon="4.74555">
        <ele>534</ele>
        <time>2013-10-26T10:43:14Z</time>
      </trkpt>
      <trkpt lat="45.52493" lon="4.74554">
        <ele>534</ele>
        <time>2013-10-26T10:43:15Z</time>
      </trkpt>
      <trkpt lat="45.52501" lon="4.74552">
        <ele>540</ele>
        <time>2013-10-26T10:43:20Z</time>
      </trkpt>
      <trkpt lat="45.52502" lon="4.74551">
        <ele>540</ele>
        <time>2013-10-26T10:43:21Z</time>
      </trkpt>
      <trkpt lat="45.5251" lon="4.74545">
        <ele>541</ele>
        <time>2013-10-26T10:43:28Z</time>
      </trkpt>
      <trkpt lat="45.52511" lon="4.74545">
        <ele>541</ele>
        <time>2013-10-26T10:43:29Z</time>
      </trkpt>
      <trkpt lat="45.52519" lon="4.74543">
        <ele>541</ele>
        <time>2013-10-26T10:43:34Z</time>
      </trkpt>
      <trkpt lat="45.52521" lon="4.74543">
        <ele>541</ele>
        <time>2013-10-26T10:43:35Z</time>
      </trkpt>
      <trkpt lat="45.52529" lon="4.74538">
        <ele>542</ele>
        <time>2013-10-26T10:43:39Z</time>
      </trkpt>
      <trkpt lat="45.5253" lon="4.7454">
        <ele>542</ele>
        <time>2013-10-26T10:43:40Z</time>
      </trkpt>
      <trkpt lat="45.52538" lon="4.74542">
        <ele>542</ele>
        <time>2013-10-26T10:43:47Z</time>
      </trkpt>
      <trkpt lat="45.52541" lon="4.74542">
        <ele>542</ele>
        <time>2013-10-26T10:43:48Z</time>
      </trkpt>
      <trkpt lat="45.52548" lon="4.74547">
        <ele>543</ele>
        <time>2013-10-26T10:43:53Z</time>
      </trkpt>
      <trkpt lat="45.52549" lon="4.74548">
        <ele>543</ele>
        <time>2013-10-26T10:43:54Z</time>
      </trkpt>
      <trkpt lat="45.52555" lon="4.74552">
        <ele>543</ele>
        <time>2013-10-26T10:44:01Z</time>
      </trkpt>
      <trkpt lat="45.52558" lon="4.74555">
        <ele>543</ele>
        <time>2013-10-26T10:44:02Z</time>
      </trkpt>
      <trkpt lat="45.52565" lon="4.74562">
        <ele>544</ele>
        <time>2013-10-26T10:44:08Z</time>
      </trkpt>
      <trkpt lat="45.52566" lon="4.74564">
        <ele>544</ele>
        <time>2013-10-26T10:44:09Z</time>
      </trkpt>
      <trkpt lat="45.52574" lon="4.74565">
        <ele>544</ele>
        <time>2013-10-26T10:44:14Z</time>
      </trkpt>
      <trkpt lat="45.52575" lon="4.74566">
        <ele>544</ele>
        <time>2013-10-26T10:44:15Z</time>
      </trkpt>
      <trkpt lat="45.52584" lon="4.7457">
        <ele>548</ele>
        <time>2013-10-26T10:44:19Z</time>
      </trkpt>
      <trkpt lat="45.52584" lon="4.74571">
        <ele>548</ele>
        <time>2013-10-26T10:44:20Z</time>
      </trkpt>
      <trkpt lat="45.5259" lon="4.74573">
        <ele>548</ele>
        <time>2013-10-26T10:44:23Z</time>
      </trkpt>
      <trkpt lat="45.52593" lon="4.74574">
        <ele>548</ele>
        <time>2013-10-26T10:44:24Z</time>
      </trkpt>
      <trkpt lat="45.52602" lon="4.74576">
        <ele>548</ele>
        <time>2013-10-26T10:44:37Z</time>
      </trkpt>
      <trkpt lat="45.52603" lon="4.74577">
        <ele>548</ele>
        <time>2013-10-26T10:44:38Z</time>
      </trkpt>
      <trkpt lat="45.52609" lon="4.74583">
        <ele>549</ele>
        <time>2013-10-26T10:44:42Z</time>
      </trkpt>
      <trkpt lat="45.52611" lon="4.74584">
        <ele>551</ele>
        <time>2013-10-26T10:44:43Z</time>
      </trkpt>
      <trkpt lat="45.52619" lon="4.74589">
        <ele>551</ele>
        <time>2013-10-26T10:44:46Z</time>
      </trkpt>
      <trkpt lat="45.52622" lon="4.74592">
        <ele>551</ele>
        <time>2013-10-26T10:44:47Z</time>
      </trkpt>
      <trkpt lat="45.5263" lon="4.74596">
        <ele>552</ele>
        <time>2013-10-26T10:44:51Z</time>
      </trkpt>
      <trkpt lat="45.52633" lon="4.74597">
        <ele>552</ele>
        <time>2013-10-26T10:44:52Z</time>
      </trkpt>
      <trkpt lat="45.52641" lon="4.746">
        <ele>553</ele>
        <time>2013-10-26T10:44:57Z</time>
      </trkpt>
      <trkpt lat="45.52643" lon="4.74601">
        <ele>553</ele>
        <time>2013-10-26T10:44:58Z</time>
      </trkpt>
      <trkpt lat="45.52651" lon="4.74605">
        <ele>553</ele>
        <time>2013-10-26T10:45:05Z</time>
      </trkpt>
      <trkpt lat="45.52655" lon="4.74607">
        <ele>553</ele>
        <time>2013-10-26T10:45:06Z</time>
      </trkpt>
      <trkpt lat="45.52663" lon="4.74606">
        <ele>554</ele>
        <time>2013-10-26T10:45:13Z</time>
      </trkpt>
      <trkpt lat="45.52665" lon="4.74606">
        <ele>554</ele>
        <time>2013-10-26T10:45:14Z</time>
      </trkpt>
      <trkpt lat="45.52672" lon="4.74611">
        <ele>556</ele>
        <time>2013-10-26T10:45:19Z</time>
      </trkpt>
      <trkpt lat="45.52673" lon="4.74612">
        <ele>556</ele>
        <time>2013-10-26T10:45:20Z</time>
      </trkpt>
      <trkpt lat="45.52679" lon="4.74622">
        <ele>556</ele>
        <time>2013-10-26T10:45:29Z</time>
      </trkpt>
      <trkpt lat="45.5268" lon="4.74624">
        <ele>556</ele>
        <time>2013-10-26T10:45:30Z</time>
      </trkpt>
      <trkpt lat="45.52683" lon="4.74628">
        <ele>556</ele>
        <time>2013-10-26T10:45:33Z</time>
      </trkpt>
      <trkpt lat="45.52687" lon="4.74632">
        <ele>556</ele>
        <time>2013-10-26T10:45:35Z</time>
      </trkpt>
      <trkpt lat="45.52693" lon="4.74637">
        <ele>556</ele>
        <time>2013-10-26T10:45:39Z</time>
      </trkpt>
      <trkpt lat="45.52695" lon="4.7464">
        <ele>556</ele>
        <time>2013-10-26T10:45:40Z</time>
      </trkpt>
      <trkpt lat="45.52701" lon="4.74645">
        <ele>556</ele>
        <time>2013-10-26T10:45:44Z</time>
      </trkpt>
      <trkpt lat="45.52703" lon="4.74646">
        <ele>556</ele>
        <time>2013-10-26T10:45:44Z</time>
      </trkpt>
      <trkpt lat="45.52708" lon="4.74653">
        <ele>556</ele>
        <time>2013-10-26T10:45:48Z</time>
      </trkpt>
      <trkpt lat="45.52711" lon="4.74656">
        <ele>556</ele>
        <time>2013-10-26T10:45:49Z</time>
      </trkpt>
      <trkpt lat="45.52719" lon="4.7466">
        <ele>556</ele>
        <time>2013-10-26T10:45:52Z</time>
      </trkpt>
      <trkpt lat="45.52723" lon="4.74661">
        <ele>556</ele>
        <time>2013-10-26T10:45:53Z</time>
      </trkpt>
      <trkpt lat="45.52728" lon="4.74666">
        <ele>556</ele>
        <time>2013-10-26T10:45:55Z</time>
      </trkpt>
      <trkpt lat="45.52732" lon="4.7467">
        <ele>557</ele>
        <time>2013-10-26T10:45:56Z</time>
      </trkpt>
      <trkpt lat="45.52739" lon="4.74677">
        <ele>557</ele>
        <time>2013-10-26T10:45:58Z</time>
      </trkpt>
      <trkpt lat="45.52744" lon="4.74686">
        <ele>556</ele>
        <time>2013-10-26T10:45:59Z</time>
      </trkpt>
      <trkpt lat="45.52747" lon="4.74692">
        <ele>556</ele>
        <time>2013-10-26T10:46:00Z</time>
      </trkpt>
      <trkpt lat="45.52751" lon="4.74698">
        <ele>555</ele>
        <time>2013-10-26T10:46:01Z</time>
      </trkpt>
      <trkpt lat="45.52754" lon="4.74704">
        <ele>554</ele>
        <time>2013-10-26T10:46:02Z</time>
      </trkpt>
      <trkpt lat="45.52757" lon="4.7471">
        <ele>554</ele>
        <time>2013-10-26T10:46:03Z</time>
      </trkpt>
      <trkpt lat="45.52761" lon="4.74718">
        <ele>554</ele>
        <time>2013-10-26T10:46:06Z</time>
      </trkpt>
      <trkpt lat="45.52766" lon="4.74724">
        <ele>554</ele>
        <time>2013-10-26T10:46:07Z</time>
      </trkpt>
      <trkpt lat="45.52771" lon="4.7473">
        <ele>554</ele>
        <time>2013-10-26T10:46:08Z</time>
      </trkpt>
      <trkpt lat="45.52774" lon="4.74732">
        <ele>554</ele>
        <time>2013-10-26T10:46:09Z</time>
      </trkpt>
      <trkpt lat="45.52782" lon="4.74737">
        <ele>554</ele>
        <time>2013-10-26T10:46:14Z</time>
      </trkpt>
      <trkpt lat="45.52783" lon="4.74739">
        <ele>554</ele>
        <time>2013-10-26T10:46:15Z</time>
      </trkpt>
      <trkpt lat="45.52784" lon="4.74751">
        <ele>553</ele>
        <time>2013-10-26T10:46:22Z</time>
      </trkpt>
      <trkpt lat="45.52784" lon="4.74755">
        <ele>553</ele>
        <time>2013-10-26T10:46:23Z</time>
      </trkpt>
      <trkpt lat="45.52787" lon="4.74765">
        <ele>553</ele>
        <time>2013-10-26T10:46:27Z</time>
      </trkpt>
      <trkpt lat="45.52788" lon="4.74769">
        <ele>553</ele>
        <time>2013-10-26T10:46:28Z</time>
      </trkpt>
      <trkpt lat="45.52789" lon="4.74776">
        <ele>553</ele>
        <time>2013-10-26T10:46:30Z</time>
      </trkpt>
      <trkpt lat="45.52791" lon="4.74781">
        <ele>553</ele>
        <time>2013-10-26T10:46:31Z</time>
      </trkpt>
      <trkpt lat="45.52798" lon="4.74789">
        <ele>552</ele>
        <time>2013-10-26T10:46:34Z</time>
      </trkpt>
      <trkpt lat="45.52801" lon="4.74795">
        <ele>553</ele>
        <time>2013-10-26T10:46:35Z</time>
      </trkpt>
      <trkpt lat="45.52806" lon="4.74801">
        <ele>553</ele>
        <time>2013-10-26T10:46:36Z</time>
      </trkpt>
      <trkpt lat="45.52809" lon="4.74806">
        <ele>553</ele>
        <time>2013-10-26T10:46:37Z</time>
      </trkpt>
      <trkpt lat="45.52814" lon="4.74814">
        <ele>553</ele>
        <time>2013-10-26T10:46:39Z</time>
      </trkpt>
      <trkpt lat="45.52816" lon="4.74817">
        <ele>553</ele>
        <time>2013-10-26T10:46:40Z</time>
      </trkpt>
      <trkpt lat="45.52822" lon="4.74825">
        <ele>554</ele>
        <time>2013-10-26T10:46:42Z</time>
      </trkpt>
      <trkpt lat="45.52822" lon="4.74831">
        <ele>554</ele>
        <time>2013-10-26T10:46:43Z</time>
      </trkpt>
      <trkpt lat="45.52824" lon="4.74838">
        <ele>553</ele>
        <time>2013-10-26T10:46:44Z</time>
      </trkpt>
      <trkpt lat="45.52827" lon="4.74844">
        <ele>553</ele>
        <time>2013-10-26T10:46:45Z</time>
      </trkpt>
      <trkpt lat="45.52829" lon="4.74852">
        <ele>552</ele>
        <time>2013-10-26T10:46:47Z</time>
      </trkpt>
      <trkpt lat="45.5283" lon="4.74856">
        <ele>552</ele>
        <time>2013-10-26T10:46:48Z</time>
      </trkpt>
      <trkpt lat="45.52832" lon="4.74859">
        <ele>551</ele>
        <time>2013-10-26T10:46:49Z</time>
      </trkpt>
      <trkpt lat="45.52836" lon="4.74865">
        <ele>554</ele>
        <time>2013-10-26T10:46:50Z</time>
      </trkpt>
      <trkpt lat="45.5284" lon="4.74871">
        <ele>554</ele>
        <time>2013-10-26T10:46:51Z</time>
      </trkpt>
      <trkpt lat="45.52842" lon="4.74875">
        <ele>554</ele>
        <time>2013-10-26T10:46:52Z</time>
      </trkpt>
      <trkpt lat="45.52848" lon="4.74884">
        <ele>554</ele>
        <time>2013-10-26T10:46:54Z</time>
      </trkpt>
      <trkpt lat="45.52851" lon="4.74887">
        <ele>554</ele>
        <time>2013-10-26T10:46:55Z</time>
      </trkpt>
      <trkpt lat="45.52856" lon="4.74893">
        <ele>554</ele>
        <time>2013-10-26T10:46:57Z</time>
      </trkpt>
      <trkpt lat="45.5286" lon="4.74897">
        <ele>554</ele>
        <time>2013-10-26T10:46:58Z</time>
      </trkpt>
      <trkpt lat="45.52866" lon="4.74903">
        <ele>554</ele>
        <time>2013-10-26T10:47:00Z</time>
      </trkpt>
      <trkpt lat="45.52869" lon="4.74905">
        <ele>554</ele>
        <time>2013-10-26T10:47:01Z</time>
      </trkpt>
      <trkpt lat="45.52874" lon="4.74907">
        <ele>554</ele>
        <time>2013-10-26T10:47:03Z</time>
      </trkpt>
      <trkpt lat="45.52878" lon="4.7491">
        <ele>554</ele>
        <time>2013-10-26T10:47:04Z</time>
      </trkpt>
      <trkpt lat="45.52884" lon="4.74915">
        <ele>554</ele>
        <time>2013-10-26T10:47:07Z</time>
      </trkpt>
      <trkpt lat="45.52888" lon="4.74918">
        <ele>555</ele>
        <time>2013-10-26T10:47:08Z</time>
      </trkpt>
      <trkpt lat="45.52894" lon="4.74923">
        <ele>555</ele>
        <time>2013-10-26T10:47:10Z</time>
      </trkpt>
      <trkpt lat="45.52897" lon="4.74926">
        <ele>555</ele>
        <time>2013-10-26T10:47:11Z</time>
      </trkpt>
      <trkpt lat="45.52902" lon="4.7493">
        <ele>555</ele>
        <time>2013-10-26T10:47:12Z</time>
      </trkpt>
      <trkpt lat="45.52906" lon="4.74933">
        <ele>555</ele>
        <time>2013-10-26T10:47:13Z</time>
      </trkpt>
      <trkpt lat="45.52913" lon="4.74937">
        <ele>555</ele>
        <time>2013-10-26T10:47:15Z</time>
      </trkpt>
      <trkpt lat="45.52917" lon="4.74939">
        <ele>555</ele>
        <time>2013-10-26T10:47:16Z</time>
      </trkpt>
      <trkpt lat="45.52922" lon="4.7494">
        <ele>553</ele>
        <time>2013-10-26T10:47:17Z</time>
      </trkpt>
      <trkpt lat="45.52928" lon="4.74941">
        <ele>553</ele>
        <time>2013-10-26T10:47:18Z</time>
      </trkpt>
      <trkpt lat="45.52934" lon="4.74943">
        <ele>552</ele>
        <time>2013-10-26T10:47:19Z</time>
      </trkpt>
      <trkpt lat="45.5294" lon="4.74945">
        <ele>552</ele>
        <time>2013-10-26T10:47:20Z</time>
      </trkpt>
      <trkpt lat="45.52946" lon="4.74948">
        <ele>552</ele>
        <time>2013-10-26T10:47:21Z</time>
      </trkpt>
      <trkpt lat="45.52951" lon="4.7495">
        <ele>552</ele>
        <time>2013-10-26T10:47:22Z</time>
      </trkpt>
      <trkpt lat="45.52957" lon="4.74951">
        <ele>551</ele>
        <time>2013-10-26T10:47:23Z</time>
      </trkpt>
      <trkpt lat="45.52962" lon="4.74954">
        <ele>551</ele>
        <time>2013-10-26T10:47:24Z</time>
      </trkpt>
      <trkpt lat="45.5297" lon="4.7496">
        <ele>551</ele>
        <time>2013-10-26T10:47:25Z</time>
      </trkpt>
      <trkpt lat="45.52982" lon="4.7497">
        <ele>550</ele>
        <time>2013-10-26T10:47:26Z</time>
      </trkpt>
      <trkpt lat="45.52989" lon="4.74976">
        <ele>550</ele>
        <time>2013-10-26T10:47:27Z</time>
      </trkpt>
      <trkpt lat="45.52999" lon="4.74981">
        <ele>549</ele>
        <time>2013-10-26T10:47:28Z</time>
      </trkpt>
      <trkpt lat="45.53005" lon="4.74986">
        <ele>545</ele>
        <time>2013-10-26T10:47:29Z</time>
      </trkpt>
      <trkpt lat="45.53013" lon="4.7499">
        <ele>545</ele>
        <time>2013-10-26T10:47:30Z</time>
      </trkpt>
      <trkpt lat="45.53019" lon="4.74992">
        <ele>544</ele>
        <time>2013-10-26T10:47:31Z</time>
      </trkpt>
      <trkpt lat="45.53026" lon="4.74996">
        <ele>544</ele>
        <time>2013-10-26T10:47:32Z</time>
      </trkpt>
      <trkpt lat="45.53031" lon="4.74997">
        <ele>543</ele>
        <time>2013-10-26T10:47:33Z</time>
      </trkpt>
      <trkpt lat="45.53037" lon="4.74998">
        <ele>543</ele>
        <time>2013-10-26T10:47:34Z</time>
      </trkpt>
      <trkpt lat="45.53043" lon="4.75">
        <ele>542</ele>
        <time>2013-10-26T10:47:35Z</time>
      </trkpt>
      <trkpt lat="45.53049" lon="4.74998">
        <ele>542</ele>
        <time>2013-10-26T10:47:36Z</time>
      </trkpt>
      <trkpt lat="45.53056" lon="4.74998">
        <ele>541</ele>
        <time>2013-10-26T10:47:37Z</time>
      </trkpt>
      <trkpt lat="45.53061" lon="4.74998">
        <ele>541</ele>
        <time>2013-10-26T10:47:38Z</time>
      </trkpt>
      <trkpt lat="45.53069" lon="4.75003">
        <ele>541</ele>
        <time>2013-10-26T10:47:39Z</time>
      </trkpt>
      <trkpt lat="45.53077" lon="4.75006">
        <ele>540</ele>
        <time>2013-10-26T10:47:40Z</time>
      </trkpt>
      <trkpt lat="45.53084" lon="4.7501">
        <ele>537</ele>
        <time>2013-10-26T10:47:41Z</time>
      </trkpt>
      <trkpt lat="45.5309" lon="4.75015">
        <ele>536</ele>
        <time>2013-10-26T10:47:42Z</time>
      </trkpt>
      <trkpt lat="45.53099" lon="4.75019">
        <ele>535</ele>
        <time>2013-10-26T10:47:43Z</time>
      </trkpt>
      <trkpt lat="45.53106" lon="4.75025">
        <ele>534</ele>
        <time>2013-10-26T10:47:44Z</time>
      </trkpt>
      <trkpt lat="45.53111" lon="4.7503">
        <ele>534</ele>
        <time>2013-10-26T10:47:45Z</time>
      </trkpt>
      <trkpt lat="45.53115" lon="4.75034">
        <ele>533</ele>
        <time>2013-10-26T10:47:46Z</time>
      </trkpt>
      <trkpt lat="45.5312" lon="4.7504">
        <ele>533</ele>
        <time>2013-10-26T10:47:47Z</time>
      </trkpt>
      <trkpt lat="45.53127" lon="4.75044">
        <ele>533</ele>
        <time>2013-10-26T10:47:48Z</time>
      </trkpt>
      <trkpt lat="45.53134" lon="4.75048">
        <ele>532</ele>
        <time>2013-10-26T10:47:49Z</time>
      </trkpt>
      <trkpt lat="45.53139" lon="4.75051">
        <ele>532</ele>
        <time>2013-10-26T10:47:50Z</time>
      </trkpt>
      <trkpt lat="45.53142" lon="4.75054">
        <ele>532</ele>
        <time>2013-10-26T10:47:51Z</time>
      </trkpt>
      <trkpt lat="45.5315" lon="4.75059">
        <ele>531</ele>
        <time>2013-10-26T10:47:53Z</time>
      </trkpt>
      <trkpt lat="45.53156" lon="4.75058">
        <ele>531</ele>
        <time>2013-10-26T10:47:54Z</time>
      </trkpt>
      <trkpt lat="45.53161" lon="4.75061">
        <ele>531</ele>
        <time>2013-10-26T10:47:55Z</time>
      </trkpt>
      <trkpt lat="45.53165" lon="4.75063">
        <ele>530</ele>
        <time>2013-10-26T10:47:56Z</time>
      </trkpt>
      <trkpt lat="45.53171" lon="4.75064">
        <ele>525</ele>
        <time>2013-10-26T10:47:58Z</time>
      </trkpt>
      <trkpt lat="45.53175" lon="4.75067">
        <ele>525</ele>
        <time>2013-10-26T10:47:59Z</time>
      </trkpt>
      <trkpt lat="45.53183" lon="4.75072">
        <ele>525</ele>
        <time>2013-10-26T10:48:01Z</time>
      </trkpt>
      <trkpt lat="45.53185" lon="4.75074">
        <ele>525</ele>
        <time>2013-10-26T10:48:02Z</time>
      </trkpt>
      <trkpt lat="45.53192" lon="4.75075">
        <ele>524</ele>
        <time>2013-10-26T10:48:04Z</time>
      </trkpt>
      <trkpt lat="45.53195" lon="4.75076">
        <ele>524</ele>
        <time>2013-10-26T10:48:05Z</time>
      </trkpt>
      <trkpt lat="45.53199" lon="4.75079">
        <ele>524</ele>
        <time>2013-10-26T10:48:06Z</time>
      </trkpt>
      <trkpt lat="45.53203" lon="4.7508">
        <ele>523</ele>
        <time>2013-10-26T10:48:07Z</time>
      </trkpt>
      <trkpt lat="45.53211" lon="4.75083">
        <ele>523</ele>
        <time>2013-10-26T10:48:09Z</time>
      </trkpt>
      <trkpt lat="45.53216" lon="4.75086">
        <ele>521</ele>
        <time>2013-10-26T10:48:10Z</time>
      </trkpt>
      <trkpt lat="45.5322" lon="4.75087">
        <ele>520</ele>
        <time>2013-10-26T10:48:11Z</time>
      </trkpt>
      <trkpt lat="45.53225" lon="4.75088">
        <ele>520</ele>
        <time>2013-10-26T10:48:12Z</time>
      </trkpt>
      <trkpt lat="45.53231" lon="4.75097">
        <ele>519</ele>
        <time>2013-10-26T10:48:15Z</time>
      </trkpt>
      <trkpt lat="45.53235" lon="4.751">
        <ele>519</ele>
        <time>2013-10-26T10:48:16Z</time>
      </trkpt>
      <trkpt lat="45.53235" lon="4.751">
        <ele>519</ele>
        <time>2013-10-26T10:48:19Z</time>
      </trkpt>
      <trkpt lat="45.53235" lon="4.751">
        <ele>519</ele>
        <time>2013-10-26T10:48:20Z</time>
      </trkpt>
      <trkpt lat="45.53235" lon="4.751">
        <ele>519</ele>
        <time>2013-10-26T10:48:21Z</time>
      </trkpt>
      <trkpt lat="45.53235" lon="4.751">
        <ele>519</ele>
        <time>2013-10-26T10:48:22Z</time>
      </trkpt>
      <trkpt lat="45.53235" lon="4.75099">
        <ele>519</ele>
        <time>2013-10-26T10:48:23Z</time>
      </trkpt>
      <trkpt lat="45.53236" lon="4.75099">
        <ele>519</ele>
        <time>2013-10-26T10:48:24Z</time>
      </trkpt>
      <trkpt lat="45.53237" lon="4.751">
        <ele>519</ele>
        <time>2013-10-26T10:48:27Z</time>
      </trkpt>
      <trkpt lat="45.53237" lon="4.751">
        <ele>519</ele>
        <time>2013-10-26T10:48:28Z</time>
      </trkpt>
      <trkpt lat="45.53237" lon="4.75101">
        <ele>519</ele>
        <time>2013-10-26T10:49:26Z</time>
      </trkpt>
      <trkpt lat="45.53237" lon="4.75101">
        <ele>519</ele>
        <time>2013-10-26T10:49:27Z</time>
      </trkpt>
      <trkpt lat="45.53239" lon="4.75112">
        <ele>519</ele>
        <time>2013-10-26T10:49:30Z</time>
      </trkpt>
      <trkpt lat="45.5324" lon="4.75115">
        <ele>519</ele>
        <time>2013-10-26T10:49:31Z</time>
      </trkpt>
      <trkpt lat="45.53243" lon="4.75123">
        <ele>519</ele>
        <time>2013-10-26T10:49:34Z</time>
      </trkpt>
      <trkpt lat="45.53245" lon="4.75126">
        <ele>519</ele>
        <time>2013-10-26T10:49:35Z</time>
      </trkpt>
      <trkpt lat="45.53246" lon="4.75136">
        <ele>518</ele>
        <time>2013-10-26T10:49:36Z</time>
      </trkpt>
      <trkpt lat="45.53248" lon="4.75142">
        <ele>517</ele>
        <time>2013-10-26T10:49:37Z</time>
      </trkpt>
      <trkpt lat="45.53249" lon="4.7515">
        <ele>517</ele>
        <time>2013-10-26T10:49:38Z</time>
      </trkpt>
      <trkpt lat="45.53251" lon="4.75158">
        <ele>513</ele>
        <time>2013-10-26T10:49:39Z</time>
      </trkpt>
      <trkpt lat="45.53254" lon="4.75164">
        <ele>514</ele>
        <time>2013-10-26T10:49:40Z</time>
      </trkpt>
      <trkpt lat="45.53257" lon="4.7517">
        <ele>511</ele>
        <time>2013-10-26T10:49:41Z</time>
      </trkpt>
      <trkpt lat="45.53263" lon="4.75179">
        <ele>509</ele>
        <time>2013-10-26T10:49:43Z</time>
      </trkpt>
      <trkpt lat="45.53266" lon="4.75183">
        <ele>508</ele>
        <time>2013-10-26T10:49:44Z</time>
      </trkpt>
      <trkpt lat="45.53273" lon="4.75189">
        <ele>507</ele>
        <time>2013-10-26T10:49:46Z</time>
      </trkpt>
      <trkpt lat="45.53278" lon="4.75194">
        <ele>507</ele>
        <time>2013-10-26T10:49:47Z</time>
      </trkpt>
      <trkpt lat="45.53286" lon="4.75198">
        <ele>506</ele>
        <time>2013-10-26T10:49:48Z</time>
      </trkpt>
      <trkpt lat="45.53292" lon="4.75202">
        <ele>505</ele>
        <time>2013-10-26T10:49:49Z</time>
      </trkpt>
      <trkpt lat="45.53298" lon="4.75206">
        <ele>505</ele>
        <time>2013-10-26T10:49:50Z</time>
      </trkpt>
      <trkpt lat="45.53303" lon="4.75211">
        <ele>504</ele>
        <time>2013-10-26T10:49:51Z</time>
      </trkpt>
      <trkpt lat="45.5331" lon="4.75216">
        <ele>504</ele>
        <time>2013-10-26T10:49:52Z</time>
      </trkpt>
      <trkpt lat="45.53316" lon="4.75222">
        <ele>503</ele>
        <time>2013-10-26T10:49:53Z</time>
      </trkpt>
      <trkpt lat="45.53321" lon="4.75228">
        <ele>503</ele>
        <time>2013-10-26T10:49:54Z</time>
      </trkpt>
      <trkpt lat="45.53326" lon="4.75236">
        <ele>502</ele>
        <time>2013-10-26T10:49:55Z</time>
      </trkpt>
      <trkpt lat="45.5333" lon="4.75241">
        <ele>501</ele>
        <time>2013-10-26T10:49:56Z</time>
      </trkpt>
      <trkpt lat="45.53337" lon="4.75251">
        <ele>498</ele>
        <time>2013-10-26T10:49:57Z</time>
      </trkpt>
      <trkpt lat="45.5334" lon="4.75253">
        <ele>497</ele>
        <time>2013-10-26T10:49:58Z</time>
      </trkpt>
      <trkpt lat="45.53345" lon="4.75258">
        <ele>496</ele>
        <time>2013-10-26T10:49:59Z</time>
      </trkpt>
      <trkpt lat="45.53352" lon="4.75264">
        <ele>495</ele>
        <time>2013-10-26T10:50:00Z</time>
      </trkpt>
      <trkpt lat="45.53357" lon="4.75269">
        <ele>494</ele>
        <time>2013-10-26T10:50:01Z</time>
      </trkpt>
      <trkpt lat="45.53362" lon="4.75275">
        <ele>494</ele>
        <time>2013-10-26T10:50:02Z</time>
      </trkpt>
      <trkpt lat="45.53365" lon="4.75281">
        <ele>493</ele>
        <time>2013-10-26T10:50:03Z</time>
      </trkpt>
      <trkpt lat="45.53369" lon="4.75287">
        <ele>493</ele>
        <time>2013-10-26T10:50:04Z</time>
      </trkpt>
      <trkpt lat="45.53375" lon="4.75291">
        <ele>493</ele>
        <time>2013-10-26T10:50:05Z</time>
      </trkpt>
      <trkpt lat="45.53376" lon="4.75294">
        <ele>493</ele>
        <time>2013-10-26T10:50:06Z</time>
      </trkpt>
      <trkpt lat="45.53379" lon="4.75303">
        <ele>492</ele>
        <time>2013-10-26T10:50:07Z</time>
      </trkpt>
      <trkpt lat="45.53386" lon="4.75308">
        <ele>492</ele>
        <time>2013-10-26T10:50:09Z</time>
      </trkpt>
      <trkpt lat="45.5339" lon="4.75313">
        <ele>492</ele>
        <time>2013-10-26T10:50:10Z</time>
      </trkpt>
      <trkpt lat="45.53395" lon="4.75317">
        <ele>492</ele>
        <time>2013-10-26T10:50:11Z</time>
      </trkpt>
      <trkpt lat="45.53401" lon="4.75322">
        <ele>491</ele>
        <time>2013-10-26T10:50:12Z</time>
      </trkpt>
      <trkpt lat="45.53407" lon="4.75329">
        <ele>491</ele>
        <time>2013-10-26T10:50:13Z</time>
      </trkpt>
      <trkpt lat="45.53412" lon="4.75334">
        <ele>490</ele>
        <time>2013-10-26T10:50:14Z</time>
      </trkpt>
      <trkpt lat="45.53417" lon="4.75341">
        <ele>489</ele>
        <time>2013-10-26T10:50:15Z</time>
      </trkpt>
      <trkpt lat="45.53422" lon="4.75348">
        <ele>489</ele>
        <time>2013-10-26T10:50:16Z</time>
      </trkpt>
      <trkpt lat="45.53426" lon="4.75352">
        <ele>488</ele>
        <time>2013-10-26T10:50:17Z</time>
      </trkpt>
      <trkpt lat="45.5343" lon="4.75357">
        <ele>488</ele>
        <time>2013-10-26T10:50:18Z</time>
      </trkpt>
      <trkpt lat="45.53435" lon="4.7536">
        <ele>488</ele>
        <time>2013-10-26T10:50:19Z</time>
      </trkpt>
      <trkpt lat="45.5344" lon="4.75365">
        <ele>488</ele>
        <time>2013-10-26T10:50:20Z</time>
      </trkpt>
      <trkpt lat="45.53448" lon="4.75369">
        <ele>488</ele>
        <time>2013-10-26T10:50:27Z</time>
      </trkpt>
      <trkpt lat="45.5345" lon="4.7537">
        <ele>488</ele>
        <time>2013-10-26T10:50:28Z</time>
      </trkpt>
      <trkpt lat="45.53457" lon="4.75375">
        <ele>488</ele>
        <time>2013-10-26T10:50:32Z</time>
      </trkpt>
      <trkpt lat="45.53459" lon="4.75376">
        <ele>487</ele>
        <time>2013-10-26T10:50:33Z</time>
      </trkpt>
      <trkpt lat="45.53466" lon="4.7538">
        <ele>487</ele>
        <time>2013-10-26T10:50:36Z</time>
      </trkpt>
      <trkpt lat="45.53469" lon="4.75381">
        <ele>487</ele>
        <time>2013-10-26T10:50:37Z</time>
      </trkpt>
      <trkpt lat="45.53476" lon="4.75385">
        <ele>488</ele>
        <time>2013-10-26T10:50:40Z</time>
      </trkpt>
      <trkpt lat="45.53478" lon="4.75387">
        <ele>488</ele>
        <time>2013-10-26T10:50:41Z</time>
      </trkpt>
      <trkpt lat="45.53485" lon="4.75391">
        <ele>488</ele>
        <time>2013-10-26T10:50:45Z</time>
      </trkpt>
      <trkpt lat="45.53488" lon="4.75393">
        <ele>488</ele>
        <time>2013-10-26T10:50:46Z</time>
      </trkpt>
      <trkpt lat="45.53495" lon="4.75399">
        <ele>488</ele>
        <time>2013-10-26T10:50:49Z</time>
      </trkpt>
      <trkpt lat="45.53497" lon="4.754">
        <ele>488</ele>
        <time>2013-10-26T10:50:50Z</time>
      </trkpt>
      <trkpt lat="45.53505" lon="4.75404">
        <ele>485</ele>
        <time>2013-10-26T10:50:53Z</time>
      </trkpt>
      <trkpt lat="45.53509" lon="4.75404">
        <ele>485</ele>
        <time>2013-10-26T10:50:54Z</time>
      </trkpt>
      <trkpt lat="45.53513" lon="4.75406">
        <ele>485</ele>
        <time>2013-10-26T10:50:55Z</time>
      </trkpt>
      <trkpt lat="45.53518" lon="4.75407">
        <ele>484</ele>
        <time>2013-10-26T10:50:56Z</time>
      </trkpt>
      <trkpt lat="45.53522" lon="4.75408">
        <ele>484</ele>
        <time>2013-10-26T10:50:57Z</time>
      </trkpt>
      <trkpt lat="45.53528" lon="4.75409">
        <ele>483</ele>
        <time>2013-10-26T10:50:58Z</time>
      </trkpt>
      <trkpt lat="45.53533" lon="4.75412">
        <ele>482</ele>
        <time>2013-10-26T10:50:59Z</time>
      </trkpt>
      <trkpt lat="45.5354" lon="4.75417">
        <ele>483</ele>
        <time>2013-10-26T10:51:00Z</time>
      </trkpt>
      <trkpt lat="45.53546" lon="4.75423">
        <ele>482</ele>
        <time>2013-10-26T10:51:01Z</time>
      </trkpt>
      <trkpt lat="45.53551" lon="4.75428">
        <ele>481</ele>
        <time>2013-10-26T10:51:02Z</time>
      </trkpt>
      <trkpt lat="45.53557" lon="4.75435">
        <ele>481</ele>
        <time>2013-10-26T10:51:03Z</time>
      </trkpt>
      <trkpt lat="45.53562" lon="4.75439">
        <ele>481</ele>
        <time>2013-10-26T10:51:04Z</time>
      </trkpt>
      <trkpt lat="45.53566" lon="4.75446">
        <ele>481</ele>
        <time>2013-10-26T10:51:05Z</time>
      </trkpt>
      <trkpt lat="45.53569" lon="4.75452">
        <ele>481</ele>
        <time>2013-10-26T10:51:06Z</time>
      </trkpt>
      <trkpt lat="45.53574" lon="4.75463">
        <ele>481</ele>
        <time>2013-10-26T10:51:07Z</time>
      </trkpt>
      <trkpt lat="45.53582" lon="4.75475">
        <ele>480</ele>
        <time>2013-10-26T10:51:08Z</time>
      </trkpt>
      <trkpt lat="45.53591" lon="4.7549">
        <ele>476</ele>
        <time>2013-10-26T10:51:09Z</time>
      </trkpt>
      <trkpt lat="45.53597" lon="4.75501">
        <ele>476</ele>
        <time>2013-10-26T10:51:10Z</time>
      </trkpt>
      <trkpt lat="45.53604" lon="4.75513">
        <ele>474</ele>
        <time>2013-10-26T10:51:11Z</time>
      </trkpt>
      <trkpt lat="45.53613" lon="4.75523">
        <ele>474</ele>
        <time>2013-10-26T10:51:12Z</time>
      </trkpt>
      <trkpt lat="45.5362" lon="4.75531">
        <ele>473</ele>
        <time>2013-10-26T10:51:13Z</time>
      </trkpt>
      <trkpt lat="45.53629" lon="4.75542">
        <ele>473</ele>
        <time>2013-10-26T10:51:14Z</time>
      </trkpt>
      <trkpt lat="45.53635" lon="4.7555">
        <ele>472</ele>
        <time>2013-10-26T10:51:15Z</time>
      </trkpt>
      <trkpt lat="45.53641" lon="4.75557">
        <ele>472</ele>
        <time>2013-10-26T10:51:16Z</time>
      </trkpt>
      <trkpt lat="45.53651" lon="4.75565">
        <ele>472</ele>
        <time>2013-10-26T10:51:17Z</time>
      </trkpt>
      <trkpt lat="45.53659" lon="4.75571">
        <ele>472</ele>
        <time>2013-10-26T10:51:18Z</time>
      </trkpt>
      <trkpt lat="45.53665" lon="4.75568">
        <ele>472</ele>
        <time>2013-10-26T10:51:19Z</time>
      </trkpt>
      <trkpt lat="45.53673" lon="4.75569">
        <ele>470</ele>
        <time>2013-10-26T10:51:20Z</time>
      </trkpt>
      <trkpt lat="45.53682" lon="4.75569">
        <ele>469</ele>
        <time>2013-10-26T10:51:21Z</time>
      </trkpt>
      <trkpt lat="45.53689" lon="4.75567">
        <ele>469</ele>
        <time>2013-10-26T10:51:22Z</time>
      </trkpt>
      <trkpt lat="45.53697" lon="4.75564">
        <ele>468</ele>
        <time>2013-10-26T10:51:23Z</time>
      </trkpt>
      <trkpt lat="45.53704" lon="4.75562">
        <ele>468</ele>
        <time>2013-10-26T10:51:24Z</time>
      </trkpt>
      <trkpt lat="45.53711" lon="4.75563">
        <ele>468</ele>
        <time>2013-10-26T10:51:25Z</time>
      </trkpt>
      <trkpt lat="45.53719" lon="4.75562">
        <ele>468</ele>
        <time>2013-10-26T10:51:26Z</time>
      </trkpt>
      <trkpt lat="45.53726" lon="4.75561">
        <ele>468</ele>
        <time>2013-10-26T10:51:27Z</time>
      </trkpt>
      <trkpt lat="45.53734" lon="4.7556">
        <ele>467</ele>
        <time>2013-10-26T10:51:28Z</time>
      </trkpt>
      <trkpt lat="45.53741" lon="4.75559">
        <ele>467</ele>
        <time>2013-10-26T10:51:29Z</time>
      </trkpt>
      <trkpt lat="45.53749" lon="4.75558">
        <ele>467</ele>
        <time>2013-10-26T10:51:30Z</time>
      </trkpt>
      <trkpt lat="45.53756" lon="4.75556">
        <ele>465</ele>
        <time>2013-10-26T10:51:31Z</time>
      </trkpt>
      <trkpt lat="45.53763" lon="4.75554">
        <ele>465</ele>
        <time>2013-10-26T10:51:32Z</time>
      </trkpt>
      <trkpt lat="45.53772" lon="4.75553">
        <ele>465</ele>
        <time>2013-10-26T10:51:33Z</time>
      </trkpt>
      <trkpt lat="45.5378" lon="4.75551">
        <ele>465</ele>
        <time>2013-10-26T10:51:34Z</time>
      </trkpt>
      <trkpt lat="45.53786" lon="4.7555">
        <ele>464</ele>
        <time>2013-10-26T10:51:35Z</time>
      </trkpt>
      <trkpt lat="45.53794" lon="4.75549">
        <ele>464</ele>
        <time>2013-10-26T10:51:36Z</time>
      </trkpt>
      <trkpt lat="45.53799" lon="4.75548">
        <ele>464</ele>
        <time>2013-10-26T10:51:37Z</time>
      </trkpt>
      <trkpt lat="45.53806" lon="4.75547">
        <ele>464</ele>
        <time>2013-10-26T10:51:38Z</time>
      </trkpt>
      <trkpt lat="45.53814" lon="4.75548">
        <ele>464</ele>
        <time>2013-10-26T10:51:39Z</time>
      </trkpt>
      <trkpt lat="45.53821" lon="4.75549">
        <ele>464</ele>
        <time>2013-10-26T10:51:40Z</time>
      </trkpt>
      <trkpt lat="45.53827" lon="4.7555">
        <ele>464</ele>
        <time>2013-10-26T10:51:41Z</time>
      </trkpt>
      <trkpt lat="45.53832" lon="4.75549">
        <ele>464</ele>
        <time>2013-10-26T10:51:42Z</time>
      </trkpt>
      <trkpt lat="45.53837" lon="4.75553">
        <ele>461</ele>
        <time>2013-10-26T10:51:43Z</time>
      </trkpt>
      <trkpt lat="45.53844" lon="4.75555">
        <ele>461</ele>
        <time>2013-10-26T10:51:44Z</time>
      </trkpt>
      <trkpt lat="45.53847" lon="4.75559">
        <ele>461</ele>
        <time>2013-10-26T10:51:45Z</time>
      </trkpt>
      <trkpt lat="45.53855" lon="4.75565">
        <ele>461</ele>
        <time>2013-10-26T10:51:46Z</time>
      </trkpt>
      <trkpt lat="45.53864" lon="4.75573">
        <ele>461</ele>
        <time>2013-10-26T10:51:47Z</time>
      </trkpt>
      <trkpt lat="45.53869" lon="4.75577">
        <ele>461</ele>
        <time>2013-10-26T10:51:48Z</time>
      </trkpt>
      <trkpt lat="45.53876" lon="4.75584">
        <ele>461</ele>
        <time>2013-10-26T10:51:49Z</time>
      </trkpt>
      <trkpt lat="45.53883" lon="4.7559">
        <ele>461</ele>
        <time>2013-10-26T10:51:50Z</time>
      </trkpt>
      <trkpt lat="45.5389" lon="4.75596">
        <ele>461</ele>
        <time>2013-10-26T10:51:51Z</time>
      </trkpt>
      <trkpt lat="45.53898" lon="4.75602">
        <ele>460</ele>
        <time>2013-10-26T10:51:52Z</time>
      </trkpt>
      <trkpt lat="45.53903" lon="4.75608">
        <ele>460</ele>
        <time>2013-10-26T10:51:53Z</time>
      </trkpt>
      <trkpt lat="45.53909" lon="4.75614">
        <ele>460</ele>
        <time>2013-10-26T10:51:54Z</time>
      </trkpt>
      <trkpt lat="45.53917" lon="4.75621">
        <ele>461</ele>
        <time>2013-10-26T10:51:55Z</time>
      </trkpt>
      <trkpt lat="45.53923" lon="4.75628">
        <ele>459</ele>
        <time>2013-10-26T10:51:56Z</time>
      </trkpt>
      <trkpt lat="45.53929" lon="4.75636">
        <ele>459</ele>
        <time>2013-10-26T10:51:57Z</time>
      </trkpt>
      <trkpt lat="45.53935" lon="4.75644">
        <ele>459</ele>
        <time>2013-10-26T10:51:58Z</time>
      </trkpt>
      <trkpt lat="45.53941" lon="4.75651">
        <ele>459</ele>
        <time>2013-10-26T10:51:59Z</time>
      </trkpt>
      <trkpt lat="45.53946" lon="4.75659">
        <ele>459</ele>
        <time>2013-10-26T10:52:00Z</time>
      </trkpt>
      <trkpt lat="45.53951" lon="4.75666">
        <ele>459</ele>
        <time>2013-10-26T10:52:01Z</time>
      </trkpt>
      <trkpt lat="45.53956" lon="4.75673">
        <ele>459</ele>
        <time>2013-10-26T10:52:02Z</time>
      </trkpt>
      <trkpt lat="45.53961" lon="4.7568">
        <ele>459</ele>
        <time>2013-10-26T10:52:03Z</time>
      </trkpt>
      <trkpt lat="45.53966" lon="4.75685">
        <ele>459</ele>
        <time>2013-10-26T10:52:04Z</time>
      </trkpt>
      <trkpt lat="45.53971" lon="4.75692">
        <ele>459</ele>
        <time>2013-10-26T10:52:05Z</time>
      </trkpt>
      <trkpt lat="45.53975" lon="4.757">
        <ele>459</ele>
        <time>2013-10-26T10:52:06Z</time>
      </trkpt>
      <trkpt lat="45.53979" lon="4.75709">
        <ele>459</ele>
        <time>2013-10-26T10:52:07Z</time>
      </trkpt>
      <trkpt lat="45.53983" lon="4.75717">
        <ele>459</ele>
        <time>2013-10-26T10:52:08Z</time>
      </trkpt>
      <trkpt lat="45.53985" lon="4.75722">
        <ele>459</ele>
        <time>2013-10-26T10:52:09Z</time>
      </trkpt>
      <trkpt lat="45.53988" lon="4.7573">
        <ele>459</ele>
        <time>2013-10-26T10:52:10Z</time>
      </trkpt>
      <trkpt lat="45.53995" lon="4.75739">
        <ele>460</ele>
        <time>2013-10-26T10:52:11Z</time>
      </trkpt>
      <trkpt lat="45.54" lon="4.75745">
        <ele>460</ele>
        <time>2013-10-26T10:52:12Z</time>
      </trkpt>
      <trkpt lat="45.54005" lon="4.75751">
        <ele>460</ele>
        <time>2013-10-26T10:52:13Z</time>
      </trkpt>
      <trkpt lat="45.5401" lon="4.7576">
        <ele>460</ele>
        <time>2013-10-26T10:52:14Z</time>
      </trkpt>
      <trkpt lat="45.54014" lon="4.75767">
        <ele>461</ele>
        <time>2013-10-26T10:52:15Z</time>
      </trkpt>
      <trkpt lat="45.54019" lon="4.75774">
        <ele>461</ele>
        <time>2013-10-26T10:52:16Z</time>
      </trkpt>
      <trkpt lat="45.54023" lon="4.75781">
        <ele>461</ele>
        <time>2013-10-26T10:52:17Z</time>
      </trkpt>
      <trkpt lat="45.54026" lon="4.75788">
        <ele>461</ele>
        <time>2013-10-26T10:52:18Z</time>
      </trkpt>
      <trkpt lat="45.54029" lon="4.75795">
        <ele>461</ele>
        <time>2013-10-26T10:52:19Z</time>
      </trkpt>
      <trkpt lat="45.54032" lon="4.75801">
        <ele>461</ele>
        <time>2013-10-26T10:52:20Z</time>
      </trkpt>
      <trkpt lat="45.54035" lon="4.75808">
        <ele>461</ele>
        <time>2013-10-26T10:52:21Z</time>
      </trkpt>
      <trkpt lat="45.54039" lon="4.7582">
        <ele>461</ele>
        <time>2013-10-26T10:52:23Z</time>
      </trkpt>
      <trkpt lat="45.5404" lon="4.75825">
        <ele>462</ele>
        <time>2013-10-26T10:52:24Z</time>
      </trkpt>
      <trkpt lat="45.54043" lon="4.75835">
        <ele>462</ele>
        <time>2013-10-26T10:52:28Z</time>
      </trkpt>
      <trkpt lat="45.54046" lon="4.75838">
        <ele>462</ele>
        <time>2013-10-26T10:52:29Z</time>
      </trkpt>
      <trkpt lat="45.54051" lon="4.75848">
        <ele>463</ele>
        <time>2013-10-26T10:52:32Z</time>
      </trkpt>
      <trkpt lat="45.54052" lon="4.75851">
        <ele>463</ele>
        <time>2013-10-26T10:52:33Z</time>
      </trkpt>
      <trkpt lat="45.54057" lon="4.75858">
        <ele>463</ele>
        <time>2013-10-26T10:52:40Z</time>
      </trkpt>
      <trkpt lat="45.54059" lon="4.7586">
        <ele>463</ele>
        <time>2013-10-26T10:52:41Z</time>
      </trkpt>
      <trkpt lat="45.54063" lon="4.75865">
        <ele>463</ele>
        <time>2013-10-26T10:52:42Z</time>
      </trkpt>
      <trkpt lat="45.54066" lon="4.75869">
        <ele>463</ele>
        <time>2013-10-26T10:52:43Z</time>
      </trkpt>
      <trkpt lat="45.54072" lon="4.75877">
        <ele>463</ele>
        <time>2013-10-26T10:52:46Z</time>
      </trkpt>
      <trkpt lat="45.54074" lon="4.7588">
        <ele>464</ele>
        <time>2013-10-26T10:52:47Z</time>
      </trkpt>
      <trkpt lat="45.54079" lon="4.75888">
        <ele>464</ele>
        <time>2013-10-26T10:52:49Z</time>
      </trkpt>
      <trkpt lat="45.5408" lon="4.75892">
        <ele>464</ele>
        <time>2013-10-26T10:52:50Z</time>
      </trkpt>
      <trkpt lat="45.54084" lon="4.75902">
        <ele>466</ele>
        <time>2013-10-26T10:52:52Z</time>
      </trkpt>
      <trkpt lat="45.54087" lon="4.75906">
        <ele>467</ele>
        <time>2013-10-26T10:52:53Z</time>
      </trkpt>
      <trkpt lat="45.54092" lon="4.75915">
        <ele>467</ele>
        <time>2013-10-26T10:52:55Z</time>
      </trkpt>
      <trkpt lat="45.54098" lon="4.75923">
        <ele>465</ele>
        <time>2013-10-26T10:52:56Z</time>
      </trkpt>
      <trkpt lat="45.54102" lon="4.75928">
        <ele>464</ele>
        <time>2013-10-26T10:52:57Z</time>
      </trkpt>
      <trkpt lat="45.54106" lon="4.75934">
        <ele>464</ele>
        <time>2013-10-26T10:52:58Z</time>
      </trkpt>
      <trkpt lat="45.54112" lon="4.75942">
        <ele>463</ele>
        <time>2013-10-26T10:53:00Z</time>
      </trkpt>
      <trkpt lat="45.54118" lon="4.7595">
        <ele>463</ele>
        <time>2013-10-26T10:53:01Z</time>
      </trkpt>
      <trkpt lat="45.54121" lon="4.75953">
        <ele>463</ele>
        <time>2013-10-26T10:53:02Z</time>
      </trkpt>
      <trkpt lat="45.54124" lon="4.75958">
        <ele>462</ele>
        <time>2013-10-26T10:53:03Z</time>
      </trkpt>
      <trkpt lat="45.54129" lon="4.75963">
        <ele>462</ele>
        <time>2013-10-26T10:53:04Z</time>
      </trkpt>
      <trkpt lat="45.54133" lon="4.75966">
        <ele>462</ele>
        <time>2013-10-26T10:53:05Z</time>
      </trkpt>
      <trkpt lat="45.54139" lon="4.75974">
        <ele>462</ele>
        <time>2013-10-26T10:53:06Z</time>
      </trkpt>
      <trkpt lat="45.54143" lon="4.7598">
        <ele>461</ele>
        <time>2013-10-26T10:53:07Z</time>
      </trkpt>
      <trkpt lat="45.54147" lon="4.75984">
        <ele>461</ele>
        <time>2013-10-26T10:53:08Z</time>
      </trkpt>
      <trkpt lat="45.54152" lon="4.7599">
        <ele>461</ele>
        <time>2013-10-26T10:53:09Z</time>
      </trkpt>
      <trkpt lat="45.54158" lon="4.75995">
        <ele>460</ele>
        <time>2013-10-26T10:53:10Z</time>
      </trkpt>
      <trkpt lat="45.54164" lon="4.76">
        <ele>459</ele>
        <time>2013-10-26T10:53:11Z</time>
      </trkpt>
      <trkpt lat="45.54172" lon="4.76006">
        <ele>457</ele>
        <time>2013-10-26T10:53:12Z</time>
      </trkpt>
      <trkpt lat="45.54177" lon="4.7601">
        <ele>456</ele>
        <time>2013-10-26T10:53:13Z</time>
      </trkpt>
      <trkpt lat="45.54188" lon="4.76014">
        <ele>454</ele>
        <time>2013-10-26T10:53:14Z</time>
      </trkpt>
      <trkpt lat="45.54196" lon="4.76018">
        <ele>453</ele>
        <time>2013-10-26T10:53:15Z</time>
      </trkpt>
      <trkpt lat="45.54203" lon="4.7602">
        <ele>453</ele>
        <time>2013-10-26T10:53:16Z</time>
      </trkpt>
      <trkpt lat="45.54211" lon="4.76023">
        <ele>452</ele>
        <time>2013-10-26T10:53:17Z</time>
      </trkpt>
      <trkpt lat="45.54217" lon="4.76023">
        <ele>452</ele>
        <time>2013-10-26T10:53:18Z</time>
      </trkpt>
      <trkpt lat="45.5422" lon="4.76032">
        <ele>452</ele>
        <time>2013-10-26T10:53:23Z</time>
      </trkpt>
      <trkpt lat="45.54221" lon="4.76034">
        <ele>452</ele>
        <time>2013-10-26T10:53:24Z</time>
      </trkpt>
      <trkpt lat="45.54223" lon="4.76042">
        <ele>451</ele>
        <time>2013-10-26T10:53:28Z</time>
      </trkpt>
      <trkpt lat="45.54225" lon="4.76046">
        <ele>451</ele>
        <time>2013-10-26T10:53:29Z</time>
      </trkpt>
      <trkpt lat="45.54227" lon="4.76053">
        <ele>451</ele>
        <time>2013-10-26T10:53:30Z</time>
      </trkpt>
      <trkpt lat="45.5423" lon="4.76059">
        <ele>451</ele>
        <time>2013-10-26T10:53:31Z</time>
      </trkpt>
      <trkpt lat="45.54234" lon="4.76065">
        <ele>450</ele>
        <time>2013-10-26T10:53:32Z</time>
      </trkpt>
      <trkpt lat="45.54237" lon="4.76071">
        <ele>450</ele>
        <time>2013-10-26T10:53:33Z</time>
      </trkpt>
      <trkpt lat="45.54239" lon="4.76078">
        <ele>449</ele>
        <time>2013-10-26T10:53:34Z</time>
      </trkpt>
      <trkpt lat="45.54243" lon="4.76085">
        <ele>447</ele>
        <time>2013-10-26T10:53:34Z</time>
      </trkpt>
      <trkpt lat="45.54245" lon="4.7609">
        <ele>447</ele>
        <time>2013-10-26T10:53:35Z</time>
      </trkpt>
      <trkpt lat="45.54248" lon="4.76097">
        <ele>446</ele>
        <time>2013-10-26T10:53:36Z</time>
      </trkpt>
      <trkpt lat="45.54252" lon="4.76104">
        <ele>444</ele>
        <time>2013-10-26T10:53:39Z</time>
      </trkpt>
      <trkpt lat="45.54255" lon="4.76109">
        <ele>444</ele>
        <time>2013-10-26T10:53:40Z</time>
      </trkpt>
      <trkpt lat="45.54261" lon="4.76116">
        <ele>443</ele>
        <time>2013-10-26T10:53:42Z</time>
      </trkpt>
      <trkpt lat="45.54263" lon="4.76118">
        <ele>442</ele>
        <time>2013-10-26T10:53:44Z</time>
      </trkpt>
      <trkpt lat="45.54267" lon="4.76126">
        <ele>442</ele>
        <time>2013-10-26T10:53:44Z</time>
      </trkpt>
      <trkpt lat="45.54269" lon="4.76128">
        <ele>442</ele>
        <time>2013-10-26T10:53:46Z</time>
      </trkpt>
      <trkpt lat="45.54271" lon="4.76116">
        <ele>442</ele>
        <time>2013-10-26T10:53:47Z</time>
      </trkpt>
      <trkpt lat="45.54274" lon="4.76114">
        <ele>442</ele>
        <time>2013-10-26T10:53:48Z</time>
      </trkpt>
      <trkpt lat="45.54279" lon="4.76107">
        <ele>442</ele>
        <time>2013-10-26T10:53:51Z</time>
      </trkpt>
      <trkpt lat="45.54281" lon="4.76104">
        <ele>442</ele>
        <time>2013-10-26T10:53:52Z</time>
      </trkpt>
      <trkpt lat="45.54285" lon="4.76099">
        <ele>442</ele>
        <time>2013-10-26T10:53:54Z</time>
      </trkpt>
      <trkpt lat="45.54287" lon="4.76095">
        <ele>442</ele>
        <time>2013-10-26T10:53:55Z</time>
      </trkpt>
      <trkpt lat="45.5429" lon="4.76085">
        <ele>442</ele>
        <time>2013-10-26T10:53:58Z</time>
      </trkpt>
      <trkpt lat="45.54293" lon="4.76076">
        <ele>443</ele>
        <time>2013-10-26T10:53:59Z</time>
      </trkpt>
      <trkpt lat="45.54296" lon="4.76063">
        <ele>442</ele>
        <time>2013-10-26T10:54:01Z</time>
      </trkpt>
      <trkpt lat="45.54297" lon="4.76059">
        <ele>442</ele>
        <time>2013-10-26T10:54:02Z</time>
      </trkpt>
      <trkpt lat="45.54296" lon="4.76046">
        <ele>442</ele>
        <time>2013-10-26T10:54:03Z</time>
      </trkpt>
      <trkpt lat="45.54297" lon="4.76041">
        <ele>442</ele>
        <time>2013-10-26T10:54:04Z</time>
      </trkpt>
      <trkpt lat="45.54295" lon="4.76033">
        <ele>442</ele>
        <time>2013-10-26T10:54:05Z</time>
      </trkpt>
      <trkpt lat="45.54297" lon="4.76021">
        <ele>442</ele>
        <time>2013-10-26T10:54:07Z</time>
      </trkpt>
      <trkpt lat="45.54297" lon="4.76013">
        <ele>442</ele>
        <time>2013-10-26T10:54:08Z</time>
      </trkpt>
      <trkpt lat="45.54298" lon="4.76004">
        <ele>441</ele>
        <time>2013-10-26T10:54:09Z</time>
      </trkpt>
      <trkpt lat="45.54297" lon="4.75997">
        <ele>439</ele>
        <time>2013-10-26T10:54:10Z</time>
      </trkpt>
      <trkpt lat="45.54295" lon="4.75989">
        <ele>440</ele>
        <time>2013-10-26T10:54:11Z</time>
      </trkpt>
      <trkpt lat="45.54294" lon="4.75982">
        <ele>440</ele>
        <time>2013-10-26T10:54:12Z</time>
      </trkpt>
      <trkpt lat="45.54296" lon="4.75974">
        <ele>439</ele>
        <time>2013-10-26T10:54:13Z</time>
      </trkpt>
      <trkpt lat="45.54294" lon="4.75965">
        <ele>439</ele>
        <time>2013-10-26T10:54:13Z</time>
      </trkpt>
      <trkpt lat="45.54294" lon="4.75959">
        <ele>439</ele>
        <time>2013-10-26T10:54:14Z</time>
      </trkpt>
      <trkpt lat="45.54295" lon="4.75949">
        <ele>439</ele>
        <time>2013-10-26T10:54:15Z</time>
      </trkpt>
      <trkpt lat="45.54294" lon="4.75943">
        <ele>439</ele>
        <time>2013-10-26T10:54:17Z</time>
      </trkpt>
      <trkpt lat="45.54298" lon="4.75934">
        <ele>438</ele>
        <time>2013-10-26T10:54:17Z</time>
      </trkpt>
      <trkpt lat="45.54299" lon="4.75928">
        <ele>437</ele>
        <time>2013-10-26T10:54:18Z</time>
      </trkpt>
      <trkpt lat="45.54299" lon="4.7592">
        <ele>437</ele>
        <time>2013-10-26T10:54:21Z</time>
      </trkpt>
      <trkpt lat="45.54299" lon="4.75915">
        <ele>437</ele>
        <time>2013-10-26T10:54:22Z</time>
      </trkpt>
      <trkpt lat="45.54302" lon="4.75908">
        <ele>436</ele>
        <time>2013-10-26T10:54:23Z</time>
      </trkpt>
      <trkpt lat="45.54303" lon="4.75901">
        <ele>436</ele>
        <time>2013-10-26T10:54:24Z</time>
      </trkpt>
      <trkpt lat="45.54305" lon="4.7589">
        <ele>436</ele>
        <time>2013-10-26T10:54:25Z</time>
      </trkpt>
      <trkpt lat="45.54314" lon="4.75884">
        <ele>435</ele>
        <time>2013-10-26T10:54:26Z</time>
      </trkpt>
      <trkpt lat="45.54317" lon="4.75872">
        <ele>435</ele>
        <time>2013-10-26T10:54:28Z</time>
      </trkpt>
      <trkpt lat="45.54318" lon="4.75868">
        <ele>435</ele>
        <time>2013-10-26T10:54:30Z</time>
      </trkpt>
      <trkpt lat="45.54322" lon="4.75858">
        <ele>434</ele>
        <time>2013-10-26T10:54:32Z</time>
      </trkpt>
      <trkpt lat="45.54323" lon="4.75855">
        <ele>434</ele>
        <time>2013-10-26T10:54:33Z</time>
      </trkpt>
      <trkpt lat="45.54325" lon="4.75847">
        <ele>432</ele>
        <time>2013-10-26T10:54:33Z</time>
      </trkpt>
      <trkpt lat="45.54327" lon="4.75842">
        <ele>431</ele>
        <time>2013-10-26T10:54:34Z</time>
      </trkpt>
      <trkpt lat="45.54329" lon="4.75837">
        <ele>429</ele>
        <time>2013-10-26T10:54:35Z</time>
      </trkpt>
      <trkpt lat="45.54332" lon="4.7583">
        <ele>428</ele>
        <time>2013-10-26T10:54:36Z</time>
      </trkpt>
      <trkpt lat="45.54336" lon="4.75824">
        <ele>423</ele>
        <time>2013-10-26T10:54:37Z</time>
      </trkpt>
      <trkpt lat="45.54338" lon="4.75818">
        <ele>422</ele>
        <time>2013-10-26T10:54:38Z</time>
      </trkpt>
      <trkpt lat="45.54342" lon="4.75808">
        <ele>420</ele>
        <time>2013-10-26T10:54:42Z</time>
      </trkpt>
      <trkpt lat="45.54345" lon="4.75806">
        <ele>419</ele>
        <time>2013-10-26T10:54:44Z</time>
      </trkpt>
      <trkpt lat="45.5435" lon="4.75801">
        <ele>418</ele>
        <time>2013-10-26T10:54:47Z</time>
      </trkpt>
      <trkpt lat="45.54352" lon="4.75797">
        <ele>418</ele>
        <time>2013-10-26T10:54:48Z</time>
      </trkpt>
      <trkpt lat="45.5436" lon="4.75794">
        <ele>417</ele>
        <time>2013-10-26T10:54:50Z</time>
      </trkpt>
      <trkpt lat="45.54362" lon="4.75793">
        <ele>417</ele>
        <time>2013-10-26T10:54:52Z</time>
      </trkpt>
      <trkpt lat="45.54368" lon="4.75787">
        <ele>416</ele>
        <time>2013-10-26T10:54:55Z</time>
      </trkpt>
      <trkpt lat="45.54369" lon="4.75785">
        <ele>416</ele>
        <time>2013-10-26T10:54:56Z</time>
      </trkpt>
      <trkpt lat="45.54372" lon="4.75785">
        <ele>415</ele>
        <time>2013-10-26T10:55:05Z</time>
      </trkpt>
      <trkpt lat="45.54372" lon="4.75785">
        <ele>415</ele>
        <time>2013-10-26T10:55:05Z</time>
      </trkpt>
      <trkpt lat="45.54372" lon="4.75784">
        <ele>415</ele>
        <time>2013-10-26T10:55:08Z</time>
      </trkpt>
      <trkpt lat="45.54372" lon="4.75783">
        <ele>415</ele>
        <time>2013-10-26T10:55:09Z</time>
      </trkpt>
      <trkpt lat="45.54372" lon="4.75783">
        <ele>415</ele>
        <time>2013-10-26T10:55:10Z</time>
      </trkpt>
      <trkpt lat="45.54372" lon="4.75782">
        <ele>415</ele>
        <time>2013-10-26T10:55:11Z</time>
      </trkpt>
      <trkpt lat="45.54373" lon="4.75782">
        <ele>415</ele>
        <time>2013-10-26T10:55:12Z</time>
      </trkpt>
      <trkpt lat="45.54373" lon="4.75782">
        <ele>415</ele>
        <time>2013-10-26T10:55:13Z</time>
      </trkpt>
      <trkpt lat="45.54373" lon="4.75782">
        <ele>415</ele>
        <time>2013-10-26T10:55:14Z</time>
      </trkpt>
      <trkpt lat="45.54373" lon="4.75782">
        <ele>415</ele>
        <time>2013-10-26T10:55:26Z</time>
      </trkpt>
      <trkpt lat="45.54373" lon="4.75783">
        <ele>415</ele>
        <time>2013-10-26T10:55:27Z</time>
      </trkpt>
      <trkpt lat="45.54373" lon="4.75783">
        <ele>415</ele>
        <time>2013-10-26T10:55:28Z</time>
      </trkpt>
      <trkpt lat="45.54374" lon="4.75783">
        <ele>415</ele>
        <time>2013-10-26T10:55:29Z</time>
      </trkpt>
      <trkpt lat="45.54374" lon="4.75783">
        <ele>415</ele>
        <time>2013-10-26T10:55:30Z</time>
      </trkpt>
      <trkpt lat="45.54376" lon="4.75793">
        <ele>415</ele>
        <time>2013-10-26T10:55:35Z</time>
      </trkpt>
      <trkpt lat="45.54377" lon="4.75797">
        <ele>415</ele>
        <time>2013-10-26T10:55:36Z</time>
      </trkpt>
      <trkpt lat="45.54378" lon="4.75807">
        <ele>415</ele>
        <time>2013-10-26T10:55:40Z</time>
      </trkpt>
      <trkpt lat="45.54379" lon="4.75811">
        <ele>415</ele>
        <time>2013-10-26T10:55:41Z</time>
      </trkpt>
      <trkpt lat="45.54381" lon="4.75823">
        <ele>414</ele>
        <time>2013-10-26T10:55:46Z</time>
      </trkpt>
      <trkpt lat="45.54382" lon="4.75828">
        <ele>414</ele>
        <time>2013-10-26T10:55:47Z</time>
      </trkpt>
      <trkpt lat="45.54383" lon="4.75833">
        <ele>414</ele>
        <time>2013-10-26T10:55:52Z</time>
      </trkpt>
      <trkpt lat="45.54383" lon="4.75833">
        <ele>414</ele>
        <time>2013-10-26T10:55:53Z</time>
      </trkpt>
      <trkpt lat="45.54383" lon="4.75834">
        <ele>414</ele>
        <time>2013-10-26T10:55:54Z</time>
      </trkpt>
      <trkpt lat="45.54383" lon="4.75834">
        <ele>414</ele>
        <time>2013-10-26T10:55:55Z</time>
      </trkpt>
      <trkpt lat="45.54383" lon="4.75834">
        <ele>414</ele>
        <time>2013-10-26T10:55:56Z</time>
      </trkpt>
      <trkpt lat="45.54383" lon="4.75833">
        <ele>414</ele>
        <time>2013-10-26T10:55:57Z</time>
      </trkpt>
      <trkpt lat="45.54383" lon="4.75834">
        <ele>414</ele>
        <time>2013-10-26T10:55:58Z</time>
      </trkpt>
      <trkpt lat="45.54384" lon="4.75834">
        <ele>414</ele>
        <time>2013-10-26T10:55:59Z</time>
      </trkpt>
      <trkpt lat="45.54384" lon="4.75834">
        <ele>414</ele>
        <time>2013-10-26T10:56:00Z</time>
      </trkpt>
      <trkpt lat="45.54383" lon="4.75834">
        <ele>414</ele>
        <time>2013-10-26T10:56:01Z</time>
      </trkpt>
      <trkpt lat="45.54378" lon="4.75844">
        <ele>415</ele>
        <time>2013-10-26T10:56:09Z</time>
      </trkpt>
      <trkpt lat="45.54379" lon="4.75847">
        <ele>415</ele>
        <time>2013-10-26T10:56:10Z</time>
      </trkpt>
      <trkpt lat="45.54374" lon="4.75852">
        <ele>416</ele>
        <time>2013-10-26T10:56:13Z</time>
      </trkpt>
      <trkpt lat="45.5437" lon="4.75854">
        <ele>416</ele>
        <time>2013-10-26T10:56:14Z</time>
      </trkpt>
      <trkpt lat="45.54365" lon="4.75863">
        <ele>417</ele>
        <time>2013-10-26T10:56:18Z</time>
      </trkpt>
      <trkpt lat="45.54364" lon="4.75864">
        <ele>417</ele>
        <time>2013-10-26T10:56:19Z</time>
      </trkpt>
      <trkpt lat="45.54356" lon="4.75868">
        <ele>418</ele>
        <time>2013-10-26T10:56:25Z</time>
      </trkpt>
      <trkpt lat="45.54354" lon="4.75868">
        <ele>418</ele>
        <time>2013-10-26T10:56:26Z</time>
      </trkpt>
      <trkpt lat="45.5435" lon="4.75877">
        <ele>418</ele>
        <time>2013-10-26T10:56:30Z</time>
      </trkpt>
      <trkpt lat="45.54349" lon="4.75879">
        <ele>418</ele>
        <time>2013-10-26T10:56:31Z</time>
      </trkpt>
      <trkpt lat="45.54348" lon="4.75892">
        <ele>419</ele>
        <time>2013-10-26T10:56:39Z</time>
      </trkpt>
      <trkpt lat="45.54349" lon="4.75893">
        <ele>419</ele>
        <time>2013-10-26T10:56:40Z</time>
      </trkpt>
      <trkpt lat="45.54349" lon="4.75894">
        <ele>419</ele>
        <time>2013-10-26T10:56:42Z</time>
      </trkpt>
      <trkpt lat="45.54349" lon="4.75894">
        <ele>419</ele>
        <time>2013-10-26T10:56:43Z</time>
      </trkpt>
      <trkpt lat="45.54349" lon="4.75896">
        <ele>419</ele>
        <time>2013-10-26T10:56:44Z</time>
      </trkpt>
      <trkpt lat="45.54353" lon="4.75905">
        <ele>419</ele>
        <time>2013-10-26T10:56:49Z</time>
      </trkpt>
      <trkpt lat="45.54355" lon="4.75906">
        <ele>419</ele>
        <time>2013-10-26T10:56:50Z</time>
      </trkpt>
      <trkpt lat="45.54357" lon="4.75915">
        <ele>418</ele>
        <time>2013-10-26T10:56:54Z</time>
      </trkpt>
      <trkpt lat="45.54357" lon="4.75918">
        <ele>420</ele>
        <time>2013-10-26T10:56:55Z</time>
      </trkpt>
      <trkpt lat="45.54363" lon="4.75927">
        <ele>419</ele>
        <time>2013-10-26T10:56:58Z</time>
      </trkpt>
      <trkpt lat="45.54365" lon="4.75931">
        <ele>419</ele>
        <time>2013-10-26T10:56:59Z</time>
      </trkpt>
      <trkpt lat="45.54372" lon="4.75938">
        <ele>418</ele>
        <time>2013-10-26T10:57:04Z</time>
      </trkpt>
      <trkpt lat="45.54373" lon="4.75938">
        <ele>417</ele>
        <time>2013-10-26T10:57:05Z</time>
      </trkpt>
      <trkpt lat="45.54376" lon="4.75947">
        <ele>417</ele>
        <time>2013-10-26T10:57:07Z</time>
      </trkpt>
      <trkpt lat="45.54379" lon="4.75951">
        <ele>417</ele>
        <time>2013-10-26T10:57:08Z</time>
      </trkpt>
      <trkpt lat="45.54385" lon="4.75958">
        <ele>417</ele>
        <time>2013-10-26T10:57:17Z</time>
      </trkpt>
      <trkpt lat="45.54389" lon="4.75964">
        <ele>417</ele>
        <time>2013-10-26T10:57:18Z</time>
      </trkpt>
      <trkpt lat="45.54393" lon="4.75974">
        <ele>416</ele>
        <time>2013-10-26T10:57:20Z</time>
      </trkpt>
      <trkpt lat="45.54393" lon="4.75977">
        <ele>416</ele>
        <time>2013-10-26T10:57:21Z</time>
      </trkpt>
      <trkpt lat="45.54397" lon="4.75986">
        <ele>416</ele>
        <time>2013-10-26T10:57:23Z</time>
      </trkpt>
      <trkpt lat="45.54398" lon="4.75989">
        <ele>415</ele>
        <time>2013-10-26T10:57:24Z</time>
      </trkpt>
      <trkpt lat="45.54402" lon="4.76">
        <ele>414</ele>
        <time>2013-10-26T10:57:27Z</time>
      </trkpt>
      <trkpt lat="45.54403" lon="4.76002">
        <ele>417</ele>
        <time>2013-10-26T10:57:28Z</time>
      </trkpt>
      <trkpt lat="45.54406" lon="4.7601">
        <ele>417</ele>
        <time>2013-10-26T10:57:31Z</time>
      </trkpt>
      <trkpt lat="45.54407" lon="4.76014">
        <ele>418</ele>
        <time>2013-10-26T10:57:32Z</time>
      </trkpt>
      <trkpt lat="45.54408" lon="4.76022">
        <ele>419</ele>
        <time>2013-10-26T10:57:34Z</time>
      </trkpt>
      <trkpt lat="45.54409" lon="4.76029">
        <ele>420</ele>
        <time>2013-10-26T10:57:35Z</time>
      </trkpt>
      <trkpt lat="45.54408" lon="4.7604">
        <ele>421</ele>
        <time>2013-10-26T10:57:39Z</time>
      </trkpt>
      <trkpt lat="45.54409" lon="4.76044">
        <ele>421</ele>
        <time>2013-10-26T10:57:40Z</time>
      </trkpt>
      <trkpt lat="45.54408" lon="4.76056">
        <ele>421</ele>
        <time>2013-10-26T10:57:43Z</time>
      </trkpt>
      <trkpt lat="45.54409" lon="4.76061">
        <ele>421</ele>
        <time>2013-10-26T10:57:44Z</time>
      </trkpt>
      <trkpt lat="45.5441" lon="4.7607">
        <ele>420</ele>
        <time>2013-10-26T10:57:45Z</time>
      </trkpt>
      <trkpt lat="45.54412" lon="4.76078">
        <ele>418</ele>
        <time>2013-10-26T10:57:46Z</time>
      </trkpt>
      <trkpt lat="45.54414" lon="4.76085">
        <ele>417</ele>
        <time>2013-10-26T10:57:47Z</time>
      </trkpt>
      <trkpt lat="45.54417" lon="4.7609">
        <ele>419</ele>
        <time>2013-10-26T10:57:48Z</time>
      </trkpt>
      <trkpt lat="45.54419" lon="4.76101">
        <ele>413</ele>
        <time>2013-10-26T10:57:51Z</time>
      </trkpt>
      <trkpt lat="45.5442" lon="4.76104">
        <ele>412</ele>
        <time>2013-10-26T10:57:52Z</time>
      </trkpt>
      <trkpt lat="45.54421" lon="4.76112">
        <ele>412</ele>
        <time>2013-10-26T10:57:55Z</time>
      </trkpt>
      <trkpt lat="45.54422" lon="4.76117">
        <ele>412</ele>
        <time>2013-10-26T10:57:56Z</time>
      </trkpt>
      <trkpt lat="45.54424" lon="4.76126">
        <ele>412</ele>
        <time>2013-10-26T10:57:58Z</time>
      </trkpt>
      <trkpt lat="45.54422" lon="4.76131">
        <ele>412</ele>
        <time>2013-10-26T10:57:59Z</time>
      </trkpt>
      <trkpt lat="45.54423" lon="4.76143">
        <ele>413</ele>
        <time>2013-10-26T10:58:02Z</time>
      </trkpt>
      <trkpt lat="45.54423" lon="4.76145">
        <ele>413</ele>
        <time>2013-10-26T10:58:03Z</time>
      </trkpt>
      <trkpt lat="45.54425" lon="4.76155">
        <ele>415</ele>
        <time>2013-10-26T10:58:06Z</time>
      </trkpt>
      <trkpt lat="45.54425" lon="4.76158">
        <ele>415</ele>
        <time>2013-10-26T10:58:07Z</time>
      </trkpt>
      <trkpt lat="45.54426" lon="4.7617">
        <ele>416</ele>
        <time>2013-10-26T10:58:10Z</time>
      </trkpt>
      <trkpt lat="45.54425" lon="4.76173">
        <ele>415</ele>
        <time>2013-10-26T10:58:11Z</time>
      </trkpt>
      <trkpt lat="45.5442" lon="4.76182">
        <ele>414</ele>
        <time>2013-10-26T10:58:14Z</time>
      </trkpt>
      <trkpt lat="45.54419" lon="4.76185">
        <ele>414</ele>
        <time>2013-10-26T10:58:15Z</time>
      </trkpt>
      <trkpt lat="45.54415" lon="4.76195">
        <ele>422</ele>
        <time>2013-10-26T10:58:18Z</time>
      </trkpt>
      <trkpt lat="45.54413" lon="4.76199">
        <ele>422</ele>
        <time>2013-10-26T10:58:19Z</time>
      </trkpt>
      <trkpt lat="45.54411" lon="4.76206">
        <ele>422</ele>
        <time>2013-10-26T10:58:21Z</time>
      </trkpt>
      <trkpt lat="45.54409" lon="4.7621">
        <ele>422</ele>
        <time>2013-10-26T10:58:22Z</time>
      </trkpt>
      <trkpt lat="45.54405" lon="4.7622">
        <ele>421</ele>
        <time>2013-10-26T10:58:25Z</time>
      </trkpt>
      <trkpt lat="45.54404" lon="4.76223">
        <ele>421</ele>
        <time>2013-10-26T10:58:26Z</time>
      </trkpt>
      <trkpt lat="45.54398" lon="4.76233">
        <ele>421</ele>
        <time>2013-10-26T10:58:29Z</time>
      </trkpt>
      <trkpt lat="45.54397" lon="4.76239">
        <ele>420</ele>
        <time>2013-10-26T10:58:30Z</time>
      </trkpt>
      <trkpt lat="45.54396" lon="4.76251">
        <ele>418</ele>
        <time>2013-10-26T10:58:33Z</time>
      </trkpt>
      <trkpt lat="45.54391" lon="4.76257">
        <ele>419</ele>
        <time>2013-10-26T10:58:34Z</time>
      </trkpt>
      <trkpt lat="45.54388" lon="4.76266">
        <ele>420</ele>
        <time>2013-10-26T10:58:36Z</time>
      </trkpt>
      <trkpt lat="45.54387" lon="4.76272">
        <ele>420</ele>
        <time>2013-10-26T10:58:37Z</time>
      </trkpt>
      <trkpt lat="45.54385" lon="4.76282">
        <ele>420</ele>
        <time>2013-10-26T10:58:39Z</time>
      </trkpt>
      <trkpt lat="45.54384" lon="4.76286">
        <ele>420</ele>
        <time>2013-10-26T10:58:40Z</time>
      </trkpt>
      <trkpt lat="45.54383" lon="4.76294">
        <ele>420</ele>
        <time>2013-10-26T10:58:42Z</time>
      </trkpt>
      <trkpt lat="45.54385" lon="4.76301">
        <ele>420</ele>
        <time>2013-10-26T10:58:43Z</time>
      </trkpt>
      <trkpt lat="45.54387" lon="4.76312">
        <ele>420</ele>
        <time>2013-10-26T10:58:45Z</time>
      </trkpt>
      <trkpt lat="45.54388" lon="4.76316">
        <ele>419</ele>
        <time>2013-10-26T10:58:46Z</time>
      </trkpt>
      <trkpt lat="45.54392" lon="4.76326">
        <ele>419</ele>
        <time>2013-10-26T10:58:48Z</time>
      </trkpt>
      <trkpt lat="45.54394" lon="4.76332">
        <ele>418</ele>
        <time>2013-10-26T10:58:49Z</time>
      </trkpt>
      <trkpt lat="45.54396" lon="4.76343">
        <ele>419</ele>
        <time>2013-10-26T10:58:51Z</time>
      </trkpt>
      <trkpt lat="45.54397" lon="4.76347">
        <ele>419</ele>
        <time>2013-10-26T10:58:52Z</time>
      </trkpt>
      <trkpt lat="45.54397" lon="4.76357">
        <ele>419</ele>
        <time>2013-10-26T10:58:54Z</time>
      </trkpt>
      <trkpt lat="45.54397" lon="4.76361">
        <ele>419</ele>
        <time>2013-10-26T10:58:55Z</time>
      </trkpt>
      <trkpt lat="45.54394" lon="4.76372">
        <ele>420</ele>
        <time>2013-10-26T10:58:57Z</time>
      </trkpt>
      <trkpt lat="45.54395" lon="4.76381">
        <ele>420</ele>
        <time>2013-10-26T10:58:58Z</time>
      </trkpt>
      <trkpt lat="45.54395" lon="4.76393">
        <ele>420</ele>
        <time>2013-10-26T10:59:00Z</time>
      </trkpt>
      <trkpt lat="45.54395" lon="4.764">
        <ele>420</ele>
        <time>2013-10-26T10:59:01Z</time>
      </trkpt>
      <trkpt lat="45.54394" lon="4.76412">
        <ele>420</ele>
        <time>2013-10-26T10:59:03Z</time>
      </trkpt>
      <trkpt lat="45.54394" lon="4.76416">
        <ele>420</ele>
        <time>2013-10-26T10:59:04Z</time>
      </trkpt>
      <trkpt lat="45.54392" lon="4.76424">
        <ele>421</ele>
        <time>2013-10-26T10:59:05Z</time>
      </trkpt>
      <trkpt lat="45.54392" lon="4.7643">
        <ele>421</ele>
        <time>2013-10-26T10:59:06Z</time>
      </trkpt>
      <trkpt lat="45.54391" lon="4.76441">
        <ele>421</ele>
        <time>2013-10-26T10:59:08Z</time>
      </trkpt>
      <trkpt lat="45.54391" lon="4.76445">
        <ele>421</ele>
        <time>2013-10-26T10:59:09Z</time>
      </trkpt>
      <trkpt lat="45.54391" lon="4.76455">
        <ele>421</ele>
        <time>2013-10-26T10:59:10Z</time>
      </trkpt>
      <trkpt lat="45.5439" lon="4.76462">
        <ele>421</ele>
        <time>2013-10-26T10:59:11Z</time>
      </trkpt>
      <trkpt lat="45.54389" lon="4.76472">
        <ele>421</ele>
        <time>2013-10-26T10:59:13Z</time>
      </trkpt>
      <trkpt lat="45.54389" lon="4.76478">
        <ele>420</ele>
        <time>2013-10-26T10:59:14Z</time>
      </trkpt>
      <trkpt lat="45.54388" lon="4.7649">
        <ele>420</ele>
        <time>2013-10-26T10:59:16Z</time>
      </trkpt>
      <trkpt lat="45.54388" lon="4.76495">
        <ele>420</ele>
        <time>2013-10-26T10:59:17Z</time>
      </trkpt>
      <trkpt lat="45.54387" lon="4.76504">
        <ele>418</ele>
        <time>2013-10-26T10:59:18Z</time>
      </trkpt>
      <trkpt lat="45.54386" lon="4.76513">
        <ele>418</ele>
        <time>2013-10-26T10:59:19Z</time>
      </trkpt>
      <trkpt lat="45.54386" lon="4.76519">
        <ele>418</ele>
        <time>2013-10-26T10:59:20Z</time>
      </trkpt>
      <trkpt lat="45.54382" lon="4.7653">
        <ele>418</ele>
        <time>2013-10-26T10:59:21Z</time>
      </trkpt>
      <trkpt lat="45.54378" lon="4.76536">
        <ele>418</ele>
        <time>2013-10-26T10:59:22Z</time>
      </trkpt>
      <trkpt lat="45.54375" lon="4.76544">
        <ele>418</ele>
        <time>2013-10-26T10:59:23Z</time>
      </trkpt>
      <trkpt lat="45.54372" lon="4.76551">
        <ele>418</ele>
        <time>2013-10-26T10:59:24Z</time>
      </trkpt>
      <trkpt lat="45.54368" lon="4.76559">
        <ele>418</ele>
        <time>2013-10-26T10:59:25Z</time>
      </trkpt>
      <trkpt lat="45.54365" lon="4.76565">
        <ele>418</ele>
        <time>2013-10-26T10:59:26Z</time>
      </trkpt>
      <trkpt lat="45.54362" lon="4.76571">
        <ele>418</ele>
        <time>2013-10-26T10:59:27Z</time>
      </trkpt>
      <trkpt lat="45.54355" lon="4.76578">
        <ele>419</ele>
        <time>2013-10-26T10:59:29Z</time>
      </trkpt>
      <trkpt lat="45.54353" lon="4.76581">
        <ele>419</ele>
        <time>2013-10-26T10:59:30Z</time>
      </trkpt>
      <trkpt lat="45.5435" lon="4.7659">
        <ele>417</ele>
        <time>2013-10-26T10:59:33Z</time>
      </trkpt>
      <trkpt lat="45.54348" lon="4.76594">
        <ele>417</ele>
        <time>2013-10-26T10:59:34Z</time>
      </trkpt>
      <trkpt lat="45.54344" lon="4.76604">
        <ele>417</ele>
        <time>2013-10-26T10:59:37Z</time>
      </trkpt>
      <trkpt lat="45.54343" lon="4.76608">
        <ele>416</ele>
        <time>2013-10-26T10:59:38Z</time>
      </trkpt>
      <trkpt lat="45.54343" lon="4.76613">
        <ele>416</ele>
        <time>2013-10-26T10:59:39Z</time>
      </trkpt>
      <trkpt lat="45.54347" lon="4.76624">
        <ele>415</ele>
        <time>2013-10-26T10:59:40Z</time>
      </trkpt>
      <trkpt lat="45.54347" lon="4.76636">
        <ele>415</ele>
        <time>2013-10-26T10:59:42Z</time>
      </trkpt>
      <trkpt lat="45.54348" lon="4.76641">
        <ele>415</ele>
        <time>2013-10-26T10:59:43Z</time>
      </trkpt>
      <trkpt lat="45.54348" lon="4.7665">
        <ele>415</ele>
        <time>2013-10-26T10:59:44Z</time>
      </trkpt>
      <trkpt lat="45.54349" lon="4.76655">
        <ele>415</ele>
        <time>2013-10-26T10:59:45Z</time>
      </trkpt>
      <trkpt lat="45.54354" lon="4.76678">
        <ele>413</ele>
        <time>2013-10-26T10:59:46Z</time>
      </trkpt>
      <trkpt lat="45.54354" lon="4.76688">
        <ele>412</ele>
        <time>2013-10-26T10:59:47Z</time>
      </trkpt>
      <trkpt lat="45.54355" lon="4.76699">
        <ele>412</ele>
        <time>2013-10-26T10:59:48Z</time>
      </trkpt>
      <trkpt lat="45.54355" lon="4.76711">
        <ele>411</ele>
        <time>2013-10-26T10:59:49Z</time>
      </trkpt>
      <trkpt lat="45.54355" lon="4.7672">
        <ele>411</ele>
        <time>2013-10-26T10:59:50Z</time>
      </trkpt>
      <trkpt lat="45.54355" lon="4.76728">
        <ele>411</ele>
        <time>2013-10-26T10:59:51Z</time>
      </trkpt>
      <trkpt lat="45.54357" lon="4.76739">
        <ele>411</ele>
        <time>2013-10-26T10:59:52Z</time>
      </trkpt>
      <trkpt lat="45.5436" lon="4.76748">
        <ele>410</ele>
        <time>2013-10-26T10:59:53Z</time>
      </trkpt>
      <trkpt lat="45.5436" lon="4.76755">
        <ele>409</ele>
        <time>2013-10-26T10:59:54Z</time>
      </trkpt>
      <trkpt lat="45.54367" lon="4.76763">
        <ele>409</ele>
        <time>2013-10-26T10:59:55Z</time>
      </trkpt>
      <trkpt lat="45.5437" lon="4.76773">
        <ele>409</ele>
        <time>2013-10-26T10:59:56Z</time>
      </trkpt>
      <trkpt lat="45.54374" lon="4.76784">
        <ele>408</ele>
        <time>2013-10-26T10:59:57Z</time>
      </trkpt>
      <trkpt lat="45.54377" lon="4.76794">
        <ele>408</ele>
        <time>2013-10-26T10:59:58Z</time>
      </trkpt>
      <trkpt lat="45.54381" lon="4.76803">
        <ele>408</ele>
        <time>2013-10-26T10:59:59Z</time>
      </trkpt>
      <trkpt lat="45.54384" lon="4.76815">
        <ele>408</ele>
        <time>2013-10-26T11:00:00Z</time>
      </trkpt>
      <trkpt lat="45.54387" lon="4.76825">
        <ele>408</ele>
        <time>2013-10-26T11:00:01Z</time>
      </trkpt>
      <trkpt lat="45.54388" lon="4.76834">
        <ele>407</ele>
        <time>2013-10-26T11:00:02Z</time>
      </trkpt>
      <trkpt lat="45.54391" lon="4.76843">
        <ele>407</ele>
        <time>2013-10-26T11:00:03Z</time>
      </trkpt>
      <trkpt lat="45.54393" lon="4.76853">
        <ele>407</ele>
        <time>2013-10-26T11:00:04Z</time>
      </trkpt>
      <trkpt lat="45.54394" lon="4.7686">
        <ele>407</ele>
        <time>2013-10-26T11:00:05Z</time>
      </trkpt>
      <trkpt lat="45.54396" lon="4.76868">
        <ele>407</ele>
        <time>2013-10-26T11:00:06Z</time>
      </trkpt>
      <trkpt lat="45.54398" lon="4.76876">
        <ele>407</ele>
        <time>2013-10-26T11:00:07Z</time>
      </trkpt>
      <trkpt lat="45.54399" lon="4.76883">
        <ele>407</ele>
        <time>2013-10-26T11:00:08Z</time>
      </trkpt>
      <trkpt lat="45.54403" lon="4.76895">
        <ele>407</ele>
        <time>2013-10-26T11:00:10Z</time>
      </trkpt>
      <trkpt lat="45.54405" lon="4.769">
        <ele>407</ele>
        <time>2013-10-26T11:00:11Z</time>
      </trkpt>
      <trkpt lat="45.54407" lon="4.76909">
        <ele>408</ele>
        <time>2013-10-26T11:00:13Z</time>
      </trkpt>
      <trkpt lat="45.5441" lon="4.76915">
        <ele>408</ele>
        <time>2013-10-26T11:00:14Z</time>
      </trkpt>
      <trkpt lat="45.54411" lon="4.76921">
        <ele>407</ele>
        <time>2013-10-26T11:00:15Z</time>
      </trkpt>
      <trkpt lat="45.54412" lon="4.76928">
        <ele>407</ele>
        <time>2013-10-26T11:00:16Z</time>
      </trkpt>
      <trkpt lat="45.54415" lon="4.76939">
        <ele>407</ele>
        <time>2013-10-26T11:00:18Z</time>
      </trkpt>
      <trkpt lat="45.54417" lon="4.76944">
        <ele>405</ele>
        <time>2013-10-26T11:00:19Z</time>
      </trkpt>
      <trkpt lat="45.5442" lon="4.76955">
        <ele>405</ele>
        <time>2013-10-26T11:00:21Z</time>
      </trkpt>
      <trkpt lat="45.54421" lon="4.7696">
        <ele>405</ele>
        <time>2013-10-26T11:00:22Z</time>
      </trkpt>
      <trkpt lat="45.54423" lon="4.76972">
        <ele>405</ele>
        <time>2013-10-26T11:00:24Z</time>
      </trkpt>
      <trkpt lat="45.54424" lon="4.76978">
        <ele>405</ele>
        <time>2013-10-26T11:00:25Z</time>
      </trkpt>
      <trkpt lat="45.54427" lon="4.76989">
        <ele>405</ele>
        <time>2013-10-26T11:00:27Z</time>
      </trkpt>
      <trkpt lat="45.54427" lon="4.76994">
        <ele>405</ele>
        <time>2013-10-26T11:00:28Z</time>
      </trkpt>
      <trkpt lat="45.54428" lon="4.77005">
        <ele>405</ele>
        <time>2013-10-26T11:00:30Z</time>
      </trkpt>
      <trkpt lat="45.54428" lon="4.77012">
        <ele>405</ele>
        <time>2013-10-26T11:00:31Z</time>
      </trkpt>
      <trkpt lat="45.54429" lon="4.77019">
        <ele>404</ele>
        <time>2013-10-26T11:00:32Z</time>
      </trkpt>
      <trkpt lat="45.54429" lon="4.77025">
        <ele>404</ele>
        <time>2013-10-26T11:00:33Z</time>
      </trkpt>
      <trkpt lat="45.5443" lon="4.77032">
        <ele>403</ele>
        <time>2013-10-26T11:00:34Z</time>
      </trkpt>
      <trkpt lat="45.54432" lon="4.77039">
        <ele>403</ele>
        <time>2013-10-26T11:00:35Z</time>
      </trkpt>
      <trkpt lat="45.54432" lon="4.77044">
        <ele>403</ele>
        <time>2013-10-26T11:00:36Z</time>
      </trkpt>
      <trkpt lat="45.54432" lon="4.77051">
        <ele>403</ele>
        <time>2013-10-26T11:00:37Z</time>
      </trkpt>
      <trkpt lat="45.54432" lon="4.77058">
        <ele>403</ele>
        <time>2013-10-26T11:00:38Z</time>
      </trkpt>
      <trkpt lat="45.54432" lon="4.77065">
        <ele>403</ele>
        <time>2013-10-26T11:00:39Z</time>
      </trkpt>
      <trkpt lat="45.54432" lon="4.77072">
        <ele>403</ele>
        <time>2013-10-26T11:00:40Z</time>
      </trkpt>
      <trkpt lat="45.54431" lon="4.77079">
        <ele>403</ele>
        <time>2013-10-26T11:00:41Z</time>
      </trkpt>
      <trkpt lat="45.54432" lon="4.77086">
        <ele>402</ele>
        <time>2013-10-26T11:00:42Z</time>
      </trkpt>
      <trkpt lat="45.54432" lon="4.77094">
        <ele>402</ele>
        <time>2013-10-26T11:00:43Z</time>
      </trkpt>
      <trkpt lat="45.54431" lon="4.771">
        <ele>401</ele>
        <time>2013-10-26T11:00:44Z</time>
      </trkpt>
      <trkpt lat="45.54432" lon="4.77107">
        <ele>401</ele>
        <time>2013-10-26T11:00:45Z</time>
      </trkpt>
      <trkpt lat="45.5443" lon="4.77119">
        <ele>401</ele>
        <time>2013-10-26T11:00:47Z</time>
      </trkpt>
      <trkpt lat="45.54427" lon="4.77123">
        <ele>400</ele>
        <time>2013-10-26T11:00:48Z</time>
      </trkpt>
      <trkpt lat="45.54429" lon="4.77135">
        <ele>400</ele>
        <time>2013-10-26T11:00:50Z</time>
      </trkpt>
      <trkpt lat="45.54432" lon="4.77139">
        <ele>400</ele>
        <time>2013-10-26T11:00:51Z</time>
      </trkpt>
      <trkpt lat="45.54434" lon="4.77145">
        <ele>400</ele>
        <time>2013-10-26T11:00:52Z</time>
      </trkpt>
      <trkpt lat="45.54437" lon="4.77151">
        <ele>400</ele>
        <time>2013-10-26T11:00:53Z</time>
      </trkpt>
      <trkpt lat="45.54442" lon="4.77158">
        <ele>399</ele>
        <time>2013-10-26T11:00:55Z</time>
      </trkpt>
      <trkpt lat="45.54443" lon="4.77161">
        <ele>399</ele>
        <time>2013-10-26T11:00:56Z</time>
      </trkpt>
      <trkpt lat="45.54448" lon="4.7717">
        <ele>397</ele>
        <time>2013-10-26T11:00:57Z</time>
      </trkpt>
      <trkpt lat="45.5445" lon="4.77174">
        <ele>397</ele>
        <time>2013-10-26T11:00:58Z</time>
      </trkpt>
      <trkpt lat="45.54452" lon="4.7718">
        <ele>397</ele>
        <time>2013-10-26T11:00:59Z</time>
      </trkpt>
      <trkpt lat="45.54455" lon="4.77186">
        <ele>397</ele>
        <time>2013-10-26T11:01:00Z</time>
      </trkpt>
      <trkpt lat="45.54458" lon="4.77191">
        <ele>396</ele>
        <time>2013-10-26T11:01:01Z</time>
      </trkpt>
      <trkpt lat="45.5446" lon="4.77197">
        <ele>396</ele>
        <time>2013-10-26T11:01:02Z</time>
      </trkpt>
      <trkpt lat="45.54463" lon="4.77203">
        <ele>396</ele>
        <time>2013-10-26T11:01:03Z</time>
      </trkpt>
      <trkpt lat="45.54467" lon="4.77211">
        <ele>396</ele>
        <time>2013-10-26T11:01:04Z</time>
      </trkpt>
      <trkpt lat="45.5447" lon="4.77216">
        <ele>396</ele>
        <time>2013-10-26T11:01:05Z</time>
      </trkpt>
      <trkpt lat="45.54472" lon="4.77223">
        <ele>396</ele>
        <time>2013-10-26T11:01:06Z</time>
      </trkpt>
      <trkpt lat="45.54475" lon="4.77229">
        <ele>395</ele>
        <time>2013-10-26T11:01:07Z</time>
      </trkpt>
      <trkpt lat="45.54478" lon="4.77237">
        <ele>395</ele>
        <time>2013-10-26T11:01:08Z</time>
      </trkpt>
      <trkpt lat="45.54481" lon="4.77243">
        <ele>395</ele>
        <time>2013-10-26T11:01:09Z</time>
      </trkpt>
      <trkpt lat="45.54484" lon="4.7725">
        <ele>395</ele>
        <time>2013-10-26T11:01:10Z</time>
      </trkpt>
      <trkpt lat="45.54489" lon="4.77257">
        <ele>393</ele>
        <time>2013-10-26T11:01:12Z</time>
      </trkpt>
      <trkpt lat="45.5449" lon="4.77259">
        <ele>393</ele>
        <time>2013-10-26T11:01:13Z</time>
      </trkpt>
      <trkpt lat="45.54496" lon="4.77267">
        <ele>393</ele>
        <time>2013-10-26T11:01:20Z</time>
      </trkpt>
      <trkpt lat="45.54496" lon="4.77267">
        <ele>393</ele>
        <time>2013-10-26T11:01:21Z</time>
      </trkpt>
      <trkpt lat="45.54496" lon="4.77267">
        <ele>393</ele>
        <time>2013-10-26T11:01:22Z</time>
      </trkpt>
      <trkpt lat="45.54497" lon="4.77268">
        <ele>393</ele>
        <time>2013-10-26T11:01:23Z</time>
      </trkpt>
      <trkpt lat="45.54502" lon="4.77274">
        <ele>389</ele>
        <time>2013-10-26T11:01:26Z</time>
      </trkpt>
      <trkpt lat="45.54504" lon="4.77277">
        <ele>389</ele>
        <time>2013-10-26T11:01:27Z</time>
      </trkpt>
      <trkpt lat="45.54506" lon="4.77287">
        <ele>388</ele>
        <time>2013-10-26T11:01:31Z</time>
      </trkpt>
      <trkpt lat="45.54505" lon="4.7729">
        <ele>388</ele>
        <time>2013-10-26T11:01:32Z</time>
      </trkpt>
      <trkpt lat="45.54511" lon="4.77298">
        <ele>388</ele>
        <time>2013-10-26T11:01:35Z</time>
      </trkpt>
      <trkpt lat="45.54513" lon="4.77299">
        <ele>387</ele>
        <time>2013-10-26T11:01:36Z</time>
      </trkpt>
      <trkpt lat="45.54518" lon="4.77307">
        <ele>387</ele>
        <time>2013-10-26T11:01:39Z</time>
      </trkpt>
      <trkpt lat="45.5452" lon="4.7731">
        <ele>387</ele>
        <time>2013-10-26T11:01:40Z</time>
      </trkpt>
      <trkpt lat="45.54523" lon="4.77319">
        <ele>387</ele>
        <time>2013-10-26T11:01:42Z</time>
      </trkpt>
      <trkpt lat="45.54524" lon="4.77322">
        <ele>387</ele>
        <time>2013-10-26T11:01:43Z</time>
      </trkpt>
      <trkpt lat="45.54525" lon="4.77325">
        <ele>387</ele>
        <time>2013-10-26T11:01:46Z</time>
      </trkpt>
      <trkpt lat="45.54528" lon="4.77333">
        <ele>386</ele>
        <time>2013-10-26T11:01:47Z</time>
      </trkpt>
      <trkpt lat="45.54533" lon="4.7734">
        <ele>383</ele>
        <time>2013-10-26T11:01:52Z</time>
      </trkpt>
      <trkpt lat="45.54535" lon="4.77342">
        <ele>383</ele>
        <time>2013-10-26T11:01:53Z</time>
      </trkpt>
      <trkpt lat="45.54541" lon="4.77347">
        <ele>382</ele>
        <time>2013-10-26T11:02:00Z</time>
      </trkpt>
      <trkpt lat="45.54543" lon="4.7735">
        <ele>382</ele>
        <time>2013-10-26T11:02:01Z</time>
      </trkpt>
      <trkpt lat="45.54545" lon="4.77355">
        <ele>381</ele>
        <time>2013-10-26T11:02:02Z</time>
      </trkpt>
      <trkpt lat="45.5455" lon="4.77361">
        <ele>381</ele>
        <time>2013-10-26T11:02:03Z</time>
      </trkpt>
      <trkpt lat="45.54556" lon="4.77368">
        <ele>381</ele>
        <time>2013-10-26T11:02:04Z</time>
      </trkpt>
      <trkpt lat="45.54558" lon="4.77374">
        <ele>380</ele>
        <time>2013-10-26T11:02:05Z</time>
      </trkpt>
      <trkpt lat="45.54561" lon="4.77379">
        <ele>380</ele>
        <time>2013-10-26T11:02:06Z</time>
      </trkpt>
      <trkpt lat="45.54565" lon="4.77384">
        <ele>380</ele>
        <time>2013-10-26T11:02:07Z</time>
      </trkpt>
      <trkpt lat="45.54568" lon="4.7739">
        <ele>379</ele>
        <time>2013-10-26T11:02:08Z</time>
      </trkpt>
      <trkpt lat="45.54569" lon="4.77398">
        <ele>379</ele>
        <time>2013-10-26T11:02:09Z</time>
      </trkpt>
      <trkpt lat="45.54571" lon="4.77405">
        <ele>378</ele>
        <time>2013-10-26T11:02:10Z</time>
      </trkpt>
      <trkpt lat="45.54572" lon="4.77411">
        <ele>378</ele>
        <time>2013-10-26T11:02:11Z</time>
      </trkpt>
      <trkpt lat="45.54574" lon="4.7742">
        <ele>376</ele>
        <time>2013-10-26T11:02:13Z</time>
      </trkpt>
      <trkpt lat="45.54577" lon="4.77425">
        <ele>376</ele>
        <time>2013-10-26T11:02:14Z</time>
      </trkpt>
      <trkpt lat="45.54588" lon="4.77432">
        <ele>374</ele>
        <time>2013-10-26T11:02:15Z</time>
      </trkpt>
      <trkpt lat="45.54592" lon="4.77436">
        <ele>373</ele>
        <time>2013-10-26T11:02:16Z</time>
      </trkpt>
      <trkpt lat="45.54597" lon="4.7744">
        <ele>373</ele>
        <time>2013-10-26T11:02:17Z</time>
      </trkpt>
      <trkpt lat="45.54601" lon="4.77441">
        <ele>373</ele>
        <time>2013-10-26T11:02:18Z</time>
      </trkpt>
      <trkpt lat="45.54609" lon="4.77447">
        <ele>372</ele>
        <time>2013-10-26T11:02:19Z</time>
      </trkpt>
      <trkpt lat="45.54614" lon="4.77452">
        <ele>372</ele>
        <time>2013-10-26T11:02:20Z</time>
      </trkpt>
      <trkpt lat="45.5462" lon="4.77455">
        <ele>371</ele>
        <time>2013-10-26T11:02:21Z</time>
      </trkpt>
      <trkpt lat="45.54625" lon="4.77462">
        <ele>371</ele>
        <time>2013-10-26T11:02:22Z</time>
      </trkpt>
      <trkpt lat="45.5463" lon="4.77468">
        <ele>371</ele>
        <time>2013-10-26T11:02:23Z</time>
      </trkpt>
      <trkpt lat="45.54637" lon="4.77475">
        <ele>371</ele>
        <time>2013-10-26T11:02:24Z</time>
      </trkpt>
      <trkpt lat="45.54646" lon="4.77483">
        <ele>370</ele>
        <time>2013-10-26T11:02:25Z</time>
      </trkpt>
      <trkpt lat="45.54655" lon="4.77492">
        <ele>369</ele>
        <time>2013-10-26T11:02:26Z</time>
      </trkpt>
      <trkpt lat="45.54662" lon="4.77498">
        <ele>369</ele>
        <time>2013-10-26T11:02:27Z</time>
      </trkpt>
      <trkpt lat="45.54661" lon="4.77506">
        <ele>367</ele>
        <time>2013-10-26T11:02:28Z</time>
      </trkpt>
      <trkpt lat="45.54665" lon="4.77513">
        <ele>367</ele>
        <time>2013-10-26T11:02:30Z</time>
      </trkpt>
      <trkpt lat="45.54666" lon="4.77519">
        <ele>367</ele>
        <time>2013-10-26T11:02:31Z</time>
      </trkpt>
      <trkpt lat="45.54661" lon="4.77527">
        <ele>366</ele>
        <time>2013-10-26T11:02:37Z</time>
      </trkpt>
      <trkpt lat="45.54661" lon="4.7753">
        <ele>366</ele>
        <time>2013-10-26T11:02:38Z</time>
      </trkpt>
      <trkpt lat="45.5466" lon="4.77538">
        <ele>366</ele>
        <time>2013-10-26T11:02:40Z</time>
      </trkpt>
      <trkpt lat="45.54659" lon="4.77543">
        <ele>366</ele>
        <time>2013-10-26T11:02:41Z</time>
      </trkpt>
      <trkpt lat="45.54659" lon="4.77549">
        <ele>365</ele>
        <time>2013-10-26T11:02:42Z</time>
      </trkpt>
      <trkpt lat="45.54659" lon="4.77558">
        <ele>365</ele>
        <time>2013-10-26T11:02:43Z</time>
      </trkpt>
      <trkpt lat="45.54659" lon="4.77567">
        <ele>364</ele>
        <time>2013-10-26T11:02:44Z</time>
      </trkpt>
      <trkpt lat="45.5466" lon="4.77575">
        <ele>364</ele>
        <time>2013-10-26T11:02:45Z</time>
      </trkpt>
      <trkpt lat="45.54664" lon="4.77585">
        <ele>363</ele>
        <time>2013-10-26T11:02:46Z</time>
      </trkpt>
      <trkpt lat="45.54667" lon="4.77594">
        <ele>362</ele>
        <time>2013-10-26T11:02:47Z</time>
      </trkpt>
      <trkpt lat="45.54671" lon="4.77604">
        <ele>361</ele>
        <time>2013-10-26T11:02:48Z</time>
      </trkpt>
      <trkpt lat="45.54675" lon="4.77614">
        <ele>361</ele>
        <time>2013-10-26T11:02:49Z</time>
      </trkpt>
      <trkpt lat="45.54678" lon="4.77624">
        <ele>361</ele>
        <time>2013-10-26T11:02:50Z</time>
      </trkpt>
      <trkpt lat="45.54682" lon="4.77635">
        <ele>360</ele>
        <time>2013-10-26T11:02:51Z</time>
      </trkpt>
      <trkpt lat="45.54686" lon="4.77646">
        <ele>360</ele>
        <time>2013-10-26T11:02:52Z</time>
      </trkpt>
      <trkpt lat="45.54689" lon="4.77656">
        <ele>360</ele>
        <time>2013-10-26T11:02:53Z</time>
      </trkpt>
      <trkpt lat="45.54693" lon="4.77667">
        <ele>360</ele>
        <time>2013-10-26T11:02:54Z</time>
      </trkpt>
      <trkpt lat="45.54697" lon="4.77677">
        <ele>358</ele>
        <time>2013-10-26T11:02:55Z</time>
      </trkpt>
      <trkpt lat="45.547" lon="4.77689">
        <ele>358</ele>
        <time>2013-10-26T11:02:56Z</time>
      </trkpt>
      <trkpt lat="45.54704" lon="4.77698">
        <ele>358</ele>
        <time>2013-10-26T11:02:57Z</time>
      </trkpt>
      <trkpt lat="45.54707" lon="4.77709">
        <ele>357</ele>
        <time>2013-10-26T11:02:58Z</time>
      </trkpt>
      <trkpt lat="45.5471" lon="4.77719">
        <ele>357</ele>
        <time>2013-10-26T11:02:59Z</time>
      </trkpt>
      <trkpt lat="45.54713" lon="4.7773">
        <ele>357</ele>
        <time>2013-10-26T11:03:00Z</time>
      </trkpt>
      <trkpt lat="45.54715" lon="4.77741">
        <ele>357</ele>
        <time>2013-10-26T11:03:01Z</time>
      </trkpt>
      <trkpt lat="45.54718" lon="4.77751">
        <ele>356</ele>
        <time>2013-10-26T11:03:02Z</time>
      </trkpt>
      <trkpt lat="45.5472" lon="4.77761">
        <ele>356</ele>
        <time>2013-10-26T11:03:03Z</time>
      </trkpt>
      <trkpt lat="45.54721" lon="4.77773">
        <ele>356</ele>
        <time>2013-10-26T11:03:04Z</time>
      </trkpt>
      <trkpt lat="45.54722" lon="4.77784">
        <ele>355</ele>
        <time>2013-10-26T11:03:05Z</time>
      </trkpt>
      <trkpt lat="45.54723" lon="4.77796">
        <ele>355</ele>
        <time>2013-10-26T11:03:06Z</time>
      </trkpt>
      <trkpt lat="45.54725" lon="4.7781">
        <ele>355</ele>
        <time>2013-10-26T11:03:07Z</time>
      </trkpt>
      <trkpt lat="45.54725" lon="4.77823">
        <ele>355</ele>
        <time>2013-10-26T11:03:08Z</time>
      </trkpt>
      <trkpt lat="45.54725" lon="4.77835">
        <ele>353</ele>
        <time>2013-10-26T11:03:09Z</time>
      </trkpt>
      <trkpt lat="45.54726" lon="4.77848">
        <ele>353</ele>
        <time>2013-10-26T11:03:10Z</time>
      </trkpt>
      <trkpt lat="45.54725" lon="4.77861">
        <ele>353</ele>
        <time>2013-10-26T11:03:11Z</time>
      </trkpt>
      <trkpt lat="45.54726" lon="4.77874">
        <ele>352</ele>
        <time>2013-10-26T11:03:12Z</time>
      </trkpt>
      <trkpt lat="45.54726" lon="4.77885">
        <ele>352</ele>
        <time>2013-10-26T11:03:13Z</time>
      </trkpt>
      <trkpt lat="45.54724" lon="4.77895">
        <ele>352</ele>
        <time>2013-10-26T11:03:14Z</time>
      </trkpt>
      <trkpt lat="45.54724" lon="4.77906">
        <ele>352</ele>
        <time>2013-10-26T11:03:15Z</time>
      </trkpt>
      <trkpt lat="45.54721" lon="4.77918">
        <ele>349</ele>
        <time>2013-10-26T11:03:16Z</time>
      </trkpt>
      <trkpt lat="45.5472" lon="4.77928">
        <ele>349</ele>
        <time>2013-10-26T11:03:17Z</time>
      </trkpt>
      <trkpt lat="45.5471" lon="4.77927">
        <ele>349</ele>
        <time>2013-10-26T11:03:18Z</time>
      </trkpt>
      <trkpt lat="45.54704" lon="4.77932">
        <ele>349</ele>
        <time>2013-10-26T11:03:19Z</time>
      </trkpt>
      <trkpt lat="45.54698" lon="4.77936">
        <ele>349</ele>
        <time>2013-10-26T11:03:20Z</time>
      </trkpt>
      <trkpt lat="45.54693" lon="4.7794">
        <ele>349</ele>
        <time>2013-10-26T11:03:21Z</time>
      </trkpt>
      <trkpt lat="45.54689" lon="4.77944">
        <ele>349</ele>
        <time>2013-10-26T11:03:22Z</time>
      </trkpt>
      <trkpt lat="45.54682" lon="4.77948">
        <ele>349</ele>
        <time>2013-10-26T11:03:23Z</time>
      </trkpt>
      <trkpt lat="45.54682" lon="4.77954">
        <ele>349</ele>
        <time>2013-10-26T11:03:24Z</time>
      </trkpt>
      <trkpt lat="45.54678" lon="4.77959">
        <ele>348</ele>
        <time>2013-10-26T11:03:25Z</time>
      </trkpt>
      <trkpt lat="45.54678" lon="4.77966">
        <ele>348</ele>
        <time>2013-10-26T11:03:26Z</time>
      </trkpt>
      <trkpt lat="45.54676" lon="4.77971">
        <ele>348</ele>
        <time>2013-10-26T11:03:27Z</time>
      </trkpt>
      <trkpt lat="45.54675" lon="4.77979">
        <ele>348</ele>
        <time>2013-10-26T11:03:28Z</time>
      </trkpt>
      <trkpt lat="45.54675" lon="4.77987">
        <ele>348</ele>
        <time>2013-10-26T11:03:29Z</time>
      </trkpt>
      <trkpt lat="45.54676" lon="4.77996">
        <ele>347</ele>
        <time>2013-10-26T11:03:30Z</time>
      </trkpt>
      <trkpt lat="45.54677" lon="4.78006">
        <ele>346</ele>
        <time>2013-10-26T11:03:31Z</time>
      </trkpt>
      <trkpt lat="45.54678" lon="4.78014">
        <ele>346</ele>
        <time>2013-10-26T11:03:32Z</time>
      </trkpt>
      <trkpt lat="45.5468" lon="4.78023">
        <ele>345</ele>
        <time>2013-10-26T11:03:33Z</time>
      </trkpt>
      <trkpt lat="45.54682" lon="4.78033">
        <ele>345</ele>
        <time>2013-10-26T11:03:34Z</time>
      </trkpt>
      <trkpt lat="45.54684" lon="4.78042">
        <ele>345</ele>
        <time>2013-10-26T11:03:35Z</time>
      </trkpt>
      <trkpt lat="45.54686" lon="4.78051">
        <ele>344</ele>
        <time>2013-10-26T11:03:36Z</time>
      </trkpt>
      <trkpt lat="45.5469" lon="4.78059">
        <ele>344</ele>
        <time>2013-10-26T11:03:37Z</time>
      </trkpt>
      <trkpt lat="45.54692" lon="4.78067">
        <ele>344</ele>
        <time>2013-10-26T11:03:38Z</time>
      </trkpt>
      <trkpt lat="45.54695" lon="4.78078">
        <ele>344</ele>
        <time>2013-10-26T11:03:41Z</time>
      </trkpt>
      <trkpt lat="45.54694" lon="4.78084">
        <ele>341</ele>
        <time>2013-10-26T11:03:42Z</time>
      </trkpt>
      <trkpt lat="45.54691" lon="4.78093">
        <ele>341</ele>
        <time>2013-10-26T11:03:44Z</time>
      </trkpt>
      <trkpt lat="45.54686" lon="4.78096">
        <ele>341</ele>
        <time>2013-10-26T11:03:45Z</time>
      </trkpt>
      <trkpt lat="45.54681" lon="4.78099">
        <ele>341</ele>
        <time>2013-10-26T11:03:46Z</time>
      </trkpt>
      <trkpt lat="45.54677" lon="4.78101">
        <ele>341</ele>
        <time>2013-10-26T11:03:47Z</time>
      </trkpt>
      <trkpt lat="45.54673" lon="4.78109">
        <ele>341</ele>
        <time>2013-10-26T11:03:49Z</time>
      </trkpt>
      <trkpt lat="45.54672" lon="4.78113">
        <ele>340</ele>
        <time>2013-10-26T11:03:50Z</time>
      </trkpt>
      <trkpt lat="45.54667" lon="4.78123">
        <ele>340</ele>
        <time>2013-10-26T11:03:54Z</time>
      </trkpt>
      <trkpt lat="45.54666" lon="4.78127">
        <ele>337</ele>
        <time>2013-10-26T11:03:55Z</time>
      </trkpt>
      <trkpt lat="45.54665" lon="4.78136">
        <ele>337</ele>
        <time>2013-10-26T11:03:57Z</time>
      </trkpt>
      <trkpt lat="45.54665" lon="4.7814">
        <ele>337</ele>
        <time>2013-10-26T11:03:58Z</time>
      </trkpt>
      <trkpt lat="45.54665" lon="4.78147">
        <ele>337</ele>
        <time>2013-10-26T11:04:00Z</time>
      </trkpt>
      <trkpt lat="45.54665" lon="4.78153">
        <ele>337</ele>
        <time>2013-10-26T11:04:01Z</time>
      </trkpt>
      <trkpt lat="45.54673" lon="4.78168">
        <ele>336</ele>
        <time>2013-10-26T11:04:02Z</time>
      </trkpt>
      <trkpt lat="45.54675" lon="4.78177">
        <ele>335</ele>
        <time>2013-10-26T11:04:03Z</time>
      </trkpt>
      <trkpt lat="45.54676" lon="4.78185">
        <ele>335</ele>
        <time>2013-10-26T11:04:04Z</time>
      </trkpt>
      <trkpt lat="45.54677" lon="4.78193">
        <ele>334</ele>
        <time>2013-10-26T11:04:05Z</time>
      </trkpt>
      <trkpt lat="45.54682" lon="4.782">
        <ele>334</ele>
        <time>2013-10-26T11:04:06Z</time>
      </trkpt>
      <trkpt lat="45.54688" lon="4.78207">
        <ele>333</ele>
        <time>2013-10-26T11:04:07Z</time>
      </trkpt>
      <trkpt lat="45.54692" lon="4.78212">
        <ele>333</ele>
        <time>2013-10-26T11:04:08Z</time>
      </trkpt>
      <trkpt lat="45.54696" lon="4.78218">
        <ele>333</ele>
        <time>2013-10-26T11:04:09Z</time>
      </trkpt>
      <trkpt lat="45.547" lon="4.78222">
        <ele>333</ele>
        <time>2013-10-26T11:04:10Z</time>
      </trkpt>
      <trkpt lat="45.54706" lon="4.78228">
        <ele>332</ele>
        <time>2013-10-26T11:04:12Z</time>
      </trkpt>
      <trkpt lat="45.54709" lon="4.7823">
        <ele>332</ele>
        <time>2013-10-26T11:04:13Z</time>
      </trkpt>
      <trkpt lat="45.54716" lon="4.78237">
        <ele>332</ele>
        <time>2013-10-26T11:04:16Z</time>
      </trkpt>
      <trkpt lat="45.54718" lon="4.78237">
        <ele>332</ele>
        <time>2013-10-26T11:04:17Z</time>
      </trkpt>
      <trkpt lat="45.54714" lon="4.7823">
        <ele>333</ele>
        <time>2013-10-26T11:04:20Z</time>
      </trkpt>
      <trkpt lat="45.54711" lon="4.78228">
        <ele>333</ele>
        <time>2013-10-26T11:04:21Z</time>
      </trkpt>
      <trkpt lat="45.54713" lon="4.78239">
        <ele>332</ele>
        <time>2013-10-26T11:04:27Z</time>
      </trkpt>
      <trkpt lat="45.54713" lon="4.78244">
        <ele>332</ele>
        <time>2013-10-26T11:04:28Z</time>
      </trkpt>
      <trkpt lat="45.54714" lon="4.78251">
        <ele>329</ele>
        <time>2013-10-26T11:04:29Z</time>
      </trkpt>
      <trkpt lat="45.54714" lon="4.78256">
        <ele>329</ele>
        <time>2013-10-26T11:04:30Z</time>
      </trkpt>
      <trkpt lat="45.54712" lon="4.78268">
        <ele>328</ele>
        <time>2013-10-26T11:04:32Z</time>
      </trkpt>
      <trkpt lat="45.5471" lon="4.78273">
        <ele>328</ele>
        <time>2013-10-26T11:04:33Z</time>
      </trkpt>
      <trkpt lat="45.54709" lon="4.78282">
        <ele>328</ele>
        <time>2013-10-26T11:04:34Z</time>
      </trkpt>
      <trkpt lat="45.54707" lon="4.78288">
        <ele>328</ele>
        <time>2013-10-26T11:04:35Z</time>
      </trkpt>
      <trkpt lat="45.54706" lon="4.78295">
        <ele>327</ele>
        <time>2013-10-26T11:04:36Z</time>
      </trkpt>
      <trkpt lat="45.54704" lon="4.78303">
        <ele>327</ele>
        <time>2013-10-26T11:04:37Z</time>
      </trkpt>
      <trkpt lat="45.54702" lon="4.78311">
        <ele>327</ele>
        <time>2013-10-26T11:04:38Z</time>
      </trkpt>
      <trkpt lat="45.54699" lon="4.78321">
        <ele>326</ele>
        <time>2013-10-26T11:04:39Z</time>
      </trkpt>
      <trkpt lat="45.54696" lon="4.78328">
        <ele>326</ele>
        <time>2013-10-26T11:04:40Z</time>
      </trkpt>
      <trkpt lat="45.54694" lon="4.78334">
        <ele>321</ele>
        <time>2013-10-26T11:04:41Z</time>
      </trkpt>
      <trkpt lat="45.54693" lon="4.78342">
        <ele>321</ele>
        <time>2013-10-26T11:04:42Z</time>
      </trkpt>
      <trkpt lat="45.54689" lon="4.78349">
        <ele>320</ele>
        <time>2013-10-26T11:04:43Z</time>
      </trkpt>
      <trkpt lat="45.54684" lon="4.78359">
        <ele>320</ele>
        <time>2013-10-26T11:04:45Z</time>
      </trkpt>
      <trkpt lat="45.54683" lon="4.78363">
        <ele>320</ele>
        <time>2013-10-26T11:04:46Z</time>
      </trkpt>
      <trkpt lat="45.54682" lon="4.78375">
        <ele>319</ele>
        <time>2013-10-26T11:04:48Z</time>
      </trkpt>
      <trkpt lat="45.54683" lon="4.78382">
        <ele>318</ele>
        <time>2013-10-26T11:04:49Z</time>
      </trkpt>
      <trkpt lat="45.54684" lon="4.78393">
        <ele>317</ele>
        <time>2013-10-26T11:04:51Z</time>
      </trkpt>
      <trkpt lat="45.54685" lon="4.78399">
        <ele>316</ele>
        <time>2013-10-26T11:04:52Z</time>
      </trkpt>
      <trkpt lat="45.54686" lon="4.78407">
        <ele>316</ele>
        <time>2013-10-26T11:04:53Z</time>
      </trkpt>
      <trkpt lat="45.5469" lon="4.78416">
        <ele>316</ele>
        <time>2013-10-26T11:04:54Z</time>
      </trkpt>
      <trkpt lat="45.54693" lon="4.78426">
        <ele>309</ele>
        <time>2013-10-26T11:04:55Z</time>
      </trkpt>
      <trkpt lat="45.54697" lon="4.78439">
        <ele>309</ele>
        <time>2013-10-26T11:04:56Z</time>
      </trkpt>
      <trkpt lat="45.54699" lon="4.78447">
        <ele>309</ele>
        <time>2013-10-26T11:04:57Z</time>
      </trkpt>
      <trkpt lat="45.54701" lon="4.78455">
        <ele>308</ele>
        <time>2013-10-26T11:04:58Z</time>
      </trkpt>
      <trkpt lat="45.54703" lon="4.78461">
        <ele>308</ele>
        <time>2013-10-26T11:04:59Z</time>
      </trkpt>
      <trkpt lat="45.54705" lon="4.78468">
        <ele>307</ele>
        <time>2013-10-26T11:05:00Z</time>
      </trkpt>
      <trkpt lat="45.54708" lon="4.78479">
        <ele>307</ele>
        <time>2013-10-26T11:05:02Z</time>
      </trkpt>
      <trkpt lat="45.54711" lon="4.78486">
        <ele>306</ele>
        <time>2013-10-26T11:05:03Z</time>
      </trkpt>
      <trkpt lat="45.54716" lon="4.78495">
        <ele>306</ele>
        <time>2013-10-26T11:05:04Z</time>
      </trkpt>
      <trkpt lat="45.54718" lon="4.78503">
        <ele>300</ele>
        <time>2013-10-26T11:05:05Z</time>
      </trkpt>
      <trkpt lat="45.54721" lon="4.78513">
        <ele>300</ele>
        <time>2013-10-26T11:05:06Z</time>
      </trkpt>
      <trkpt lat="45.54724" lon="4.78522">
        <ele>299</ele>
        <time>2013-10-26T11:05:07Z</time>
      </trkpt>
      <trkpt lat="45.54724" lon="4.78529">
        <ele>299</ele>
        <time>2013-10-26T11:05:08Z</time>
      </trkpt>
      <trkpt lat="45.54725" lon="4.78537">
        <ele>298</ele>
        <time>2013-10-26T11:05:09Z</time>
      </trkpt>
      <trkpt lat="45.54727" lon="4.78548">
        <ele>298</ele>
        <time>2013-10-26T11:05:13Z</time>
      </trkpt>
      <trkpt lat="45.5473" lon="4.78548">
        <ele>298</ele>
        <time>2013-10-26T11:05:14Z</time>
      </trkpt>
      <trkpt lat="45.54737" lon="4.78552">
        <ele>298</ele>
        <time>2013-10-26T11:05:25Z</time>
      </trkpt>
      <trkpt lat="45.54737" lon="4.78552">
        <ele>298</ele>
        <time>2013-10-26T11:05:26Z</time>
      </trkpt>
      <trkpt lat="45.54737" lon="4.78552">
        <ele>298</ele>
        <time>2013-10-26T11:05:43Z</time>
      </trkpt>
      <trkpt lat="45.54737" lon="4.78552">
        <ele>298</ele>
        <time>2013-10-26T11:05:44Z</time>
      </trkpt>
      <trkpt lat="45.54736" lon="4.78564">
        <ele>297</ele>
        <time>2013-10-26T11:05:50Z</time>
      </trkpt>
      <trkpt lat="45.54736" lon="4.78566">
        <ele>297</ele>
        <time>2013-10-26T11:05:51Z</time>
      </trkpt>
      <trkpt lat="45.54733" lon="4.78576">
        <ele>296</ele>
        <time>2013-10-26T11:06:03Z</time>
      </trkpt>
      <trkpt lat="45.54733" lon="4.78577">
        <ele>296</ele>
        <time>2013-10-26T11:06:04Z</time>
      </trkpt>
      <trkpt lat="45.54732" lon="4.78582">
        <ele>296</ele>
        <time>2013-10-26T11:06:12Z</time>
      </trkpt>
      <trkpt lat="45.54732" lon="4.78582">
        <ele>296</ele>
        <time>2013-10-26T11:06:13Z</time>
      </trkpt>
      <trkpt lat="45.54732" lon="4.78582">
        <ele>296</ele>
        <time>2013-10-26T11:06:15Z</time>
      </trkpt>
      <trkpt lat="45.54732" lon="4.78582">
        <ele>296</ele>
        <time>2013-10-26T11:06:16Z</time>
      </trkpt>
      <trkpt lat="45.54732" lon="4.78582">
        <ele>296</ele>
        <time>2013-10-26T11:06:17Z</time>
      </trkpt>
      <trkpt lat="45.54732" lon="4.78583">
        <ele>296</ele>
        <time>2013-10-26T11:06:22Z</time>
      </trkpt>
      <trkpt lat="45.54732" lon="4.78587">
        <ele>294</ele>
        <time>2013-10-26T11:06:23Z</time>
      </trkpt>
      <trkpt lat="45.54729" lon="4.78596">
        <ele>293</ele>
        <time>2013-10-26T11:06:26Z</time>
      </trkpt>
      <trkpt lat="45.54728" lon="4.78598">
        <ele>293</ele>
        <time>2013-10-26T11:06:27Z</time>
      </trkpt>
      <trkpt lat="45.54725" lon="4.7861">
        <ele>293</ele>
        <time>2013-10-26T11:06:36Z</time>
      </trkpt>
      <trkpt lat="45.54726" lon="4.78612">
        <ele>293</ele>
        <time>2013-10-26T11:06:37Z</time>
      </trkpt>
      <trkpt lat="45.54727" lon="4.78613">
        <ele>293</ele>
        <time>2013-10-26T11:06:39Z</time>
      </trkpt>
      <trkpt lat="45.54727" lon="4.78613">
        <ele>293</ele>
        <time>2013-10-26T11:06:40Z</time>
      </trkpt>
      <trkpt lat="45.54728" lon="4.78613">
        <ele>293</ele>
        <time>2013-10-26T11:06:41Z</time>
      </trkpt>
      <trkpt lat="45.5473" lon="4.78619">
        <ele>293</ele>
        <time>2013-10-26T11:06:51Z</time>
      </trkpt>
      <trkpt lat="45.5473" lon="4.78619">
        <ele>293</ele>
        <time>2013-10-26T11:06:52Z</time>
      </trkpt>
      <trkpt lat="45.54729" lon="4.78619">
        <ele>293</ele>
        <time>2013-10-26T11:06:55Z</time>
      </trkpt>
      <trkpt lat="45.54729" lon="4.78619">
        <ele>293</ele>
        <time>2013-10-26T11:06:56Z</time>
      </trkpt>
      <trkpt lat="45.54723" lon="4.78614">
        <ele>293</ele>
        <time>2013-10-26T11:07:06Z</time>
      </trkpt>
      <trkpt lat="45.54723" lon="4.78614">
        <ele>293</ele>
        <time>2013-10-26T11:07:07Z</time>
      </trkpt>
      <trkpt lat="45.54723" lon="4.78613">
        <ele>293</ele>
        <time>2013-10-26T11:07:08Z</time>
      </trkpt>
      <trkpt lat="45.54723" lon="4.78613">
        <ele>293</ele>
        <time>2013-10-26T11:07:09Z</time>
      </trkpt>
      <trkpt lat="45.54723" lon="4.78613">
        <ele>293</ele>
        <time>2013-10-26T11:07:10Z</time>
      </trkpt>
      <trkpt lat="45.54723" lon="4.78613">
        <ele>293</ele>
        <time>2013-10-26T11:07:13Z</time>
      </trkpt>
      <trkpt lat="45.54722" lon="4.78613">
        <ele>293</ele>
        <time>2013-10-26T11:07:14Z</time>
      </trkpt>
      <trkpt lat="45.54716" lon="4.78605">
        <ele>293</ele>
        <time>2013-10-26T11:07:24Z</time>
      </trkpt>
      <trkpt lat="45.54715" lon="4.78605">
        <ele>293</ele>
        <time>2013-10-26T11:07:25Z</time>
      </trkpt>
      <trkpt lat="45.54715" lon="4.78604">
        <ele>293</ele>
        <time>2013-10-26T11:07:28Z</time>
      </trkpt>
      <trkpt lat="45.54715" lon="4.78604">
        <ele>293</ele>
        <time>2013-10-26T11:07:29Z</time>
      </trkpt>
      <trkpt lat="45.54714" lon="4.78603">
        <ele>293</ele>
        <time>2013-10-26T11:07:30Z</time>
      </trkpt>
      <trkpt lat="45.54713" lon="4.78601">
        <ele>293</ele>
        <time>2013-10-26T11:07:36Z</time>
      </trkpt>
      <trkpt lat="45.54713" lon="4.786">
        <ele>293</ele>
        <time>2013-10-26T11:07:37Z</time>
      </trkpt>
      <trkpt lat="45.54713" lon="4.786">
        <ele>293</ele>
        <time>2013-10-26T11:07:38Z</time>
      </trkpt>
      <trkpt lat="45.54712" lon="4.78599">
        <ele>293</ele>
        <time>2013-10-26T11:07:44Z</time>
      </trkpt>
      <trkpt lat="45.54712" lon="4.78599">
        <ele>293</ele>
        <time>2013-10-26T11:07:45Z</time>
      </trkpt>
      <trkpt lat="45.54712" lon="4.78599">
        <ele>293</ele>
        <time>2013-10-26T11:07:46Z</time>
      </trkpt>
      <trkpt lat="45.54712" lon="4.78598">
        <ele>293</ele>
        <time>2013-10-26T11:07:47Z</time>
      </trkpt>
      <trkpt lat="45.54712" lon="4.78598">
        <ele>293</ele>
        <time>2013-10-26T11:07:48Z</time>
      </trkpt>
      <trkpt lat="45.54712" lon="4.78598">
        <ele>293</ele>
        <time>2013-10-26T11:07:50Z</time>
      </trkpt>
      <trkpt lat="45.54711" lon="4.78598">
        <ele>293</ele>
        <time>2013-10-26T11:07:51Z</time>
      </trkpt>
      <trkpt lat="45.54708" lon="4.78586">
        <ele>293</ele>
        <time>2013-10-26T11:08:02Z</time>
      </trkpt>
      <trkpt lat="45.54708" lon="4.78586">
        <ele>293</ele>
        <time>2013-10-26T11:08:03Z</time>
      </trkpt>
      <trkpt lat="45.54703" lon="4.78583">
        <ele>295</ele>
        <time>2013-10-26T11:08:14Z</time>
      </trkpt>
      <trkpt lat="45.54703" lon="4.78583">
        <ele>295</ele>
        <time>2013-10-26T11:08:15Z</time>
      </trkpt>
      <trkpt lat="45.54702" lon="4.78583">
        <ele>295</ele>
        <time>2013-10-26T11:08:16Z</time>
      </trkpt>
      <trkpt lat="45.54701" lon="4.7858">
        <ele>295</ele>
        <time>2013-10-26T11:08:17Z</time>
      </trkpt>
      <trkpt lat="45.54698" lon="4.78578">
        <ele>295</ele>
        <time>2013-10-26T11:08:26Z</time>
      </trkpt>
      <trkpt lat="45.54697" lon="4.78578">
        <ele>295</ele>
        <time>2013-10-26T11:08:27Z</time>
      </trkpt>
      <trkpt lat="45.54697" lon="4.78578">
        <ele>295</ele>
        <time>2013-10-26T11:08:30Z</time>
      </trkpt>
      <trkpt lat="45.54697" lon="4.78578">
        <ele>295</ele>
        <time>2013-10-26T11:08:31Z</time>
      </trkpt>
      <trkpt lat="45.54697" lon="4.78578">
        <ele>295</ele>
        <time>2013-10-26T11:08:32Z</time>
      </trkpt>
      <trkpt lat="45.54697" lon="4.78578">
        <ele>295</ele>
        <time>2013-10-26T11:08:35Z</time>
      </trkpt>
      <trkpt lat="45.54696" lon="4.78578">
        <ele>295</ele>
        <time>2013-10-26T11:08:36Z</time>
      </trkpt>
      <trkpt lat="45.54696" lon="4.78578">
        <ele>295</ele>
        <time>2013-10-26T11:08:37Z</time>
      </trkpt>
      <trkpt lat="45.54696" lon="4.78578">
        <ele>295</ele>
        <time>2013-10-26T11:08:38Z</time>
      </trkpt>
      <trkpt lat="45.54695" lon="4.78579">
        <ele>295</ele>
        <time>2013-10-26T11:08:41Z</time>
      </trkpt>
      <trkpt lat="45.54695" lon="4.78579">
        <ele>295</ele>
        <time>2013-10-26T11:08:42Z</time>
      </trkpt>
      <trkpt lat="45.54695" lon="4.78578">
        <ele>295</ele>
        <time>2013-10-26T11:08:43Z</time>
      </trkpt>
      <trkpt lat="45.54695" lon="4.78578">
        <ele>295</ele>
        <time>2013-10-26T11:08:45Z</time>
      </trkpt>
      <trkpt lat="45.54695" lon="4.78578">
        <ele>295</ele>
        <time>2013-10-26T11:08:46Z</time>
      </trkpt>
      <trkpt lat="45.54695" lon="4.78578">
        <ele>295</ele>
        <time>2013-10-26T11:09:10Z</time>
      </trkpt>
      <trkpt lat="45.54695" lon="4.78579">
        <ele>295</ele>
        <time>2013-10-26T11:09:11Z</time>
      </trkpt>
      <trkpt lat="45.54694" lon="4.7859">
        <ele>293</ele>
        <time>2013-10-26T11:09:22Z</time>
      </trkpt>
      <trkpt lat="45.54693" lon="4.78592">
        <ele>293</ele>
        <time>2013-10-26T11:09:23Z</time>
      </trkpt>
      <trkpt lat="45.54692" lon="4.78602">
        <ele>293</ele>
        <time>2013-10-26T11:09:27Z</time>
      </trkpt>
      <trkpt lat="45.54692" lon="4.78605">
        <ele>293</ele>
        <time>2013-10-26T11:09:28Z</time>
      </trkpt>
      <trkpt lat="45.54689" lon="4.78617">
        <ele>293</ele>
        <time>2013-10-26T11:09:34Z</time>
      </trkpt>
      <trkpt lat="45.5469" lon="4.78619">
        <ele>293</ele>
        <time>2013-10-26T11:09:35Z</time>
      </trkpt>
      <trkpt lat="45.54693" lon="4.78629">
        <ele>293</ele>
        <time>2013-10-26T11:09:37Z</time>
      </trkpt>
      <trkpt lat="45.54695" lon="4.78637">
        <ele>294</ele>
        <time>2013-10-26T11:09:38Z</time>
      </trkpt>
      <trkpt lat="45.54701" lon="4.78646">
        <ele>293</ele>
        <time>2013-10-26T11:09:41Z</time>
      </trkpt>
      <trkpt lat="45.54701" lon="4.78649">
        <ele>294</ele>
        <time>2013-10-26T11:09:42Z</time>
      </trkpt>
      <trkpt lat="45.54705" lon="4.78659">
        <ele>293</ele>
        <time>2013-10-26T11:09:52Z</time>
      </trkpt>
      <trkpt lat="45.54706" lon="4.78661">
        <ele>293</ele>
        <time>2013-10-26T11:09:53Z</time>
      </trkpt>
      <trkpt lat="45.54711" lon="4.7867">
        <ele>296</ele>
        <time>2013-10-26T11:09:59Z</time>
      </trkpt>
      <trkpt lat="45.54714" lon="4.78672">
        <ele>296</ele>
        <time>2013-10-26T11:10:00Z</time>
      </trkpt>
      <trkpt lat="45.5472" lon="4.78676">
        <ele>295</ele>
        <time>2013-10-26T11:10:03Z</time>
      </trkpt>
      <trkpt lat="45.54723" lon="4.78678">
        <ele>295</ele>
        <time>2013-10-26T11:10:04Z</time>
      </trkpt>
      <trkpt lat="45.54729" lon="4.78682">
        <ele>294</ele>
        <time>2013-10-26T11:10:06Z</time>
      </trkpt>
      <trkpt lat="45.54732" lon="4.78684">
        <ele>294</ele>
        <time>2013-10-26T11:10:07Z</time>
      </trkpt>
      <trkpt lat="45.54738" lon="4.78687">
        <ele>294</ele>
        <time>2013-10-26T11:10:09Z</time>
      </trkpt>
      <trkpt lat="45.5474" lon="4.78689">
        <ele>293</ele>
        <time>2013-10-26T11:10:10Z</time>
      </trkpt>
      <trkpt lat="45.54748" lon="4.78694">
        <ele>294</ele>
        <time>2013-10-26T11:10:13Z</time>
      </trkpt>
      <trkpt lat="45.5475" lon="4.78697">
        <ele>291</ele>
        <time>2013-10-26T11:10:14Z</time>
      </trkpt>
      <trkpt lat="45.54755" lon="4.78702">
        <ele>291</ele>
        <time>2013-10-26T11:10:16Z</time>
      </trkpt>
      <trkpt lat="45.54759" lon="4.78704">
        <ele>292</ele>
        <time>2013-10-26T11:10:17Z</time>
      </trkpt>
      <trkpt lat="45.54765" lon="4.78711">
        <ele>292</ele>
        <time>2013-10-26T11:10:19Z</time>
      </trkpt>
      <trkpt lat="45.54769" lon="4.78714">
        <ele>292</ele>
        <time>2013-10-26T11:10:20Z</time>
      </trkpt>
      <trkpt lat="45.54773" lon="4.78717">
        <ele>292</ele>
        <time>2013-10-26T11:10:21Z</time>
      </trkpt>
      <trkpt lat="45.54777" lon="4.78722">
        <ele>292</ele>
        <time>2013-10-26T11:10:22Z</time>
      </trkpt>
      <trkpt lat="45.54782" lon="4.78724">
        <ele>292</ele>
        <time>2013-10-26T11:10:23Z</time>
      </trkpt>
      <trkpt lat="45.54788" lon="4.78728">
        <ele>292</ele>
        <time>2013-10-26T11:10:24Z</time>
      </trkpt>
      <trkpt lat="45.54793" lon="4.78733">
        <ele>292</ele>
        <time>2013-10-26T11:10:25Z</time>
      </trkpt>
      <trkpt lat="45.54797" lon="4.78734">
        <ele>292</ele>
        <time>2013-10-26T11:10:26Z</time>
      </trkpt>
      <trkpt lat="45.54805" lon="4.78738">
        <ele>292</ele>
        <time>2013-10-26T11:10:28Z</time>
      </trkpt>
      <trkpt lat="45.54807" lon="4.7874">
        <ele>292</ele>
        <time>2013-10-26T11:10:29Z</time>
      </trkpt>
      <trkpt lat="45.54814" lon="4.78748">
        <ele>292</ele>
        <time>2013-10-26T11:10:36Z</time>
      </trkpt>
      <trkpt lat="45.54817" lon="4.78749">
        <ele>291</ele>
        <time>2013-10-26T11:10:37Z</time>
      </trkpt>
      <trkpt lat="45.54824" lon="4.78749">
        <ele>291</ele>
        <time>2013-10-26T11:10:39Z</time>
      </trkpt>
      <trkpt lat="45.54828" lon="4.7875">
        <ele>292</ele>
        <time>2013-10-26T11:10:40Z</time>
      </trkpt>
      <trkpt lat="45.54833" lon="4.78752">
        <ele>291</ele>
        <time>2013-10-26T11:10:41Z</time>
      </trkpt>
      <trkpt lat="45.54838" lon="4.78754">
        <ele>291</ele>
        <time>2013-10-26T11:10:42Z</time>
      </trkpt>
      <trkpt lat="45.54845" lon="4.78756">
        <ele>291</ele>
        <time>2013-10-26T11:10:43Z</time>
      </trkpt>
      <trkpt lat="45.54852" lon="4.78758">
        <ele>291</ele>
        <time>2013-10-26T11:10:44Z</time>
      </trkpt>
      <trkpt lat="45.54857" lon="4.78759">
        <ele>291</ele>
        <time>2013-10-26T11:10:45Z</time>
      </trkpt>
      <trkpt lat="45.54861" lon="4.7876">
        <ele>292</ele>
        <time>2013-10-26T11:10:46Z</time>
      </trkpt>
      <trkpt lat="45.54867" lon="4.78763">
        <ele>291</ele>
        <time>2013-10-26T11:10:47Z</time>
      </trkpt>
      <trkpt lat="45.54873" lon="4.78767">
        <ele>291</ele>
        <time>2013-10-26T11:10:48Z</time>
      </trkpt>
      <trkpt lat="45.54877" lon="4.78769">
        <ele>291</ele>
        <time>2013-10-26T11:10:49Z</time>
      </trkpt>
      <trkpt lat="45.54881" lon="4.78775">
        <ele>292</ele>
        <time>2013-10-26T11:10:50Z</time>
      </trkpt>
      <trkpt lat="45.54886" lon="4.78776">
        <ele>291</ele>
        <time>2013-10-26T11:10:51Z</time>
      </trkpt>
      <trkpt lat="45.54891" lon="4.78777">
        <ele>291</ele>
        <time>2013-10-26T11:10:52Z</time>
      </trkpt>
      <trkpt lat="45.54899" lon="4.7878">
        <ele>291</ele>
        <time>2013-10-26T11:10:54Z</time>
      </trkpt>
      <trkpt lat="45.54901" lon="4.78781">
        <ele>291</ele>
        <time>2013-10-26T11:10:55Z</time>
      </trkpt>
      <trkpt lat="45.54908" lon="4.78786">
        <ele>291</ele>
        <time>2013-10-26T11:10:57Z</time>
      </trkpt>
      <trkpt lat="45.5491" lon="4.78787">
        <ele>291</ele>
        <time>2013-10-26T11:10:58Z</time>
      </trkpt>
      <trkpt lat="45.54917" lon="4.78792">
        <ele>288</ele>
        <time>2013-10-26T11:11:00Z</time>
      </trkpt>
      <trkpt lat="45.54922" lon="4.78793">
        <ele>288</ele>
        <time>2013-10-26T11:11:01Z</time>
      </trkpt>
      <trkpt lat="45.54928" lon="4.78796">
        <ele>288</ele>
        <time>2013-10-26T11:11:03Z</time>
      </trkpt>
      <trkpt lat="45.54932" lon="4.78798">
        <ele>288</ele>
        <time>2013-10-26T11:11:04Z</time>
      </trkpt>
      <trkpt lat="45.54937" lon="4.78802">
        <ele>288</ele>
        <time>2013-10-26T11:11:05Z</time>
      </trkpt>
      <trkpt lat="45.5494" lon="4.78804">
        <ele>287</ele>
        <time>2013-10-26T11:11:06Z</time>
      </trkpt>
      <trkpt lat="45.54948" lon="4.78809">
        <ele>287</ele>
        <time>2013-10-26T11:11:11Z</time>
      </trkpt>
      <trkpt lat="45.54952" lon="4.7881">
        <ele>287</ele>
        <time>2013-10-26T11:11:12Z</time>
      </trkpt>
      <trkpt lat="45.54957" lon="4.78816">
        <ele>287</ele>
        <time>2013-10-26T11:11:16Z</time>
      </trkpt>
      <trkpt lat="45.54959" lon="4.78818">
        <ele>287</ele>
        <time>2013-10-26T11:11:17Z</time>
      </trkpt>
      <trkpt lat="45.54964" lon="4.78819">
        <ele>287</ele>
        <time>2013-10-26T11:11:20Z</time>
      </trkpt>
      <trkpt lat="45.54968" lon="4.78819">
        <ele>287</ele>
        <time>2013-10-26T11:11:21Z</time>
      </trkpt>
      <trkpt lat="45.54975" lon="4.78823">
        <ele>286</ele>
        <time>2013-10-26T11:11:24Z</time>
      </trkpt>
      <trkpt lat="45.54977" lon="4.78822">
        <ele>286</ele>
        <time>2013-10-26T11:11:25Z</time>
      </trkpt>
      <trkpt lat="45.54984" lon="4.78827">
        <ele>286</ele>
        <time>2013-10-26T11:11:30Z</time>
      </trkpt>
      <trkpt lat="45.54986" lon="4.78831">
        <ele>285</ele>
        <time>2013-10-26T11:11:31Z</time>
      </trkpt>
      <trkpt lat="45.54994" lon="4.78834">
        <ele>287</ele>
        <time>2013-10-26T11:11:34Z</time>
      </trkpt>
      <trkpt lat="45.54998" lon="4.78838">
        <ele>286</ele>
        <time>2013-10-26T11:11:35Z</time>
      </trkpt>
      <trkpt lat="45.55004" lon="4.78846">
        <ele>286</ele>
        <time>2013-10-26T11:11:38Z</time>
      </trkpt>
      <trkpt lat="45.55005" lon="4.78846">
        <ele>286</ele>
        <time>2013-10-26T11:11:39Z</time>
      </trkpt>
      <trkpt lat="45.55013" lon="4.78848">
        <ele>287</ele>
        <time>2013-10-26T11:11:43Z</time>
      </trkpt>
      <trkpt lat="45.55014" lon="4.78848">
        <ele>287</ele>
        <time>2013-10-26T11:11:44Z</time>
      </trkpt>
      <trkpt lat="45.55021" lon="4.78851">
        <ele>287</ele>
        <time>2013-10-26T11:11:48Z</time>
      </trkpt>
      <trkpt lat="45.55023" lon="4.78851">
        <ele>287</ele>
        <time>2013-10-26T11:11:49Z</time>
      </trkpt>
      <trkpt lat="45.5503" lon="4.78852">
        <ele>287</ele>
        <time>2013-10-26T11:11:51Z</time>
      </trkpt>
      <trkpt lat="45.55035" lon="4.78852">
        <ele>287</ele>
        <time>2013-10-26T11:11:52Z</time>
      </trkpt>
      <trkpt lat="45.55043" lon="4.78853">
        <ele>286</ele>
        <time>2013-10-26T11:11:54Z</time>
      </trkpt>
      <trkpt lat="45.55047" lon="4.78855">
        <ele>286</ele>
        <time>2013-10-26T11:11:55Z</time>
      </trkpt>
      <trkpt lat="45.55052" lon="4.78855">
        <ele>286</ele>
        <time>2013-10-26T11:11:56Z</time>
      </trkpt>
      <trkpt lat="45.55057" lon="4.78854">
        <ele>285</ele>
        <time>2013-10-26T11:11:57Z</time>
      </trkpt>
      <trkpt lat="45.55061" lon="4.78855">
        <ele>285</ele>
        <time>2013-10-26T11:11:58Z</time>
      </trkpt>
      <trkpt lat="45.55066" lon="4.78858">
        <ele>285</ele>
        <time>2013-10-26T11:11:59Z</time>
      </trkpt>
      <trkpt lat="45.55074" lon="4.78858">
        <ele>285</ele>
        <time>2013-10-26T11:12:01Z</time>
      </trkpt>
      <trkpt lat="45.55078" lon="4.7886">
        <ele>285</ele>
        <time>2013-10-26T11:12:02Z</time>
      </trkpt>
      <trkpt lat="45.55085" lon="4.78862">
        <ele>281</ele>
        <time>2013-10-26T11:12:04Z</time>
      </trkpt>
      <trkpt lat="45.5509" lon="4.78864">
        <ele>282</ele>
        <time>2013-10-26T11:12:05Z</time>
      </trkpt>
      <trkpt lat="45.55097" lon="4.78867">
        <ele>282</ele>
        <time>2013-10-26T11:12:06Z</time>
      </trkpt>
      <trkpt lat="45.55103" lon="4.7887">
        <ele>282</ele>
        <time>2013-10-26T11:12:07Z</time>
      </trkpt>
      <trkpt lat="45.55107" lon="4.78874">
        <ele>282</ele>
        <time>2013-10-26T11:12:08Z</time>
      </trkpt>
      <trkpt lat="45.55113" lon="4.78877">
        <ele>282</ele>
        <time>2013-10-26T11:12:09Z</time>
      </trkpt>
      <trkpt lat="45.55118" lon="4.7888">
        <ele>282</ele>
        <time>2013-10-26T11:12:11Z</time>
      </trkpt>
      <trkpt lat="45.55123" lon="4.78883">
        <ele>282</ele>
        <time>2013-10-26T11:12:12Z</time>
      </trkpt>
      <trkpt lat="45.55129" lon="4.78889">
        <ele>282</ele>
        <time>2013-10-26T11:12:14Z</time>
      </trkpt>
      <trkpt lat="45.55132" lon="4.78893">
        <ele>281</ele>
        <time>2013-10-26T11:12:15Z</time>
      </trkpt>
      <trkpt lat="45.55138" lon="4.789">
        <ele>281</ele>
        <time>2013-10-26T11:12:17Z</time>
      </trkpt>
      <trkpt lat="45.5514" lon="4.78901">
        <ele>280</ele>
        <time>2013-10-26T11:12:18Z</time>
      </trkpt>
      <trkpt lat="45.55148" lon="4.78904">
        <ele>279</ele>
        <time>2013-10-26T11:12:25Z</time>
      </trkpt>
      <trkpt lat="45.5515" lon="4.78904">
        <ele>279</ele>
        <time>2013-10-26T11:12:26Z</time>
      </trkpt>
      <trkpt lat="45.55156" lon="4.78912">
        <ele>277</ele>
        <time>2013-10-26T11:12:32Z</time>
      </trkpt>
      <trkpt lat="45.55157" lon="4.78913">
        <ele>277</ele>
        <time>2013-10-26T11:12:33Z</time>
      </trkpt>
      <trkpt lat="45.55162" lon="4.78921">
        <ele>277</ele>
        <time>2013-10-26T11:12:46Z</time>
      </trkpt>
      <trkpt lat="45.55162" lon="4.78921">
        <ele>277</ele>
        <time>2013-10-26T11:12:47Z</time>
      </trkpt>
      <trkpt lat="45.55162" lon="4.78921">
        <ele>277</ele>
        <time>2013-10-26T11:12:56Z</time>
      </trkpt>
      <trkpt lat="45.55162" lon="4.78924">
        <ele>278</ele>
        <time>2013-10-26T11:12:57Z</time>
      </trkpt>
      <trkpt lat="45.55167" lon="4.78927">
        <ele>278</ele>
        <time>2013-10-26T11:13:06Z</time>
      </trkpt>
      <trkpt lat="45.55167" lon="4.78927">
        <ele>276</ele>
        <time>2013-10-26T11:13:07Z</time>
      </trkpt>
      <trkpt lat="45.55167" lon="4.78927">
        <ele>276</ele>
        <time>2013-10-26T11:13:13Z</time>
      </trkpt>
      <trkpt lat="45.55166" lon="4.78928">
        <ele>278</ele>
        <time>2013-10-26T11:13:14Z</time>
      </trkpt>
      <trkpt lat="45.55165" lon="4.78926">
        <ele>278</ele>
        <time>2013-10-26T11:13:20Z</time>
      </trkpt>
      <trkpt lat="45.55165" lon="4.78926">
        <ele>278</ele>
        <time>2013-10-26T11:13:21Z</time>
      </trkpt>
      <trkpt lat="45.55165" lon="4.78927">
        <ele>278</ele>
        <time>2013-10-26T11:13:25Z</time>
      </trkpt>
      <trkpt lat="45.55165" lon="4.78926">
        <ele>278</ele>
        <time>2013-10-26T11:13:26Z</time>
      </trkpt>
      <trkpt lat="45.55171" lon="4.78932">
        <ele>276</ele>
        <time>2013-10-26T11:13:35Z</time>
      </trkpt>
      <trkpt lat="45.55172" lon="4.78935">
        <ele>277</ele>
        <time>2013-10-26T11:13:36Z</time>
      </trkpt>
      <trkpt lat="45.55178" lon="4.78942">
        <ele>278</ele>
        <time>2013-10-26T11:13:40Z</time>
      </trkpt>
      <trkpt lat="45.5518" lon="4.78943">
        <ele>278</ele>
        <time>2013-10-26T11:13:41Z</time>
      </trkpt>
      <trkpt lat="45.55188" lon="4.7895">
        <ele>278</ele>
        <time>2013-10-26T11:13:46Z</time>
      </trkpt>
      <trkpt lat="45.55188" lon="4.78951">
        <ele>278</ele>
        <time>2013-10-26T11:13:47Z</time>
      </trkpt>
      <trkpt lat="45.55193" lon="4.78959">
        <ele>278</ele>
        <time>2013-10-26T11:13:50Z</time>
      </trkpt>
      <trkpt lat="45.55196" lon="4.78963">
        <ele>279</ele>
        <time>2013-10-26T11:13:51Z</time>
      </trkpt>
      <trkpt lat="45.55202" lon="4.78971">
        <ele>279</ele>
        <time>2013-10-26T11:13:55Z</time>
      </trkpt>
      <trkpt lat="45.55203" lon="4.78973">
        <ele>279</ele>
        <time>2013-10-26T11:13:56Z</time>
      </trkpt>
      <trkpt lat="45.55206" lon="4.78977">
        <ele>279</ele>
        <time>2013-10-26T11:13:58Z</time>
      </trkpt>
      <trkpt lat="45.55206" lon="4.78977">
        <ele>279</ele>
        <time>2013-10-26T11:13:59Z</time>
      </trkpt>
      <trkpt lat="45.55206" lon="4.78977">
        <ele>279</ele>
        <time>2013-10-26T11:14:01Z</time>
      </trkpt>
      <trkpt lat="45.55206" lon="4.78977">
        <ele>279</ele>
        <time>2013-10-26T11:14:02Z</time>
      </trkpt>
      <trkpt lat="45.55211" lon="4.78984">
        <ele>278</ele>
        <time>2013-10-26T11:14:07Z</time>
      </trkpt>
      <trkpt lat="45.55215" lon="4.7899">
        <ele>278</ele>
        <time>2013-10-26T11:14:08Z</time>
      </trkpt>
      <trkpt lat="45.5522" lon="4.78999">
        <ele>278</ele>
        <time>2013-10-26T11:14:10Z</time>
      </trkpt>
      <trkpt lat="45.55222" lon="4.79004">
        <ele>278</ele>
        <time>2013-10-26T11:14:11Z</time>
      </trkpt>
      <trkpt lat="45.55225" lon="4.79013">
        <ele>278</ele>
        <time>2013-10-26T11:14:13Z</time>
      </trkpt>
      <trkpt lat="45.55226" lon="4.79018">
        <ele>278</ele>
        <time>2013-10-26T11:14:14Z</time>
      </trkpt>
      <trkpt lat="45.55231" lon="4.79028">
        <ele>277</ele>
        <time>2013-10-26T11:14:17Z</time>
      </trkpt>
      <trkpt lat="45.55235" lon="4.79031">
        <ele>277</ele>
        <time>2013-10-26T11:14:18Z</time>
      </trkpt>
      <trkpt lat="45.55239" lon="4.79039">
        <ele>277</ele>
        <time>2013-10-26T11:14:21Z</time>
      </trkpt>
      <trkpt lat="45.5524" lon="4.79041">
        <ele>277</ele>
        <time>2013-10-26T11:14:22Z</time>
      </trkpt>
      <trkpt lat="45.55246" lon="4.79048">
        <ele>276</ele>
        <time>2013-10-26T11:14:26Z</time>
      </trkpt>
      <trkpt lat="45.55248" lon="4.79049">
        <ele>276</ele>
        <time>2013-10-26T11:14:27Z</time>
      </trkpt>
      <trkpt lat="45.55257" lon="4.79052">
        <ele>274</ele>
        <time>2013-10-26T11:14:35Z</time>
      </trkpt>
      <trkpt lat="45.55257" lon="4.79052">
        <ele>274</ele>
        <time>2013-10-26T11:14:36Z</time>
      </trkpt>
      <trkpt lat="45.55265" lon="4.79056">
        <ele>274</ele>
        <time>2013-10-26T11:14:42Z</time>
      </trkpt>
      <trkpt lat="45.55269" lon="4.79056">
        <ele>274</ele>
        <time>2013-10-26T11:14:43Z</time>
      </trkpt>
      <trkpt lat="45.55276" lon="4.79063">
        <ele>274</ele>
        <time>2013-10-26T11:14:46Z</time>
      </trkpt>
      <trkpt lat="45.55278" lon="4.79066">
        <ele>274</ele>
        <time>2013-10-26T11:14:47Z</time>
      </trkpt>
      <trkpt lat="45.55286" lon="4.7907">
        <ele>275</ele>
        <time>2013-10-26T11:14:52Z</time>
      </trkpt>
      <trkpt lat="45.55288" lon="4.79071">
        <ele>275</ele>
        <time>2013-10-26T11:14:53Z</time>
      </trkpt>
      <trkpt lat="45.55296" lon="4.79074">
        <ele>275</ele>
        <time>2013-10-26T11:14:58Z</time>
      </trkpt>
      <trkpt lat="45.55298" lon="4.79075">
        <ele>275</ele>
        <time>2013-10-26T11:14:59Z</time>
      </trkpt>
      <trkpt lat="45.55304" lon="4.79077">
        <ele>275</ele>
        <time>2013-10-26T11:15:02Z</time>
      </trkpt>
      <trkpt lat="45.55307" lon="4.7908">
        <ele>275</ele>
        <time>2013-10-26T11:15:03Z</time>
      </trkpt>
      <trkpt lat="45.55313" lon="4.79083">
        <ele>275</ele>
        <time>2013-10-26T11:15:06Z</time>
      </trkpt>
      <trkpt lat="45.55317" lon="4.79084">
        <ele>271</ele>
        <time>2013-10-26T11:15:07Z</time>
      </trkpt>
      <trkpt lat="45.55321" lon="4.7909">
        <ele>271</ele>
        <time>2013-10-26T11:15:08Z</time>
      </trkpt>
      <trkpt lat="45.55325" lon="4.79092">
        <ele>272</ele>
        <time>2013-10-26T11:15:09Z</time>
      </trkpt>
      <trkpt lat="45.55331" lon="4.79098">
        <ele>271</ele>
        <time>2013-10-26T11:15:12Z</time>
      </trkpt>
      <trkpt lat="45.55333" lon="4.79099">
        <ele>271</ele>
        <time>2013-10-26T11:15:13Z</time>
      </trkpt>
      <trkpt lat="45.55342" lon="4.79102">
        <ele>274</ele>
        <time>2013-10-26T11:15:17Z</time>
      </trkpt>
      <trkpt lat="45.55345" lon="4.79105">
        <ele>274</ele>
        <time>2013-10-26T11:15:18Z</time>
      </trkpt>
      <trkpt lat="45.55352" lon="4.7911">
        <ele>275</ele>
        <time>2013-10-26T11:15:21Z</time>
      </trkpt>
      <trkpt lat="45.55353" lon="4.79111">
        <ele>275</ele>
        <time>2013-10-26T11:15:22Z</time>
      </trkpt>
      <trkpt lat="45.55359" lon="4.79119">
        <ele>275</ele>
        <time>2013-10-26T11:15:28Z</time>
      </trkpt>
      <trkpt lat="45.5536" lon="4.79121">
        <ele>275</ele>
        <time>2013-10-26T11:15:29Z</time>
      </trkpt>
      <trkpt lat="45.55365" lon="4.79128">
        <ele>275</ele>
        <time>2013-10-26T11:15:37Z</time>
      </trkpt>
      <trkpt lat="45.55367" lon="4.79129">
        <ele>275</ele>
        <time>2013-10-26T11:15:38Z</time>
      </trkpt>
      <trkpt lat="45.55369" lon="4.79139">
        <ele>274</ele>
        <time>2013-10-26T11:15:41Z</time>
      </trkpt>
      <trkpt lat="45.55373" lon="4.79145">
        <ele>274</ele>
        <time>2013-10-26T11:15:42Z</time>
      </trkpt>
      <trkpt lat="45.55375" lon="4.7915">
        <ele>274</ele>
        <time>2013-10-26T11:15:43Z</time>
      </trkpt>
      <trkpt lat="45.55381" lon="4.79155">
        <ele>275</ele>
        <time>2013-10-26T11:15:44Z</time>
      </trkpt>
      <trkpt lat="45.55387" lon="4.79164">
        <ele>276</ele>
        <time>2013-10-26T11:15:47Z</time>
      </trkpt>
      <trkpt lat="45.55389" lon="4.79166">
        <ele>276</ele>
        <time>2013-10-26T11:15:48Z</time>
      </trkpt>
      <trkpt lat="45.55392" lon="4.79176">
        <ele>271</ele>
        <time>2013-10-26T11:15:53Z</time>
      </trkpt>
      <trkpt lat="45.55392" lon="4.79179">
        <ele>271</ele>
        <time>2013-10-26T11:15:54Z</time>
      </trkpt>
      <trkpt lat="45.55397" lon="4.79187">
        <ele>271</ele>
        <time>2013-10-26T11:16:02Z</time>
      </trkpt>
      <trkpt lat="45.55398" lon="4.7919">
        <ele>271</ele>
        <time>2013-10-26T11:16:03Z</time>
      </trkpt>
      <trkpt lat="45.55406" lon="4.79197">
        <ele>271</ele>
        <time>2013-10-26T11:16:06Z</time>
      </trkpt>
      <trkpt lat="45.55408" lon="4.792">
        <ele>271</ele>
        <time>2013-10-26T11:16:07Z</time>
      </trkpt>
      <trkpt lat="45.55414" lon="4.7921">
        <ele>270</ele>
        <time>2013-10-26T11:16:10Z</time>
      </trkpt>
      <trkpt lat="45.55415" lon="4.79211">
        <ele>270</ele>
        <time>2013-10-26T11:16:11Z</time>
      </trkpt>
      <trkpt lat="45.55421" lon="4.7922">
        <ele>276</ele>
        <time>2013-10-26T11:16:16Z</time>
      </trkpt>
      <trkpt lat="45.55423" lon="4.79222">
        <ele>276</ele>
        <time>2013-10-26T11:16:17Z</time>
      </trkpt>
      <trkpt lat="45.55425" lon="4.79226">
        <ele>276</ele>
        <time>2013-10-26T11:16:26Z</time>
      </trkpt>
      <trkpt lat="45.55425" lon="4.79226">
        <ele>276</ele>
        <time>2013-10-26T11:16:27Z</time>
      </trkpt>
      <trkpt lat="45.55425" lon="4.79227">
        <ele>276</ele>
        <time>2013-10-26T11:16:28Z</time>
      </trkpt>
      <trkpt lat="45.55431" lon="4.79234">
        <ele>275</ele>
        <time>2013-10-26T11:16:30Z</time>
      </trkpt>
      <trkpt lat="45.55436" lon="4.79244">
        <ele>275</ele>
        <time>2013-10-26T11:16:31Z</time>
      </trkpt>
      <trkpt lat="45.55443" lon="4.79246">
        <ele>276</ele>
        <time>2013-10-26T11:16:33Z</time>
      </trkpt>
      <trkpt lat="45.55448" lon="4.79248">
        <ele>276</ele>
        <time>2013-10-26T11:16:34Z</time>
      </trkpt>
      <trkpt lat="45.55452" lon="4.7925">
        <ele>271</ele>
        <time>2013-10-26T11:16:35Z</time>
      </trkpt>
      <trkpt lat="45.55459" lon="4.79254">
        <ele>272</ele>
        <time>2013-10-26T11:16:36Z</time>
      </trkpt>
      <trkpt lat="45.55463" lon="4.79256">
        <ele>272</ele>
        <time>2013-10-26T11:16:37Z</time>
      </trkpt>
      <trkpt lat="45.55468" lon="4.79259">
        <ele>272</ele>
        <time>2013-10-26T11:16:38Z</time>
      </trkpt>
      <trkpt lat="45.55475" lon="4.79257">
        <ele>273</ele>
        <time>2013-10-26T11:16:40Z</time>
      </trkpt>
      <trkpt lat="45.55478" lon="4.79256">
        <ele>273</ele>
        <time>2013-10-26T11:16:41Z</time>
      </trkpt>
      <trkpt lat="45.55485" lon="4.79251">
        <ele>275</ele>
        <time>2013-10-26T11:16:43Z</time>
      </trkpt>
      <trkpt lat="45.55489" lon="4.79249">
        <ele>278</ele>
        <time>2013-10-26T11:16:44Z</time>
      </trkpt>
      <trkpt lat="45.55494" lon="4.79242">
        <ele>278</ele>
        <time>2013-10-26T11:16:45Z</time>
      </trkpt>
      <trkpt lat="45.55499" lon="4.79238">
        <ele>279</ele>
        <time>2013-10-26T11:16:46Z</time>
      </trkpt>
      <trkpt lat="45.55503" lon="4.79232">
        <ele>281</ele>
        <time>2013-10-26T11:16:47Z</time>
      </trkpt>
      <trkpt lat="45.55507" lon="4.79229">
        <ele>281</ele>
        <time>2013-10-26T11:16:48Z</time>
      </trkpt>
      <trkpt lat="45.55512" lon="4.79225">
        <ele>281</ele>
        <time>2013-10-26T11:16:49Z</time>
      </trkpt>
      <trkpt lat="45.55515" lon="4.79221">
        <ele>282</ele>
        <time>2013-10-26T11:16:50Z</time>
      </trkpt>
      <trkpt lat="45.55521" lon="4.79216">
        <ele>282</ele>
        <time>2013-10-26T11:16:52Z</time>
      </trkpt>
      <trkpt lat="45.55523" lon="4.79212">
        <ele>282</ele>
        <time>2013-10-26T11:16:53Z</time>
      </trkpt>
      <trkpt lat="45.55529" lon="4.79205">
        <ele>283</ele>
        <time>2013-10-26T11:16:57Z</time>
      </trkpt>
      <trkpt lat="45.55531" lon="4.79204">
        <ele>283</ele>
        <time>2013-10-26T11:16:58Z</time>
      </trkpt>
      <trkpt lat="45.55538" lon="4.79196">
        <ele>283</ele>
        <time>2013-10-26T11:17:02Z</time>
      </trkpt>
      <trkpt lat="45.55539" lon="4.79194">
        <ele>284</ele>
        <time>2013-10-26T11:17:02Z</time>
      </trkpt>
      <trkpt lat="45.55548" lon="4.79194">
        <ele>283</ele>
        <time>2013-10-26T11:17:08Z</time>
      </trkpt>
      <trkpt lat="45.55549" lon="4.79194">
        <ele>283</ele>
        <time>2013-10-26T11:17:09Z</time>
      </trkpt>
      <trkpt lat="45.55556" lon="4.792">
        <ele>283</ele>
        <time>2013-10-26T11:17:13Z</time>
      </trkpt>
      <trkpt lat="45.55558" lon="4.792">
        <ele>283</ele>
        <time>2013-10-26T11:17:14Z</time>
      </trkpt>
      <trkpt lat="45.55565" lon="4.79203">
        <ele>283</ele>
        <time>2013-10-26T11:17:17Z</time>
      </trkpt>
      <trkpt lat="45.55568" lon="4.79205">
        <ele>282</ele>
        <time>2013-10-26T11:17:19Z</time>
      </trkpt>
      <trkpt lat="45.55574" lon="4.79207">
        <ele>282</ele>
        <time>2013-10-26T11:17:20Z</time>
      </trkpt>
      <trkpt lat="45.55578" lon="4.7921">
        <ele>282</ele>
        <time>2013-10-26T11:17:22Z</time>
      </trkpt>
      <trkpt lat="45.55586" lon="4.79215">
        <ele>278</ele>
        <time>2013-10-26T11:17:24Z</time>
      </trkpt>
      <trkpt lat="45.55591" lon="4.79218">
        <ele>277</ele>
        <time>2013-10-26T11:17:25Z</time>
      </trkpt>
      <trkpt lat="45.55599" lon="4.7922">
        <ele>277</ele>
        <time>2013-10-26T11:17:26Z</time>
      </trkpt>
      <trkpt lat="45.55602" lon="4.79221">
        <ele>277</ele>
        <time>2013-10-26T11:17:28Z</time>
      </trkpt>
      <trkpt lat="45.5561" lon="4.79222">
        <ele>277</ele>
        <time>2013-10-26T11:17:30Z</time>
      </trkpt>
      <trkpt lat="45.55616" lon="4.79223">
        <ele>277</ele>
        <time>2013-10-26T11:17:30Z</time>
      </trkpt>
      <trkpt lat="45.5562" lon="4.79223">
        <ele>276</ele>
        <time>2013-10-26T11:17:31Z</time>
      </trkpt>
      <trkpt lat="45.55625" lon="4.79225">
        <ele>276</ele>
        <time>2013-10-26T11:17:33Z</time>
      </trkpt>
      <trkpt lat="45.5563" lon="4.79227">
        <ele>276</ele>
        <time>2013-10-26T11:17:34Z</time>
      </trkpt>
      <trkpt lat="45.55635" lon="4.79228">
        <ele>276</ele>
        <time>2013-10-26T11:17:35Z</time>
      </trkpt>
      <trkpt lat="45.55642" lon="4.79234">
        <ele>275</ele>
        <time>2013-10-26T11:17:36Z</time>
      </trkpt>
      <trkpt lat="45.55649" lon="4.79237">
        <ele>274</ele>
        <time>2013-10-26T11:17:37Z</time>
      </trkpt>
      <trkpt lat="45.55654" lon="4.79239">
        <ele>273</ele>
        <time>2013-10-26T11:17:38Z</time>
      </trkpt>
      <trkpt lat="45.55658" lon="4.79241">
        <ele>273</ele>
        <time>2013-10-26T11:17:39Z</time>
      </trkpt>
      <trkpt lat="45.55664" lon="4.79243">
        <ele>272</ele>
        <time>2013-10-26T11:17:40Z</time>
      </trkpt>
      <trkpt lat="45.55668" lon="4.79244">
        <ele>269</ele>
        <time>2013-10-26T11:17:41Z</time>
      </trkpt>
      <trkpt lat="45.55672" lon="4.79244">
        <ele>269</ele>
        <time>2013-10-26T11:17:42Z</time>
      </trkpt>
      <trkpt lat="45.55677" lon="4.79244">
        <ele>268</ele>
        <time>2013-10-26T11:17:43Z</time>
      </trkpt>
      <trkpt lat="45.55681" lon="4.79245">
        <ele>268</ele>
        <time>2013-10-26T11:17:44Z</time>
      </trkpt>
      <trkpt lat="45.55687" lon="4.79246">
        <ele>267</ele>
        <time>2013-10-26T11:17:45Z</time>
      </trkpt>
      <trkpt lat="45.55695" lon="4.79248">
        <ele>266</ele>
        <time>2013-10-26T11:17:47Z</time>
      </trkpt>
      <trkpt lat="45.55698" lon="4.79248">
        <ele>266</ele>
        <time>2013-10-26T11:17:48Z</time>
      </trkpt>
      <trkpt lat="45.55706" lon="4.79249">
        <ele>265</ele>
        <time>2013-10-26T11:17:50Z</time>
      </trkpt>
      <trkpt lat="45.5571" lon="4.79249">
        <ele>264</ele>
        <time>2013-10-26T11:17:51Z</time>
      </trkpt>
      <trkpt lat="45.55717" lon="4.79256">
        <ele>260</ele>
        <time>2013-10-26T11:17:54Z</time>
      </trkpt>
      <trkpt lat="45.55719" lon="4.79257">
        <ele>260</ele>
        <time>2013-10-26T11:17:55Z</time>
      </trkpt>
      <trkpt lat="45.55727" lon="4.79257">
        <ele>259</ele>
        <time>2013-10-26T11:17:59Z</time>
      </trkpt>
      <trkpt lat="45.55729" lon="4.79257">
        <ele>258</ele>
        <time>2013-10-26T11:18:00Z</time>
      </trkpt>
      <trkpt lat="45.55733" lon="4.79258">
        <ele>258</ele>
        <time>2013-10-26T11:18:02Z</time>
      </trkpt>
      <trkpt lat="45.55739" lon="4.79261">
        <ele>257</ele>
        <time>2013-10-26T11:18:03Z</time>
      </trkpt>
      <trkpt lat="45.55743" lon="4.79262">
        <ele>257</ele>
        <time>2013-10-26T11:18:04Z</time>
      </trkpt>
      <trkpt lat="45.55748" lon="4.79261">
        <ele>256</ele>
        <time>2013-10-26T11:18:05Z</time>
      </trkpt>
      <trkpt lat="45.55756" lon="4.7926">
        <ele>251</ele>
        <time>2013-10-26T11:18:07Z</time>
      </trkpt>
      <trkpt lat="45.55761" lon="4.79258">
        <ele>250</ele>
        <time>2013-10-26T11:18:08Z</time>
      </trkpt>
      <trkpt lat="45.55769" lon="4.79253">
        <ele>249</ele>
        <time>2013-10-26T11:18:10Z</time>
      </trkpt>
      <trkpt lat="45.55774" lon="4.79251">
        <ele>248</ele>
        <time>2013-10-26T11:18:10Z</time>
      </trkpt>
      <trkpt lat="45.55778" lon="4.79243">
        <ele>251</ele>
        <time>2013-10-26T11:18:12Z</time>
      </trkpt>
      <trkpt lat="45.55783" lon="4.79239">
        <ele>251</ele>
        <time>2013-10-26T11:18:13Z</time>
      </trkpt>
      <trkpt lat="45.55787" lon="4.7923">
        <ele>250</ele>
        <time>2013-10-26T11:18:14Z</time>
      </trkpt>
      <trkpt lat="45.55794" lon="4.79223">
        <ele>250</ele>
        <time>2013-10-26T11:18:14Z</time>
      </trkpt>
      <trkpt lat="45.55801" lon="4.79218">
        <ele>250</ele>
        <time>2013-10-26T11:18:15Z</time>
      </trkpt>
      <trkpt lat="45.55807" lon="4.792">
        <ele>251</ele>
        <time>2013-10-26T11:18:17Z</time>
      </trkpt>
      <trkpt lat="45.55813" lon="4.79187">
        <ele>251</ele>
        <time>2013-10-26T11:18:18Z</time>
      </trkpt>
      <trkpt lat="45.5582" lon="4.79176">
        <ele>251</ele>
        <time>2013-10-26T11:18:18Z</time>
      </trkpt>
      <trkpt lat="45.55828" lon="4.79175">
        <ele>251</ele>
        <time>2013-10-26T11:18:22Z</time>
      </trkpt>
      <trkpt lat="45.55833" lon="4.79174">
        <ele>251</ele>
        <time>2013-10-26T11:18:23Z</time>
      </trkpt>
      <trkpt lat="45.55838" lon="4.79173">
        <ele>246</ele>
        <time>2013-10-26T11:18:24Z</time>
      </trkpt>
      <trkpt lat="45.55843" lon="4.79174">
        <ele>244</ele>
        <time>2013-10-26T11:18:25Z</time>
      </trkpt>
      <trkpt lat="45.55847" lon="4.79176">
        <ele>243</ele>
        <time>2013-10-26T11:18:26Z</time>
      </trkpt>
      <trkpt lat="45.55853" lon="4.79176">
        <ele>241</ele>
        <time>2013-10-26T11:18:27Z</time>
      </trkpt>
      <trkpt lat="45.55858" lon="4.79177">
        <ele>239</ele>
        <time>2013-10-26T11:18:28Z</time>
      </trkpt>
      <trkpt lat="45.55864" lon="4.79176">
        <ele>238</ele>
        <time>2013-10-26T11:18:29Z</time>
      </trkpt>
      <trkpt lat="45.5587" lon="4.79178">
        <ele>237</ele>
        <time>2013-10-26T11:18:30Z</time>
      </trkpt>
      <trkpt lat="45.55874" lon="4.7918">
        <ele>236</ele>
        <time>2013-10-26T11:18:31Z</time>
      </trkpt>
      <trkpt lat="45.55878" lon="4.79175">
        <ele>235</ele>
        <time>2013-10-26T11:18:32Z</time>
      </trkpt>
      <trkpt lat="45.55882" lon="4.79168">
        <ele>235</ele>
        <time>2013-10-26T11:18:33Z</time>
      </trkpt>
      <trkpt lat="45.55885" lon="4.79158">
        <ele>239</ele>
        <time>2013-10-26T11:18:34Z</time>
      </trkpt>
      <trkpt lat="45.55889" lon="4.79149">
        <ele>238</ele>
        <time>2013-10-26T11:18:35Z</time>
      </trkpt>
      <trkpt lat="45.55891" lon="4.79143">
        <ele>238</ele>
        <time>2013-10-26T11:18:36Z</time>
      </trkpt>
      <trkpt lat="45.55891" lon="4.79135">
        <ele>239</ele>
        <time>2013-10-26T11:18:36Z</time>
      </trkpt>
      <trkpt lat="45.55894" lon="4.79126">
        <ele>239</ele>
        <time>2013-10-26T11:18:39Z</time>
      </trkpt>
      <trkpt lat="45.55895" lon="4.79117">
        <ele>238</ele>
        <time>2013-10-26T11:18:40Z</time>
      </trkpt>
      <trkpt lat="45.55894" lon="4.7911">
        <ele>238</ele>
        <time>2013-10-26T11:18:40Z</time>
      </trkpt>
      <trkpt lat="45.55895" lon="4.79101">
        <ele>237</ele>
        <time>2013-10-26T11:18:41Z</time>
      </trkpt>
      <trkpt lat="45.55897" lon="4.7909">
        <ele>236</ele>
        <time>2013-10-26T11:18:42Z</time>
      </trkpt>
      <trkpt lat="45.55894" lon="4.79082">
        <ele>236</ele>
        <time>2013-10-26T11:18:44Z</time>
      </trkpt>
      <trkpt lat="45.55893" lon="4.79073">
        <ele>237</ele>
        <time>2013-10-26T11:18:45Z</time>
      </trkpt>
      <trkpt lat="45.55889" lon="4.79066">
        <ele>238</ele>
        <time>2013-10-26T11:18:46Z</time>
      </trkpt>
      <trkpt lat="45.55886" lon="4.79057">
        <ele>238</ele>
        <time>2013-10-26T11:18:47Z</time>
      </trkpt>
      <trkpt lat="45.55883" lon="4.79047">
        <ele>239</ele>
        <time>2013-10-26T11:18:48Z</time>
      </trkpt>
      <trkpt lat="45.5588" lon="4.79037">
        <ele>239</ele>
        <time>2013-10-26T11:18:49Z</time>
      </trkpt>
      <trkpt lat="45.55876" lon="4.79027">
        <ele>240</ele>
        <time>2013-10-26T11:18:50Z</time>
      </trkpt>
      <trkpt lat="45.55875" lon="4.79018">
        <ele>240</ele>
        <time>2013-10-26T11:18:51Z</time>
      </trkpt>
      <trkpt lat="45.55874" lon="4.79011">
        <ele>240</ele>
        <time>2013-10-26T11:18:51Z</time>
      </trkpt>
      <trkpt lat="45.55873" lon="4.78999">
        <ele>238</ele>
        <time>2013-10-26T11:18:54Z</time>
      </trkpt>
      <trkpt lat="45.55873" lon="4.78994">
        <ele>237</ele>
        <time>2013-10-26T11:18:55Z</time>
      </trkpt>
      <trkpt lat="45.55875" lon="4.78982">
        <ele>237</ele>
        <time>2013-10-26T11:19:00Z</time>
      </trkpt>
      <trkpt lat="45.55876" lon="4.7898">
        <ele>237</ele>
        <time>2013-10-26T11:19:00Z</time>
      </trkpt>
      <trkpt lat="45.55872" lon="4.78971">
        <ele>237</ele>
        <time>2013-10-26T11:19:05Z</time>
      </trkpt>
      <trkpt lat="45.55871" lon="4.78969">
        <ele>237</ele>
        <time>2013-10-26T11:19:06Z</time>
      </trkpt>
      <trkpt lat="45.55868" lon="4.78957">
        <ele>238</ele>
        <time>2013-10-26T11:19:11Z</time>
      </trkpt>
      <trkpt lat="45.55868" lon="4.78956">
        <ele>238</ele>
        <time>2013-10-26T11:19:12Z</time>
      </trkpt>
      <trkpt lat="45.55863" lon="4.78946">
        <ele>239</ele>
        <time>2013-10-26T11:19:19Z</time>
      </trkpt>
      <trkpt lat="45.55862" lon="4.78943">
        <ele>239</ele>
        <time>2013-10-26T11:19:19Z</time>
      </trkpt>
      <trkpt lat="45.55857" lon="4.78932">
        <ele>240</ele>
        <time>2013-10-26T11:19:26Z</time>
      </trkpt>
      <trkpt lat="45.55856" lon="4.78929">
        <ele>241</ele>
        <time>2013-10-26T11:19:27Z</time>
      </trkpt>
      <trkpt lat="45.55853" lon="4.78922">
        <ele>242</ele>
        <time>2013-10-26T11:19:31Z</time>
      </trkpt>
      <trkpt lat="45.55849" lon="4.78919">
        <ele>244</ele>
        <time>2013-10-26T11:19:32Z</time>
      </trkpt>
      <trkpt lat="45.55843" lon="4.78911">
        <ele>244</ele>
        <time>2013-10-26T11:19:35Z</time>
      </trkpt>
      <trkpt lat="45.55841" lon="4.78908">
        <ele>243</ele>
        <time>2013-10-26T11:19:36Z</time>
      </trkpt>
      <trkpt lat="45.55837" lon="4.78898">
        <ele>241</ele>
        <time>2013-10-26T11:19:38Z</time>
      </trkpt>
      <trkpt lat="45.55837" lon="4.78895">
        <ele>240</ele>
        <time>2013-10-26T11:19:39Z</time>
      </trkpt>
      <trkpt lat="45.55835" lon="4.78884">
        <ele>238</ele>
        <time>2013-10-26T11:19:43Z</time>
      </trkpt>
      <trkpt lat="45.55833" lon="4.78881">
        <ele>237</ele>
        <time>2013-10-26T11:19:44Z</time>
      </trkpt>
      <trkpt lat="45.55832" lon="4.78875">
        <ele>255</ele>
        <time>2013-10-26T11:19:46Z</time>
      </trkpt>
      <trkpt lat="45.55828" lon="4.7887">
        <ele>255</ele>
        <time>2013-10-26T11:19:47Z</time>
      </trkpt>
      <trkpt lat="45.55824" lon="4.78864">
        <ele>254</ele>
        <time>2013-10-26T11:19:49Z</time>
      </trkpt>
      <trkpt lat="45.55821" lon="4.78859">
        <ele>254</ele>
        <time>2013-10-26T11:19:50Z</time>
      </trkpt>
      <trkpt lat="45.55817" lon="4.78852">
        <ele>253</ele>
        <time>2013-10-26T11:19:52Z</time>
      </trkpt>
      <trkpt lat="45.55815" lon="4.78848">
        <ele>253</ele>
        <time>2013-10-26T11:19:53Z</time>
      </trkpt>
      <trkpt lat="45.5581" lon="4.7884">
        <ele>253</ele>
        <time>2013-10-26T11:19:56Z</time>
      </trkpt>
      <trkpt lat="45.55809" lon="4.78837">
        <ele>253</ele>
        <time>2013-10-26T11:19:57Z</time>
      </trkpt>
      <trkpt lat="45.55808" lon="4.78828">
        <ele>249</ele>
        <time>2013-10-26T11:19:59Z</time>
      </trkpt>
      <trkpt lat="45.55807" lon="4.78823">
        <ele>249</ele>
        <time>2013-10-26T11:20:00Z</time>
      </trkpt>
      <trkpt lat="45.55801" lon="4.78815">
        <ele>251</ele>
        <time>2013-10-26T11:20:01Z</time>
      </trkpt>
      <trkpt lat="45.55799" lon="4.78811">
        <ele>251</ele>
        <time>2013-10-26T11:20:03Z</time>
      </trkpt>
      <trkpt lat="45.55797" lon="4.78804">
        <ele>251</ele>
        <time>2013-10-26T11:20:04Z</time>
      </trkpt>
      <trkpt lat="45.55795" lon="4.78797">
        <ele>251</ele>
        <time>2013-10-26T11:20:05Z</time>
      </trkpt>
      <trkpt lat="45.55792" lon="4.78791">
        <ele>252</ele>
        <time>2013-10-26T11:20:06Z</time>
      </trkpt>
      <trkpt lat="45.55789" lon="4.78782">
        <ele>252</ele>
        <time>2013-10-26T11:20:07Z</time>
      </trkpt>
      <trkpt lat="45.55786" lon="4.78776">
        <ele>252</ele>
        <time>2013-10-26T11:20:09Z</time>
      </trkpt>
      <trkpt lat="45.55781" lon="4.78773">
        <ele>253</ele>
        <time>2013-10-26T11:20:10Z</time>
      </trkpt>
      <trkpt lat="45.55779" lon="4.78765">
        <ele>254</ele>
        <time>2013-10-26T11:20:13Z</time>
      </trkpt>
      <trkpt lat="45.55779" lon="4.78761">
        <ele>254</ele>
        <time>2013-10-26T11:20:14Z</time>
      </trkpt>
      <trkpt lat="45.55781" lon="4.78752">
        <ele>253</ele>
        <time>2013-10-26T11:20:16Z</time>
      </trkpt>
      <trkpt lat="45.55782" lon="4.78747">
        <ele>249</ele>
        <time>2013-10-26T11:20:17Z</time>
      </trkpt>
      <trkpt lat="45.55784" lon="4.78736">
        <ele>248</ele>
        <time>2013-10-26T11:20:19Z</time>
      </trkpt>
      <trkpt lat="45.55782" lon="4.78726">
        <ele>248</ele>
        <time>2013-10-26T11:20:20Z</time>
      </trkpt>
      <trkpt lat="45.55782" lon="4.78717">
        <ele>247</ele>
        <time>2013-10-26T11:20:21Z</time>
      </trkpt>
      <trkpt lat="45.55781" lon="4.78709">
        <ele>247</ele>
        <time>2013-10-26T11:20:22Z</time>
      </trkpt>
      <trkpt lat="45.55778" lon="4.787">
        <ele>247</ele>
        <time>2013-10-26T11:20:23Z</time>
      </trkpt>
      <trkpt lat="45.55776" lon="4.78689">
        <ele>247</ele>
        <time>2013-10-26T11:20:24Z</time>
      </trkpt>
      <trkpt lat="45.55775" lon="4.7868">
        <ele>247</ele>
        <time>2013-10-26T11:20:25Z</time>
      </trkpt>
      <trkpt lat="45.55773" lon="4.7867">
        <ele>248</ele>
        <time>2013-10-26T11:20:26Z</time>
      </trkpt>
      <trkpt lat="45.5577" lon="4.78658">
        <ele>243</ele>
        <time>2013-10-26T11:20:27Z</time>
      </trkpt>
      <trkpt lat="45.55767" lon="4.78649">
        <ele>242</ele>
        <time>2013-10-26T11:20:28Z</time>
      </trkpt>
      <trkpt lat="45.5576" lon="4.78638">
        <ele>241</ele>
        <time>2013-10-26T11:20:29Z</time>
      </trkpt>
      <trkpt lat="45.55755" lon="4.78628">
        <ele>239</ele>
        <time>2013-10-26T11:20:30Z</time>
      </trkpt>
      <trkpt lat="45.5575" lon="4.78621">
        <ele>239</ele>
        <time>2013-10-26T11:20:31Z</time>
      </trkpt>
      <trkpt lat="45.55744" lon="4.78614">
        <ele>256</ele>
        <time>2013-10-26T11:20:32Z</time>
      </trkpt>
      <trkpt lat="45.55739" lon="4.78612">
        <ele>256</ele>
        <time>2013-10-26T11:20:32Z</time>
      </trkpt>
      <trkpt lat="45.55733" lon="4.78611">
        <ele>257</ele>
        <time>2013-10-26T11:20:33Z</time>
      </trkpt>
      <trkpt lat="45.55729" lon="4.78608">
        <ele>257</ele>
        <time>2013-10-26T11:20:34Z</time>
      </trkpt>
      <trkpt lat="45.55722" lon="4.78599">
        <ele>258</ele>
        <time>2013-10-26T11:20:38Z</time>
      </trkpt>
      <trkpt lat="45.5572" lon="4.78598">
        <ele>258</ele>
        <time>2013-10-26T11:20:38Z</time>
      </trkpt>
      <trkpt lat="45.55717" lon="4.7859">
        <ele>258</ele>
        <time>2013-10-26T11:20:43Z</time>
      </trkpt>
      <trkpt lat="45.55716" lon="4.78586">
        <ele>259</ele>
        <time>2013-10-26T11:20:45Z</time>
      </trkpt>
      <trkpt lat="45.55717" lon="4.78574">
        <ele>251</ele>
        <time>2013-10-26T11:20:49Z</time>
      </trkpt>
      <trkpt lat="45.55716" lon="4.7857">
        <ele>252</ele>
        <time>2013-10-26T11:20:50Z</time>
      </trkpt>
      <trkpt lat="45.55715" lon="4.78558">
        <ele>252</ele>
        <time>2013-10-26T11:20:55Z</time>
      </trkpt>
      <trkpt lat="45.55715" lon="4.78557">
        <ele>252</ele>
        <time>2013-10-26T11:20:56Z</time>
      </trkpt>
      <trkpt lat="45.55716" lon="4.78546">
        <ele>251</ele>
        <time>2013-10-26T11:21:02Z</time>
      </trkpt>
      <trkpt lat="45.55716" lon="4.78544">
        <ele>251</ele>
        <time>2013-10-26T11:21:03Z</time>
      </trkpt>
      <trkpt lat="45.55714" lon="4.78532">
        <ele>251</ele>
        <time>2013-10-26T11:21:08Z</time>
      </trkpt>
      <trkpt lat="45.55714" lon="4.78528">
        <ele>251</ele>
        <time>2013-10-26T11:21:09Z</time>
      </trkpt>
      <trkpt lat="45.55713" lon="4.78517">
        <ele>251</ele>
        <time>2013-10-26T11:21:12Z</time>
      </trkpt>
      <trkpt lat="45.55712" lon="4.78513">
        <ele>251</ele>
        <time>2013-10-26T11:21:13Z</time>
      </trkpt>
      <trkpt lat="45.55711" lon="4.785">
        <ele>245</ele>
        <time>2013-10-26T11:21:17Z</time>
      </trkpt>
      <trkpt lat="45.5571" lon="4.78497">
        <ele>246</ele>
        <time>2013-10-26T11:21:18Z</time>
      </trkpt>
      <trkpt lat="45.55712" lon="4.78486">
        <ele>245</ele>
        <time>2013-10-26T11:21:22Z</time>
      </trkpt>
      <trkpt lat="45.55713" lon="4.78483">
        <ele>244</ele>
        <time>2013-10-26T11:21:23Z</time>
      </trkpt>
      <trkpt lat="45.55708" lon="4.78473">
        <ele>245</ele>
        <time>2013-10-26T11:21:26Z</time>
      </trkpt>
      <trkpt lat="45.55707" lon="4.78471">
        <ele>245</ele>
        <time>2013-10-26T11:21:27Z</time>
      </trkpt>
      <trkpt lat="45.55704" lon="4.78461">
        <ele>245</ele>
        <time>2013-10-26T11:21:31Z</time>
      </trkpt>
      <trkpt lat="45.55702" lon="4.78459">
        <ele>246</ele>
        <time>2013-10-26T11:21:32Z</time>
      </trkpt>
      <trkpt lat="45.55698" lon="4.7845">
        <ele>246</ele>
        <time>2013-10-26T11:21:35Z</time>
      </trkpt>
      <trkpt lat="45.55696" lon="4.78445">
        <ele>246</ele>
        <time>2013-10-26T11:21:36Z</time>
      </trkpt>
      <trkpt lat="45.55693" lon="4.78437">
        <ele>247</ele>
        <time>2013-10-26T11:21:38Z</time>
      </trkpt>
      <trkpt lat="45.55691" lon="4.78435">
        <ele>247</ele>
        <time>2013-10-26T11:21:39Z</time>
      </trkpt>
      <trkpt lat="45.55687" lon="4.78429">
        <ele>248</ele>
        <time>2013-10-26T11:21:41Z</time>
      </trkpt>
      <trkpt lat="45.55684" lon="4.78425">
        <ele>249</ele>
        <time>2013-10-26T11:21:42Z</time>
      </trkpt>
      <trkpt lat="45.5568" lon="4.78417">
        <ele>250</ele>
        <time>2013-10-26T11:21:44Z</time>
      </trkpt>
      <trkpt lat="45.55678" lon="4.78413">
        <ele>248</ele>
        <time>2013-10-26T11:21:45Z</time>
      </trkpt>
      <trkpt lat="45.55676" lon="4.78403">
        <ele>246</ele>
        <time>2013-10-26T11:21:47Z</time>
      </trkpt>
      <trkpt lat="45.55676" lon="4.78397">
        <ele>245</ele>
        <time>2013-10-26T11:21:48Z</time>
      </trkpt>
      <trkpt lat="45.55675" lon="4.78385">
        <ele>243</ele>
        <time>2013-10-26T11:21:50Z</time>
      </trkpt>
      <trkpt lat="45.55676" lon="4.78381">
        <ele>243</ele>
        <time>2013-10-26T11:21:51Z</time>
      </trkpt>
      <trkpt lat="45.55671" lon="4.7837">
        <ele>242</ele>
        <time>2013-10-26T11:21:53Z</time>
      </trkpt>
      <trkpt lat="45.55669" lon="4.78366">
        <ele>242</ele>
        <time>2013-10-26T11:21:54Z</time>
      </trkpt>
      <trkpt lat="45.55665" lon="4.78357">
        <ele>258</ele>
        <time>2013-10-26T11:21:56Z</time>
      </trkpt>
      <trkpt lat="45.55662" lon="4.78353">
        <ele>258</ele>
        <time>2013-10-26T11:21:57Z</time>
      </trkpt>
      <trkpt lat="45.55658" lon="4.78345">
        <ele>256</ele>
        <time>2013-10-26T11:21:59Z</time>
      </trkpt>
      <trkpt lat="45.55656" lon="4.78341">
        <ele>255</ele>
        <time>2013-10-26T11:22:00Z</time>
      </trkpt>
      <trkpt lat="45.55651" lon="4.78333">
        <ele>256</ele>
        <time>2013-10-26T11:22:02Z</time>
      </trkpt>
      <trkpt lat="45.55648" lon="4.78328">
        <ele>253</ele>
        <time>2013-10-26T11:22:03Z</time>
      </trkpt>
      <trkpt lat="45.55642" lon="4.7832">
        <ele>255</ele>
        <time>2013-10-26T11:22:05Z</time>
      </trkpt>
      <trkpt lat="45.55637" lon="4.78315">
        <ele>257</ele>
        <time>2013-10-26T11:22:06Z</time>
      </trkpt>
      <trkpt lat="45.55634" lon="4.78303">
        <ele>257</ele>
        <time>2013-10-26T11:22:10Z</time>
      </trkpt>
      <trkpt lat="45.55635" lon="4.78298">
        <ele>257</ele>
        <time>2013-10-26T11:22:11Z</time>
      </trkpt>
      <trkpt lat="45.55633" lon="4.78286">
        <ele>257</ele>
        <time>2013-10-26T11:22:14Z</time>
      </trkpt>
      <trkpt lat="45.55631" lon="4.78283">
        <ele>257</ele>
        <time>2013-10-26T11:22:15Z</time>
      </trkpt>
      <trkpt lat="45.55628" lon="4.78271">
        <ele>257</ele>
        <time>2013-10-26T11:22:18Z</time>
      </trkpt>
      <trkpt lat="45.55626" lon="4.78268">
        <ele>257</ele>
        <time>2013-10-26T11:22:19Z</time>
      </trkpt>
      <trkpt lat="45.55622" lon="4.78259">
        <ele>258</ele>
        <time>2013-10-26T11:22:22Z</time>
      </trkpt>
      <trkpt lat="45.55621" lon="4.78256">
        <ele>258</ele>
        <time>2013-10-26T11:22:23Z</time>
      </trkpt>
      <trkpt lat="45.55619" lon="4.78246">
        <ele>254</ele>
        <time>2013-10-26T11:22:26Z</time>
      </trkpt>
      <trkpt lat="45.55618" lon="4.78242">
        <ele>254</ele>
        <time>2013-10-26T11:22:27Z</time>
      </trkpt>
      <trkpt lat="45.55617" lon="4.78231">
        <ele>254</ele>
        <time>2013-10-26T11:22:30Z</time>
      </trkpt>
      <trkpt lat="45.55617" lon="4.78228">
        <ele>253</ele>
        <time>2013-10-26T11:22:31Z</time>
      </trkpt>
      <trkpt lat="45.55614" lon="4.78217">
        <ele>253</ele>
        <time>2013-10-26T11:22:34Z</time>
      </trkpt>
      <trkpt lat="45.55613" lon="4.78215">
        <ele>253</ele>
        <time>2013-10-26T11:22:35Z</time>
      </trkpt>
      <trkpt lat="45.55608" lon="4.78205">
        <ele>254</ele>
        <time>2013-10-26T11:22:39Z</time>
      </trkpt>
      <trkpt lat="45.55607" lon="4.78205">
        <ele>254</ele>
        <time>2013-10-26T11:22:40Z</time>
      </trkpt>
      <trkpt lat="45.55605" lon="4.78195">
        <ele>254</ele>
        <time>2013-10-26T11:22:43Z</time>
      </trkpt>
      <trkpt lat="45.55601" lon="4.7819">
        <ele>254</ele>
        <time>2013-10-26T11:22:44Z</time>
      </trkpt>
      <trkpt lat="45.55597" lon="4.78182">
        <ele>255</ele>
        <time>2013-10-26T11:22:46Z</time>
      </trkpt>
      <trkpt lat="45.55596" lon="4.78178">
        <ele>256</ele>
        <time>2013-10-26T11:22:47Z</time>
      </trkpt>
      <trkpt lat="45.55589" lon="4.78169">
        <ele>258</ele>
        <time>2013-10-26T11:22:49Z</time>
      </trkpt>
      <trkpt lat="45.55588" lon="4.78164">
        <ele>257</ele>
        <time>2013-10-26T11:22:50Z</time>
      </trkpt>
      <trkpt lat="45.55582" lon="4.78159">
        <ele>262</ele>
        <time>2013-10-26T11:22:52Z</time>
      </trkpt>
      <trkpt lat="45.55579" lon="4.78156">
        <ele>263</ele>
        <time>2013-10-26T11:22:53Z</time>
      </trkpt>
      <trkpt lat="45.55573" lon="4.78148">
        <ele>264</ele>
        <time>2013-10-26T11:22:56Z</time>
      </trkpt>
      <trkpt lat="45.55571" lon="4.78144">
        <ele>264</ele>
        <time>2013-10-26T11:22:57Z</time>
      </trkpt>
      <trkpt lat="45.55572" lon="4.78134">
        <ele>264</ele>
        <time>2013-10-26T11:22:58Z</time>
      </trkpt>
      <trkpt lat="45.5557" lon="4.78128">
        <ele>264</ele>
        <time>2013-10-26T11:22:59Z</time>
      </trkpt>
      <trkpt lat="45.55567" lon="4.78119">
        <ele>263</ele>
        <time>2013-10-26T11:23:01Z</time>
      </trkpt>
      <trkpt lat="45.55564" lon="4.78116">
        <ele>263</ele>
        <time>2013-10-26T11:23:02Z</time>
      </trkpt>
      <trkpt lat="45.55566" lon="4.78107">
        <ele>261</ele>
        <time>2013-10-26T11:23:05Z</time>
      </trkpt>
      <trkpt lat="45.55565" lon="4.78103">
        <ele>261</ele>
        <time>2013-10-26T11:23:06Z</time>
      </trkpt>
      <trkpt lat="45.55563" lon="4.78093">
        <ele>260</ele>
        <time>2013-10-26T11:23:08Z</time>
      </trkpt>
      <trkpt lat="45.55559" lon="4.78088">
        <ele>260</ele>
        <time>2013-10-26T11:23:09Z</time>
      </trkpt>
      <trkpt lat="45.55557" lon="4.78082">
        <ele>254</ele>
        <time>2013-10-26T11:23:10Z</time>
      </trkpt>
      <trkpt lat="45.55553" lon="4.78073">
        <ele>255</ele>
        <time>2013-10-26T11:23:11Z</time>
      </trkpt>
      <trkpt lat="45.55549" lon="4.78065">
        <ele>256</ele>
        <time>2013-10-26T11:23:12Z</time>
      </trkpt>
      <trkpt lat="45.55546" lon="4.78059">
        <ele>256</ele>
        <time>2013-10-26T11:23:13Z</time>
      </trkpt>
      <trkpt lat="45.55544" lon="4.78051">
        <ele>256</ele>
        <time>2013-10-26T11:23:14Z</time>
      </trkpt>
      <trkpt lat="45.55541" lon="4.78044">
        <ele>256</ele>
        <time>2013-10-26T11:23:15Z</time>
      </trkpt>
      <trkpt lat="45.55538" lon="4.78038">
        <ele>256</ele>
        <time>2013-10-26T11:23:16Z</time>
      </trkpt>
      <trkpt lat="45.55537" lon="4.7803">
        <ele>256</ele>
        <time>2013-10-26T11:23:17Z</time>
      </trkpt>
      <trkpt lat="45.55534" lon="4.78024">
        <ele>256</ele>
        <time>2013-10-26T11:23:18Z</time>
      </trkpt>
      <trkpt lat="45.55531" lon="4.78017">
        <ele>256</ele>
        <time>2013-10-26T11:23:19Z</time>
      </trkpt>
      <trkpt lat="45.55529" lon="4.7801">
        <ele>256</ele>
        <time>2013-10-26T11:23:20Z</time>
      </trkpt>
      <trkpt lat="45.55519" lon="4.78001">
        <ele>257</ele>
        <time>2013-10-26T11:23:21Z</time>
      </trkpt>
      <trkpt lat="45.55515" lon="4.77993">
        <ele>256</ele>
        <time>2013-10-26T11:23:22Z</time>
      </trkpt>
      <trkpt lat="45.55512" lon="4.77982">
        <ele>256</ele>
        <time>2013-10-26T11:23:23Z</time>
      </trkpt>
      <trkpt lat="45.55509" lon="4.77974">
        <ele>255</ele>
        <time>2013-10-26T11:23:24Z</time>
      </trkpt>
      <trkpt lat="45.55506" lon="4.77968">
        <ele>255</ele>
        <time>2013-10-26T11:23:25Z</time>
      </trkpt>
      <trkpt lat="45.55499" lon="4.7796">
        <ele>266</ele>
        <time>2013-10-26T11:23:28Z</time>
      </trkpt>
      <trkpt lat="45.55499" lon="4.77958">
        <ele>266</ele>
        <time>2013-10-26T11:23:29Z</time>
      </trkpt>
      <trkpt lat="45.55499" lon="4.77947">
        <ele>264</ele>
        <time>2013-10-26T11:23:32Z</time>
      </trkpt>
      <trkpt lat="45.55499" lon="4.77943">
        <ele>264</ele>
        <time>2013-10-26T11:23:33Z</time>
      </trkpt>
      <trkpt lat="45.55498" lon="4.77931">
        <ele>260</ele>
        <time>2013-10-26T11:23:37Z</time>
      </trkpt>
      <trkpt lat="45.55498" lon="4.77929">
        <ele>259</ele>
        <time>2013-10-26T11:23:38Z</time>
      </trkpt>
      <trkpt lat="45.55493" lon="4.77923">
        <ele>258</ele>
        <time>2013-10-26T11:23:42Z</time>
      </trkpt>
      <trkpt lat="45.55492" lon="4.77919">
        <ele>257</ele>
        <time>2013-10-26T11:23:43Z</time>
      </trkpt>
      <trkpt lat="45.55488" lon="4.7791">
        <ele>258</ele>
        <time>2013-10-26T11:23:46Z</time>
      </trkpt>
      <trkpt lat="45.55486" lon="4.77906">
        <ele>260</ele>
        <time>2013-10-26T11:23:47Z</time>
      </trkpt>
      <trkpt lat="45.55479" lon="4.77898">
        <ele>263</ele>
        <time>2013-10-26T11:23:54Z</time>
      </trkpt>
      <trkpt lat="45.55476" lon="4.77897">
        <ele>263</ele>
        <time>2013-10-26T11:23:55Z</time>
      </trkpt>
      <trkpt lat="45.55469" lon="4.7789">
        <ele>265</ele>
        <time>2013-10-26T11:24:00Z</time>
      </trkpt>
      <trkpt lat="45.55468" lon="4.77889">
        <ele>265</ele>
        <time>2013-10-26T11:24:01Z</time>
      </trkpt>
      <trkpt lat="45.55464" lon="4.77878">
        <ele>266</ele>
        <time>2013-10-26T11:24:07Z</time>
      </trkpt>
      <trkpt lat="45.55464" lon="4.77876">
        <ele>266</ele>
        <time>2013-10-26T11:24:08Z</time>
      </trkpt>
      <trkpt lat="45.55464" lon="4.77869">
        <ele>266</ele>
        <time>2013-10-26T11:24:10Z</time>
      </trkpt>
      <trkpt lat="45.55468" lon="4.77861">
        <ele>266</ele>
        <time>2013-10-26T11:24:11Z</time>
      </trkpt>
      <trkpt lat="45.55472" lon="4.7785">
        <ele>265</ele>
        <time>2013-10-26T11:24:14Z</time>
      </trkpt>
      <trkpt lat="45.55472" lon="4.77848">
        <ele>265</ele>
        <time>2013-10-26T11:24:15Z</time>
      </trkpt>
      <trkpt lat="45.55467" lon="4.77856">
        <ele>266</ele>
        <time>2013-10-26T11:24:39Z</time>
      </trkpt>
      <trkpt lat="45.55468" lon="4.7786">
        <ele>266</ele>
        <time>2013-10-26T11:24:40Z</time>
      </trkpt>
      <trkpt lat="45.55474" lon="4.77868">
        <ele>265</ele>
        <time>2013-10-26T11:24:42Z</time>
      </trkpt>
      <trkpt lat="45.55477" lon="4.77871">
        <ele>265</ele>
        <time>2013-10-26T11:24:43Z</time>
      </trkpt>
      <trkpt lat="45.55481" lon="4.77874">
        <ele>264</ele>
        <time>2013-10-26T11:24:44Z</time>
      </trkpt>
      <trkpt lat="45.55489" lon="4.77874">
        <ele>263</ele>
        <time>2013-10-26T11:24:45Z</time>
      </trkpt>
      <trkpt lat="45.55496" lon="4.7788">
        <ele>262</ele>
        <time>2013-10-26T11:24:46Z</time>
      </trkpt>
      <trkpt lat="45.555" lon="4.77881">
        <ele>262</ele>
        <time>2013-10-26T11:24:47Z</time>
      </trkpt>
      <trkpt lat="45.55506" lon="4.77889">
        <ele>260</ele>
        <time>2013-10-26T11:24:55Z</time>
      </trkpt>
      <trkpt lat="45.55507" lon="4.7789">
        <ele>260</ele>
        <time>2013-10-26T11:24:56Z</time>
      </trkpt>
      <trkpt lat="45.55504" lon="4.77901">
        <ele>258</ele>
        <time>2013-10-26T11:25:03Z</time>
      </trkpt>
      <trkpt lat="45.55505" lon="4.77904">
        <ele>257</ele>
        <time>2013-10-26T11:25:04Z</time>
      </trkpt>
      <trkpt lat="45.5551" lon="4.7791">
        <ele>256</ele>
        <time>2013-10-26T11:25:06Z</time>
      </trkpt>
      <trkpt lat="45.55512" lon="4.77914">
        <ele>256</ele>
        <time>2013-10-26T11:25:07Z</time>
      </trkpt>
      <trkpt lat="45.55519" lon="4.7792">
        <ele>254</ele>
        <time>2013-10-26T11:25:13Z</time>
      </trkpt>
      <trkpt lat="45.55521" lon="4.77923">
        <ele>254</ele>
        <time>2013-10-26T11:25:14Z</time>
      </trkpt>
      <trkpt lat="45.55527" lon="4.7793">
        <ele>255</ele>
        <time>2013-10-26T11:25:18Z</time>
      </trkpt>
      <trkpt lat="45.55528" lon="4.77932">
        <ele>255</ele>
        <time>2013-10-26T11:25:19Z</time>
      </trkpt>
      <trkpt lat="45.55534" lon="4.77941">
        <ele>255</ele>
        <time>2013-10-26T11:25:23Z</time>
      </trkpt>
      <trkpt lat="45.55536" lon="4.77942">
        <ele>255</ele>
        <time>2013-10-26T11:25:24Z</time>
      </trkpt>
      <trkpt lat="45.5554" lon="4.7795">
        <ele>255</ele>
        <time>2013-10-26T11:25:27Z</time>
      </trkpt>
      <trkpt lat="45.55543" lon="4.77952">
        <ele>255</ele>
        <time>2013-10-26T11:25:28Z</time>
      </trkpt>
      <trkpt lat="45.55546" lon="4.77962">
        <ele>255</ele>
        <time>2013-10-26T11:25:31Z</time>
      </trkpt>
      <trkpt lat="45.55549" lon="4.77965">
        <ele>255</ele>
        <time>2013-10-26T11:25:32Z</time>
      </trkpt>
      <trkpt lat="45.55556" lon="4.77971">
        <ele>254</ele>
        <time>2013-10-26T11:25:34Z</time>
      </trkpt>
      <trkpt lat="45.55559" lon="4.77974">
        <ele>254</ele>
        <time>2013-10-26T11:25:35Z</time>
      </trkpt>
      <trkpt lat="45.55565" lon="4.77979">
        <ele>253</ele>
        <time>2013-10-26T11:25:37Z</time>
      </trkpt>
      <trkpt lat="45.55569" lon="4.77982">
        <ele>252</ele>
        <time>2013-10-26T11:25:38Z</time>
      </trkpt>
      <trkpt lat="45.55576" lon="4.77987">
        <ele>250</ele>
        <time>2013-10-26T11:25:41Z</time>
      </trkpt>
      <trkpt lat="45.55578" lon="4.77989">
        <ele>249</ele>
        <time>2013-10-26T11:25:42Z</time>
      </trkpt>
      <trkpt lat="45.55584" lon="4.77995">
        <ele>249</ele>
        <time>2013-10-26T11:25:44Z</time>
      </trkpt>
      <trkpt lat="45.55586" lon="4.78001">
        <ele>246</ele>
        <time>2013-10-26T11:25:45Z</time>
      </trkpt>
      <trkpt lat="45.55587" lon="4.78007">
        <ele>247</ele>
        <time>2013-10-26T11:25:46Z</time>
      </trkpt>
      <trkpt lat="45.55591" lon="4.78013">
        <ele>248</ele>
        <time>2013-10-26T11:25:47Z</time>
      </trkpt>
      <trkpt lat="45.55593" lon="4.7802">
        <ele>249</ele>
        <time>2013-10-26T11:25:48Z</time>
      </trkpt>
      <trkpt lat="45.55595" lon="4.78025">
        <ele>249</ele>
        <time>2013-10-26T11:25:49Z</time>
      </trkpt>
      <trkpt lat="45.55599" lon="4.78034">
        <ele>249</ele>
        <time>2013-10-26T11:25:51Z</time>
      </trkpt>
      <trkpt lat="45.55602" lon="4.78038">
        <ele>249</ele>
        <time>2013-10-26T11:25:52Z</time>
      </trkpt>
      <trkpt lat="45.55604" lon="4.78044">
        <ele>250</ele>
        <time>2013-10-26T11:25:53Z</time>
      </trkpt>
      <trkpt lat="45.55608" lon="4.78053">
        <ele>249</ele>
        <time>2013-10-26T11:25:54Z</time>
      </trkpt>
      <trkpt lat="45.55613" lon="4.78062">
        <ele>249</ele>
        <time>2013-10-26T11:25:56Z</time>
      </trkpt>
      <trkpt lat="45.55616" lon="4.78069">
        <ele>249</ele>
        <time>2013-10-26T11:25:57Z</time>
      </trkpt>
      <trkpt lat="45.55621" lon="4.78076">
        <ele>249</ele>
        <time>2013-10-26T11:25:58Z</time>
      </trkpt>
      <trkpt lat="45.55624" lon="4.78083">
        <ele>249</ele>
        <time>2013-10-26T11:25:59Z</time>
      </trkpt>
      <trkpt lat="45.55628" lon="4.78089">
        <ele>246</ele>
        <time>2013-10-26T11:26:00Z</time>
      </trkpt>
      <trkpt lat="45.5563" lon="4.78097">
        <ele>246</ele>
        <time>2013-10-26T11:26:01Z</time>
      </trkpt>
      <trkpt lat="45.55634" lon="4.78104">
        <ele>246</ele>
        <time>2013-10-26T11:26:02Z</time>
      </trkpt>
      <trkpt lat="45.55637" lon="4.78108">
        <ele>246</ele>
        <time>2013-10-26T11:26:03Z</time>
      </trkpt>
      <trkpt lat="45.5564" lon="4.78115">
        <ele>246</ele>
        <time>2013-10-26T11:26:05Z</time>
      </trkpt>
      <trkpt lat="45.55645" lon="4.7812">
        <ele>245</ele>
        <time>2013-10-26T11:26:06Z</time>
      </trkpt>
      <trkpt lat="45.55648" lon="4.78125">
        <ele>245</ele>
        <time>2013-10-26T11:26:07Z</time>
      </trkpt>
      <trkpt lat="45.55652" lon="4.78132">
        <ele>244</ele>
        <time>2013-10-26T11:26:08Z</time>
      </trkpt>
      <trkpt lat="45.55655" lon="4.78136">
        <ele>244</ele>
        <time>2013-10-26T11:26:09Z</time>
      </trkpt>
      <trkpt lat="45.55658" lon="4.78145">
        <ele>242</ele>
        <time>2013-10-26T11:26:10Z</time>
      </trkpt>
      <trkpt lat="45.55657" lon="4.78155">
        <ele>241</ele>
        <time>2013-10-26T11:26:11Z</time>
      </trkpt>
      <trkpt lat="45.55663" lon="4.78157">
        <ele>239</ele>
        <time>2013-10-26T11:26:12Z</time>
      </trkpt>
      <trkpt lat="45.55668" lon="4.78158">
        <ele>239</ele>
        <time>2013-10-26T11:26:13Z</time>
      </trkpt>
      <trkpt lat="45.55673" lon="4.78161">
        <ele>239</ele>
        <time>2013-10-26T11:26:14Z</time>
      </trkpt>
      <trkpt lat="45.55674" lon="4.78168">
        <ele>236</ele>
        <time>2013-10-26T11:26:15Z</time>
      </trkpt>
      <trkpt lat="45.55677" lon="4.78177">
        <ele>237</ele>
        <time>2013-10-26T11:26:16Z</time>
      </trkpt>
      <trkpt lat="45.55683" lon="4.78186">
        <ele>238</ele>
        <time>2013-10-26T11:26:20Z</time>
      </trkpt>
      <trkpt lat="45.55683" lon="4.78187">
        <ele>239</ele>
        <time>2013-10-26T11:26:21Z</time>
      </trkpt>
      <trkpt lat="45.55686" lon="4.78189">
        <ele>239</ele>
        <time>2013-10-26T11:26:25Z</time>
      </trkpt>
      <trkpt lat="45.55686" lon="4.78189">
        <ele>239</ele>
        <time>2013-10-26T11:26:26Z</time>
      </trkpt>
      <trkpt lat="45.55686" lon="4.78189">
        <ele>239</ele>
        <time>2013-10-26T11:26:28Z</time>
      </trkpt>
      <trkpt lat="45.55686" lon="4.78189">
        <ele>239</ele>
        <time>2013-10-26T11:26:29Z</time>
      </trkpt>
      <trkpt lat="45.55686" lon="4.78189">
        <ele>239</ele>
        <time>2013-10-26T11:26:30Z</time>
      </trkpt>
      <trkpt lat="45.55686" lon="4.78189">
        <ele>239</ele>
        <time>2013-10-26T11:26:31Z</time>
      </trkpt>
      <trkpt lat="45.55687" lon="4.78191">
        <ele>239</ele>
        <time>2013-10-26T11:26:32Z</time>
      </trkpt>
      <trkpt lat="45.55693" lon="4.78192">
        <ele>239</ele>
        <time>2013-10-26T11:26:34Z</time>
      </trkpt>
      <trkpt lat="45.55696" lon="4.78193">
        <ele>240</ele>
        <time>2013-10-26T11:26:35Z</time>
      </trkpt>
      <trkpt lat="45.55703" lon="4.78199">
        <ele>240</ele>
        <time>2013-10-26T11:26:40Z</time>
      </trkpt>
      <trkpt lat="45.55703" lon="4.78201">
        <ele>240</ele>
        <time>2013-10-26T11:26:41Z</time>
      </trkpt>
      <trkpt lat="45.55703" lon="4.7821">
        <ele>240</ele>
        <time>2013-10-26T11:26:43Z</time>
      </trkpt>
      <trkpt lat="45.55702" lon="4.78214">
        <ele>240</ele>
        <time>2013-10-26T11:26:44Z</time>
      </trkpt>
      <trkpt lat="45.55707" lon="4.78225">
        <ele>240</ele>
        <time>2013-10-26T11:26:45Z</time>
      </trkpt>
      <trkpt lat="45.55707" lon="4.78237">
        <ele>240</ele>
        <time>2013-10-26T11:26:46Z</time>
      </trkpt>
      <trkpt lat="45.5571" lon="4.78244">
        <ele>240</ele>
        <time>2013-10-26T11:26:47Z</time>
      </trkpt>
      <trkpt lat="45.55714" lon="4.78256">
        <ele>238</ele>
        <time>2013-10-26T11:26:49Z</time>
      </trkpt>
      <trkpt lat="45.55715" lon="4.78259">
        <ele>238</ele>
        <time>2013-10-26T11:26:50Z</time>
      </trkpt>
      <trkpt lat="45.55719" lon="4.78265">
        <ele>238</ele>
        <time>2013-10-26T11:26:51Z</time>
      </trkpt>
      <trkpt lat="45.55722" lon="4.78267">
        <ele>238</ele>
        <time>2013-10-26T11:26:52Z</time>
      </trkpt>
      <trkpt lat="45.55724" lon="4.78279">
        <ele>238</ele>
        <time>2013-10-26T11:26:54Z</time>
      </trkpt>
      <trkpt lat="45.55725" lon="4.78281">
        <ele>238</ele>
        <time>2013-10-26T11:26:55Z</time>
      </trkpt>
      <trkpt lat="45.55728" lon="4.78291">
        <ele>237</ele>
        <time>2013-10-26T11:26:58Z</time>
      </trkpt>
      <trkpt lat="45.5573" lon="4.78294">
        <ele>237</ele>
        <time>2013-10-26T11:26:59Z</time>
      </trkpt>
      <trkpt lat="45.55735" lon="4.78304">
        <ele>236</ele>
        <time>2013-10-26T11:27:01Z</time>
      </trkpt>
      <trkpt lat="45.55736" lon="4.78311">
        <ele>236</ele>
        <time>2013-10-26T11:27:02Z</time>
      </trkpt>
      <trkpt lat="45.55738" lon="4.78317">
        <ele>235</ele>
        <time>2013-10-26T11:27:03Z</time>
      </trkpt>
      <trkpt lat="45.5574" lon="4.78324">
        <ele>234</ele>
        <time>2013-10-26T11:27:04Z</time>
      </trkpt>
      <trkpt lat="45.55745" lon="4.78331">
        <ele>232</ele>
        <time>2013-10-26T11:27:06Z</time>
      </trkpt>
      <trkpt lat="45.55749" lon="4.78336">
        <ele>231</ele>
        <time>2013-10-26T11:27:07Z</time>
      </trkpt>
      <trkpt lat="45.55756" lon="4.78344">
        <ele>233</ele>
        <time>2013-10-26T11:27:10Z</time>
      </trkpt>
      <trkpt lat="45.55758" lon="4.78348">
        <ele>234</ele>
        <time>2013-10-26T11:27:11Z</time>
      </trkpt>
      <trkpt lat="45.55762" lon="4.78355">
        <ele>235</ele>
        <time>2013-10-26T11:27:13Z</time>
      </trkpt>
      <trkpt lat="45.55764" lon="4.78361">
        <ele>236</ele>
        <time>2013-10-26T11:27:14Z</time>
      </trkpt>
      <trkpt lat="45.55768" lon="4.78372">
        <ele>236</ele>
        <time>2013-10-26T11:27:17Z</time>
      </trkpt>
      <trkpt lat="45.55769" lon="4.78377">
        <ele>236</ele>
        <time>2013-10-26T11:27:18Z</time>
      </trkpt>
      <trkpt lat="45.55771" lon="4.78388">
        <ele>235</ele>
        <time>2013-10-26T11:27:21Z</time>
      </trkpt>
      <trkpt lat="45.55771" lon="4.78392">
        <ele>235</ele>
        <time>2013-10-26T11:27:22Z</time>
      </trkpt>
      <trkpt lat="45.55773" lon="4.78401">
        <ele>234</ele>
        <time>2013-10-26T11:27:24Z</time>
      </trkpt>
      <trkpt lat="45.55775" lon="4.78405">
        <ele>234</ele>
        <time>2013-10-26T11:27:25Z</time>
      </trkpt>
      <trkpt lat="45.55777" lon="4.78412">
        <ele>234</ele>
        <time>2013-10-26T11:27:26Z</time>
      </trkpt>
      <trkpt lat="45.5578" lon="4.78419">
        <ele>230</ele>
        <time>2013-10-26T11:27:27Z</time>
      </trkpt>
      <trkpt lat="45.55781" lon="4.78425">
        <ele>230</ele>
        <time>2013-10-26T11:27:28Z</time>
      </trkpt>
      <trkpt lat="45.55783" lon="4.78432">
        <ele>230</ele>
        <time>2013-10-26T11:27:29Z</time>
      </trkpt>
      <trkpt lat="45.55788" lon="4.78435">
        <ele>230</ele>
        <time>2013-10-26T11:27:31Z</time>
      </trkpt>
      <trkpt lat="45.55791" lon="4.78439">
        <ele>230</ele>
        <time>2013-10-26T11:27:32Z</time>
      </trkpt>
      <trkpt lat="45.55796" lon="4.78449">
        <ele>230</ele>
        <time>2013-10-26T11:27:34Z</time>
      </trkpt>
      <trkpt lat="45.55798" lon="4.78452">
        <ele>230</ele>
        <time>2013-10-26T11:27:35Z</time>
      </trkpt>
      <trkpt lat="45.55802" lon="4.78459">
        <ele>230</ele>
        <time>2013-10-26T11:27:37Z</time>
      </trkpt>
      <trkpt lat="45.55805" lon="4.78463">
        <ele>230</ele>
        <time>2013-10-26T11:27:38Z</time>
      </trkpt>
      <trkpt lat="45.55808" lon="4.78468">
        <ele>230</ele>
        <time>2013-10-26T11:27:39Z</time>
      </trkpt>
      <trkpt lat="45.55812" lon="4.78476">
        <ele>229</ele>
        <time>2013-10-26T11:27:40Z</time>
      </trkpt>
      <trkpt lat="45.55816" lon="4.78486">
        <ele>228</ele>
        <time>2013-10-26T11:27:42Z</time>
      </trkpt>
      <trkpt lat="45.55818" lon="4.78492">
        <ele>227</ele>
        <time>2013-10-26T11:27:43Z</time>
      </trkpt>
      <trkpt lat="45.5582" lon="4.78501">
        <ele>226</ele>
        <time>2013-10-26T11:27:44Z</time>
      </trkpt>
      <trkpt lat="45.55822" lon="4.78509">
        <ele>226</ele>
        <time>2013-10-26T11:27:45Z</time>
      </trkpt>
      <trkpt lat="45.55825" lon="4.78519">
        <ele>226</ele>
        <time>2013-10-26T11:27:46Z</time>
      </trkpt>
      <trkpt lat="45.55829" lon="4.7853">
        <ele>226</ele>
        <time>2013-10-26T11:27:47Z</time>
      </trkpt>
      <trkpt lat="45.55832" lon="4.78535">
        <ele>226</ele>
        <time>2013-10-26T11:27:48Z</time>
      </trkpt>
      <trkpt lat="45.55836" lon="4.78544">
        <ele>228</ele>
        <time>2013-10-26T11:27:49Z</time>
      </trkpt>
      <trkpt lat="45.5584" lon="4.78553">
        <ele>228</ele>
        <time>2013-10-26T11:27:50Z</time>
      </trkpt>
      <trkpt lat="45.55842" lon="4.7856">
        <ele>227</ele>
        <time>2013-10-26T11:27:51Z</time>
      </trkpt>
      <trkpt lat="45.55843" lon="4.78572">
        <ele>225</ele>
        <time>2013-10-26T11:27:53Z</time>
      </trkpt>
      <trkpt lat="45.55845" lon="4.78577">
        <ele>224</ele>
        <time>2013-10-26T11:27:54Z</time>
      </trkpt>
      <trkpt lat="45.55846" lon="4.78583">
        <ele>221</ele>
        <time>2013-10-26T11:27:55Z</time>
      </trkpt>
      <trkpt lat="45.55846" lon="4.7859">
        <ele>221</ele>
        <time>2013-10-26T11:27:56Z</time>
      </trkpt>
      <trkpt lat="45.55847" lon="4.78597">
        <ele>222</ele>
        <time>2013-10-26T11:27:57Z</time>
      </trkpt>
      <trkpt lat="45.55848" lon="4.78603">
        <ele>222</ele>
        <time>2013-10-26T11:27:58Z</time>
      </trkpt>
      <trkpt lat="45.55851" lon="4.78611">
        <ele>223</ele>
        <time>2013-10-26T11:28:00Z</time>
      </trkpt>
      <trkpt lat="45.55854" lon="4.78617">
        <ele>223</ele>
        <time>2013-10-26T11:28:01Z</time>
      </trkpt>
      <trkpt lat="45.5586" lon="4.78623">
        <ele>223</ele>
        <time>2013-10-26T11:28:02Z</time>
      </trkpt>
      <trkpt lat="45.55862" lon="4.78627">
        <ele>223</ele>
        <time>2013-10-26T11:28:03Z</time>
      </trkpt>
      <trkpt lat="45.55867" lon="4.78636">
        <ele>223</ele>
        <time>2013-10-26T11:28:05Z</time>
      </trkpt>
      <trkpt lat="45.5587" lon="4.78641">
        <ele>223</ele>
        <time>2013-10-26T11:28:06Z</time>
      </trkpt>
      <trkpt lat="45.55873" lon="4.78646">
        <ele>223</ele>
        <time>2013-10-26T11:28:07Z</time>
      </trkpt>
      <trkpt lat="45.55877" lon="4.78649">
        <ele>223</ele>
        <time>2013-10-26T11:28:08Z</time>
      </trkpt>
      <trkpt lat="45.55881" lon="4.78656">
        <ele>222</ele>
        <time>2013-10-26T11:28:10Z</time>
      </trkpt>
      <trkpt lat="45.55884" lon="4.7866">
        <ele>222</ele>
        <time>2013-10-26T11:28:11Z</time>
      </trkpt>
      <trkpt lat="45.5589" lon="4.78666">
        <ele>221</ele>
        <time>2013-10-26T11:28:13Z</time>
      </trkpt>
      <trkpt lat="45.55893" lon="4.7867">
        <ele>219</ele>
        <time>2013-10-26T11:28:14Z</time>
      </trkpt>
      <trkpt lat="45.559" lon="4.78676">
        <ele>218</ele>
        <time>2013-10-26T11:28:16Z</time>
      </trkpt>
      <trkpt lat="45.55902" lon="4.78678">
        <ele>218</ele>
        <time>2013-10-26T11:28:17Z</time>
      </trkpt>
      <trkpt lat="45.55906" lon="4.78683">
        <ele>218</ele>
        <time>2013-10-26T11:28:18Z</time>
      </trkpt>
      <trkpt lat="45.55909" lon="4.78687">
        <ele>218</ele>
        <time>2013-10-26T11:28:19Z</time>
      </trkpt>
      <trkpt lat="45.55914" lon="4.78689">
        <ele>218</ele>
        <time>2013-10-26T11:28:20Z</time>
      </trkpt>
      <trkpt lat="45.55918" lon="4.78692">
        <ele>219</ele>
        <time>2013-10-26T11:28:21Z</time>
      </trkpt>
      <trkpt lat="45.55926" lon="4.78698">
        <ele>220</ele>
        <time>2013-10-26T11:28:23Z</time>
      </trkpt>
      <trkpt lat="45.55929" lon="4.78702">
        <ele>220</ele>
        <time>2013-10-26T11:28:24Z</time>
      </trkpt>
      <trkpt lat="45.55933" lon="4.78709">
        <ele>220</ele>
        <time>2013-10-26T11:28:26Z</time>
      </trkpt>
      <trkpt lat="45.55935" lon="4.78713">
        <ele>220</ele>
        <time>2013-10-26T11:28:27Z</time>
      </trkpt>
      <trkpt lat="45.55935" lon="4.78718">
        <ele>219</ele>
        <time>2013-10-26T11:28:28Z</time>
      </trkpt>
      <trkpt lat="45.55936" lon="4.78731">
        <ele>218</ele>
        <time>2013-10-26T11:28:29Z</time>
      </trkpt>
      <trkpt lat="45.55937" lon="4.78737">
        <ele>217</ele>
        <time>2013-10-26T11:28:30Z</time>
      </trkpt>
      <trkpt lat="45.55939" lon="4.78743">
        <ele>217</ele>
        <time>2013-10-26T11:28:31Z</time>
      </trkpt>
      <trkpt lat="45.55942" lon="4.7875">
        <ele>217</ele>
        <time>2013-10-26T11:28:33Z</time>
      </trkpt>
      <trkpt lat="45.55944" lon="4.78756">
        <ele>214</ele>
        <time>2013-10-26T11:28:34Z</time>
      </trkpt>
      <trkpt lat="45.55947" lon="4.78767">
        <ele>215</ele>
        <time>2013-10-26T11:28:36Z</time>
      </trkpt>
      <trkpt lat="45.55949" lon="4.78772">
        <ele>216</ele>
        <time>2013-10-26T11:28:37Z</time>
      </trkpt>
      <trkpt lat="45.55952" lon="4.78783">
        <ele>216</ele>
        <time>2013-10-26T11:28:39Z</time>
      </trkpt>
      <trkpt lat="45.55952" lon="4.78789">
        <ele>216</ele>
        <time>2013-10-26T11:28:40Z</time>
      </trkpt>
      <trkpt lat="45.55953" lon="4.78799">
        <ele>216</ele>
        <time>2013-10-26T11:28:42Z</time>
      </trkpt>
      <trkpt lat="45.55955" lon="4.78804">
        <ele>216</ele>
        <time>2013-10-26T11:28:43Z</time>
      </trkpt>
      <trkpt lat="45.55951" lon="4.78813">
        <ele>216</ele>
        <time>2013-10-26T11:28:45Z</time>
      </trkpt>
      <trkpt lat="45.55953" lon="4.78823">
        <ele>216</ele>
        <time>2013-10-26T11:28:46Z</time>
      </trkpt>
      <trkpt lat="45.55958" lon="4.78833">
        <ele>216</ele>
        <time>2013-10-26T11:28:47Z</time>
      </trkpt>
      <trkpt lat="45.55963" lon="4.78845">
        <ele>215</ele>
        <time>2013-10-26T11:28:48Z</time>
      </trkpt>
      <trkpt lat="45.55967" lon="4.78854">
        <ele>215</ele>
        <time>2013-10-26T11:28:49Z</time>
      </trkpt>
      <trkpt lat="45.55971" lon="4.78863">
        <ele>214</ele>
        <time>2013-10-26T11:28:50Z</time>
      </trkpt>
      <trkpt lat="45.55975" lon="4.78873">
        <ele>214</ele>
        <time>2013-10-26T11:28:51Z</time>
      </trkpt>
      <trkpt lat="45.5598" lon="4.78884">
        <ele>213</ele>
        <time>2013-10-26T11:28:52Z</time>
      </trkpt>
      <trkpt lat="45.55984" lon="4.78891">
        <ele>213</ele>
        <time>2013-10-26T11:28:53Z</time>
      </trkpt>
      <trkpt lat="45.55987" lon="4.78904">
        <ele>211</ele>
        <time>2013-10-26T11:28:54Z</time>
      </trkpt>
      <trkpt lat="45.5599" lon="4.78915">
        <ele>210</ele>
        <time>2013-10-26T11:28:55Z</time>
      </trkpt>
      <trkpt lat="45.55995" lon="4.78928">
        <ele>208</ele>
        <time>2013-10-26T11:28:56Z</time>
      </trkpt>
      <trkpt lat="45.55999" lon="4.78937">
        <ele>208</ele>
        <time>2013-10-26T11:28:57Z</time>
      </trkpt>
      <trkpt lat="45.56002" lon="4.78946">
        <ele>210</ele>
        <time>2013-10-26T11:28:58Z</time>
      </trkpt>
      <trkpt lat="45.56005" lon="4.78953">
        <ele>210</ele>
        <time>2013-10-26T11:28:59Z</time>
      </trkpt>
      <trkpt lat="45.56009" lon="4.7896">
        <ele>210</ele>
        <time>2013-10-26T11:29:00Z</time>
      </trkpt>
      <trkpt lat="45.56015" lon="4.7897">
        <ele>209</ele>
        <time>2013-10-26T11:29:01Z</time>
      </trkpt>
      <trkpt lat="45.56019" lon="4.78979">
        <ele>208</ele>
        <time>2013-10-26T11:29:02Z</time>
      </trkpt>
      <trkpt lat="45.56022" lon="4.78987">
        <ele>208</ele>
        <time>2013-10-26T11:29:03Z</time>
      </trkpt>
      <trkpt lat="45.56025" lon="4.78998">
        <ele>207</ele>
        <time>2013-10-26T11:29:04Z</time>
      </trkpt>
      <trkpt lat="45.56028" lon="4.79004">
        <ele>202</ele>
        <time>2013-10-26T11:29:05Z</time>
      </trkpt>
      <trkpt lat="45.56028" lon="4.79011">
        <ele>202</ele>
        <time>2013-10-26T11:29:06Z</time>
      </trkpt>
      <trkpt lat="45.56028" lon="4.79019">
        <ele>202</ele>
        <time>2013-10-26T11:29:07Z</time>
      </trkpt>
      <trkpt lat="45.56029" lon="4.79027">
        <ele>202</ele>
        <time>2013-10-26T11:29:08Z</time>
      </trkpt>
      <trkpt lat="45.56022" lon="4.79035">
        <ele>202</ele>
        <time>2013-10-26T11:29:09Z</time>
      </trkpt>
      <trkpt lat="45.56019" lon="4.79044">
        <ele>201</ele>
        <time>2013-10-26T11:29:10Z</time>
      </trkpt>
      <trkpt lat="45.56019" lon="4.79049">
        <ele>201</ele>
        <time>2013-10-26T11:29:11Z</time>
      </trkpt>
      <trkpt lat="45.56017" lon="4.79059">
        <ele>201</ele>
        <time>2013-10-26T11:29:13Z</time>
      </trkpt>
      <trkpt lat="45.56018" lon="4.79062">
        <ele>200</ele>
        <time>2013-10-26T11:29:14Z</time>
      </trkpt>
      <trkpt lat="45.56018" lon="4.79072">
        <ele>200</ele>
        <time>2013-10-26T11:29:17Z</time>
      </trkpt>
      <trkpt lat="45.56016" lon="4.79076">
        <ele>199</ele>
        <time>2013-10-26T11:29:18Z</time>
      </trkpt>
      <trkpt lat="45.56018" lon="4.79086">
        <ele>198</ele>
        <time>2013-10-26T11:29:20Z</time>
      </trkpt>
      <trkpt lat="45.56022" lon="4.79094">
        <ele>198</ele>
        <time>2013-10-26T11:29:21Z</time>
      </trkpt>
      <trkpt lat="45.56025" lon="4.79101">
        <ele>198</ele>
        <time>2013-10-26T11:29:22Z</time>
      </trkpt>
      <trkpt lat="45.56027" lon="4.79108">
        <ele>198</ele>
        <time>2013-10-26T11:29:23Z</time>
      </trkpt>
      <trkpt lat="45.56028" lon="4.79117">
        <ele>199</ele>
        <time>2013-10-26T11:29:24Z</time>
      </trkpt>
      <trkpt lat="45.56027" lon="4.79124">
        <ele>199</ele>
        <time>2013-10-26T11:29:25Z</time>
      </trkpt>
      <trkpt lat="45.5603" lon="4.79135">
        <ele>199</ele>
        <time>2013-10-26T11:29:27Z</time>
      </trkpt>
      <trkpt lat="45.56031" lon="4.7914">
        <ele>199</ele>
        <time>2013-10-26T11:29:28Z</time>
      </trkpt>
      <trkpt lat="45.56032" lon="4.79151">
        <ele>199</ele>
        <time>2013-10-26T11:29:30Z</time>
      </trkpt>
      <trkpt lat="45.56033" lon="4.79158">
        <ele>199</ele>
        <time>2013-10-26T11:29:31Z</time>
      </trkpt>
      <trkpt lat="45.56042" lon="4.79177">
        <ele>197</ele>
        <time>2013-10-26T11:29:32Z</time>
      </trkpt>
      <trkpt lat="45.56047" lon="4.79187">
        <ele>197</ele>
        <time>2013-10-26T11:29:33Z</time>
      </trkpt>
      <trkpt lat="45.5605" lon="4.79194">
        <ele>196</ele>
        <time>2013-10-26T11:29:34Z</time>
      </trkpt>
      <trkpt lat="45.56054" lon="4.79202">
        <ele>196</ele>
        <time>2013-10-26T11:29:35Z</time>
      </trkpt>
      <trkpt lat="45.56058" lon="4.79208">
        <ele>196</ele>
        <time>2013-10-26T11:29:36Z</time>
      </trkpt>
      <trkpt lat="45.56064" lon="4.79217">
        <ele>196</ele>
        <time>2013-10-26T11:29:37Z</time>
      </trkpt>
      <trkpt lat="45.56067" lon="4.79224">
        <ele>195</ele>
        <time>2013-10-26T11:29:38Z</time>
      </trkpt>
      <trkpt lat="45.5607" lon="4.79233">
        <ele>195</ele>
        <time>2013-10-26T11:29:39Z</time>
      </trkpt>
      <trkpt lat="45.56073" lon="4.79242">
        <ele>194</ele>
        <time>2013-10-26T11:29:40Z</time>
      </trkpt>
      <trkpt lat="45.56077" lon="4.79249">
        <ele>193</ele>
        <time>2013-10-26T11:29:41Z</time>
      </trkpt>
      <trkpt lat="45.56079" lon="4.79255">
        <ele>193</ele>
        <time>2013-10-26T11:29:42Z</time>
      </trkpt>
      <trkpt lat="45.56077" lon="4.79266">
        <ele>195</ele>
        <time>2013-10-26T11:29:44Z</time>
      </trkpt>
      <trkpt lat="45.56077" lon="4.79273">
        <ele>195</ele>
        <time>2013-10-26T11:29:45Z</time>
      </trkpt>
      <trkpt lat="45.56077" lon="4.79284">
        <ele>196</ele>
        <time>2013-10-26T11:29:47Z</time>
      </trkpt>
      <trkpt lat="45.56078" lon="4.79289">
        <ele>196</ele>
        <time>2013-10-26T11:29:48Z</time>
      </trkpt>
      <trkpt lat="45.5608" lon="4.79298">
        <ele>196</ele>
        <time>2013-10-26T11:29:49Z</time>
      </trkpt>
      <trkpt lat="45.56081" lon="4.79307">
        <ele>196</ele>
        <time>2013-10-26T11:29:50Z</time>
      </trkpt>
      <trkpt lat="45.56083" lon="4.79314">
        <ele>196</ele>
        <time>2013-10-26T11:29:51Z</time>
      </trkpt>
      <trkpt lat="45.56086" lon="4.79324">
        <ele>195</ele>
        <time>2013-10-26T11:29:52Z</time>
      </trkpt>
      <trkpt lat="45.56088" lon="4.79332">
        <ele>195</ele>
        <time>2013-10-26T11:29:53Z</time>
      </trkpt>
      <trkpt lat="45.56091" lon="4.79339">
        <ele>194</ele>
        <time>2013-10-26T11:29:54Z</time>
      </trkpt>
      <trkpt lat="45.56093" lon="4.79346">
        <ele>195</ele>
        <time>2013-10-26T11:29:55Z</time>
      </trkpt>
      <trkpt lat="45.56099" lon="4.79358">
        <ele>195</ele>
        <time>2013-10-26T11:29:56Z</time>
      </trkpt>
      <trkpt lat="45.56102" lon="4.79365">
        <ele>195</ele>
        <time>2013-10-26T11:29:57Z</time>
      </trkpt>
      <trkpt lat="45.56105" lon="4.79372">
        <ele>195</ele>
        <time>2013-10-26T11:29:58Z</time>
      </trkpt>
      <trkpt lat="45.56108" lon="4.7938">
        <ele>195</ele>
        <time>2013-10-26T11:29:59Z</time>
      </trkpt>
      <trkpt lat="45.56113" lon="4.79387">
        <ele>195</ele>
        <time>2013-10-26T11:30:00Z</time>
      </trkpt>
      <trkpt lat="45.56114" lon="4.79395">
        <ele>195</ele>
        <time>2013-10-26T11:30:01Z</time>
      </trkpt>
      <trkpt lat="45.56117" lon="4.79403">
        <ele>195</ele>
        <time>2013-10-26T11:30:02Z</time>
      </trkpt>
      <trkpt lat="45.56119" lon="4.79414">
        <ele>195</ele>
        <time>2013-10-26T11:30:04Z</time>
      </trkpt>
      <trkpt lat="45.56119" lon="4.79417">
        <ele>195</ele>
        <time>2013-10-26T11:30:05Z</time>
      </trkpt>
      <trkpt lat="45.56122" lon="4.79426">
        <ele>195</ele>
        <time>2013-10-26T11:30:09Z</time>
      </trkpt>
      <trkpt lat="45.56124" lon="4.79429">
        <ele>195</ele>
        <time>2013-10-26T11:30:10Z</time>
      </trkpt>
      <trkpt lat="45.56128" lon="4.79439">
        <ele>194</ele>
        <time>2013-10-26T11:30:12Z</time>
      </trkpt>
      <trkpt lat="45.56126" lon="4.79443">
        <ele>195</ele>
        <time>2013-10-26T11:30:13Z</time>
      </trkpt>
      <trkpt lat="45.56125" lon="4.79451">
        <ele>195</ele>
        <time>2013-10-26T11:30:15Z</time>
      </trkpt>
      <trkpt lat="45.56126" lon="4.79457">
        <ele>195</ele>
        <time>2013-10-26T11:30:16Z</time>
      </trkpt>
      <trkpt lat="45.56123" lon="4.79468">
        <ele>195</ele>
        <time>2013-10-26T11:30:19Z</time>
      </trkpt>
      <trkpt lat="45.56123" lon="4.79471">
        <ele>195</ele>
        <time>2013-10-26T11:30:20Z</time>
      </trkpt>
      <trkpt lat="45.56124" lon="4.79481">
        <ele>196</ele>
        <time>2013-10-26T11:30:25Z</time>
      </trkpt>
      <trkpt lat="45.56124" lon="4.79485">
        <ele>196</ele>
        <time>2013-10-26T11:30:26Z</time>
      </trkpt>
      <trkpt lat="45.56124" lon="4.79494">
        <ele>196</ele>
        <time>2013-10-26T11:30:29Z</time>
      </trkpt>
      <trkpt lat="45.56125" lon="4.79499">
        <ele>196</ele>
        <time>2013-10-26T11:30:30Z</time>
      </trkpt>
      <trkpt lat="45.56124" lon="4.79509">
        <ele>197</ele>
        <time>2013-10-26T11:30:33Z</time>
      </trkpt>
      <trkpt lat="45.56123" lon="4.79512">
        <ele>197</ele>
        <time>2013-10-26T11:30:34Z</time>
      </trkpt>
      <trkpt lat="45.56123" lon="4.79524">
        <ele>197</ele>
        <time>2013-10-26T11:30:37Z</time>
      </trkpt>
      <trkpt lat="45.56123" lon="4.79529">
        <ele>197</ele>
        <time>2013-10-26T11:30:38Z</time>
      </trkpt>
      <trkpt lat="45.56122" lon="4.79538">
        <ele>197</ele>
        <time>2013-10-26T11:30:40Z</time>
      </trkpt>
      <trkpt lat="45.56122" lon="4.79544">
        <ele>197</ele>
        <time>2013-10-26T11:30:41Z</time>
      </trkpt>
      <trkpt lat="45.5612" lon="4.79555">
        <ele>197</ele>
        <time>2013-10-26T11:30:44Z</time>
      </trkpt>
      <trkpt lat="45.56121" lon="4.79559">
        <ele>197</ele>
        <time>2013-10-26T11:30:45Z</time>
      </trkpt>
      <trkpt lat="45.56117" lon="4.7957">
        <ele>197</ele>
        <time>2013-10-26T11:30:50Z</time>
      </trkpt>
      <trkpt lat="45.56117" lon="4.79576">
        <ele>197</ele>
        <time>2013-10-26T11:30:51Z</time>
      </trkpt>
      <trkpt lat="45.56115" lon="4.79586">
        <ele>198</ele>
        <time>2013-10-26T11:30:54Z</time>
      </trkpt>
      <trkpt lat="45.56114" lon="4.79589">
        <ele>198</ele>
        <time>2013-10-26T11:30:55Z</time>
      </trkpt>
      <trkpt lat="45.56112" lon="4.79598">
        <ele>198</ele>
        <time>2013-10-26T11:30:58Z</time>
      </trkpt>
      <trkpt lat="45.56112" lon="4.79602">
        <ele>198</ele>
        <time>2013-10-26T11:30:59Z</time>
      </trkpt>
      <trkpt lat="45.5611" lon="4.79611">
        <ele>198</ele>
        <time>2013-10-26T11:31:01Z</time>
      </trkpt>
      <trkpt lat="45.56109" lon="4.79616">
        <ele>198</ele>
        <time>2013-10-26T11:31:02Z</time>
      </trkpt>
      <trkpt lat="45.56105" lon="4.79625">
        <ele>198</ele>
        <time>2013-10-26T11:31:03Z</time>
      </trkpt>
      <trkpt lat="45.56104" lon="4.79632">
        <ele>198</ele>
        <time>2013-10-26T11:31:04Z</time>
      </trkpt>
      <trkpt lat="45.56102" lon="4.79638">
        <ele>197</ele>
        <time>2013-10-26T11:31:05Z</time>
      </trkpt>
      <trkpt lat="45.56103" lon="4.79645">
        <ele>197</ele>
        <time>2013-10-26T11:31:06Z</time>
      </trkpt>
      <trkpt lat="45.56102" lon="4.79652">
        <ele>197</ele>
        <time>2013-10-26T11:31:07Z</time>
      </trkpt>
      <trkpt lat="45.56106" lon="4.79658">
        <ele>197</ele>
        <time>2013-10-26T11:31:08Z</time>
      </trkpt>
      <trkpt lat="45.56109" lon="4.79668">
        <ele>196</ele>
        <time>2013-10-26T11:31:12Z</time>
      </trkpt>
      <trkpt lat="45.56107" lon="4.79673">
        <ele>195</ele>
        <time>2013-10-26T11:31:13Z</time>
      </trkpt>
      <trkpt lat="45.56105" lon="4.79685">
        <ele>195</ele>
        <time>2013-10-26T11:31:18Z</time>
      </trkpt>
      <trkpt lat="45.56105" lon="4.79686">
        <ele>195</ele>
        <time>2013-10-26T11:31:19Z</time>
      </trkpt>
      <trkpt lat="45.56111" lon="4.7969">
        <ele>195</ele>
        <time>2013-10-26T11:31:21Z</time>
      </trkpt>
      <trkpt lat="45.56113" lon="4.79693">
        <ele>195</ele>
        <time>2013-10-26T11:31:22Z</time>
      </trkpt>
      <trkpt lat="45.56119" lon="4.797">
        <ele>194</ele>
        <time>2013-10-26T11:31:24Z</time>
      </trkpt>
      <trkpt lat="45.56128" lon="4.79708">
        <ele>194</ele>
        <time>2013-10-26T11:31:25Z</time>
      </trkpt>
      <trkpt lat="45.56133" lon="4.79713">
        <ele>194</ele>
        <time>2013-10-26T11:31:26Z</time>
      </trkpt>
      <trkpt lat="45.56138" lon="4.79717">
        <ele>194</ele>
        <time>2013-10-26T11:31:27Z</time>
      </trkpt>
      <trkpt lat="45.56145" lon="4.79723">
        <ele>194</ele>
        <time>2013-10-26T11:31:28Z</time>
      </trkpt>
      <trkpt lat="45.56152" lon="4.79728">
        <ele>194</ele>
        <time>2013-10-26T11:31:29Z</time>
      </trkpt>
      <trkpt lat="45.56159" lon="4.79733">
        <ele>194</ele>
        <time>2013-10-26T11:31:30Z</time>
      </trkpt>
      <trkpt lat="45.56165" lon="4.79738">
        <ele>193</ele>
        <time>2013-10-26T11:31:31Z</time>
      </trkpt>
      <trkpt lat="45.56172" lon="4.79744">
        <ele>192</ele>
        <time>2013-10-26T11:31:32Z</time>
      </trkpt>
      <trkpt lat="45.56179" lon="4.79749">
        <ele>192</ele>
        <time>2013-10-26T11:31:33Z</time>
      </trkpt>
      <trkpt lat="45.56187" lon="4.79758">
        <ele>188</ele>
        <time>2013-10-26T11:31:34Z</time>
      </trkpt>
      <trkpt lat="45.56195" lon="4.79766">
        <ele>187</ele>
        <time>2013-10-26T11:31:35Z</time>
      </trkpt>
      <trkpt lat="45.56203" lon="4.79775">
        <ele>186</ele>
        <time>2013-10-26T11:31:36Z</time>
      </trkpt>
      <trkpt lat="45.56212" lon="4.79785">
        <ele>185</ele>
        <time>2013-10-26T11:31:37Z</time>
      </trkpt>
      <trkpt lat="45.56221" lon="4.79795">
        <ele>184</ele>
        <time>2013-10-26T11:31:38Z</time>
      </trkpt>
      <trkpt lat="45.56229" lon="4.79805">
        <ele>183</ele>
        <time>2013-10-26T11:31:39Z</time>
      </trkpt>
      <trkpt lat="45.56239" lon="4.79815">
        <ele>182</ele>
        <time>2013-10-26T11:31:40Z</time>
      </trkpt>
      <trkpt lat="45.56248" lon="4.79825">
        <ele>180</ele>
        <time>2013-10-26T11:31:41Z</time>
      </trkpt>
      <trkpt lat="45.56259" lon="4.79835">
        <ele>178</ele>
        <time>2013-10-26T11:31:42Z</time>
      </trkpt>
      <trkpt lat="45.56268" lon="4.79846">
        <ele>176</ele>
        <time>2013-10-26T11:31:43Z</time>
      </trkpt>
      <trkpt lat="45.56279" lon="4.79856">
        <ele>175</ele>
        <time>2013-10-26T11:31:44Z</time>
      </trkpt>
      <trkpt lat="45.56288" lon="4.79865">
        <ele>175</ele>
        <time>2013-10-26T11:31:45Z</time>
      </trkpt>
      <trkpt lat="45.56297" lon="4.79876">
        <ele>174</ele>
        <time>2013-10-26T11:31:46Z</time>
      </trkpt>
      <trkpt lat="45.56304" lon="4.79885">
        <ele>174</ele>
        <time>2013-10-26T11:31:47Z</time>
      </trkpt>
      <trkpt lat="45.56311" lon="4.79896">
        <ele>173</ele>
        <time>2013-10-26T11:31:48Z</time>
      </trkpt>
      <trkpt lat="45.56314" lon="4.79904">
        <ele>173</ele>
        <time>2013-10-26T11:31:49Z</time>
      </trkpt>
      <trkpt lat="45.56304" lon="4.79917">
        <ele>170</ele>
        <time>2013-10-26T11:31:50Z</time>
      </trkpt>
      <trkpt lat="45.56301" lon="4.7993">
        <ele>170</ele>
        <time>2013-10-26T11:31:51Z</time>
      </trkpt>
      <trkpt lat="45.56299" lon="4.79941">
        <ele>169</ele>
        <time>2013-10-26T11:31:52Z</time>
      </trkpt>
      <trkpt lat="45.56295" lon="4.79953">
        <ele>169</ele>
        <time>2013-10-26T11:31:53Z</time>
      </trkpt>
      <trkpt lat="45.56292" lon="4.79965">
        <ele>168</ele>
        <time>2013-10-26T11:31:54Z</time>
      </trkpt>
      <trkpt lat="45.5629" lon="4.79977">
        <ele>168</ele>
        <time>2013-10-26T11:31:55Z</time>
      </trkpt>
      <trkpt lat="45.56288" lon="4.79989">
        <ele>167</ele>
        <time>2013-10-26T11:31:56Z</time>
      </trkpt>
      <trkpt lat="45.56285" lon="4.8">
        <ele>163</ele>
        <time>2013-10-26T11:31:57Z</time>
      </trkpt>
      <trkpt lat="45.56283" lon="4.80011">
        <ele>163</ele>
        <time>2013-10-26T11:31:58Z</time>
      </trkpt>
      <trkpt lat="45.56281" lon="4.80023">
        <ele>163</ele>
        <time>2013-10-26T11:31:59Z</time>
      </trkpt>
      <trkpt lat="45.56279" lon="4.80035">
        <ele>163</ele>
        <time>2013-10-26T11:32:00Z</time>
      </trkpt>
      <trkpt lat="45.56277" lon="4.80046">
        <ele>163</ele>
        <time>2013-10-26T11:32:01Z</time>
      </trkpt>
      <trkpt lat="45.56274" lon="4.80056">
        <ele>162</ele>
        <time>2013-10-26T11:32:02Z</time>
      </trkpt>
      <trkpt lat="45.56271" lon="4.80065">
        <ele>162</ele>
        <time>2013-10-26T11:32:03Z</time>
      </trkpt>
      <trkpt lat="45.56269" lon="4.80077">
        <ele>162</ele>
        <time>2013-10-26T11:32:04Z</time>
      </trkpt>
      <trkpt lat="45.56267" lon="4.80087">
        <ele>161</ele>
        <time>2013-10-26T11:32:05Z</time>
      </trkpt>
      <trkpt lat="45.56264" lon="4.80098">
        <ele>161</ele>
        <time>2013-10-26T11:32:06Z</time>
      </trkpt>
      <trkpt lat="45.56262" lon="4.80108">
        <ele>161</ele>
        <time>2013-10-26T11:32:07Z</time>
      </trkpt>
      <trkpt lat="45.56261" lon="4.80118">
        <ele>161</ele>
        <time>2013-10-26T11:32:08Z</time>
      </trkpt>
      <trkpt lat="45.56259" lon="4.80126">
        <ele>161</ele>
        <time>2013-10-26T11:32:09Z</time>
      </trkpt>
      <trkpt lat="45.56255" lon="4.80135">
        <ele>161</ele>
        <time>2013-10-26T11:32:10Z</time>
      </trkpt>
      <trkpt lat="45.56252" lon="4.80141">
        <ele>161</ele>
        <time>2013-10-26T11:32:11Z</time>
      </trkpt>
      <trkpt lat="45.56253" lon="4.80153">
        <ele>161</ele>
        <time>2013-10-26T11:32:15Z</time>
      </trkpt>
      <trkpt lat="45.56257" lon="4.80156">
        <ele>161</ele>
        <time>2013-10-26T11:32:16Z</time>
      </trkpt>
      <trkpt lat="45.56263" lon="4.80157">
        <ele>161</ele>
        <time>2013-10-26T11:32:18Z</time>
      </trkpt>
      <trkpt lat="45.56269" lon="4.80162">
        <ele>161</ele>
        <time>2013-10-26T11:32:19Z</time>
      </trkpt>
      <trkpt lat="45.56274" lon="4.80166">
        <ele>161</ele>
        <time>2013-10-26T11:32:20Z</time>
      </trkpt>
      <trkpt lat="45.56279" lon="4.8017">
        <ele>160</ele>
        <time>2013-10-26T11:32:21Z</time>
      </trkpt>
      <trkpt lat="45.56283" lon="4.80177">
        <ele>160</ele>
        <time>2013-10-26T11:32:22Z</time>
      </trkpt>
      <trkpt lat="45.56287" lon="4.80182">
        <ele>160</ele>
        <time>2013-10-26T11:32:23Z</time>
      </trkpt>
      <trkpt lat="45.56292" lon="4.80188">
        <ele>160</ele>
        <time>2013-10-26T11:32:24Z</time>
      </trkpt>
      <trkpt lat="45.56295" lon="4.80194">
        <ele>160</ele>
        <time>2013-10-26T11:32:25Z</time>
      </trkpt>
      <trkpt lat="45.56299" lon="4.802">
        <ele>160</ele>
        <time>2013-10-26T11:32:26Z</time>
      </trkpt>
      <trkpt lat="45.56301" lon="4.80206">
        <ele>160</ele>
        <time>2013-10-26T11:32:27Z</time>
      </trkpt>
      <trkpt lat="45.56304" lon="4.80212">
        <ele>160</ele>
        <time>2013-10-26T11:32:28Z</time>
      </trkpt>
      <trkpt lat="45.56306" lon="4.80219">
        <ele>160</ele>
        <time>2013-10-26T11:32:29Z</time>
      </trkpt>
      <trkpt lat="45.56307" lon="4.80224">
        <ele>160</ele>
        <time>2013-10-26T11:32:30Z</time>
      </trkpt>
      <trkpt lat="45.56309" lon="4.80233">
        <ele>160</ele>
        <time>2013-10-26T11:32:31Z</time>
      </trkpt>
      <trkpt lat="45.56312" lon="4.80239">
        <ele>160</ele>
        <time>2013-10-26T11:32:32Z</time>
      </trkpt>
      <trkpt lat="45.56307" lon="4.80247">
        <ele>160</ele>
        <time>2013-10-26T11:32:33Z</time>
      </trkpt>
      <trkpt lat="45.56303" lon="4.80254">
        <ele>160</ele>
        <time>2013-10-26T11:32:34Z</time>
      </trkpt>
      <trkpt lat="45.56295" lon="4.8026">
        <ele>160</ele>
        <time>2013-10-26T11:32:35Z</time>
      </trkpt>
      <trkpt lat="45.5629" lon="4.80265">
        <ele>160</ele>
        <time>2013-10-26T11:32:36Z</time>
      </trkpt>
      <trkpt lat="45.56285" lon="4.8027">
        <ele>160</ele>
        <time>2013-10-26T11:32:37Z</time>
      </trkpt>
      <trkpt lat="45.5628" lon="4.8028">
        <ele>160</ele>
        <time>2013-10-26T11:32:39Z</time>
      </trkpt>
      <trkpt lat="45.56273" lon="4.80284">
        <ele>160</ele>
        <time>2013-10-26T11:32:40Z</time>
      </trkpt>
      <trkpt lat="45.5627" lon="4.80289">
        <ele>160</ele>
        <time>2013-10-26T11:32:41Z</time>
      </trkpt>
      <trkpt lat="45.56267" lon="4.80295">
        <ele>160</ele>
        <time>2013-10-26T11:32:42Z</time>
      </trkpt>
      <trkpt lat="45.56264" lon="4.80306">
        <ele>161</ele>
        <time>2013-10-26T11:32:44Z</time>
      </trkpt>
      <trkpt lat="45.56264" lon="4.80311">
        <ele>161</ele>
        <time>2013-10-26T11:32:45Z</time>
      </trkpt>
      <trkpt lat="45.56263" lon="4.80318">
        <ele>161</ele>
        <time>2013-10-26T11:32:46Z</time>
      </trkpt>
      <trkpt lat="45.56262" lon="4.80324">
        <ele>161</ele>
        <time>2013-10-26T11:32:47Z</time>
      </trkpt>
      <trkpt lat="45.56264" lon="4.80334">
        <ele>161</ele>
        <time>2013-10-26T11:32:48Z</time>
      </trkpt>
      <trkpt lat="45.56265" lon="4.80341">
        <ele>161</ele>
        <time>2013-10-26T11:32:49Z</time>
      </trkpt>
      <trkpt lat="45.56265" lon="4.80348">
        <ele>161</ele>
        <time>2013-10-26T11:32:50Z</time>
      </trkpt>
      <trkpt lat="45.56265" lon="4.80355">
        <ele>161</ele>
        <time>2013-10-26T11:32:51Z</time>
      </trkpt>
      <trkpt lat="45.56262" lon="4.80358">
        <ele>161</ele>
        <time>2013-10-26T11:32:52Z</time>
      </trkpt>
      <trkpt lat="45.56258" lon="4.80364">
        <ele>161</ele>
        <time>2013-10-26T11:32:53Z</time>
      </trkpt>
      <trkpt lat="45.56255" lon="4.80372">
        <ele>161</ele>
        <time>2013-10-26T11:32:54Z</time>
      </trkpt>
      <trkpt lat="45.5625" lon="4.8038">
        <ele>161</ele>
        <time>2013-10-26T11:32:55Z</time>
      </trkpt>
      <trkpt lat="45.56247" lon="4.80385">
        <ele>161</ele>
        <time>2013-10-26T11:32:56Z</time>
      </trkpt>
      <trkpt lat="45.56244" lon="4.80392">
        <ele>161</ele>
        <time>2013-10-26T11:32:57Z</time>
      </trkpt>
      <trkpt lat="45.56242" lon="4.80399">
        <ele>161</ele>
        <time>2013-10-26T11:32:58Z</time>
      </trkpt>
      <trkpt lat="45.56239" lon="4.80405">
        <ele>161</ele>
        <time>2013-10-26T11:32:59Z</time>
      </trkpt>
      <trkpt lat="45.56237" lon="4.80412">
        <ele>161</ele>
        <time>2013-10-26T11:33:00Z</time>
      </trkpt>
      <trkpt lat="45.56234" lon="4.80416">
        <ele>161</ele>
        <time>2013-10-26T11:33:01Z</time>
      </trkpt>
      <trkpt lat="45.56231" lon="4.80426">
        <ele>161</ele>
        <time>2013-10-26T11:33:03Z</time>
      </trkpt>
      <trkpt lat="45.56229" lon="4.80429">
        <ele>161</ele>
        <time>2013-10-26T11:33:04Z</time>
      </trkpt>
      <trkpt lat="45.56231" lon="4.80437">
        <ele>161</ele>
        <time>2013-10-26T11:33:07Z</time>
      </trkpt>
      <trkpt lat="45.56238" lon="4.80444">
        <ele>161</ele>
        <time>2013-10-26T11:33:08Z</time>
      </trkpt>
      <trkpt lat="45.56235" lon="4.80433">
        <ele>161</ele>
        <time>2013-10-26T11:33:10Z</time>
      </trkpt>
      <trkpt lat="45.56234" lon="4.80428">
        <ele>161</ele>
        <time>2013-10-26T11:33:11Z</time>
      </trkpt>
      <trkpt lat="45.56226" lon="4.80431">
        <ele>161</ele>
        <time>2013-10-26T11:33:13Z</time>
      </trkpt>
      <trkpt lat="45.56223" lon="4.80432">
        <ele>161</ele>
        <time>2013-10-26T11:33:14Z</time>
      </trkpt>
      <trkpt lat="45.56216" lon="4.80433">
        <ele>161</ele>
        <time>2013-10-26T11:33:16Z</time>
      </trkpt>
      <trkpt lat="45.56211" lon="4.80429">
        <ele>161</ele>
        <time>2013-10-26T11:33:17Z</time>
      </trkpt>
      <trkpt lat="45.56204" lon="4.80427">
        <ele>161</ele>
        <time>2013-10-26T11:33:19Z</time>
      </trkpt>
      <trkpt lat="45.56202" lon="4.80429">
        <ele>161</ele>
        <time>2013-10-26T11:33:20Z</time>
      </trkpt>
      <trkpt lat="45.56196" lon="4.80431">
        <ele>161</ele>
        <time>2013-10-26T11:33:22Z</time>
      </trkpt>
      <trkpt lat="45.56193" lon="4.80433">
        <ele>161</ele>
        <time>2013-10-26T11:33:23Z</time>
      </trkpt>
      <trkpt lat="45.56189" lon="4.80434">
        <ele>161</ele>
        <time>2013-10-26T11:33:24Z</time>
      </trkpt>
      <trkpt lat="45.56182" lon="4.80442">
        <ele>161</ele>
        <time>2013-10-26T11:33:25Z</time>
      </trkpt>
      <trkpt lat="45.56177" lon="4.80445">
        <ele>161</ele>
        <time>2013-10-26T11:33:26Z</time>
      </trkpt>
      <trkpt lat="45.56173" lon="4.80449">
        <ele>161</ele>
        <time>2013-10-26T11:33:27Z</time>
      </trkpt>
      <trkpt lat="45.56167" lon="4.80452">
        <ele>161</ele>
        <time>2013-10-26T11:33:28Z</time>
      </trkpt>
      <trkpt lat="45.56162" lon="4.80456">
        <ele>161</ele>
        <time>2013-10-26T11:33:29Z</time>
      </trkpt>
      <trkpt lat="45.56157" lon="4.80459">
        <ele>161</ele>
        <time>2013-10-26T11:33:30Z</time>
      </trkpt>
      <trkpt lat="45.56153" lon="4.80462">
        <ele>161</ele>
        <time>2013-10-26T11:33:31Z</time>
      </trkpt>
      <trkpt lat="45.56146" lon="4.80469">
        <ele>161</ele>
        <time>2013-10-26T11:33:33Z</time>
      </trkpt>
      <trkpt lat="45.56145" lon="4.80473">
        <ele>161</ele>
        <time>2013-10-26T11:33:34Z</time>
      </trkpt>
      <trkpt lat="45.5614" lon="4.80477">
        <ele>161</ele>
        <time>2013-10-26T11:33:35Z</time>
      </trkpt>
      <trkpt lat="45.56135" lon="4.8048">
        <ele>161</ele>
        <time>2013-10-26T11:33:36Z</time>
      </trkpt>
      <trkpt lat="45.56132" lon="4.80483">
        <ele>161</ele>
        <time>2013-10-26T11:33:37Z</time>
      </trkpt>
      <trkpt lat="45.56126" lon="4.80486">
        <ele>161</ele>
        <time>2013-10-26T11:33:38Z</time>
      </trkpt>
      <trkpt lat="45.56125" lon="4.80497">
        <ele>161</ele>
        <time>2013-10-26T11:33:41Z</time>
      </trkpt>
      <trkpt lat="45.56122" lon="4.80501">
        <ele>160</ele>
        <time>2013-10-26T11:33:42Z</time>
      </trkpt>
      <trkpt lat="45.56118" lon="4.80511">
        <ele>160</ele>
        <time>2013-10-26T11:33:44Z</time>
      </trkpt>
      <trkpt lat="45.56105" lon="4.80515">
        <ele>160</ele>
        <time>2013-10-26T11:33:45Z</time>
      </trkpt>
      <trkpt lat="45.561" lon="4.80519">
        <ele>160</ele>
        <time>2013-10-26T11:33:46Z</time>
      </trkpt>
      <trkpt lat="45.56095" lon="4.80522">
        <ele>160</ele>
        <time>2013-10-26T11:33:47Z</time>
      </trkpt>
      <trkpt lat="45.5609" lon="4.80525">
        <ele>160</ele>
        <time>2013-10-26T11:33:48Z</time>
      </trkpt>
      <trkpt lat="45.56086" lon="4.80528">
        <ele>160</ele>
        <time>2013-10-26T11:33:49Z</time>
      </trkpt>
      <trkpt lat="45.56082" lon="4.80532">
        <ele>163</ele>
        <time>2013-10-26T11:33:50Z</time>
      </trkpt>
      <trkpt lat="45.56077" lon="4.80534">
        <ele>163</ele>
        <time>2013-10-26T11:33:51Z</time>
      </trkpt>
      <trkpt lat="45.56073" lon="4.80537">
        <ele>163</ele>
        <time>2013-10-26T11:33:52Z</time>
      </trkpt>
      <trkpt lat="45.56066" lon="4.80536">
        <ele>163</ele>
        <time>2013-10-26T11:33:53Z</time>
      </trkpt>
      <trkpt lat="45.56058" lon="4.80538">
        <ele>164</ele>
        <time>2013-10-26T11:33:54Z</time>
      </trkpt>
      <trkpt lat="45.56046" lon="4.80539">
        <ele>164</ele>
        <time>2013-10-26T11:33:55Z</time>
      </trkpt>
      <trkpt lat="45.56055" lon="4.80542">
        <ele>164</ele>
        <time>2013-10-26T11:33:56Z</time>
      </trkpt>
      <trkpt lat="45.56053" lon="4.80548">
        <ele>164</ele>
        <time>2013-10-26T11:34:01Z</time>
      </trkpt>
      <trkpt lat="45.56048" lon="4.8055">
        <ele>164</ele>
        <time>2013-10-26T11:34:02Z</time>
      </trkpt>
      <trkpt lat="45.56042" lon="4.80555">
        <ele>164</ele>
        <time>2013-10-26T11:34:04Z</time>
      </trkpt>
      <trkpt lat="45.56035" lon="4.80558">
        <ele>164</ele>
        <time>2013-10-26T11:34:05Z</time>
      </trkpt>
      <trkpt lat="45.56031" lon="4.80564">
        <ele>164</ele>
        <time>2013-10-26T11:34:07Z</time>
      </trkpt>
      <trkpt lat="45.5603" lon="4.80569">
        <ele>165</ele>
        <time>2013-10-26T11:34:08Z</time>
      </trkpt>
      <trkpt lat="45.5603" lon="4.80574">
        <ele>165</ele>
        <time>2013-10-26T11:34:09Z</time>
      </trkpt>
      <trkpt lat="45.56039" lon="4.80584">
        <ele>162</ele>
        <time>2013-10-26T11:34:10Z</time>
      </trkpt>
      <trkpt lat="45.56042" lon="4.80592">
        <ele>162</ele>
        <time>2013-10-26T11:34:11Z</time>
      </trkpt>
      <trkpt lat="45.56044" lon="4.80599">
        <ele>162</ele>
        <time>2013-10-26T11:34:12Z</time>
      </trkpt>
      <trkpt lat="45.56049" lon="4.80607">
        <ele>162</ele>
        <time>2013-10-26T11:34:14Z</time>
      </trkpt>
      <trkpt lat="45.5605" lon="4.80612">
        <ele>162</ele>
        <time>2013-10-26T11:34:15Z</time>
      </trkpt>
      <trkpt lat="45.56051" lon="4.8062">
        <ele>161</ele>
        <time>2013-10-26T11:34:16Z</time>
      </trkpt>
      <trkpt lat="45.56055" lon="4.80627">
        <ele>161</ele>
        <time>2013-10-26T11:34:17Z</time>
      </trkpt>
      <trkpt lat="45.56059" lon="4.80632">
        <ele>161</ele>
        <time>2013-10-26T11:34:18Z</time>
      </trkpt>
      <trkpt lat="45.56062" lon="4.8064">
        <ele>161</ele>
        <time>2013-10-26T11:34:19Z</time>
      </trkpt>
      <trkpt lat="45.56066" lon="4.80652">
        <ele>160</ele>
        <time>2013-10-26T11:34:20Z</time>
      </trkpt>
      <trkpt lat="45.5607" lon="4.80662">
        <ele>159</ele>
        <time>2013-10-26T11:34:21Z</time>
      </trkpt>
      <trkpt lat="45.56074" lon="4.80674">
        <ele>158</ele>
        <time>2013-10-26T11:34:22Z</time>
      </trkpt>
      <trkpt lat="45.56078" lon="4.80685">
        <ele>158</ele>
        <time>2013-10-26T11:34:23Z</time>
      </trkpt>
      <trkpt lat="45.56079" lon="4.80691">
        <ele>158</ele>
        <time>2013-10-26T11:34:24Z</time>
      </trkpt>
      <trkpt lat="45.56079" lon="4.80702">
        <ele>158</ele>
        <time>2013-10-26T11:34:27Z</time>
      </trkpt>
      <trkpt lat="45.5608" lon="4.80706">
        <ele>158</ele>
        <time>2013-10-26T11:34:28Z</time>
      </trkpt>
      <trkpt lat="45.56082" lon="4.80715">
        <ele>158</ele>
        <time>2013-10-26T11:34:29Z</time>
      </trkpt>
      <trkpt lat="45.56083" lon="4.8072">
        <ele>158</ele>
        <time>2013-10-26T11:34:30Z</time>
      </trkpt>
      <trkpt lat="45.56086" lon="4.80728">
        <ele>157</ele>
        <time>2013-10-26T11:34:33Z</time>
      </trkpt>
      <trkpt lat="45.56086" lon="4.80732">
        <ele>157</ele>
        <time>2013-10-26T11:34:34Z</time>
      </trkpt>
      <trkpt lat="45.56092" lon="4.80737">
        <ele>157</ele>
        <time>2013-10-26T11:34:37Z</time>
      </trkpt>
      <trkpt lat="45.56093" lon="4.8074">
        <ele>157</ele>
        <time>2013-10-26T11:34:38Z</time>
      </trkpt>
      <trkpt lat="45.56097" lon="4.80747">
        <ele>157</ele>
        <time>2013-10-26T11:34:40Z</time>
      </trkpt>
      <trkpt lat="45.561" lon="4.8075">
        <ele>157</ele>
        <time>2013-10-26T11:34:41Z</time>
      </trkpt>
      <trkpt lat="45.56107" lon="4.80751">
        <ele>157</ele>
        <time>2013-10-26T11:34:43Z</time>
      </trkpt>
      <trkpt lat="45.56112" lon="4.8075">
        <ele>157</ele>
        <time>2013-10-26T11:34:44Z</time>
      </trkpt>
      <trkpt lat="45.56117" lon="4.80749">
        <ele>158</ele>
        <time>2013-10-26T11:34:45Z</time>
      </trkpt>
      <trkpt lat="45.56122" lon="4.8075">
        <ele>158</ele>
        <time>2013-10-26T11:34:46Z</time>
      </trkpt>
      <trkpt lat="45.56129" lon="4.80745">
        <ele>158</ele>
        <time>2013-10-26T11:34:48Z</time>
      </trkpt>
      <trkpt lat="45.56132" lon="4.80743">
        <ele>158</ele>
        <time>2013-10-26T11:34:49Z</time>
      </trkpt>
      <trkpt lat="45.56138" lon="4.80738">
        <ele>158</ele>
        <time>2013-10-26T11:34:51Z</time>
      </trkpt>
      <trkpt lat="45.56144" lon="4.80742">
        <ele>158</ele>
        <time>2013-10-26T11:34:52Z</time>
      </trkpt>
      <trkpt lat="45.56152" lon="4.80737">
        <ele>158</ele>
        <time>2013-10-26T11:34:54Z</time>
      </trkpt>
      <trkpt lat="45.56155" lon="4.80736">
        <ele>158</ele>
        <time>2013-10-26T11:34:55Z</time>
      </trkpt>
      <trkpt lat="45.56165" lon="4.80724">
        <ele>158</ele>
        <time>2013-10-26T11:34:56Z</time>
      </trkpt>
      <trkpt lat="45.56169" lon="4.80717">
        <ele>158</ele>
        <time>2013-10-26T11:34:57Z</time>
      </trkpt>
      <trkpt lat="45.56173" lon="4.80711">
        <ele>158</ele>
        <time>2013-10-26T11:34:58Z</time>
      </trkpt>
      <trkpt lat="45.56178" lon="4.80708">
        <ele>158</ele>
        <time>2013-10-26T11:34:59Z</time>
      </trkpt>
      <trkpt lat="45.56184" lon="4.80703">
        <ele>158</ele>
        <time>2013-10-26T11:35:00Z</time>
      </trkpt>
      <trkpt lat="45.5619" lon="4.80696">
        <ele>158</ele>
        <time>2013-10-26T11:35:01Z</time>
      </trkpt>
      <trkpt lat="45.56194" lon="4.80692">
        <ele>158</ele>
        <time>2013-10-26T11:35:02Z</time>
      </trkpt>
      <trkpt lat="45.56199" lon="4.80685">
        <ele>158</ele>
        <time>2013-10-26T11:35:03Z</time>
      </trkpt>
      <trkpt lat="45.56204" lon="4.80678">
        <ele>158</ele>
        <time>2013-10-26T11:35:04Z</time>
      </trkpt>
      <trkpt lat="45.56209" lon="4.80673">
        <ele>158</ele>
        <time>2013-10-26T11:35:05Z</time>
      </trkpt>
      <trkpt lat="45.56213" lon="4.8067">
        <ele>158</ele>
        <time>2013-10-26T11:35:06Z</time>
      </trkpt>
      <trkpt lat="45.56218" lon="4.80662">
        <ele>159</ele>
        <time>2013-10-26T11:35:07Z</time>
      </trkpt>
      <trkpt lat="45.56223" lon="4.80653">
        <ele>159</ele>
        <time>2013-10-26T11:35:08Z</time>
      </trkpt>
      <trkpt lat="45.56225" lon="4.80647">
        <ele>159</ele>
        <time>2013-10-26T11:35:09Z</time>
      </trkpt>
      <trkpt lat="45.56231" lon="4.8064">
        <ele>159</ele>
        <time>2013-10-26T11:35:10Z</time>
      </trkpt>
      <trkpt lat="45.56236" lon="4.80633">
        <ele>159</ele>
        <time>2013-10-26T11:35:11Z</time>
      </trkpt>
      <trkpt lat="45.56241" lon="4.80625">
        <ele>159</ele>
        <time>2013-10-26T11:35:12Z</time>
      </trkpt>
      <trkpt lat="45.56247" lon="4.80618">
        <ele>159</ele>
        <time>2013-10-26T11:35:13Z</time>
      </trkpt>
      <trkpt lat="45.56252" lon="4.80611">
        <ele>159</ele>
        <time>2013-10-26T11:35:14Z</time>
      </trkpt>
      <trkpt lat="45.56259" lon="4.80605">
        <ele>159</ele>
        <time>2013-10-26T11:35:15Z</time>
      </trkpt>
      <trkpt lat="45.56266" lon="4.80597">
        <ele>159</ele>
        <time>2013-10-26T11:35:16Z</time>
      </trkpt>
      <trkpt lat="45.56273" lon="4.80589">
        <ele>159</ele>
        <time>2013-10-26T11:35:17Z</time>
      </trkpt>
      <trkpt lat="45.5628" lon="4.80581">
        <ele>159</ele>
        <time>2013-10-26T11:35:18Z</time>
      </trkpt>
      <trkpt lat="45.56285" lon="4.80576">
        <ele>159</ele>
        <time>2013-10-26T11:35:19Z</time>
      </trkpt>
      <trkpt lat="45.56289" lon="4.8057">
        <ele>159</ele>
        <time>2013-10-26T11:35:20Z</time>
      </trkpt>
      <trkpt lat="45.56295" lon="4.80564">
        <ele>159</ele>
        <time>2013-10-26T11:35:21Z</time>
      </trkpt>
      <trkpt lat="45.563" lon="4.80557">
        <ele>159</ele>
        <time>2013-10-26T11:35:22Z</time>
      </trkpt>
      <trkpt lat="45.56304" lon="4.80554">
        <ele>159</ele>
        <time>2013-10-26T11:35:23Z</time>
      </trkpt>
      <trkpt lat="45.56311" lon="4.80548">
        <ele>159</ele>
        <time>2013-10-26T11:35:24Z</time>
      </trkpt>
      <trkpt lat="45.56317" lon="4.80542">
        <ele>159</ele>
        <time>2013-10-26T11:35:25Z</time>
      </trkpt>
      <trkpt lat="45.56322" lon="4.80536">
        <ele>159</ele>
        <time>2013-10-26T11:35:26Z</time>
      </trkpt>
      <trkpt lat="45.56328" lon="4.8053">
        <ele>159</ele>
        <time>2013-10-26T11:35:27Z</time>
      </trkpt>
      <trkpt lat="45.56333" lon="4.80528">
        <ele>159</ele>
        <time>2013-10-26T11:35:28Z</time>
      </trkpt>
      <trkpt lat="45.56342" lon="4.80524">
        <ele>159</ele>
        <time>2013-10-26T11:35:29Z</time>
      </trkpt>
      <trkpt lat="45.56347" lon="4.8052">
        <ele>159</ele>
        <time>2013-10-26T11:35:30Z</time>
      </trkpt>
      <trkpt lat="45.56351" lon="4.80515">
        <ele>159</ele>
        <time>2013-10-26T11:35:31Z</time>
      </trkpt>
      <trkpt lat="45.56357" lon="4.80507">
        <ele>159</ele>
        <time>2013-10-26T11:35:34Z</time>
      </trkpt>
      <trkpt lat="45.56361" lon="4.80507">
        <ele>159</ele>
        <time>2013-10-26T11:35:35Z</time>
      </trkpt>
      <trkpt lat="45.56367" lon="4.80502">
        <ele>159</ele>
        <time>2013-10-26T11:35:37Z</time>
      </trkpt>
      <trkpt lat="45.56372" lon="4.80502">
        <ele>159</ele>
        <time>2013-10-26T11:35:38Z</time>
      </trkpt>
      <trkpt lat="45.56379" lon="4.80498">
        <ele>159</ele>
        <time>2013-10-26T11:35:40Z</time>
      </trkpt>
      <trkpt lat="45.56382" lon="4.80497">
        <ele>159</ele>
        <time>2013-10-26T11:35:41Z</time>
      </trkpt>
      <trkpt lat="45.56386" lon="4.80493">
        <ele>159</ele>
        <time>2013-10-26T11:35:44Z</time>
      </trkpt>
      <trkpt lat="45.56386" lon="4.80486">
        <ele>159</ele>
        <time>2013-10-26T11:35:45Z</time>
      </trkpt>
      <trkpt lat="45.56387" lon="4.80476">
        <ele>159</ele>
        <time>2013-10-26T11:35:52Z</time>
      </trkpt>
      <trkpt lat="45.56387" lon="4.80476">
        <ele>159</ele>
        <time>2013-10-26T11:35:53Z</time>
      </trkpt>
      <trkpt lat="45.56388" lon="4.80473">
        <ele>159</ele>
        <time>2013-10-26T11:35:54Z</time>
      </trkpt>
      <trkpt lat="45.56389" lon="4.80467">
        <ele>159</ele>
        <time>2013-10-26T11:36:01Z</time>
      </trkpt>
      <trkpt lat="45.56389" lon="4.80467">
        <ele>159</ele>
        <time>2013-10-26T11:36:02Z</time>
      </trkpt>
      <trkpt lat="45.5639" lon="4.80467">
        <ele>159</ele>
        <time>2013-10-26T11:36:03Z</time>
      </trkpt>
      <trkpt lat="45.5639" lon="4.80467">
        <ele>159</ele>
        <time>2013-10-26T11:36:04Z</time>
      </trkpt>
      <trkpt lat="45.56391" lon="4.80468">
        <ele>159</ele>
        <time>2013-10-26T11:36:05Z</time>
      </trkpt>
      <trkpt lat="45.56388" lon="4.80464">
        <ele>159</ele>
        <time>2013-10-26T11:36:27Z</time>
      </trkpt>
      <trkpt lat="45.56388" lon="4.80463">
        <ele>159</ele>
        <time>2013-10-26T11:36:28Z</time>
      </trkpt>
      <trkpt lat="45.56388" lon="4.80464">
        <ele>159</ele>
        <time>2013-10-26T11:36:29Z</time>
      </trkpt>
      <trkpt lat="45.56388" lon="4.80465">
        <ele>159</ele>
        <time>2013-10-26T11:36:32Z</time>
      </trkpt>
      <trkpt lat="45.56388" lon="4.80464">
        <ele>159</ele>
        <time>2013-10-26T11:36:33Z</time>
      </trkpt>
      <trkpt lat="45.56389" lon="4.80465">
        <ele>159</ele>
        <time>2013-10-26T11:36:34Z</time>
      </trkpt>
      <trkpt lat="45.56389" lon="4.80465">
        <ele>159</ele>
        <time>2013-10-26T11:36:35Z</time>
      </trkpt>
      <trkpt lat="45.56389" lon="4.80465">
        <ele>159</ele>
        <time>2013-10-26T11:36:38Z</time>
      </trkpt>
      <trkpt lat="45.5639" lon="4.80464">
        <ele>159</ele>
        <time>2013-10-26T11:36:39Z</time>
      </trkpt>
      <trkpt lat="45.5639" lon="4.80464">
        <ele>159</ele>
        <time>2013-10-26T11:36:40Z</time>
      </trkpt>
      <trkpt lat="45.5639" lon="4.80465">
        <ele>159</ele>
        <time>2013-10-26T11:36:41Z</time>
      </trkpt>
      <trkpt lat="45.5639" lon="4.80465">
        <ele>159</ele>
        <time>2013-10-26T11:36:42Z</time>
      </trkpt>
      <trkpt lat="45.5639" lon="4.80465">
        <ele>159</ele>
        <time>2013-10-26T11:36:43Z</time>
      </trkpt>
      <trkpt lat="45.56391" lon="4.80464">
        <ele>159</ele>
        <time>2013-10-26T11:36:44Z</time>
      </trkpt>
      <trkpt lat="45.56391" lon="4.80464">
        <ele>159</ele>
        <time>2013-10-26T11:36:45Z</time>
      </trkpt>
      <trkpt lat="45.56391" lon="4.80464">
        <ele>159</ele>
        <time>2013-10-26T11:36:46Z</time>
      </trkpt>
      <trkpt lat="45.56391" lon="4.80464">
        <ele>159</ele>
        <time>2013-10-26T11:36:47Z</time>
      </trkpt>
      <trkpt lat="45.56391" lon="4.80464">
        <ele>159</ele>
        <time>2013-10-26T11:36:48Z</time>
      </trkpt>
      <trkpt lat="45.56391" lon="4.80464">
        <ele>159</ele>
        <time>2013-10-26T11:36:49Z</time>
      </trkpt>
      <trkpt lat="45.56392" lon="4.80464">
        <ele>159</ele>
        <time>2013-10-26T11:36:50Z</time>
      </trkpt>
      <trkpt lat="45.56392" lon="4.80464">
        <ele>159</ele>
        <time>2013-10-26T11:36:51Z</time>
      </trkpt>
      <trkpt lat="45.56392" lon="4.80464">
        <ele>159</ele>
        <time>2013-10-26T11:36:52Z</time>
      </trkpt>
      <trkpt lat="45.56392" lon="4.80464">
        <ele>159</ele>
        <time>2013-10-26T11:36:53Z</time>
      </trkpt>
      <trkpt lat="45.56392" lon="4.80464">
        <ele>159</ele>
        <time>2013-10-26T11:36:54Z</time>
      </trkpt>
      <trkpt lat="45.56392" lon="4.80464">
        <ele>159</ele>
        <time>2013-10-26T11:36:55Z</time>
      </trkpt>
      <trkpt lat="45.56392" lon="4.80464">
        <ele>159</ele>
        <time>2013-10-26T11:36:56Z</time>
      </trkpt>
      <trkpt lat="45.56393" lon="4.80463">
        <ele>159</ele>
        <time>2013-10-26T11:37:00Z</time>
      </trkpt>
      <trkpt lat="45.56393" lon="4.80462">
        <ele>159</ele>
        <time>2013-10-26T11:37:01Z</time>
      </trkpt>
      <trkpt lat="45.56393" lon="4.80463">
        <ele>159</ele>
        <time>2013-10-26T11:37:02Z</time>
      </trkpt>
      <trkpt lat="45.56393" lon="4.80461">
        <ele>159</ele>
        <time>2013-10-26T11:37:03Z</time>
      </trkpt>
      <trkpt lat="45.56392" lon="4.80461">
        <ele>159</ele>
        <time>2013-10-26T11:37:12Z</time>
      </trkpt>
      <trkpt lat="45.56392" lon="4.80461">
        <ele>159</ele>
        <time>2013-10-26T11:37:13Z</time>
      </trkpt>
      <trkpt lat="45.56392" lon="4.80461">
        <ele>159</ele>
        <time>2013-10-26T11:37:16Z</time>
      </trkpt>
      <trkpt lat="45.56392" lon="4.80461">
        <ele>159</ele>
        <time>2013-10-26T11:37:17Z</time>
      </trkpt>
      <trkpt lat="45.5639" lon="4.80464">
        <ele>159</ele>
        <time>2013-10-26T11:37:28Z</time>
      </trkpt>
      <trkpt lat="45.56389" lon="4.80464">
        <ele>159</ele>
        <time>2013-10-26T11:37:29Z</time>
      </trkpt>
      <trkpt lat="45.56389" lon="4.80464">
        <ele>159</ele>
        <time>2013-10-26T11:37:32Z</time>
      </trkpt>
      <trkpt lat="45.5639" lon="4.80465">
        <ele>159</ele>
        <time>2013-10-26T11:37:33Z</time>
      </trkpt>
      <trkpt lat="45.5639" lon="4.80465">
        <ele>159</ele>
        <time>2013-10-26T11:37:34Z</time>
      </trkpt>
      <trkpt lat="45.5639" lon="4.80465">
        <ele>159</ele>
        <time>2013-10-26T11:37:35Z</time>
      </trkpt>
      <trkpt lat="45.56391" lon="4.80465">
        <ele>159</ele>
        <time>2013-10-26T11:37:36Z</time>
      </trkpt>
      <trkpt lat="45.56391" lon="4.80465">
        <ele>159</ele>
        <time>2013-10-26T11:37:37Z</time>
      </trkpt>
      <trkpt lat="45.56391" lon="4.80466">
        <ele>159</ele>
        <time>2013-10-26T11:37:45Z</time>
      </trkpt>
      <trkpt lat="45.56391" lon="4.80468">
        <ele>159</ele>
        <time>2013-10-26T11:37:46Z</time>
      </trkpt>
      <trkpt lat="45.56392" lon="4.80468">
        <ele>159</ele>
        <time>2013-10-26T11:37:48Z</time>
      </trkpt>
      <trkpt lat="45.56392" lon="4.80468">
        <ele>159</ele>
        <time>2013-10-26T11:37:49Z</time>
      </trkpt>
      <trkpt lat="45.56394" lon="4.80466">
        <ele>159</ele>
        <time>2013-10-26T11:37:50Z</time>
      </trkpt>
      <trkpt lat="45.56394" lon="4.80465">
        <ele>159</ele>
        <time>2013-10-26T11:37:51Z</time>
      </trkpt>
      <trkpt lat="45.56394" lon="4.8046">
        <ele>159</ele>
        <time>2013-10-26T11:37:59Z</time>
      </trkpt>
      <trkpt lat="45.56394" lon="4.8046">
        <ele>159</ele>
        <time>2013-10-26T11:38:00Z</time>
      </trkpt>
      <trkpt lat="45.56395" lon="4.8046">
        <ele>159</ele>
        <time>2013-10-26T11:38:06Z</time>
      </trkpt>
      <trkpt lat="45.56395" lon="4.8046">
        <ele>159</ele>
        <time>2013-10-26T11:38:07Z</time>
      </trkpt>
      <trkpt lat="45.56395" lon="4.8046">
        <ele>159</ele>
        <time>2013-10-26T11:38:08Z</time>
      </trkpt>
      <trkpt lat="45.56395" lon="4.8046">
        <ele>159</ele>
        <time>2013-10-26T11:38:12Z</time>
      </trkpt>
    </trkseg>
  </trk>
</gpx>